<?xml version="1.0"?>
<gpx
 version="1.1"
 creator="Satmap Active 20"
 xmlns:xsi="http://www.w3.org/2001/XMLSchema-instance"
 xmlns="http://www.topografix.com/GPX/1/1"
 xmlns:satmap="http://www.satmap.com/updates/xmlschemas/GpxExtensions/v2/GpxExtensions_v2.xsd"
 xsi:schemaLocation="http://www.topografix.com/GPX/1/1 http://www.topografix.com/GPX/1/1/gpx.xsd">
<metadata>
<time>2020-08-14T10:03:29Z</time>
<extensions>
<satmap:platform>43</satmap:platform>
<satmap:software version="3.12.831">SM15.exe</satmap:software>
<satmap:username>Jim Grant</satmap:username>
<satmap:network_ids>
<satmap:network_id type="wifi">00-23-A7-EC-D5-78</satmap:network_id>
<satmap:network_id type="bluetooth">80-BB-EB-D7-5B-7C</satmap:network_id>
</satmap:network_ids>
<satmap:snap_type>simple</satmap:snap_type>
</extensions>
</metadata>
<trk>
<name>2020-08-14_1003</name>
<desc>Track 1</desc>
<number>1</number>
<trkseg>
<trkpt lat="54.620536" lon="-3.131298"><ele>194</ele><time>2020-08-14T10:03:29Z</time><name>PT1</name></trkpt>
<trkpt lat="54.620558" lon="-3.131324"><ele>192</ele><time>2020-08-14T10:03:38Z</time><name>PT2</name></trkpt>
<trkpt lat="54.620563" lon="-3.131330"><ele>191</ele><time>2020-08-14T10:03:38Z</time><name>PT3</name></trkpt>
<trkpt lat="54.620568" lon="-3.131338"><ele>190</ele><time>2020-08-14T10:03:39Z</time><name>PT4</name></trkpt>
<trkpt lat="54.620566" lon="-3.131336"><ele>189</ele><time>2020-08-14T10:03:47Z</time><name>PT5</name></trkpt>
<trkpt lat="54.620572" lon="-3.131326"><ele>190</ele><time>2020-08-14T10:03:47Z</time><name>PT6</name></trkpt>
<trkpt lat="54.620571" lon="-3.131310"><ele>190</ele><time>2020-08-14T10:03:48Z</time><name>PT7</name></trkpt>
<trkpt lat="54.620581" lon="-3.131319"><ele>191</ele><time>2020-08-14T10:03:50Z</time><name>PT8</name></trkpt>
<trkpt lat="54.620592" lon="-3.131336"><ele>192</ele><time>2020-08-14T10:03:50Z</time><name>PT9</name></trkpt>
<trkpt lat="54.620594" lon="-3.131350"><ele>192</ele><time>2020-08-14T10:03:51Z</time><name>PT10</name></trkpt>
<trkpt lat="54.620609" lon="-3.131341"><ele>193</ele><time>2020-08-14T10:03:53Z</time><name>PT11</name></trkpt>
<trkpt lat="54.620615" lon="-3.131338"><ele>194</ele><time>2020-08-14T10:03:53Z</time><name>PT12</name></trkpt>
<trkpt lat="54.620622" lon="-3.131340"><ele>195</ele><time>2020-08-14T10:03:54Z</time><name>PT13</name></trkpt>
<trkpt lat="54.620634" lon="-3.131331"><ele>196</ele><time>2020-08-14T10:03:56Z</time><name>PT14</name></trkpt>
<trkpt lat="54.620630" lon="-3.131340"><ele>196</ele><time>2020-08-14T10:03:56Z</time><name>PT15</name></trkpt>
<trkpt lat="54.620627" lon="-3.131329"><ele>196</ele><time>2020-08-14T10:03:57Z</time><name>PT16</name></trkpt>
<trkpt lat="54.620629" lon="-3.131320"><ele>197</ele><time>2020-08-14T10:03:59Z</time><name>PT17</name></trkpt>
<trkpt lat="54.620627" lon="-3.131332"><ele>197</ele><time>2020-08-14T10:03:59Z</time><name>PT18</name></trkpt>
<trkpt lat="54.620635" lon="-3.131332"><ele>198</ele><time>2020-08-14T10:04:00Z</time><name>PT19</name></trkpt>
<trkpt lat="54.620629" lon="-3.131326"><ele>199</ele><time>2020-08-14T10:04:02Z</time><name>PT20</name></trkpt>
<trkpt lat="54.620617" lon="-3.131346"><ele>199</ele><time>2020-08-14T10:04:02Z</time><name>PT21</name></trkpt>
<trkpt lat="54.620629" lon="-3.131345"><ele>201</ele><time>2020-08-14T10:04:03Z</time><name>PT22</name></trkpt>
<trkpt lat="54.620622" lon="-3.131334"><ele>200</ele><time>2020-08-14T10:04:05Z</time><name>PT23</name></trkpt>
<trkpt lat="54.620613" lon="-3.131321"><ele>199</ele><time>2020-08-14T10:04:05Z</time><name>PT24</name></trkpt>
<trkpt lat="54.620602" lon="-3.131273"><ele>197</ele><time>2020-08-14T10:04:06Z</time><name>PT25</name></trkpt>
<trkpt lat="54.620609" lon="-3.131256"><ele>198</ele><time>2020-08-14T10:04:08Z</time><name>PT26</name></trkpt>
<trkpt lat="54.620589" lon="-3.131261"><ele>197</ele><time>2020-08-14T10:04:08Z</time><name>PT27</name></trkpt>
<trkpt lat="54.620580" lon="-3.131268"><ele>198</ele><time>2020-08-14T10:04:09Z</time><name>PT28</name></trkpt>
<trkpt lat="54.620581" lon="-3.131282"><ele>199</ele><time>2020-08-14T10:04:11Z</time><name>PT29</name></trkpt>
<trkpt lat="54.620563" lon="-3.131275"><ele>201</ele><time>2020-08-14T10:04:11Z</time><name>PT30</name></trkpt>
<trkpt lat="54.620560" lon="-3.131263"><ele>201</ele><time>2020-08-14T10:04:12Z</time><name>PT31</name></trkpt>
<trkpt lat="54.620536" lon="-3.131271"><ele>201</ele><time>2020-08-14T10:04:14Z</time><name>PT32</name></trkpt>
<trkpt lat="54.620533" lon="-3.131268"><ele>201</ele><time>2020-08-14T10:04:14Z</time><name>PT33</name></trkpt>
<trkpt lat="54.620548" lon="-3.131233"><ele>201</ele><time>2020-08-14T10:04:15Z</time><name>PT34</name></trkpt>
<trkpt lat="54.620537" lon="-3.131223"><ele>201</ele><time>2020-08-14T10:04:17Z</time><name>PT35</name></trkpt>
<trkpt lat="54.620542" lon="-3.131226"><ele>201</ele><time>2020-08-14T10:04:17Z</time><name>PT36</name></trkpt>
<trkpt lat="54.620537" lon="-3.131213"><ele>201</ele><time>2020-08-14T10:04:18Z</time><name>PT37</name></trkpt>
<trkpt lat="54.620541" lon="-3.131216"><ele>201</ele><time>2020-08-14T10:04:20Z</time><name>PT38</name></trkpt>
<trkpt lat="54.620545" lon="-3.131203"><ele>200</ele><time>2020-08-14T10:04:20Z</time><name>PT39</name></trkpt>
<trkpt lat="54.620548" lon="-3.131220"><ele>202</ele><time>2020-08-14T10:04:21Z</time><name>PT40</name></trkpt>
<trkpt lat="54.620562" lon="-3.131241"><ele>202</ele><time>2020-08-14T10:04:23Z</time><name>PT41</name></trkpt>
<trkpt lat="54.620555" lon="-3.131248"><ele>202</ele><time>2020-08-14T10:04:23Z</time><name>PT42</name></trkpt>
<trkpt lat="54.620559" lon="-3.131268"><ele>201</ele><time>2020-08-14T10:04:24Z</time><name>PT43</name></trkpt>
<trkpt lat="54.620565" lon="-3.131277"><ele>201</ele><time>2020-08-14T10:04:26Z</time><name>PT44</name></trkpt>
<trkpt lat="54.620584" lon="-3.131314"><ele>198</ele><time>2020-08-14T10:04:38Z</time><name>PT45</name></trkpt>
<trkpt lat="54.620615" lon="-3.131376"><ele>199</ele><time>2020-08-14T10:04:38Z</time><name>PT46</name></trkpt>
<trkpt lat="54.620618" lon="-3.131381"><ele>198</ele><time>2020-08-14T10:04:40Z</time><name>PT47</name></trkpt>
<trkpt lat="54.620621" lon="-3.131386"><ele>198</ele><time>2020-08-14T10:04:41Z</time><name>PT48</name></trkpt>
<trkpt lat="54.620626" lon="-3.131393"><ele>198</ele><time>2020-08-14T10:04:41Z</time><name>PT49</name></trkpt>
<trkpt lat="54.620629" lon="-3.131385"><ele>198</ele><time>2020-08-14T10:04:42Z</time><name>PT50</name></trkpt>
<trkpt lat="54.620623" lon="-3.131389"><ele>199</ele><time>2020-08-14T10:04:45Z</time><name>PT51</name></trkpt>
<trkpt lat="54.620627" lon="-3.131387"><ele>199</ele><time>2020-08-14T10:04:47Z</time><name>PT52</name></trkpt>
<trkpt lat="54.620605" lon="-3.131406"><ele>196</ele><time>2020-08-14T10:04:47Z</time><name>PT53</name></trkpt>
<trkpt lat="54.620610" lon="-3.131387"><ele>196</ele><time>2020-08-14T10:04:48Z</time><name>PT54</name></trkpt>
<trkpt lat="54.620612" lon="-3.131361"><ele>195</ele><time>2020-08-14T10:04:50Z</time><name>PT55</name></trkpt>
<trkpt lat="54.620583" lon="-3.131344"><ele>194</ele><time>2020-08-14T10:04:50Z</time><name>PT56</name></trkpt>
<trkpt lat="54.620596" lon="-3.131328"><ele>193</ele><time>2020-08-14T10:04:51Z</time><name>PT57</name></trkpt>
<trkpt lat="54.620626" lon="-3.131339"><ele>192</ele><time>2020-08-14T10:04:53Z</time><name>PT58</name></trkpt>
<trkpt lat="54.620637" lon="-3.131305"><ele>192</ele><time>2020-08-14T10:04:53Z</time><name>PT59</name></trkpt>
<trkpt lat="54.620647" lon="-3.131294"><ele>192</ele><time>2020-08-14T10:04:54Z</time><name>PT60</name></trkpt>
<trkpt lat="54.620644" lon="-3.131296"><ele>191</ele><time>2020-08-14T10:04:56Z</time><name>PT61</name></trkpt>
<trkpt lat="54.620619" lon="-3.131291"><ele>191</ele><time>2020-08-14T10:04:56Z</time><name>PT62</name></trkpt>
<trkpt lat="54.620618" lon="-3.131286"><ele>191</ele><time>2020-08-14T10:04:57Z</time><name>PT63</name></trkpt>
<trkpt lat="54.620623" lon="-3.131308"><ele>190</ele><time>2020-08-14T10:05:12Z</time><name>PT64</name></trkpt>
<trkpt lat="54.620629" lon="-3.131329"><ele>190</ele><time>2020-08-14T10:05:14Z</time><name>PT65</name></trkpt>
<trkpt lat="54.620614" lon="-3.131337"><ele>190</ele><time>2020-08-14T10:05:14Z</time><name>PT66</name></trkpt>
<trkpt lat="54.620612" lon="-3.131347"><ele>190</ele><time>2020-08-14T10:05:15Z</time><name>PT67</name></trkpt>
<trkpt lat="54.620617" lon="-3.131351"><ele>190</ele><time>2020-08-14T10:05:17Z</time><name>PT68</name></trkpt>
<trkpt lat="54.620622" lon="-3.131372"><ele>191</ele><time>2020-08-14T10:05:17Z</time><name>PT69</name></trkpt>
<trkpt lat="54.620617" lon="-3.131353"><ele>191</ele><time>2020-08-14T10:05:41Z</time><name>PT70</name></trkpt>
<trkpt lat="54.620626" lon="-3.131352"><ele>191</ele><time>2020-08-14T10:05:41Z</time><name>PT71</name></trkpt>
<trkpt lat="54.620637" lon="-3.131323"><ele>191</ele><time>2020-08-14T10:06:02Z</time><name>PT72</name></trkpt>
<trkpt lat="54.620636" lon="-3.131333"><ele>191</ele><time>2020-08-14T10:06:03Z</time><name>PT73</name></trkpt>
<trkpt lat="54.620618" lon="-3.131324"><ele>195</ele><time>2020-08-14T10:06:36Z</time><name>PT74</name></trkpt>
<trkpt lat="54.620615" lon="-3.131294"><ele>197</ele><time>2020-08-14T10:06:38Z</time><name>PT75</name></trkpt>
<trkpt lat="54.620590" lon="-3.131259"><ele>198</ele><time>2020-08-14T10:06:41Z</time><name>PT76</name></trkpt>
<trkpt lat="54.620591" lon="-3.131249"><ele>199</ele><time>2020-08-14T10:06:44Z</time><name>PT77</name></trkpt>
<trkpt lat="54.620499" lon="-3.131355"><ele>187</ele><time>2020-08-14T10:07:02Z</time><name>PT78</name></trkpt>
<trkpt lat="54.620501" lon="-3.131388"><ele>183</ele><time>2020-08-14T10:07:05Z</time><name>PT79</name></trkpt>
<trkpt lat="54.620505" lon="-3.131424"><ele>181</ele><time>2020-08-14T10:07:12Z</time><name>PT80</name></trkpt>
<trkpt lat="54.620539" lon="-3.131413"><ele>181</ele><time>2020-08-14T10:07:17Z</time><name>PT81</name></trkpt>
<trkpt lat="54.620596" lon="-3.131365"><ele>181</ele><time>2020-08-14T10:07:20Z</time><name>PT82</name></trkpt>
<trkpt lat="54.620638" lon="-3.131343"><ele>181</ele><time>2020-08-14T10:07:24Z</time><name>PT83</name></trkpt>
<trkpt lat="54.620652" lon="-3.131360"><ele>180</ele><time>2020-08-14T10:07:27Z</time><name>PT84</name></trkpt>
<trkpt lat="54.620678" lon="-3.131362"><ele>180</ele><time>2020-08-14T10:07:30Z</time><name>PT85</name></trkpt>
<trkpt lat="54.620701" lon="-3.131360"><ele>179</ele><time>2020-08-14T10:07:35Z</time><name>PT86</name></trkpt>
<trkpt lat="54.620721" lon="-3.131359"><ele>178</ele><time>2020-08-14T10:07:38Z</time><name>PT87</name></trkpt>
<trkpt lat="54.620758" lon="-3.131353"><ele>175</ele><time>2020-08-14T10:07:41Z</time><name>PT88</name></trkpt>
<trkpt lat="54.620773" lon="-3.131360"><ele>173</ele><time>2020-08-14T10:07:45Z</time><name>PT89</name></trkpt>
<trkpt lat="54.620781" lon="-3.131376"><ele>173</ele><time>2020-08-14T10:07:48Z</time><name>PT90</name></trkpt>
<trkpt lat="54.620795" lon="-3.131387"><ele>174</ele><time>2020-08-14T10:07:53Z</time><name>PT91</name></trkpt>
<trkpt lat="54.620806" lon="-3.131401"><ele>176</ele><time>2020-08-14T10:07:56Z</time><name>PT92</name></trkpt>
<trkpt lat="54.620848" lon="-3.131404"><ele>175</ele><time>2020-08-14T10:07:59Z</time><name>PT93</name></trkpt>
<trkpt lat="54.620875" lon="-3.131383"><ele>174</ele><time>2020-08-14T10:08:03Z</time><name>PT94</name></trkpt>
<trkpt lat="54.620892" lon="-3.131387"><ele>172</ele><time>2020-08-14T10:08:06Z</time><name>PT95</name></trkpt>
<trkpt lat="54.620907" lon="-3.131377"><ele>172</ele><time>2020-08-14T10:08:11Z</time><name>PT96</name></trkpt>
<trkpt lat="54.620911" lon="-3.131373"><ele>172</ele><time>2020-08-14T10:08:14Z</time><name>PT97</name></trkpt>
<trkpt lat="54.620939" lon="-3.131362"><ele>172</ele><time>2020-08-14T10:08:17Z</time><name>PT98</name></trkpt>
<trkpt lat="54.620945" lon="-3.131332"><ele>171</ele><time>2020-08-14T10:08:21Z</time><name>PT99</name></trkpt>
<trkpt lat="54.620936" lon="-3.131280"><ele>171</ele><time>2020-08-14T10:08:24Z</time><name>PT100</name></trkpt>
<trkpt lat="54.620985" lon="-3.131232"><ele>170</ele><time>2020-08-14T10:08:29Z</time><name>PT101</name></trkpt>
<trkpt lat="54.621014" lon="-3.131210"><ele>171</ele><time>2020-08-14T10:08:32Z</time><name>PT102</name></trkpt>
<trkpt lat="54.621066" lon="-3.131186"><ele>171</ele><time>2020-08-14T10:08:35Z</time><name>PT103</name></trkpt>
<trkpt lat="54.621089" lon="-3.131137"><ele>173</ele><time>2020-08-14T10:08:39Z</time><name>PT104</name></trkpt>
<trkpt lat="54.621074" lon="-3.131074"><ele>173</ele><time>2020-08-14T10:08:42Z</time><name>PT105</name></trkpt>
<trkpt lat="54.621055" lon="-3.130994"><ele>174</ele><time>2020-08-14T10:08:45Z</time><name>PT106</name></trkpt>
<trkpt lat="54.621037" lon="-3.130917"><ele>174</ele><time>2020-08-14T10:08:50Z</time><name>PT107</name></trkpt>
<trkpt lat="54.621030" lon="-3.130854"><ele>176</ele><time>2020-08-14T10:08:53Z</time><name>PT108</name></trkpt>
<trkpt lat="54.621019" lon="-3.130783"><ele>176</ele><time>2020-08-14T10:08:57Z</time><name>PT109</name></trkpt>
<trkpt lat="54.621011" lon="-3.130735"><ele>177</ele><time>2020-08-14T10:09:00Z</time><name>PT110</name></trkpt>
<trkpt lat="54.620997" lon="-3.130660"><ele>176</ele><time>2020-08-14T10:09:05Z</time><name>PT111</name></trkpt>
<trkpt lat="54.620989" lon="-3.130614"><ele>177</ele><time>2020-08-14T10:09:08Z</time><name>PT112</name></trkpt>
<trkpt lat="54.620981" lon="-3.130551"><ele>177</ele><time>2020-08-14T10:09:11Z</time><name>PT113</name></trkpt>
<trkpt lat="54.620969" lon="-3.130470"><ele>177</ele><time>2020-08-14T10:09:14Z</time><name>PT114</name></trkpt>
<trkpt lat="54.620957" lon="-3.130403"><ele>178</ele><time>2020-08-14T10:09:17Z</time><name>PT115</name></trkpt>
<trkpt lat="54.620953" lon="-3.130330"><ele>177</ele><time>2020-08-14T10:09:21Z</time><name>PT116</name></trkpt>
<trkpt lat="54.620942" lon="-3.130253"><ele>177</ele><time>2020-08-14T10:09:24Z</time><name>PT117</name></trkpt>
<trkpt lat="54.620923" lon="-3.130147"><ele>177</ele><time>2020-08-14T10:09:29Z</time><name>PT118</name></trkpt>
<trkpt lat="54.620924" lon="-3.130098"><ele>178</ele><time>2020-08-14T10:09:32Z</time><name>PT119</name></trkpt>
<trkpt lat="54.620896" lon="-3.130012"><ele>179</ele><time>2020-08-14T10:09:35Z</time><name>PT120</name></trkpt>
<trkpt lat="54.620880" lon="-3.129925"><ele>179</ele><time>2020-08-14T10:09:39Z</time><name>PT121</name></trkpt>
<trkpt lat="54.620883" lon="-3.129856"><ele>178</ele><time>2020-08-14T10:09:42Z</time><name>PT122</name></trkpt>
<trkpt lat="54.620874" lon="-3.129799"><ele>176</ele><time>2020-08-14T10:09:45Z</time><name>PT123</name></trkpt>
<trkpt lat="54.620853" lon="-3.129749"><ele>178</ele><time>2020-08-14T10:09:48Z</time><name>PT124</name></trkpt>
<trkpt lat="54.620826" lon="-3.129669"><ele>179</ele><time>2020-08-14T10:09:53Z</time><name>PT125</name></trkpt>
<trkpt lat="54.620799" lon="-3.129639"><ele>180</ele><time>2020-08-14T10:09:56Z</time><name>PT126</name></trkpt>
<trkpt lat="54.620768" lon="-3.129570"><ele>177</ele><time>2020-08-14T10:09:59Z</time><name>PT127</name></trkpt>
<trkpt lat="54.620749" lon="-3.129522"><ele>177</ele><time>2020-08-14T10:10:02Z</time><name>PT128</name></trkpt>
<trkpt lat="54.620715" lon="-3.129469"><ele>174</ele><time>2020-08-14T10:10:06Z</time><name>PT129</name></trkpt>
<trkpt lat="54.620685" lon="-3.129410"><ele>173</ele><time>2020-08-14T10:10:11Z</time><name>PT130</name></trkpt>
<trkpt lat="54.620652" lon="-3.129355"><ele>173</ele><time>2020-08-14T10:10:14Z</time><name>PT131</name></trkpt>
<trkpt lat="54.620631" lon="-3.129306"><ele>172</ele><time>2020-08-14T10:10:17Z</time><name>PT132</name></trkpt>
<trkpt lat="54.620603" lon="-3.129239"><ele>173</ele><time>2020-08-14T10:10:21Z</time><name>PT133</name></trkpt>
<trkpt lat="54.620567" lon="-3.129177"><ele>176</ele><time>2020-08-14T10:10:24Z</time><name>PT134</name></trkpt>
<trkpt lat="54.620520" lon="-3.129115"><ele>176</ele><time>2020-08-14T10:10:29Z</time><name>PT135</name></trkpt>
<trkpt lat="54.620478" lon="-3.129060"><ele>178</ele><time>2020-08-14T10:10:32Z</time><name>PT136</name></trkpt>
<trkpt lat="54.620441" lon="-3.129001"><ele>175</ele><time>2020-08-14T10:10:35Z</time><name>PT137</name></trkpt>
<trkpt lat="54.620401" lon="-3.128947"><ele>183</ele><time>2020-08-14T10:10:38Z</time><name>PT138</name></trkpt>
<trkpt lat="54.620376" lon="-3.128866"><ele>184</ele><time>2020-08-14T10:10:42Z</time><name>PT139</name></trkpt>
<trkpt lat="54.620325" lon="-3.128772"><ele>186</ele><time>2020-08-14T10:10:47Z</time><name>PT140</name></trkpt>
<trkpt lat="54.620298" lon="-3.128738"><ele>186</ele><time>2020-08-14T10:10:50Z</time><name>PT141</name></trkpt>
<trkpt lat="54.620282" lon="-3.128688"><ele>185</ele><time>2020-08-14T10:10:53Z</time><name>PT142</name></trkpt>
<trkpt lat="54.620248" lon="-3.128626"><ele>184</ele><time>2020-08-14T10:10:56Z</time><name>PT143</name></trkpt>
<trkpt lat="54.620209" lon="-3.128598"><ele>182</ele><time>2020-08-14T10:10:59Z</time><name>PT144</name></trkpt>
<trkpt lat="54.620168" lon="-3.128529"><ele>184</ele><time>2020-08-14T10:11:03Z</time><name>PT145</name></trkpt>
<trkpt lat="54.620134" lon="-3.128494"><ele>182</ele><time>2020-08-14T10:11:06Z</time><name>PT146</name></trkpt>
<trkpt lat="54.620090" lon="-3.128428"><ele>183</ele><time>2020-08-14T10:11:11Z</time><name>PT147</name></trkpt>
<trkpt lat="54.620059" lon="-3.128405"><ele>183</ele><time>2020-08-14T10:11:14Z</time><name>PT148</name></trkpt>
<trkpt lat="54.620037" lon="-3.128344"><ele>183</ele><time>2020-08-14T10:11:17Z</time><name>PT149</name></trkpt>
<trkpt lat="54.620012" lon="-3.128272"><ele>182</ele><time>2020-08-14T10:11:20Z</time><name>PT150</name></trkpt>
<trkpt lat="54.619975" lon="-3.128226"><ele>181</ele><time>2020-08-14T10:11:23Z</time><name>PT151</name></trkpt>
<trkpt lat="54.619918" lon="-3.128122"><ele>180</ele><time>2020-08-14T10:11:27Z</time><name>PT152</name></trkpt>
<trkpt lat="54.619896" lon="-3.128050"><ele>182</ele><time>2020-08-14T10:11:30Z</time><name>PT153</name></trkpt>
<trkpt lat="54.619882" lon="-3.127958"><ele>181</ele><time>2020-08-14T10:11:35Z</time><name>PT154</name></trkpt>
<trkpt lat="54.619881" lon="-3.127884"><ele>181</ele><time>2020-08-14T10:11:38Z</time><name>PT155</name></trkpt>
<trkpt lat="54.619857" lon="-3.127781"><ele>183</ele><time>2020-08-14T10:11:41Z</time><name>PT156</name></trkpt>
<trkpt lat="54.619852" lon="-3.127727"><ele>185</ele><time>2020-08-14T10:11:45Z</time><name>PT157</name></trkpt>
<trkpt lat="54.619838" lon="-3.127652"><ele>184</ele><time>2020-08-14T10:11:48Z</time><name>PT158</name></trkpt>
<trkpt lat="54.619835" lon="-3.127550"><ele>188</ele><time>2020-08-14T10:11:53Z</time><name>PT159</name></trkpt>
<trkpt lat="54.619829" lon="-3.127495"><ele>188</ele><time>2020-08-14T10:11:56Z</time><name>PT160</name></trkpt>
<trkpt lat="54.619831" lon="-3.127414"><ele>188</ele><time>2020-08-14T10:11:59Z</time><name>PT161</name></trkpt>
<trkpt lat="54.619830" lon="-3.127344"><ele>190</ele><time>2020-08-14T10:12:03Z</time><name>PT162</name></trkpt>
<trkpt lat="54.619837" lon="-3.127280"><ele>188</ele><time>2020-08-14T10:12:06Z</time><name>PT163</name></trkpt>
<trkpt lat="54.619829" lon="-3.127176"><ele>189</ele><time>2020-08-14T10:12:11Z</time><name>PT164</name></trkpt>
<trkpt lat="54.619823" lon="-3.127116"><ele>187</ele><time>2020-08-14T10:12:14Z</time><name>PT165</name></trkpt>
<trkpt lat="54.619797" lon="-3.127060"><ele>185</ele><time>2020-08-14T10:12:17Z</time><name>PT166</name></trkpt>
<trkpt lat="54.619797" lon="-3.126952"><ele>185</ele><time>2020-08-14T10:12:21Z</time><name>PT167</name></trkpt>
<trkpt lat="54.619790" lon="-3.126932"><ele>185</ele><time>2020-08-14T10:12:23Z</time><name>PT168</name></trkpt>
<trkpt lat="54.619791" lon="-3.126902"><ele>186</ele><time>2020-08-14T10:12:23Z</time><name>PT169</name></trkpt>
<trkpt lat="54.619787" lon="-3.126889"><ele>185</ele><time>2020-08-14T10:12:24Z</time><name>PT170</name></trkpt>
<trkpt lat="54.619788" lon="-3.126877"><ele>184</ele><time>2020-08-14T10:12:26Z</time><name>PT171</name></trkpt>
<trkpt lat="54.619783" lon="-3.126859"><ele>184</ele><time>2020-08-14T10:12:26Z</time><name>PT172</name></trkpt>
<trkpt lat="54.619764" lon="-3.126828"><ele>187</ele><time>2020-08-14T10:12:27Z</time><name>PT173</name></trkpt>
<trkpt lat="54.619751" lon="-3.126814"><ele>187</ele><time>2020-08-14T10:12:29Z</time><name>PT174</name></trkpt>
<trkpt lat="54.619743" lon="-3.126805"><ele>187</ele><time>2020-08-14T10:12:29Z</time><name>PT175</name></trkpt>
<trkpt lat="54.619732" lon="-3.126789"><ele>188</ele><time>2020-08-14T10:12:30Z</time><name>PT176</name></trkpt>
<trkpt lat="54.619721" lon="-3.126775"><ele>189</ele><time>2020-08-14T10:12:32Z</time><name>PT177</name></trkpt>
<trkpt lat="54.619712" lon="-3.126761"><ele>191</ele><time>2020-08-14T10:12:32Z</time><name>PT178</name></trkpt>
<trkpt lat="54.619702" lon="-3.126744"><ele>191</ele><time>2020-08-14T10:12:33Z</time><name>PT179</name></trkpt>
<trkpt lat="54.619692" lon="-3.126728"><ele>191</ele><time>2020-08-14T10:12:35Z</time><name>PT180</name></trkpt>
<trkpt lat="54.619686" lon="-3.126722"><ele>190</ele><time>2020-08-14T10:12:35Z</time><name>PT181</name></trkpt>
<trkpt lat="54.619680" lon="-3.126714"><ele>189</ele><time>2020-08-14T10:12:36Z</time><name>PT182</name></trkpt>
<trkpt lat="54.619675" lon="-3.126697"><ele>190</ele><time>2020-08-14T10:12:38Z</time><name>PT183</name></trkpt>
<trkpt lat="54.619664" lon="-3.126684"><ele>189</ele><time>2020-08-14T10:12:38Z</time><name>PT184</name></trkpt>
<trkpt lat="54.619654" lon="-3.126674"><ele>189</ele><time>2020-08-14T10:12:39Z</time><name>PT185</name></trkpt>
<trkpt lat="54.619649" lon="-3.126663"><ele>190</ele><time>2020-08-14T10:12:41Z</time><name>PT186</name></trkpt>
<trkpt lat="54.619641" lon="-3.126648"><ele>189</ele><time>2020-08-14T10:12:41Z</time><name>PT187</name></trkpt>
<trkpt lat="54.619633" lon="-3.126636"><ele>189</ele><time>2020-08-14T10:12:42Z</time><name>PT188</name></trkpt>
<trkpt lat="54.619619" lon="-3.126622"><ele>190</ele><time>2020-08-14T10:12:44Z</time><name>PT189</name></trkpt>
<trkpt lat="54.619607" lon="-3.126611"><ele>191</ele><time>2020-08-14T10:12:44Z</time><name>PT190</name></trkpt>
<trkpt lat="54.619603" lon="-3.126590"><ele>191</ele><time>2020-08-14T10:12:45Z</time><name>PT191</name></trkpt>
<trkpt lat="54.619596" lon="-3.126573"><ele>192</ele><time>2020-08-14T10:12:47Z</time><name>PT192</name></trkpt>
<trkpt lat="54.619593" lon="-3.126557"><ele>190</ele><time>2020-08-14T10:12:47Z</time><name>PT193</name></trkpt>
<trkpt lat="54.619583" lon="-3.126539"><ele>190</ele><time>2020-08-14T10:12:48Z</time><name>PT194</name></trkpt>
<trkpt lat="54.619572" lon="-3.126521"><ele>191</ele><time>2020-08-14T10:12:50Z</time><name>PT195</name></trkpt>
<trkpt lat="54.619561" lon="-3.126509"><ele>192</ele><time>2020-08-14T10:12:50Z</time><name>PT196</name></trkpt>
<trkpt lat="54.619553" lon="-3.126495"><ele>192</ele><time>2020-08-14T10:12:51Z</time><name>PT197</name></trkpt>
<trkpt lat="54.619540" lon="-3.126479"><ele>192</ele><time>2020-08-14T10:12:53Z</time><name>PT198</name></trkpt>
<trkpt lat="54.619532" lon="-3.126467"><ele>192</ele><time>2020-08-14T10:12:53Z</time><name>PT199</name></trkpt>
<trkpt lat="54.619524" lon="-3.126452"><ele>192</ele><time>2020-08-14T10:12:54Z</time><name>PT200</name></trkpt>
<trkpt lat="54.619519" lon="-3.126449"><ele>190</ele><time>2020-08-14T10:12:56Z</time><name>PT201</name></trkpt>
<trkpt lat="54.619509" lon="-3.126433"><ele>190</ele><time>2020-08-14T10:12:56Z</time><name>PT202</name></trkpt>
<trkpt lat="54.619499" lon="-3.126417"><ele>191</ele><time>2020-08-14T10:12:57Z</time><name>PT203</name></trkpt>
<trkpt lat="54.619487" lon="-3.126407"><ele>191</ele><time>2020-08-14T10:12:59Z</time><name>PT204</name></trkpt>
<trkpt lat="54.619481" lon="-3.126393"><ele>192</ele><time>2020-08-14T10:12:59Z</time><name>PT205</name></trkpt>
<trkpt lat="54.619466" lon="-3.126377"><ele>194</ele><time>2020-08-14T10:13:00Z</time><name>PT206</name></trkpt>
<trkpt lat="54.619458" lon="-3.126356"><ele>193</ele><time>2020-08-14T10:13:02Z</time><name>PT207</name></trkpt>
<trkpt lat="54.619449" lon="-3.126324"><ele>193</ele><time>2020-08-14T10:13:02Z</time><name>PT208</name></trkpt>
<trkpt lat="54.619437" lon="-3.126306"><ele>193</ele><time>2020-08-14T10:13:03Z</time><name>PT209</name></trkpt>
<trkpt lat="54.619429" lon="-3.126298"><ele>195</ele><time>2020-08-14T10:13:05Z</time><name>PT210</name></trkpt>
<trkpt lat="54.619428" lon="-3.126284"><ele>194</ele><time>2020-08-14T10:13:05Z</time><name>PT211</name></trkpt>
<trkpt lat="54.619429" lon="-3.126268"><ele>193</ele><time>2020-08-14T10:13:06Z</time><name>PT212</name></trkpt>
<trkpt lat="54.619430" lon="-3.126256"><ele>194</ele><time>2020-08-14T10:13:08Z</time><name>PT213</name></trkpt>
<trkpt lat="54.619432" lon="-3.126246"><ele>194</ele><time>2020-08-14T10:13:08Z</time><name>PT214</name></trkpt>
<trkpt lat="54.619430" lon="-3.126236"><ele>194</ele><time>2020-08-14T10:13:09Z</time><name>PT215</name></trkpt>
<trkpt lat="54.619423" lon="-3.126221"><ele>195</ele><time>2020-08-14T10:13:11Z</time><name>PT216</name></trkpt>
<trkpt lat="54.619420" lon="-3.126206"><ele>195</ele><time>2020-08-14T10:13:11Z</time><name>PT217</name></trkpt>
<trkpt lat="54.619419" lon="-3.126191"><ele>195</ele><time>2020-08-14T10:13:12Z</time><name>PT218</name></trkpt>
<trkpt lat="54.619420" lon="-3.126174"><ele>195</ele><time>2020-08-14T10:13:14Z</time><name>PT219</name></trkpt>
<trkpt lat="54.619416" lon="-3.126156"><ele>196</ele><time>2020-08-14T10:13:14Z</time><name>PT220</name></trkpt>
<trkpt lat="54.619414" lon="-3.126139"><ele>195</ele><time>2020-08-14T10:13:15Z</time><name>PT221</name></trkpt>
<trkpt lat="54.619413" lon="-3.126122"><ele>195</ele><time>2020-08-14T10:13:17Z</time><name>PT222</name></trkpt>
<trkpt lat="54.619415" lon="-3.126106"><ele>194</ele><time>2020-08-14T10:13:17Z</time><name>PT223</name></trkpt>
<trkpt lat="54.619418" lon="-3.126091"><ele>194</ele><time>2020-08-14T10:13:18Z</time><name>PT224</name></trkpt>
<trkpt lat="54.619418" lon="-3.126082"><ele>193</ele><time>2020-08-14T10:13:20Z</time><name>PT225</name></trkpt>
<trkpt lat="54.619416" lon="-3.126070"><ele>192</ele><time>2020-08-14T10:13:20Z</time><name>PT226</name></trkpt>
<trkpt lat="54.619416" lon="-3.126055"><ele>190</ele><time>2020-08-14T10:13:21Z</time><name>PT227</name></trkpt>
<trkpt lat="54.619414" lon="-3.126030"><ele>192</ele><time>2020-08-14T10:13:23Z</time><name>PT228</name></trkpt>
<trkpt lat="54.619414" lon="-3.126010"><ele>191</ele><time>2020-08-14T10:13:23Z</time><name>PT229</name></trkpt>
<trkpt lat="54.619410" lon="-3.125995"><ele>192</ele><time>2020-08-14T10:13:24Z</time><name>PT230</name></trkpt>
<trkpt lat="54.619392" lon="-3.125975"><ele>193</ele><time>2020-08-14T10:13:26Z</time><name>PT231</name></trkpt>
<trkpt lat="54.619391" lon="-3.125951"><ele>193</ele><time>2020-08-14T10:13:26Z</time><name>PT232</name></trkpt>
<trkpt lat="54.619386" lon="-3.125934"><ele>193</ele><time>2020-08-14T10:13:27Z</time><name>PT233</name></trkpt>
<trkpt lat="54.619380" lon="-3.125916"><ele>192</ele><time>2020-08-14T10:13:29Z</time><name>PT234</name></trkpt>
<trkpt lat="54.619376" lon="-3.125901"><ele>192</ele><time>2020-08-14T10:13:29Z</time><name>PT235</name></trkpt>
<trkpt lat="54.619372" lon="-3.125884"><ele>192</ele><time>2020-08-14T10:13:30Z</time><name>PT236</name></trkpt>
<trkpt lat="54.619369" lon="-3.125867"><ele>191</ele><time>2020-08-14T10:13:32Z</time><name>PT237</name></trkpt>
<trkpt lat="54.619361" lon="-3.125845"><ele>192</ele><time>2020-08-14T10:13:32Z</time><name>PT238</name></trkpt>
<trkpt lat="54.619351" lon="-3.125820"><ele>192</ele><time>2020-08-14T10:13:33Z</time><name>PT239</name></trkpt>
<trkpt lat="54.619340" lon="-3.125801"><ele>193</ele><time>2020-08-14T10:13:35Z</time><name>PT240</name></trkpt>
<trkpt lat="54.619337" lon="-3.125779"><ele>194</ele><time>2020-08-14T10:13:35Z</time><name>PT241</name></trkpt>
<trkpt lat="54.619330" lon="-3.125757"><ele>193</ele><time>2020-08-14T10:13:36Z</time><name>PT242</name></trkpt>
<trkpt lat="54.619321" lon="-3.125735"><ele>193</ele><time>2020-08-14T10:13:38Z</time><name>PT243</name></trkpt>
<trkpt lat="54.619319" lon="-3.125722"><ele>193</ele><time>2020-08-14T10:13:38Z</time><name>PT244</name></trkpt>
<trkpt lat="54.619316" lon="-3.125731"><ele>194</ele><time>2020-08-14T10:13:39Z</time><name>PT245</name></trkpt>
<trkpt lat="54.619319" lon="-3.125730"><ele>193</ele><time>2020-08-14T10:13:41Z</time><name>PT246</name></trkpt>
<trkpt lat="54.619318" lon="-3.125718"><ele>193</ele><time>2020-08-14T10:13:41Z</time><name>PT247</name></trkpt>
<trkpt lat="54.619314" lon="-3.125701"><ele>194</ele><time>2020-08-14T10:13:43Z</time><name>PT248</name></trkpt>
<trkpt lat="54.619307" lon="-3.125678"><ele>195</ele><time>2020-08-14T10:13:44Z</time><name>PT249</name></trkpt>
<trkpt lat="54.619306" lon="-3.125665"><ele>195</ele><time>2020-08-14T10:13:44Z</time><name>PT250</name></trkpt>
<trkpt lat="54.619302" lon="-3.125635"><ele>196</ele><time>2020-08-14T10:13:46Z</time><name>PT251</name></trkpt>
<trkpt lat="54.619292" lon="-3.125610"><ele>196</ele><time>2020-08-14T10:13:47Z</time><name>PT252</name></trkpt>
<trkpt lat="54.619279" lon="-3.125587"><ele>198</ele><time>2020-08-14T10:13:47Z</time><name>PT253</name></trkpt>
<trkpt lat="54.619272" lon="-3.125571"><ele>198</ele><time>2020-08-14T10:13:48Z</time><name>PT254</name></trkpt>
<trkpt lat="54.619266" lon="-3.125542"><ele>198</ele><time>2020-08-14T10:13:50Z</time><name>PT255</name></trkpt>
<trkpt lat="54.619261" lon="-3.125526"><ele>197</ele><time>2020-08-14T10:13:50Z</time><name>PT256</name></trkpt>
<trkpt lat="54.619247" lon="-3.125487"><ele>197</ele><time>2020-08-14T10:13:51Z</time><name>PT257</name></trkpt>
<trkpt lat="54.619237" lon="-3.125473"><ele>197</ele><time>2020-08-14T10:13:53Z</time><name>PT258</name></trkpt>
<trkpt lat="54.619231" lon="-3.125456"><ele>198</ele><time>2020-08-14T10:13:53Z</time><name>PT259</name></trkpt>
<trkpt lat="54.619224" lon="-3.125436"><ele>198</ele><time>2020-08-14T10:13:54Z</time><name>PT260</name></trkpt>
<trkpt lat="54.619219" lon="-3.125423"><ele>198</ele><time>2020-08-14T10:13:56Z</time><name>PT261</name></trkpt>
<trkpt lat="54.619213" lon="-3.125411"><ele>197</ele><time>2020-08-14T10:13:56Z</time><name>PT262</name></trkpt>
<trkpt lat="54.619210" lon="-3.125391"><ele>198</ele><time>2020-08-14T10:13:57Z</time><name>PT263</name></trkpt>
<trkpt lat="54.619208" lon="-3.125395"><ele>198</ele><time>2020-08-14T10:13:59Z</time><name>PT264</name></trkpt>
<trkpt lat="54.619203" lon="-3.125387"><ele>199</ele><time>2020-08-14T10:13:59Z</time><name>PT265</name></trkpt>
<trkpt lat="54.619191" lon="-3.125367"><ele>200</ele><time>2020-08-14T10:14:01Z</time><name>PT266</name></trkpt>
<trkpt lat="54.619183" lon="-3.125356"><ele>201</ele><time>2020-08-14T10:14:02Z</time><name>PT267</name></trkpt>
<trkpt lat="54.619173" lon="-3.125336"><ele>201</ele><time>2020-08-14T10:14:02Z</time><name>PT268</name></trkpt>
<trkpt lat="54.619162" lon="-3.125291"><ele>202</ele><time>2020-08-14T10:14:03Z</time><name>PT269</name></trkpt>
<trkpt lat="54.619139" lon="-3.125259"><ele>205</ele><time>2020-08-14T10:14:05Z</time><name>PT270</name></trkpt>
<trkpt lat="54.619133" lon="-3.125248"><ele>206</ele><time>2020-08-14T10:14:05Z</time><name>PT271</name></trkpt>
<trkpt lat="54.619130" lon="-3.125231"><ele>206</ele><time>2020-08-14T10:14:06Z</time><name>PT272</name></trkpt>
<trkpt lat="54.619127" lon="-3.125216"><ele>206</ele><time>2020-08-14T10:14:08Z</time><name>PT273</name></trkpt>
<trkpt lat="54.619120" lon="-3.125207"><ele>207</ele><time>2020-08-14T10:14:08Z</time><name>PT274</name></trkpt>
<trkpt lat="54.619112" lon="-3.125191"><ele>207</ele><time>2020-08-14T10:14:09Z</time><name>PT275</name></trkpt>
<trkpt lat="54.619107" lon="-3.125170"><ele>207</ele><time>2020-08-14T10:14:11Z</time><name>PT276</name></trkpt>
<trkpt lat="54.619107" lon="-3.125158"><ele>207</ele><time>2020-08-14T10:14:11Z</time><name>PT277</name></trkpt>
<trkpt lat="54.619111" lon="-3.125151"><ele>206</ele><time>2020-08-14T10:14:12Z</time><name>PT278</name></trkpt>
<trkpt lat="54.619114" lon="-3.125142"><ele>205</ele><time>2020-08-14T10:14:14Z</time><name>PT279</name></trkpt>
<trkpt lat="54.619113" lon="-3.125130"><ele>206</ele><time>2020-08-14T10:14:14Z</time><name>PT280</name></trkpt>
<trkpt lat="54.619110" lon="-3.125112"><ele>205</ele><time>2020-08-14T10:14:15Z</time><name>PT281</name></trkpt>
<trkpt lat="54.619107" lon="-3.125094"><ele>206</ele><time>2020-08-14T10:14:17Z</time><name>PT282</name></trkpt>
<trkpt lat="54.619108" lon="-3.125086"><ele>207</ele><time>2020-08-14T10:14:17Z</time><name>PT283</name></trkpt>
<trkpt lat="54.619111" lon="-3.125075"><ele>207</ele><time>2020-08-14T10:14:18Z</time><name>PT284</name></trkpt>
<trkpt lat="54.619116" lon="-3.125067"><ele>206</ele><time>2020-08-14T10:14:20Z</time><name>PT285</name></trkpt>
<trkpt lat="54.619116" lon="-3.125050"><ele>208</ele><time>2020-08-14T10:14:20Z</time><name>PT286</name></trkpt>
<trkpt lat="54.619117" lon="-3.125027"><ele>208</ele><time>2020-08-14T10:14:21Z</time><name>PT287</name></trkpt>
<trkpt lat="54.619118" lon="-3.125007"><ele>208</ele><time>2020-08-14T10:14:23Z</time><name>PT288</name></trkpt>
<trkpt lat="54.619117" lon="-3.124992"><ele>209</ele><time>2020-08-14T10:14:23Z</time><name>PT289</name></trkpt>
<trkpt lat="54.619126" lon="-3.124987"><ele>207</ele><time>2020-08-14T10:14:24Z</time><name>PT290</name></trkpt>
<trkpt lat="54.619129" lon="-3.124974"><ele>207</ele><time>2020-08-14T10:14:26Z</time><name>PT291</name></trkpt>
<trkpt lat="54.619126" lon="-3.124949"><ele>208</ele><time>2020-08-14T10:14:26Z</time><name>PT292</name></trkpt>
<trkpt lat="54.619129" lon="-3.124940"><ele>207</ele><time>2020-08-14T10:14:27Z</time><name>PT293</name></trkpt>
<trkpt lat="54.619129" lon="-3.124925"><ele>208</ele><time>2020-08-14T10:14:29Z</time><name>PT294</name></trkpt>
<trkpt lat="54.619136" lon="-3.124919"><ele>208</ele><time>2020-08-14T10:14:29Z</time><name>PT295</name></trkpt>
<trkpt lat="54.619140" lon="-3.124906"><ele>209</ele><time>2020-08-14T10:14:30Z</time><name>PT296</name></trkpt>
<trkpt lat="54.619143" lon="-3.124890"><ele>209</ele><time>2020-08-14T10:14:32Z</time><name>PT297</name></trkpt>
<trkpt lat="54.619145" lon="-3.124877"><ele>208</ele><time>2020-08-14T10:14:32Z</time><name>PT298</name></trkpt>
<trkpt lat="54.619146" lon="-3.124855"><ele>208</ele><time>2020-08-14T10:14:33Z</time><name>PT299</name></trkpt>
<trkpt lat="54.619146" lon="-3.124822"><ele>209</ele><time>2020-08-14T10:14:35Z</time><name>PT300</name></trkpt>
<trkpt lat="54.619150" lon="-3.124805"><ele>210</ele><time>2020-08-14T10:14:35Z</time><name>PT301</name></trkpt>
<trkpt lat="54.619150" lon="-3.124787"><ele>211</ele><time>2020-08-14T10:14:36Z</time><name>PT302</name></trkpt>
<trkpt lat="54.619155" lon="-3.124774"><ele>210</ele><time>2020-08-14T10:14:38Z</time><name>PT303</name></trkpt>
<trkpt lat="54.619154" lon="-3.124759"><ele>210</ele><time>2020-08-14T10:14:38Z</time><name>PT304</name></trkpt>
<trkpt lat="54.619152" lon="-3.124739"><ele>211</ele><time>2020-08-14T10:14:39Z</time><name>PT305</name></trkpt>
<trkpt lat="54.619160" lon="-3.124732"><ele>209</ele><time>2020-08-14T10:14:41Z</time><name>PT306</name></trkpt>
<trkpt lat="54.619163" lon="-3.124715"><ele>209</ele><time>2020-08-14T10:14:41Z</time><name>PT307</name></trkpt>
<trkpt lat="54.619166" lon="-3.124699"><ele>209</ele><time>2020-08-14T10:14:42Z</time><name>PT308</name></trkpt>
<trkpt lat="54.619167" lon="-3.124680"><ele>209</ele><time>2020-08-14T10:14:44Z</time><name>PT309</name></trkpt>
<trkpt lat="54.619167" lon="-3.124648"><ele>210</ele><time>2020-08-14T10:14:44Z</time><name>PT310</name></trkpt>
<trkpt lat="54.619171" lon="-3.124626"><ele>209</ele><time>2020-08-14T10:14:45Z</time><name>PT311</name></trkpt>
<trkpt lat="54.619172" lon="-3.124610"><ele>210</ele><time>2020-08-14T10:14:47Z</time><name>PT312</name></trkpt>
<trkpt lat="54.619175" lon="-3.124600"><ele>209</ele><time>2020-08-14T10:14:47Z</time><name>PT313</name></trkpt>
<trkpt lat="54.619175" lon="-3.124589"><ele>207</ele><time>2020-08-14T10:14:48Z</time><name>PT314</name></trkpt>
<trkpt lat="54.619175" lon="-3.124573"><ele>208</ele><time>2020-08-14T10:14:50Z</time><name>PT315</name></trkpt>
<trkpt lat="54.619177" lon="-3.124553"><ele>207</ele><time>2020-08-14T10:14:50Z</time><name>PT316</name></trkpt>
<trkpt lat="54.619183" lon="-3.124533"><ele>207</ele><time>2020-08-14T10:14:51Z</time><name>PT317</name></trkpt>
<trkpt lat="54.619184" lon="-3.124517"><ele>207</ele><time>2020-08-14T10:14:53Z</time><name>PT318</name></trkpt>
<trkpt lat="54.619183" lon="-3.124502"><ele>208</ele><time>2020-08-14T10:14:53Z</time><name>PT319</name></trkpt>
<trkpt lat="54.619182" lon="-3.124486"><ele>208</ele><time>2020-08-14T10:14:54Z</time><name>PT320</name></trkpt>
<trkpt lat="54.619183" lon="-3.124465"><ele>208</ele><time>2020-08-14T10:14:56Z</time><name>PT321</name></trkpt>
<trkpt lat="54.619185" lon="-3.124449"><ele>207</ele><time>2020-08-14T10:14:56Z</time><name>PT322</name></trkpt>
<trkpt lat="54.619185" lon="-3.124431"><ele>208</ele><time>2020-08-14T10:14:57Z</time><name>PT323</name></trkpt>
<trkpt lat="54.619181" lon="-3.124422"><ele>210</ele><time>2020-08-14T10:14:59Z</time><name>PT324</name></trkpt>
<trkpt lat="54.619188" lon="-3.124415"><ele>208</ele><time>2020-08-14T10:14:59Z</time><name>PT325</name></trkpt>
<trkpt lat="54.619188" lon="-3.124397"><ele>208</ele><time>2020-08-14T10:15:00Z</time><name>PT326</name></trkpt>
<trkpt lat="54.619190" lon="-3.124374"><ele>207</ele><time>2020-08-14T10:15:02Z</time><name>PT327</name></trkpt>
<trkpt lat="54.619191" lon="-3.124349"><ele>208</ele><time>2020-08-14T10:15:02Z</time><name>PT328</name></trkpt>
<trkpt lat="54.619198" lon="-3.124330"><ele>207</ele><time>2020-08-14T10:15:03Z</time><name>PT329</name></trkpt>
<trkpt lat="54.619201" lon="-3.124316"><ele>207</ele><time>2020-08-14T10:15:05Z</time><name>PT330</name></trkpt>
<trkpt lat="54.619202" lon="-3.124306"><ele>208</ele><time>2020-08-14T10:15:05Z</time><name>PT331</name></trkpt>
<trkpt lat="54.619204" lon="-3.124294"><ele>207</ele><time>2020-08-14T10:15:06Z</time><name>PT332</name></trkpt>
<trkpt lat="54.619208" lon="-3.124283"><ele>207</ele><time>2020-08-14T10:15:08Z</time><name>PT333</name></trkpt>
<trkpt lat="54.619208" lon="-3.124267"><ele>207</ele><time>2020-08-14T10:15:08Z</time><name>PT334</name></trkpt>
<trkpt lat="54.619205" lon="-3.124249"><ele>208</ele><time>2020-08-14T10:15:09Z</time><name>PT335</name></trkpt>
<trkpt lat="54.619206" lon="-3.124232"><ele>208</ele><time>2020-08-14T10:15:11Z</time><name>PT336</name></trkpt>
<trkpt lat="54.619207" lon="-3.124206"><ele>210</ele><time>2020-08-14T10:15:11Z</time><name>PT337</name></trkpt>
<trkpt lat="54.619206" lon="-3.124190"><ele>211</ele><time>2020-08-14T10:15:12Z</time><name>PT338</name></trkpt>
<trkpt lat="54.619204" lon="-3.124167"><ele>212</ele><time>2020-08-14T10:15:14Z</time><name>PT339</name></trkpt>
<trkpt lat="54.619204" lon="-3.124149"><ele>213</ele><time>2020-08-14T10:15:14Z</time><name>PT340</name></trkpt>
<trkpt lat="54.619203" lon="-3.124133"><ele>214</ele><time>2020-08-14T10:15:15Z</time><name>PT341</name></trkpt>
<trkpt lat="54.619202" lon="-3.124114"><ele>215</ele><time>2020-08-14T10:15:17Z</time><name>PT342</name></trkpt>
<trkpt lat="54.619198" lon="-3.124096"><ele>216</ele><time>2020-08-14T10:15:17Z</time><name>PT343</name></trkpt>
<trkpt lat="54.619196" lon="-3.124083"><ele>216</ele><time>2020-08-14T10:15:18Z</time><name>PT344</name></trkpt>
<trkpt lat="54.619200" lon="-3.124068"><ele>215</ele><time>2020-08-14T10:15:20Z</time><name>PT345</name></trkpt>
<trkpt lat="54.619200" lon="-3.124045"><ele>214</ele><time>2020-08-14T10:15:20Z</time><name>PT346</name></trkpt>
<trkpt lat="54.619205" lon="-3.123999"><ele>215</ele><time>2020-08-14T10:15:23Z</time><name>PT347</name></trkpt>
<trkpt lat="54.619200" lon="-3.123917"><ele>217</ele><time>2020-08-14T10:15:27Z</time><name>PT348</name></trkpt>
<trkpt lat="54.619204" lon="-3.123844"><ele>217</ele><time>2020-08-14T10:15:32Z</time><name>PT349</name></trkpt>
<trkpt lat="54.619203" lon="-3.123779"><ele>217</ele><time>2020-08-14T10:15:35Z</time><name>PT350</name></trkpt>
<trkpt lat="54.619200" lon="-3.123711"><ele>219</ele><time>2020-08-14T10:15:38Z</time><name>PT351</name></trkpt>
<trkpt lat="54.619198" lon="-3.123659"><ele>222</ele><time>2020-08-14T10:15:41Z</time><name>PT352</name></trkpt>
<trkpt lat="54.619201" lon="-3.123614"><ele>221</ele><time>2020-08-14T10:15:44Z</time><name>PT353</name></trkpt>
<trkpt lat="54.619204" lon="-3.123537"><ele>224</ele><time>2020-08-14T10:15:48Z</time><name>PT354</name></trkpt>
<trkpt lat="54.619217" lon="-3.123494"><ele>222</ele><time>2020-08-14T10:15:51Z</time><name>PT355</name></trkpt>
<trkpt lat="54.619221" lon="-3.123436"><ele>224</ele><time>2020-08-14T10:15:54Z</time><name>PT356</name></trkpt>
<trkpt lat="54.619236" lon="-3.123376"><ele>223</ele><time>2020-08-14T10:15:59Z</time><name>PT357</name></trkpt>
<trkpt lat="54.619249" lon="-3.123326"><ele>221</ele><time>2020-08-14T10:16:02Z</time><name>PT358</name></trkpt>
<trkpt lat="54.619240" lon="-3.123271"><ele>220</ele><time>2020-08-14T10:16:06Z</time><name>PT359</name></trkpt>
<trkpt lat="54.619248" lon="-3.123208"><ele>224</ele><time>2020-08-14T10:16:11Z</time><name>PT360</name></trkpt>
<trkpt lat="54.619257" lon="-3.123153"><ele>225</ele><time>2020-08-14T10:16:14Z</time><name>PT361</name></trkpt>
<trkpt lat="54.619266" lon="-3.123098"><ele>223</ele><time>2020-08-14T10:16:18Z</time><name>PT362</name></trkpt>
<trkpt lat="54.619269" lon="-3.123036"><ele>223</ele><time>2020-08-14T10:16:23Z</time><name>PT363</name></trkpt>
<trkpt lat="54.619284" lon="-3.122994"><ele>222</ele><time>2020-08-14T10:16:26Z</time><name>PT364</name></trkpt>
<trkpt lat="54.619294" lon="-3.122956"><ele>221</ele><time>2020-08-14T10:16:29Z</time><name>PT365</name></trkpt>
<trkpt lat="54.619304" lon="-3.122887"><ele>220</ele><time>2020-08-14T10:16:33Z</time><name>PT366</name></trkpt>
<trkpt lat="54.619315" lon="-3.122823"><ele>221</ele><time>2020-08-14T10:16:36Z</time><name>PT367</name></trkpt>
<trkpt lat="54.619328" lon="-3.122769"><ele>222</ele><time>2020-08-14T10:16:41Z</time><name>PT368</name></trkpt>
<trkpt lat="54.619322" lon="-3.122704"><ele>224</ele><time>2020-08-14T10:16:44Z</time><name>PT369</name></trkpt>
<trkpt lat="54.619328" lon="-3.122627"><ele>227</ele><time>2020-08-14T10:16:47Z</time><name>PT370</name></trkpt>
<trkpt lat="54.619335" lon="-3.122560"><ele>228</ele><time>2020-08-14T10:16:50Z</time><name>PT371</name></trkpt>
<trkpt lat="54.619350" lon="-3.122500"><ele>230</ele><time>2020-08-14T10:16:54Z</time><name>PT372</name></trkpt>
<trkpt lat="54.619356" lon="-3.122459"><ele>228</ele><time>2020-08-14T10:16:57Z</time><name>PT373</name></trkpt>
<trkpt lat="54.619364" lon="-3.122403"><ele>230</ele><time>2020-08-14T10:17:02Z</time><name>PT374</name></trkpt>
<trkpt lat="54.619369" lon="-3.122359"><ele>231</ele><time>2020-08-14T10:17:05Z</time><name>PT375</name></trkpt>
<trkpt lat="54.619374" lon="-3.122297"><ele>232</ele><time>2020-08-14T10:17:08Z</time><name>PT376</name></trkpt>
<trkpt lat="54.619382" lon="-3.122249"><ele>234</ele><time>2020-08-14T10:17:11Z</time><name>PT377</name></trkpt>
<trkpt lat="54.619382" lon="-3.122194"><ele>234</ele><time>2020-08-14T10:17:14Z</time><name>PT378</name></trkpt>
<trkpt lat="54.619398" lon="-3.122164"><ele>234</ele><time>2020-08-14T10:17:17Z</time><name>PT379</name></trkpt>
<trkpt lat="54.619415" lon="-3.122093"><ele>234</ele><time>2020-08-14T10:17:21Z</time><name>PT380</name></trkpt>
<trkpt lat="54.619421" lon="-3.122015"><ele>236</ele><time>2020-08-14T10:17:26Z</time><name>PT381</name></trkpt>
<trkpt lat="54.619426" lon="-3.121979"><ele>237</ele><time>2020-08-14T10:17:29Z</time><name>PT382</name></trkpt>
<trkpt lat="54.619423" lon="-3.121926"><ele>238</ele><time>2020-08-14T10:17:32Z</time><name>PT383</name></trkpt>
<trkpt lat="54.619427" lon="-3.121875"><ele>239</ele><time>2020-08-14T10:17:35Z</time><name>PT384</name></trkpt>
<trkpt lat="54.619431" lon="-3.121809"><ele>239</ele><time>2020-08-14T10:17:38Z</time><name>PT385</name></trkpt>
<trkpt lat="54.619440" lon="-3.121756"><ele>241</ele><time>2020-08-14T10:17:41Z</time><name>PT386</name></trkpt>
<trkpt lat="54.619444" lon="-3.121696"><ele>244</ele><time>2020-08-14T10:17:45Z</time><name>PT387</name></trkpt>
<trkpt lat="54.619452" lon="-3.121630"><ele>243</ele><time>2020-08-14T10:17:50Z</time><name>PT388</name></trkpt>
<trkpt lat="54.619454" lon="-3.121562"><ele>243</ele><time>2020-08-14T10:17:53Z</time><name>PT389</name></trkpt>
<trkpt lat="54.619454" lon="-3.121487"><ele>243</ele><time>2020-08-14T10:17:56Z</time><name>PT390</name></trkpt>
<trkpt lat="54.619464" lon="-3.121443"><ele>244</ele><time>2020-08-14T10:17:59Z</time><name>PT391</name></trkpt>
<trkpt lat="54.619476" lon="-3.121377"><ele>245</ele><time>2020-08-14T10:18:02Z</time><name>PT392</name></trkpt>
<trkpt lat="54.619483" lon="-3.121332"><ele>245</ele><time>2020-08-14T10:18:05Z</time><name>PT393</name></trkpt>
<trkpt lat="54.619490" lon="-3.121270"><ele>244</ele><time>2020-08-14T10:18:09Z</time><name>PT394</name></trkpt>
<trkpt lat="54.619494" lon="-3.121213"><ele>244</ele><time>2020-08-14T10:18:12Z</time><name>PT395</name></trkpt>
<trkpt lat="54.619506" lon="-3.121156"><ele>244</ele><time>2020-08-14T10:18:17Z</time><name>PT396</name></trkpt>
<trkpt lat="54.619512" lon="-3.121101"><ele>245</ele><time>2020-08-14T10:18:20Z</time><name>PT397</name></trkpt>
<trkpt lat="54.619517" lon="-3.121051"><ele>248</ele><time>2020-08-14T10:18:23Z</time><name>PT398</name></trkpt>
<trkpt lat="54.619520" lon="-3.121000"><ele>249</ele><time>2020-08-14T10:18:26Z</time><name>PT399</name></trkpt>
<trkpt lat="54.619532" lon="-3.120929"><ele>252</ele><time>2020-08-14T10:18:29Z</time><name>PT400</name></trkpt>
<trkpt lat="54.619545" lon="-3.120890"><ele>251</ele><time>2020-08-14T10:18:32Z</time><name>PT401</name></trkpt>
<trkpt lat="54.619554" lon="-3.120820"><ele>252</ele><time>2020-08-14T10:18:36Z</time><name>PT402</name></trkpt>
<trkpt lat="54.619545" lon="-3.120753"><ele>254</ele><time>2020-08-14T10:18:41Z</time><name>PT403</name></trkpt>
<trkpt lat="54.619539" lon="-3.120710"><ele>256</ele><time>2020-08-14T10:18:44Z</time><name>PT404</name></trkpt>
<trkpt lat="54.619539" lon="-3.120644"><ele>255</ele><time>2020-08-14T10:18:47Z</time><name>PT405</name></trkpt>
<trkpt lat="54.619533" lon="-3.120607"><ele>254</ele><time>2020-08-14T10:18:50Z</time><name>PT406</name></trkpt>
<trkpt lat="54.619509" lon="-3.120539"><ele>255</ele><time>2020-08-14T10:18:54Z</time><name>PT407</name></trkpt>
<trkpt lat="54.619503" lon="-3.120442"><ele>254</ele><time>2020-08-14T10:18:59Z</time><name>PT408</name></trkpt>
<trkpt lat="54.619496" lon="-3.120349"><ele>254</ele><time>2020-08-14T10:19:02Z</time><name>PT409</name></trkpt>
<trkpt lat="54.619496" lon="-3.120296"><ele>252</ele><time>2020-08-14T10:19:05Z</time><name>PT410</name></trkpt>
<trkpt lat="54.619485" lon="-3.120235"><ele>254</ele><time>2020-08-14T10:19:09Z</time><name>PT411</name></trkpt>
<trkpt lat="54.619480" lon="-3.120178"><ele>257</ele><time>2020-08-14T10:19:12Z</time><name>PT412</name></trkpt>
<trkpt lat="54.619467" lon="-3.120128"><ele>257</ele><time>2020-08-14T10:19:15Z</time><name>PT413</name></trkpt>
<trkpt lat="54.619471" lon="-3.120086"><ele>256</ele><time>2020-08-14T10:19:20Z</time><name>PT414</name></trkpt>
<trkpt lat="54.619463" lon="-3.120037"><ele>258</ele><time>2020-08-14T10:19:23Z</time><name>PT415</name></trkpt>
<trkpt lat="54.619450" lon="-3.119979"><ele>260</ele><time>2020-08-14T10:19:26Z</time><name>PT416</name></trkpt>
<trkpt lat="54.619450" lon="-3.119917"><ele>260</ele><time>2020-08-14T10:19:29Z</time><name>PT417</name></trkpt>
<trkpt lat="54.619441" lon="-3.119841"><ele>261</ele><time>2020-08-14T10:19:33Z</time><name>PT418</name></trkpt>
<trkpt lat="54.619432" lon="-3.119772"><ele>261</ele><time>2020-08-14T10:19:38Z</time><name>PT419</name></trkpt>
<trkpt lat="54.619430" lon="-3.119728"><ele>259</ele><time>2020-08-14T10:19:41Z</time><name>PT420</name></trkpt>
<trkpt lat="54.619410" lon="-3.119633"><ele>261</ele><time>2020-08-14T10:19:44Z</time><name>PT421</name></trkpt>
<trkpt lat="54.619406" lon="-3.119584"><ele>260</ele><time>2020-08-14T10:19:47Z</time><name>PT422</name></trkpt>
<trkpt lat="54.619395" lon="-3.119518"><ele>259</ele><time>2020-08-14T10:19:51Z</time><name>PT423</name></trkpt>
<trkpt lat="54.619385" lon="-3.119460"><ele>261</ele><time>2020-08-14T10:19:54Z</time><name>PT424</name></trkpt>
<trkpt lat="54.619374" lon="-3.119399"><ele>259</ele><time>2020-08-14T10:19:59Z</time><name>PT425</name></trkpt>
<trkpt lat="54.619359" lon="-3.119322"><ele>260</ele><time>2020-08-14T10:20:02Z</time><name>PT426</name></trkpt>
<trkpt lat="54.619355" lon="-3.119271"><ele>259</ele><time>2020-08-14T10:20:05Z</time><name>PT427</name></trkpt>
<trkpt lat="54.619344" lon="-3.119183"><ele>261</ele><time>2020-08-14T10:20:09Z</time><name>PT428</name></trkpt>
<trkpt lat="54.619337" lon="-3.119120"><ele>262</ele><time>2020-08-14T10:20:12Z</time><name>PT429</name></trkpt>
<trkpt lat="54.619345" lon="-3.119063"><ele>262</ele><time>2020-08-14T10:20:15Z</time><name>PT430</name></trkpt>
<trkpt lat="54.619332" lon="-3.119004"><ele>264</ele><time>2020-08-14T10:20:18Z</time><name>PT431</name></trkpt>
<trkpt lat="54.619314" lon="-3.118922"><ele>264</ele><time>2020-08-14T10:20:23Z</time><name>PT432</name></trkpt>
<trkpt lat="54.619307" lon="-3.118869"><ele>264</ele><time>2020-08-14T10:20:26Z</time><name>PT433</name></trkpt>
<trkpt lat="54.619300" lon="-3.118794"><ele>265</ele><time>2020-08-14T10:20:29Z</time><name>PT434</name></trkpt>
<trkpt lat="54.619286" lon="-3.118727"><ele>266</ele><time>2020-08-14T10:20:33Z</time><name>PT435</name></trkpt>
<trkpt lat="54.619276" lon="-3.118670"><ele>266</ele><time>2020-08-14T10:20:36Z</time><name>PT436</name></trkpt>
<trkpt lat="54.619266" lon="-3.118615"><ele>266</ele><time>2020-08-14T10:20:39Z</time><name>PT437</name></trkpt>
<trkpt lat="54.619256" lon="-3.118548"><ele>267</ele><time>2020-08-14T10:20:42Z</time><name>PT438</name></trkpt>
<trkpt lat="54.619245" lon="-3.118492"><ele>267</ele><time>2020-08-14T10:20:45Z</time><name>PT439</name></trkpt>
<trkpt lat="54.619231" lon="-3.118409"><ele>267</ele><time>2020-08-14T10:20:50Z</time><name>PT440</name></trkpt>
<trkpt lat="54.619224" lon="-3.118329"><ele>266</ele><time>2020-08-14T10:20:53Z</time><name>PT441</name></trkpt>
<trkpt lat="54.619218" lon="-3.118274"><ele>265</ele><time>2020-08-14T10:20:57Z</time><name>PT442</name></trkpt>
<trkpt lat="54.619206" lon="-3.118196"><ele>266</ele><time>2020-08-14T10:21:02Z</time><name>PT443</name></trkpt>
<trkpt lat="54.619187" lon="-3.118119"><ele>267</ele><time>2020-08-14T10:21:05Z</time><name>PT444</name></trkpt>
<trkpt lat="54.619170" lon="-3.118053"><ele>267</ele><time>2020-08-14T10:21:08Z</time><name>PT445</name></trkpt>
<trkpt lat="54.619164" lon="-3.118002"><ele>268</ele><time>2020-08-14T10:21:11Z</time><name>PT446</name></trkpt>
<trkpt lat="54.619149" lon="-3.117919"><ele>270</ele><time>2020-08-14T10:21:15Z</time><name>PT447</name></trkpt>
<trkpt lat="54.619139" lon="-3.117854"><ele>272</ele><time>2020-08-14T10:21:18Z</time><name>PT448</name></trkpt>
<trkpt lat="54.619133" lon="-3.117800"><ele>273</ele><time>2020-08-14T10:21:21Z</time><name>PT449</name></trkpt>
<trkpt lat="54.619127" lon="-3.117727"><ele>274</ele><time>2020-08-14T10:21:26Z</time><name>PT450</name></trkpt>
<trkpt lat="54.619131" lon="-3.117683"><ele>276</ele><time>2020-08-14T10:21:29Z</time><name>PT451</name></trkpt>
<trkpt lat="54.619129" lon="-3.117653"><ele>275</ele><time>2020-08-14T10:21:32Z</time><name>PT452</name></trkpt>
<trkpt lat="54.619118" lon="-3.117609"><ele>275</ele><time>2020-08-14T10:21:35Z</time><name>PT453</name></trkpt>
<trkpt lat="54.619115" lon="-3.117536"><ele>274</ele><time>2020-08-14T10:21:38Z</time><name>PT454</name></trkpt>
<trkpt lat="54.619117" lon="-3.117475"><ele>273</ele><time>2020-08-14T10:21:42Z</time><name>PT455</name></trkpt>
<trkpt lat="54.619111" lon="-3.117428"><ele>274</ele><time>2020-08-14T10:21:45Z</time><name>PT456</name></trkpt>
<trkpt lat="54.619102" lon="-3.117374"><ele>276</ele><time>2020-08-14T10:21:48Z</time><name>PT457</name></trkpt>
<trkpt lat="54.619099" lon="-3.117328"><ele>277</ele><time>2020-08-14T10:21:51Z</time><name>PT458</name></trkpt>
<trkpt lat="54.619089" lon="-3.117286"><ele>277</ele><time>2020-08-14T10:21:54Z</time><name>PT459</name></trkpt>
<trkpt lat="54.619086" lon="-3.117228"><ele>279</ele><time>2020-08-14T10:21:57Z</time><name>PT460</name></trkpt>
<trkpt lat="54.619073" lon="-3.117160"><ele>280</ele><time>2020-08-14T10:22:02Z</time><name>PT461</name></trkpt>
<trkpt lat="54.619066" lon="-3.117114"><ele>281</ele><time>2020-08-14T10:22:05Z</time><name>PT462</name></trkpt>
<trkpt lat="54.619054" lon="-3.117045"><ele>281</ele><time>2020-08-14T10:22:08Z</time><name>PT463</name></trkpt>
<trkpt lat="54.619037" lon="-3.116965"><ele>281</ele><time>2020-08-14T10:22:12Z</time><name>PT464</name></trkpt>
<trkpt lat="54.619033" lon="-3.116888"><ele>282</ele><time>2020-08-14T10:22:17Z</time><name>PT465</name></trkpt>
<trkpt lat="54.619037" lon="-3.116838"><ele>283</ele><time>2020-08-14T10:22:20Z</time><name>PT466</name></trkpt>
<trkpt lat="54.619025" lon="-3.116771"><ele>285</ele><time>2020-08-14T10:22:24Z</time><name>PT467</name></trkpt>
<trkpt lat="54.619017" lon="-3.116692"><ele>285</ele><time>2020-08-14T10:22:29Z</time><name>PT468</name></trkpt>
<trkpt lat="54.619004" lon="-3.116631"><ele>287</ele><time>2020-08-14T10:22:32Z</time><name>PT469</name></trkpt>
<trkpt lat="54.618985" lon="-3.116572"><ele>290</ele><time>2020-08-14T10:22:35Z</time><name>PT470</name></trkpt>
<trkpt lat="54.618977" lon="-3.116525"><ele>289</ele><time>2020-08-14T10:22:38Z</time><name>PT471</name></trkpt>
<trkpt lat="54.618953" lon="-3.116460"><ele>288</ele><time>2020-08-14T10:22:41Z</time><name>PT472</name></trkpt>
<trkpt lat="54.618939" lon="-3.116430"><ele>289</ele><time>2020-08-14T10:22:44Z</time><name>PT473</name></trkpt>
<trkpt lat="54.618930" lon="-3.116374"><ele>289</ele><time>2020-08-14T10:22:47Z</time><name>PT474</name></trkpt>
<trkpt lat="54.618924" lon="-3.116308"><ele>289</ele><time>2020-08-14T10:22:51Z</time><name>PT475</name></trkpt>
<trkpt lat="54.618910" lon="-3.116256"><ele>287</ele><time>2020-08-14T10:22:56Z</time><name>PT476</name></trkpt>
<trkpt lat="54.618902" lon="-3.116200"><ele>288</ele><time>2020-08-14T10:22:59Z</time><name>PT477</name></trkpt>
<trkpt lat="54.618884" lon="-3.116115"><ele>290</ele><time>2020-08-14T10:23:02Z</time><name>PT478</name></trkpt>
<trkpt lat="54.618874" lon="-3.116056"><ele>290</ele><time>2020-08-14T10:23:05Z</time><name>PT479</name></trkpt>
<trkpt lat="54.618859" lon="-3.115976"><ele>290</ele><time>2020-08-14T10:23:09Z</time><name>PT480</name></trkpt>
<trkpt lat="54.618831" lon="-3.115948"><ele>288</ele><time>2020-08-14T10:23:12Z</time><name>PT481</name></trkpt>
<trkpt lat="54.618795" lon="-3.115882"><ele>289</ele><time>2020-08-14T10:23:17Z</time><name>PT482</name></trkpt>
<trkpt lat="54.618764" lon="-3.115854"><ele>288</ele><time>2020-08-14T10:23:20Z</time><name>PT483</name></trkpt>
<trkpt lat="54.618730" lon="-3.115804"><ele>288</ele><time>2020-08-14T10:23:23Z</time><name>PT484</name></trkpt>
<trkpt lat="54.618694" lon="-3.115769"><ele>287</ele><time>2020-08-14T10:23:27Z</time><name>PT485</name></trkpt>
<trkpt lat="54.618635" lon="-3.115728"><ele>288</ele><time>2020-08-14T10:23:32Z</time><name>PT486</name></trkpt>
<trkpt lat="54.618577" lon="-3.115688"><ele>291</ele><time>2020-08-14T10:23:35Z</time><name>PT487</name></trkpt>
<trkpt lat="54.618530" lon="-3.115650"><ele>292</ele><time>2020-08-14T10:23:39Z</time><name>PT488</name></trkpt>
<trkpt lat="54.618485" lon="-3.115617"><ele>293</ele><time>2020-08-14T10:23:44Z</time><name>PT489</name></trkpt>
<trkpt lat="54.618442" lon="-3.115582"><ele>292</ele><time>2020-08-14T10:23:47Z</time><name>PT490</name></trkpt>
<trkpt lat="54.618406" lon="-3.115542"><ele>293</ele><time>2020-08-14T10:23:50Z</time><name>PT491</name></trkpt>
<trkpt lat="54.618361" lon="-3.115495"><ele>294</ele><time>2020-08-14T10:23:54Z</time><name>PT492</name></trkpt>
<trkpt lat="54.618327" lon="-3.115461"><ele>293</ele><time>2020-08-14T10:23:57Z</time><name>PT493</name></trkpt>
<trkpt lat="54.618266" lon="-3.115435"><ele>294</ele><time>2020-08-14T10:24:02Z</time><name>PT494</name></trkpt>
<trkpt lat="54.618230" lon="-3.115407"><ele>297</ele><time>2020-08-14T10:24:05Z</time><name>PT495</name></trkpt>
<trkpt lat="54.618172" lon="-3.115349"><ele>301</ele><time>2020-08-14T10:24:08Z</time><name>PT496</name></trkpt>
<trkpt lat="54.618136" lon="-3.115317"><ele>304</ele><time>2020-08-14T10:24:12Z</time><name>PT497</name></trkpt>
<trkpt lat="54.618105" lon="-3.115291"><ele>300</ele><time>2020-08-14T10:24:17Z</time><name>PT498</name></trkpt>
<trkpt lat="54.618063" lon="-3.115256"><ele>302</ele><time>2020-08-14T10:24:20Z</time><name>PT499</name></trkpt>
<trkpt lat="54.618033" lon="-3.115223"><ele>301</ele><time>2020-08-14T10:24:23Z</time><name>PT500</name></trkpt>
<trkpt lat="54.618019" lon="-3.115175"><ele>301</ele><time>2020-08-14T10:24:27Z</time><name>PT501</name></trkpt>
<trkpt lat="54.618021" lon="-3.115163"><ele>300</ele><time>2020-08-14T10:24:30Z</time><name>PT502</name></trkpt>
<trkpt lat="54.618015" lon="-3.115137"><ele>300</ele><time>2020-08-14T10:24:35Z</time><name>PT503</name></trkpt>
<trkpt lat="54.618045" lon="-3.115095"><ele>297</ele><time>2020-08-14T10:24:38Z</time><name>PT504</name></trkpt>
<trkpt lat="54.618081" lon="-3.115025"><ele>298</ele><time>2020-08-14T10:24:41Z</time><name>PT505</name></trkpt>
<trkpt lat="54.618111" lon="-3.114973"><ele>298</ele><time>2020-08-14T10:24:44Z</time><name>PT506</name></trkpt>
<trkpt lat="54.618142" lon="-3.114904"><ele>298</ele><time>2020-08-14T10:24:48Z</time><name>PT507</name></trkpt>
<trkpt lat="54.618179" lon="-3.114803"><ele>300</ele><time>2020-08-14T10:24:51Z</time><name>PT508</name></trkpt>
<trkpt lat="54.618206" lon="-3.114765"><ele>300</ele><time>2020-08-14T10:24:54Z</time><name>PT509</name></trkpt>
<trkpt lat="54.618235" lon="-3.114709"><ele>300</ele><time>2020-08-14T10:24:57Z</time><name>PT510</name></trkpt>
<trkpt lat="54.618267" lon="-3.114644"><ele>300</ele><time>2020-08-14T10:25:02Z</time><name>PT511</name></trkpt>
<trkpt lat="54.618293" lon="-3.114599"><ele>298</ele><time>2020-08-14T10:25:05Z</time><name>PT512</name></trkpt>
<trkpt lat="54.618326" lon="-3.114542"><ele>299</ele><time>2020-08-14T10:25:08Z</time><name>PT513</name></trkpt>
<trkpt lat="54.618373" lon="-3.114501"><ele>296</ele><time>2020-08-14T10:25:11Z</time><name>PT514</name></trkpt>
<trkpt lat="54.618394" lon="-3.114431"><ele>297</ele><time>2020-08-14T10:25:14Z</time><name>PT515</name></trkpt>
<trkpt lat="54.618419" lon="-3.114358"><ele>298</ele><time>2020-08-14T10:25:18Z</time><name>PT516</name></trkpt>
<trkpt lat="54.618445" lon="-3.114304"><ele>297</ele><time>2020-08-14T10:25:23Z</time><name>PT517</name></trkpt>
<trkpt lat="54.618472" lon="-3.114263"><ele>298</ele><time>2020-08-14T10:25:26Z</time><name>PT518</name></trkpt>
<trkpt lat="54.618500" lon="-3.114212"><ele>298</ele><time>2020-08-14T10:25:29Z</time><name>PT519</name></trkpt>
<trkpt lat="54.618538" lon="-3.114145"><ele>300</ele><time>2020-08-14T10:25:33Z</time><name>PT520</name></trkpt>
<trkpt lat="54.618569" lon="-3.114099"><ele>299</ele><time>2020-08-14T10:25:38Z</time><name>PT521</name></trkpt>
<trkpt lat="54.618600" lon="-3.114070"><ele>300</ele><time>2020-08-14T10:25:41Z</time><name>PT522</name></trkpt>
<trkpt lat="54.618637" lon="-3.114029"><ele>299</ele><time>2020-08-14T10:25:44Z</time><name>PT523</name></trkpt>
<trkpt lat="54.618655" lon="-3.113964"><ele>300</ele><time>2020-08-14T10:25:48Z</time><name>PT524</name></trkpt>
<trkpt lat="54.618682" lon="-3.113897"><ele>302</ele><time>2020-08-14T10:25:53Z</time><name>PT525</name></trkpt>
<trkpt lat="54.618708" lon="-3.113853"><ele>302</ele><time>2020-08-14T10:25:56Z</time><name>PT526</name></trkpt>
<trkpt lat="54.618737" lon="-3.113804"><ele>303</ele><time>2020-08-14T10:25:59Z</time><name>PT527</name></trkpt>
<trkpt lat="54.618771" lon="-3.113757"><ele>304</ele><time>2020-08-14T10:26:02Z</time><name>PT528</name></trkpt>
<trkpt lat="54.618817" lon="-3.113698"><ele>305</ele><time>2020-08-14T10:26:06Z</time><name>PT529</name></trkpt>
<trkpt lat="54.618846" lon="-3.113632"><ele>306</ele><time>2020-08-14T10:26:11Z</time><name>PT530</name></trkpt>
<trkpt lat="54.618877" lon="-3.113563"><ele>307</ele><time>2020-08-14T10:26:14Z</time><name>PT531</name></trkpt>
<trkpt lat="54.618916" lon="-3.113494"><ele>307</ele><time>2020-08-14T10:26:18Z</time><name>PT532</name></trkpt>
<trkpt lat="54.618936" lon="-3.113455"><ele>307</ele><time>2020-08-14T10:26:21Z</time><name>PT533</name></trkpt>
<trkpt lat="54.618980" lon="-3.113418"><ele>306</ele><time>2020-08-14T10:26:24Z</time><name>PT534</name></trkpt>
<trkpt lat="54.619011" lon="-3.113369"><ele>306</ele><time>2020-08-14T10:26:29Z</time><name>PT535</name></trkpt>
<trkpt lat="54.619039" lon="-3.113313"><ele>307</ele><time>2020-08-14T10:26:32Z</time><name>PT536</name></trkpt>
<trkpt lat="54.619068" lon="-3.113243"><ele>308</ele><time>2020-08-14T10:26:35Z</time><name>PT537</name></trkpt>
<trkpt lat="54.619100" lon="-3.113177"><ele>307</ele><time>2020-08-14T10:26:38Z</time><name>PT538</name></trkpt>
<trkpt lat="54.619137" lon="-3.113128"><ele>305</ele><time>2020-08-14T10:26:42Z</time><name>PT539</name></trkpt>
<trkpt lat="54.619154" lon="-3.113043"><ele>307</ele><time>2020-08-14T10:26:45Z</time><name>PT540</name></trkpt>
<trkpt lat="54.619175" lon="-3.112981"><ele>306</ele><time>2020-08-14T10:26:48Z</time><name>PT541</name></trkpt>
<trkpt lat="54.619220" lon="-3.112926"><ele>306</ele><time>2020-08-14T10:26:53Z</time><name>PT542</name></trkpt>
<trkpt lat="54.619232" lon="-3.112869"><ele>310</ele><time>2020-08-14T10:26:56Z</time><name>PT543</name></trkpt>
<trkpt lat="54.619274" lon="-3.112815"><ele>311</ele><time>2020-08-14T10:26:59Z</time><name>PT544</name></trkpt>
<trkpt lat="54.619303" lon="-3.112769"><ele>311</ele><time>2020-08-14T10:27:02Z</time><name>PT545</name></trkpt>
<trkpt lat="54.619342" lon="-3.112702"><ele>313</ele><time>2020-08-14T10:27:06Z</time><name>PT546</name></trkpt>
<trkpt lat="54.619372" lon="-3.112661"><ele>313</ele><time>2020-08-14T10:27:09Z</time><name>PT547</name></trkpt>
<trkpt lat="54.619409" lon="-3.112590"><ele>314</ele><time>2020-08-14T10:27:14Z</time><name>PT548</name></trkpt>
<trkpt lat="54.619455" lon="-3.112534"><ele>312</ele><time>2020-08-14T10:27:17Z</time><name>PT549</name></trkpt>
<trkpt lat="54.619484" lon="-3.112494"><ele>311</ele><time>2020-08-14T10:27:20Z</time><name>PT550</name></trkpt>
<trkpt lat="54.619517" lon="-3.112433"><ele>311</ele><time>2020-08-14T10:27:24Z</time><name>PT551</name></trkpt>
<trkpt lat="54.619556" lon="-3.112372"><ele>310</ele><time>2020-08-14T10:27:29Z</time><name>PT552</name></trkpt>
<trkpt lat="54.619580" lon="-3.112324"><ele>311</ele><time>2020-08-14T10:27:32Z</time><name>PT553</name></trkpt>
<trkpt lat="54.619621" lon="-3.112267"><ele>310</ele><time>2020-08-14T10:27:35Z</time><name>PT554</name></trkpt>
<trkpt lat="54.619631" lon="-3.112256"><ele>309</ele><time>2020-08-14T10:27:36Z</time><name>PT555</name></trkpt>
<trkpt lat="54.619639" lon="-3.112241"><ele>309</ele><time>2020-08-14T10:27:38Z</time><name>PT556</name></trkpt>
<trkpt lat="54.619647" lon="-3.112225"><ele>309</ele><time>2020-08-14T10:27:38Z</time><name>PT557</name></trkpt>
<trkpt lat="54.619656" lon="-3.112216"><ele>308</ele><time>2020-08-14T10:27:39Z</time><name>PT558</name></trkpt>
<trkpt lat="54.619666" lon="-3.112208"><ele>308</ele><time>2020-08-14T10:27:41Z</time><name>PT559</name></trkpt>
<trkpt lat="54.619679" lon="-3.112201"><ele>308</ele><time>2020-08-14T10:27:41Z</time><name>PT560</name></trkpt>
<trkpt lat="54.619692" lon="-3.112196"><ele>307</ele><time>2020-08-14T10:27:42Z</time><name>PT561</name></trkpt>
<trkpt lat="54.619705" lon="-3.112194"><ele>307</ele><time>2020-08-14T10:27:44Z</time><name>PT562</name></trkpt>
<trkpt lat="54.619718" lon="-3.112193"><ele>307</ele><time>2020-08-14T10:27:44Z</time><name>PT563</name></trkpt>
<trkpt lat="54.619731" lon="-3.112192"><ele>307</ele><time>2020-08-14T10:27:45Z</time><name>PT564</name></trkpt>
<trkpt lat="54.619745" lon="-3.112193"><ele>307</ele><time>2020-08-14T10:27:47Z</time><name>PT565</name></trkpt>
<trkpt lat="54.619757" lon="-3.112194"><ele>307</ele><time>2020-08-14T10:27:47Z</time><name>PT566</name></trkpt>
<trkpt lat="54.619773" lon="-3.112196"><ele>307</ele><time>2020-08-14T10:27:48Z</time><name>PT567</name></trkpt>
<trkpt lat="54.619789" lon="-3.112196"><ele>307</ele><time>2020-08-14T10:27:50Z</time><name>PT568</name></trkpt>
<trkpt lat="54.619804" lon="-3.112194"><ele>307</ele><time>2020-08-14T10:27:50Z</time><name>PT569</name></trkpt>
<trkpt lat="54.619818" lon="-3.112189"><ele>307</ele><time>2020-08-14T10:27:51Z</time><name>PT570</name></trkpt>
<trkpt lat="54.619830" lon="-3.112187"><ele>308</ele><time>2020-08-14T10:27:53Z</time><name>PT571</name></trkpt>
<trkpt lat="54.619840" lon="-3.112184"><ele>308</ele><time>2020-08-14T10:27:53Z</time><name>PT572</name></trkpt>
<trkpt lat="54.619854" lon="-3.112185"><ele>308</ele><time>2020-08-14T10:27:54Z</time><name>PT573</name></trkpt>
<trkpt lat="54.619867" lon="-3.112186"><ele>308</ele><time>2020-08-14T10:27:56Z</time><name>PT574</name></trkpt>
<trkpt lat="54.619883" lon="-3.112192"><ele>308</ele><time>2020-08-14T10:27:56Z</time><name>PT575</name></trkpt>
<trkpt lat="54.619901" lon="-3.112194"><ele>308</ele><time>2020-08-14T10:27:57Z</time><name>PT576</name></trkpt>
<trkpt lat="54.619915" lon="-3.112198"><ele>308</ele><time>2020-08-14T10:27:59Z</time><name>PT577</name></trkpt>
<trkpt lat="54.619925" lon="-3.112195"><ele>308</ele><time>2020-08-14T10:27:59Z</time><name>PT578</name></trkpt>
<trkpt lat="54.619935" lon="-3.112190"><ele>308</ele><time>2020-08-14T10:28:00Z</time><name>PT579</name></trkpt>
<trkpt lat="54.619947" lon="-3.112187"><ele>309</ele><time>2020-08-14T10:28:02Z</time><name>PT580</name></trkpt>
<trkpt lat="54.619958" lon="-3.112187"><ele>308</ele><time>2020-08-14T10:28:02Z</time><name>PT581</name></trkpt>
<trkpt lat="54.619970" lon="-3.112185"><ele>309</ele><time>2020-08-14T10:28:03Z</time><name>PT582</name></trkpt>
<trkpt lat="54.619989" lon="-3.112181"><ele>309</ele><time>2020-08-14T10:28:05Z</time><name>PT583</name></trkpt>
<trkpt lat="54.620006" lon="-3.112181"><ele>309</ele><time>2020-08-14T10:28:05Z</time><name>PT584</name></trkpt>
<trkpt lat="54.620015" lon="-3.112177"><ele>309</ele><time>2020-08-14T10:28:06Z</time><name>PT585</name></trkpt>
<trkpt lat="54.620025" lon="-3.112173"><ele>309</ele><time>2020-08-14T10:28:08Z</time><name>PT586</name></trkpt>
<trkpt lat="54.620036" lon="-3.112168"><ele>308</ele><time>2020-08-14T10:28:08Z</time><name>PT587</name></trkpt>
<trkpt lat="54.620049" lon="-3.112165"><ele>308</ele><time>2020-08-14T10:28:09Z</time><name>PT588</name></trkpt>
<trkpt lat="54.620063" lon="-3.112162"><ele>309</ele><time>2020-08-14T10:28:11Z</time><name>PT589</name></trkpt>
<trkpt lat="54.620079" lon="-3.112155"><ele>309</ele><time>2020-08-14T10:28:11Z</time><name>PT590</name></trkpt>
<trkpt lat="54.620091" lon="-3.112144"><ele>310</ele><time>2020-08-14T10:28:12Z</time><name>PT591</name></trkpt>
<trkpt lat="54.620101" lon="-3.112142"><ele>310</ele><time>2020-08-14T10:28:14Z</time><name>PT592</name></trkpt>
<trkpt lat="54.620109" lon="-3.112139"><ele>311</ele><time>2020-08-14T10:28:14Z</time><name>PT593</name></trkpt>
<trkpt lat="54.620119" lon="-3.112135"><ele>311</ele><time>2020-08-14T10:28:15Z</time><name>PT594</name></trkpt>
<trkpt lat="54.620132" lon="-3.112137"><ele>311</ele><time>2020-08-14T10:28:17Z</time><name>PT595</name></trkpt>
<trkpt lat="54.620141" lon="-3.112143"><ele>312</ele><time>2020-08-14T10:28:17Z</time><name>PT596</name></trkpt>
<trkpt lat="54.620153" lon="-3.112145"><ele>312</ele><time>2020-08-14T10:28:18Z</time><name>PT597</name></trkpt>
<trkpt lat="54.620161" lon="-3.112145"><ele>313</ele><time>2020-08-14T10:28:20Z</time><name>PT598</name></trkpt>
<trkpt lat="54.620168" lon="-3.112145"><ele>313</ele><time>2020-08-14T10:28:20Z</time><name>PT599</name></trkpt>
<trkpt lat="54.620173" lon="-3.112141"><ele>313</ele><time>2020-08-14T10:28:21Z</time><name>PT600</name></trkpt>
<trkpt lat="54.620173" lon="-3.112141"><ele>312</ele><time>2020-08-14T10:28:23Z</time><name>PT601</name></trkpt>
<trkpt lat="54.620176" lon="-3.112143"><ele>313</ele><time>2020-08-14T10:28:23Z</time><name>PT602</name></trkpt>
<trkpt lat="54.620180" lon="-3.112145"><ele>313</ele><time>2020-08-14T10:28:24Z</time><name>PT603</name></trkpt>
<trkpt lat="54.620188" lon="-3.112141"><ele>313</ele><time>2020-08-14T10:28:26Z</time><name>PT604</name></trkpt>
<trkpt lat="54.620197" lon="-3.112133"><ele>312</ele><time>2020-08-14T10:28:26Z</time><name>PT605</name></trkpt>
<trkpt lat="54.620204" lon="-3.112123"><ele>312</ele><time>2020-08-14T10:28:27Z</time><name>PT606</name></trkpt>
<trkpt lat="54.620212" lon="-3.112112"><ele>311</ele><time>2020-08-14T10:28:29Z</time><name>PT607</name></trkpt>
<trkpt lat="54.620221" lon="-3.112099"><ele>311</ele><time>2020-08-14T10:28:29Z</time><name>PT608</name></trkpt>
<trkpt lat="54.620232" lon="-3.112083"><ele>311</ele><time>2020-08-14T10:28:30Z</time><name>PT609</name></trkpt>
<trkpt lat="54.620247" lon="-3.112069"><ele>311</ele><time>2020-08-14T10:28:32Z</time><name>PT610</name></trkpt>
<trkpt lat="54.620260" lon="-3.112063"><ele>311</ele><time>2020-08-14T10:28:32Z</time><name>PT611</name></trkpt>
<trkpt lat="54.620271" lon="-3.112061"><ele>312</ele><time>2020-08-14T10:28:34Z</time><name>PT612</name></trkpt>
<trkpt lat="54.620276" lon="-3.112060"><ele>312</ele><time>2020-08-14T10:28:35Z</time><name>PT613</name></trkpt>
<trkpt lat="54.620284" lon="-3.112057"><ele>312</ele><time>2020-08-14T10:28:35Z</time><name>PT614</name></trkpt>
<trkpt lat="54.620293" lon="-3.112056"><ele>311</ele><time>2020-08-14T10:28:36Z</time><name>PT615</name></trkpt>
<trkpt lat="54.620301" lon="-3.112047"><ele>311</ele><time>2020-08-14T10:28:38Z</time><name>PT616</name></trkpt>
<trkpt lat="54.620312" lon="-3.112040"><ele>312</ele><time>2020-08-14T10:28:38Z</time><name>PT617</name></trkpt>
<trkpt lat="54.620327" lon="-3.112036"><ele>312</ele><time>2020-08-14T10:28:39Z</time><name>PT618</name></trkpt>
<trkpt lat="54.620341" lon="-3.112033"><ele>312</ele><time>2020-08-14T10:28:41Z</time><name>PT619</name></trkpt>
<trkpt lat="54.620351" lon="-3.112031"><ele>312</ele><time>2020-08-14T10:28:41Z</time><name>PT620</name></trkpt>
<trkpt lat="54.620359" lon="-3.112029"><ele>311</ele><time>2020-08-14T10:28:42Z</time><name>PT621</name></trkpt>
<trkpt lat="54.620372" lon="-3.112025"><ele>311</ele><time>2020-08-14T10:28:44Z</time><name>PT622</name></trkpt>
<trkpt lat="54.620383" lon="-3.112025"><ele>311</ele><time>2020-08-14T10:28:44Z</time><name>PT623</name></trkpt>
<trkpt lat="54.620396" lon="-3.112033"><ele>311</ele><time>2020-08-14T10:28:45Z</time><name>PT624</name></trkpt>
<trkpt lat="54.620412" lon="-3.112034"><ele>311</ele><time>2020-08-14T10:28:47Z</time><name>PT625</name></trkpt>
<trkpt lat="54.620423" lon="-3.112033"><ele>311</ele><time>2020-08-14T10:28:47Z</time><name>PT626</name></trkpt>
<trkpt lat="54.620431" lon="-3.112030"><ele>311</ele><time>2020-08-14T10:28:48Z</time><name>PT627</name></trkpt>
<trkpt lat="54.620443" lon="-3.112028"><ele>312</ele><time>2020-08-14T10:28:50Z</time><name>PT628</name></trkpt>
<trkpt lat="54.620457" lon="-3.112027"><ele>312</ele><time>2020-08-14T10:28:50Z</time><name>PT629</name></trkpt>
<trkpt lat="54.620471" lon="-3.112029"><ele>312</ele><time>2020-08-14T10:28:51Z</time><name>PT630</name></trkpt>
<trkpt lat="54.620486" lon="-3.112028"><ele>312</ele><time>2020-08-14T10:28:53Z</time><name>PT631</name></trkpt>
<trkpt lat="54.620501" lon="-3.112031"><ele>312</ele><time>2020-08-14T10:28:53Z</time><name>PT632</name></trkpt>
<trkpt lat="54.620510" lon="-3.112028"><ele>312</ele><time>2020-08-14T10:28:54Z</time><name>PT633</name></trkpt>
<trkpt lat="54.620520" lon="-3.112027"><ele>312</ele><time>2020-08-14T10:28:56Z</time><name>PT634</name></trkpt>
<trkpt lat="54.620533" lon="-3.112023"><ele>312</ele><time>2020-08-14T10:28:56Z</time><name>PT635</name></trkpt>
<trkpt lat="54.620548" lon="-3.112021"><ele>312</ele><time>2020-08-14T10:28:57Z</time><name>PT636</name></trkpt>
<trkpt lat="54.620564" lon="-3.112023"><ele>313</ele><time>2020-08-14T10:28:59Z</time><name>PT637</name></trkpt>
<trkpt lat="54.620579" lon="-3.112028"><ele>313</ele><time>2020-08-14T10:28:59Z</time><name>PT638</name></trkpt>
<trkpt lat="54.620589" lon="-3.112027"><ele>313</ele><time>2020-08-14T10:29:00Z</time><name>PT639</name></trkpt>
<trkpt lat="54.620598" lon="-3.112023"><ele>313</ele><time>2020-08-14T10:29:02Z</time><name>PT640</name></trkpt>
<trkpt lat="54.620611" lon="-3.112024"><ele>313</ele><time>2020-08-14T10:29:02Z</time><name>PT641</name></trkpt>
<trkpt lat="54.620626" lon="-3.112024"><ele>313</ele><time>2020-08-14T10:29:03Z</time><name>PT642</name></trkpt>
<trkpt lat="54.620639" lon="-3.112019"><ele>314</ele><time>2020-08-14T10:29:05Z</time><name>PT643</name></trkpt>
<trkpt lat="54.620654" lon="-3.112017"><ele>314</ele><time>2020-08-14T10:29:05Z</time><name>PT644</name></trkpt>
<trkpt lat="54.620662" lon="-3.112014"><ele>314</ele><time>2020-08-14T10:29:06Z</time><name>PT645</name></trkpt>
<trkpt lat="54.620669" lon="-3.112013"><ele>313</ele><time>2020-08-14T10:29:08Z</time><name>PT646</name></trkpt>
<trkpt lat="54.620676" lon="-3.112009"><ele>313</ele><time>2020-08-14T10:29:08Z</time><name>PT647</name></trkpt>
<trkpt lat="54.620687" lon="-3.112009"><ele>314</ele><time>2020-08-14T10:29:09Z</time><name>PT648</name></trkpt>
<trkpt lat="54.620700" lon="-3.112008"><ele>314</ele><time>2020-08-14T10:29:11Z</time><name>PT649</name></trkpt>
<trkpt lat="54.620714" lon="-3.112006"><ele>314</ele><time>2020-08-14T10:29:11Z</time><name>PT650</name></trkpt>
<trkpt lat="54.620727" lon="-3.112004"><ele>315</ele><time>2020-08-14T10:29:12Z</time><name>PT651</name></trkpt>
<trkpt lat="54.620735" lon="-3.112005"><ele>315</ele><time>2020-08-14T10:29:14Z</time><name>PT652</name></trkpt>
<trkpt lat="54.620743" lon="-3.112006"><ele>315</ele><time>2020-08-14T10:29:14Z</time><name>PT653</name></trkpt>
<trkpt lat="54.620751" lon="-3.112007"><ele>315</ele><time>2020-08-14T10:29:15Z</time><name>PT654</name></trkpt>
<trkpt lat="54.620763" lon="-3.112008"><ele>315</ele><time>2020-08-14T10:29:17Z</time><name>PT655</name></trkpt>
<trkpt lat="54.620776" lon="-3.112006"><ele>316</ele><time>2020-08-14T10:29:17Z</time><name>PT656</name></trkpt>
<trkpt lat="54.620790" lon="-3.112008"><ele>316</ele><time>2020-08-14T10:29:18Z</time><name>PT657</name></trkpt>
<trkpt lat="54.620799" lon="-3.112005"><ele>316</ele><time>2020-08-14T10:29:20Z</time><name>PT658</name></trkpt>
<trkpt lat="54.620805" lon="-3.112003"><ele>316</ele><time>2020-08-14T10:29:20Z</time><name>PT659</name></trkpt>
<trkpt lat="54.620815" lon="-3.112006"><ele>316</ele><time>2020-08-14T10:29:21Z</time><name>PT660</name></trkpt>
<trkpt lat="54.620826" lon="-3.112013"><ele>316</ele><time>2020-08-14T10:29:23Z</time><name>PT661</name></trkpt>
<trkpt lat="54.620837" lon="-3.112013"><ele>316</ele><time>2020-08-14T10:29:23Z</time><name>PT662</name></trkpt>
<trkpt lat="54.620848" lon="-3.112010"><ele>316</ele><time>2020-08-14T10:29:24Z</time><name>PT663</name></trkpt>
<trkpt lat="54.620864" lon="-3.112012"><ele>317</ele><time>2020-08-14T10:29:26Z</time><name>PT664</name></trkpt>
<trkpt lat="54.620877" lon="-3.112015"><ele>317</ele><time>2020-08-14T10:29:26Z</time><name>PT665</name></trkpt>
<trkpt lat="54.620885" lon="-3.112017"><ele>317</ele><time>2020-08-14T10:29:27Z</time><name>PT666</name></trkpt>
<trkpt lat="54.620894" lon="-3.112016"><ele>316</ele><time>2020-08-14T10:29:29Z</time><name>PT667</name></trkpt>
<trkpt lat="54.620904" lon="-3.112010"><ele>316</ele><time>2020-08-14T10:29:29Z</time><name>PT668</name></trkpt>
<trkpt lat="54.620917" lon="-3.112007"><ele>317</ele><time>2020-08-14T10:29:30Z</time><name>PT669</name></trkpt>
<trkpt lat="54.620933" lon="-3.112002"><ele>317</ele><time>2020-08-14T10:29:32Z</time><name>PT670</name></trkpt>
<trkpt lat="54.620947" lon="-3.112000"><ele>317</ele><time>2020-08-14T10:29:32Z</time><name>PT671</name></trkpt>
<trkpt lat="54.620958" lon="-3.111999"><ele>317</ele><time>2020-08-14T10:29:33Z</time><name>PT672</name></trkpt>
<trkpt lat="54.620969" lon="-3.111998"><ele>317</ele><time>2020-08-14T10:29:35Z</time><name>PT673</name></trkpt>
<trkpt lat="54.620981" lon="-3.111994"><ele>317</ele><time>2020-08-14T10:29:35Z</time><name>PT674</name></trkpt>
<trkpt lat="54.620996" lon="-3.111995"><ele>317</ele><time>2020-08-14T10:29:36Z</time><name>PT675</name></trkpt>
<trkpt lat="54.621011" lon="-3.111996"><ele>317</ele><time>2020-08-14T10:29:38Z</time><name>PT676</name></trkpt>
<trkpt lat="54.621029" lon="-3.112001"><ele>317</ele><time>2020-08-14T10:29:38Z</time><name>PT677</name></trkpt>
<trkpt lat="54.621045" lon="-3.111999"><ele>317</ele><time>2020-08-14T10:29:39Z</time><name>PT678</name></trkpt>
<trkpt lat="54.621057" lon="-3.111996"><ele>317</ele><time>2020-08-14T10:29:41Z</time><name>PT679</name></trkpt>
<trkpt lat="54.621068" lon="-3.111995"><ele>317</ele><time>2020-08-14T10:29:41Z</time><name>PT680</name></trkpt>
<trkpt lat="54.621080" lon="-3.111991"><ele>316</ele><time>2020-08-14T10:29:42Z</time><name>PT681</name></trkpt>
<trkpt lat="54.621096" lon="-3.111987"><ele>317</ele><time>2020-08-14T10:29:44Z</time><name>PT682</name></trkpt>
<trkpt lat="54.621109" lon="-3.111983"><ele>316</ele><time>2020-08-14T10:29:44Z</time><name>PT683</name></trkpt>
<trkpt lat="54.621123" lon="-3.111973"><ele>316</ele><time>2020-08-14T10:29:45Z</time><name>PT684</name></trkpt>
<trkpt lat="54.621138" lon="-3.111964"><ele>317</ele><time>2020-08-14T10:29:47Z</time><name>PT685</name></trkpt>
<trkpt lat="54.621148" lon="-3.111959"><ele>316</ele><time>2020-08-14T10:29:47Z</time><name>PT686</name></trkpt>
<trkpt lat="54.621154" lon="-3.111949"><ele>317</ele><time>2020-08-14T10:29:48Z</time><name>PT687</name></trkpt>
<trkpt lat="54.621164" lon="-3.111940"><ele>317</ele><time>2020-08-14T10:29:50Z</time><name>PT688</name></trkpt>
<trkpt lat="54.621176" lon="-3.111929"><ele>317</ele><time>2020-08-14T10:29:50Z</time><name>PT689</name></trkpt>
<trkpt lat="54.621189" lon="-3.111925"><ele>317</ele><time>2020-08-14T10:29:51Z</time><name>PT690</name></trkpt>
<trkpt lat="54.621204" lon="-3.111915"><ele>317</ele><time>2020-08-14T10:29:53Z</time><name>PT691</name></trkpt>
<trkpt lat="54.621215" lon="-3.111913"><ele>317</ele><time>2020-08-14T10:29:53Z</time><name>PT692</name></trkpt>
<trkpt lat="54.621221" lon="-3.111908"><ele>317</ele><time>2020-08-14T10:29:55Z</time><name>PT693</name></trkpt>
<trkpt lat="54.621231" lon="-3.111901"><ele>317</ele><time>2020-08-14T10:29:56Z</time><name>PT694</name></trkpt>
<trkpt lat="54.621242" lon="-3.111889"><ele>317</ele><time>2020-08-14T10:29:56Z</time><name>PT695</name></trkpt>
<trkpt lat="54.621256" lon="-3.111887"><ele>317</ele><time>2020-08-14T10:29:58Z</time><name>PT696</name></trkpt>
<trkpt lat="54.621271" lon="-3.111880"><ele>318</ele><time>2020-08-14T10:29:59Z</time><name>PT697</name></trkpt>
<trkpt lat="54.621286" lon="-3.111872"><ele>318</ele><time>2020-08-14T10:29:59Z</time><name>PT698</name></trkpt>
<trkpt lat="54.621298" lon="-3.111869"><ele>318</ele><time>2020-08-14T10:30:00Z</time><name>PT699</name></trkpt>
<trkpt lat="54.621307" lon="-3.111865"><ele>319</ele><time>2020-08-14T10:30:02Z</time><name>PT700</name></trkpt>
<trkpt lat="54.621317" lon="-3.111858"><ele>318</ele><time>2020-08-14T10:30:02Z</time><name>PT701</name></trkpt>
<trkpt lat="54.621328" lon="-3.111857"><ele>318</ele><time>2020-08-14T10:30:03Z</time><name>PT702</name></trkpt>
<trkpt lat="54.621343" lon="-3.111858"><ele>318</ele><time>2020-08-14T10:30:05Z</time><name>PT703</name></trkpt>
<trkpt lat="54.621358" lon="-3.111853"><ele>319</ele><time>2020-08-14T10:30:05Z</time><name>PT704</name></trkpt>
<trkpt lat="54.621371" lon="-3.111848"><ele>319</ele><time>2020-08-14T10:30:06Z</time><name>PT705</name></trkpt>
<trkpt lat="54.621382" lon="-3.111841"><ele>319</ele><time>2020-08-14T10:30:08Z</time><name>PT706</name></trkpt>
<trkpt lat="54.621391" lon="-3.111831"><ele>319</ele><time>2020-08-14T10:30:08Z</time><name>PT707</name></trkpt>
<trkpt lat="54.621403" lon="-3.111824"><ele>319</ele><time>2020-08-14T10:30:09Z</time><name>PT708</name></trkpt>
<trkpt lat="54.621415" lon="-3.111819"><ele>319</ele><time>2020-08-14T10:30:11Z</time><name>PT709</name></trkpt>
<trkpt lat="54.621430" lon="-3.111818"><ele>319</ele><time>2020-08-14T10:30:11Z</time><name>PT710</name></trkpt>
<trkpt lat="54.621446" lon="-3.111817"><ele>320</ele><time>2020-08-14T10:30:12Z</time><name>PT711</name></trkpt>
<trkpt lat="54.621462" lon="-3.111816"><ele>320</ele><time>2020-08-14T10:30:14Z</time><name>PT712</name></trkpt>
<trkpt lat="54.621475" lon="-3.111816"><ele>320</ele><time>2020-08-14T10:30:14Z</time><name>PT713</name></trkpt>
<trkpt lat="54.621484" lon="-3.111815"><ele>319</ele><time>2020-08-14T10:30:15Z</time><name>PT714</name></trkpt>
<trkpt lat="54.621495" lon="-3.111811"><ele>319</ele><time>2020-08-14T10:30:17Z</time><name>PT715</name></trkpt>
<trkpt lat="54.621509" lon="-3.111810"><ele>319</ele><time>2020-08-14T10:30:17Z</time><name>PT716</name></trkpt>
<trkpt lat="54.621523" lon="-3.111811"><ele>319</ele><time>2020-08-14T10:30:18Z</time><name>PT717</name></trkpt>
<trkpt lat="54.621536" lon="-3.111806"><ele>319</ele><time>2020-08-14T10:30:20Z</time><name>PT718</name></trkpt>
<trkpt lat="54.621552" lon="-3.111806"><ele>320</ele><time>2020-08-14T10:30:20Z</time><name>PT719</name></trkpt>
<trkpt lat="54.621564" lon="-3.111808"><ele>320</ele><time>2020-08-14T10:30:21Z</time><name>PT720</name></trkpt>
<trkpt lat="54.621573" lon="-3.111809"><ele>319</ele><time>2020-08-14T10:30:23Z</time><name>PT721</name></trkpt>
<trkpt lat="54.621584" lon="-3.111808"><ele>319</ele><time>2020-08-14T10:30:23Z</time><name>PT722</name></trkpt>
<trkpt lat="54.621597" lon="-3.111812"><ele>318</ele><time>2020-08-14T10:30:24Z</time><name>PT723</name></trkpt>
<trkpt lat="54.621611" lon="-3.111815"><ele>318</ele><time>2020-08-14T10:30:26Z</time><name>PT724</name></trkpt>
<trkpt lat="54.621627" lon="-3.111823"><ele>318</ele><time>2020-08-14T10:30:26Z</time><name>PT725</name></trkpt>
<trkpt lat="54.621643" lon="-3.111836"><ele>318</ele><time>2020-08-14T10:30:27Z</time><name>PT726</name></trkpt>
<trkpt lat="54.621657" lon="-3.111846"><ele>318</ele><time>2020-08-14T10:30:29Z</time><name>PT727</name></trkpt>
<trkpt lat="54.621666" lon="-3.111853"><ele>318</ele><time>2020-08-14T10:30:29Z</time><name>PT728</name></trkpt>
<trkpt lat="54.621675" lon="-3.111853"><ele>318</ele><time>2020-08-14T10:30:30Z</time><name>PT729</name></trkpt>
<trkpt lat="54.621685" lon="-3.111855"><ele>318</ele><time>2020-08-14T10:30:32Z</time><name>PT730</name></trkpt>
<trkpt lat="54.621696" lon="-3.111862"><ele>317</ele><time>2020-08-14T10:30:32Z</time><name>PT731</name></trkpt>
<trkpt lat="54.621708" lon="-3.111868"><ele>317</ele><time>2020-08-14T10:30:33Z</time><name>PT732</name></trkpt>
<trkpt lat="54.621719" lon="-3.111876"><ele>318</ele><time>2020-08-14T10:30:35Z</time><name>PT733</name></trkpt>
<trkpt lat="54.621731" lon="-3.111895"><ele>318</ele><time>2020-08-14T10:30:35Z</time><name>PT734</name></trkpt>
<trkpt lat="54.621772" lon="-3.111938"><ele>317</ele><time>2020-08-14T10:30:39Z</time><name>PT735</name></trkpt>
<trkpt lat="54.621813" lon="-3.111969"><ele>316</ele><time>2020-08-14T10:30:42Z</time><name>PT736</name></trkpt>
<trkpt lat="54.621857" lon="-3.112014"><ele>315</ele><time>2020-08-14T10:30:47Z</time><name>PT737</name></trkpt>
<trkpt lat="54.621889" lon="-3.112041"><ele>314</ele><time>2020-08-14T10:30:50Z</time><name>PT738</name></trkpt>
<trkpt lat="54.621945" lon="-3.112093"><ele>313</ele><time>2020-08-14T10:30:53Z</time><name>PT739</name></trkpt>
<trkpt lat="54.621985" lon="-3.112119"><ele>312</ele><time>2020-08-14T10:30:57Z</time><name>PT740</name></trkpt>
<trkpt lat="54.622021" lon="-3.112152"><ele>310</ele><time>2020-08-14T10:31:00Z</time><name>PT741</name></trkpt>
<trkpt lat="54.622068" lon="-3.112202"><ele>309</ele><time>2020-08-14T10:31:05Z</time><name>PT742</name></trkpt>
<trkpt lat="54.622106" lon="-3.112209"><ele>309</ele><time>2020-08-14T10:31:08Z</time><name>PT743</name></trkpt>
<trkpt lat="54.622144" lon="-3.112232"><ele>310</ele><time>2020-08-14T10:31:11Z</time><name>PT744</name></trkpt>
<trkpt lat="54.622181" lon="-3.112258"><ele>309</ele><time>2020-08-14T10:31:14Z</time><name>PT745</name></trkpt>
<trkpt lat="54.622230" lon="-3.112274"><ele>308</ele><time>2020-08-14T10:31:17Z</time><name>PT746</name></trkpt>
<trkpt lat="54.622285" lon="-3.112296"><ele>309</ele><time>2020-08-14T10:31:21Z</time><name>PT747</name></trkpt>
<trkpt lat="54.622315" lon="-3.112308"><ele>308</ele><time>2020-08-14T10:31:24Z</time><name>PT748</name></trkpt>
<trkpt lat="54.622372" lon="-3.112334"><ele>309</ele><time>2020-08-14T10:31:29Z</time><name>PT749</name></trkpt>
<trkpt lat="54.622412" lon="-3.112352"><ele>309</ele><time>2020-08-14T10:31:32Z</time><name>PT750</name></trkpt>
<trkpt lat="54.622450" lon="-3.112361"><ele>308</ele><time>2020-08-14T10:31:35Z</time><name>PT751</name></trkpt>
<trkpt lat="54.622507" lon="-3.112392"><ele>309</ele><time>2020-08-14T10:31:38Z</time><name>PT752</name></trkpt>
<trkpt lat="54.622556" lon="-3.112405"><ele>308</ele><time>2020-08-14T10:31:42Z</time><name>PT753</name></trkpt>
<trkpt lat="54.622609" lon="-3.112420"><ele>308</ele><time>2020-08-14T10:31:47Z</time><name>PT754</name></trkpt>
<trkpt lat="54.622652" lon="-3.112447"><ele>308</ele><time>2020-08-14T10:31:50Z</time><name>PT755</name></trkpt>
<trkpt lat="54.622687" lon="-3.112452"><ele>307</ele><time>2020-08-14T10:31:53Z</time><name>PT756</name></trkpt>
<trkpt lat="54.622738" lon="-3.112483"><ele>306</ele><time>2020-08-14T10:31:56Z</time><name>PT757</name></trkpt>
<trkpt lat="54.622777" lon="-3.112502"><ele>306</ele><time>2020-08-14T10:31:59Z</time><name>PT758</name></trkpt>
<trkpt lat="54.622809" lon="-3.112515"><ele>305</ele><time>2020-08-14T10:32:02Z</time><name>PT759</name></trkpt>
<trkpt lat="54.622869" lon="-3.112543"><ele>304</ele><time>2020-08-14T10:32:06Z</time><name>PT760</name></trkpt>
<trkpt lat="54.622901" lon="-3.112563"><ele>302</ele><time>2020-08-14T10:32:09Z</time><name>PT761</name></trkpt>
<trkpt lat="54.622935" lon="-3.112572"><ele>302</ele><time>2020-08-14T10:32:12Z</time><name>PT762</name></trkpt>
<trkpt lat="54.622989" lon="-3.112588"><ele>302</ele><time>2020-08-14T10:32:17Z</time><name>PT763</name></trkpt>
<trkpt lat="54.623038" lon="-3.112602"><ele>302</ele><time>2020-08-14T10:32:20Z</time><name>PT764</name></trkpt>
<trkpt lat="54.623083" lon="-3.112618"><ele>302</ele><time>2020-08-14T10:32:23Z</time><name>PT765</name></trkpt>
<trkpt lat="54.623145" lon="-3.112623"><ele>302</ele><time>2020-08-14T10:32:27Z</time><name>PT766</name></trkpt>
<trkpt lat="54.623197" lon="-3.112605"><ele>302</ele><time>2020-08-14T10:32:32Z</time><name>PT767</name></trkpt>
<trkpt lat="54.623238" lon="-3.112581"><ele>301</ele><time>2020-08-14T10:32:35Z</time><name>PT768</name></trkpt>
<trkpt lat="54.623268" lon="-3.112559"><ele>301</ele><time>2020-08-14T10:32:38Z</time><name>PT769</name></trkpt>
<trkpt lat="54.623303" lon="-3.112554"><ele>300</ele><time>2020-08-14T10:32:41Z</time><name>PT770</name></trkpt>
<trkpt lat="54.623353" lon="-3.112554"><ele>301</ele><time>2020-08-14T10:32:45Z</time><name>PT771</name></trkpt>
<trkpt lat="54.623389" lon="-3.112555"><ele>301</ele><time>2020-08-14T10:32:48Z</time><name>PT772</name></trkpt>
<trkpt lat="54.623436" lon="-3.112565"><ele>299</ele><time>2020-08-14T10:32:51Z</time><name>PT773</name></trkpt>
<trkpt lat="54.623468" lon="-3.112559"><ele>299</ele><time>2020-08-14T10:32:54Z</time><name>PT774</name></trkpt>
<trkpt lat="54.623520" lon="-3.112557"><ele>298</ele><time>2020-08-14T10:32:59Z</time><name>PT775</name></trkpt>
<trkpt lat="54.623554" lon="-3.112546"><ele>297</ele><time>2020-08-14T10:33:02Z</time><name>PT776</name></trkpt>
<trkpt lat="54.623578" lon="-3.112535"><ele>295</ele><time>2020-08-14T10:33:05Z</time><name>PT777</name></trkpt>
<trkpt lat="54.623621" lon="-3.112546"><ele>295</ele><time>2020-08-14T10:33:08Z</time><name>PT778</name></trkpt>
<trkpt lat="54.623659" lon="-3.112528"><ele>292</ele><time>2020-08-14T10:33:11Z</time><name>PT779</name></trkpt>
<trkpt lat="54.623682" lon="-3.112494"><ele>292</ele><time>2020-08-14T10:33:14Z</time><name>PT780</name></trkpt>
<trkpt lat="54.623673" lon="-3.112427"><ele>293</ele><time>2020-08-14T10:33:18Z</time><name>PT781</name></trkpt>
<trkpt lat="54.623653" lon="-3.112381"><ele>295</ele><time>2020-08-14T10:33:21Z</time><name>PT782</name></trkpt>
<trkpt lat="54.623636" lon="-3.112339"><ele>296</ele><time>2020-08-14T10:33:25Z</time><name>PT783</name></trkpt>
<trkpt lat="54.623620" lon="-3.112313"><ele>297</ele><time>2020-08-14T10:33:28Z</time><name>PT784</name></trkpt>
<trkpt lat="54.623589" lon="-3.112283"><ele>298</ele><time>2020-08-14T10:33:31Z</time><name>PT785</name></trkpt>
<trkpt lat="54.623565" lon="-3.112268"><ele>299</ele><time>2020-08-14T10:33:34Z</time><name>PT786</name></trkpt>
<trkpt lat="54.623532" lon="-3.112235"><ele>300</ele><time>2020-08-14T10:33:37Z</time><name>PT787</name></trkpt>
<trkpt lat="54.623514" lon="-3.112205"><ele>300</ele><time>2020-08-14T10:33:40Z</time><name>PT788</name></trkpt>
<trkpt lat="54.623481" lon="-3.112151"><ele>302</ele><time>2020-08-14T10:33:44Z</time><name>PT789</name></trkpt>
<trkpt lat="54.623462" lon="-3.112103"><ele>301</ele><time>2020-08-14T10:33:49Z</time><name>PT790</name></trkpt>
<trkpt lat="54.623443" lon="-3.112055"><ele>301</ele><time>2020-08-14T10:33:52Z</time><name>PT791</name></trkpt>
<trkpt lat="54.623430" lon="-3.112004"><ele>300</ele><time>2020-08-14T10:33:56Z</time><name>PT792</name></trkpt>
<trkpt lat="54.623426" lon="-3.111940"><ele>302</ele><time>2020-08-14T10:34:01Z</time><name>PT793</name></trkpt>
<trkpt lat="54.623421" lon="-3.111891"><ele>302</ele><time>2020-08-14T10:34:04Z</time><name>PT794</name></trkpt>
<trkpt lat="54.623410" lon="-3.111828"><ele>302</ele><time>2020-08-14T10:34:07Z</time><name>PT795</name></trkpt>
<trkpt lat="54.623407" lon="-3.111759"><ele>303</ele><time>2020-08-14T10:34:10Z</time><name>PT796</name></trkpt>
<trkpt lat="54.623397" lon="-3.111701"><ele>303</ele><time>2020-08-14T10:34:14Z</time><name>PT797</name></trkpt>
<trkpt lat="54.623391" lon="-3.111644"><ele>304</ele><time>2020-08-14T10:34:17Z</time><name>PT798</name></trkpt>
<trkpt lat="54.623376" lon="-3.111564"><ele>305</ele><time>2020-08-14T10:34:22Z</time><name>PT799</name></trkpt>
<trkpt lat="54.623372" lon="-3.111529"><ele>305</ele><time>2020-08-14T10:34:25Z</time><name>PT800</name></trkpt>
<trkpt lat="54.623360" lon="-3.111465"><ele>305</ele><time>2020-08-14T10:34:28Z</time><name>PT801</name></trkpt>
<trkpt lat="54.623348" lon="-3.111404"><ele>307</ele><time>2020-08-14T10:34:31Z</time><name>PT802</name></trkpt>
<trkpt lat="54.623331" lon="-3.111333"><ele>308</ele><time>2020-08-14T10:34:35Z</time><name>PT803</name></trkpt>
<trkpt lat="54.623319" lon="-3.111277"><ele>309</ele><time>2020-08-14T10:34:40Z</time><name>PT804</name></trkpt>
<trkpt lat="54.623311" lon="-3.111224"><ele>309</ele><time>2020-08-14T10:34:43Z</time><name>PT805</name></trkpt>
<trkpt lat="54.623299" lon="-3.111180"><ele>309</ele><time>2020-08-14T10:34:46Z</time><name>PT806</name></trkpt>
<trkpt lat="54.623289" lon="-3.111130"><ele>310</ele><time>2020-08-14T10:34:49Z</time><name>PT807</name></trkpt>
<trkpt lat="54.623287" lon="-3.111060"><ele>310</ele><time>2020-08-14T10:34:52Z</time><name>PT808</name></trkpt>
<trkpt lat="54.623281" lon="-3.111017"><ele>311</ele><time>2020-08-14T10:34:55Z</time><name>PT809</name></trkpt>
<trkpt lat="54.623276" lon="-3.110957"><ele>312</ele><time>2020-08-14T10:34:58Z</time><name>PT810</name></trkpt>
<trkpt lat="54.623270" lon="-3.110890"><ele>313</ele><time>2020-08-14T10:35:02Z</time><name>PT811</name></trkpt>
<trkpt lat="54.623265" lon="-3.110823"><ele>313</ele><time>2020-08-14T10:35:07Z</time><name>PT812</name></trkpt>
<trkpt lat="54.623262" lon="-3.110769"><ele>312</ele><time>2020-08-14T10:35:10Z</time><name>PT813</name></trkpt>
<trkpt lat="54.623256" lon="-3.110695"><ele>313</ele><time>2020-08-14T10:35:14Z</time><name>PT814</name></trkpt>
<trkpt lat="54.623251" lon="-3.110651"><ele>313</ele><time>2020-08-14T10:35:17Z</time><name>PT815</name></trkpt>
<trkpt lat="54.623249" lon="-3.110602"><ele>314</ele><time>2020-08-14T10:35:20Z</time><name>PT816</name></trkpt>
<trkpt lat="54.623245" lon="-3.110554"><ele>314</ele><time>2020-08-14T10:35:23Z</time><name>PT817</name></trkpt>
<trkpt lat="54.623240" lon="-3.110495"><ele>315</ele><time>2020-08-14T10:35:28Z</time><name>PT818</name></trkpt>
<trkpt lat="54.623237" lon="-3.110442"><ele>315</ele><time>2020-08-14T10:35:31Z</time><name>PT819</name></trkpt>
<trkpt lat="54.623232" lon="-3.110370"><ele>315</ele><time>2020-08-14T10:35:34Z</time><name>PT820</name></trkpt>
<trkpt lat="54.623225" lon="-3.110310"><ele>316</ele><time>2020-08-14T10:35:37Z</time><name>PT821</name></trkpt>
<trkpt lat="54.623214" lon="-3.110237"><ele>317</ele><time>2020-08-14T10:35:41Z</time><name>PT822</name></trkpt>
<trkpt lat="54.623205" lon="-3.110183"><ele>317</ele><time>2020-08-14T10:35:44Z</time><name>PT823</name></trkpt>
<trkpt lat="54.623192" lon="-3.110118"><ele>318</ele><time>2020-08-14T10:35:48Z</time><name>PT824</name></trkpt>
<trkpt lat="54.623181" lon="-3.110043"><ele>319</ele><time>2020-08-14T10:35:52Z</time><name>PT825</name></trkpt>
<trkpt lat="54.623159" lon="-3.109968"><ele>319</ele><time>2020-08-14T10:35:56Z</time><name>PT826</name></trkpt>
<trkpt lat="54.623139" lon="-3.109899"><ele>320</ele><time>2020-08-14T10:36:00Z</time><name>PT827</name></trkpt>
<trkpt lat="54.623132" lon="-3.109842"><ele>320</ele><time>2020-08-14T10:36:04Z</time><name>PT828</name></trkpt>
<trkpt lat="54.623127" lon="-3.109805"><ele>320</ele><time>2020-08-14T10:36:07Z</time><name>PT829</name></trkpt>
<trkpt lat="54.623116" lon="-3.109733"><ele>320</ele><time>2020-08-14T10:36:10Z</time><name>PT830</name></trkpt>
<trkpt lat="54.623109" lon="-3.109663"><ele>320</ele><time>2020-08-14T10:36:13Z</time><name>PT831</name></trkpt>
<trkpt lat="54.623097" lon="-3.109613"><ele>321</ele><time>2020-08-14T10:36:16Z</time><name>PT832</name></trkpt>
<trkpt lat="54.623090" lon="-3.109568"><ele>320</ele><time>2020-08-14T10:36:19Z</time><name>PT833</name></trkpt>
<trkpt lat="54.623058" lon="-3.109503"><ele>321</ele><time>2020-08-14T10:36:23Z</time><name>PT834</name></trkpt>
<trkpt lat="54.623020" lon="-3.109447"><ele>322</ele><time>2020-08-14T10:36:28Z</time><name>PT835</name></trkpt>
<trkpt lat="54.622992" lon="-3.109389"><ele>322</ele><time>2020-08-14T10:36:31Z</time><name>PT836</name></trkpt>
<trkpt lat="54.622963" lon="-3.109328"><ele>324</ele><time>2020-08-14T10:36:34Z</time><name>PT837</name></trkpt>
<trkpt lat="54.622939" lon="-3.109264"><ele>324</ele><time>2020-08-14T10:36:38Z</time><name>PT838</name></trkpt>
<trkpt lat="54.622924" lon="-3.109197"><ele>325</ele><time>2020-08-14T10:36:41Z</time><name>PT839</name></trkpt>
<trkpt lat="54.622906" lon="-3.109132"><ele>325</ele><time>2020-08-14T10:36:46Z</time><name>PT840</name></trkpt>
<trkpt lat="54.622884" lon="-3.109086"><ele>326</ele><time>2020-08-14T10:36:49Z</time><name>PT841</name></trkpt>
<trkpt lat="54.622860" lon="-3.109030"><ele>327</ele><time>2020-08-14T10:36:52Z</time><name>PT842</name></trkpt>
<trkpt lat="54.622830" lon="-3.108975"><ele>328</ele><time>2020-08-14T10:36:56Z</time><name>PT843</name></trkpt>
<trkpt lat="54.622813" lon="-3.108932"><ele>329</ele><time>2020-08-14T10:36:59Z</time><name>PT844</name></trkpt>
<trkpt lat="54.622795" lon="-3.108869"><ele>329</ele><time>2020-08-14T10:37:03Z</time><name>PT845</name></trkpt>
<trkpt lat="54.622769" lon="-3.108811"><ele>330</ele><time>2020-08-14T10:37:08Z</time><name>PT846</name></trkpt>
<trkpt lat="54.622749" lon="-3.108750"><ele>330</ele><time>2020-08-14T10:37:11Z</time><name>PT847</name></trkpt>
<trkpt lat="54.622726" lon="-3.108680"><ele>331</ele><time>2020-08-14T10:37:15Z</time><name>PT848</name></trkpt>
<trkpt lat="54.622711" lon="-3.108638"><ele>331</ele><time>2020-08-14T10:37:19Z</time><name>PT849</name></trkpt>
<trkpt lat="54.622697" lon="-3.108588"><ele>331</ele><time>2020-08-14T10:37:22Z</time><name>PT850</name></trkpt>
<trkpt lat="54.622679" lon="-3.108513"><ele>331</ele><time>2020-08-14T10:37:25Z</time><name>PT851</name></trkpt>
<trkpt lat="54.622659" lon="-3.108465"><ele>331</ele><time>2020-08-14T10:37:28Z</time><name>PT852</name></trkpt>
<trkpt lat="54.622641" lon="-3.108395"><ele>334</ele><time>2020-08-14T10:37:31Z</time><name>PT853</name></trkpt>
<trkpt lat="54.622634" lon="-3.108348"><ele>333</ele><time>2020-08-14T10:37:34Z</time><name>PT854</name></trkpt>
<trkpt lat="54.622624" lon="-3.108268"><ele>333</ele><time>2020-08-14T10:37:38Z</time><name>PT855</name></trkpt>
<trkpt lat="54.622617" lon="-3.108193"><ele>334</ele><time>2020-08-14T10:37:43Z</time><name>PT856</name></trkpt>
<trkpt lat="54.622608" lon="-3.108106"><ele>334</ele><time>2020-08-14T10:37:46Z</time><name>PT857</name></trkpt>
<trkpt lat="54.622599" lon="-3.108043"><ele>335</ele><time>2020-08-14T10:37:49Z</time><name>PT858</name></trkpt>
<trkpt lat="54.622592" lon="-3.107964"><ele>335</ele><time>2020-08-14T10:37:53Z</time><name>PT859</name></trkpt>
<trkpt lat="54.622581" lon="-3.107883"><ele>335</ele><time>2020-08-14T10:37:58Z</time><name>PT860</name></trkpt>
<trkpt lat="54.622578" lon="-3.107807"><ele>335</ele><time>2020-08-14T10:38:01Z</time><name>PT861</name></trkpt>
<trkpt lat="54.622569" lon="-3.107735"><ele>335</ele><time>2020-08-14T10:38:05Z</time><name>PT862</name></trkpt>
<trkpt lat="54.622561" lon="-3.107658"><ele>335</ele><time>2020-08-14T10:38:08Z</time><name>PT863</name></trkpt>
<trkpt lat="54.622556" lon="-3.107590"><ele>335</ele><time>2020-08-14T10:38:11Z</time><name>PT864</name></trkpt>
<trkpt lat="54.622556" lon="-3.107524"><ele>336</ele><time>2020-08-14T10:38:14Z</time><name>PT865</name></trkpt>
<trkpt lat="54.622548" lon="-3.107455"><ele>335</ele><time>2020-08-14T10:38:19Z</time><name>PT866</name></trkpt>
<trkpt lat="54.622550" lon="-3.107393"><ele>336</ele><time>2020-08-14T10:38:22Z</time><name>PT867</name></trkpt>
<trkpt lat="54.622551" lon="-3.107333"><ele>336</ele><time>2020-08-14T10:38:25Z</time><name>PT868</name></trkpt>
<trkpt lat="54.622554" lon="-3.107253"><ele>336</ele><time>2020-08-14T10:38:28Z</time><name>PT869</name></trkpt>
<trkpt lat="54.622564" lon="-3.107171"><ele>336</ele><time>2020-08-14T10:38:32Z</time><name>PT870</name></trkpt>
<trkpt lat="54.622566" lon="-3.107121"><ele>336</ele><time>2020-08-14T10:38:35Z</time><name>PT871</name></trkpt>
<trkpt lat="54.622571" lon="-3.107057"><ele>336</ele><time>2020-08-14T10:38:38Z</time><name>PT872</name></trkpt>
<trkpt lat="54.622574" lon="-3.107005"><ele>336</ele><time>2020-08-14T10:38:41Z</time><name>PT873</name></trkpt>
<trkpt lat="54.622578" lon="-3.106922"><ele>336</ele><time>2020-08-14T10:38:46Z</time><name>PT874</name></trkpt>
<trkpt lat="54.622578" lon="-3.106861"><ele>337</ele><time>2020-08-14T10:38:49Z</time><name>PT875</name></trkpt>
<trkpt lat="54.622579" lon="-3.106788"><ele>337</ele><time>2020-08-14T10:38:52Z</time><name>PT876</name></trkpt>
<trkpt lat="54.622584" lon="-3.106698"><ele>338</ele><time>2020-08-14T10:38:57Z</time><name>PT877</name></trkpt>
<trkpt lat="54.622592" lon="-3.106637"><ele>339</ele><time>2020-08-14T10:39:00Z</time><name>PT878</name></trkpt>
<trkpt lat="54.622598" lon="-3.106580"><ele>340</ele><time>2020-08-14T10:39:03Z</time><name>PT879</name></trkpt>
<trkpt lat="54.622612" lon="-3.106502"><ele>340</ele><time>2020-08-14T10:39:06Z</time><name>PT880</name></trkpt>
<trkpt lat="54.622618" lon="-3.106452"><ele>340</ele><time>2020-08-14T10:39:09Z</time><name>PT881</name></trkpt>
<trkpt lat="54.622621" lon="-3.106365"><ele>340</ele><time>2020-08-14T10:39:13Z</time><name>PT882</name></trkpt>
<trkpt lat="54.622625" lon="-3.106297"><ele>340</ele><time>2020-08-14T10:39:16Z</time><name>PT883</name></trkpt>
<trkpt lat="54.622626" lon="-3.106232"><ele>341</ele><time>2020-08-14T10:39:20Z</time><name>PT884</name></trkpt>
<trkpt lat="54.622629" lon="-3.106172"><ele>341</ele><time>2020-08-14T10:39:23Z</time><name>PT885</name></trkpt>
<trkpt lat="54.622633" lon="-3.106102"><ele>341</ele><time>2020-08-14T10:39:26Z</time><name>PT886</name></trkpt>
<trkpt lat="54.622637" lon="-3.106032"><ele>341</ele><time>2020-08-14T10:39:29Z</time><name>PT887</name></trkpt>
<trkpt lat="54.622638" lon="-3.105954"><ele>341</ele><time>2020-08-14T10:39:33Z</time><name>PT888</name></trkpt>
<trkpt lat="54.622645" lon="-3.105877"><ele>341</ele><time>2020-08-14T10:39:38Z</time><name>PT889</name></trkpt>
<trkpt lat="54.622648" lon="-3.105806"><ele>341</ele><time>2020-08-14T10:39:41Z</time><name>PT890</name></trkpt>
<trkpt lat="54.622653" lon="-3.105736"><ele>341</ele><time>2020-08-14T10:39:44Z</time><name>PT891</name></trkpt>
<trkpt lat="54.622664" lon="-3.105652"><ele>342</ele><time>2020-08-14T10:39:48Z</time><name>PT892</name></trkpt>
<trkpt lat="54.622666" lon="-3.105588"><ele>343</ele><time>2020-08-14T10:39:51Z</time><name>PT893</name></trkpt>
<trkpt lat="54.622669" lon="-3.105532"><ele>343</ele><time>2020-08-14T10:39:54Z</time><name>PT894</name></trkpt>
<trkpt lat="54.622688" lon="-3.105435"><ele>343</ele><time>2020-08-14T10:39:59Z</time><name>PT895</name></trkpt>
<trkpt lat="54.622697" lon="-3.105368"><ele>344</ele><time>2020-08-14T10:40:02Z</time><name>PT896</name></trkpt>
<trkpt lat="54.622709" lon="-3.105295"><ele>343</ele><time>2020-08-14T10:40:06Z</time><name>PT897</name></trkpt>
<trkpt lat="54.622722" lon="-3.105212"><ele>344</ele><time>2020-08-14T10:40:11Z</time><name>PT898</name></trkpt>
<trkpt lat="54.622726" lon="-3.105170"><ele>343</ele><time>2020-08-14T10:40:14Z</time><name>PT899</name></trkpt>
<trkpt lat="54.622741" lon="-3.105082"><ele>344</ele><time>2020-08-14T10:40:17Z</time><name>PT900</name></trkpt>
<trkpt lat="54.622747" lon="-3.104989"><ele>343</ele><time>2020-08-14T10:40:21Z</time><name>PT901</name></trkpt>
<trkpt lat="54.622759" lon="-3.104945"><ele>343</ele><time>2020-08-14T10:40:24Z</time><name>PT902</name></trkpt>
<trkpt lat="54.622770" lon="-3.104857"><ele>344</ele><time>2020-08-14T10:40:29Z</time><name>PT903</name></trkpt>
<trkpt lat="54.622773" lon="-3.104802"><ele>344</ele><time>2020-08-14T10:40:32Z</time><name>PT904</name></trkpt>
<trkpt lat="54.622786" lon="-3.104715"><ele>344</ele><time>2020-08-14T10:40:35Z</time><name>PT905</name></trkpt>
<trkpt lat="54.622789" lon="-3.104620"><ele>345</ele><time>2020-08-14T10:40:39Z</time><name>PT906</name></trkpt>
<trkpt lat="54.622798" lon="-3.104554"><ele>344</ele><time>2020-08-14T10:40:44Z</time><name>PT907</name></trkpt>
<trkpt lat="54.622808" lon="-3.104457"><ele>345</ele><time>2020-08-14T10:40:47Z</time><name>PT908</name></trkpt>
<trkpt lat="54.622809" lon="-3.104399"><ele>346</ele><time>2020-08-14T10:40:50Z</time><name>PT909</name></trkpt>
<trkpt lat="54.622810" lon="-3.104315"><ele>346</ele><time>2020-08-14T10:40:54Z</time><name>PT910</name></trkpt>
<trkpt lat="54.622808" lon="-3.104227"><ele>347</ele><time>2020-08-14T10:40:59Z</time><name>PT911</name></trkpt>
<trkpt lat="54.622810" lon="-3.104183"><ele>347</ele><time>2020-08-14T10:41:02Z</time><name>PT912</name></trkpt>
<trkpt lat="54.622816" lon="-3.104123"><ele>348</ele><time>2020-08-14T10:41:05Z</time><name>PT913</name></trkpt>
<trkpt lat="54.622817" lon="-3.104056"><ele>348</ele><time>2020-08-14T10:41:08Z</time><name>PT914</name></trkpt>
<trkpt lat="54.622818" lon="-3.103988"><ele>348</ele><time>2020-08-14T10:41:12Z</time><name>PT915</name></trkpt>
<trkpt lat="54.622822" lon="-3.103922"><ele>349</ele><time>2020-08-14T10:41:15Z</time><name>PT916</name></trkpt>
<trkpt lat="54.622822" lon="-3.103870"><ele>348</ele><time>2020-08-14T10:41:18Z</time><name>PT917</name></trkpt>
<trkpt lat="54.622824" lon="-3.103800"><ele>349</ele><time>2020-08-14T10:41:21Z</time><name>PT918</name></trkpt>
<trkpt lat="54.622819" lon="-3.103714"><ele>349</ele><time>2020-08-14T10:41:26Z</time><name>PT919</name></trkpt>
<trkpt lat="54.622820" lon="-3.103637"><ele>350</ele><time>2020-08-14T10:41:29Z</time><name>PT920</name></trkpt>
<trkpt lat="54.622816" lon="-3.103561"><ele>349</ele><time>2020-08-14T10:41:32Z</time><name>PT921</name></trkpt>
<trkpt lat="54.622809" lon="-3.103463"><ele>350</ele><time>2020-08-14T10:41:36Z</time><name>PT922</name></trkpt>
<trkpt lat="54.622812" lon="-3.103374"><ele>350</ele><time>2020-08-14T10:41:41Z</time><name>PT923</name></trkpt>
<trkpt lat="54.622812" lon="-3.103318"><ele>350</ele><time>2020-08-14T10:41:44Z</time><name>PT924</name></trkpt>
<trkpt lat="54.622812" lon="-3.103240"><ele>350</ele><time>2020-08-14T10:41:47Z</time><name>PT925</name></trkpt>
<trkpt lat="54.622815" lon="-3.103158"><ele>350</ele><time>2020-08-14T10:41:50Z</time><name>PT926</name></trkpt>
<trkpt lat="54.622821" lon="-3.103082"><ele>351</ele><time>2020-08-14T10:41:53Z</time><name>PT927</name></trkpt>
<trkpt lat="54.622822" lon="-3.103010"><ele>351</ele><time>2020-08-14T10:41:57Z</time><name>PT928</name></trkpt>
<trkpt lat="54.622827" lon="-3.102935"><ele>351</ele><time>2020-08-14T10:42:00Z</time><name>PT929</name></trkpt>
<trkpt lat="54.622828" lon="-3.102879"><ele>351</ele><time>2020-08-14T10:42:03Z</time><name>PT930</name></trkpt>
<trkpt lat="54.622826" lon="-3.102808"><ele>352</ele><time>2020-08-14T10:42:06Z</time><name>PT931</name></trkpt>
<trkpt lat="54.622826" lon="-3.102755"><ele>351</ele><time>2020-08-14T10:42:09Z</time><name>PT932</name></trkpt>
<trkpt lat="54.622831" lon="-3.102687"><ele>352</ele><time>2020-08-14T10:42:12Z</time><name>PT933</name></trkpt>
<trkpt lat="54.622834" lon="-3.102638"><ele>352</ele><time>2020-08-14T10:42:16Z</time><name>PT934</name></trkpt>
<trkpt lat="54.622838" lon="-3.102576"><ele>353</ele><time>2020-08-14T10:42:19Z</time><name>PT935</name></trkpt>
<trkpt lat="54.622843" lon="-3.102519"><ele>353</ele><time>2020-08-14T10:42:22Z</time><name>PT936</name></trkpt>
<trkpt lat="54.622854" lon="-3.102455"><ele>354</ele><time>2020-08-14T10:42:25Z</time><name>PT937</name></trkpt>
<trkpt lat="54.622859" lon="-3.102377"><ele>354</ele><time>2020-08-14T10:42:28Z</time><name>PT938</name></trkpt>
<trkpt lat="54.622871" lon="-3.102309"><ele>354</ele><time>2020-08-14T10:42:32Z</time><name>PT939</name></trkpt>
<trkpt lat="54.622883" lon="-3.102228"><ele>355</ele><time>2020-08-14T10:42:37Z</time><name>PT940</name></trkpt>
<trkpt lat="54.622891" lon="-3.102163"><ele>355</ele><time>2020-08-14T10:42:40Z</time><name>PT941</name></trkpt>
<trkpt lat="54.622903" lon="-3.102074"><ele>356</ele><time>2020-08-14T10:42:43Z</time><name>PT942</name></trkpt>
<trkpt lat="54.622913" lon="-3.101981"><ele>357</ele><time>2020-08-14T10:42:47Z</time><name>PT943</name></trkpt>
<trkpt lat="54.622923" lon="-3.101919"><ele>357</ele><time>2020-08-14T10:42:50Z</time><name>PT944</name></trkpt>
<trkpt lat="54.622938" lon="-3.101839"><ele>358</ele><time>2020-08-14T10:42:55Z</time><name>PT945</name></trkpt>
<trkpt lat="54.622953" lon="-3.101770"><ele>358</ele><time>2020-08-14T10:42:58Z</time><name>PT946</name></trkpt>
<trkpt lat="54.622970" lon="-3.101694"><ele>358</ele><time>2020-08-14T10:43:01Z</time><name>PT947</name></trkpt>
<trkpt lat="54.622982" lon="-3.101634"><ele>359</ele><time>2020-08-14T10:43:04Z</time><name>PT948</name></trkpt>
<trkpt lat="54.622999" lon="-3.101562"><ele>358</ele><time>2020-08-14T10:43:09Z</time><name>PT949</name></trkpt>
<trkpt lat="54.623027" lon="-3.101453"><ele>359</ele><time>2020-08-14T10:43:12Z</time><name>PT950</name></trkpt>
<trkpt lat="54.623029" lon="-3.101424"><ele>359</ele><time>2020-08-14T10:43:13Z</time><name>PT951</name></trkpt>
<trkpt lat="54.623032" lon="-3.101405"><ele>359</ele><time>2020-08-14T10:43:15Z</time><name>PT952</name></trkpt>
<trkpt lat="54.623035" lon="-3.101383"><ele>359</ele><time>2020-08-14T10:43:15Z</time><name>PT953</name></trkpt>
<trkpt lat="54.623038" lon="-3.101362"><ele>359</ele><time>2020-08-14T10:43:16Z</time><name>PT954</name></trkpt>
<trkpt lat="54.623043" lon="-3.101344"><ele>359</ele><time>2020-08-14T10:43:18Z</time><name>PT955</name></trkpt>
<trkpt lat="54.623044" lon="-3.101323"><ele>359</ele><time>2020-08-14T10:43:18Z</time><name>PT956</name></trkpt>
<trkpt lat="54.623046" lon="-3.101302"><ele>359</ele><time>2020-08-14T10:43:19Z</time><name>PT957</name></trkpt>
<trkpt lat="54.623047" lon="-3.101281"><ele>359</ele><time>2020-08-14T10:43:21Z</time><name>PT958</name></trkpt>
<trkpt lat="54.623051" lon="-3.101264"><ele>359</ele><time>2020-08-14T10:43:21Z</time><name>PT959</name></trkpt>
<trkpt lat="54.623054" lon="-3.101245"><ele>359</ele><time>2020-08-14T10:43:22Z</time><name>PT960</name></trkpt>
<trkpt lat="54.623056" lon="-3.101228"><ele>359</ele><time>2020-08-14T10:43:24Z</time><name>PT961</name></trkpt>
<trkpt lat="54.623060" lon="-3.101209"><ele>359</ele><time>2020-08-14T10:43:24Z</time><name>PT962</name></trkpt>
<trkpt lat="54.623063" lon="-3.101190"><ele>359</ele><time>2020-08-14T10:43:25Z</time><name>PT963</name></trkpt>
<trkpt lat="54.623066" lon="-3.101169"><ele>359</ele><time>2020-08-14T10:43:27Z</time><name>PT964</name></trkpt>
<trkpt lat="54.623070" lon="-3.101151"><ele>359</ele><time>2020-08-14T10:43:27Z</time><name>PT965</name></trkpt>
<trkpt lat="54.623074" lon="-3.101132"><ele>359</ele><time>2020-08-14T10:43:28Z</time><name>PT966</name></trkpt>
<trkpt lat="54.623079" lon="-3.101111"><ele>359</ele><time>2020-08-14T10:43:29Z</time><name>PT967</name></trkpt>
<trkpt lat="54.623084" lon="-3.101092"><ele>359</ele><time>2020-08-14T10:43:30Z</time><name>PT968</name></trkpt>
<trkpt lat="54.623088" lon="-3.101074"><ele>359</ele><time>2020-08-14T10:43:32Z</time><name>PT969</name></trkpt>
<trkpt lat="54.623091" lon="-3.101058"><ele>359</ele><time>2020-08-14T10:43:32Z</time><name>PT970</name></trkpt>
<trkpt lat="54.623095" lon="-3.101041"><ele>359</ele><time>2020-08-14T10:43:33Z</time><name>PT971</name></trkpt>
<trkpt lat="54.623101" lon="-3.101022"><ele>359</ele><time>2020-08-14T10:43:35Z</time><name>PT972</name></trkpt>
<trkpt lat="54.623105" lon="-3.101001"><ele>359</ele><time>2020-08-14T10:43:35Z</time><name>PT973</name></trkpt>
<trkpt lat="54.623108" lon="-3.100985"><ele>359</ele><time>2020-08-14T10:43:36Z</time><name>PT974</name></trkpt>
<trkpt lat="54.623110" lon="-3.100973"><ele>359</ele><time>2020-08-14T10:43:38Z</time><name>PT975</name></trkpt>
<trkpt lat="54.623112" lon="-3.100955"><ele>359</ele><time>2020-08-14T10:43:38Z</time><name>PT976</name></trkpt>
<trkpt lat="54.623118" lon="-3.100937"><ele>359</ele><time>2020-08-14T10:43:39Z</time><name>PT977</name></trkpt>
<trkpt lat="54.623122" lon="-3.100912"><ele>360</ele><time>2020-08-14T10:43:41Z</time><name>PT978</name></trkpt>
<trkpt lat="54.623126" lon="-3.100886"><ele>360</ele><time>2020-08-14T10:43:41Z</time><name>PT979</name></trkpt>
<trkpt lat="54.623130" lon="-3.100862"><ele>360</ele><time>2020-08-14T10:43:42Z</time><name>PT980</name></trkpt>
<trkpt lat="54.623133" lon="-3.100847"><ele>360</ele><time>2020-08-14T10:43:44Z</time><name>PT981</name></trkpt>
<trkpt lat="54.623135" lon="-3.100824"><ele>360</ele><time>2020-08-14T10:43:44Z</time><name>PT982</name></trkpt>
<trkpt lat="54.623139" lon="-3.100800"><ele>360</ele><time>2020-08-14T10:43:45Z</time><name>PT983</name></trkpt>
<trkpt lat="54.623143" lon="-3.100777"><ele>360</ele><time>2020-08-14T10:43:47Z</time><name>PT984</name></trkpt>
<trkpt lat="54.623146" lon="-3.100751"><ele>360</ele><time>2020-08-14T10:43:47Z</time><name>PT985</name></trkpt>
<trkpt lat="54.623154" lon="-3.100729"><ele>360</ele><time>2020-08-14T10:43:48Z</time><name>PT986</name></trkpt>
<trkpt lat="54.623158" lon="-3.100711"><ele>360</ele><time>2020-08-14T10:43:50Z</time><name>PT987</name></trkpt>
<trkpt lat="54.623159" lon="-3.100692"><ele>360</ele><time>2020-08-14T10:43:50Z</time><name>PT988</name></trkpt>
<trkpt lat="54.623162" lon="-3.100672"><ele>360</ele><time>2020-08-14T10:43:51Z</time><name>PT989</name></trkpt>
<trkpt lat="54.623165" lon="-3.100652"><ele>360</ele><time>2020-08-14T10:43:53Z</time><name>PT990</name></trkpt>
<trkpt lat="54.623168" lon="-3.100625"><ele>360</ele><time>2020-08-14T10:43:53Z</time><name>PT991</name></trkpt>
<trkpt lat="54.623174" lon="-3.100603"><ele>360</ele><time>2020-08-14T10:43:54Z</time><name>PT992</name></trkpt>
<trkpt lat="54.623178" lon="-3.100584"><ele>360</ele><time>2020-08-14T10:43:56Z</time><name>PT993</name></trkpt>
<trkpt lat="54.623181" lon="-3.100564"><ele>360</ele><time>2020-08-14T10:43:56Z</time><name>PT994</name></trkpt>
<trkpt lat="54.623182" lon="-3.100543"><ele>360</ele><time>2020-08-14T10:43:57Z</time><name>PT995</name></trkpt>
<trkpt lat="54.623184" lon="-3.100518"><ele>360</ele><time>2020-08-14T10:43:59Z</time><name>PT996</name></trkpt>
<trkpt lat="54.623180" lon="-3.100487"><ele>361</ele><time>2020-08-14T10:43:59Z</time><name>PT997</name></trkpt>
<trkpt lat="54.623178" lon="-3.100460"><ele>361</ele><time>2020-08-14T10:44:00Z</time><name>PT998</name></trkpt>
<trkpt lat="54.623178" lon="-3.100439"><ele>361</ele><time>2020-08-14T10:44:02Z</time><name>PT999</name></trkpt>
<trkpt lat="54.623180" lon="-3.100425"><ele>362</ele><time>2020-08-14T10:44:02Z</time><name>PT1000</name></trkpt>
<trkpt lat="54.623184" lon="-3.100405"><ele>362</ele><time>2020-08-14T10:44:03Z</time><name>PT1001</name></trkpt>
<trkpt lat="54.623188" lon="-3.100381"><ele>361</ele><time>2020-08-14T10:44:05Z</time><name>PT1002</name></trkpt>
<trkpt lat="54.623191" lon="-3.100359"><ele>361</ele><time>2020-08-14T10:44:05Z</time><name>PT1003</name></trkpt>
<trkpt lat="54.623196" lon="-3.100337"><ele>361</ele><time>2020-08-14T10:44:06Z</time><name>PT1004</name></trkpt>
<trkpt lat="54.623201" lon="-3.100317"><ele>361</ele><time>2020-08-14T10:44:08Z</time><name>PT1005</name></trkpt>
<trkpt lat="54.623203" lon="-3.100304"><ele>361</ele><time>2020-08-14T10:44:08Z</time><name>PT1006</name></trkpt>
<trkpt lat="54.623204" lon="-3.100284"><ele>361</ele><time>2020-08-14T10:44:09Z</time><name>PT1007</name></trkpt>
<trkpt lat="54.623203" lon="-3.100257"><ele>361</ele><time>2020-08-14T10:44:11Z</time><name>PT1008</name></trkpt>
<trkpt lat="54.623206" lon="-3.100236"><ele>361</ele><time>2020-08-14T10:44:11Z</time><name>PT1009</name></trkpt>
<trkpt lat="54.623208" lon="-3.100209"><ele>361</ele><time>2020-08-14T10:44:12Z</time><name>PT1010</name></trkpt>
<trkpt lat="54.623212" lon="-3.100182"><ele>361</ele><time>2020-08-14T10:44:14Z</time><name>PT1011</name></trkpt>
<trkpt lat="54.623215" lon="-3.100164"><ele>361</ele><time>2020-08-14T10:44:14Z</time><name>PT1012</name></trkpt>
<trkpt lat="54.623216" lon="-3.100146"><ele>361</ele><time>2020-08-14T10:44:15Z</time><name>PT1013</name></trkpt>
<trkpt lat="54.623214" lon="-3.100119"><ele>360</ele><time>2020-08-14T10:44:17Z</time><name>PT1014</name></trkpt>
<trkpt lat="54.623218" lon="-3.100097"><ele>361</ele><time>2020-08-14T10:44:17Z</time><name>PT1015</name></trkpt>
<trkpt lat="54.623222" lon="-3.100076"><ele>361</ele><time>2020-08-14T10:44:18Z</time><name>PT1016</name></trkpt>
<trkpt lat="54.623223" lon="-3.100050"><ele>360</ele><time>2020-08-14T10:44:19Z</time><name>PT1017</name></trkpt>
<trkpt lat="54.623229" lon="-3.100029"><ele>360</ele><time>2020-08-14T10:44:20Z</time><name>PT1018</name></trkpt>
<trkpt lat="54.623234" lon="-3.100014"><ele>360</ele><time>2020-08-14T10:44:22Z</time><name>PT1019</name></trkpt>
<trkpt lat="54.623234" lon="-3.099998"><ele>360</ele><time>2020-08-14T10:44:22Z</time><name>PT1020</name></trkpt>
<trkpt lat="54.623235" lon="-3.099979"><ele>360</ele><time>2020-08-14T10:44:23Z</time><name>PT1021</name></trkpt>
<trkpt lat="54.623238" lon="-3.099957"><ele>360</ele><time>2020-08-14T10:44:25Z</time><name>PT1022</name></trkpt>
<trkpt lat="54.623248" lon="-3.099948"><ele>360</ele><time>2020-08-14T10:44:25Z</time><name>PT1023</name></trkpt>
<trkpt lat="54.623254" lon="-3.099928"><ele>360</ele><time>2020-08-14T10:44:26Z</time><name>PT1024</name></trkpt>
<trkpt lat="54.623259" lon="-3.099904"><ele>360</ele><time>2020-08-14T10:44:28Z</time><name>PT1025</name></trkpt>
<trkpt lat="54.623262" lon="-3.099886"><ele>360</ele><time>2020-08-14T10:44:28Z</time><name>PT1026</name></trkpt>
<trkpt lat="54.623263" lon="-3.099874"><ele>360</ele><time>2020-08-14T10:44:29Z</time><name>PT1027</name></trkpt>
<trkpt lat="54.623263" lon="-3.099853"><ele>360</ele><time>2020-08-14T10:44:31Z</time><name>PT1028</name></trkpt>
<trkpt lat="54.623266" lon="-3.099828"><ele>360</ele><time>2020-08-14T10:44:31Z</time><name>PT1029</name></trkpt>
<trkpt lat="54.623267" lon="-3.099801"><ele>359</ele><time>2020-08-14T10:44:32Z</time><name>PT1030</name></trkpt>
<trkpt lat="54.623268" lon="-3.099773"><ele>360</ele><time>2020-08-14T10:44:34Z</time><name>PT1031</name></trkpt>
<trkpt lat="54.623270" lon="-3.099746"><ele>359</ele><time>2020-08-14T10:44:34Z</time><name>PT1032</name></trkpt>
<trkpt lat="54.623272" lon="-3.099727"><ele>359</ele><time>2020-08-14T10:44:35Z</time><name>PT1033</name></trkpt>
<trkpt lat="54.623275" lon="-3.099712"><ele>359</ele><time>2020-08-14T10:44:37Z</time><name>PT1034</name></trkpt>
<trkpt lat="54.623276" lon="-3.099691"><ele>359</ele><time>2020-08-14T10:44:37Z</time><name>PT1035</name></trkpt>
<trkpt lat="54.623281" lon="-3.099667"><ele>359</ele><time>2020-08-14T10:44:38Z</time><name>PT1036</name></trkpt>
<trkpt lat="54.623284" lon="-3.099641"><ele>359</ele><time>2020-08-14T10:44:40Z</time><name>PT1037</name></trkpt>
<trkpt lat="54.623287" lon="-3.099616"><ele>359</ele><time>2020-08-14T10:44:40Z</time><name>PT1038</name></trkpt>
<trkpt lat="54.623290" lon="-3.099589"><ele>359</ele><time>2020-08-14T10:44:41Z</time><name>PT1039</name></trkpt>
<trkpt lat="54.623294" lon="-3.099568"><ele>359</ele><time>2020-08-14T10:44:43Z</time><name>PT1040</name></trkpt>
<trkpt lat="54.623296" lon="-3.099552"><ele>359</ele><time>2020-08-14T10:44:43Z</time><name>PT1041</name></trkpt>
<trkpt lat="54.623297" lon="-3.099533"><ele>359</ele><time>2020-08-14T10:44:44Z</time><name>PT1042</name></trkpt>
<trkpt lat="54.623299" lon="-3.099508"><ele>359</ele><time>2020-08-14T10:44:45Z</time><name>PT1043</name></trkpt>
<trkpt lat="54.623303" lon="-3.099483"><ele>358</ele><time>2020-08-14T10:44:46Z</time><name>PT1044</name></trkpt>
<trkpt lat="54.623307" lon="-3.099456"><ele>359</ele><time>2020-08-14T10:44:48Z</time><name>PT1045</name></trkpt>
<trkpt lat="54.623313" lon="-3.099430"><ele>359</ele><time>2020-08-14T10:44:48Z</time><name>PT1046</name></trkpt>
<trkpt lat="54.623315" lon="-3.099407"><ele>359</ele><time>2020-08-14T10:44:49Z</time><name>PT1047</name></trkpt>
<trkpt lat="54.623316" lon="-3.099387"><ele>359</ele><time>2020-08-14T10:44:51Z</time><name>PT1048</name></trkpt>
<trkpt lat="54.623316" lon="-3.099368"><ele>359</ele><time>2020-08-14T10:44:51Z</time><name>PT1049</name></trkpt>
<trkpt lat="54.623320" lon="-3.099343"><ele>359</ele><time>2020-08-14T10:44:52Z</time><name>PT1050</name></trkpt>
<trkpt lat="54.623323" lon="-3.099315"><ele>359</ele><time>2020-08-14T10:44:54Z</time><name>PT1051</name></trkpt>
<trkpt lat="54.623327" lon="-3.099289"><ele>359</ele><time>2020-08-14T10:44:54Z</time><name>PT1052</name></trkpt>
<trkpt lat="54.623330" lon="-3.099266"><ele>359</ele><time>2020-08-14T10:44:55Z</time><name>PT1053</name></trkpt>
<trkpt lat="54.623335" lon="-3.099250"><ele>359</ele><time>2020-08-14T10:44:57Z</time><name>PT1054</name></trkpt>
<trkpt lat="54.623338" lon="-3.099235"><ele>359</ele><time>2020-08-14T10:44:57Z</time><name>PT1055</name></trkpt>
<trkpt lat="54.623339" lon="-3.099212"><ele>359</ele><time>2020-08-14T10:44:58Z</time><name>PT1056</name></trkpt>
<trkpt lat="54.623342" lon="-3.099191"><ele>359</ele><time>2020-08-14T10:45:00Z</time><name>PT1057</name></trkpt>
<trkpt lat="54.623345" lon="-3.099164"><ele>359</ele><time>2020-08-14T10:45:00Z</time><name>PT1058</name></trkpt>
<trkpt lat="54.623347" lon="-3.099133"><ele>359</ele><time>2020-08-14T10:45:01Z</time><name>PT1059</name></trkpt>
<trkpt lat="54.623351" lon="-3.099109"><ele>359</ele><time>2020-08-14T10:45:03Z</time><name>PT1060</name></trkpt>
<trkpt lat="54.623352" lon="-3.099090"><ele>359</ele><time>2020-08-14T10:45:03Z</time><name>PT1061</name></trkpt>
<trkpt lat="54.623352" lon="-3.099073"><ele>359</ele><time>2020-08-14T10:45:04Z</time><name>PT1062</name></trkpt>
<trkpt lat="54.623356" lon="-3.099052"><ele>359</ele><time>2020-08-14T10:45:06Z</time><name>PT1063</name></trkpt>
<trkpt lat="54.623359" lon="-3.099029"><ele>359</ele><time>2020-08-14T10:45:06Z</time><name>PT1064</name></trkpt>
<trkpt lat="54.623364" lon="-3.099005"><ele>359</ele><time>2020-08-14T10:45:07Z</time><name>PT1065</name></trkpt>
<trkpt lat="54.623367" lon="-3.098978"><ele>359</ele><time>2020-08-14T10:45:09Z</time><name>PT1066</name></trkpt>
<trkpt lat="54.623370" lon="-3.098953"><ele>359</ele><time>2020-08-14T10:45:09Z</time><name>PT1067</name></trkpt>
<trkpt lat="54.623373" lon="-3.098934"><ele>359</ele><time>2020-08-14T10:45:10Z</time><name>PT1068</name></trkpt>
<trkpt lat="54.623373" lon="-3.098920"><ele>359</ele><time>2020-08-14T10:45:12Z</time><name>PT1069</name></trkpt>
<trkpt lat="54.623374" lon="-3.098902"><ele>359</ele><time>2020-08-14T10:45:12Z</time><name>PT1070</name></trkpt>
<trkpt lat="54.623376" lon="-3.098880"><ele>359</ele><time>2020-08-14T10:45:13Z</time><name>PT1071</name></trkpt>
<trkpt lat="54.623378" lon="-3.098855"><ele>359</ele><time>2020-08-14T10:45:15Z</time><name>PT1072</name></trkpt>
<trkpt lat="54.623379" lon="-3.098827"><ele>360</ele><time>2020-08-14T10:45:15Z</time><name>PT1073</name></trkpt>
<trkpt lat="54.623383" lon="-3.098801"><ele>360</ele><time>2020-08-14T10:45:16Z</time><name>PT1074</name></trkpt>
<trkpt lat="54.623387" lon="-3.098782"><ele>360</ele><time>2020-08-14T10:45:18Z</time><name>PT1075</name></trkpt>
<trkpt lat="54.623390" lon="-3.098763"><ele>360</ele><time>2020-08-14T10:45:18Z</time><name>PT1076</name></trkpt>
<trkpt lat="54.623390" lon="-3.098742"><ele>360</ele><time>2020-08-14T10:45:19Z</time><name>PT1077</name></trkpt>
<trkpt lat="54.623393" lon="-3.098716"><ele>360</ele><time>2020-08-14T10:45:21Z</time><name>PT1078</name></trkpt>
<trkpt lat="54.623394" lon="-3.098689"><ele>360</ele><time>2020-08-14T10:45:21Z</time><name>PT1079</name></trkpt>
<trkpt lat="54.623397" lon="-3.098662"><ele>360</ele><time>2020-08-14T10:45:22Z</time><name>PT1080</name></trkpt>
<trkpt lat="54.623401" lon="-3.098638"><ele>360</ele><time>2020-08-14T10:45:24Z</time><name>PT1081</name></trkpt>
<trkpt lat="54.623404" lon="-3.098620"><ele>360</ele><time>2020-08-14T10:45:24Z</time><name>PT1082</name></trkpt>
<trkpt lat="54.623407" lon="-3.098606"><ele>360</ele><time>2020-08-14T10:45:25Z</time><name>PT1083</name></trkpt>
<trkpt lat="54.623409" lon="-3.098586"><ele>360</ele><time>2020-08-14T10:45:27Z</time><name>PT1084</name></trkpt>
<trkpt lat="54.623411" lon="-3.098565"><ele>359</ele><time>2020-08-14T10:45:27Z</time><name>PT1085</name></trkpt>
<trkpt lat="54.623413" lon="-3.098539"><ele>359</ele><time>2020-08-14T10:45:28Z</time><name>PT1086</name></trkpt>
<trkpt lat="54.623413" lon="-3.098511"><ele>360</ele><time>2020-08-14T10:45:30Z</time><name>PT1087</name></trkpt>
<trkpt lat="54.623415" lon="-3.098481"><ele>360</ele><time>2020-08-14T10:45:30Z</time><name>PT1088</name></trkpt>
<trkpt lat="54.623417" lon="-3.098460"><ele>360</ele><time>2020-08-14T10:45:31Z</time><name>PT1089</name></trkpt>
<trkpt lat="54.623417" lon="-3.098444"><ele>360</ele><time>2020-08-14T10:45:33Z</time><name>PT1090</name></trkpt>
<trkpt lat="54.623416" lon="-3.098427"><ele>360</ele><time>2020-08-14T10:45:33Z</time><name>PT1091</name></trkpt>
<trkpt lat="54.623416" lon="-3.098402"><ele>360</ele><time>2020-08-14T10:45:34Z</time><name>PT1092</name></trkpt>
<trkpt lat="54.623419" lon="-3.098376"><ele>360</ele><time>2020-08-14T10:45:35Z</time><name>PT1093</name></trkpt>
<trkpt lat="54.623425" lon="-3.098356"><ele>360</ele><time>2020-08-14T10:45:36Z</time><name>PT1094</name></trkpt>
<trkpt lat="54.623430" lon="-3.098330"><ele>360</ele><time>2020-08-14T10:45:38Z</time><name>PT1095</name></trkpt>
<trkpt lat="54.623433" lon="-3.098308"><ele>360</ele><time>2020-08-14T10:45:38Z</time><name>PT1096</name></trkpt>
<trkpt lat="54.623435" lon="-3.098291"><ele>360</ele><time>2020-08-14T10:45:39Z</time><name>PT1097</name></trkpt>
<trkpt lat="54.623437" lon="-3.098275"><ele>360</ele><time>2020-08-14T10:45:41Z</time><name>PT1098</name></trkpt>
<trkpt lat="54.623438" lon="-3.098255"><ele>360</ele><time>2020-08-14T10:45:41Z</time><name>PT1099</name></trkpt>
<trkpt lat="54.623442" lon="-3.098233"><ele>360</ele><time>2020-08-14T10:45:42Z</time><name>PT1100</name></trkpt>
<trkpt lat="54.623446" lon="-3.098206"><ele>360</ele><time>2020-08-14T10:45:44Z</time><name>PT1101</name></trkpt>
<trkpt lat="54.623447" lon="-3.098177"><ele>360</ele><time>2020-08-14T10:45:44Z</time><name>PT1102</name></trkpt>
<trkpt lat="54.623450" lon="-3.098152"><ele>361</ele><time>2020-08-14T10:45:45Z</time><name>PT1103</name></trkpt>
<trkpt lat="54.623452" lon="-3.098136"><ele>360</ele><time>2020-08-14T10:45:47Z</time><name>PT1104</name></trkpt>
<trkpt lat="54.623452" lon="-3.098117"><ele>361</ele><time>2020-08-14T10:45:47Z</time><name>PT1105</name></trkpt>
<trkpt lat="54.623453" lon="-3.098094"><ele>361</ele><time>2020-08-14T10:45:48Z</time><name>PT1106</name></trkpt>
<trkpt lat="54.623456" lon="-3.098071"><ele>361</ele><time>2020-08-14T10:45:50Z</time><name>PT1107</name></trkpt>
<trkpt lat="54.623457" lon="-3.098042"><ele>362</ele><time>2020-08-14T10:45:50Z</time><name>PT1108</name></trkpt>
<trkpt lat="54.623460" lon="-3.098016"><ele>362</ele><time>2020-08-14T10:45:51Z</time><name>PT1109</name></trkpt>
<trkpt lat="54.623463" lon="-3.097991"><ele>362</ele><time>2020-08-14T10:45:53Z</time><name>PT1110</name></trkpt>
<trkpt lat="54.623467" lon="-3.097973"><ele>362</ele><time>2020-08-14T10:45:53Z</time><name>PT1111</name></trkpt>
<trkpt lat="54.623467" lon="-3.097953"><ele>362</ele><time>2020-08-14T10:45:54Z</time><name>PT1112</name></trkpt>
<trkpt lat="54.623467" lon="-3.097931"><ele>362</ele><time>2020-08-14T10:45:56Z</time><name>PT1113</name></trkpt>
<trkpt lat="54.623467" lon="-3.097902"><ele>363</ele><time>2020-08-14T10:45:56Z</time><name>PT1114</name></trkpt>
<trkpt lat="54.623470" lon="-3.097877"><ele>363</ele><time>2020-08-14T10:45:57Z</time><name>PT1115</name></trkpt>
<trkpt lat="54.623472" lon="-3.097847"><ele>363</ele><time>2020-08-14T10:45:59Z</time><name>PT1116</name></trkpt>
<trkpt lat="54.623474" lon="-3.097820"><ele>364</ele><time>2020-08-14T10:45:59Z</time><name>PT1117</name></trkpt>
<trkpt lat="54.623475" lon="-3.097798"><ele>364</ele><time>2020-08-14T10:46:00Z</time><name>PT1118</name></trkpt>
<trkpt lat="54.623476" lon="-3.097779"><ele>364</ele><time>2020-08-14T10:46:02Z</time><name>PT1119</name></trkpt>
<trkpt lat="54.623478" lon="-3.097760"><ele>364</ele><time>2020-08-14T10:46:02Z</time><name>PT1120</name></trkpt>
<trkpt lat="54.623483" lon="-3.097737"><ele>363</ele><time>2020-08-14T10:46:03Z</time><name>PT1121</name></trkpt>
<trkpt lat="54.623485" lon="-3.097712"><ele>363</ele><time>2020-08-14T10:46:05Z</time><name>PT1122</name></trkpt>
<trkpt lat="54.623488" lon="-3.097683"><ele>363</ele><time>2020-08-14T10:46:05Z</time><name>PT1123</name></trkpt>
<trkpt lat="54.623492" lon="-3.097656"><ele>364</ele><time>2020-08-14T10:46:06Z</time><name>PT1124</name></trkpt>
<trkpt lat="54.623496" lon="-3.097639"><ele>364</ele><time>2020-08-14T10:46:08Z</time><name>PT1125</name></trkpt>
<trkpt lat="54.623499" lon="-3.097622"><ele>364</ele><time>2020-08-14T10:46:08Z</time><name>PT1126</name></trkpt>
<trkpt lat="54.623506" lon="-3.097603"><ele>364</ele><time>2020-08-14T10:46:09Z</time><name>PT1127</name></trkpt>
<trkpt lat="54.623513" lon="-3.097585"><ele>364</ele><time>2020-08-14T10:46:11Z</time><name>PT1128</name></trkpt>
<trkpt lat="54.623519" lon="-3.097563"><ele>364</ele><time>2020-08-14T10:46:11Z</time><name>PT1129</name></trkpt>
<trkpt lat="54.623538" lon="-3.097497"><ele>363</ele><time>2020-08-14T10:46:15Z</time><name>PT1130</name></trkpt>
<trkpt lat="54.623550" lon="-3.097426"><ele>362</ele><time>2020-08-14T10:46:18Z</time><name>PT1131</name></trkpt>
<trkpt lat="54.623561" lon="-3.097371"><ele>363</ele><time>2020-08-14T10:46:21Z</time><name>PT1132</name></trkpt>
<trkpt lat="54.623583" lon="-3.097308"><ele>362</ele><time>2020-08-14T10:46:24Z</time><name>PT1133</name></trkpt>
<trkpt lat="54.623605" lon="-3.097232"><ele>363</ele><time>2020-08-14T10:46:29Z</time><name>PT1134</name></trkpt>
<trkpt lat="54.623620" lon="-3.097161"><ele>363</ele><time>2020-08-14T10:46:32Z</time><name>PT1135</name></trkpt>
<trkpt lat="54.623644" lon="-3.097096"><ele>362</ele><time>2020-08-14T10:46:35Z</time><name>PT1136</name></trkpt>
<trkpt lat="54.623661" lon="-3.097025"><ele>362</ele><time>2020-08-14T10:46:38Z</time><name>PT1137</name></trkpt>
<trkpt lat="54.623677" lon="-3.096949"><ele>362</ele><time>2020-08-14T10:46:42Z</time><name>PT1138</name></trkpt>
<trkpt lat="54.623691" lon="-3.096881"><ele>362</ele><time>2020-08-14T10:46:45Z</time><name>PT1139</name></trkpt>
<trkpt lat="54.623700" lon="-3.096824"><ele>363</ele><time>2020-08-14T10:46:48Z</time><name>PT1140</name></trkpt>
<trkpt lat="54.623726" lon="-3.096750"><ele>363</ele><time>2020-08-14T10:46:53Z</time><name>PT1141</name></trkpt>
<trkpt lat="54.623747" lon="-3.096699"><ele>364</ele><time>2020-08-14T10:46:56Z</time><name>PT1142</name></trkpt>
<trkpt lat="54.623765" lon="-3.096635"><ele>365</ele><time>2020-08-14T10:46:59Z</time><name>PT1143</name></trkpt>
<trkpt lat="54.623779" lon="-3.096568"><ele>366</ele><time>2020-08-14T10:47:02Z</time><name>PT1144</name></trkpt>
<trkpt lat="54.623804" lon="-3.096493"><ele>366</ele><time>2020-08-14T10:47:05Z</time><name>PT1145</name></trkpt>
<trkpt lat="54.623834" lon="-3.096406"><ele>367</ele><time>2020-08-14T10:47:10Z</time><name>PT1146</name></trkpt>
<trkpt lat="54.623858" lon="-3.096336"><ele>367</ele><time>2020-08-14T10:47:13Z</time><name>PT1147</name></trkpt>
<trkpt lat="54.623900" lon="-3.096259"><ele>368</ele><time>2020-08-14T10:47:17Z</time><name>PT1148</name></trkpt>
<trkpt lat="54.623923" lon="-3.096217"><ele>368</ele><time>2020-08-14T10:47:20Z</time><name>PT1149</name></trkpt>
<trkpt lat="54.623956" lon="-3.096153"><ele>368</ele><time>2020-08-14T10:47:25Z</time><name>PT1150</name></trkpt>
<trkpt lat="54.623985" lon="-3.096107"><ele>369</ele><time>2020-08-14T10:47:28Z</time><name>PT1151</name></trkpt>
<trkpt lat="54.624014" lon="-3.096053"><ele>369</ele><time>2020-08-14T10:47:31Z</time><name>PT1152</name></trkpt>
<trkpt lat="54.624042" lon="-3.096008"><ele>370</ele><time>2020-08-14T10:47:34Z</time><name>PT1153</name></trkpt>
<trkpt lat="54.624068" lon="-3.095974"><ele>370</ele><time>2020-08-14T10:47:38Z</time><name>PT1154</name></trkpt>
<trkpt lat="54.624113" lon="-3.095930"><ele>369</ele><time>2020-08-14T10:47:41Z</time><name>PT1155</name></trkpt>
<trkpt lat="54.624144" lon="-3.095896"><ele>370</ele><time>2020-08-14T10:47:44Z</time><name>PT1156</name></trkpt>
<trkpt lat="54.624171" lon="-3.095859"><ele>370</ele><time>2020-08-14T10:47:47Z</time><name>PT1157</name></trkpt>
<trkpt lat="54.624205" lon="-3.095822"><ele>371</ele><time>2020-08-14T10:47:51Z</time><name>PT1158</name></trkpt>
<trkpt lat="54.624239" lon="-3.095791"><ele>370</ele><time>2020-08-14T10:47:54Z</time><name>PT1159</name></trkpt>
<trkpt lat="54.624282" lon="-3.095756"><ele>371</ele><time>2020-08-14T10:47:58Z</time><name>PT1160</name></trkpt>
<trkpt lat="54.624313" lon="-3.095733"><ele>371</ele><time>2020-08-14T10:48:01Z</time><name>PT1161</name></trkpt>
<trkpt lat="54.624347" lon="-3.095698"><ele>371</ele><time>2020-08-14T10:48:04Z</time><name>PT1162</name></trkpt>
<trkpt lat="54.624383" lon="-3.095657"><ele>372</ele><time>2020-08-14T10:48:08Z</time><name>PT1163</name></trkpt>
<trkpt lat="54.624418" lon="-3.095615"><ele>372</ele><time>2020-08-14T10:48:12Z</time><name>PT1164</name></trkpt>
<trkpt lat="54.624451" lon="-3.095585"><ele>372</ele><time>2020-08-14T10:48:15Z</time><name>PT1165</name></trkpt>
<trkpt lat="54.624493" lon="-3.095560"><ele>372</ele><time>2020-08-14T10:48:20Z</time><name>PT1166</name></trkpt>
<trkpt lat="54.624529" lon="-3.095539"><ele>371</ele><time>2020-08-14T10:48:23Z</time><name>PT1167</name></trkpt>
<trkpt lat="54.624568" lon="-3.095485"><ele>372</ele><time>2020-08-14T10:48:26Z</time><name>PT1168</name></trkpt>
<trkpt lat="54.624596" lon="-3.095473"><ele>372</ele><time>2020-08-14T10:48:29Z</time><name>PT1169</name></trkpt>
<trkpt lat="54.624634" lon="-3.095443"><ele>372</ele><time>2020-08-14T10:48:32Z</time><name>PT1170</name></trkpt>
<trkpt lat="54.624662" lon="-3.095438"><ele>372</ele><time>2020-08-14T10:48:35Z</time><name>PT1171</name></trkpt>
<trkpt lat="54.624677" lon="-3.095432"><ele>372</ele><time>2020-08-14T10:48:39Z</time><name>PT1172</name></trkpt>
<trkpt lat="54.624684" lon="-3.095425"><ele>373</ele><time>2020-08-14T10:48:42Z</time><name>PT1173</name></trkpt>
<trkpt lat="54.624682" lon="-3.095426"><ele>373</ele><time>2020-08-14T10:48:45Z</time><name>PT1174</name></trkpt>
<trkpt lat="54.624711" lon="-3.095409"><ele>373</ele><time>2020-08-14T10:49:01Z</time><name>PT1175</name></trkpt>
<trkpt lat="54.624752" lon="-3.095372"><ele>374</ele><time>2020-08-14T10:49:04Z</time><name>PT1176</name></trkpt>
<trkpt lat="54.624792" lon="-3.095354"><ele>375</ele><time>2020-08-14T10:49:07Z</time><name>PT1177</name></trkpt>
<trkpt lat="54.624832" lon="-3.095330"><ele>374</ele><time>2020-08-14T10:49:12Z</time><name>PT1178</name></trkpt>
<trkpt lat="54.624883" lon="-3.095296"><ele>374</ele><time>2020-08-14T10:49:15Z</time><name>PT1179</name></trkpt>
<trkpt lat="54.624934" lon="-3.095270"><ele>374</ele><time>2020-08-14T10:49:19Z</time><name>PT1180</name></trkpt>
<trkpt lat="54.624967" lon="-3.095238"><ele>375</ele><time>2020-08-14T10:49:22Z</time><name>PT1181</name></trkpt>
<trkpt lat="54.625011" lon="-3.095205"><ele>376</ele><time>2020-08-14T10:49:25Z</time><name>PT1182</name></trkpt>
<trkpt lat="54.625053" lon="-3.095164"><ele>376</ele><time>2020-08-14T10:49:30Z</time><name>PT1183</name></trkpt>
<trkpt lat="54.625077" lon="-3.095143"><ele>376</ele><time>2020-08-14T10:49:33Z</time><name>PT1184</name></trkpt>
<trkpt lat="54.625122" lon="-3.095106"><ele>377</ele><time>2020-08-14T10:49:36Z</time><name>PT1185</name></trkpt>
<trkpt lat="54.625150" lon="-3.095088"><ele>377</ele><time>2020-08-14T10:49:39Z</time><name>PT1186</name></trkpt>
<trkpt lat="54.625189" lon="-3.095055"><ele>377</ele><time>2020-08-14T10:49:42Z</time><name>PT1187</name></trkpt>
<trkpt lat="54.625218" lon="-3.095031"><ele>378</ele><time>2020-08-14T10:49:45Z</time><name>PT1188</name></trkpt>
<trkpt lat="54.625256" lon="-3.095020"><ele>377</ele><time>2020-08-14T10:49:48Z</time><name>PT1189</name></trkpt>
<trkpt lat="54.625300" lon="-3.095001"><ele>377</ele><time>2020-08-14T10:49:51Z</time><name>PT1190</name></trkpt>
<trkpt lat="54.625335" lon="-3.094984"><ele>378</ele><time>2020-08-14T10:49:54Z</time><name>PT1191</name></trkpt>
<trkpt lat="54.625394" lon="-3.094964"><ele>379</ele><time>2020-08-14T10:49:59Z</time><name>PT1192</name></trkpt>
<trkpt lat="54.625443" lon="-3.094961"><ele>379</ele><time>2020-08-14T10:50:02Z</time><name>PT1193</name></trkpt>
<trkpt lat="54.625479" lon="-3.094955"><ele>379</ele><time>2020-08-14T10:50:05Z</time><name>PT1194</name></trkpt>
<trkpt lat="54.625533" lon="-3.094974"><ele>378</ele><time>2020-08-14T10:50:09Z</time><name>PT1195</name></trkpt>
<trkpt lat="54.625551" lon="-3.095002"><ele>377</ele><time>2020-08-14T10:50:12Z</time><name>PT1196</name></trkpt>
<trkpt lat="54.625575" lon="-3.095029"><ele>378</ele><time>2020-08-14T10:50:15Z</time><name>PT1197</name></trkpt>
<trkpt lat="54.625604" lon="-3.095025"><ele>378</ele><time>2020-08-14T10:50:19Z</time><name>PT1198</name></trkpt>
<trkpt lat="54.625639" lon="-3.094993"><ele>379</ele><time>2020-08-14T10:50:22Z</time><name>PT1199</name></trkpt>
<trkpt lat="54.625670" lon="-3.094978"><ele>380</ele><time>2020-08-14T10:50:25Z</time><name>PT1200</name></trkpt>
<trkpt lat="54.625708" lon="-3.094972"><ele>380</ele><time>2020-08-14T10:50:28Z</time><name>PT1201</name></trkpt>
<trkpt lat="54.625753" lon="-3.094955"><ele>380</ele><time>2020-08-14T10:50:31Z</time><name>PT1202</name></trkpt>
<trkpt lat="54.625802" lon="-3.094978"><ele>381</ele><time>2020-08-14T10:50:35Z</time><name>PT1203</name></trkpt>
<trkpt lat="54.625847" lon="-3.095013"><ele>381</ele><time>2020-08-14T10:50:39Z</time><name>PT1204</name></trkpt>
<trkpt lat="54.625887" lon="-3.095043"><ele>382</ele><time>2020-08-14T10:50:43Z</time><name>PT1205</name></trkpt>
<trkpt lat="54.625919" lon="-3.095083"><ele>382</ele><time>2020-08-14T10:50:47Z</time><name>PT1206</name></trkpt>
<trkpt lat="54.625929" lon="-3.095131"><ele>383</ele><time>2020-08-14T10:50:51Z</time><name>PT1207</name></trkpt>
<trkpt lat="54.625952" lon="-3.095178"><ele>381</ele><time>2020-08-14T10:50:55Z</time><name>PT1208</name></trkpt>
<trkpt lat="54.625994" lon="-3.095199"><ele>380</ele><time>2020-08-14T10:50:59Z</time><name>PT1209</name></trkpt>
<trkpt lat="54.626033" lon="-3.095213"><ele>380</ele><time>2020-08-14T10:51:03Z</time><name>PT1210</name></trkpt>
<trkpt lat="54.626094" lon="-3.095219"><ele>380</ele><time>2020-08-14T10:51:07Z</time><name>PT1211</name></trkpt>
<trkpt lat="54.626131" lon="-3.095252"><ele>380</ele><time>2020-08-14T10:51:11Z</time><name>PT1212</name></trkpt>
<trkpt lat="54.626166" lon="-3.095296"><ele>381</ele><time>2020-08-14T10:51:16Z</time><name>PT1213</name></trkpt>
<trkpt lat="54.626208" lon="-3.095329"><ele>380</ele><time>2020-08-14T10:51:19Z</time><name>PT1214</name></trkpt>
<trkpt lat="54.626251" lon="-3.095352"><ele>381</ele><time>2020-08-14T10:51:22Z</time><name>PT1215</name></trkpt>
<trkpt lat="54.626285" lon="-3.095388"><ele>380</ele><time>2020-08-14T10:51:25Z</time><name>PT1216</name></trkpt>
<trkpt lat="54.626314" lon="-3.095414"><ele>380</ele><time>2020-08-14T10:51:28Z</time><name>PT1217</name></trkpt>
<trkpt lat="54.626353" lon="-3.095465"><ele>380</ele><time>2020-08-14T10:51:32Z</time><name>PT1218</name></trkpt>
<trkpt lat="54.626376" lon="-3.095490"><ele>379</ele><time>2020-08-14T10:51:35Z</time><name>PT1219</name></trkpt>
<trkpt lat="54.626413" lon="-3.095538"><ele>380</ele><time>2020-08-14T10:51:39Z</time><name>PT1220</name></trkpt>
<trkpt lat="54.626450" lon="-3.095570"><ele>379</ele><time>2020-08-14T10:51:42Z</time><name>PT1221</name></trkpt>
<trkpt lat="54.626488" lon="-3.095597"><ele>380</ele><time>2020-08-14T10:51:46Z</time><name>PT1222</name></trkpt>
<trkpt lat="54.626532" lon="-3.095611"><ele>381</ele><time>2020-08-14T10:51:51Z</time><name>PT1223</name></trkpt>
<trkpt lat="54.626560" lon="-3.095631"><ele>382</ele><time>2020-08-14T10:51:54Z</time><name>PT1224</name></trkpt>
<trkpt lat="54.626602" lon="-3.095651"><ele>383</ele><time>2020-08-14T10:51:57Z</time><name>PT1225</name></trkpt>
<trkpt lat="54.626631" lon="-3.095676"><ele>382</ele><time>2020-08-14T10:52:01Z</time><name>PT1226</name></trkpt>
<trkpt lat="54.626667" lon="-3.095700"><ele>383</ele><time>2020-08-14T10:52:04Z</time><name>PT1227</name></trkpt>
<trkpt lat="54.626684" lon="-3.095723"><ele>382</ele><time>2020-08-14T10:52:07Z</time><name>PT1228</name></trkpt>
<trkpt lat="54.626719" lon="-3.095754"><ele>383</ele><time>2020-08-14T10:52:12Z</time><name>PT1229</name></trkpt>
<trkpt lat="54.626737" lon="-3.095786"><ele>383</ele><time>2020-08-14T10:52:15Z</time><name>PT1230</name></trkpt>
<trkpt lat="54.626764" lon="-3.095813"><ele>383</ele><time>2020-08-14T10:52:20Z</time><name>PT1231</name></trkpt>
<trkpt lat="54.626808" lon="-3.095824"><ele>385</ele><time>2020-08-14T10:52:23Z</time><name>PT1232</name></trkpt>
<trkpt lat="54.626834" lon="-3.095841"><ele>386</ele><time>2020-08-14T10:52:26Z</time><name>PT1233</name></trkpt>
<trkpt lat="54.626856" lon="-3.095883"><ele>385</ele><time>2020-08-14T10:52:30Z</time><name>PT1234</name></trkpt>
<trkpt lat="54.626885" lon="-3.095916"><ele>386</ele><time>2020-08-14T10:52:35Z</time><name>PT1235</name></trkpt>
<trkpt lat="54.626906" lon="-3.095935"><ele>386</ele><time>2020-08-14T10:52:38Z</time><name>PT1236</name></trkpt>
<trkpt lat="54.626929" lon="-3.095954"><ele>387</ele><time>2020-08-14T10:52:41Z</time><name>PT1237</name></trkpt>
<trkpt lat="54.626947" lon="-3.095979"><ele>388</ele><time>2020-08-14T10:52:44Z</time><name>PT1238</name></trkpt>
<trkpt lat="54.626980" lon="-3.096006"><ele>387</ele><time>2020-08-14T10:52:47Z</time><name>PT1239</name></trkpt>
<trkpt lat="54.627026" lon="-3.096031"><ele>387</ele><time>2020-08-14T10:52:51Z</time><name>PT1240</name></trkpt>
<trkpt lat="54.627067" lon="-3.096046"><ele>387</ele><time>2020-08-14T10:52:56Z</time><name>PT1241</name></trkpt>
<trkpt lat="54.627095" lon="-3.096060"><ele>388</ele><time>2020-08-14T10:52:59Z</time><name>PT1242</name></trkpt>
<trkpt lat="54.627157" lon="-3.096091"><ele>385</ele><time>2020-08-14T10:53:02Z</time><name>PT1243</name></trkpt>
<trkpt lat="54.627186" lon="-3.096110"><ele>385</ele><time>2020-08-14T10:53:05Z</time><name>PT1244</name></trkpt>
<trkpt lat="54.627233" lon="-3.096140"><ele>387</ele><time>2020-08-14T10:53:09Z</time><name>PT1245</name></trkpt>
<trkpt lat="54.627259" lon="-3.096157"><ele>388</ele><time>2020-08-14T10:53:12Z</time><name>PT1246</name></trkpt>
<trkpt lat="54.627299" lon="-3.096186"><ele>390</ele><time>2020-08-14T10:53:17Z</time><name>PT1247</name></trkpt>
<trkpt lat="54.627343" lon="-3.096213"><ele>389</ele><time>2020-08-14T10:53:20Z</time><name>PT1248</name></trkpt>
<trkpt lat="54.627372" lon="-3.096232"><ele>390</ele><time>2020-08-14T10:53:23Z</time><name>PT1249</name></trkpt>
<trkpt lat="54.627422" lon="-3.096225"><ele>391</ele><time>2020-08-14T10:53:27Z</time><name>PT1250</name></trkpt>
<trkpt lat="54.627456" lon="-3.096206"><ele>391</ele><time>2020-08-14T10:53:30Z</time><name>PT1251</name></trkpt>
<trkpt lat="54.627510" lon="-3.096184"><ele>391</ele><time>2020-08-14T10:53:35Z</time><name>PT1252</name></trkpt>
<trkpt lat="54.627555" lon="-3.096179"><ele>391</ele><time>2020-08-14T10:53:38Z</time><name>PT1253</name></trkpt>
<trkpt lat="54.627592" lon="-3.096199"><ele>391</ele><time>2020-08-14T10:53:41Z</time><name>PT1254</name></trkpt>
<trkpt lat="54.627630" lon="-3.096223"><ele>389</ele><time>2020-08-14T10:53:45Z</time><name>PT1255</name></trkpt>
<trkpt lat="54.627677" lon="-3.096231"><ele>390</ele><time>2020-08-14T10:53:48Z</time><name>PT1256</name></trkpt>
<trkpt lat="54.627713" lon="-3.096234"><ele>390</ele><time>2020-08-14T10:53:51Z</time><name>PT1257</name></trkpt>
<trkpt lat="54.627750" lon="-3.096244"><ele>390</ele><time>2020-08-14T10:53:54Z</time><name>PT1258</name></trkpt>
<trkpt lat="54.627771" lon="-3.096254"><ele>389</ele><time>2020-08-14T10:53:58Z</time><name>PT1259</name></trkpt>
<trkpt lat="54.627808" lon="-3.096279"><ele>389</ele><time>2020-08-14T10:54:01Z</time><name>PT1260</name></trkpt>
<trkpt lat="54.627850" lon="-3.096301"><ele>388</ele><time>2020-08-14T10:54:04Z</time><name>PT1261</name></trkpt>
<trkpt lat="54.627899" lon="-3.096305"><ele>389</ele><time>2020-08-14T10:54:07Z</time><name>PT1262</name></trkpt>
<trkpt lat="54.627948" lon="-3.096325"><ele>389</ele><time>2020-08-14T10:54:10Z</time><name>PT1263</name></trkpt>
<trkpt lat="54.627990" lon="-3.096348"><ele>389</ele><time>2020-08-14T10:54:13Z</time><name>PT1264</name></trkpt>
<trkpt lat="54.628002" lon="-3.096355"><ele>389</ele><time>2020-08-14T10:54:14Z</time><name>PT1265</name></trkpt>
<trkpt lat="54.628014" lon="-3.096361"><ele>389</ele><time>2020-08-14T10:54:15Z</time><name>PT1266</name></trkpt>
<trkpt lat="54.628025" lon="-3.096364"><ele>389</ele><time>2020-08-14T10:54:16Z</time><name>PT1267</name></trkpt>
<trkpt lat="54.628038" lon="-3.096368"><ele>389</ele><time>2020-08-14T10:54:18Z</time><name>PT1268</name></trkpt>
<trkpt lat="54.628052" lon="-3.096370"><ele>389</ele><time>2020-08-14T10:54:18Z</time><name>PT1269</name></trkpt>
<trkpt lat="54.628067" lon="-3.096373"><ele>389</ele><time>2020-08-14T10:54:19Z</time><name>PT1270</name></trkpt>
<trkpt lat="54.628080" lon="-3.096377"><ele>390</ele><time>2020-08-14T10:54:20Z</time><name>PT1271</name></trkpt>
<trkpt lat="54.628093" lon="-3.096382"><ele>389</ele><time>2020-08-14T10:54:21Z</time><name>PT1272</name></trkpt>
<trkpt lat="54.628104" lon="-3.096388"><ele>389</ele><time>2020-08-14T10:54:23Z</time><name>PT1273</name></trkpt>
<trkpt lat="54.628115" lon="-3.096392"><ele>389</ele><time>2020-08-14T10:54:23Z</time><name>PT1274</name></trkpt>
<trkpt lat="54.628127" lon="-3.096394"><ele>389</ele><time>2020-08-14T10:54:24Z</time><name>PT1275</name></trkpt>
<trkpt lat="54.628137" lon="-3.096396"><ele>389</ele><time>2020-08-14T10:54:26Z</time><name>PT1276</name></trkpt>
<trkpt lat="54.628154" lon="-3.096400"><ele>390</ele><time>2020-08-14T10:54:26Z</time><name>PT1277</name></trkpt>
<trkpt lat="54.628171" lon="-3.096409"><ele>390</ele><time>2020-08-14T10:54:27Z</time><name>PT1278</name></trkpt>
<trkpt lat="54.628186" lon="-3.096414"><ele>390</ele><time>2020-08-14T10:54:29Z</time><name>PT1279</name></trkpt>
<trkpt lat="54.628201" lon="-3.096417"><ele>390</ele><time>2020-08-14T10:54:29Z</time><name>PT1280</name></trkpt>
<trkpt lat="54.628211" lon="-3.096422"><ele>390</ele><time>2020-08-14T10:54:30Z</time><name>PT1281</name></trkpt>
<trkpt lat="54.628224" lon="-3.096422"><ele>391</ele><time>2020-08-14T10:54:32Z</time><name>PT1282</name></trkpt>
<trkpt lat="54.628239" lon="-3.096428"><ele>391</ele><time>2020-08-14T10:54:32Z</time><name>PT1283</name></trkpt>
<trkpt lat="54.628254" lon="-3.096435"><ele>391</ele><time>2020-08-14T10:54:33Z</time><name>PT1284</name></trkpt>
<trkpt lat="54.628271" lon="-3.096437"><ele>392</ele><time>2020-08-14T10:54:35Z</time><name>PT1285</name></trkpt>
<trkpt lat="54.628287" lon="-3.096446"><ele>391</ele><time>2020-08-14T10:54:35Z</time><name>PT1286</name></trkpt>
<trkpt lat="54.628298" lon="-3.096450"><ele>391</ele><time>2020-08-14T10:54:36Z</time><name>PT1287</name></trkpt>
<trkpt lat="54.628305" lon="-3.096450"><ele>393</ele><time>2020-08-14T10:54:38Z</time><name>PT1288</name></trkpt>
<trkpt lat="54.628316" lon="-3.096451"><ele>392</ele><time>2020-08-14T10:54:38Z</time><name>PT1289</name></trkpt>
<trkpt lat="54.628327" lon="-3.096452"><ele>393</ele><time>2020-08-14T10:54:39Z</time><name>PT1290</name></trkpt>
<trkpt lat="54.628342" lon="-3.096456"><ele>393</ele><time>2020-08-14T10:54:41Z</time><name>PT1291</name></trkpt>
<trkpt lat="54.628355" lon="-3.096461"><ele>394</ele><time>2020-08-14T10:54:41Z</time><name>PT1292</name></trkpt>
<trkpt lat="54.628372" lon="-3.096467"><ele>394</ele><time>2020-08-14T10:54:43Z</time><name>PT1293</name></trkpt>
<trkpt lat="54.628380" lon="-3.096473"><ele>394</ele><time>2020-08-14T10:54:44Z</time><name>PT1294</name></trkpt>
<trkpt lat="54.628389" lon="-3.096477"><ele>394</ele><time>2020-08-14T10:54:44Z</time><name>PT1295</name></trkpt>
<trkpt lat="54.628401" lon="-3.096483"><ele>394</ele><time>2020-08-14T10:54:46Z</time><name>PT1296</name></trkpt>
<trkpt lat="54.628413" lon="-3.096491"><ele>394</ele><time>2020-08-14T10:54:46Z</time><name>PT1297</name></trkpt>
<trkpt lat="54.628429" lon="-3.096500"><ele>394</ele><time>2020-08-14T10:54:48Z</time><name>PT1298</name></trkpt>
<trkpt lat="54.628442" lon="-3.096507"><ele>394</ele><time>2020-08-14T10:54:49Z</time><name>PT1299</name></trkpt>
<trkpt lat="54.628454" lon="-3.096512"><ele>394</ele><time>2020-08-14T10:54:49Z</time><name>PT1300</name></trkpt>
<trkpt lat="54.628463" lon="-3.096515"><ele>394</ele><time>2020-08-14T10:54:51Z</time><name>PT1301</name></trkpt>
<trkpt lat="54.628476" lon="-3.096514"><ele>395</ele><time>2020-08-14T10:54:52Z</time><name>PT1302</name></trkpt>
<trkpt lat="54.628490" lon="-3.096519"><ele>395</ele><time>2020-08-14T10:54:52Z</time><name>PT1303</name></trkpt>
<trkpt lat="54.628505" lon="-3.096524"><ele>395</ele><time>2020-08-14T10:54:53Z</time><name>PT1304</name></trkpt>
<trkpt lat="54.628519" lon="-3.096532"><ele>395</ele><time>2020-08-14T10:54:55Z</time><name>PT1305</name></trkpt>
<trkpt lat="54.628537" lon="-3.096539"><ele>395</ele><time>2020-08-14T10:54:55Z</time><name>PT1306</name></trkpt>
<trkpt lat="54.628551" lon="-3.096544"><ele>396</ele><time>2020-08-14T10:54:56Z</time><name>PT1307</name></trkpt>
<trkpt lat="54.628561" lon="-3.096543"><ele>396</ele><time>2020-08-14T10:54:58Z</time><name>PT1308</name></trkpt>
<trkpt lat="54.628567" lon="-3.096544"><ele>395</ele><time>2020-08-14T10:54:58Z</time><name>PT1309</name></trkpt>
<trkpt lat="54.628579" lon="-3.096548"><ele>395</ele><time>2020-08-14T10:54:59Z</time><name>PT1310</name></trkpt>
<trkpt lat="54.628592" lon="-3.096553"><ele>395</ele><time>2020-08-14T10:55:01Z</time><name>PT1311</name></trkpt>
<trkpt lat="54.628607" lon="-3.096559"><ele>396</ele><time>2020-08-14T10:55:01Z</time><name>PT1312</name></trkpt>
<trkpt lat="54.628626" lon="-3.096561"><ele>397</ele><time>2020-08-14T10:55:03Z</time><name>PT1313</name></trkpt>
<trkpt lat="54.628641" lon="-3.096567"><ele>397</ele><time>2020-08-14T10:55:04Z</time><name>PT1314</name></trkpt>
<trkpt lat="54.628656" lon="-3.096567"><ele>398</ele><time>2020-08-14T10:55:04Z</time><name>PT1315</name></trkpt>
<trkpt lat="54.628664" lon="-3.096567"><ele>398</ele><time>2020-08-14T10:55:06Z</time><name>PT1316</name></trkpt>
<trkpt lat="54.628672" lon="-3.096565"><ele>398</ele><time>2020-08-14T10:55:07Z</time><name>PT1317</name></trkpt>
<trkpt lat="54.628686" lon="-3.096560"><ele>398</ele><time>2020-08-14T10:55:07Z</time><name>PT1318</name></trkpt>
<trkpt lat="54.628700" lon="-3.096562"><ele>399</ele><time>2020-08-14T10:55:08Z</time><name>PT1319</name></trkpt>
<trkpt lat="54.628713" lon="-3.096563"><ele>399</ele><time>2020-08-14T10:55:10Z</time><name>PT1320</name></trkpt>
<trkpt lat="54.628731" lon="-3.096567"><ele>399</ele><time>2020-08-14T10:55:10Z</time><name>PT1321</name></trkpt>
<trkpt lat="54.628750" lon="-3.096573"><ele>399</ele><time>2020-08-14T10:55:11Z</time><name>PT1322</name></trkpt>
<trkpt lat="54.628765" lon="-3.096577"><ele>398</ele><time>2020-08-14T10:55:13Z</time><name>PT1323</name></trkpt>
<trkpt lat="54.628775" lon="-3.096581"><ele>399</ele><time>2020-08-14T10:55:13Z</time><name>PT1324</name></trkpt>
<trkpt lat="54.628784" lon="-3.096585"><ele>399</ele><time>2020-08-14T10:55:14Z</time><name>PT1325</name></trkpt>
<trkpt lat="54.628797" lon="-3.096589"><ele>399</ele><time>2020-08-14T10:55:16Z</time><name>PT1326</name></trkpt>
<trkpt lat="54.628812" lon="-3.096588"><ele>398</ele><time>2020-08-14T10:55:16Z</time><name>PT1327</name></trkpt>
<trkpt lat="54.628826" lon="-3.096595"><ele>398</ele><time>2020-08-14T10:55:17Z</time><name>PT1328</name></trkpt>
<trkpt lat="54.628840" lon="-3.096608"><ele>398</ele><time>2020-08-14T10:55:19Z</time><name>PT1329</name></trkpt>
<trkpt lat="54.628851" lon="-3.096616"><ele>398</ele><time>2020-08-14T10:55:19Z</time><name>PT1330</name></trkpt>
<trkpt lat="54.628858" lon="-3.096620"><ele>398</ele><time>2020-08-14T10:55:20Z</time><name>PT1331</name></trkpt>
<trkpt lat="54.628866" lon="-3.096624"><ele>398</ele><time>2020-08-14T10:55:22Z</time><name>PT1332</name></trkpt>
<trkpt lat="54.628879" lon="-3.096630"><ele>397</ele><time>2020-08-14T10:55:22Z</time><name>PT1333</name></trkpt>
<trkpt lat="54.628893" lon="-3.096634"><ele>398</ele><time>2020-08-14T10:55:23Z</time><name>PT1334</name></trkpt>
<trkpt lat="54.628909" lon="-3.096640"><ele>399</ele><time>2020-08-14T10:55:25Z</time><name>PT1335</name></trkpt>
<trkpt lat="54.628925" lon="-3.096647"><ele>399</ele><time>2020-08-14T10:55:25Z</time><name>PT1336</name></trkpt>
<trkpt lat="54.628936" lon="-3.096651"><ele>399</ele><time>2020-08-14T10:55:26Z</time><name>PT1337</name></trkpt>
<trkpt lat="54.628944" lon="-3.096651"><ele>399</ele><time>2020-08-14T10:55:28Z</time><name>PT1338</name></trkpt>
<trkpt lat="54.628955" lon="-3.096652"><ele>399</ele><time>2020-08-14T10:55:28Z</time><name>PT1339</name></trkpt>
<trkpt lat="54.628967" lon="-3.096653"><ele>399</ele><time>2020-08-14T10:55:29Z</time><name>PT1340</name></trkpt>
<trkpt lat="54.628979" lon="-3.096658"><ele>399</ele><time>2020-08-14T10:55:31Z</time><name>PT1341</name></trkpt>
<trkpt lat="54.628996" lon="-3.096666"><ele>399</ele><time>2020-08-14T10:55:31Z</time><name>PT1342</name></trkpt>
<trkpt lat="54.629015" lon="-3.096658"><ele>400</ele><time>2020-08-14T10:55:32Z</time><name>PT1343</name></trkpt>
<trkpt lat="54.629024" lon="-3.096657"><ele>400</ele><time>2020-08-14T10:55:34Z</time><name>PT1344</name></trkpt>
<trkpt lat="54.629034" lon="-3.096658"><ele>400</ele><time>2020-08-14T10:55:34Z</time><name>PT1345</name></trkpt>
<trkpt lat="54.629049" lon="-3.096654"><ele>400</ele><time>2020-08-14T10:55:35Z</time><name>PT1346</name></trkpt>
<trkpt lat="54.629062" lon="-3.096656"><ele>400</ele><time>2020-08-14T10:55:37Z</time><name>PT1347</name></trkpt>
<trkpt lat="54.629074" lon="-3.096656"><ele>400</ele><time>2020-08-14T10:55:37Z</time><name>PT1348</name></trkpt>
<trkpt lat="54.629088" lon="-3.096658"><ele>401</ele><time>2020-08-14T10:55:38Z</time><name>PT1349</name></trkpt>
<trkpt lat="54.629102" lon="-3.096666"><ele>401</ele><time>2020-08-14T10:55:40Z</time><name>PT1350</name></trkpt>
<trkpt lat="54.629111" lon="-3.096670"><ele>401</ele><time>2020-08-14T10:55:40Z</time><name>PT1351</name></trkpt>
<trkpt lat="54.629121" lon="-3.096671"><ele>401</ele><time>2020-08-14T10:55:41Z</time><name>PT1352</name></trkpt>
<trkpt lat="54.629133" lon="-3.096669"><ele>401</ele><time>2020-08-14T10:55:43Z</time><name>PT1353</name></trkpt>
<trkpt lat="54.629148" lon="-3.096671"><ele>401</ele><time>2020-08-14T10:55:43Z</time><name>PT1354</name></trkpt>
<trkpt lat="54.629165" lon="-3.096675"><ele>402</ele><time>2020-08-14T10:55:44Z</time><name>PT1355</name></trkpt>
<trkpt lat="54.629182" lon="-3.096682"><ele>402</ele><time>2020-08-14T10:55:46Z</time><name>PT1356</name></trkpt>
<trkpt lat="54.629191" lon="-3.096688"><ele>402</ele><time>2020-08-14T10:55:46Z</time><name>PT1357</name></trkpt>
<trkpt lat="54.629201" lon="-3.096689"><ele>402</ele><time>2020-08-14T10:55:47Z</time><name>PT1358</name></trkpt>
<trkpt lat="54.629213" lon="-3.096692"><ele>402</ele><time>2020-08-14T10:55:49Z</time><name>PT1359</name></trkpt>
<trkpt lat="54.629227" lon="-3.096698"><ele>401</ele><time>2020-08-14T10:55:49Z</time><name>PT1360</name></trkpt>
<trkpt lat="54.629241" lon="-3.096707"><ele>401</ele><time>2020-08-14T10:55:50Z</time><name>PT1361</name></trkpt>
<trkpt lat="54.629256" lon="-3.096717"><ele>401</ele><time>2020-08-14T10:55:52Z</time><name>PT1362</name></trkpt>
<trkpt lat="54.629268" lon="-3.096726"><ele>401</ele><time>2020-08-14T10:55:52Z</time><name>PT1363</name></trkpt>
<trkpt lat="54.629278" lon="-3.096730"><ele>401</ele><time>2020-08-14T10:55:53Z</time><name>PT1364</name></trkpt>
<trkpt lat="54.629288" lon="-3.096732"><ele>401</ele><time>2020-08-14T10:55:55Z</time><name>PT1365</name></trkpt>
<trkpt lat="54.629300" lon="-3.096738"><ele>401</ele><time>2020-08-14T10:55:55Z</time><name>PT1366</name></trkpt>
<trkpt lat="54.629314" lon="-3.096742"><ele>402</ele><time>2020-08-14T10:55:56Z</time><name>PT1367</name></trkpt>
<trkpt lat="54.629325" lon="-3.096750"><ele>402</ele><time>2020-08-14T10:55:58Z</time><name>PT1368</name></trkpt>
<trkpt lat="54.629332" lon="-3.096761"><ele>402</ele><time>2020-08-14T10:55:58Z</time><name>PT1369</name></trkpt>
<trkpt lat="54.629340" lon="-3.096776"><ele>401</ele><time>2020-08-14T10:55:59Z</time><name>PT1370</name></trkpt>
<trkpt lat="54.629349" lon="-3.096778"><ele>401</ele><time>2020-08-14T10:56:01Z</time><name>PT1371</name></trkpt>
<trkpt lat="54.629363" lon="-3.096781"><ele>402</ele><time>2020-08-14T10:56:01Z</time><name>PT1372</name></trkpt>
<trkpt lat="54.629376" lon="-3.096787"><ele>402</ele><time>2020-08-14T10:56:02Z</time><name>PT1373</name></trkpt>
<trkpt lat="54.629391" lon="-3.096793"><ele>402</ele><time>2020-08-14T10:56:04Z</time><name>PT1374</name></trkpt>
<trkpt lat="54.629403" lon="-3.096802"><ele>402</ele><time>2020-08-14T10:56:04Z</time><name>PT1375</name></trkpt>
<trkpt lat="54.629412" lon="-3.096806"><ele>402</ele><time>2020-08-14T10:56:05Z</time><name>PT1376</name></trkpt>
<trkpt lat="54.629417" lon="-3.096808"><ele>402</ele><time>2020-08-14T10:56:07Z</time><name>PT1377</name></trkpt>
<trkpt lat="54.629428" lon="-3.096811"><ele>401</ele><time>2020-08-14T10:56:07Z</time><name>PT1378</name></trkpt>
<trkpt lat="54.629440" lon="-3.096816"><ele>401</ele><time>2020-08-14T10:56:08Z</time><name>PT1379</name></trkpt>
<trkpt lat="54.629454" lon="-3.096821"><ele>402</ele><time>2020-08-14T10:56:10Z</time><name>PT1380</name></trkpt>
<trkpt lat="54.629467" lon="-3.096827"><ele>402</ele><time>2020-08-14T10:56:10Z</time><name>PT1381</name></trkpt>
<trkpt lat="54.629476" lon="-3.096835"><ele>401</ele><time>2020-08-14T10:56:11Z</time><name>PT1382</name></trkpt>
<trkpt lat="54.629484" lon="-3.096835"><ele>401</ele><time>2020-08-14T10:56:13Z</time><name>PT1383</name></trkpt>
<trkpt lat="54.629495" lon="-3.096837"><ele>401</ele><time>2020-08-14T10:56:13Z</time><name>PT1384</name></trkpt>
<trkpt lat="54.629510" lon="-3.096844"><ele>401</ele><time>2020-08-14T10:56:14Z</time><name>PT1385</name></trkpt>
<trkpt lat="54.629526" lon="-3.096848"><ele>402</ele><time>2020-08-14T10:56:16Z</time><name>PT1386</name></trkpt>
<trkpt lat="54.629541" lon="-3.096856"><ele>402</ele><time>2020-08-14T10:56:16Z</time><name>PT1387</name></trkpt>
<trkpt lat="54.629553" lon="-3.096863"><ele>403</ele><time>2020-08-14T10:56:17Z</time><name>PT1388</name></trkpt>
<trkpt lat="54.629564" lon="-3.096866"><ele>403</ele><time>2020-08-14T10:56:19Z</time><name>PT1389</name></trkpt>
<trkpt lat="54.629576" lon="-3.096863"><ele>403</ele><time>2020-08-14T10:56:19Z</time><name>PT1390</name></trkpt>
<trkpt lat="54.629592" lon="-3.096868"><ele>403</ele><time>2020-08-14T10:56:20Z</time><name>PT1391</name></trkpt>
<trkpt lat="54.629607" lon="-3.096870"><ele>403</ele><time>2020-08-14T10:56:22Z</time><name>PT1392</name></trkpt>
<trkpt lat="54.629625" lon="-3.096878"><ele>404</ele><time>2020-08-14T10:56:22Z</time><name>PT1393</name></trkpt>
<trkpt lat="54.629642" lon="-3.096892"><ele>405</ele><time>2020-08-14T10:56:23Z</time><name>PT1394</name></trkpt>
<trkpt lat="54.629655" lon="-3.096900"><ele>405</ele><time>2020-08-14T10:56:25Z</time><name>PT1395</name></trkpt>
<trkpt lat="54.629666" lon="-3.096903"><ele>405</ele><time>2020-08-14T10:56:25Z</time><name>PT1396</name></trkpt>
<trkpt lat="54.629680" lon="-3.096901"><ele>405</ele><time>2020-08-14T10:56:26Z</time><name>PT1397</name></trkpt>
<trkpt lat="54.629693" lon="-3.096908"><ele>405</ele><time>2020-08-14T10:56:28Z</time><name>PT1398</name></trkpt>
<trkpt lat="54.629706" lon="-3.096919"><ele>405</ele><time>2020-08-14T10:56:28Z</time><name>PT1399</name></trkpt>
<trkpt lat="54.629720" lon="-3.096930"><ele>406</ele><time>2020-08-14T10:56:29Z</time><name>PT1400</name></trkpt>
<trkpt lat="54.629733" lon="-3.096940"><ele>405</ele><time>2020-08-14T10:56:31Z</time><name>PT1401</name></trkpt>
<trkpt lat="54.629745" lon="-3.096945"><ele>405</ele><time>2020-08-14T10:56:31Z</time><name>PT1402</name></trkpt>
<trkpt lat="54.629752" lon="-3.096948"><ele>405</ele><time>2020-08-14T10:56:32Z</time><name>PT1403</name></trkpt>
<trkpt lat="54.629762" lon="-3.096952"><ele>405</ele><time>2020-08-14T10:56:34Z</time><name>PT1404</name></trkpt>
<trkpt lat="54.629774" lon="-3.096956"><ele>405</ele><time>2020-08-14T10:56:34Z</time><name>PT1405</name></trkpt>
<trkpt lat="54.629786" lon="-3.096963"><ele>405</ele><time>2020-08-14T10:56:35Z</time><name>PT1406</name></trkpt>
<trkpt lat="54.629800" lon="-3.096970"><ele>406</ele><time>2020-08-14T10:56:37Z</time><name>PT1407</name></trkpt>
<trkpt lat="54.629813" lon="-3.096981"><ele>406</ele><time>2020-08-14T10:56:37Z</time><name>PT1408</name></trkpt>
<trkpt lat="54.629825" lon="-3.096989"><ele>406</ele><time>2020-08-14T10:56:38Z</time><name>PT1409</name></trkpt>
<trkpt lat="54.629832" lon="-3.096993"><ele>406</ele><time>2020-08-14T10:56:40Z</time><name>PT1410</name></trkpt>
<trkpt lat="54.629841" lon="-3.096999"><ele>406</ele><time>2020-08-14T10:56:40Z</time><name>PT1411</name></trkpt>
<trkpt lat="54.629853" lon="-3.097005"><ele>407</ele><time>2020-08-14T10:56:41Z</time><name>PT1412</name></trkpt>
<trkpt lat="54.629866" lon="-3.097012"><ele>407</ele><time>2020-08-14T10:56:43Z</time><name>PT1413</name></trkpt>
<trkpt lat="54.629879" lon="-3.097024"><ele>407</ele><time>2020-08-14T10:56:43Z</time><name>PT1414</name></trkpt>
<trkpt lat="54.629893" lon="-3.097040"><ele>408</ele><time>2020-08-14T10:56:44Z</time><name>PT1415</name></trkpt>
<trkpt lat="54.629903" lon="-3.097048"><ele>408</ele><time>2020-08-14T10:56:46Z</time><name>PT1416</name></trkpt>
<trkpt lat="54.629909" lon="-3.097050"><ele>408</ele><time>2020-08-14T10:56:46Z</time><name>PT1417</name></trkpt>
<trkpt lat="54.629916" lon="-3.097055"><ele>408</ele><time>2020-08-14T10:56:47Z</time><name>PT1418</name></trkpt>
<trkpt lat="54.629926" lon="-3.097062"><ele>408</ele><time>2020-08-14T10:56:49Z</time><name>PT1419</name></trkpt>
<trkpt lat="54.629936" lon="-3.097073"><ele>408</ele><time>2020-08-14T10:56:49Z</time><name>PT1420</name></trkpt>
<trkpt lat="54.629944" lon="-3.097090"><ele>408</ele><time>2020-08-14T10:56:50Z</time><name>PT1421</name></trkpt>
<trkpt lat="54.629952" lon="-3.097105"><ele>408</ele><time>2020-08-14T10:56:52Z</time><name>PT1422</name></trkpt>
<trkpt lat="54.629959" lon="-3.097114"><ele>409</ele><time>2020-08-14T10:56:52Z</time><name>PT1423</name></trkpt>
<trkpt lat="54.629964" lon="-3.097123"><ele>409</ele><time>2020-08-14T10:56:53Z</time><name>PT1424</name></trkpt>
<trkpt lat="54.629968" lon="-3.097141"><ele>407</ele><time>2020-08-14T10:56:55Z</time><name>PT1425</name></trkpt>
<trkpt lat="54.629974" lon="-3.097155"><ele>407</ele><time>2020-08-14T10:56:55Z</time><name>PT1426</name></trkpt>
<trkpt lat="54.629978" lon="-3.097166"><ele>407</ele><time>2020-08-14T10:56:56Z</time><name>PT1427</name></trkpt>
<trkpt lat="54.629985" lon="-3.097174"><ele>407</ele><time>2020-08-14T10:56:58Z</time><name>PT1428</name></trkpt>
<trkpt lat="54.629995" lon="-3.097180"><ele>407</ele><time>2020-08-14T10:56:58Z</time><name>PT1429</name></trkpt>
<trkpt lat="54.630010" lon="-3.097185"><ele>407</ele><time>2020-08-14T10:56:59Z</time><name>PT1430</name></trkpt>
<trkpt lat="54.630021" lon="-3.097185"><ele>408</ele><time>2020-08-14T10:57:01Z</time><name>PT1431</name></trkpt>
<trkpt lat="54.630028" lon="-3.097182"><ele>407</ele><time>2020-08-14T10:57:01Z</time><name>PT1432</name></trkpt>
<trkpt lat="54.630039" lon="-3.097177"><ele>407</ele><time>2020-08-14T10:57:02Z</time><name>PT1433</name></trkpt>
<trkpt lat="54.630050" lon="-3.097176"><ele>407</ele><time>2020-08-14T10:57:04Z</time><name>PT1434</name></trkpt>
<trkpt lat="54.630066" lon="-3.097169"><ele>407</ele><time>2020-08-14T10:57:04Z</time><name>PT1435</name></trkpt>
<trkpt lat="54.630083" lon="-3.097161"><ele>407</ele><time>2020-08-14T10:57:05Z</time><name>PT1436</name></trkpt>
<trkpt lat="54.630096" lon="-3.097156"><ele>407</ele><time>2020-08-14T10:57:07Z</time><name>PT1437</name></trkpt>
<trkpt lat="54.630104" lon="-3.097151"><ele>407</ele><time>2020-08-14T10:57:07Z</time><name>PT1438</name></trkpt>
<trkpt lat="54.630114" lon="-3.097143"><ele>407</ele><time>2020-08-14T10:57:08Z</time><name>PT1439</name></trkpt>
<trkpt lat="54.630126" lon="-3.097135"><ele>407</ele><time>2020-08-14T10:57:10Z</time><name>PT1440</name></trkpt>
<trkpt lat="54.630136" lon="-3.097126"><ele>407</ele><time>2020-08-14T10:57:10Z</time><name>PT1441</name></trkpt>
<trkpt lat="54.630152" lon="-3.097118"><ele>407</ele><time>2020-08-14T10:57:11Z</time><name>PT1442</name></trkpt>
<trkpt lat="54.630170" lon="-3.097120"><ele>407</ele><time>2020-08-14T10:57:13Z</time><name>PT1443</name></trkpt>
<trkpt lat="54.630187" lon="-3.097123"><ele>407</ele><time>2020-08-14T10:57:13Z</time><name>PT1444</name></trkpt>
<trkpt lat="54.630220" lon="-3.097111"><ele>408</ele><time>2020-08-14T10:57:16Z</time><name>PT1445</name></trkpt>
<trkpt lat="54.630276" lon="-3.097100"><ele>407</ele><time>2020-08-14T10:57:20Z</time><name>PT1446</name></trkpt>
<trkpt lat="54.630318" lon="-3.097068"><ele>406</ele><time>2020-08-14T10:57:25Z</time><name>PT1447</name></trkpt>
<trkpt lat="54.630364" lon="-3.097037"><ele>406</ele><time>2020-08-14T10:57:28Z</time><name>PT1448</name></trkpt>
<trkpt lat="54.630394" lon="-3.097016"><ele>406</ele><time>2020-08-14T10:57:31Z</time><name>PT1449</name></trkpt>
<trkpt lat="54.630445" lon="-3.096984"><ele>407</ele><time>2020-08-14T10:57:34Z</time><name>PT1450</name></trkpt>
<trkpt lat="54.630473" lon="-3.096959"><ele>406</ele><time>2020-08-14T10:57:37Z</time><name>PT1451</name></trkpt>
<trkpt lat="54.630508" lon="-3.096944"><ele>406</ele><time>2020-08-14T10:57:40Z</time><name>PT1452</name></trkpt>
<trkpt lat="54.630542" lon="-3.096938"><ele>406</ele><time>2020-08-14T10:57:43Z</time><name>PT1453</name></trkpt>
<trkpt lat="54.630587" lon="-3.096936"><ele>406</ele><time>2020-08-14T10:57:48Z</time><name>PT1454</name></trkpt>
<trkpt lat="54.630628" lon="-3.096907"><ele>407</ele><time>2020-08-14T10:57:51Z</time><name>PT1455</name></trkpt>
<trkpt lat="54.630678" lon="-3.096882"><ele>407</ele><time>2020-08-14T10:57:55Z</time><name>PT1456</name></trkpt>
<trkpt lat="54.630708" lon="-3.096853"><ele>406</ele><time>2020-08-14T10:57:58Z</time><name>PT1457</name></trkpt>
<trkpt lat="54.630749" lon="-3.096791"><ele>406</ele><time>2020-08-14T10:58:03Z</time><name>PT1458</name></trkpt>
<trkpt lat="54.630770" lon="-3.096765"><ele>406</ele><time>2020-08-14T10:58:06Z</time><name>PT1459</name></trkpt>
<trkpt lat="54.630800" lon="-3.096738"><ele>407</ele><time>2020-08-14T10:58:09Z</time><name>PT1460</name></trkpt>
<trkpt lat="54.630838" lon="-3.096700"><ele>407</ele><time>2020-08-14T10:58:14Z</time><name>PT1461</name></trkpt>
<trkpt lat="54.630873" lon="-3.096667"><ele>408</ele><time>2020-08-14T10:58:17Z</time><name>PT1462</name></trkpt>
<trkpt lat="54.630896" lon="-3.096649"><ele>408</ele><time>2020-08-14T10:58:20Z</time><name>PT1463</name></trkpt>
<trkpt lat="54.630945" lon="-3.096599"><ele>409</ele><time>2020-08-14T10:58:23Z</time><name>PT1464</name></trkpt>
<trkpt lat="54.630981" lon="-3.096563"><ele>409</ele><time>2020-08-14T10:58:27Z</time><name>PT1465</name></trkpt>
<trkpt lat="54.631024" lon="-3.096518"><ele>410</ele><time>2020-08-14T10:58:32Z</time><name>PT1466</name></trkpt>
<trkpt lat="54.631068" lon="-3.096467"><ele>410</ele><time>2020-08-14T10:58:35Z</time><name>PT1467</name></trkpt>
<trkpt lat="54.631110" lon="-3.096426"><ele>410</ele><time>2020-08-14T10:58:39Z</time><name>PT1468</name></trkpt>
<trkpt lat="54.631164" lon="-3.096385"><ele>411</ele><time>2020-08-14T10:58:44Z</time><name>PT1469</name></trkpt>
<trkpt lat="54.631206" lon="-3.096356"><ele>410</ele><time>2020-08-14T10:58:47Z</time><name>PT1470</name></trkpt>
<trkpt lat="54.631258" lon="-3.096324"><ele>411</ele><time>2020-08-14T10:58:52Z</time><name>PT1471</name></trkpt>
<trkpt lat="54.631310" lon="-3.096288"><ele>411</ele><time>2020-08-14T10:58:55Z</time><name>PT1472</name></trkpt>
<trkpt lat="54.631355" lon="-3.096270"><ele>411</ele><time>2020-08-14T10:58:59Z</time><name>PT1473</name></trkpt>
<trkpt lat="54.631399" lon="-3.096255"><ele>411</ele><time>2020-08-14T10:59:02Z</time><name>PT1474</name></trkpt>
<trkpt lat="54.631437" lon="-3.096246"><ele>411</ele><time>2020-08-14T10:59:05Z</time><name>PT1475</name></trkpt>
<trkpt lat="54.631487" lon="-3.096229"><ele>410</ele><time>2020-08-14T10:59:10Z</time><name>PT1476</name></trkpt>
<trkpt lat="54.631531" lon="-3.096220"><ele>410</ele><time>2020-08-14T10:59:13Z</time><name>PT1477</name></trkpt>
<trkpt lat="54.631564" lon="-3.096211"><ele>410</ele><time>2020-08-14T10:59:16Z</time><name>PT1478</name></trkpt>
<trkpt lat="54.631612" lon="-3.096204"><ele>411</ele><time>2020-08-14T10:59:19Z</time><name>PT1479</name></trkpt>
<trkpt lat="54.631657" lon="-3.096198"><ele>410</ele><time>2020-08-14T10:59:22Z</time><name>PT1480</name></trkpt>
<trkpt lat="54.631698" lon="-3.096196"><ele>409</ele><time>2020-08-14T10:59:25Z</time><name>PT1481</name></trkpt>
<trkpt lat="54.631744" lon="-3.096202"><ele>409</ele><time>2020-08-14T10:59:28Z</time><name>PT1482</name></trkpt>
<trkpt lat="54.631789" lon="-3.096191"><ele>408</ele><time>2020-08-14T10:59:33Z</time><name>PT1483</name></trkpt>
<trkpt lat="54.631839" lon="-3.096201"><ele>409</ele><time>2020-08-14T10:59:36Z</time><name>PT1484</name></trkpt>
<trkpt lat="54.631882" lon="-3.096197"><ele>408</ele><time>2020-08-14T10:59:39Z</time><name>PT1485</name></trkpt>
<trkpt lat="54.631948" lon="-3.096208"><ele>410</ele><time>2020-08-14T10:59:43Z</time><name>PT1486</name></trkpt>
<trkpt lat="54.631978" lon="-3.096210"><ele>409</ele><time>2020-08-14T10:59:46Z</time><name>PT1487</name></trkpt>
<trkpt lat="54.632024" lon="-3.096219"><ele>409</ele><time>2020-08-14T10:59:49Z</time><name>PT1488</name></trkpt>
<trkpt lat="54.632072" lon="-3.096230"><ele>409</ele><time>2020-08-14T10:59:54Z</time><name>PT1489</name></trkpt>
<trkpt lat="54.632129" lon="-3.096248"><ele>410</ele><time>2020-08-14T10:59:57Z</time><name>PT1490</name></trkpt>
<trkpt lat="54.632164" lon="-3.096244"><ele>408</ele><time>2020-08-14T11:00:01Z</time><name>PT1491</name></trkpt>
<trkpt lat="54.632187" lon="-3.096260"><ele>408</ele><time>2020-08-14T11:00:03Z</time><name>PT1492</name></trkpt>
<trkpt lat="54.632198" lon="-3.096267"><ele>407</ele><time>2020-08-14T11:00:05Z</time><name>PT1493</name></trkpt>
<trkpt lat="54.632207" lon="-3.096272"><ele>407</ele><time>2020-08-14T11:00:05Z</time><name>PT1494</name></trkpt>
<trkpt lat="54.632216" lon="-3.096278"><ele>406</ele><time>2020-08-14T11:00:06Z</time><name>PT1495</name></trkpt>
<trkpt lat="54.632227" lon="-3.096284"><ele>406</ele><time>2020-08-14T11:00:08Z</time><name>PT1496</name></trkpt>
<trkpt lat="54.632237" lon="-3.096288"><ele>406</ele><time>2020-08-14T11:00:08Z</time><name>PT1497</name></trkpt>
<trkpt lat="54.632242" lon="-3.096291"><ele>406</ele><time>2020-08-14T11:00:09Z</time><name>PT1498</name></trkpt>
<trkpt lat="54.632242" lon="-3.096292"><ele>406</ele><time>2020-08-14T11:00:11Z</time><name>PT1499</name></trkpt>
<trkpt lat="54.632241" lon="-3.096292"><ele>406</ele><time>2020-08-14T11:00:11Z</time><name>PT1500</name></trkpt>
<trkpt lat="54.632240" lon="-3.096292"><ele>406</ele><time>2020-08-14T11:00:12Z</time><name>PT1501</name></trkpt>
<trkpt lat="54.632241" lon="-3.096291"><ele>406</ele><time>2020-08-14T11:00:38Z</time><name>PT1502</name></trkpt>
<trkpt lat="54.632246" lon="-3.096294"><ele>406</ele><time>2020-08-14T11:00:38Z</time><name>PT1503</name></trkpt>
<trkpt lat="54.632255" lon="-3.096299"><ele>406</ele><time>2020-08-14T11:00:39Z</time><name>PT1504</name></trkpt>
<trkpt lat="54.632264" lon="-3.096303"><ele>406</ele><time>2020-08-14T11:00:40Z</time><name>PT1505</name></trkpt>
<trkpt lat="54.632274" lon="-3.096304"><ele>406</ele><time>2020-08-14T11:00:41Z</time><name>PT1506</name></trkpt>
<trkpt lat="54.632286" lon="-3.096309"><ele>406</ele><time>2020-08-14T11:00:43Z</time><name>PT1507</name></trkpt>
<trkpt lat="54.632297" lon="-3.096311"><ele>406</ele><time>2020-08-14T11:00:43Z</time><name>PT1508</name></trkpt>
<trkpt lat="54.632308" lon="-3.096315"><ele>406</ele><time>2020-08-14T11:00:44Z</time><name>PT1509</name></trkpt>
<trkpt lat="54.632319" lon="-3.096321"><ele>406</ele><time>2020-08-14T11:00:46Z</time><name>PT1510</name></trkpt>
<trkpt lat="54.632332" lon="-3.096337"><ele>405</ele><time>2020-08-14T11:00:46Z</time><name>PT1511</name></trkpt>
<trkpt lat="54.632344" lon="-3.096349"><ele>406</ele><time>2020-08-14T11:00:47Z</time><name>PT1512</name></trkpt>
<trkpt lat="54.632355" lon="-3.096360"><ele>406</ele><time>2020-08-14T11:00:48Z</time><name>PT1513</name></trkpt>
<trkpt lat="54.632359" lon="-3.096366"><ele>406</ele><time>2020-08-14T11:00:49Z</time><name>PT1514</name></trkpt>
<trkpt lat="54.632363" lon="-3.096371"><ele>406</ele><time>2020-08-14T11:00:51Z</time><name>PT1515</name></trkpt>
<trkpt lat="54.632368" lon="-3.096380"><ele>406</ele><time>2020-08-14T11:00:51Z</time><name>PT1516</name></trkpt>
<trkpt lat="54.632376" lon="-3.096384"><ele>406</ele><time>2020-08-14T11:00:52Z</time><name>PT1517</name></trkpt>
<trkpt lat="54.632390" lon="-3.096397"><ele>406</ele><time>2020-08-14T11:00:53Z</time><name>PT1518</name></trkpt>
<trkpt lat="54.632403" lon="-3.096408"><ele>405</ele><time>2020-08-14T11:00:54Z</time><name>PT1519</name></trkpt>
<trkpt lat="54.632413" lon="-3.096416"><ele>405</ele><time>2020-08-14T11:00:56Z</time><name>PT1520</name></trkpt>
<trkpt lat="54.632421" lon="-3.096412"><ele>405</ele><time>2020-08-14T11:00:56Z</time><name>PT1521</name></trkpt>
<trkpt lat="54.632435" lon="-3.096415"><ele>405</ele><time>2020-08-14T11:00:57Z</time><name>PT1522</name></trkpt>
<trkpt lat="54.632449" lon="-3.096426"><ele>404</ele><time>2020-08-14T11:00:59Z</time><name>PT1523</name></trkpt>
<trkpt lat="54.632464" lon="-3.096431"><ele>404</ele><time>2020-08-14T11:00:59Z</time><name>PT1524</name></trkpt>
<trkpt lat="54.632480" lon="-3.096445"><ele>405</ele><time>2020-08-14T11:01:00Z</time><name>PT1525</name></trkpt>
<trkpt lat="54.632494" lon="-3.096462"><ele>405</ele><time>2020-08-14T11:01:02Z</time><name>PT1526</name></trkpt>
<trkpt lat="54.632502" lon="-3.096475"><ele>405</ele><time>2020-08-14T11:01:02Z</time><name>PT1527</name></trkpt>
<trkpt lat="54.632509" lon="-3.096482"><ele>405</ele><time>2020-08-14T11:01:03Z</time><name>PT1528</name></trkpt>
<trkpt lat="54.632520" lon="-3.096493"><ele>405</ele><time>2020-08-14T11:01:05Z</time><name>PT1529</name></trkpt>
<trkpt lat="54.632535" lon="-3.096501"><ele>405</ele><time>2020-08-14T11:01:05Z</time><name>PT1530</name></trkpt>
<trkpt lat="54.632551" lon="-3.096509"><ele>405</ele><time>2020-08-14T11:01:06Z</time><name>PT1531</name></trkpt>
<trkpt lat="54.632560" lon="-3.096522"><ele>405</ele><time>2020-08-14T11:01:08Z</time><name>PT1532</name></trkpt>
<trkpt lat="54.632569" lon="-3.096527"><ele>406</ele><time>2020-08-14T11:01:08Z</time><name>PT1533</name></trkpt>
<trkpt lat="54.632576" lon="-3.096536"><ele>406</ele><time>2020-08-14T11:01:09Z</time><name>PT1534</name></trkpt>
<trkpt lat="54.632585" lon="-3.096544"><ele>406</ele><time>2020-08-14T11:01:11Z</time><name>PT1535</name></trkpt>
<trkpt lat="54.632596" lon="-3.096553"><ele>405</ele><time>2020-08-14T11:01:11Z</time><name>PT1536</name></trkpt>
<trkpt lat="54.632608" lon="-3.096566"><ele>406</ele><time>2020-08-14T11:01:12Z</time><name>PT1537</name></trkpt>
<trkpt lat="54.632619" lon="-3.096580"><ele>405</ele><time>2020-08-14T11:01:14Z</time><name>PT1538</name></trkpt>
<trkpt lat="54.632632" lon="-3.096590"><ele>406</ele><time>2020-08-14T11:01:14Z</time><name>PT1539</name></trkpt>
<trkpt lat="54.632641" lon="-3.096599"><ele>406</ele><time>2020-08-14T11:01:15Z</time><name>PT1540</name></trkpt>
<trkpt lat="54.632650" lon="-3.096604"><ele>407</ele><time>2020-08-14T11:01:17Z</time><name>PT1541</name></trkpt>
<trkpt lat="54.632659" lon="-3.096615"><ele>407</ele><time>2020-08-14T11:01:17Z</time><name>PT1542</name></trkpt>
<trkpt lat="54.632671" lon="-3.096628"><ele>406</ele><time>2020-08-14T11:01:18Z</time><name>PT1543</name></trkpt>
<trkpt lat="54.632688" lon="-3.096633"><ele>406</ele><time>2020-08-14T11:01:20Z</time><name>PT1544</name></trkpt>
<trkpt lat="54.632703" lon="-3.096633"><ele>406</ele><time>2020-08-14T11:01:20Z</time><name>PT1545</name></trkpt>
<trkpt lat="54.632715" lon="-3.096629"><ele>406</ele><time>2020-08-14T11:01:21Z</time><name>PT1546</name></trkpt>
<trkpt lat="54.632722" lon="-3.096623"><ele>406</ele><time>2020-08-14T11:01:23Z</time><name>PT1547</name></trkpt>
<trkpt lat="54.632731" lon="-3.096615"><ele>406</ele><time>2020-08-14T11:01:23Z</time><name>PT1548</name></trkpt>
<trkpt lat="54.632743" lon="-3.096607"><ele>407</ele><time>2020-08-14T11:01:24Z</time><name>PT1549</name></trkpt>
<trkpt lat="54.632755" lon="-3.096603"><ele>406</ele><time>2020-08-14T11:01:26Z</time><name>PT1550</name></trkpt>
<trkpt lat="54.632768" lon="-3.096597"><ele>406</ele><time>2020-08-14T11:01:26Z</time><name>PT1551</name></trkpt>
<trkpt lat="54.632783" lon="-3.096587"><ele>405</ele><time>2020-08-14T11:01:27Z</time><name>PT1552</name></trkpt>
<trkpt lat="54.632797" lon="-3.096583"><ele>405</ele><time>2020-08-14T11:01:29Z</time><name>PT1553</name></trkpt>
<trkpt lat="54.632805" lon="-3.096579"><ele>405</ele><time>2020-08-14T11:01:29Z</time><name>PT1554</name></trkpt>
<trkpt lat="54.632817" lon="-3.096571"><ele>405</ele><time>2020-08-14T11:01:30Z</time><name>PT1555</name></trkpt>
<trkpt lat="54.632831" lon="-3.096559"><ele>406</ele><time>2020-08-14T11:01:31Z</time><name>PT1556</name></trkpt>
<trkpt lat="54.632843" lon="-3.096550"><ele>406</ele><time>2020-08-14T11:01:32Z</time><name>PT1557</name></trkpt>
<trkpt lat="54.632862" lon="-3.096539"><ele>406</ele><time>2020-08-14T11:01:34Z</time><name>PT1558</name></trkpt>
<trkpt lat="54.632879" lon="-3.096535"><ele>407</ele><time>2020-08-14T11:01:34Z</time><name>PT1559</name></trkpt>
<trkpt lat="54.632889" lon="-3.096532"><ele>406</ele><time>2020-08-14T11:01:35Z</time><name>PT1560</name></trkpt>
<trkpt lat="54.632898" lon="-3.096526"><ele>407</ele><time>2020-08-14T11:01:37Z</time><name>PT1561</name></trkpt>
<trkpt lat="54.632910" lon="-3.096528"><ele>407</ele><time>2020-08-14T11:01:37Z</time><name>PT1562</name></trkpt>
<trkpt lat="54.632921" lon="-3.096531"><ele>406</ele><time>2020-08-14T11:01:38Z</time><name>PT1563</name></trkpt>
<trkpt lat="54.632936" lon="-3.096534"><ele>407</ele><time>2020-08-14T11:01:40Z</time><name>PT1564</name></trkpt>
<trkpt lat="54.632949" lon="-3.096538"><ele>406</ele><time>2020-08-14T11:01:40Z</time><name>PT1565</name></trkpt>
<trkpt lat="54.632965" lon="-3.096535"><ele>406</ele><time>2020-08-14T11:01:41Z</time><name>PT1566</name></trkpt>
<trkpt lat="54.632979" lon="-3.096535"><ele>406</ele><time>2020-08-14T11:01:43Z</time><name>PT1567</name></trkpt>
<trkpt lat="54.632989" lon="-3.096536"><ele>405</ele><time>2020-08-14T11:01:43Z</time><name>PT1568</name></trkpt>
<trkpt lat="54.632999" lon="-3.096530"><ele>405</ele><time>2020-08-14T11:01:44Z</time><name>PT1569</name></trkpt>
<trkpt lat="54.633013" lon="-3.096522"><ele>405</ele><time>2020-08-14T11:01:46Z</time><name>PT1570</name></trkpt>
<trkpt lat="54.633027" lon="-3.096515"><ele>406</ele><time>2020-08-14T11:01:46Z</time><name>PT1571</name></trkpt>
<trkpt lat="54.633044" lon="-3.096510"><ele>407</ele><time>2020-08-14T11:01:47Z</time><name>PT1572</name></trkpt>
<trkpt lat="54.633060" lon="-3.096507"><ele>407</ele><time>2020-08-14T11:01:49Z</time><name>PT1573</name></trkpt>
<trkpt lat="54.633070" lon="-3.096506"><ele>407</ele><time>2020-08-14T11:01:49Z</time><name>PT1574</name></trkpt>
<trkpt lat="54.633079" lon="-3.096504"><ele>407</ele><time>2020-08-14T11:01:50Z</time><name>PT1575</name></trkpt>
<trkpt lat="54.633092" lon="-3.096502"><ele>407</ele><time>2020-08-14T11:01:52Z</time><name>PT1576</name></trkpt>
<trkpt lat="54.633109" lon="-3.096501"><ele>407</ele><time>2020-08-14T11:01:52Z</time><name>PT1577</name></trkpt>
<trkpt lat="54.633125" lon="-3.096504"><ele>407</ele><time>2020-08-14T11:01:53Z</time><name>PT1578</name></trkpt>
<trkpt lat="54.633141" lon="-3.096504"><ele>408</ele><time>2020-08-14T11:01:55Z</time><name>PT1579</name></trkpt>
<trkpt lat="54.633152" lon="-3.096510"><ele>408</ele><time>2020-08-14T11:01:55Z</time><name>PT1580</name></trkpt>
<trkpt lat="54.633158" lon="-3.096509"><ele>407</ele><time>2020-08-14T11:01:56Z</time><name>PT1581</name></trkpt>
<trkpt lat="54.633169" lon="-3.096505"><ele>407</ele><time>2020-08-14T11:01:58Z</time><name>PT1582</name></trkpt>
<trkpt lat="54.633184" lon="-3.096502"><ele>408</ele><time>2020-08-14T11:01:58Z</time><name>PT1583</name></trkpt>
<trkpt lat="54.633198" lon="-3.096498"><ele>408</ele><time>2020-08-14T11:01:59Z</time><name>PT1584</name></trkpt>
<trkpt lat="54.633214" lon="-3.096494"><ele>408</ele><time>2020-08-14T11:02:01Z</time><name>PT1585</name></trkpt>
<trkpt lat="54.633229" lon="-3.096497"><ele>409</ele><time>2020-08-14T11:02:01Z</time><name>PT1586</name></trkpt>
<trkpt lat="54.633241" lon="-3.096499"><ele>408</ele><time>2020-08-14T11:02:02Z</time><name>PT1587</name></trkpt>
<trkpt lat="54.633248" lon="-3.096499"><ele>408</ele><time>2020-08-14T11:02:04Z</time><name>PT1588</name></trkpt>
<trkpt lat="54.633257" lon="-3.096501"><ele>408</ele><time>2020-08-14T11:02:04Z</time><name>PT1589</name></trkpt>
<trkpt lat="54.633269" lon="-3.096499"><ele>408</ele><time>2020-08-14T11:02:05Z</time><name>PT1590</name></trkpt>
<trkpt lat="54.633284" lon="-3.096494"><ele>408</ele><time>2020-08-14T11:02:07Z</time><name>PT1591</name></trkpt>
<trkpt lat="54.633299" lon="-3.096489"><ele>409</ele><time>2020-08-14T11:02:07Z</time><name>PT1592</name></trkpt>
<trkpt lat="54.633312" lon="-3.096485"><ele>409</ele><time>2020-08-14T11:02:08Z</time><name>PT1593</name></trkpt>
<trkpt lat="54.633322" lon="-3.096479"><ele>409</ele><time>2020-08-14T11:02:10Z</time><name>PT1594</name></trkpt>
<trkpt lat="54.633330" lon="-3.096473"><ele>409</ele><time>2020-08-14T11:02:10Z</time><name>PT1595</name></trkpt>
<trkpt lat="54.633341" lon="-3.096471"><ele>409</ele><time>2020-08-14T11:02:11Z</time><name>PT1596</name></trkpt>
<trkpt lat="54.633355" lon="-3.096464"><ele>409</ele><time>2020-08-14T11:02:13Z</time><name>PT1597</name></trkpt>
<trkpt lat="54.633370" lon="-3.096458"><ele>409</ele><time>2020-08-14T11:02:13Z</time><name>PT1598</name></trkpt>
<trkpt lat="54.633385" lon="-3.096452"><ele>409</ele><time>2020-08-14T11:02:14Z</time><name>PT1599</name></trkpt>
<trkpt lat="54.633396" lon="-3.096448"><ele>409</ele><time>2020-08-14T11:02:16Z</time><name>PT1600</name></trkpt>
<trkpt lat="54.633407" lon="-3.096442"><ele>410</ele><time>2020-08-14T11:02:16Z</time><name>PT1601</name></trkpt>
<trkpt lat="54.633420" lon="-3.096435"><ele>410</ele><time>2020-08-14T11:02:17Z</time><name>PT1602</name></trkpt>
<trkpt lat="54.633432" lon="-3.096432"><ele>409</ele><time>2020-08-14T11:02:19Z</time><name>PT1603</name></trkpt>
<trkpt lat="54.633445" lon="-3.096427"><ele>409</ele><time>2020-08-14T11:02:19Z</time><name>PT1604</name></trkpt>
<trkpt lat="54.633458" lon="-3.096414"><ele>410</ele><time>2020-08-14T11:02:20Z</time><name>PT1605</name></trkpt>
<trkpt lat="54.633466" lon="-3.096405"><ele>409</ele><time>2020-08-14T11:02:21Z</time><name>PT1606</name></trkpt>
<trkpt lat="54.633474" lon="-3.096403"><ele>409</ele><time>2020-08-14T11:02:22Z</time><name>PT1607</name></trkpt>
<trkpt lat="54.633483" lon="-3.096390"><ele>410</ele><time>2020-08-14T11:02:24Z</time><name>PT1608</name></trkpt>
<trkpt lat="54.633493" lon="-3.096376"><ele>410</ele><time>2020-08-14T11:02:24Z</time><name>PT1609</name></trkpt>
<trkpt lat="54.633502" lon="-3.096361"><ele>410</ele><time>2020-08-14T11:02:25Z</time><name>PT1610</name></trkpt>
<trkpt lat="54.633514" lon="-3.096352"><ele>410</ele><time>2020-08-14T11:02:27Z</time><name>PT1611</name></trkpt>
<trkpt lat="54.633524" lon="-3.096348"><ele>410</ele><time>2020-08-14T11:02:27Z</time><name>PT1612</name></trkpt>
<trkpt lat="54.633531" lon="-3.096344"><ele>410</ele><time>2020-08-14T11:02:28Z</time><name>PT1613</name></trkpt>
<trkpt lat="54.633539" lon="-3.096339"><ele>410</ele><time>2020-08-14T11:02:30Z</time><name>PT1614</name></trkpt>
<trkpt lat="54.633550" lon="-3.096331"><ele>411</ele><time>2020-08-14T11:02:30Z</time><name>PT1615</name></trkpt>
<trkpt lat="54.633562" lon="-3.096320"><ele>411</ele><time>2020-08-14T11:02:31Z</time><name>PT1616</name></trkpt>
<trkpt lat="54.633573" lon="-3.096309"><ele>411</ele><time>2020-08-14T11:02:33Z</time><name>PT1617</name></trkpt>
<trkpt lat="54.633581" lon="-3.096305"><ele>411</ele><time>2020-08-14T11:02:33Z</time><name>PT1618</name></trkpt>
<trkpt lat="54.633588" lon="-3.096305"><ele>410</ele><time>2020-08-14T11:02:34Z</time><name>PT1619</name></trkpt>
<trkpt lat="54.633598" lon="-3.096296"><ele>410</ele><time>2020-08-14T11:02:36Z</time><name>PT1620</name></trkpt>
<trkpt lat="54.633609" lon="-3.096288"><ele>411</ele><time>2020-08-14T11:02:36Z</time><name>PT1621</name></trkpt>
<trkpt lat="54.633621" lon="-3.096277"><ele>411</ele><time>2020-08-14T11:02:37Z</time><name>PT1622</name></trkpt>
<trkpt lat="54.633632" lon="-3.096267"><ele>411</ele><time>2020-08-14T11:02:39Z</time><name>PT1623</name></trkpt>
<trkpt lat="54.633642" lon="-3.096265"><ele>411</ele><time>2020-08-14T11:02:39Z</time><name>PT1624</name></trkpt>
<trkpt lat="54.633649" lon="-3.096257"><ele>411</ele><time>2020-08-14T11:02:40Z</time><name>PT1625</name></trkpt>
<trkpt lat="54.633657" lon="-3.096240"><ele>412</ele><time>2020-08-14T11:02:42Z</time><name>PT1626</name></trkpt>
<trkpt lat="54.633665" lon="-3.096231"><ele>412</ele><time>2020-08-14T11:02:42Z</time><name>PT1627</name></trkpt>
<trkpt lat="54.633676" lon="-3.096221"><ele>412</ele><time>2020-08-14T11:02:43Z</time><name>PT1628</name></trkpt>
<trkpt lat="54.633685" lon="-3.096207"><ele>412</ele><time>2020-08-14T11:02:45Z</time><name>PT1629</name></trkpt>
<trkpt lat="54.633690" lon="-3.096193"><ele>412</ele><time>2020-08-14T11:02:45Z</time><name>PT1630</name></trkpt>
<trkpt lat="54.633697" lon="-3.096183"><ele>412</ele><time>2020-08-14T11:02:46Z</time><name>PT1631</name></trkpt>
<trkpt lat="54.633705" lon="-3.096171"><ele>413</ele><time>2020-08-14T11:02:47Z</time><name>PT1632</name></trkpt>
<trkpt lat="54.633716" lon="-3.096165"><ele>412</ele><time>2020-08-14T11:02:48Z</time><name>PT1633</name></trkpt>
<trkpt lat="54.633728" lon="-3.096151"><ele>413</ele><time>2020-08-14T11:02:50Z</time><name>PT1634</name></trkpt>
<trkpt lat="54.633740" lon="-3.096138"><ele>413</ele><time>2020-08-14T11:02:50Z</time><name>PT1635</name></trkpt>
<trkpt lat="54.633749" lon="-3.096132"><ele>413</ele><time>2020-08-14T11:02:51Z</time><name>PT1636</name></trkpt>
<trkpt lat="54.633756" lon="-3.096127"><ele>413</ele><time>2020-08-14T11:02:53Z</time><name>PT1637</name></trkpt>
<trkpt lat="54.633764" lon="-3.096120"><ele>413</ele><time>2020-08-14T11:02:53Z</time><name>PT1638</name></trkpt>
<trkpt lat="54.633776" lon="-3.096105"><ele>414</ele><time>2020-08-14T11:02:54Z</time><name>PT1639</name></trkpt>
<trkpt lat="54.633788" lon="-3.096091"><ele>414</ele><time>2020-08-14T11:02:56Z</time><name>PT1640</name></trkpt>
<trkpt lat="54.633800" lon="-3.096082"><ele>415</ele><time>2020-08-14T11:02:56Z</time><name>PT1641</name></trkpt>
<trkpt lat="54.633807" lon="-3.096077"><ele>414</ele><time>2020-08-14T11:02:57Z</time><name>PT1642</name></trkpt>
<trkpt lat="54.633815" lon="-3.096074"><ele>414</ele><time>2020-08-14T11:02:59Z</time><name>PT1643</name></trkpt>
<trkpt lat="54.633826" lon="-3.096062"><ele>415</ele><time>2020-08-14T11:02:59Z</time><name>PT1644</name></trkpt>
<trkpt lat="54.633840" lon="-3.096053"><ele>415</ele><time>2020-08-14T11:03:00Z</time><name>PT1645</name></trkpt>
<trkpt lat="54.633858" lon="-3.096054"><ele>415</ele><time>2020-08-14T11:03:02Z</time><name>PT1646</name></trkpt>
<trkpt lat="54.633874" lon="-3.096056"><ele>415</ele><time>2020-08-14T11:03:02Z</time><name>PT1647</name></trkpt>
<trkpt lat="54.633883" lon="-3.096052"><ele>415</ele><time>2020-08-14T11:03:03Z</time><name>PT1648</name></trkpt>
<trkpt lat="54.633892" lon="-3.096048"><ele>415</ele><time>2020-08-14T11:03:05Z</time><name>PT1649</name></trkpt>
<trkpt lat="54.633903" lon="-3.096044"><ele>414</ele><time>2020-08-14T11:03:05Z</time><name>PT1650</name></trkpt>
<trkpt lat="54.633916" lon="-3.096036"><ele>415</ele><time>2020-08-14T11:03:06Z</time><name>PT1651</name></trkpt>
<trkpt lat="54.633930" lon="-3.096033"><ele>415</ele><time>2020-08-14T11:03:08Z</time><name>PT1652</name></trkpt>
<trkpt lat="54.633947" lon="-3.096027"><ele>415</ele><time>2020-08-14T11:03:08Z</time><name>PT1653</name></trkpt>
<trkpt lat="54.633965" lon="-3.096019"><ele>415</ele><time>2020-08-14T11:03:09Z</time><name>PT1654</name></trkpt>
<trkpt lat="54.633977" lon="-3.096017"><ele>415</ele><time>2020-08-14T11:03:11Z</time><name>PT1655</name></trkpt>
<trkpt lat="54.633985" lon="-3.096015"><ele>415</ele><time>2020-08-14T11:03:11Z</time><name>PT1656</name></trkpt>
<trkpt lat="54.633997" lon="-3.096010"><ele>415</ele><time>2020-08-14T11:03:12Z</time><name>PT1657</name></trkpt>
<trkpt lat="54.634010" lon="-3.096004"><ele>415</ele><time>2020-08-14T11:03:14Z</time><name>PT1658</name></trkpt>
<trkpt lat="54.634024" lon="-3.096001"><ele>416</ele><time>2020-08-14T11:03:14Z</time><name>PT1659</name></trkpt>
<trkpt lat="54.634040" lon="-3.096000"><ele>416</ele><time>2020-08-14T11:03:15Z</time><name>PT1660</name></trkpt>
<trkpt lat="54.634056" lon="-3.095999"><ele>416</ele><time>2020-08-14T11:03:17Z</time><name>PT1661</name></trkpt>
<trkpt lat="54.634068" lon="-3.095996"><ele>416</ele><time>2020-08-14T11:03:17Z</time><name>PT1662</name></trkpt>
<trkpt lat="54.634076" lon="-3.095995"><ele>415</ele><time>2020-08-14T11:03:18Z</time><name>PT1663</name></trkpt>
<trkpt lat="54.634085" lon="-3.095996"><ele>415</ele><time>2020-08-14T11:03:20Z</time><name>PT1664</name></trkpt>
<trkpt lat="54.634098" lon="-3.095996"><ele>415</ele><time>2020-08-14T11:03:20Z</time><name>PT1665</name></trkpt>
<trkpt lat="54.634112" lon="-3.096001"><ele>416</ele><time>2020-08-14T11:03:21Z</time><name>PT1666</name></trkpt>
<trkpt lat="54.634126" lon="-3.096006"><ele>416</ele><time>2020-08-14T11:03:23Z</time><name>PT1667</name></trkpt>
<trkpt lat="54.634140" lon="-3.096013"><ele>416</ele><time>2020-08-14T11:03:23Z</time><name>PT1668</name></trkpt>
<trkpt lat="54.634153" lon="-3.096019"><ele>416</ele><time>2020-08-14T11:03:24Z</time><name>PT1669</name></trkpt>
<trkpt lat="54.634161" lon="-3.096022"><ele>416</ele><time>2020-08-14T11:03:25Z</time><name>PT1670</name></trkpt>
<trkpt lat="54.634172" lon="-3.096017"><ele>415</ele><time>2020-08-14T11:03:26Z</time><name>PT1671</name></trkpt>
<trkpt lat="54.634183" lon="-3.096014"><ele>415</ele><time>2020-08-14T11:03:28Z</time><name>PT1672</name></trkpt>
<trkpt lat="54.634195" lon="-3.096006"><ele>416</ele><time>2020-08-14T11:03:28Z</time><name>PT1673</name></trkpt>
<trkpt lat="54.634210" lon="-3.095999"><ele>417</ele><time>2020-08-14T11:03:29Z</time><name>PT1674</name></trkpt>
<trkpt lat="54.634223" lon="-3.096008"><ele>417</ele><time>2020-08-14T11:03:31Z</time><name>PT1675</name></trkpt>
<trkpt lat="54.634233" lon="-3.096014"><ele>417</ele><time>2020-08-14T11:03:31Z</time><name>PT1676</name></trkpt>
<trkpt lat="54.634241" lon="-3.096012"><ele>417</ele><time>2020-08-14T11:03:32Z</time><name>PT1677</name></trkpt>
<trkpt lat="54.634255" lon="-3.096005"><ele>416</ele><time>2020-08-14T11:03:34Z</time><name>PT1678</name></trkpt>
<trkpt lat="54.634265" lon="-3.095994"><ele>416</ele><time>2020-08-14T11:03:34Z</time><name>PT1679</name></trkpt>
<trkpt lat="54.634279" lon="-3.095987"><ele>417</ele><time>2020-08-14T11:03:35Z</time><name>PT1680</name></trkpt>
<trkpt lat="54.634295" lon="-3.095985"><ele>417</ele><time>2020-08-14T11:03:37Z</time><name>PT1681</name></trkpt>
<trkpt lat="54.634308" lon="-3.095984"><ele>417</ele><time>2020-08-14T11:03:37Z</time><name>PT1682</name></trkpt>
<trkpt lat="54.634316" lon="-3.095983"><ele>416</ele><time>2020-08-14T11:03:38Z</time><name>PT1683</name></trkpt>
<trkpt lat="54.634327" lon="-3.095978"><ele>416</ele><time>2020-08-14T11:03:40Z</time><name>PT1684</name></trkpt>
<trkpt lat="54.634341" lon="-3.095977"><ele>416</ele><time>2020-08-14T11:03:40Z</time><name>PT1685</name></trkpt>
<trkpt lat="54.634387" lon="-3.095978"><ele>416</ele><time>2020-08-14T11:03:43Z</time><name>PT1686</name></trkpt>
<trkpt lat="54.634434" lon="-3.095984"><ele>416</ele><time>2020-08-14T11:03:47Z</time><name>PT1687</name></trkpt>
<trkpt lat="54.634493" lon="-3.095978"><ele>416</ele><time>2020-08-14T11:03:52Z</time><name>PT1688</name></trkpt>
<trkpt lat="54.634528" lon="-3.095975"><ele>415</ele><time>2020-08-14T11:03:55Z</time><name>PT1689</name></trkpt>
<trkpt lat="54.634591" lon="-3.095961"><ele>415</ele><time>2020-08-14T11:03:58Z</time><name>PT1690</name></trkpt>
<trkpt lat="54.634634" lon="-3.095954"><ele>414</ele><time>2020-08-14T11:04:02Z</time><name>PT1691</name></trkpt>
<trkpt lat="54.634677" lon="-3.095951"><ele>414</ele><time>2020-08-14T11:04:06Z</time><name>PT1692</name></trkpt>
<trkpt lat="54.634728" lon="-3.095954"><ele>413</ele><time>2020-08-14T11:04:09Z</time><name>PT1693</name></trkpt>
<trkpt lat="54.634775" lon="-3.095959"><ele>414</ele><time>2020-08-14T11:04:12Z</time><name>PT1694</name></trkpt>
<trkpt lat="54.634819" lon="-3.095971"><ele>414</ele><time>2020-08-14T11:04:16Z</time><name>PT1695</name></trkpt>
<trkpt lat="54.634863" lon="-3.095978"><ele>414</ele><time>2020-08-14T11:04:19Z</time><name>PT1696</name></trkpt>
<trkpt lat="54.634896" lon="-3.095987"><ele>413</ele><time>2020-08-14T11:04:22Z</time><name>PT1697</name></trkpt>
<trkpt lat="54.634943" lon="-3.096003"><ele>414</ele><time>2020-08-14T11:04:25Z</time><name>PT1698</name></trkpt>
<trkpt lat="54.634994" lon="-3.095986"><ele>414</ele><time>2020-08-14T11:04:30Z</time><name>PT1699</name></trkpt>
<trkpt lat="54.635035" lon="-3.095975"><ele>414</ele><time>2020-08-14T11:04:33Z</time><name>PT1700</name></trkpt>
<trkpt lat="54.635073" lon="-3.095962"><ele>413</ele><time>2020-08-14T11:04:36Z</time><name>PT1701</name></trkpt>
<trkpt lat="54.635127" lon="-3.095957"><ele>412</ele><time>2020-08-14T11:04:40Z</time><name>PT1702</name></trkpt>
<trkpt lat="54.635155" lon="-3.095955"><ele>411</ele><time>2020-08-14T11:04:44Z</time><name>PT1703</name></trkpt>
<trkpt lat="54.635214" lon="-3.095949"><ele>411</ele><time>2020-08-14T11:04:47Z</time><name>PT1704</name></trkpt>
<trkpt lat="54.635256" lon="-3.095946"><ele>411</ele><time>2020-08-14T11:04:51Z</time><name>PT1705</name></trkpt>
<trkpt lat="54.635300" lon="-3.095943"><ele>411</ele><time>2020-08-14T11:04:54Z</time><name>PT1706</name></trkpt>
<trkpt lat="54.635350" lon="-3.095957"><ele>411</ele><time>2020-08-14T11:04:57Z</time><name>PT1707</name></trkpt>
<trkpt lat="54.635383" lon="-3.095971"><ele>411</ele><time>2020-08-14T11:05:00Z</time><name>PT1708</name></trkpt>
<trkpt lat="54.635447" lon="-3.096016"><ele>411</ele><time>2020-08-14T11:05:05Z</time><name>PT1709</name></trkpt>
<trkpt lat="54.635492" lon="-3.096041"><ele>410</ele><time>2020-08-14T11:05:08Z</time><name>PT1710</name></trkpt>
<trkpt lat="54.635544" lon="-3.096076"><ele>410</ele><time>2020-08-14T11:05:12Z</time><name>PT1711</name></trkpt>
<trkpt lat="54.635583" lon="-3.096111"><ele>410</ele><time>2020-08-14T11:05:17Z</time><name>PT1712</name></trkpt>
<trkpt lat="54.635630" lon="-3.096147"><ele>412</ele><time>2020-08-14T11:05:20Z</time><name>PT1713</name></trkpt>
<trkpt lat="54.635679" lon="-3.096175"><ele>412</ele><time>2020-08-14T11:05:25Z</time><name>PT1714</name></trkpt>
<trkpt lat="54.635724" lon="-3.096212"><ele>411</ele><time>2020-08-14T11:05:28Z</time><name>PT1715</name></trkpt>
<trkpt lat="54.635756" lon="-3.096234"><ele>411</ele><time>2020-08-14T11:05:31Z</time><name>PT1716</name></trkpt>
<trkpt lat="54.635817" lon="-3.096266"><ele>411</ele><time>2020-08-14T11:05:34Z</time><name>PT1717</name></trkpt>
<trkpt lat="54.635852" lon="-3.096285"><ele>412</ele><time>2020-08-14T11:05:37Z</time><name>PT1718</name></trkpt>
<trkpt lat="54.635912" lon="-3.096333"><ele>411</ele><time>2020-08-14T11:05:41Z</time><name>PT1719</name></trkpt>
<trkpt lat="54.635938" lon="-3.096357"><ele>410</ele><time>2020-08-14T11:05:44Z</time><name>PT1720</name></trkpt>
<trkpt lat="54.635982" lon="-3.096395"><ele>410</ele><time>2020-08-14T11:05:47Z</time><name>PT1721</name></trkpt>
<trkpt lat="54.636011" lon="-3.096418"><ele>410</ele><time>2020-08-14T11:05:50Z</time><name>PT1722</name></trkpt>
<trkpt lat="54.636058" lon="-3.096431"><ele>408</ele><time>2020-08-14T11:05:53Z</time><name>PT1723</name></trkpt>
<trkpt lat="54.636097" lon="-3.096451"><ele>409</ele><time>2020-08-14T11:05:56Z</time><name>PT1724</name></trkpt>
<trkpt lat="54.636152" lon="-3.096470"><ele>408</ele><time>2020-08-14T11:06:00Z</time><name>PT1725</name></trkpt>
<trkpt lat="54.636186" lon="-3.096480"><ele>408</ele><time>2020-08-14T11:06:03Z</time><name>PT1726</name></trkpt>
<trkpt lat="54.636237" lon="-3.096498"><ele>409</ele><time>2020-08-14T11:06:08Z</time><name>PT1727</name></trkpt>
<trkpt lat="54.636286" lon="-3.096517"><ele>409</ele><time>2020-08-14T11:06:11Z</time><name>PT1728</name></trkpt>
<trkpt lat="54.636332" lon="-3.096523"><ele>410</ele><time>2020-08-14T11:06:14Z</time><name>PT1729</name></trkpt>
<trkpt lat="54.636379" lon="-3.096526"><ele>411</ele><time>2020-08-14T11:06:19Z</time><name>PT1730</name></trkpt>
<trkpt lat="54.636418" lon="-3.096537"><ele>412</ele><time>2020-08-14T11:06:22Z</time><name>PT1731</name></trkpt>
<trkpt lat="54.636465" lon="-3.096544"><ele>411</ele><time>2020-08-14T11:06:25Z</time><name>PT1732</name></trkpt>
<trkpt lat="54.636510" lon="-3.096546"><ele>412</ele><time>2020-08-14T11:06:28Z</time><name>PT1733</name></trkpt>
<trkpt lat="54.636556" lon="-3.096573"><ele>412</ele><time>2020-08-14T11:06:32Z</time><name>PT1734</name></trkpt>
<trkpt lat="54.636594" lon="-3.096599"><ele>412</ele><time>2020-08-14T11:06:35Z</time><name>PT1735</name></trkpt>
<trkpt lat="54.636639" lon="-3.096608"><ele>411</ele><time>2020-08-14T11:06:40Z</time><name>PT1736</name></trkpt>
<trkpt lat="54.636686" lon="-3.096633"><ele>412</ele><time>2020-08-14T11:06:43Z</time><name>PT1737</name></trkpt>
<trkpt lat="54.636728" lon="-3.096645"><ele>411</ele><time>2020-08-14T11:06:46Z</time><name>PT1738</name></trkpt>
<trkpt lat="54.636764" lon="-3.096666"><ele>410</ele><time>2020-08-14T11:06:49Z</time><name>PT1739</name></trkpt>
<trkpt lat="54.636780" lon="-3.096655"><ele>410</ele><time>2020-08-14T11:06:52Z</time><name>PT1740</name></trkpt>
<trkpt lat="54.636781" lon="-3.096656"><ele>410</ele><time>2020-08-14T11:06:56Z</time><name>PT1741</name></trkpt>
<trkpt lat="54.636813" lon="-3.096667"><ele>410</ele><time>2020-08-14T11:07:13Z</time><name>PT1742</name></trkpt>
<trkpt lat="54.636877" lon="-3.096663"><ele>409</ele><time>2020-08-14T11:07:16Z</time><name>PT1743</name></trkpt>
<trkpt lat="54.636934" lon="-3.096661"><ele>410</ele><time>2020-08-14T11:07:20Z</time><name>PT1744</name></trkpt>
<trkpt lat="54.636954" lon="-3.096663"><ele>409</ele><time>2020-08-14T11:07:23Z</time><name>PT1745</name></trkpt>
<trkpt lat="54.636988" lon="-3.096675"><ele>409</ele><time>2020-08-14T11:07:26Z</time><name>PT1746</name></trkpt>
<trkpt lat="54.637019" lon="-3.096711"><ele>409</ele><time>2020-08-14T11:07:29Z</time><name>PT1747</name></trkpt>
<trkpt lat="54.637052" lon="-3.096703"><ele>407</ele><time>2020-08-14T11:07:34Z</time><name>PT1748</name></trkpt>
<trkpt lat="54.637095" lon="-3.096711"><ele>407</ele><time>2020-08-14T11:07:37Z</time><name>PT1749</name></trkpt>
<trkpt lat="54.637118" lon="-3.096725"><ele>406</ele><time>2020-08-14T11:07:40Z</time><name>PT1750</name></trkpt>
<trkpt lat="54.637171" lon="-3.096740"><ele>406</ele><time>2020-08-14T11:07:45Z</time><name>PT1751</name></trkpt>
<trkpt lat="54.637218" lon="-3.096746"><ele>406</ele><time>2020-08-14T11:07:48Z</time><name>PT1752</name></trkpt>
<trkpt lat="54.637253" lon="-3.096771"><ele>405</ele><time>2020-08-14T11:07:52Z</time><name>PT1753</name></trkpt>
<trkpt lat="54.637293" lon="-3.096777"><ele>404</ele><time>2020-08-14T11:07:57Z</time><name>PT1754</name></trkpt>
<trkpt lat="54.637325" lon="-3.096781"><ele>404</ele><time>2020-08-14T11:08:00Z</time><name>PT1755</name></trkpt>
<trkpt lat="54.637362" lon="-3.096802"><ele>403</ele><time>2020-08-14T11:08:03Z</time><name>PT1756</name></trkpt>
<trkpt lat="54.637382" lon="-3.096806"><ele>403</ele><time>2020-08-14T11:08:06Z</time><name>PT1757</name></trkpt>
<trkpt lat="54.637410" lon="-3.096836"><ele>402</ele><time>2020-08-14T11:08:09Z</time><name>PT1758</name></trkpt>
<trkpt lat="54.637450" lon="-3.096860"><ele>402</ele><time>2020-08-14T11:08:14Z</time><name>PT1759</name></trkpt>
<trkpt lat="54.637472" lon="-3.096868"><ele>401</ele><time>2020-08-14T11:08:17Z</time><name>PT1760</name></trkpt>
<trkpt lat="54.637518" lon="-3.096858"><ele>400</ele><time>2020-08-14T11:08:20Z</time><name>PT1761</name></trkpt>
<trkpt lat="54.637558" lon="-3.096896"><ele>399</ele><time>2020-08-14T11:08:24Z</time><name>PT1762</name></trkpt>
<trkpt lat="54.637591" lon="-3.096942"><ele>398</ele><time>2020-08-14T11:08:29Z</time><name>PT1763</name></trkpt>
<trkpt lat="54.637626" lon="-3.096981"><ele>396</ele><time>2020-08-14T11:08:32Z</time><name>PT1764</name></trkpt>
<trkpt lat="54.637662" lon="-3.097005"><ele>396</ele><time>2020-08-14T11:08:36Z</time><name>PT1765</name></trkpt>
<trkpt lat="54.637693" lon="-3.097040"><ele>395</ele><time>2020-08-14T11:08:39Z</time><name>PT1766</name></trkpt>
<trkpt lat="54.637715" lon="-3.097076"><ele>395</ele><time>2020-08-14T11:08:42Z</time><name>PT1767</name></trkpt>
<trkpt lat="54.637769" lon="-3.097104"><ele>396</ele><time>2020-08-14T11:08:47Z</time><name>PT1768</name></trkpt>
<trkpt lat="54.637791" lon="-3.097115"><ele>396</ele><time>2020-08-14T11:08:50Z</time><name>PT1769</name></trkpt>
<trkpt lat="54.637817" lon="-3.097120"><ele>395</ele><time>2020-08-14T11:08:54Z</time><name>PT1770</name></trkpt>
<trkpt lat="54.637845" lon="-3.097125"><ele>395</ele><time>2020-08-14T11:08:58Z</time><name>PT1771</name></trkpt>
<trkpt lat="54.637876" lon="-3.097142"><ele>394</ele><time>2020-08-14T11:09:01Z</time><name>PT1772</name></trkpt>
<trkpt lat="54.637923" lon="-3.097148"><ele>394</ele><time>2020-08-14T11:09:04Z</time><name>PT1773</name></trkpt>
<trkpt lat="54.637951" lon="-3.097151"><ele>393</ele><time>2020-08-14T11:09:07Z</time><name>PT1774</name></trkpt>
<trkpt lat="54.637992" lon="-3.097145"><ele>392</ele><time>2020-08-14T11:09:11Z</time><name>PT1775</name></trkpt>
<trkpt lat="54.638016" lon="-3.097129"><ele>390</ele><time>2020-08-14T11:09:16Z</time><name>PT1776</name></trkpt>
<trkpt lat="54.638046" lon="-3.097110"><ele>391</ele><time>2020-08-14T11:09:19Z</time><name>PT1777</name></trkpt>
<trkpt lat="54.638049" lon="-3.097103"><ele>391</ele><time>2020-08-14T11:09:23Z</time><name>PT1778</name></trkpt>
<trkpt lat="54.638060" lon="-3.097116"><ele>390</ele><time>2020-08-14T11:09:31Z</time><name>PT1779</name></trkpt>
<trkpt lat="54.638101" lon="-3.097082"><ele>391</ele><time>2020-08-14T11:09:34Z</time><name>PT1780</name></trkpt>
<trkpt lat="54.638128" lon="-3.097087"><ele>389</ele><time>2020-08-14T11:09:37Z</time><name>PT1781</name></trkpt>
<trkpt lat="54.638161" lon="-3.097085"><ele>388</ele><time>2020-08-14T11:09:42Z</time><name>PT1782</name></trkpt>
<trkpt lat="54.638184" lon="-3.097075"><ele>387</ele><time>2020-08-14T11:09:45Z</time><name>PT1783</name></trkpt>
<trkpt lat="54.638212" lon="-3.097068"><ele>385</ele><time>2020-08-14T11:09:48Z</time><name>PT1784</name></trkpt>
<trkpt lat="54.638256" lon="-3.097078"><ele>385</ele><time>2020-08-14T11:09:52Z</time><name>PT1785</name></trkpt>
<trkpt lat="54.638266" lon="-3.097066"><ele>385</ele><time>2020-08-14T11:09:54Z</time><name>PT1786</name></trkpt>
<trkpt lat="54.638274" lon="-3.097064"><ele>384</ele><time>2020-08-14T11:09:54Z</time><name>PT1787</name></trkpt>
<trkpt lat="54.638278" lon="-3.097065"><ele>384</ele><time>2020-08-14T11:09:55Z</time><name>PT1788</name></trkpt>
<trkpt lat="54.638279" lon="-3.097063"><ele>384</ele><time>2020-08-14T11:09:57Z</time><name>PT1789</name></trkpt>
<trkpt lat="54.638280" lon="-3.097056"><ele>384</ele><time>2020-08-14T11:09:57Z</time><name>PT1790</name></trkpt>
<trkpt lat="54.638281" lon="-3.097056"><ele>384</ele><time>2020-08-14T11:09:58Z</time><name>PT1791</name></trkpt>
<trkpt lat="54.638284" lon="-3.097050"><ele>384</ele><time>2020-08-14T11:10:00Z</time><name>PT1792</name></trkpt>
<trkpt lat="54.638294" lon="-3.097039"><ele>384</ele><time>2020-08-14T11:10:01Z</time><name>PT1793</name></trkpt>
<trkpt lat="54.638300" lon="-3.097034"><ele>383</ele><time>2020-08-14T11:10:03Z</time><name>PT1794</name></trkpt>
<trkpt lat="54.638305" lon="-3.097030"><ele>384</ele><time>2020-08-14T11:10:03Z</time><name>PT1795</name></trkpt>
<trkpt lat="54.638309" lon="-3.097026"><ele>383</ele><time>2020-08-14T11:10:04Z</time><name>PT1796</name></trkpt>
<trkpt lat="54.638313" lon="-3.097022"><ele>383</ele><time>2020-08-14T11:10:06Z</time><name>PT1797</name></trkpt>
<trkpt lat="54.638315" lon="-3.097020"><ele>383</ele><time>2020-08-14T11:10:06Z</time><name>PT1798</name></trkpt>
<trkpt lat="54.638315" lon="-3.097020"><ele>383</ele><time>2020-08-14T11:10:09Z</time><name>PT1799</name></trkpt>
<trkpt lat="54.638318" lon="-3.097015"><ele>383</ele><time>2020-08-14T11:10:14Z</time><name>PT1800</name></trkpt>
<trkpt lat="54.638329" lon="-3.097013"><ele>383</ele><time>2020-08-14T11:10:15Z</time><name>PT1801</name></trkpt>
<trkpt lat="54.638338" lon="-3.097011"><ele>382</ele><time>2020-08-14T11:10:15Z</time><name>PT1802</name></trkpt>
<trkpt lat="54.638344" lon="-3.097007"><ele>382</ele><time>2020-08-14T11:10:16Z</time><name>PT1803</name></trkpt>
<trkpt lat="54.638349" lon="-3.097002"><ele>382</ele><time>2020-08-14T11:10:18Z</time><name>PT1804</name></trkpt>
<trkpt lat="54.638357" lon="-3.096996"><ele>382</ele><time>2020-08-14T11:10:18Z</time><name>PT1805</name></trkpt>
<trkpt lat="54.638367" lon="-3.096991"><ele>382</ele><time>2020-08-14T11:10:19Z</time><name>PT1806</name></trkpt>
<trkpt lat="54.638372" lon="-3.096990"><ele>382</ele><time>2020-08-14T11:10:21Z</time><name>PT1807</name></trkpt>
<trkpt lat="54.638381" lon="-3.096987"><ele>382</ele><time>2020-08-14T11:10:21Z</time><name>PT1808</name></trkpt>
<trkpt lat="54.638390" lon="-3.096986"><ele>382</ele><time>2020-08-14T11:10:22Z</time><name>PT1809</name></trkpt>
<trkpt lat="54.638399" lon="-3.096987"><ele>382</ele><time>2020-08-14T11:10:24Z</time><name>PT1810</name></trkpt>
<trkpt lat="54.638411" lon="-3.096986"><ele>381</ele><time>2020-08-14T11:10:24Z</time><name>PT1811</name></trkpt>
<trkpt lat="54.638422" lon="-3.096989"><ele>381</ele><time>2020-08-14T11:10:25Z</time><name>PT1812</name></trkpt>
<trkpt lat="54.638430" lon="-3.096993"><ele>381</ele><time>2020-08-14T11:10:27Z</time><name>PT1813</name></trkpt>
<trkpt lat="54.638441" lon="-3.096999"><ele>380</ele><time>2020-08-14T11:10:27Z</time><name>PT1814</name></trkpt>
<trkpt lat="54.638453" lon="-3.097008"><ele>380</ele><time>2020-08-14T11:10:28Z</time><name>PT1815</name></trkpt>
<trkpt lat="54.638459" lon="-3.097017"><ele>380</ele><time>2020-08-14T11:10:30Z</time><name>PT1816</name></trkpt>
<trkpt lat="54.638466" lon="-3.097027"><ele>380</ele><time>2020-08-14T11:10:30Z</time><name>PT1817</name></trkpt>
<trkpt lat="54.638473" lon="-3.097038"><ele>380</ele><time>2020-08-14T11:10:31Z</time><name>PT1818</name></trkpt>
<trkpt lat="54.638478" lon="-3.097046"><ele>380</ele><time>2020-08-14T11:10:33Z</time><name>PT1819</name></trkpt>
<trkpt lat="54.638484" lon="-3.097050"><ele>380</ele><time>2020-08-14T11:10:33Z</time><name>PT1820</name></trkpt>
<trkpt lat="54.638488" lon="-3.097049"><ele>380</ele><time>2020-08-14T11:10:34Z</time><name>PT1821</name></trkpt>
<trkpt lat="54.638496" lon="-3.097055"><ele>380</ele><time>2020-08-14T11:10:36Z</time><name>PT1822</name></trkpt>
<trkpt lat="54.638502" lon="-3.097061"><ele>380</ele><time>2020-08-14T11:10:36Z</time><name>PT1823</name></trkpt>
<trkpt lat="54.638512" lon="-3.097062"><ele>379</ele><time>2020-08-14T11:10:37Z</time><name>PT1824</name></trkpt>
<trkpt lat="54.638526" lon="-3.097059"><ele>379</ele><time>2020-08-14T11:10:39Z</time><name>PT1825</name></trkpt>
<trkpt lat="54.638540" lon="-3.097072"><ele>378</ele><time>2020-08-14T11:10:39Z</time><name>PT1826</name></trkpt>
<trkpt lat="54.638553" lon="-3.097084"><ele>379</ele><time>2020-08-14T11:10:40Z</time><name>PT1827</name></trkpt>
<trkpt lat="54.638570" lon="-3.097092"><ele>379</ele><time>2020-08-14T11:10:42Z</time><name>PT1828</name></trkpt>
<trkpt lat="54.638586" lon="-3.097102"><ele>379</ele><time>2020-08-14T11:10:42Z</time><name>PT1829</name></trkpt>
<trkpt lat="54.638594" lon="-3.097110"><ele>379</ele><time>2020-08-14T11:10:43Z</time><name>PT1830</name></trkpt>
<trkpt lat="54.638603" lon="-3.097116"><ele>379</ele><time>2020-08-14T11:10:45Z</time><name>PT1831</name></trkpt>
<trkpt lat="54.638611" lon="-3.097124"><ele>379</ele><time>2020-08-14T11:10:45Z</time><name>PT1832</name></trkpt>
<trkpt lat="54.638619" lon="-3.097138"><ele>379</ele><time>2020-08-14T11:10:47Z</time><name>PT1833</name></trkpt>
<trkpt lat="54.638624" lon="-3.097143"><ele>378</ele><time>2020-08-14T11:10:48Z</time><name>PT1834</name></trkpt>
<trkpt lat="54.638634" lon="-3.097149"><ele>379</ele><time>2020-08-14T11:10:48Z</time><name>PT1835</name></trkpt>
<trkpt lat="54.638645" lon="-3.097150"><ele>379</ele><time>2020-08-14T11:10:49Z</time><name>PT1836</name></trkpt>
<trkpt lat="54.638663" lon="-3.097137"><ele>380</ele><time>2020-08-14T11:10:51Z</time><name>PT1837</name></trkpt>
<trkpt lat="54.638675" lon="-3.097128"><ele>380</ele><time>2020-08-14T11:10:51Z</time><name>PT1838</name></trkpt>
<trkpt lat="54.638689" lon="-3.097125"><ele>380</ele><time>2020-08-14T11:10:52Z</time><name>PT1839</name></trkpt>
<trkpt lat="54.638700" lon="-3.097126"><ele>380</ele><time>2020-08-14T11:10:54Z</time><name>PT1840</name></trkpt>
<trkpt lat="54.638704" lon="-3.097121"><ele>379</ele><time>2020-08-14T11:10:54Z</time><name>PT1841</name></trkpt>
<trkpt lat="54.638710" lon="-3.097112"><ele>379</ele><time>2020-08-14T11:10:55Z</time><name>PT1842</name></trkpt>
<trkpt lat="54.638717" lon="-3.097106"><ele>379</ele><time>2020-08-14T11:10:57Z</time><name>PT1843</name></trkpt>
<trkpt lat="54.638725" lon="-3.097106"><ele>379</ele><time>2020-08-14T11:10:57Z</time><name>PT1844</name></trkpt>
<trkpt lat="54.638730" lon="-3.097106"><ele>379</ele><time>2020-08-14T11:10:58Z</time><name>PT1845</name></trkpt>
<trkpt lat="54.638740" lon="-3.097110"><ele>378</ele><time>2020-08-14T11:11:00Z</time><name>PT1846</name></trkpt>
<trkpt lat="54.638749" lon="-3.097112"><ele>379</ele><time>2020-08-14T11:11:00Z</time><name>PT1847</name></trkpt>
<trkpt lat="54.638757" lon="-3.097117"><ele>378</ele><time>2020-08-14T11:11:01Z</time><name>PT1848</name></trkpt>
<trkpt lat="54.638769" lon="-3.097123"><ele>379</ele><time>2020-08-14T11:11:03Z</time><name>PT1849</name></trkpt>
<trkpt lat="54.638777" lon="-3.097121"><ele>378</ele><time>2020-08-14T11:11:03Z</time><name>PT1850</name></trkpt>
<trkpt lat="54.638783" lon="-3.097120"><ele>378</ele><time>2020-08-14T11:11:04Z</time><name>PT1851</name></trkpt>
<trkpt lat="54.638789" lon="-3.097119"><ele>377</ele><time>2020-08-14T11:11:06Z</time><name>PT1852</name></trkpt>
<trkpt lat="54.638796" lon="-3.097119"><ele>376</ele><time>2020-08-14T11:11:06Z</time><name>PT1853</name></trkpt>
<trkpt lat="54.638808" lon="-3.097112"><ele>376</ele><time>2020-08-14T11:11:07Z</time><name>PT1854</name></trkpt>
<trkpt lat="54.638824" lon="-3.097107"><ele>376</ele><time>2020-08-14T11:11:09Z</time><name>PT1855</name></trkpt>
<trkpt lat="54.638838" lon="-3.097103"><ele>376</ele><time>2020-08-14T11:11:09Z</time><name>PT1856</name></trkpt>
<trkpt lat="54.638852" lon="-3.097099"><ele>375</ele><time>2020-08-14T11:11:10Z</time><name>PT1857</name></trkpt>
<trkpt lat="54.638870" lon="-3.097090"><ele>375</ele><time>2020-08-14T11:11:12Z</time><name>PT1858</name></trkpt>
<trkpt lat="54.638883" lon="-3.097084"><ele>375</ele><time>2020-08-14T11:11:12Z</time><name>PT1859</name></trkpt>
<trkpt lat="54.638890" lon="-3.097075"><ele>375</ele><time>2020-08-14T11:11:13Z</time><name>PT1860</name></trkpt>
<trkpt lat="54.638895" lon="-3.097063"><ele>374</ele><time>2020-08-14T11:11:15Z</time><name>PT1861</name></trkpt>
<trkpt lat="54.638907" lon="-3.097051"><ele>374</ele><time>2020-08-14T11:11:15Z</time><name>PT1862</name></trkpt>
<trkpt lat="54.638919" lon="-3.097043"><ele>374</ele><time>2020-08-14T11:11:16Z</time><name>PT1863</name></trkpt>
<trkpt lat="54.638935" lon="-3.097032"><ele>374</ele><time>2020-08-14T11:11:18Z</time><name>PT1864</name></trkpt>
<trkpt lat="54.638950" lon="-3.097020"><ele>374</ele><time>2020-08-14T11:11:18Z</time><name>PT1865</name></trkpt>
<trkpt lat="54.638966" lon="-3.097007"><ele>375</ele><time>2020-08-14T11:11:19Z</time><name>PT1866</name></trkpt>
<trkpt lat="54.638982" lon="-3.097004"><ele>375</ele><time>2020-08-14T11:11:21Z</time><name>PT1867</name></trkpt>
<trkpt lat="54.638994" lon="-3.096993"><ele>375</ele><time>2020-08-14T11:11:21Z</time><name>PT1868</name></trkpt>
<trkpt lat="54.639002" lon="-3.096985"><ele>375</ele><time>2020-08-14T11:11:22Z</time><name>PT1869</name></trkpt>
<trkpt lat="54.639009" lon="-3.096976"><ele>375</ele><time>2020-08-14T11:11:24Z</time><name>PT1870</name></trkpt>
<trkpt lat="54.639016" lon="-3.096967"><ele>375</ele><time>2020-08-14T11:11:24Z</time><name>PT1871</name></trkpt>
<trkpt lat="54.639019" lon="-3.096961"><ele>375</ele><time>2020-08-14T11:11:25Z</time><name>PT1872</name></trkpt>
<trkpt lat="54.639021" lon="-3.096960"><ele>375</ele><time>2020-08-14T11:11:26Z</time><name>PT1873</name></trkpt>
<trkpt lat="54.639024" lon="-3.096962"><ele>375</ele><time>2020-08-14T11:11:27Z</time><name>PT1874</name></trkpt>
<trkpt lat="54.639032" lon="-3.096952"><ele>376</ele><time>2020-08-14T11:11:29Z</time><name>PT1875</name></trkpt>
<trkpt lat="54.639039" lon="-3.096939"><ele>376</ele><time>2020-08-14T11:11:29Z</time><name>PT1876</name></trkpt>
<trkpt lat="54.639043" lon="-3.096927"><ele>375</ele><time>2020-08-14T11:11:30Z</time><name>PT1877</name></trkpt>
<trkpt lat="54.639049" lon="-3.096912"><ele>375</ele><time>2020-08-14T11:11:32Z</time><name>PT1878</name></trkpt>
<trkpt lat="54.639057" lon="-3.096898"><ele>375</ele><time>2020-08-14T11:11:32Z</time><name>PT1879</name></trkpt>
<trkpt lat="54.639067" lon="-3.096888"><ele>375</ele><time>2020-08-14T11:11:33Z</time><name>PT1880</name></trkpt>
<trkpt lat="54.639081" lon="-3.096873"><ele>376</ele><time>2020-08-14T11:11:35Z</time><name>PT1881</name></trkpt>
<trkpt lat="54.639094" lon="-3.096854"><ele>375</ele><time>2020-08-14T11:11:35Z</time><name>PT1882</name></trkpt>
<trkpt lat="54.639108" lon="-3.096841"><ele>375</ele><time>2020-08-14T11:11:36Z</time><name>PT1883</name></trkpt>
<trkpt lat="54.639116" lon="-3.096833"><ele>375</ele><time>2020-08-14T11:11:38Z</time><name>PT1884</name></trkpt>
<trkpt lat="54.639123" lon="-3.096818"><ele>374</ele><time>2020-08-14T11:11:38Z</time><name>PT1885</name></trkpt>
<trkpt lat="54.639134" lon="-3.096809"><ele>374</ele><time>2020-08-14T11:11:39Z</time><name>PT1886</name></trkpt>
<trkpt lat="54.639147" lon="-3.096805"><ele>374</ele><time>2020-08-14T11:11:41Z</time><name>PT1887</name></trkpt>
<trkpt lat="54.639162" lon="-3.096801"><ele>374</ele><time>2020-08-14T11:11:41Z</time><name>PT1888</name></trkpt>
<trkpt lat="54.639169" lon="-3.096798"><ele>374</ele><time>2020-08-14T11:11:42Z</time><name>PT1889</name></trkpt>
<trkpt lat="54.639178" lon="-3.096794"><ele>373</ele><time>2020-08-14T11:11:44Z</time><name>PT1890</name></trkpt>
<trkpt lat="54.639190" lon="-3.096788"><ele>373</ele><time>2020-08-14T11:11:44Z</time><name>PT1891</name></trkpt>
<trkpt lat="54.639204" lon="-3.096782"><ele>373</ele><time>2020-08-14T11:11:45Z</time><name>PT1892</name></trkpt>
<trkpt lat="54.639216" lon="-3.096777"><ele>374</ele><time>2020-08-14T11:11:47Z</time><name>PT1893</name></trkpt>
<trkpt lat="54.639230" lon="-3.096771"><ele>373</ele><time>2020-08-14T11:11:47Z</time><name>PT1894</name></trkpt>
<trkpt lat="54.639239" lon="-3.096767"><ele>373</ele><time>2020-08-14T11:11:48Z</time><name>PT1895</name></trkpt>
<trkpt lat="54.639247" lon="-3.096762"><ele>373</ele><time>2020-08-14T11:11:50Z</time><name>PT1896</name></trkpt>
<trkpt lat="54.639256" lon="-3.096761"><ele>373</ele><time>2020-08-14T11:11:50Z</time><name>PT1897</name></trkpt>
<trkpt lat="54.639268" lon="-3.096766"><ele>373</ele><time>2020-08-14T11:11:51Z</time><name>PT1898</name></trkpt>
<trkpt lat="54.639281" lon="-3.096764"><ele>373</ele><time>2020-08-14T11:11:52Z</time><name>PT1899</name></trkpt>
<trkpt lat="54.639293" lon="-3.096755"><ele>372</ele><time>2020-08-14T11:11:53Z</time><name>PT1900</name></trkpt>
<trkpt lat="54.639303" lon="-3.096745"><ele>372</ele><time>2020-08-14T11:11:55Z</time><name>PT1901</name></trkpt>
<trkpt lat="54.639310" lon="-3.096737"><ele>372</ele><time>2020-08-14T11:11:55Z</time><name>PT1902</name></trkpt>
<trkpt lat="54.639317" lon="-3.096736"><ele>371</ele><time>2020-08-14T11:11:56Z</time><name>PT1903</name></trkpt>
<trkpt lat="54.639325" lon="-3.096729"><ele>371</ele><time>2020-08-14T11:11:58Z</time><name>PT1904</name></trkpt>
<trkpt lat="54.639333" lon="-3.096721"><ele>371</ele><time>2020-08-14T11:11:58Z</time><name>PT1905</name></trkpt>
<trkpt lat="54.639340" lon="-3.096713"><ele>371</ele><time>2020-08-14T11:11:59Z</time><name>PT1906</name></trkpt>
<trkpt lat="54.639348" lon="-3.096711"><ele>371</ele><time>2020-08-14T11:12:01Z</time><name>PT1907</name></trkpt>
<trkpt lat="54.639358" lon="-3.096714"><ele>370</ele><time>2020-08-14T11:12:01Z</time><name>PT1908</name></trkpt>
<trkpt lat="54.639370" lon="-3.096704"><ele>370</ele><time>2020-08-14T11:12:02Z</time><name>PT1909</name></trkpt>
<trkpt lat="54.639383" lon="-3.096693"><ele>370</ele><time>2020-08-14T11:12:04Z</time><name>PT1910</name></trkpt>
<trkpt lat="54.639399" lon="-3.096686"><ele>370</ele><time>2020-08-14T11:12:04Z</time><name>PT1911</name></trkpt>
<trkpt lat="54.639415" lon="-3.096681"><ele>370</ele><time>2020-08-14T11:12:05Z</time><name>PT1912</name></trkpt>
<trkpt lat="54.639428" lon="-3.096679"><ele>370</ele><time>2020-08-14T11:12:07Z</time><name>PT1913</name></trkpt>
<trkpt lat="54.639436" lon="-3.096680"><ele>370</ele><time>2020-08-14T11:12:07Z</time><name>PT1914</name></trkpt>
<trkpt lat="54.639447" lon="-3.096680"><ele>370</ele><time>2020-08-14T11:12:08Z</time><name>PT1915</name></trkpt>
<trkpt lat="54.639460" lon="-3.096679"><ele>370</ele><time>2020-08-14T11:12:10Z</time><name>PT1916</name></trkpt>
<trkpt lat="54.639475" lon="-3.096673"><ele>370</ele><time>2020-08-14T11:12:10Z</time><name>PT1917</name></trkpt>
<trkpt lat="54.639489" lon="-3.096667"><ele>370</ele><time>2020-08-14T11:12:11Z</time><name>PT1918</name></trkpt>
<trkpt lat="54.639498" lon="-3.096666"><ele>370</ele><time>2020-08-14T11:12:13Z</time><name>PT1919</name></trkpt>
<trkpt lat="54.639504" lon="-3.096668"><ele>369</ele><time>2020-08-14T11:12:13Z</time><name>PT1920</name></trkpt>
<trkpt lat="54.639516" lon="-3.096673"><ele>369</ele><time>2020-08-14T11:12:14Z</time><name>PT1921</name></trkpt>
<trkpt lat="54.639527" lon="-3.096680"><ele>369</ele><time>2020-08-14T11:12:16Z</time><name>PT1922</name></trkpt>
<trkpt lat="54.639538" lon="-3.096686"><ele>369</ele><time>2020-08-14T11:12:16Z</time><name>PT1923</name></trkpt>
<trkpt lat="54.639550" lon="-3.096684"><ele>369</ele><time>2020-08-14T11:12:17Z</time><name>PT1924</name></trkpt>
<trkpt lat="54.639562" lon="-3.096682"><ele>369</ele><time>2020-08-14T11:12:19Z</time><name>PT1925</name></trkpt>
<trkpt lat="54.639571" lon="-3.096690"><ele>369</ele><time>2020-08-14T11:12:19Z</time><name>PT1926</name></trkpt>
<trkpt lat="54.639575" lon="-3.096694"><ele>368</ele><time>2020-08-14T11:12:20Z</time><name>PT1927</name></trkpt>
<trkpt lat="54.639579" lon="-3.096693"><ele>368</ele><time>2020-08-14T11:12:22Z</time><name>PT1928</name></trkpt>
<trkpt lat="54.639585" lon="-3.096691"><ele>368</ele><time>2020-08-14T11:12:22Z</time><name>PT1929</name></trkpt>
<trkpt lat="54.639593" lon="-3.096688"><ele>368</ele><time>2020-08-14T11:12:23Z</time><name>PT1930</name></trkpt>
<trkpt lat="54.639601" lon="-3.096692"><ele>368</ele><time>2020-08-14T11:12:25Z</time><name>PT1931</name></trkpt>
<trkpt lat="54.639609" lon="-3.096691"><ele>367</ele><time>2020-08-14T11:12:25Z</time><name>PT1932</name></trkpt>
<trkpt lat="54.639616" lon="-3.096696"><ele>367</ele><time>2020-08-14T11:12:26Z</time><name>PT1933</name></trkpt>
<trkpt lat="54.639627" lon="-3.096695"><ele>367</ele><time>2020-08-14T11:12:28Z</time><name>PT1934</name></trkpt>
<trkpt lat="54.639641" lon="-3.096694"><ele>367</ele><time>2020-08-14T11:12:28Z</time><name>PT1935</name></trkpt>
<trkpt lat="54.639652" lon="-3.096690"><ele>368</ele><time>2020-08-14T11:12:29Z</time><name>PT1936</name></trkpt>
<trkpt lat="54.639660" lon="-3.096685"><ele>367</ele><time>2020-08-14T11:12:30Z</time><name>PT1937</name></trkpt>
<trkpt lat="54.639671" lon="-3.096677"><ele>368</ele><time>2020-08-14T11:12:31Z</time><name>PT1938</name></trkpt>
<trkpt lat="54.639683" lon="-3.096664"><ele>368</ele><time>2020-08-14T11:12:33Z</time><name>PT1939</name></trkpt>
<trkpt lat="54.639693" lon="-3.096650"><ele>368</ele><time>2020-08-14T11:12:33Z</time><name>PT1940</name></trkpt>
<trkpt lat="54.639697" lon="-3.096636"><ele>367</ele><time>2020-08-14T11:12:34Z</time><name>PT1941</name></trkpt>
<trkpt lat="54.639698" lon="-3.096627"><ele>367</ele><time>2020-08-14T11:12:36Z</time><name>PT1942</name></trkpt>
<trkpt lat="54.639701" lon="-3.096612"><ele>366</ele><time>2020-08-14T11:12:36Z</time><name>PT1943</name></trkpt>
<trkpt lat="54.639707" lon="-3.096601"><ele>366</ele><time>2020-08-14T11:12:37Z</time><name>PT1944</name></trkpt>
<trkpt lat="54.639714" lon="-3.096585"><ele>366</ele><time>2020-08-14T11:12:39Z</time><name>PT1945</name></trkpt>
<trkpt lat="54.639724" lon="-3.096572"><ele>366</ele><time>2020-08-14T11:12:39Z</time><name>PT1946</name></trkpt>
<trkpt lat="54.639733" lon="-3.096563"><ele>367</ele><time>2020-08-14T11:12:40Z</time><name>PT1947</name></trkpt>
<trkpt lat="54.639739" lon="-3.096554"><ele>367</ele><time>2020-08-14T11:12:42Z</time><name>PT1948</name></trkpt>
<trkpt lat="54.639743" lon="-3.096549"><ele>367</ele><time>2020-08-14T11:12:42Z</time><name>PT1949</name></trkpt>
<trkpt lat="54.639750" lon="-3.096541"><ele>366</ele><time>2020-08-14T11:12:43Z</time><name>PT1950</name></trkpt>
<trkpt lat="54.639756" lon="-3.096530"><ele>366</ele><time>2020-08-14T11:12:45Z</time><name>PT1951</name></trkpt>
<trkpt lat="54.639764" lon="-3.096518"><ele>366</ele><time>2020-08-14T11:12:45Z</time><name>PT1952</name></trkpt>
<trkpt lat="54.639772" lon="-3.096504"><ele>366</ele><time>2020-08-14T11:12:46Z</time><name>PT1953</name></trkpt>
<trkpt lat="54.639779" lon="-3.096489"><ele>366</ele><time>2020-08-14T11:12:48Z</time><name>PT1954</name></trkpt>
<trkpt lat="54.639788" lon="-3.096474"><ele>365</ele><time>2020-08-14T11:12:48Z</time><name>PT1955</name></trkpt>
<trkpt lat="54.639797" lon="-3.096459"><ele>365</ele><time>2020-08-14T11:12:49Z</time><name>PT1956</name></trkpt>
<trkpt lat="54.639806" lon="-3.096443"><ele>365</ele><time>2020-08-14T11:12:51Z</time><name>PT1957</name></trkpt>
<trkpt lat="54.639813" lon="-3.096434"><ele>364</ele><time>2020-08-14T11:12:51Z</time><name>PT1958</name></trkpt>
<trkpt lat="54.639819" lon="-3.096429"><ele>364</ele><time>2020-08-14T11:12:52Z</time><name>PT1959</name></trkpt>
<trkpt lat="54.639824" lon="-3.096414"><ele>364</ele><time>2020-08-14T11:12:54Z</time><name>PT1960</name></trkpt>
<trkpt lat="54.639832" lon="-3.096400"><ele>363</ele><time>2020-08-14T11:12:54Z</time><name>PT1961</name></trkpt>
<trkpt lat="54.639843" lon="-3.096387"><ele>364</ele><time>2020-08-14T11:12:55Z</time><name>PT1962</name></trkpt>
<trkpt lat="54.639857" lon="-3.096376"><ele>364</ele><time>2020-08-14T11:12:57Z</time><name>PT1963</name></trkpt>
<trkpt lat="54.639866" lon="-3.096366"><ele>363</ele><time>2020-08-14T11:12:57Z</time><name>PT1964</name></trkpt>
<trkpt lat="54.639873" lon="-3.096363"><ele>363</ele><time>2020-08-14T11:12:58Z</time><name>PT1965</name></trkpt>
<trkpt lat="54.639879" lon="-3.096361"><ele>362</ele><time>2020-08-14T11:13:00Z</time><name>PT1966</name></trkpt>
<trkpt lat="54.639885" lon="-3.096352"><ele>362</ele><time>2020-08-14T11:13:00Z</time><name>PT1967</name></trkpt>
<trkpt lat="54.639890" lon="-3.096346"><ele>361</ele><time>2020-08-14T11:13:01Z</time><name>PT1968</name></trkpt>
<trkpt lat="54.639894" lon="-3.096336"><ele>361</ele><time>2020-08-14T11:13:03Z</time><name>PT1969</name></trkpt>
<trkpt lat="54.639897" lon="-3.096327"><ele>361</ele><time>2020-08-14T11:13:03Z</time><name>PT1970</name></trkpt>
<trkpt lat="54.639898" lon="-3.096326"><ele>360</ele><time>2020-08-14T11:13:04Z</time><name>PT1971</name></trkpt>
<trkpt lat="54.639897" lon="-3.096325"><ele>360</ele><time>2020-08-14T11:13:06Z</time><name>PT1972</name></trkpt>
<trkpt lat="54.639898" lon="-3.096323"><ele>360</ele><time>2020-08-14T11:13:06Z</time><name>PT1973</name></trkpt>
<trkpt lat="54.639902" lon="-3.096321"><ele>360</ele><time>2020-08-14T11:13:09Z</time><name>PT1974</name></trkpt>
<trkpt lat="54.639914" lon="-3.096316"><ele>360</ele><time>2020-08-14T11:13:10Z</time><name>PT1975</name></trkpt>
<trkpt lat="54.639922" lon="-3.096311"><ele>360</ele><time>2020-08-14T11:13:12Z</time><name>PT1976</name></trkpt>
<trkpt lat="54.639931" lon="-3.096307"><ele>359</ele><time>2020-08-14T11:13:12Z</time><name>PT1977</name></trkpt>
<trkpt lat="54.639939" lon="-3.096307"><ele>359</ele><time>2020-08-14T11:13:13Z</time><name>PT1978</name></trkpt>
<trkpt lat="54.639949" lon="-3.096293"><ele>359</ele><time>2020-08-14T11:13:15Z</time><name>PT1979</name></trkpt>
<trkpt lat="54.639958" lon="-3.096284"><ele>359</ele><time>2020-08-14T11:13:15Z</time><name>PT1980</name></trkpt>
<trkpt lat="54.639972" lon="-3.096276"><ele>359</ele><time>2020-08-14T11:13:16Z</time><name>PT1981</name></trkpt>
<trkpt lat="54.639984" lon="-3.096264"><ele>360</ele><time>2020-08-14T11:13:18Z</time><name>PT1982</name></trkpt>
<trkpt lat="54.639997" lon="-3.096247"><ele>360</ele><time>2020-08-14T11:13:18Z</time><name>PT1983</name></trkpt>
<trkpt lat="54.640005" lon="-3.096223"><ele>359</ele><time>2020-08-14T11:13:19Z</time><name>PT1984</name></trkpt>
<trkpt lat="54.640017" lon="-3.096198"><ele>359</ele><time>2020-08-14T11:13:21Z</time><name>PT1985</name></trkpt>
<trkpt lat="54.640050" lon="-3.096144"><ele>359</ele><time>2020-08-14T11:13:24Z</time><name>PT1986</name></trkpt>
<trkpt lat="54.640063" lon="-3.096080"><ele>358</ele><time>2020-08-14T11:13:27Z</time><name>PT1987</name></trkpt>
<trkpt lat="54.640080" lon="-3.096010"><ele>357</ele><time>2020-08-14T11:13:30Z</time><name>PT1988</name></trkpt>
<trkpt lat="54.640085" lon="-3.095922"><ele>356</ele><time>2020-08-14T11:13:33Z</time><name>PT1989</name></trkpt>
<trkpt lat="54.640089" lon="-3.095871"><ele>355</ele><time>2020-08-14T11:13:36Z</time><name>PT1990</name></trkpt>
<trkpt lat="54.640116" lon="-3.095796"><ele>355</ele><time>2020-08-14T11:13:40Z</time><name>PT1991</name></trkpt>
<trkpt lat="54.640144" lon="-3.095738"><ele>355</ele><time>2020-08-14T11:13:45Z</time><name>PT1992</name></trkpt>
<trkpt lat="54.640155" lon="-3.095689"><ele>353</ele><time>2020-08-14T11:13:48Z</time><name>PT1993</name></trkpt>
<trkpt lat="54.640174" lon="-3.095599"><ele>353</ele><time>2020-08-14T11:13:52Z</time><name>PT1994</name></trkpt>
<trkpt lat="54.640181" lon="-3.095522"><ele>354</ele><time>2020-08-14T11:13:57Z</time><name>PT1995</name></trkpt>
<trkpt lat="54.640199" lon="-3.095482"><ele>352</ele><time>2020-08-14T11:14:00Z</time><name>PT1996</name></trkpt>
<trkpt lat="54.640217" lon="-3.095421"><ele>353</ele><time>2020-08-14T11:14:03Z</time><name>PT1997</name></trkpt>
<trkpt lat="54.640221" lon="-3.095365"><ele>351</ele><time>2020-08-14T11:14:06Z</time><name>PT1998</name></trkpt>
<trkpt lat="54.640232" lon="-3.095270"><ele>352</ele><time>2020-08-14T11:14:09Z</time><name>PT1999</name></trkpt>
<trkpt lat="54.640232" lon="-3.095219"><ele>351</ele><time>2020-08-14T11:14:12Z</time><name>PT2000</name></trkpt>
<trkpt lat="54.640230" lon="-3.095149"><ele>351</ele><time>2020-08-14T11:14:15Z</time><name>PT2001</name></trkpt>
<trkpt lat="54.640233" lon="-3.095075"><ele>351</ele><time>2020-08-14T11:14:18Z</time><name>PT2002</name></trkpt>
<trkpt lat="54.640247" lon="-3.095032"><ele>350</ele><time>2020-08-14T11:14:21Z</time><name>PT2003</name></trkpt>
<trkpt lat="54.640278" lon="-3.094953"><ele>349</ele><time>2020-08-14T11:14:26Z</time><name>PT2004</name></trkpt>
<trkpt lat="54.640290" lon="-3.094922"><ele>348</ele><time>2020-08-14T11:14:29Z</time><name>PT2005</name></trkpt>
<trkpt lat="54.640311" lon="-3.094830"><ele>347</ele><time>2020-08-14T11:14:32Z</time><name>PT2006</name></trkpt>
<trkpt lat="54.640322" lon="-3.094759"><ele>349</ele><time>2020-08-14T11:14:35Z</time><name>PT2007</name></trkpt>
<trkpt lat="54.640334" lon="-3.094690"><ele>348</ele><time>2020-08-14T11:14:39Z</time><name>PT2008</name></trkpt>
<trkpt lat="54.640356" lon="-3.094619"><ele>348</ele><time>2020-08-14T11:14:42Z</time><name>PT2009</name></trkpt>
<trkpt lat="54.640368" lon="-3.094565"><ele>349</ele><time>2020-08-14T11:14:45Z</time><name>PT2010</name></trkpt>
<trkpt lat="54.640387" lon="-3.094476"><ele>349</ele><time>2020-08-14T11:14:48Z</time><name>PT2011</name></trkpt>
<trkpt lat="54.640396" lon="-3.094390"><ele>348</ele><time>2020-08-14T11:14:52Z</time><name>PT2012</name></trkpt>
<trkpt lat="54.640405" lon="-3.094318"><ele>348</ele><time>2020-08-14T11:14:55Z</time><name>PT2013</name></trkpt>
<trkpt lat="54.640403" lon="-3.094223"><ele>347</ele><time>2020-08-14T11:15:00Z</time><name>PT2014</name></trkpt>
<trkpt lat="54.640411" lon="-3.094158"><ele>347</ele><time>2020-08-14T11:15:03Z</time><name>PT2015</name></trkpt>
<trkpt lat="54.640426" lon="-3.094083"><ele>347</ele><time>2020-08-14T11:15:06Z</time><name>PT2016</name></trkpt>
<trkpt lat="54.640431" lon="-3.094002"><ele>347</ele><time>2020-08-14T11:15:09Z</time><name>PT2017</name></trkpt>
<trkpt lat="54.640433" lon="-3.093950"><ele>346</ele><time>2020-08-14T11:15:12Z</time><name>PT2018</name></trkpt>
<trkpt lat="54.640432" lon="-3.093929"><ele>346</ele><time>2020-08-14T11:15:12Z</time><name>PT2019</name></trkpt>
<trkpt lat="54.640430" lon="-3.093906"><ele>346</ele><time>2020-08-14T11:15:13Z</time><name>PT2020</name></trkpt>
<trkpt lat="54.640429" lon="-3.093885"><ele>346</ele><time>2020-08-14T11:15:15Z</time><name>PT2021</name></trkpt>
<trkpt lat="54.640425" lon="-3.093862"><ele>346</ele><time>2020-08-14T11:15:15Z</time><name>PT2022</name></trkpt>
<trkpt lat="54.640424" lon="-3.093841"><ele>346</ele><time>2020-08-14T11:15:16Z</time><name>PT2023</name></trkpt>
<trkpt lat="54.640424" lon="-3.093819"><ele>346</ele><time>2020-08-14T11:15:18Z</time><name>PT2024</name></trkpt>
<trkpt lat="54.640423" lon="-3.093800"><ele>346</ele><time>2020-08-14T11:15:18Z</time><name>PT2025</name></trkpt>
<trkpt lat="54.640423" lon="-3.093784"><ele>346</ele><time>2020-08-14T11:15:19Z</time><name>PT2026</name></trkpt>
<trkpt lat="54.640422" lon="-3.093764"><ele>346</ele><time>2020-08-14T11:15:21Z</time><name>PT2027</name></trkpt>
<trkpt lat="54.640418" lon="-3.093742"><ele>345</ele><time>2020-08-14T11:15:21Z</time><name>PT2028</name></trkpt>
<trkpt lat="54.640413" lon="-3.093715"><ele>345</ele><time>2020-08-14T11:15:22Z</time><name>PT2029</name></trkpt>
<trkpt lat="54.640409" lon="-3.093688"><ele>346</ele><time>2020-08-14T11:15:24Z</time><name>PT2030</name></trkpt>
<trkpt lat="54.640405" lon="-3.093657"><ele>346</ele><time>2020-08-14T11:15:24Z</time><name>PT2031</name></trkpt>
<trkpt lat="54.640402" lon="-3.093633"><ele>345</ele><time>2020-08-14T11:15:25Z</time><name>PT2032</name></trkpt>
<trkpt lat="54.640397" lon="-3.093615"><ele>346</ele><time>2020-08-14T11:15:27Z</time><name>PT2033</name></trkpt>
<trkpt lat="54.640393" lon="-3.093599"><ele>346</ele><time>2020-08-14T11:15:27Z</time><name>PT2034</name></trkpt>
<trkpt lat="54.640389" lon="-3.093582"><ele>346</ele><time>2020-08-14T11:15:28Z</time><name>PT2035</name></trkpt>
<trkpt lat="54.640386" lon="-3.093559"><ele>345</ele><time>2020-08-14T11:15:30Z</time><name>PT2036</name></trkpt>
<trkpt lat="54.640383" lon="-3.093535"><ele>345</ele><time>2020-08-14T11:15:30Z</time><name>PT2037</name></trkpt>
<trkpt lat="54.640382" lon="-3.093510"><ele>345</ele><time>2020-08-14T11:15:31Z</time><name>PT2038</name></trkpt>
<trkpt lat="54.640378" lon="-3.093482"><ele>345</ele><time>2020-08-14T11:15:33Z</time><name>PT2039</name></trkpt>
<trkpt lat="54.640379" lon="-3.093457"><ele>345</ele><time>2020-08-14T11:15:33Z</time><name>PT2040</name></trkpt>
<trkpt lat="54.640377" lon="-3.093442"><ele>344</ele><time>2020-08-14T11:15:34Z</time><name>PT2041</name></trkpt>
<trkpt lat="54.640373" lon="-3.093427"><ele>345</ele><time>2020-08-14T11:15:36Z</time><name>PT2042</name></trkpt>
<trkpt lat="54.640373" lon="-3.093405"><ele>344</ele><time>2020-08-14T11:15:36Z</time><name>PT2043</name></trkpt>
<trkpt lat="54.640375" lon="-3.093382"><ele>343</ele><time>2020-08-14T11:15:37Z</time><name>PT2044</name></trkpt>
<trkpt lat="54.640378" lon="-3.093356"><ele>342</ele><time>2020-08-14T11:15:39Z</time><name>PT2045</name></trkpt>
<trkpt lat="54.640382" lon="-3.093334"><ele>342</ele><time>2020-08-14T11:15:39Z</time><name>PT2046</name></trkpt>
<trkpt lat="54.640384" lon="-3.093308"><ele>342</ele><time>2020-08-14T11:15:40Z</time><name>PT2047</name></trkpt>
<trkpt lat="54.640386" lon="-3.093279"><ele>342</ele><time>2020-08-14T11:15:42Z</time><name>PT2048</name></trkpt>
<trkpt lat="54.640387" lon="-3.093251"><ele>342</ele><time>2020-08-14T11:15:42Z</time><name>PT2049</name></trkpt>
<trkpt lat="54.640389" lon="-3.093228"><ele>342</ele><time>2020-08-14T11:15:43Z</time><name>PT2050</name></trkpt>
<trkpt lat="54.640392" lon="-3.093213"><ele>341</ele><time>2020-08-14T11:15:45Z</time><name>PT2051</name></trkpt>
<trkpt lat="54.640395" lon="-3.093198"><ele>341</ele><time>2020-08-14T11:15:45Z</time><name>PT2052</name></trkpt>
<trkpt lat="54.640396" lon="-3.093181"><ele>341</ele><time>2020-08-14T11:15:46Z</time><name>PT2053</name></trkpt>
<trkpt lat="54.640400" lon="-3.093161"><ele>341</ele><time>2020-08-14T11:15:48Z</time><name>PT2054</name></trkpt>
<trkpt lat="54.640407" lon="-3.093141"><ele>340</ele><time>2020-08-14T11:15:48Z</time><name>PT2055</name></trkpt>
<trkpt lat="54.640414" lon="-3.093120"><ele>340</ele><time>2020-08-14T11:15:49Z</time><name>PT2056</name></trkpt>
<trkpt lat="54.640424" lon="-3.093098"><ele>340</ele><time>2020-08-14T11:15:51Z</time><name>PT2057</name></trkpt>
<trkpt lat="54.640434" lon="-3.093077"><ele>340</ele><time>2020-08-14T11:15:51Z</time><name>PT2058</name></trkpt>
<trkpt lat="54.640445" lon="-3.093053"><ele>340</ele><time>2020-08-14T11:15:52Z</time><name>PT2059</name></trkpt>
<trkpt lat="54.640456" lon="-3.093032"><ele>340</ele><time>2020-08-14T11:15:54Z</time><name>PT2060</name></trkpt>
<trkpt lat="54.640462" lon="-3.093022"><ele>340</ele><time>2020-08-14T11:15:54Z</time><name>PT2061</name></trkpt>
<trkpt lat="54.640468" lon="-3.093011"><ele>340</ele><time>2020-08-14T11:15:55Z</time><name>PT2062</name></trkpt>
<trkpt lat="54.640476" lon="-3.092993"><ele>340</ele><time>2020-08-14T11:15:57Z</time><name>PT2063</name></trkpt>
<trkpt lat="54.640484" lon="-3.092976"><ele>340</ele><time>2020-08-14T11:15:57Z</time><name>PT2064</name></trkpt>
<trkpt lat="54.640493" lon="-3.092958"><ele>340</ele><time>2020-08-14T11:15:58Z</time><name>PT2065</name></trkpt>
<trkpt lat="54.640503" lon="-3.092941"><ele>340</ele><time>2020-08-14T11:16:00Z</time><name>PT2066</name></trkpt>
<trkpt lat="54.640511" lon="-3.092927"><ele>340</ele><time>2020-08-14T11:16:00Z</time><name>PT2067</name></trkpt>
<trkpt lat="54.640518" lon="-3.092917"><ele>340</ele><time>2020-08-14T11:16:01Z</time><name>PT2068</name></trkpt>
<trkpt lat="54.640522" lon="-3.092904"><ele>339</ele><time>2020-08-14T11:16:03Z</time><name>PT2069</name></trkpt>
<trkpt lat="54.640525" lon="-3.092880"><ele>339</ele><time>2020-08-14T11:16:03Z</time><name>PT2070</name></trkpt>
<trkpt lat="54.640532" lon="-3.092855"><ele>339</ele><time>2020-08-14T11:16:04Z</time><name>PT2071</name></trkpt>
<trkpt lat="54.640543" lon="-3.092837"><ele>339</ele><time>2020-08-14T11:16:06Z</time><name>PT2072</name></trkpt>
<trkpt lat="54.640555" lon="-3.092813"><ele>339</ele><time>2020-08-14T11:16:06Z</time><name>PT2073</name></trkpt>
<trkpt lat="54.640567" lon="-3.092794"><ele>339</ele><time>2020-08-14T11:16:07Z</time><name>PT2074</name></trkpt>
<trkpt lat="54.640574" lon="-3.092782"><ele>339</ele><time>2020-08-14T11:16:09Z</time><name>PT2075</name></trkpt>
<trkpt lat="54.640580" lon="-3.092772"><ele>339</ele><time>2020-08-14T11:16:09Z</time><name>PT2076</name></trkpt>
<trkpt lat="54.640586" lon="-3.092760"><ele>339</ele><time>2020-08-14T11:16:10Z</time><name>PT2077</name></trkpt>
<trkpt lat="54.640594" lon="-3.092744"><ele>339</ele><time>2020-08-14T11:16:12Z</time><name>PT2078</name></trkpt>
<trkpt lat="54.640603" lon="-3.092723"><ele>339</ele><time>2020-08-14T11:16:12Z</time><name>PT2079</name></trkpt>
<trkpt lat="54.640612" lon="-3.092700"><ele>339</ele><time>2020-08-14T11:16:13Z</time><name>PT2080</name></trkpt>
<trkpt lat="54.640623" lon="-3.092678"><ele>340</ele><time>2020-08-14T11:16:15Z</time><name>PT2081</name></trkpt>
<trkpt lat="54.640630" lon="-3.092660"><ele>340</ele><time>2020-08-14T11:16:15Z</time><name>PT2082</name></trkpt>
<trkpt lat="54.640632" lon="-3.092647"><ele>340</ele><time>2020-08-14T11:16:16Z</time><name>PT2083</name></trkpt>
<trkpt lat="54.640635" lon="-3.092633"><ele>339</ele><time>2020-08-14T11:16:18Z</time><name>PT2084</name></trkpt>
<trkpt lat="54.640641" lon="-3.092614"><ele>339</ele><time>2020-08-14T11:16:18Z</time><name>PT2085</name></trkpt>
<trkpt lat="54.640649" lon="-3.092594"><ele>339</ele><time>2020-08-14T11:16:19Z</time><name>PT2086</name></trkpt>
<trkpt lat="54.640658" lon="-3.092573"><ele>339</ele><time>2020-08-14T11:16:21Z</time><name>PT2087</name></trkpt>
<trkpt lat="54.640664" lon="-3.092550"><ele>339</ele><time>2020-08-14T11:16:21Z</time><name>PT2088</name></trkpt>
<trkpt lat="54.640669" lon="-3.092537"><ele>339</ele><time>2020-08-14T11:16:22Z</time><name>PT2089</name></trkpt>
<trkpt lat="54.640670" lon="-3.092530"><ele>339</ele><time>2020-08-14T11:16:24Z</time><name>PT2090</name></trkpt>
<trkpt lat="54.640670" lon="-3.092525"><ele>339</ele><time>2020-08-14T11:16:24Z</time><name>PT2091</name></trkpt>
<trkpt lat="54.640671" lon="-3.092514"><ele>338</ele><time>2020-08-14T11:16:25Z</time><name>PT2092</name></trkpt>
<trkpt lat="54.640670" lon="-3.092507"><ele>338</ele><time>2020-08-14T11:16:27Z</time><name>PT2093</name></trkpt>
<trkpt lat="54.640672" lon="-3.092507"><ele>338</ele><time>2020-08-14T11:16:27Z</time><name>PT2094</name></trkpt>
<trkpt lat="54.640674" lon="-3.092508"><ele>338</ele><time>2020-08-14T11:16:28Z</time><name>PT2095</name></trkpt>
<trkpt lat="54.640675" lon="-3.092502"><ele>338</ele><time>2020-08-14T11:16:30Z</time><name>PT2096</name></trkpt>
<trkpt lat="54.640684" lon="-3.092491"><ele>338</ele><time>2020-08-14T11:16:30Z</time><name>PT2097</name></trkpt>
<trkpt lat="54.640698" lon="-3.092479"><ele>338</ele><time>2020-08-14T11:16:31Z</time><name>PT2098</name></trkpt>
<trkpt lat="54.640713" lon="-3.092467"><ele>338</ele><time>2020-08-14T11:16:33Z</time><name>PT2099</name></trkpt>
<trkpt lat="54.640727" lon="-3.092455"><ele>339</ele><time>2020-08-14T11:16:33Z</time><name>PT2100</name></trkpt>
<trkpt lat="54.640735" lon="-3.092448"><ele>339</ele><time>2020-08-14T11:16:34Z</time><name>PT2101</name></trkpt>
<trkpt lat="54.640743" lon="-3.092440"><ele>339</ele><time>2020-08-14T11:16:36Z</time><name>PT2102</name></trkpt>
<trkpt lat="54.640755" lon="-3.092430"><ele>339</ele><time>2020-08-14T11:16:36Z</time><name>PT2103</name></trkpt>
<trkpt lat="54.640770" lon="-3.092423"><ele>339</ele><time>2020-08-14T11:16:37Z</time><name>PT2104</name></trkpt>
<trkpt lat="54.640783" lon="-3.092411"><ele>339</ele><time>2020-08-14T11:16:39Z</time><name>PT2105</name></trkpt>
<trkpt lat="54.640796" lon="-3.092393"><ele>340</ele><time>2020-08-14T11:16:39Z</time><name>PT2106</name></trkpt>
<trkpt lat="54.640805" lon="-3.092380"><ele>339</ele><time>2020-08-14T11:16:40Z</time><name>PT2107</name></trkpt>
<trkpt lat="54.640812" lon="-3.092369"><ele>339</ele><time>2020-08-14T11:16:42Z</time><name>PT2108</name></trkpt>
<trkpt lat="54.640818" lon="-3.092349"><ele>339</ele><time>2020-08-14T11:16:42Z</time><name>PT2109</name></trkpt>
<trkpt lat="54.640829" lon="-3.092334"><ele>339</ele><time>2020-08-14T11:16:43Z</time><name>PT2110</name></trkpt>
<trkpt lat="54.640839" lon="-3.092319"><ele>338</ele><time>2020-08-14T11:16:45Z</time><name>PT2111</name></trkpt>
<trkpt lat="54.640854" lon="-3.092304"><ele>339</ele><time>2020-08-14T11:16:45Z</time><name>PT2112</name></trkpt>
<trkpt lat="54.640864" lon="-3.092279"><ele>339</ele><time>2020-08-14T11:16:46Z</time><name>PT2113</name></trkpt>
<trkpt lat="54.640872" lon="-3.092264"><ele>339</ele><time>2020-08-14T11:16:48Z</time><name>PT2114</name></trkpt>
<trkpt lat="54.640877" lon="-3.092253"><ele>339</ele><time>2020-08-14T11:16:48Z</time><name>PT2115</name></trkpt>
<trkpt lat="54.640883" lon="-3.092242"><ele>339</ele><time>2020-08-14T11:16:49Z</time><name>PT2116</name></trkpt>
<trkpt lat="54.640893" lon="-3.092227"><ele>339</ele><time>2020-08-14T11:16:51Z</time><name>PT2117</name></trkpt>
<trkpt lat="54.640901" lon="-3.092204"><ele>339</ele><time>2020-08-14T11:16:51Z</time><name>PT2118</name></trkpt>
<trkpt lat="54.640908" lon="-3.092181"><ele>338</ele><time>2020-08-14T11:16:52Z</time><name>PT2119</name></trkpt>
<trkpt lat="54.640914" lon="-3.092160"><ele>338</ele><time>2020-08-14T11:16:54Z</time><name>PT2120</name></trkpt>
<trkpt lat="54.640919" lon="-3.092139"><ele>339</ele><time>2020-08-14T11:16:54Z</time><name>PT2121</name></trkpt>
<trkpt lat="54.640922" lon="-3.092118"><ele>339</ele><time>2020-08-14T11:16:55Z</time><name>PT2122</name></trkpt>
<trkpt lat="54.640925" lon="-3.092102"><ele>340</ele><time>2020-08-14T11:16:57Z</time><name>PT2123</name></trkpt>
<trkpt lat="54.640925" lon="-3.092088"><ele>339</ele><time>2020-08-14T11:16:57Z</time><name>PT2124</name></trkpt>
<trkpt lat="54.640925" lon="-3.092071"><ele>338</ele><time>2020-08-14T11:16:58Z</time><name>PT2125</name></trkpt>
<trkpt lat="54.640928" lon="-3.092047"><ele>338</ele><time>2020-08-14T11:17:00Z</time><name>PT2126</name></trkpt>
<trkpt lat="54.640935" lon="-3.092030"><ele>338</ele><time>2020-08-14T11:17:00Z</time><name>PT2127</name></trkpt>
<trkpt lat="54.640941" lon="-3.092021"><ele>338</ele><time>2020-08-14T11:17:01Z</time><name>PT2128</name></trkpt>
<trkpt lat="54.640945" lon="-3.092010"><ele>338</ele><time>2020-08-14T11:17:03Z</time><name>PT2129</name></trkpt>
<trkpt lat="54.640950" lon="-3.091991"><ele>339</ele><time>2020-08-14T11:17:03Z</time><name>PT2130</name></trkpt>
<trkpt lat="54.640954" lon="-3.091970"><ele>339</ele><time>2020-08-14T11:17:04Z</time><name>PT2131</name></trkpt>
<trkpt lat="54.640953" lon="-3.091943"><ele>339</ele><time>2020-08-14T11:17:06Z</time><name>PT2132</name></trkpt>
<trkpt lat="54.640951" lon="-3.091921"><ele>339</ele><time>2020-08-14T11:17:06Z</time><name>PT2133</name></trkpt>
<trkpt lat="54.640951" lon="-3.091903"><ele>340</ele><time>2020-08-14T11:17:07Z</time><name>PT2134</name></trkpt>
<trkpt lat="54.640950" lon="-3.091884"><ele>340</ele><time>2020-08-14T11:17:09Z</time><name>PT2135</name></trkpt>
<trkpt lat="54.640949" lon="-3.091863"><ele>340</ele><time>2020-08-14T11:17:09Z</time><name>PT2136</name></trkpt>
<trkpt lat="54.640946" lon="-3.091838"><ele>340</ele><time>2020-08-14T11:17:10Z</time><name>PT2137</name></trkpt>
<trkpt lat="54.640944" lon="-3.091815"><ele>340</ele><time>2020-08-14T11:17:12Z</time><name>PT2138</name></trkpt>
<trkpt lat="54.640942" lon="-3.091800"><ele>340</ele><time>2020-08-14T11:17:12Z</time><name>PT2139</name></trkpt>
<trkpt lat="54.640941" lon="-3.091780"><ele>340</ele><time>2020-08-14T11:17:13Z</time><name>PT2140</name></trkpt>
<trkpt lat="54.640940" lon="-3.091759"><ele>340</ele><time>2020-08-14T11:17:15Z</time><name>PT2141</name></trkpt>
<trkpt lat="54.640939" lon="-3.091736"><ele>340</ele><time>2020-08-14T11:17:15Z</time><name>PT2142</name></trkpt>
<trkpt lat="54.640935" lon="-3.091715"><ele>340</ele><time>2020-08-14T11:17:16Z</time><name>PT2143</name></trkpt>
<trkpt lat="54.640931" lon="-3.091701"><ele>341</ele><time>2020-08-14T11:17:18Z</time><name>PT2144</name></trkpt>
<trkpt lat="54.640927" lon="-3.091682"><ele>341</ele><time>2020-08-14T11:17:18Z</time><name>PT2145</name></trkpt>
<trkpt lat="54.640921" lon="-3.091662"><ele>340</ele><time>2020-08-14T11:17:19Z</time><name>PT2146</name></trkpt>
<trkpt lat="54.640915" lon="-3.091640"><ele>341</ele><time>2020-08-14T11:17:20Z</time><name>PT2147</name></trkpt>
<trkpt lat="54.640915" lon="-3.091616"><ele>341</ele><time>2020-08-14T11:17:21Z</time><name>PT2148</name></trkpt>
<trkpt lat="54.640914" lon="-3.091603"><ele>341</ele><time>2020-08-14T11:17:23Z</time><name>PT2149</name></trkpt>
<trkpt lat="54.640912" lon="-3.091589"><ele>341</ele><time>2020-08-14T11:17:23Z</time><name>PT2150</name></trkpt>
<trkpt lat="54.640909" lon="-3.091570"><ele>341</ele><time>2020-08-14T11:17:24Z</time><name>PT2151</name></trkpt>
<trkpt lat="54.640906" lon="-3.091549"><ele>342</ele><time>2020-08-14T11:17:26Z</time><name>PT2152</name></trkpt>
<trkpt lat="54.640906" lon="-3.091526"><ele>342</ele><time>2020-08-14T11:17:26Z</time><name>PT2153</name></trkpt>
<trkpt lat="54.640906" lon="-3.091509"><ele>342</ele><time>2020-08-14T11:17:27Z</time><name>PT2154</name></trkpt>
<trkpt lat="54.640905" lon="-3.091489"><ele>341</ele><time>2020-08-14T11:17:29Z</time><name>PT2155</name></trkpt>
<trkpt lat="54.640905" lon="-3.091468"><ele>341</ele><time>2020-08-14T11:17:29Z</time><name>PT2156</name></trkpt>
<trkpt lat="54.640904" lon="-3.091447"><ele>341</ele><time>2020-08-14T11:17:30Z</time><name>PT2157</name></trkpt>
<trkpt lat="54.640901" lon="-3.091423"><ele>341</ele><time>2020-08-14T11:17:32Z</time><name>PT2158</name></trkpt>
<trkpt lat="54.640899" lon="-3.091407"><ele>341</ele><time>2020-08-14T11:17:32Z</time><name>PT2159</name></trkpt>
<trkpt lat="54.640895" lon="-3.091388"><ele>342</ele><time>2020-08-14T11:17:33Z</time><name>PT2160</name></trkpt>
<trkpt lat="54.640892" lon="-3.091365"><ele>341</ele><time>2020-08-14T11:17:35Z</time><name>PT2161</name></trkpt>
<trkpt lat="54.640887" lon="-3.091343"><ele>342</ele><time>2020-08-14T11:17:35Z</time><name>PT2162</name></trkpt>
<trkpt lat="54.640880" lon="-3.091321"><ele>341</ele><time>2020-08-14T11:17:36Z</time><name>PT2163</name></trkpt>
<trkpt lat="54.640876" lon="-3.091298"><ele>341</ele><time>2020-08-14T11:17:38Z</time><name>PT2164</name></trkpt>
<trkpt lat="54.640872" lon="-3.091283"><ele>341</ele><time>2020-08-14T11:17:38Z</time><name>PT2165</name></trkpt>
<trkpt lat="54.640868" lon="-3.091276"><ele>341</ele><time>2020-08-14T11:17:39Z</time><name>PT2166</name></trkpt>
<trkpt lat="54.640860" lon="-3.091274"><ele>341</ele><time>2020-08-14T11:17:41Z</time><name>PT2167</name></trkpt>
<trkpt lat="54.640847" lon="-3.091265"><ele>341</ele><time>2020-08-14T11:17:41Z</time><name>PT2168</name></trkpt>
<trkpt lat="54.640835" lon="-3.091256"><ele>341</ele><time>2020-08-14T11:17:42Z</time><name>PT2169</name></trkpt>
<trkpt lat="54.640824" lon="-3.091246"><ele>342</ele><time>2020-08-14T11:17:44Z</time><name>PT2170</name></trkpt>
<trkpt lat="54.640817" lon="-3.091237"><ele>342</ele><time>2020-08-14T11:17:44Z</time><name>PT2171</name></trkpt>
<trkpt lat="54.640813" lon="-3.091230"><ele>342</ele><time>2020-08-14T11:17:45Z</time><name>PT2172</name></trkpt>
<trkpt lat="54.640808" lon="-3.091224"><ele>342</ele><time>2020-08-14T11:17:46Z</time><name>PT2173</name></trkpt>
<trkpt lat="54.640800" lon="-3.091218"><ele>342</ele><time>2020-08-14T11:17:47Z</time><name>PT2174</name></trkpt>
<trkpt lat="54.640791" lon="-3.091211"><ele>342</ele><time>2020-08-14T11:17:49Z</time><name>PT2175</name></trkpt>
<trkpt lat="54.640776" lon="-3.091212"><ele>342</ele><time>2020-08-14T11:17:49Z</time><name>PT2176</name></trkpt>
<trkpt lat="54.640765" lon="-3.091213"><ele>342</ele><time>2020-08-14T11:17:50Z</time><name>PT2177</name></trkpt>
<trkpt lat="54.640754" lon="-3.091218"><ele>342</ele><time>2020-08-14T11:17:52Z</time><name>PT2178</name></trkpt>
<trkpt lat="54.640740" lon="-3.091220"><ele>342</ele><time>2020-08-14T11:17:52Z</time><name>PT2179</name></trkpt>
<trkpt lat="54.640729" lon="-3.091221"><ele>342</ele><time>2020-08-14T11:17:53Z</time><name>PT2180</name></trkpt>
<trkpt lat="54.640719" lon="-3.091225"><ele>342</ele><time>2020-08-14T11:17:55Z</time><name>PT2181</name></trkpt>
<trkpt lat="54.640705" lon="-3.091227"><ele>342</ele><time>2020-08-14T11:17:55Z</time><name>PT2182</name></trkpt>
<trkpt lat="54.640693" lon="-3.091226"><ele>342</ele><time>2020-08-14T11:17:56Z</time><name>PT2183</name></trkpt>
<trkpt lat="54.640678" lon="-3.091218"><ele>342</ele><time>2020-08-14T11:17:58Z</time><name>PT2184</name></trkpt>
<trkpt lat="54.640666" lon="-3.091212"><ele>342</ele><time>2020-08-14T11:17:58Z</time><name>PT2185</name></trkpt>
<trkpt lat="54.640658" lon="-3.091209"><ele>342</ele><time>2020-08-14T11:18:00Z</time><name>PT2186</name></trkpt>
<trkpt lat="54.640650" lon="-3.091207"><ele>342</ele><time>2020-08-14T11:18:01Z</time><name>PT2187</name></trkpt>
<trkpt lat="54.640639" lon="-3.091199"><ele>342</ele><time>2020-08-14T11:18:01Z</time><name>PT2188</name></trkpt>
<trkpt lat="54.640626" lon="-3.091190"><ele>342</ele><time>2020-08-14T11:18:02Z</time><name>PT2189</name></trkpt>
<trkpt lat="54.640614" lon="-3.091176"><ele>342</ele><time>2020-08-14T11:18:04Z</time><name>PT2190</name></trkpt>
<trkpt lat="54.640605" lon="-3.091160"><ele>342</ele><time>2020-08-14T11:18:04Z</time><name>PT2191</name></trkpt>
<trkpt lat="54.640599" lon="-3.091147"><ele>342</ele><time>2020-08-14T11:18:05Z</time><name>PT2192</name></trkpt>
<trkpt lat="54.640594" lon="-3.091140"><ele>342</ele><time>2020-08-14T11:18:07Z</time><name>PT2193</name></trkpt>
<trkpt lat="54.640586" lon="-3.091133"><ele>342</ele><time>2020-08-14T11:18:07Z</time><name>PT2194</name></trkpt>
<trkpt lat="54.640580" lon="-3.091119"><ele>343</ele><time>2020-08-14T11:18:08Z</time><name>PT2195</name></trkpt>
<trkpt lat="54.640574" lon="-3.091101"><ele>342</ele><time>2020-08-14T11:18:10Z</time><name>PT2196</name></trkpt>
<trkpt lat="54.640565" lon="-3.091082"><ele>342</ele><time>2020-08-14T11:18:10Z</time><name>PT2197</name></trkpt>
<trkpt lat="54.640538" lon="-3.091046"><ele>343</ele><time>2020-08-14T11:18:14Z</time><name>PT2198</name></trkpt>
<trkpt lat="54.640508" lon="-3.091022"><ele>343</ele><time>2020-08-14T11:18:17Z</time><name>PT2199</name></trkpt>
<trkpt lat="54.640481" lon="-3.090994"><ele>344</ele><time>2020-08-14T11:18:20Z</time><name>PT2200</name></trkpt>
<trkpt lat="54.640446" lon="-3.090954"><ele>345</ele><time>2020-08-14T11:18:23Z</time><name>PT2201</name></trkpt>
<trkpt lat="54.640417" lon="-3.090925"><ele>346</ele><time>2020-08-14T11:18:27Z</time><name>PT2202</name></trkpt>
<trkpt lat="54.640382" lon="-3.090879"><ele>347</ele><time>2020-08-14T11:18:30Z</time><name>PT2203</name></trkpt>
<trkpt lat="54.640349" lon="-3.090841"><ele>346</ele><time>2020-08-14T11:18:33Z</time><name>PT2204</name></trkpt>
<trkpt lat="54.640327" lon="-3.090812"><ele>347</ele><time>2020-08-14T11:18:36Z</time><name>PT2205</name></trkpt>
<trkpt lat="54.640291" lon="-3.090758"><ele>348</ele><time>2020-08-14T11:18:40Z</time><name>PT2206</name></trkpt>
<trkpt lat="54.640245" lon="-3.090743"><ele>349</ele><time>2020-08-14T11:18:45Z</time><name>PT2207</name></trkpt>
<trkpt lat="54.640196" lon="-3.090723"><ele>349</ele><time>2020-08-14T11:18:48Z</time><name>PT2208</name></trkpt>
<trkpt lat="54.640151" lon="-3.090714"><ele>349</ele><time>2020-08-14T11:18:52Z</time><name>PT2209</name></trkpt>
<trkpt lat="54.640117" lon="-3.090724"><ele>348</ele><time>2020-08-14T11:18:55Z</time><name>PT2210</name></trkpt>
<trkpt lat="54.640074" lon="-3.090746"><ele>348</ele><time>2020-08-14T11:19:00Z</time><name>PT2211</name></trkpt>
<trkpt lat="54.640031" lon="-3.090792"><ele>348</ele><time>2020-08-14T11:19:03Z</time><name>PT2212</name></trkpt>
<trkpt lat="54.640005" lon="-3.090841"><ele>347</ele><time>2020-08-14T11:19:08Z</time><name>PT2213</name></trkpt>
<trkpt lat="54.639972" lon="-3.090901"><ele>347</ele><time>2020-08-14T11:19:11Z</time><name>PT2214</name></trkpt>
<trkpt lat="54.639948" lon="-3.090925"><ele>347</ele><time>2020-08-14T11:19:14Z</time><name>PT2215</name></trkpt>
<trkpt lat="54.639915" lon="-3.090945"><ele>347</ele><time>2020-08-14T11:19:18Z</time><name>PT2216</name></trkpt>
<trkpt lat="54.639878" lon="-3.090948"><ele>346</ele><time>2020-08-14T11:19:21Z</time><name>PT2217</name></trkpt>
<trkpt lat="54.639837" lon="-3.090926"><ele>344</ele><time>2020-08-14T11:19:25Z</time><name>PT2218</name></trkpt>
<trkpt lat="54.639795" lon="-3.090883"><ele>344</ele><time>2020-08-14T11:19:28Z</time><name>PT2219</name></trkpt>
<trkpt lat="54.639773" lon="-3.090854"><ele>343</ele><time>2020-08-14T11:19:32Z</time><name>PT2220</name></trkpt>
<trkpt lat="54.639743" lon="-3.090804"><ele>343</ele><time>2020-08-14T11:19:35Z</time><name>PT2221</name></trkpt>
<trkpt lat="54.639700" lon="-3.090738"><ele>343</ele><time>2020-08-14T11:19:38Z</time><name>PT2222</name></trkpt>
<trkpt lat="54.639672" lon="-3.090701"><ele>342</ele><time>2020-08-14T11:19:41Z</time><name>PT2223</name></trkpt>
<trkpt lat="54.639637" lon="-3.090644"><ele>342</ele><time>2020-08-14T11:19:44Z</time><name>PT2224</name></trkpt>
<trkpt lat="54.639598" lon="-3.090606"><ele>341</ele><time>2020-08-14T11:19:48Z</time><name>PT2225</name></trkpt>
<trkpt lat="54.639567" lon="-3.090573"><ele>340</ele><time>2020-08-14T11:19:51Z</time><name>PT2226</name></trkpt>
<trkpt lat="54.639526" lon="-3.090528"><ele>339</ele><time>2020-08-14T11:19:54Z</time><name>PT2227</name></trkpt>
<trkpt lat="54.639498" lon="-3.090512"><ele>339</ele><time>2020-08-14T11:19:57Z</time><name>PT2228</name></trkpt>
<trkpt lat="54.639461" lon="-3.090472"><ele>339</ele><time>2020-08-14T11:20:00Z</time><name>PT2229</name></trkpt>
<trkpt lat="54.639429" lon="-3.090432"><ele>338</ele><time>2020-08-14T11:20:03Z</time><name>PT2230</name></trkpt>
<trkpt lat="54.639398" lon="-3.090392"><ele>338</ele><time>2020-08-14T11:20:06Z</time><name>PT2231</name></trkpt>
<trkpt lat="54.639365" lon="-3.090337"><ele>338</ele><time>2020-08-14T11:20:10Z</time><name>PT2232</name></trkpt>
<trkpt lat="54.639338" lon="-3.090267"><ele>336</ele><time>2020-08-14T11:20:13Z</time><name>PT2233</name></trkpt>
<trkpt lat="54.639319" lon="-3.090237"><ele>336</ele><time>2020-08-14T11:20:15Z</time><name>PT2234</name></trkpt>
<trkpt lat="54.639309" lon="-3.090222"><ele>336</ele><time>2020-08-14T11:20:16Z</time><name>PT2235</name></trkpt>
<trkpt lat="54.639302" lon="-3.090205"><ele>336</ele><time>2020-08-14T11:20:18Z</time><name>PT2236</name></trkpt>
<trkpt lat="54.639298" lon="-3.090189"><ele>336</ele><time>2020-08-14T11:20:18Z</time><name>PT2237</name></trkpt>
<trkpt lat="54.639292" lon="-3.090173"><ele>336</ele><time>2020-08-14T11:20:19Z</time><name>PT2238</name></trkpt>
<trkpt lat="54.639287" lon="-3.090156"><ele>335</ele><time>2020-08-14T11:20:21Z</time><name>PT2239</name></trkpt>
<trkpt lat="54.639282" lon="-3.090138"><ele>335</ele><time>2020-08-14T11:20:21Z</time><name>PT2240</name></trkpt>
<trkpt lat="54.639274" lon="-3.090118"><ele>335</ele><time>2020-08-14T11:20:22Z</time><name>PT2241</name></trkpt>
<trkpt lat="54.639267" lon="-3.090101"><ele>335</ele><time>2020-08-14T11:20:24Z</time><name>PT2242</name></trkpt>
<trkpt lat="54.639261" lon="-3.090084"><ele>335</ele><time>2020-08-14T11:20:24Z</time><name>PT2243</name></trkpt>
<trkpt lat="54.639257" lon="-3.090067"><ele>335</ele><time>2020-08-14T11:20:25Z</time><name>PT2244</name></trkpt>
<trkpt lat="54.639254" lon="-3.090053"><ele>335</ele><time>2020-08-14T11:20:27Z</time><name>PT2245</name></trkpt>
<trkpt lat="54.639252" lon="-3.090048"><ele>336</ele><time>2020-08-14T11:20:27Z</time><name>PT2246</name></trkpt>
<trkpt lat="54.639248" lon="-3.090042"><ele>336</ele><time>2020-08-14T11:20:28Z</time><name>PT2247</name></trkpt>
<trkpt lat="54.639244" lon="-3.090042"><ele>336</ele><time>2020-08-14T11:20:30Z</time><name>PT2248</name></trkpt>
<trkpt lat="54.639242" lon="-3.090042"><ele>336</ele><time>2020-08-14T11:20:30Z</time><name>PT2249</name></trkpt>
<trkpt lat="54.639239" lon="-3.090039"><ele>336</ele><time>2020-08-14T11:20:31Z</time><name>PT2250</name></trkpt>
<trkpt lat="54.639238" lon="-3.090041"><ele>336</ele><time>2020-08-14T11:20:33Z</time><name>PT2251</name></trkpt>
<trkpt lat="54.639237" lon="-3.090047"><ele>336</ele><time>2020-08-14T11:20:33Z</time><name>PT2252</name></trkpt>
<trkpt lat="54.639235" lon="-3.090046"><ele>336</ele><time>2020-08-14T11:20:34Z</time><name>PT2253</name></trkpt>
<trkpt lat="54.639238" lon="-3.090030"><ele>336</ele><time>2020-08-14T11:20:45Z</time><name>PT2254</name></trkpt>
<trkpt lat="54.639236" lon="-3.090006"><ele>336</ele><time>2020-08-14T11:20:46Z</time><name>PT2255</name></trkpt>
<trkpt lat="54.639232" lon="-3.089990"><ele>336</ele><time>2020-08-14T11:20:48Z</time><name>PT2256</name></trkpt>
<trkpt lat="54.639227" lon="-3.089973"><ele>336</ele><time>2020-08-14T11:20:48Z</time><name>PT2257</name></trkpt>
<trkpt lat="54.639225" lon="-3.089949"><ele>336</ele><time>2020-08-14T11:20:49Z</time><name>PT2258</name></trkpt>
<trkpt lat="54.639223" lon="-3.089924"><ele>337</ele><time>2020-08-14T11:20:51Z</time><name>PT2259</name></trkpt>
<trkpt lat="54.639222" lon="-3.089900"><ele>337</ele><time>2020-08-14T11:20:51Z</time><name>PT2260</name></trkpt>
<trkpt lat="54.639220" lon="-3.089883"><ele>337</ele><time>2020-08-14T11:20:52Z</time><name>PT2261</name></trkpt>
<trkpt lat="54.639219" lon="-3.089862"><ele>337</ele><time>2020-08-14T11:20:54Z</time><name>PT2262</name></trkpt>
<trkpt lat="54.639220" lon="-3.089843"><ele>337</ele><time>2020-08-14T11:20:54Z</time><name>PT2263</name></trkpt>
<trkpt lat="54.639217" lon="-3.089825"><ele>336</ele><time>2020-08-14T11:20:55Z</time><name>PT2264</name></trkpt>
<trkpt lat="54.639214" lon="-3.089797"><ele>336</ele><time>2020-08-14T11:20:56Z</time><name>PT2265</name></trkpt>
<trkpt lat="54.639208" lon="-3.089770"><ele>336</ele><time>2020-08-14T11:20:57Z</time><name>PT2266</name></trkpt>
<trkpt lat="54.639202" lon="-3.089750"><ele>336</ele><time>2020-08-14T11:20:59Z</time><name>PT2267</name></trkpt>
<trkpt lat="54.639198" lon="-3.089737"><ele>336</ele><time>2020-08-14T11:20:59Z</time><name>PT2268</name></trkpt>
<trkpt lat="54.639191" lon="-3.089718"><ele>336</ele><time>2020-08-14T11:21:00Z</time><name>PT2269</name></trkpt>
<trkpt lat="54.639184" lon="-3.089697"><ele>336</ele><time>2020-08-14T11:21:02Z</time><name>PT2270</name></trkpt>
<trkpt lat="54.639180" lon="-3.089673"><ele>336</ele><time>2020-08-14T11:21:02Z</time><name>PT2271</name></trkpt>
<trkpt lat="54.639175" lon="-3.089650"><ele>336</ele><time>2020-08-14T11:21:03Z</time><name>PT2272</name></trkpt>
<trkpt lat="54.639168" lon="-3.089627"><ele>336</ele><time>2020-08-14T11:21:05Z</time><name>PT2273</name></trkpt>
<trkpt lat="54.639162" lon="-3.089615"><ele>336</ele><time>2020-08-14T11:21:05Z</time><name>PT2274</name></trkpt>
<trkpt lat="54.639158" lon="-3.089605"><ele>336</ele><time>2020-08-14T11:21:06Z</time><name>PT2275</name></trkpt>
<trkpt lat="54.639151" lon="-3.089593"><ele>336</ele><time>2020-08-14T11:21:08Z</time><name>PT2276</name></trkpt>
<trkpt lat="54.639140" lon="-3.089576"><ele>335</ele><time>2020-08-14T11:21:08Z</time><name>PT2277</name></trkpt>
<trkpt lat="54.639128" lon="-3.089563"><ele>336</ele><time>2020-08-14T11:21:09Z</time><name>PT2278</name></trkpt>
<trkpt lat="54.639117" lon="-3.089544"><ele>336</ele><time>2020-08-14T11:21:11Z</time><name>PT2279</name></trkpt>
<trkpt lat="54.639106" lon="-3.089524"><ele>336</ele><time>2020-08-14T11:21:11Z</time><name>PT2280</name></trkpt>
<trkpt lat="54.639095" lon="-3.089510"><ele>336</ele><time>2020-08-14T11:21:12Z</time><name>PT2281</name></trkpt>
<trkpt lat="54.639088" lon="-3.089500"><ele>336</ele><time>2020-08-14T11:21:14Z</time><name>PT2282</name></trkpt>
<trkpt lat="54.639081" lon="-3.089488"><ele>336</ele><time>2020-08-14T11:21:14Z</time><name>PT2283</name></trkpt>
<trkpt lat="54.639071" lon="-3.089479"><ele>335</ele><time>2020-08-14T11:21:15Z</time><name>PT2284</name></trkpt>
<trkpt lat="54.639058" lon="-3.089463"><ele>336</ele><time>2020-08-14T11:21:17Z</time><name>PT2285</name></trkpt>
<trkpt lat="54.639048" lon="-3.089443"><ele>336</ele><time>2020-08-14T11:21:17Z</time><name>PT2286</name></trkpt>
<trkpt lat="54.639035" lon="-3.089423"><ele>336</ele><time>2020-08-14T11:21:18Z</time><name>PT2287</name></trkpt>
<trkpt lat="54.639026" lon="-3.089408"><ele>336</ele><time>2020-08-14T11:21:20Z</time><name>PT2288</name></trkpt>
<trkpt lat="54.639019" lon="-3.089402"><ele>336</ele><time>2020-08-14T11:21:20Z</time><name>PT2289</name></trkpt>
<trkpt lat="54.639008" lon="-3.089389"><ele>336</ele><time>2020-08-14T11:21:21Z</time><name>PT2290</name></trkpt>
<trkpt lat="54.638999" lon="-3.089370"><ele>335</ele><time>2020-08-14T11:21:23Z</time><name>PT2291</name></trkpt>
<trkpt lat="54.638991" lon="-3.089344"><ele>335</ele><time>2020-08-14T11:21:23Z</time><name>PT2292</name></trkpt>
<trkpt lat="54.638982" lon="-3.089319"><ele>335</ele><time>2020-08-14T11:21:24Z</time><name>PT2293</name></trkpt>
<trkpt lat="54.638975" lon="-3.089298"><ele>335</ele><time>2020-08-14T11:21:26Z</time><name>PT2294</name></trkpt>
<trkpt lat="54.638970" lon="-3.089286"><ele>335</ele><time>2020-08-14T11:21:26Z</time><name>PT2295</name></trkpt>
<trkpt lat="54.638963" lon="-3.089270"><ele>335</ele><time>2020-08-14T11:21:27Z</time><name>PT2296</name></trkpt>
<trkpt lat="54.638953" lon="-3.089256"><ele>335</ele><time>2020-08-14T11:21:29Z</time><name>PT2297</name></trkpt>
<trkpt lat="54.638944" lon="-3.089238"><ele>335</ele><time>2020-08-14T11:21:29Z</time><name>PT2298</name></trkpt>
<trkpt lat="54.638936" lon="-3.089211"><ele>335</ele><time>2020-08-14T11:21:30Z</time><name>PT2299</name></trkpt>
<trkpt lat="54.638926" lon="-3.089182"><ele>334</ele><time>2020-08-14T11:21:32Z</time><name>PT2300</name></trkpt>
<trkpt lat="54.638918" lon="-3.089165"><ele>334</ele><time>2020-08-14T11:21:32Z</time><name>PT2301</name></trkpt>
<trkpt lat="54.638912" lon="-3.089156"><ele>334</ele><time>2020-08-14T11:21:33Z</time><name>PT2302</name></trkpt>
<trkpt lat="54.638903" lon="-3.089145"><ele>334</ele><time>2020-08-14T11:21:35Z</time><name>PT2303</name></trkpt>
<trkpt lat="54.638895" lon="-3.089127"><ele>334</ele><time>2020-08-14T11:21:35Z</time><name>PT2304</name></trkpt>
<trkpt lat="54.638886" lon="-3.089106"><ele>335</ele><time>2020-08-14T11:21:36Z</time><name>PT2305</name></trkpt>
<trkpt lat="54.638880" lon="-3.089080"><ele>334</ele><time>2020-08-14T11:21:38Z</time><name>PT2306</name></trkpt>
<trkpt lat="54.638873" lon="-3.089057"><ele>335</ele><time>2020-08-14T11:21:38Z</time><name>PT2307</name></trkpt>
<trkpt lat="54.638867" lon="-3.089041"><ele>334</ele><time>2020-08-14T11:21:39Z</time><name>PT2308</name></trkpt>
<trkpt lat="54.638863" lon="-3.089026"><ele>334</ele><time>2020-08-14T11:21:41Z</time><name>PT2309</name></trkpt>
<trkpt lat="54.638856" lon="-3.089008"><ele>334</ele><time>2020-08-14T11:21:41Z</time><name>PT2310</name></trkpt>
<trkpt lat="54.638850" lon="-3.088991"><ele>334</ele><time>2020-08-14T11:21:42Z</time><name>PT2311</name></trkpt>
<trkpt lat="54.638843" lon="-3.088969"><ele>334</ele><time>2020-08-14T11:21:44Z</time><name>PT2312</name></trkpt>
<trkpt lat="54.638835" lon="-3.088946"><ele>334</ele><time>2020-08-14T11:21:44Z</time><name>PT2313</name></trkpt>
<trkpt lat="54.638822" lon="-3.088930"><ele>334</ele><time>2020-08-14T11:21:45Z</time><name>PT2314</name></trkpt>
<trkpt lat="54.638813" lon="-3.088918"><ele>334</ele><time>2020-08-14T11:21:47Z</time><name>PT2315</name></trkpt>
<trkpt lat="54.638807" lon="-3.088915"><ele>334</ele><time>2020-08-14T11:21:47Z</time><name>PT2316</name></trkpt>
<trkpt lat="54.638800" lon="-3.088908"><ele>333</ele><time>2020-08-14T11:21:48Z</time><name>PT2317</name></trkpt>
<trkpt lat="54.638786" lon="-3.088898"><ele>333</ele><time>2020-08-14T11:21:50Z</time><name>PT2318</name></trkpt>
<trkpt lat="54.638774" lon="-3.088881"><ele>333</ele><time>2020-08-14T11:21:50Z</time><name>PT2319</name></trkpt>
<trkpt lat="54.638766" lon="-3.088854"><ele>333</ele><time>2020-08-14T11:21:51Z</time><name>PT2320</name></trkpt>
<trkpt lat="54.638760" lon="-3.088825"><ele>333</ele><time>2020-08-14T11:21:53Z</time><name>PT2321</name></trkpt>
<trkpt lat="54.638756" lon="-3.088797"><ele>333</ele><time>2020-08-14T11:21:53Z</time><name>PT2322</name></trkpt>
<trkpt lat="54.638754" lon="-3.088779"><ele>333</ele><time>2020-08-14T11:21:54Z</time><name>PT2323</name></trkpt>
<trkpt lat="54.638750" lon="-3.088765"><ele>333</ele><time>2020-08-14T11:21:56Z</time><name>PT2324</name></trkpt>
<trkpt lat="54.638748" lon="-3.088749"><ele>332</ele><time>2020-08-14T11:21:56Z</time><name>PT2325</name></trkpt>
<trkpt lat="54.638748" lon="-3.088728"><ele>332</ele><time>2020-08-14T11:21:57Z</time><name>PT2326</name></trkpt>
<trkpt lat="54.638747" lon="-3.088704"><ele>332</ele><time>2020-08-14T11:21:59Z</time><name>PT2327</name></trkpt>
<trkpt lat="54.638743" lon="-3.088678"><ele>333</ele><time>2020-08-14T11:21:59Z</time><name>PT2328</name></trkpt>
<trkpt lat="54.638742" lon="-3.088652"><ele>333</ele><time>2020-08-14T11:22:00Z</time><name>PT2329</name></trkpt>
<trkpt lat="54.638743" lon="-3.088639"><ele>333</ele><time>2020-08-14T11:22:02Z</time><name>PT2330</name></trkpt>
<trkpt lat="54.638741" lon="-3.088627"><ele>334</ele><time>2020-08-14T11:22:02Z</time><name>PT2331</name></trkpt>
<trkpt lat="54.638739" lon="-3.088612"><ele>332</ele><time>2020-08-14T11:22:03Z</time><name>PT2332</name></trkpt>
<trkpt lat="54.638740" lon="-3.088595"><ele>333</ele><time>2020-08-14T11:22:05Z</time><name>PT2333</name></trkpt>
<trkpt lat="54.638736" lon="-3.088580"><ele>333</ele><time>2020-08-14T11:22:05Z</time><name>PT2334</name></trkpt>
<trkpt lat="54.638723" lon="-3.088565"><ele>333</ele><time>2020-08-14T11:22:06Z</time><name>PT2335</name></trkpt>
<trkpt lat="54.638714" lon="-3.088552"><ele>333</ele><time>2020-08-14T11:22:08Z</time><name>PT2336</name></trkpt>
<trkpt lat="54.638709" lon="-3.088547"><ele>333</ele><time>2020-08-14T11:22:08Z</time><name>PT2337</name></trkpt>
<trkpt lat="54.638701" lon="-3.088543"><ele>333</ele><time>2020-08-14T11:22:09Z</time><name>PT2338</name></trkpt>
<trkpt lat="54.638689" lon="-3.088536"><ele>333</ele><time>2020-08-14T11:22:11Z</time><name>PT2339</name></trkpt>
<trkpt lat="54.638677" lon="-3.088532"><ele>332</ele><time>2020-08-14T11:22:11Z</time><name>PT2340</name></trkpt>
<trkpt lat="54.638664" lon="-3.088528"><ele>332</ele><time>2020-08-14T11:22:12Z</time><name>PT2341</name></trkpt>
<trkpt lat="54.638654" lon="-3.088521"><ele>331</ele><time>2020-08-14T11:22:14Z</time><name>PT2342</name></trkpt>
<trkpt lat="54.638645" lon="-3.088528"><ele>331</ele><time>2020-08-14T11:22:14Z</time><name>PT2343</name></trkpt>
<trkpt lat="54.638633" lon="-3.088538"><ele>331</ele><time>2020-08-14T11:22:15Z</time><name>PT2344</name></trkpt>
<trkpt lat="54.638620" lon="-3.088549"><ele>332</ele><time>2020-08-14T11:22:17Z</time><name>PT2345</name></trkpt>
<trkpt lat="54.638608" lon="-3.088564"><ele>331</ele><time>2020-08-14T11:22:17Z</time><name>PT2346</name></trkpt>
<trkpt lat="54.638600" lon="-3.088579"><ele>331</ele><time>2020-08-14T11:22:18Z</time><name>PT2347</name></trkpt>
<trkpt lat="54.638595" lon="-3.088592"><ele>331</ele><time>2020-08-14T11:22:20Z</time><name>PT2348</name></trkpt>
<trkpt lat="54.638584" lon="-3.088607"><ele>331</ele><time>2020-08-14T11:22:20Z</time><name>PT2349</name></trkpt>
<trkpt lat="54.638571" lon="-3.088620"><ele>332</ele><time>2020-08-14T11:22:21Z</time><name>PT2350</name></trkpt>
<trkpt lat="54.638557" lon="-3.088629"><ele>332</ele><time>2020-08-14T11:22:23Z</time><name>PT2351</name></trkpt>
<trkpt lat="54.638541" lon="-3.088641"><ele>332</ele><time>2020-08-14T11:22:23Z</time><name>PT2352</name></trkpt>
<trkpt lat="54.638527" lon="-3.088646"><ele>332</ele><time>2020-08-14T11:22:24Z</time><name>PT2353</name></trkpt>
<trkpt lat="54.638518" lon="-3.088652"><ele>332</ele><time>2020-08-14T11:22:26Z</time><name>PT2354</name></trkpt>
<trkpt lat="54.638506" lon="-3.088653"><ele>333</ele><time>2020-08-14T11:22:26Z</time><name>PT2355</name></trkpt>
<trkpt lat="54.638492" lon="-3.088649"><ele>332</ele><time>2020-08-14T11:22:27Z</time><name>PT2356</name></trkpt>
<trkpt lat="54.638477" lon="-3.088651"><ele>332</ele><time>2020-08-14T11:22:29Z</time><name>PT2357</name></trkpt>
<trkpt lat="54.638462" lon="-3.088655"><ele>333</ele><time>2020-08-14T11:22:29Z</time><name>PT2358</name></trkpt>
<trkpt lat="54.638445" lon="-3.088656"><ele>333</ele><time>2020-08-14T11:22:30Z</time><name>PT2359</name></trkpt>
<trkpt lat="54.638429" lon="-3.088659"><ele>333</ele><time>2020-08-14T11:22:32Z</time><name>PT2360</name></trkpt>
<trkpt lat="54.638419" lon="-3.088659"><ele>333</ele><time>2020-08-14T11:22:32Z</time><name>PT2361</name></trkpt>
<trkpt lat="54.638410" lon="-3.088662"><ele>334</ele><time>2020-08-14T11:22:33Z</time><name>PT2362</name></trkpt>
<trkpt lat="54.638398" lon="-3.088666"><ele>333</ele><time>2020-08-14T11:22:35Z</time><name>PT2363</name></trkpt>
<trkpt lat="54.638384" lon="-3.088672"><ele>333</ele><time>2020-08-14T11:22:35Z</time><name>PT2364</name></trkpt>
<trkpt lat="54.638369" lon="-3.088679"><ele>333</ele><time>2020-08-14T11:22:36Z</time><name>PT2365</name></trkpt>
<trkpt lat="54.638353" lon="-3.088684"><ele>333</ele><time>2020-08-14T11:22:38Z</time><name>PT2366</name></trkpt>
<trkpt lat="54.638335" lon="-3.088689"><ele>334</ele><time>2020-08-14T11:22:38Z</time><name>PT2367</name></trkpt>
<trkpt lat="54.638322" lon="-3.088692"><ele>334</ele><time>2020-08-14T11:22:39Z</time><name>PT2368</name></trkpt>
<trkpt lat="54.638313" lon="-3.088695"><ele>333</ele><time>2020-08-14T11:22:41Z</time><name>PT2369</name></trkpt>
<trkpt lat="54.638304" lon="-3.088700"><ele>333</ele><time>2020-08-14T11:22:41Z</time><name>PT2370</name></trkpt>
<trkpt lat="54.638291" lon="-3.088704"><ele>334</ele><time>2020-08-14T11:22:42Z</time><name>PT2371</name></trkpt>
<trkpt lat="54.638277" lon="-3.088705"><ele>334</ele><time>2020-08-14T11:22:44Z</time><name>PT2372</name></trkpt>
<trkpt lat="54.638264" lon="-3.088708"><ele>334</ele><time>2020-08-14T11:22:44Z</time><name>PT2373</name></trkpt>
<trkpt lat="54.638248" lon="-3.088713"><ele>334</ele><time>2020-08-14T11:22:45Z</time><name>PT2374</name></trkpt>
<trkpt lat="54.638234" lon="-3.088712"><ele>334</ele><time>2020-08-14T11:22:47Z</time><name>PT2375</name></trkpt>
<trkpt lat="54.638224" lon="-3.088710"><ele>334</ele><time>2020-08-14T11:22:47Z</time><name>PT2376</name></trkpt>
<trkpt lat="54.638216" lon="-3.088709"><ele>334</ele><time>2020-08-14T11:22:48Z</time><name>PT2377</name></trkpt>
<trkpt lat="54.638205" lon="-3.088710"><ele>334</ele><time>2020-08-14T11:22:50Z</time><name>PT2378</name></trkpt>
<trkpt lat="54.638192" lon="-3.088708"><ele>334</ele><time>2020-08-14T11:22:50Z</time><name>PT2379</name></trkpt>
<trkpt lat="54.638180" lon="-3.088704"><ele>335</ele><time>2020-08-14T11:22:51Z</time><name>PT2380</name></trkpt>
<trkpt lat="54.638170" lon="-3.088700"><ele>334</ele><time>2020-08-14T11:22:53Z</time><name>PT2381</name></trkpt>
<trkpt lat="54.638158" lon="-3.088696"><ele>335</ele><time>2020-08-14T11:22:53Z</time><name>PT2382</name></trkpt>
<trkpt lat="54.638145" lon="-3.088690"><ele>335</ele><time>2020-08-14T11:22:54Z</time><name>PT2383</name></trkpt>
<trkpt lat="54.638135" lon="-3.088684"><ele>336</ele><time>2020-08-14T11:22:56Z</time><name>PT2384</name></trkpt>
<trkpt lat="54.638125" lon="-3.088683"><ele>336</ele><time>2020-08-14T11:22:56Z</time><name>PT2385</name></trkpt>
<trkpt lat="54.638115" lon="-3.088680"><ele>336</ele><time>2020-08-14T11:22:57Z</time><name>PT2386</name></trkpt>
<trkpt lat="54.638104" lon="-3.088673"><ele>336</ele><time>2020-08-14T11:22:59Z</time><name>PT2387</name></trkpt>
<trkpt lat="54.638093" lon="-3.088666"><ele>337</ele><time>2020-08-14T11:22:59Z</time><name>PT2388</name></trkpt>
<trkpt lat="54.638084" lon="-3.088663"><ele>337</ele><time>2020-08-14T11:23:01Z</time><name>PT2389</name></trkpt>
<trkpt lat="54.638075" lon="-3.088658"><ele>337</ele><time>2020-08-14T11:23:02Z</time><name>PT2390</name></trkpt>
<trkpt lat="54.638062" lon="-3.088649"><ele>337</ele><time>2020-08-14T11:23:02Z</time><name>PT2391</name></trkpt>
<trkpt lat="54.638051" lon="-3.088639"><ele>338</ele><time>2020-08-14T11:23:04Z</time><name>PT2392</name></trkpt>
<trkpt lat="54.638037" lon="-3.088631"><ele>339</ele><time>2020-08-14T11:23:05Z</time><name>PT2393</name></trkpt>
<trkpt lat="54.638028" lon="-3.088624"><ele>339</ele><time>2020-08-14T11:23:05Z</time><name>PT2394</name></trkpt>
<trkpt lat="54.638020" lon="-3.088619"><ele>339</ele><time>2020-08-14T11:23:06Z</time><name>PT2395</name></trkpt>
<trkpt lat="54.638010" lon="-3.088609"><ele>339</ele><time>2020-08-14T11:23:08Z</time><name>PT2396</name></trkpt>
<trkpt lat="54.637997" lon="-3.088598"><ele>339</ele><time>2020-08-14T11:23:08Z</time><name>PT2397</name></trkpt>
<trkpt lat="54.637987" lon="-3.088581"><ele>339</ele><time>2020-08-14T11:23:09Z</time><name>PT2398</name></trkpt>
<trkpt lat="54.637976" lon="-3.088562"><ele>338</ele><time>2020-08-14T11:23:11Z</time><name>PT2399</name></trkpt>
<trkpt lat="54.637966" lon="-3.088539"><ele>337</ele><time>2020-08-14T11:23:11Z</time><name>PT2400</name></trkpt>
<trkpt lat="54.637954" lon="-3.088525"><ele>337</ele><time>2020-08-14T11:23:12Z</time><name>PT2401</name></trkpt>
<trkpt lat="54.637943" lon="-3.088511"><ele>337</ele><time>2020-08-14T11:23:14Z</time><name>PT2402</name></trkpt>
<trkpt lat="54.637932" lon="-3.088497"><ele>337</ele><time>2020-08-14T11:23:14Z</time><name>PT2403</name></trkpt>
<trkpt lat="54.637897" lon="-3.088457"><ele>336</ele><time>2020-08-14T11:23:17Z</time><name>PT2404</name></trkpt>
<trkpt lat="54.637886" lon="-3.088445"><ele>336</ele><time>2020-08-14T11:23:18Z</time><name>PT2405</name></trkpt>
<trkpt lat="54.637875" lon="-3.088433"><ele>336</ele><time>2020-08-14T11:23:19Z</time><name>PT2406</name></trkpt>
<trkpt lat="54.637863" lon="-3.088418"><ele>336</ele><time>2020-08-14T11:23:20Z</time><name>PT2407</name></trkpt>
<trkpt lat="54.637853" lon="-3.088407"><ele>336</ele><time>2020-08-14T11:23:22Z</time><name>PT2408</name></trkpt>
<trkpt lat="54.637843" lon="-3.088395"><ele>336</ele><time>2020-08-14T11:23:22Z</time><name>PT2409</name></trkpt>
<trkpt lat="54.637838" lon="-3.088386"><ele>336</ele><time>2020-08-14T11:23:23Z</time><name>PT2410</name></trkpt>
<trkpt lat="54.637837" lon="-3.088384"><ele>336</ele><time>2020-08-14T11:23:25Z</time><name>PT2411</name></trkpt>
<trkpt lat="54.637837" lon="-3.088384"><ele>336</ele><time>2020-08-14T11:23:25Z</time><name>PT2412</name></trkpt>
<trkpt lat="54.637833" lon="-3.088377"><ele>336</ele><time>2020-08-14T11:23:28Z</time><name>PT2413</name></trkpt>
<trkpt lat="54.637824" lon="-3.088365"><ele>336</ele><time>2020-08-14T11:23:29Z</time><name>PT2414</name></trkpt>
<trkpt lat="54.637814" lon="-3.088352"><ele>336</ele><time>2020-08-14T11:23:31Z</time><name>PT2415</name></trkpt>
<trkpt lat="54.637810" lon="-3.088344"><ele>336</ele><time>2020-08-14T11:23:31Z</time><name>PT2416</name></trkpt>
<trkpt lat="54.637808" lon="-3.088342"><ele>336</ele><time>2020-08-14T11:23:32Z</time><name>PT2417</name></trkpt>
<trkpt lat="54.637805" lon="-3.088337"><ele>336</ele><time>2020-08-14T11:23:34Z</time><name>PT2418</name></trkpt>
<trkpt lat="54.637798" lon="-3.088328"><ele>335</ele><time>2020-08-14T11:23:34Z</time><name>PT2419</name></trkpt>
<trkpt lat="54.637788" lon="-3.088316"><ele>335</ele><time>2020-08-14T11:23:35Z</time><name>PT2420</name></trkpt>
<trkpt lat="54.637778" lon="-3.088302"><ele>335</ele><time>2020-08-14T11:23:37Z</time><name>PT2421</name></trkpt>
<trkpt lat="54.637770" lon="-3.088287"><ele>335</ele><time>2020-08-14T11:23:37Z</time><name>PT2422</name></trkpt>
<trkpt lat="54.637761" lon="-3.088274"><ele>335</ele><time>2020-08-14T11:23:38Z</time><name>PT2423</name></trkpt>
<trkpt lat="54.637751" lon="-3.088259"><ele>335</ele><time>2020-08-14T11:23:40Z</time><name>PT2424</name></trkpt>
<trkpt lat="54.637743" lon="-3.088247"><ele>335</ele><time>2020-08-14T11:23:40Z</time><name>PT2425</name></trkpt>
<trkpt lat="54.637734" lon="-3.088236"><ele>335</ele><time>2020-08-14T11:23:41Z</time><name>PT2426</name></trkpt>
<trkpt lat="54.637724" lon="-3.088223"><ele>335</ele><time>2020-08-14T11:23:43Z</time><name>PT2427</name></trkpt>
<trkpt lat="54.637716" lon="-3.088209"><ele>335</ele><time>2020-08-14T11:23:43Z</time><name>PT2428</name></trkpt>
<trkpt lat="54.637708" lon="-3.088197"><ele>335</ele><time>2020-08-14T11:23:44Z</time><name>PT2429</name></trkpt>
<trkpt lat="54.637700" lon="-3.088185"><ele>335</ele><time>2020-08-14T11:23:46Z</time><name>PT2430</name></trkpt>
<trkpt lat="54.637694" lon="-3.088174"><ele>335</ele><time>2020-08-14T11:23:46Z</time><name>PT2431</name></trkpt>
<trkpt lat="54.637691" lon="-3.088166"><ele>335</ele><time>2020-08-14T11:23:47Z</time><name>PT2432</name></trkpt>
<trkpt lat="54.637691" lon="-3.088157"><ele>335</ele><time>2020-08-14T11:23:49Z</time><name>PT2433</name></trkpt>
<trkpt lat="54.637690" lon="-3.088145"><ele>336</ele><time>2020-08-14T11:23:49Z</time><name>PT2434</name></trkpt>
<trkpt lat="54.637692" lon="-3.088131"><ele>336</ele><time>2020-08-14T11:23:50Z</time><name>PT2435</name></trkpt>
<trkpt lat="54.637696" lon="-3.088118"><ele>336</ele><time>2020-08-14T11:23:52Z</time><name>PT2436</name></trkpt>
<trkpt lat="54.637703" lon="-3.088110"><ele>336</ele><time>2020-08-14T11:23:52Z</time><name>PT2437</name></trkpt>
<trkpt lat="54.637708" lon="-3.088104"><ele>336</ele><time>2020-08-14T11:23:53Z</time><name>PT2438</name></trkpt>
<trkpt lat="54.637713" lon="-3.088096"><ele>336</ele><time>2020-08-14T11:23:55Z</time><name>PT2439</name></trkpt>
<trkpt lat="54.637716" lon="-3.088089"><ele>337</ele><time>2020-08-14T11:23:55Z</time><name>PT2440</name></trkpt>
<trkpt lat="54.637720" lon="-3.088081"><ele>337</ele><time>2020-08-14T11:23:56Z</time><name>PT2441</name></trkpt>
<trkpt lat="54.637723" lon="-3.088078"><ele>337</ele><time>2020-08-14T11:23:58Z</time><name>PT2442</name></trkpt>
<trkpt lat="54.637728" lon="-3.088075"><ele>337</ele><time>2020-08-14T11:23:58Z</time><name>PT2443</name></trkpt>
<trkpt lat="54.637734" lon="-3.088077"><ele>337</ele><time>2020-08-14T11:23:59Z</time><name>PT2444</name></trkpt>
<trkpt lat="54.637741" lon="-3.088081"><ele>337</ele><time>2020-08-14T11:24:01Z</time><name>PT2445</name></trkpt>
<trkpt lat="54.637750" lon="-3.088084"><ele>337</ele><time>2020-08-14T11:24:01Z</time><name>PT2446</name></trkpt>
<trkpt lat="54.637758" lon="-3.088083"><ele>337</ele><time>2020-08-14T11:24:02Z</time><name>PT2447</name></trkpt>
<trkpt lat="54.637765" lon="-3.088081"><ele>338</ele><time>2020-08-14T11:24:04Z</time><name>PT2448</name></trkpt>
<trkpt lat="54.637772" lon="-3.088085"><ele>338</ele><time>2020-08-14T11:24:04Z</time><name>PT2449</name></trkpt>
<trkpt lat="54.637775" lon="-3.088087"><ele>338</ele><time>2020-08-14T11:24:05Z</time><name>PT2450</name></trkpt>
<trkpt lat="54.637777" lon="-3.088089"><ele>338</ele><time>2020-08-14T11:24:06Z</time><name>PT2451</name></trkpt>
<trkpt lat="54.637778" lon="-3.088088"><ele>338</ele><time>2020-08-14T11:24:07Z</time><name>PT2452</name></trkpt>
<trkpt lat="54.637778" lon="-3.088087"><ele>338</ele><time>2020-08-14T11:24:09Z</time><name>PT2453</name></trkpt>
<trkpt lat="54.637779" lon="-3.088088"><ele>338</ele><time>2020-08-14T11:24:09Z</time><name>PT2454</name></trkpt>
<trkpt lat="54.637785" lon="-3.088085"><ele>338</ele><time>2020-08-14T11:25:33Z</time><name>PT2455</name></trkpt>
<trkpt lat="54.637797" lon="-3.088085"><ele>339</ele><time>2020-08-14T11:25:33Z</time><name>PT2456</name></trkpt>
<trkpt lat="54.637804" lon="-3.088087"><ele>339</ele><time>2020-08-14T11:25:34Z</time><name>PT2457</name></trkpt>
<trkpt lat="54.637811" lon="-3.088089"><ele>338</ele><time>2020-08-14T11:25:36Z</time><name>PT2458</name></trkpt>
<trkpt lat="54.637819" lon="-3.088087"><ele>339</ele><time>2020-08-14T11:25:36Z</time><name>PT2459</name></trkpt>
<trkpt lat="54.637827" lon="-3.088081"><ele>339</ele><time>2020-08-14T11:25:37Z</time><name>PT2460</name></trkpt>
<trkpt lat="54.637834" lon="-3.088075"><ele>339</ele><time>2020-08-14T11:25:39Z</time><name>PT2461</name></trkpt>
<trkpt lat="54.637840" lon="-3.088073"><ele>339</ele><time>2020-08-14T11:25:39Z</time><name>PT2462</name></trkpt>
<trkpt lat="54.637848" lon="-3.088069"><ele>340</ele><time>2020-08-14T11:25:40Z</time><name>PT2463</name></trkpt>
<trkpt lat="54.637853" lon="-3.088060"><ele>340</ele><time>2020-08-14T11:25:42Z</time><name>PT2464</name></trkpt>
<trkpt lat="54.637859" lon="-3.088050"><ele>340</ele><time>2020-08-14T11:25:42Z</time><name>PT2465</name></trkpt>
<trkpt lat="54.637862" lon="-3.088045"><ele>340</ele><time>2020-08-14T11:25:43Z</time><name>PT2466</name></trkpt>
<trkpt lat="54.637870" lon="-3.088040"><ele>340</ele><time>2020-08-14T11:25:45Z</time><name>PT2467</name></trkpt>
<trkpt lat="54.637878" lon="-3.088029"><ele>341</ele><time>2020-08-14T11:25:45Z</time><name>PT2468</name></trkpt>
<trkpt lat="54.637885" lon="-3.088020"><ele>341</ele><time>2020-08-14T11:25:46Z</time><name>PT2469</name></trkpt>
<trkpt lat="54.637888" lon="-3.088017"><ele>341</ele><time>2020-08-14T11:25:47Z</time><name>PT2470</name></trkpt>
<trkpt lat="54.637892" lon="-3.088009"><ele>342</ele><time>2020-08-14T11:25:48Z</time><name>PT2471</name></trkpt>
<trkpt lat="54.637897" lon="-3.087992"><ele>342</ele><time>2020-08-14T11:25:50Z</time><name>PT2472</name></trkpt>
<trkpt lat="54.637900" lon="-3.087975"><ele>342</ele><time>2020-08-14T11:25:50Z</time><name>PT2473</name></trkpt>
<trkpt lat="54.637902" lon="-3.087956"><ele>345</ele><time>2020-08-14T11:25:51Z</time><name>PT2474</name></trkpt>
<trkpt lat="54.637907" lon="-3.087946"><ele>345</ele><time>2020-08-14T11:25:53Z</time><name>PT2475</name></trkpt>
<trkpt lat="54.637913" lon="-3.087935"><ele>345</ele><time>2020-08-14T11:25:53Z</time><name>PT2476</name></trkpt>
<trkpt lat="54.637916" lon="-3.087919"><ele>345</ele><time>2020-08-14T11:25:54Z</time><name>PT2477</name></trkpt>
<trkpt lat="54.637918" lon="-3.087912"><ele>345</ele><time>2020-08-14T11:25:56Z</time><name>PT2478</name></trkpt>
<trkpt lat="54.637927" lon="-3.087908"><ele>345</ele><time>2020-08-14T11:25:56Z</time><name>PT2479</name></trkpt>
<trkpt lat="54.637933" lon="-3.087897"><ele>345</ele><time>2020-08-14T11:25:57Z</time><name>PT2480</name></trkpt>
<trkpt lat="54.637937" lon="-3.087888"><ele>345</ele><time>2020-08-14T11:25:59Z</time><name>PT2481</name></trkpt>
<trkpt lat="54.637942" lon="-3.087884"><ele>345</ele><time>2020-08-14T11:25:59Z</time><name>PT2482</name></trkpt>
<trkpt lat="54.637946" lon="-3.087873"><ele>346</ele><time>2020-08-14T11:26:00Z</time><name>PT2483</name></trkpt>
<trkpt lat="54.637952" lon="-3.087862"><ele>346</ele><time>2020-08-14T11:26:02Z</time><name>PT2484</name></trkpt>
<trkpt lat="54.637955" lon="-3.087856"><ele>346</ele><time>2020-08-14T11:26:02Z</time><name>PT2485</name></trkpt>
<trkpt lat="54.637958" lon="-3.087849"><ele>346</ele><time>2020-08-14T11:26:03Z</time><name>PT2486</name></trkpt>
<trkpt lat="54.637965" lon="-3.087842"><ele>346</ele><time>2020-08-14T11:26:05Z</time><name>PT2487</name></trkpt>
<trkpt lat="54.637970" lon="-3.087836"><ele>346</ele><time>2020-08-14T11:26:05Z</time><name>PT2488</name></trkpt>
<trkpt lat="54.637973" lon="-3.087832"><ele>346</ele><time>2020-08-14T11:26:06Z</time><name>PT2489</name></trkpt>
<trkpt lat="54.637977" lon="-3.087822"><ele>347</ele><time>2020-08-14T11:26:08Z</time><name>PT2490</name></trkpt>
<trkpt lat="54.637980" lon="-3.087817"><ele>347</ele><time>2020-08-14T11:26:08Z</time><name>PT2491</name></trkpt>
<trkpt lat="54.637985" lon="-3.087810"><ele>347</ele><time>2020-08-14T11:26:09Z</time><name>PT2492</name></trkpt>
<trkpt lat="54.637991" lon="-3.087802"><ele>347</ele><time>2020-08-14T11:26:11Z</time><name>PT2493</name></trkpt>
<trkpt lat="54.637996" lon="-3.087797"><ele>347</ele><time>2020-08-14T11:26:11Z</time><name>PT2494</name></trkpt>
<trkpt lat="54.638001" lon="-3.087794"><ele>347</ele><time>2020-08-14T11:26:12Z</time><name>PT2495</name></trkpt>
<trkpt lat="54.638007" lon="-3.087786"><ele>347</ele><time>2020-08-14T11:26:14Z</time><name>PT2496</name></trkpt>
<trkpt lat="54.638011" lon="-3.087779"><ele>347</ele><time>2020-08-14T11:26:14Z</time><name>PT2497</name></trkpt>
<trkpt lat="54.638013" lon="-3.087775"><ele>346</ele><time>2020-08-14T11:26:15Z</time><name>PT2498</name></trkpt>
<trkpt lat="54.638019" lon="-3.087770"><ele>346</ele><time>2020-08-14T11:26:17Z</time><name>PT2499</name></trkpt>
<trkpt lat="54.638029" lon="-3.087760"><ele>347</ele><time>2020-08-14T11:26:17Z</time><name>PT2500</name></trkpt>
<trkpt lat="54.638036" lon="-3.087755"><ele>347</ele><time>2020-08-14T11:26:18Z</time><name>PT2501</name></trkpt>
<trkpt lat="54.638042" lon="-3.087748"><ele>348</ele><time>2020-08-14T11:26:20Z</time><name>PT2502</name></trkpt>
<trkpt lat="54.638048" lon="-3.087741"><ele>348</ele><time>2020-08-14T11:26:20Z</time><name>PT2503</name></trkpt>
<trkpt lat="54.638055" lon="-3.087729"><ele>349</ele><time>2020-08-14T11:26:21Z</time><name>PT2504</name></trkpt>
<trkpt lat="54.638063" lon="-3.087727"><ele>349</ele><time>2020-08-14T11:26:23Z</time><name>PT2505</name></trkpt>
<trkpt lat="54.638068" lon="-3.087722"><ele>349</ele><time>2020-08-14T11:26:23Z</time><name>PT2506</name></trkpt>
<trkpt lat="54.638074" lon="-3.087714"><ele>350</ele><time>2020-08-14T11:26:24Z</time><name>PT2507</name></trkpt>
<trkpt lat="54.638081" lon="-3.087705"><ele>350</ele><time>2020-08-14T11:26:25Z</time><name>PT2508</name></trkpt>
<trkpt lat="54.638086" lon="-3.087703"><ele>350</ele><time>2020-08-14T11:26:26Z</time><name>PT2509</name></trkpt>
<trkpt lat="54.638093" lon="-3.087695"><ele>351</ele><time>2020-08-14T11:26:28Z</time><name>PT2510</name></trkpt>
<trkpt lat="54.638100" lon="-3.087682"><ele>351</ele><time>2020-08-14T11:26:28Z</time><name>PT2511</name></trkpt>
<trkpt lat="54.638107" lon="-3.087676"><ele>351</ele><time>2020-08-14T11:26:29Z</time><name>PT2512</name></trkpt>
<trkpt lat="54.638111" lon="-3.087668"><ele>351</ele><time>2020-08-14T11:26:31Z</time><name>PT2513</name></trkpt>
<trkpt lat="54.638116" lon="-3.087658"><ele>352</ele><time>2020-08-14T11:26:31Z</time><name>PT2514</name></trkpt>
<trkpt lat="54.638122" lon="-3.087645"><ele>352</ele><time>2020-08-14T11:26:32Z</time><name>PT2515</name></trkpt>
<trkpt lat="54.638125" lon="-3.087633"><ele>352</ele><time>2020-08-14T11:26:34Z</time><name>PT2516</name></trkpt>
<trkpt lat="54.638130" lon="-3.087627"><ele>352</ele><time>2020-08-14T11:26:34Z</time><name>PT2517</name></trkpt>
<trkpt lat="54.638135" lon="-3.087615"><ele>353</ele><time>2020-08-14T11:26:35Z</time><name>PT2518</name></trkpt>
<trkpt lat="54.638139" lon="-3.087598"><ele>352</ele><time>2020-08-14T11:26:37Z</time><name>PT2519</name></trkpt>
<trkpt lat="54.638144" lon="-3.087595"><ele>352</ele><time>2020-08-14T11:26:37Z</time><name>PT2520</name></trkpt>
<trkpt lat="54.638150" lon="-3.087590"><ele>352</ele><time>2020-08-14T11:26:38Z</time><name>PT2521</name></trkpt>
<trkpt lat="54.638157" lon="-3.087582"><ele>352</ele><time>2020-08-14T11:26:40Z</time><name>PT2522</name></trkpt>
<trkpt lat="54.638163" lon="-3.087570"><ele>352</ele><time>2020-08-14T11:26:40Z</time><name>PT2523</name></trkpt>
<trkpt lat="54.638166" lon="-3.087564"><ele>352</ele><time>2020-08-14T11:26:42Z</time><name>PT2524</name></trkpt>
<trkpt lat="54.638175" lon="-3.087561"><ele>353</ele><time>2020-08-14T11:26:43Z</time><name>PT2525</name></trkpt>
<trkpt lat="54.638181" lon="-3.087552"><ele>353</ele><time>2020-08-14T11:26:43Z</time><name>PT2526</name></trkpt>
<trkpt lat="54.638184" lon="-3.087538"><ele>353</ele><time>2020-08-14T11:26:44Z</time><name>PT2527</name></trkpt>
<trkpt lat="54.638187" lon="-3.087529"><ele>353</ele><time>2020-08-14T11:26:46Z</time><name>PT2528</name></trkpt>
<trkpt lat="54.638190" lon="-3.087518"><ele>354</ele><time>2020-08-14T11:26:46Z</time><name>PT2529</name></trkpt>
<trkpt lat="54.638196" lon="-3.087504"><ele>355</ele><time>2020-08-14T11:26:47Z</time><name>PT2530</name></trkpt>
<trkpt lat="54.638201" lon="-3.087492"><ele>355</ele><time>2020-08-14T11:26:49Z</time><name>PT2531</name></trkpt>
<trkpt lat="54.638204" lon="-3.087486"><ele>355</ele><time>2020-08-14T11:26:49Z</time><name>PT2532</name></trkpt>
<trkpt lat="54.638205" lon="-3.087477"><ele>355</ele><time>2020-08-14T11:26:50Z</time><name>PT2533</name></trkpt>
<trkpt lat="54.638209" lon="-3.087465"><ele>356</ele><time>2020-08-14T11:26:51Z</time><name>PT2534</name></trkpt>
<trkpt lat="54.638209" lon="-3.087454"><ele>355</ele><time>2020-08-14T11:26:52Z</time><name>PT2535</name></trkpt>
<trkpt lat="54.638213" lon="-3.087448"><ele>356</ele><time>2020-08-14T11:26:54Z</time><name>PT2536</name></trkpt>
<trkpt lat="54.638218" lon="-3.087440"><ele>356</ele><time>2020-08-14T11:26:54Z</time><name>PT2537</name></trkpt>
<trkpt lat="54.638224" lon="-3.087434"><ele>356</ele><time>2020-08-14T11:26:55Z</time><name>PT2538</name></trkpt>
<trkpt lat="54.638225" lon="-3.087431"><ele>356</ele><time>2020-08-14T11:26:57Z</time><name>PT2539</name></trkpt>
<trkpt lat="54.638226" lon="-3.087421"><ele>358</ele><time>2020-08-14T11:26:57Z</time><name>PT2540</name></trkpt>
<trkpt lat="54.638228" lon="-3.087409"><ele>358</ele><time>2020-08-14T11:26:58Z</time><name>PT2541</name></trkpt>
<trkpt lat="54.638240" lon="-3.087375"><ele>359</ele><time>2020-08-14T11:27:01Z</time><name>PT2542</name></trkpt>
<trkpt lat="54.638257" lon="-3.087349"><ele>358</ele><time>2020-08-14T11:27:04Z</time><name>PT2543</name></trkpt>
<trkpt lat="54.638281" lon="-3.087306"><ele>360</ele><time>2020-08-14T11:27:09Z</time><name>PT2544</name></trkpt>
<trkpt lat="54.638296" lon="-3.087276"><ele>360</ele><time>2020-08-14T11:27:12Z</time><name>PT2545</name></trkpt>
<trkpt lat="54.638310" lon="-3.087263"><ele>361</ele><time>2020-08-14T11:27:15Z</time><name>PT2546</name></trkpt>
<trkpt lat="54.638335" lon="-3.087226"><ele>362</ele><time>2020-08-14T11:27:18Z</time><name>PT2547</name></trkpt>
<trkpt lat="54.638355" lon="-3.087195"><ele>362</ele><time>2020-08-14T11:27:22Z</time><name>PT2548</name></trkpt>
<trkpt lat="54.638374" lon="-3.087153"><ele>362</ele><time>2020-08-14T11:27:27Z</time><name>PT2549</name></trkpt>
<trkpt lat="54.638395" lon="-3.087121"><ele>362</ele><time>2020-08-14T11:27:30Z</time><name>PT2550</name></trkpt>
<trkpt lat="54.638417" lon="-3.087110"><ele>363</ele><time>2020-08-14T11:27:33Z</time><name>PT2551</name></trkpt>
<trkpt lat="54.638442" lon="-3.087075"><ele>363</ele><time>2020-08-14T11:27:38Z</time><name>PT2552</name></trkpt>
<trkpt lat="54.638461" lon="-3.087049"><ele>364</ele><time>2020-08-14T11:27:41Z</time><name>PT2553</name></trkpt>
<trkpt lat="54.638491" lon="-3.087027"><ele>364</ele><time>2020-08-14T11:27:44Z</time><name>PT2554</name></trkpt>
<trkpt lat="54.638513" lon="-3.087005"><ele>364</ele><time>2020-08-14T11:27:47Z</time><name>PT2555</name></trkpt>
<trkpt lat="54.638538" lon="-3.086977"><ele>364</ele><time>2020-08-14T11:27:50Z</time><name>PT2556</name></trkpt>
<trkpt lat="54.638561" lon="-3.086950"><ele>364</ele><time>2020-08-14T11:27:53Z</time><name>PT2557</name></trkpt>
<trkpt lat="54.638579" lon="-3.086923"><ele>364</ele><time>2020-08-14T11:27:57Z</time><name>PT2558</name></trkpt>
<trkpt lat="54.638606" lon="-3.086889"><ele>365</ele><time>2020-08-14T11:28:00Z</time><name>PT2559</name></trkpt>
<trkpt lat="54.638622" lon="-3.086853"><ele>366</ele><time>2020-08-14T11:28:03Z</time><name>PT2560</name></trkpt>
<trkpt lat="54.638633" lon="-3.086807"><ele>366</ele><time>2020-08-14T11:28:06Z</time><name>PT2561</name></trkpt>
<trkpt lat="54.638652" lon="-3.086762"><ele>365</ele><time>2020-08-14T11:28:10Z</time><name>PT2562</name></trkpt>
<trkpt lat="54.638664" lon="-3.086726"><ele>365</ele><time>2020-08-14T11:28:13Z</time><name>PT2563</name></trkpt>
<trkpt lat="54.638675" lon="-3.086698"><ele>366</ele><time>2020-08-14T11:28:16Z</time><name>PT2564</name></trkpt>
<trkpt lat="54.638688" lon="-3.086654"><ele>367</ele><time>2020-08-14T11:28:19Z</time><name>PT2565</name></trkpt>
<trkpt lat="54.638708" lon="-3.086617"><ele>368</ele><time>2020-08-14T11:28:23Z</time><name>PT2566</name></trkpt>
<trkpt lat="54.638729" lon="-3.086575"><ele>368</ele><time>2020-08-14T11:28:26Z</time><name>PT2567</name></trkpt>
<trkpt lat="54.638755" lon="-3.086530"><ele>369</ele><time>2020-08-14T11:28:30Z</time><name>PT2568</name></trkpt>
<trkpt lat="54.638782" lon="-3.086500"><ele>369</ele><time>2020-08-14T11:28:33Z</time><name>PT2569</name></trkpt>
<trkpt lat="54.638816" lon="-3.086474"><ele>370</ele><time>2020-08-14T11:28:38Z</time><name>PT2570</name></trkpt>
<trkpt lat="54.638853" lon="-3.086450"><ele>370</ele><time>2020-08-14T11:28:41Z</time><name>PT2571</name></trkpt>
<trkpt lat="54.638872" lon="-3.086431"><ele>370</ele><time>2020-08-14T11:28:44Z</time><name>PT2572</name></trkpt>
<trkpt lat="54.638891" lon="-3.086410"><ele>369</ele><time>2020-08-14T11:28:47Z</time><name>PT2573</name></trkpt>
<trkpt lat="54.638917" lon="-3.086380"><ele>370</ele><time>2020-08-14T11:28:51Z</time><name>PT2574</name></trkpt>
<trkpt lat="54.638938" lon="-3.086343"><ele>371</ele><time>2020-08-14T11:28:54Z</time><name>PT2575</name></trkpt>
<trkpt lat="54.638960" lon="-3.086316"><ele>371</ele><time>2020-08-14T11:28:57Z</time><name>PT2576</name></trkpt>
<trkpt lat="54.638979" lon="-3.086289"><ele>372</ele><time>2020-08-14T11:29:01Z</time><name>PT2577</name></trkpt>
<trkpt lat="54.639000" lon="-3.086261"><ele>373</ele><time>2020-08-14T11:29:04Z</time><name>PT2578</name></trkpt>
<trkpt lat="54.639003" lon="-3.086267"><ele>373</ele><time>2020-08-14T11:29:07Z</time><name>PT2579</name></trkpt>
<trkpt lat="54.639003" lon="-3.086264"><ele>373</ele><time>2020-08-14T11:29:11Z</time><name>PT2580</name></trkpt>
<trkpt lat="54.639024" lon="-3.086227"><ele>373</ele><time>2020-08-14T11:29:19Z</time><name>PT2581</name></trkpt>
<trkpt lat="54.639047" lon="-3.086182"><ele>374</ele><time>2020-08-14T11:29:22Z</time><name>PT2582</name></trkpt>
<trkpt lat="54.639062" lon="-3.086105"><ele>375</ele><time>2020-08-14T11:29:25Z</time><name>PT2583</name></trkpt>
<trkpt lat="54.639077" lon="-3.086046"><ele>376</ele><time>2020-08-14T11:29:29Z</time><name>PT2584</name></trkpt>
<trkpt lat="54.639083" lon="-3.085979"><ele>375</ele><time>2020-08-14T11:29:34Z</time><name>PT2585</name></trkpt>
<trkpt lat="54.639088" lon="-3.085915"><ele>375</ele><time>2020-08-14T11:29:37Z</time><name>PT2586</name></trkpt>
<trkpt lat="54.639093" lon="-3.085874"><ele>375</ele><time>2020-08-14T11:29:40Z</time><name>PT2587</name></trkpt>
<trkpt lat="54.639104" lon="-3.085819"><ele>376</ele><time>2020-08-14T11:29:45Z</time><name>PT2588</name></trkpt>
<trkpt lat="54.639112" lon="-3.085767"><ele>377</ele><time>2020-08-14T11:29:48Z</time><name>PT2589</name></trkpt>
<trkpt lat="54.639129" lon="-3.085720"><ele>377</ele><time>2020-08-14T11:29:51Z</time><name>PT2590</name></trkpt>
<trkpt lat="54.639151" lon="-3.085674"><ele>378</ele><time>2020-08-14T11:29:55Z</time><name>PT2591</name></trkpt>
<trkpt lat="54.639164" lon="-3.085633"><ele>378</ele><time>2020-08-14T11:29:58Z</time><name>PT2592</name></trkpt>
<trkpt lat="54.639174" lon="-3.085593"><ele>378</ele><time>2020-08-14T11:30:01Z</time><name>PT2593</name></trkpt>
<trkpt lat="54.639183" lon="-3.085557"><ele>378</ele><time>2020-08-14T11:30:04Z</time><name>PT2594</name></trkpt>
<trkpt lat="54.639197" lon="-3.085511"><ele>378</ele><time>2020-08-14T11:30:09Z</time><name>PT2595</name></trkpt>
<trkpt lat="54.639201" lon="-3.085463"><ele>379</ele><time>2020-08-14T11:30:12Z</time><name>PT2596</name></trkpt>
<trkpt lat="54.639206" lon="-3.085429"><ele>379</ele><time>2020-08-14T11:30:15Z</time><name>PT2597</name></trkpt>
<trkpt lat="54.639208" lon="-3.085393"><ele>380</ele><time>2020-08-14T11:30:18Z</time><name>PT2598</name></trkpt>
<trkpt lat="54.639199" lon="-3.085337"><ele>381</ele><time>2020-08-14T11:30:23Z</time><name>PT2599</name></trkpt>
<trkpt lat="54.639201" lon="-3.085304"><ele>381</ele><time>2020-08-14T11:30:26Z</time><name>PT2600</name></trkpt>
<trkpt lat="54.639191" lon="-3.085263"><ele>381</ele><time>2020-08-14T11:30:29Z</time><name>PT2601</name></trkpt>
<trkpt lat="54.639184" lon="-3.085239"><ele>381</ele><time>2020-08-14T11:30:32Z</time><name>PT2602</name></trkpt>
<trkpt lat="54.639184" lon="-3.085189"><ele>382</ele><time>2020-08-14T11:30:36Z</time><name>PT2603</name></trkpt>
<trkpt lat="54.639189" lon="-3.085142"><ele>382</ele><time>2020-08-14T11:30:41Z</time><name>PT2604</name></trkpt>
<trkpt lat="54.639187" lon="-3.085090"><ele>383</ele><time>2020-08-14T11:30:44Z</time><name>PT2605</name></trkpt>
<trkpt lat="54.639192" lon="-3.085042"><ele>383</ele><time>2020-08-14T11:30:48Z</time><name>PT2606</name></trkpt>
<trkpt lat="54.639196" lon="-3.085010"><ele>383</ele><time>2020-08-14T11:30:51Z</time><name>PT2607</name></trkpt>
<trkpt lat="54.639203" lon="-3.084969"><ele>383</ele><time>2020-08-14T11:30:55Z</time><name>PT2608</name></trkpt>
<trkpt lat="54.639209" lon="-3.084943"><ele>384</ele><time>2020-08-14T11:30:58Z</time><name>PT2609</name></trkpt>
<trkpt lat="54.639215" lon="-3.084895"><ele>386</ele><time>2020-08-14T11:31:01Z</time><name>PT2610</name></trkpt>
<trkpt lat="54.639222" lon="-3.084850"><ele>386</ele><time>2020-08-14T11:31:05Z</time><name>PT2611</name></trkpt>
<trkpt lat="54.639226" lon="-3.084815"><ele>387</ele><time>2020-08-14T11:31:08Z</time><name>PT2612</name></trkpt>
<trkpt lat="54.639224" lon="-3.084767"><ele>387</ele><time>2020-08-14T11:31:13Z</time><name>PT2613</name></trkpt>
<trkpt lat="54.639228" lon="-3.084728"><ele>387</ele><time>2020-08-14T11:31:16Z</time><name>PT2614</name></trkpt>
<trkpt lat="54.639234" lon="-3.084691"><ele>387</ele><time>2020-08-14T11:31:20Z</time><name>PT2615</name></trkpt>
<trkpt lat="54.639245" lon="-3.084651"><ele>387</ele><time>2020-08-14T11:31:25Z</time><name>PT2616</name></trkpt>
<trkpt lat="54.639245" lon="-3.084620"><ele>388</ele><time>2020-08-14T11:31:28Z</time><name>PT2617</name></trkpt>
<trkpt lat="54.639243" lon="-3.084578"><ele>389</ele><time>2020-08-14T11:31:31Z</time><name>PT2618</name></trkpt>
<trkpt lat="54.639240" lon="-3.084544"><ele>389</ele><time>2020-08-14T11:31:36Z</time><name>PT2619</name></trkpt>
<trkpt lat="54.639242" lon="-3.084505"><ele>390</ele><time>2020-08-14T11:31:39Z</time><name>PT2620</name></trkpt>
<trkpt lat="54.639247" lon="-3.084460"><ele>390</ele><time>2020-08-14T11:31:43Z</time><name>PT2621</name></trkpt>
<trkpt lat="54.639249" lon="-3.084422"><ele>392</ele><time>2020-08-14T11:31:48Z</time><name>PT2622</name></trkpt>
<trkpt lat="54.639250" lon="-3.084382"><ele>392</ele><time>2020-08-14T11:31:51Z</time><name>PT2623</name></trkpt>
<trkpt lat="54.639254" lon="-3.084356"><ele>392</ele><time>2020-08-14T11:31:54Z</time><name>PT2624</name></trkpt>
<trkpt lat="54.639258" lon="-3.084312"><ele>393</ele><time>2020-08-14T11:31:58Z</time><name>PT2625</name></trkpt>
<trkpt lat="54.639262" lon="-3.084280"><ele>394</ele><time>2020-08-14T11:32:03Z</time><name>PT2626</name></trkpt>
<trkpt lat="54.639267" lon="-3.084256"><ele>394</ele><time>2020-08-14T11:32:06Z</time><name>PT2627</name></trkpt>
<trkpt lat="54.639273" lon="-3.084224"><ele>394</ele><time>2020-08-14T11:32:09Z</time><name>PT2628</name></trkpt>
<trkpt lat="54.639276" lon="-3.084193"><ele>395</ele><time>2020-08-14T11:32:12Z</time><name>PT2629</name></trkpt>
<trkpt lat="54.639280" lon="-3.084165"><ele>397</ele><time>2020-08-14T11:32:15Z</time><name>PT2630</name></trkpt>
<trkpt lat="54.639286" lon="-3.084128"><ele>398</ele><time>2020-08-14T11:32:20Z</time><name>PT2631</name></trkpt>
<trkpt lat="54.639287" lon="-3.084085"><ele>398</ele><time>2020-08-14T11:32:23Z</time><name>PT2632</name></trkpt>
<trkpt lat="54.639294" lon="-3.084065"><ele>400</ele><time>2020-08-14T11:32:26Z</time><name>PT2633</name></trkpt>
<trkpt lat="54.639306" lon="-3.084028"><ele>401</ele><time>2020-08-14T11:32:30Z</time><name>PT2634</name></trkpt>
<trkpt lat="54.639309" lon="-3.083999"><ele>401</ele><time>2020-08-14T11:32:33Z</time><name>PT2635</name></trkpt>
<trkpt lat="54.639309" lon="-3.083965"><ele>402</ele><time>2020-08-14T11:32:38Z</time><name>PT2636</name></trkpt>
<trkpt lat="54.639310" lon="-3.083935"><ele>402</ele><time>2020-08-14T11:32:41Z</time><name>PT2637</name></trkpt>
<trkpt lat="54.639311" lon="-3.083904"><ele>402</ele><time>2020-08-14T11:32:44Z</time><name>PT2638</name></trkpt>
<trkpt lat="54.639313" lon="-3.083867"><ele>402</ele><time>2020-08-14T11:32:47Z</time><name>PT2639</name></trkpt>
<trkpt lat="54.639313" lon="-3.083838"><ele>402</ele><time>2020-08-14T11:32:52Z</time><name>PT2640</name></trkpt>
<trkpt lat="54.639317" lon="-3.083816"><ele>403</ele><time>2020-08-14T11:32:55Z</time><name>PT2641</name></trkpt>
<trkpt lat="54.639317" lon="-3.083786"><ele>403</ele><time>2020-08-14T11:32:58Z</time><name>PT2642</name></trkpt>
<trkpt lat="54.639318" lon="-3.083741"><ele>403</ele><time>2020-08-14T11:33:01Z</time><name>PT2643</name></trkpt>
<trkpt lat="54.639323" lon="-3.083709"><ele>403</ele><time>2020-08-14T11:33:05Z</time><name>PT2644</name></trkpt>
<trkpt lat="54.639330" lon="-3.083666"><ele>403</ele><time>2020-08-14T11:33:10Z</time><name>PT2645</name></trkpt>
<trkpt lat="54.639333" lon="-3.083639"><ele>405</ele><time>2020-08-14T11:33:13Z</time><name>PT2646</name></trkpt>
<trkpt lat="54.639337" lon="-3.083606"><ele>406</ele><time>2020-08-14T11:33:16Z</time><name>PT2647</name></trkpt>
<trkpt lat="54.639339" lon="-3.083564"><ele>408</ele><time>2020-08-14T11:33:20Z</time><name>PT2648</name></trkpt>
<trkpt lat="54.639338" lon="-3.083525"><ele>409</ele><time>2020-08-14T11:33:23Z</time><name>PT2649</name></trkpt>
<trkpt lat="54.639341" lon="-3.083489"><ele>409</ele><time>2020-08-14T11:33:28Z</time><name>PT2650</name></trkpt>
<trkpt lat="54.639342" lon="-3.083469"><ele>410</ele><time>2020-08-14T11:33:31Z</time><name>PT2651</name></trkpt>
<trkpt lat="54.639340" lon="-3.083432"><ele>410</ele><time>2020-08-14T11:33:34Z</time><name>PT2652</name></trkpt>
<trkpt lat="54.639340" lon="-3.083406"><ele>410</ele><time>2020-08-14T11:33:37Z</time><name>PT2653</name></trkpt>
<trkpt lat="54.639340" lon="-3.083370"><ele>411</ele><time>2020-08-14T11:33:42Z</time><name>PT2654</name></trkpt>
<trkpt lat="54.639340" lon="-3.083343"><ele>412</ele><time>2020-08-14T11:33:45Z</time><name>PT2655</name></trkpt>
<trkpt lat="54.639345" lon="-3.083308"><ele>411</ele><time>2020-08-14T11:33:48Z</time><name>PT2656</name></trkpt>
<trkpt lat="54.639339" lon="-3.083276"><ele>411</ele><time>2020-08-14T11:33:51Z</time><name>PT2657</name></trkpt>
<trkpt lat="54.639340" lon="-3.083233"><ele>413</ele><time>2020-08-14T11:33:55Z</time><name>PT2658</name></trkpt>
<trkpt lat="54.639347" lon="-3.083198"><ele>413</ele><time>2020-08-14T11:33:58Z</time><name>PT2659</name></trkpt>
<trkpt lat="54.639350" lon="-3.083160"><ele>414</ele><time>2020-08-14T11:34:01Z</time><name>PT2660</name></trkpt>
<trkpt lat="54.639352" lon="-3.083125"><ele>414</ele><time>2020-08-14T11:34:05Z</time><name>PT2661</name></trkpt>
<trkpt lat="54.639353" lon="-3.083094"><ele>415</ele><time>2020-08-14T11:34:08Z</time><name>PT2662</name></trkpt>
<trkpt lat="54.639351" lon="-3.083051"><ele>416</ele><time>2020-08-14T11:34:11Z</time><name>PT2663</name></trkpt>
<trkpt lat="54.639351" lon="-3.083016"><ele>416</ele><time>2020-08-14T11:34:14Z</time><name>PT2664</name></trkpt>
<trkpt lat="54.639351" lon="-3.082977"><ele>417</ele><time>2020-08-14T11:34:18Z</time><name>PT2665</name></trkpt>
<trkpt lat="54.639349" lon="-3.082946"><ele>419</ele><time>2020-08-14T11:34:21Z</time><name>PT2666</name></trkpt>
<trkpt lat="54.639350" lon="-3.082913"><ele>419</ele><time>2020-08-14T11:34:24Z</time><name>PT2667</name></trkpt>
<trkpt lat="54.639353" lon="-3.082873"><ele>419</ele><time>2020-08-14T11:34:29Z</time><name>PT2668</name></trkpt>
<trkpt lat="54.639355" lon="-3.082842"><ele>419</ele><time>2020-08-14T11:34:32Z</time><name>PT2669</name></trkpt>
<trkpt lat="54.639356" lon="-3.082807"><ele>420</ele><time>2020-08-14T11:34:35Z</time><name>PT2670</name></trkpt>
<trkpt lat="54.639355" lon="-3.082767"><ele>421</ele><time>2020-08-14T11:34:38Z</time><name>PT2671</name></trkpt>
<trkpt lat="54.639357" lon="-3.082732"><ele>422</ele><time>2020-08-14T11:34:41Z</time><name>PT2672</name></trkpt>
<trkpt lat="54.639360" lon="-3.082696"><ele>421</ele><time>2020-08-14T11:34:44Z</time><name>PT2673</name></trkpt>
<trkpt lat="54.639362" lon="-3.082664"><ele>422</ele><time>2020-08-14T11:34:47Z</time><name>PT2674</name></trkpt>
<trkpt lat="54.639367" lon="-3.082628"><ele>422</ele><time>2020-08-14T11:34:50Z</time><name>PT2675</name></trkpt>
<trkpt lat="54.639370" lon="-3.082589"><ele>422</ele><time>2020-08-14T11:34:53Z</time><name>PT2676</name></trkpt>
<trkpt lat="54.639373" lon="-3.082554"><ele>422</ele><time>2020-08-14T11:34:56Z</time><name>PT2677</name></trkpt>
<trkpt lat="54.639373" lon="-3.082519"><ele>423</ele><time>2020-08-14T11:34:59Z</time><name>PT2678</name></trkpt>
<trkpt lat="54.639375" lon="-3.082481"><ele>424</ele><time>2020-08-14T11:35:02Z</time><name>PT2679</name></trkpt>
<trkpt lat="54.639378" lon="-3.082433"><ele>424</ele><time>2020-08-14T11:35:07Z</time><name>PT2680</name></trkpt>
<trkpt lat="54.639388" lon="-3.082395"><ele>425</ele><time>2020-08-14T11:35:10Z</time><name>PT2681</name></trkpt>
<trkpt lat="54.639396" lon="-3.082347"><ele>425</ele><time>2020-08-14T11:35:13Z</time><name>PT2682</name></trkpt>
<trkpt lat="54.639396" lon="-3.082305"><ele>426</ele><time>2020-08-14T11:35:16Z</time><name>PT2683</name></trkpt>
<trkpt lat="54.639400" lon="-3.082272"><ele>426</ele><time>2020-08-14T11:35:19Z</time><name>PT2684</name></trkpt>
<trkpt lat="54.639404" lon="-3.082219"><ele>427</ele><time>2020-08-14T11:35:24Z</time><name>PT2685</name></trkpt>
<trkpt lat="54.639408" lon="-3.082171"><ele>429</ele><time>2020-08-14T11:35:27Z</time><name>PT2686</name></trkpt>
<trkpt lat="54.639407" lon="-3.082131"><ele>429</ele><time>2020-08-14T11:35:30Z</time><name>PT2687</name></trkpt>
<trkpt lat="54.639413" lon="-3.082089"><ele>430</ele><time>2020-08-14T11:35:34Z</time><name>PT2688</name></trkpt>
<trkpt lat="54.639416" lon="-3.082053"><ele>430</ele><time>2020-08-14T11:35:37Z</time><name>PT2689</name></trkpt>
<trkpt lat="54.639418" lon="-3.082019"><ele>430</ele><time>2020-08-14T11:35:40Z</time><name>PT2690</name></trkpt>
<trkpt lat="54.639421" lon="-3.081981"><ele>430</ele><time>2020-08-14T11:35:43Z</time><name>PT2691</name></trkpt>
<trkpt lat="54.639425" lon="-3.081926"><ele>431</ele><time>2020-08-14T11:35:46Z</time><name>PT2692</name></trkpt>
<trkpt lat="54.639431" lon="-3.081892"><ele>431</ele><time>2020-08-14T11:35:49Z</time><name>PT2693</name></trkpt>
<trkpt lat="54.639436" lon="-3.081855"><ele>431</ele><time>2020-08-14T11:35:52Z</time><name>PT2694</name></trkpt>
<trkpt lat="54.639439" lon="-3.081809"><ele>432</ele><time>2020-08-14T11:35:56Z</time><name>PT2695</name></trkpt>
<trkpt lat="54.639439" lon="-3.081751"><ele>433</ele><time>2020-08-14T11:36:01Z</time><name>PT2696</name></trkpt>
<trkpt lat="54.639443" lon="-3.081701"><ele>434</ele><time>2020-08-14T11:36:04Z</time><name>PT2697</name></trkpt>
<trkpt lat="54.639447" lon="-3.081670"><ele>434</ele><time>2020-08-14T11:36:07Z</time><name>PT2698</name></trkpt>
<trkpt lat="54.639446" lon="-3.081635"><ele>435</ele><time>2020-08-14T11:36:10Z</time><name>PT2699</name></trkpt>
<trkpt lat="54.639447" lon="-3.081586"><ele>436</ele><time>2020-08-14T11:36:15Z</time><name>PT2700</name></trkpt>
<trkpt lat="54.639446" lon="-3.081544"><ele>436</ele><time>2020-08-14T11:36:18Z</time><name>PT2701</name></trkpt>
<trkpt lat="54.639449" lon="-3.081513"><ele>436</ele><time>2020-08-14T11:36:21Z</time><name>PT2702</name></trkpt>
<trkpt lat="54.639447" lon="-3.081472"><ele>437</ele><time>2020-08-14T11:36:24Z</time><name>PT2703</name></trkpt>
<trkpt lat="54.639446" lon="-3.081439"><ele>437</ele><time>2020-08-14T11:36:27Z</time><name>PT2704</name></trkpt>
<trkpt lat="54.639444" lon="-3.081395"><ele>437</ele><time>2020-08-14T11:36:31Z</time><name>PT2705</name></trkpt>
<trkpt lat="54.639444" lon="-3.081359"><ele>437</ele><time>2020-08-14T11:36:34Z</time><name>PT2706</name></trkpt>
<trkpt lat="54.639444" lon="-3.081324"><ele>439</ele><time>2020-08-14T11:36:39Z</time><name>PT2707</name></trkpt>
<trkpt lat="54.639442" lon="-3.081295"><ele>439</ele><time>2020-08-14T11:36:42Z</time><name>PT2708</name></trkpt>
<trkpt lat="54.639442" lon="-3.081261"><ele>439</ele><time>2020-08-14T11:36:45Z</time><name>PT2709</name></trkpt>
<trkpt lat="54.639437" lon="-3.081212"><ele>439</ele><time>2020-08-14T11:36:48Z</time><name>PT2710</name></trkpt>
<trkpt lat="54.639433" lon="-3.081181"><ele>440</ele><time>2020-08-14T11:36:51Z</time><name>PT2711</name></trkpt>
<trkpt lat="54.639424" lon="-3.081139"><ele>441</ele><time>2020-08-14T11:36:56Z</time><name>PT2712</name></trkpt>
<trkpt lat="54.639418" lon="-3.081112"><ele>441</ele><time>2020-08-14T11:36:59Z</time><name>PT2713</name></trkpt>
<trkpt lat="54.639411" lon="-3.081076"><ele>441</ele><time>2020-08-14T11:37:02Z</time><name>PT2714</name></trkpt>
<trkpt lat="54.639406" lon="-3.081047"><ele>441</ele><time>2020-08-14T11:37:05Z</time><name>PT2715</name></trkpt>
<trkpt lat="54.639401" lon="-3.081018"><ele>442</ele><time>2020-08-14T11:37:08Z</time><name>PT2716</name></trkpt>
<trkpt lat="54.639397" lon="-3.080987"><ele>443</ele><time>2020-08-14T11:37:12Z</time><name>PT2717</name></trkpt>
<trkpt lat="54.639393" lon="-3.080964"><ele>443</ele><time>2020-08-14T11:37:15Z</time><name>PT2718</name></trkpt>
<trkpt lat="54.639388" lon="-3.080927"><ele>442</ele><time>2020-08-14T11:37:18Z</time><name>PT2719</name></trkpt>
<trkpt lat="54.639380" lon="-3.080888"><ele>443</ele><time>2020-08-14T11:37:23Z</time><name>PT2720</name></trkpt>
<trkpt lat="54.639370" lon="-3.080845"><ele>443</ele><time>2020-08-14T11:37:26Z</time><name>PT2721</name></trkpt>
<trkpt lat="54.639364" lon="-3.080811"><ele>443</ele><time>2020-08-14T11:37:29Z</time><name>PT2722</name></trkpt>
<trkpt lat="54.639351" lon="-3.080770"><ele>443</ele><time>2020-08-14T11:37:34Z</time><name>PT2723</name></trkpt>
<trkpt lat="54.639347" lon="-3.080747"><ele>444</ele><time>2020-08-14T11:37:37Z</time><name>PT2724</name></trkpt>
<trkpt lat="54.639344" lon="-3.080710"><ele>445</ele><time>2020-08-14T11:37:40Z</time><name>PT2725</name></trkpt>
<trkpt lat="54.639339" lon="-3.080680"><ele>446</ele><time>2020-08-14T11:37:43Z</time><name>PT2726</name></trkpt>
<trkpt lat="54.639334" lon="-3.080652"><ele>446</ele><time>2020-08-14T11:37:46Z</time><name>PT2727</name></trkpt>
<trkpt lat="54.639327" lon="-3.080620"><ele>447</ele><time>2020-08-14T11:37:50Z</time><name>PT2728</name></trkpt>
<trkpt lat="54.639321" lon="-3.080580"><ele>448</ele><time>2020-08-14T11:37:55Z</time><name>PT2729</name></trkpt>
<trkpt lat="54.639317" lon="-3.080539"><ele>449</ele><time>2020-08-14T11:37:58Z</time><name>PT2730</name></trkpt>
<trkpt lat="54.639310" lon="-3.080502"><ele>450</ele><time>2020-08-14T11:38:03Z</time><name>PT2731</name></trkpt>
<trkpt lat="54.639304" lon="-3.080460"><ele>450</ele><time>2020-08-14T11:38:06Z</time><name>PT2732</name></trkpt>
<trkpt lat="54.639302" lon="-3.080432"><ele>451</ele><time>2020-08-14T11:38:09Z</time><name>PT2733</name></trkpt>
<trkpt lat="54.639300" lon="-3.080406"><ele>451</ele><time>2020-08-14T11:38:13Z</time><name>PT2734</name></trkpt>
<trkpt lat="54.639301" lon="-3.080384"><ele>451</ele><time>2020-08-14T11:38:16Z</time><name>PT2735</name></trkpt>
<trkpt lat="54.639298" lon="-3.080344"><ele>454</ele><time>2020-08-14T11:38:21Z</time><name>PT2736</name></trkpt>
<trkpt lat="54.639296" lon="-3.080312"><ele>454</ele><time>2020-08-14T11:38:24Z</time><name>PT2737</name></trkpt>
<trkpt lat="54.639301" lon="-3.080282"><ele>453</ele><time>2020-08-14T11:38:27Z</time><name>PT2738</name></trkpt>
<trkpt lat="54.639300" lon="-3.080246"><ele>454</ele><time>2020-08-14T11:38:30Z</time><name>PT2739</name></trkpt>
<trkpt lat="54.639301" lon="-3.080205"><ele>454</ele><time>2020-08-14T11:38:34Z</time><name>PT2740</name></trkpt>
<trkpt lat="54.639302" lon="-3.080175"><ele>454</ele><time>2020-08-14T11:38:37Z</time><name>PT2741</name></trkpt>
<trkpt lat="54.639301" lon="-3.080149"><ele>454</ele><time>2020-08-14T11:38:40Z</time><name>PT2742</name></trkpt>
<trkpt lat="54.639301" lon="-3.080120"><ele>456</ele><time>2020-08-14T11:38:45Z</time><name>PT2743</name></trkpt>
<trkpt lat="54.639303" lon="-3.080093"><ele>458</ele><time>2020-08-14T11:38:48Z</time><name>PT2744</name></trkpt>
<trkpt lat="54.639302" lon="-3.080063"><ele>457</ele><time>2020-08-14T11:38:51Z</time><name>PT2745</name></trkpt>
<trkpt lat="54.639304" lon="-3.080033"><ele>457</ele><time>2020-08-14T11:38:54Z</time><name>PT2746</name></trkpt>
<trkpt lat="54.639300" lon="-3.080006"><ele>457</ele><time>2020-08-14T11:38:59Z</time><name>PT2747</name></trkpt>
<trkpt lat="54.639301" lon="-3.079961"><ele>458</ele><time>2020-08-14T11:39:02Z</time><name>PT2748</name></trkpt>
<trkpt lat="54.639295" lon="-3.079942"><ele>460</ele><time>2020-08-14T11:39:06Z</time><name>PT2749</name></trkpt>
<trkpt lat="54.639294" lon="-3.079918"><ele>460</ele><time>2020-08-14T11:39:09Z</time><name>PT2750</name></trkpt>
<trkpt lat="54.639295" lon="-3.079885"><ele>460</ele><time>2020-08-14T11:39:14Z</time><name>PT2751</name></trkpt>
<trkpt lat="54.639293" lon="-3.079850"><ele>460</ele><time>2020-08-14T11:39:17Z</time><name>PT2752</name></trkpt>
<trkpt lat="54.639292" lon="-3.079822"><ele>460</ele><time>2020-08-14T11:39:20Z</time><name>PT2753</name></trkpt>
<trkpt lat="54.639286" lon="-3.079791"><ele>461</ele><time>2020-08-14T11:39:23Z</time><name>PT2754</name></trkpt>
<trkpt lat="54.639282" lon="-3.079749"><ele>462</ele><time>2020-08-14T11:39:28Z</time><name>PT2755</name></trkpt>
<trkpt lat="54.639279" lon="-3.079720"><ele>463</ele><time>2020-08-14T11:39:31Z</time><name>PT2756</name></trkpt>
<trkpt lat="54.639274" lon="-3.079681"><ele>464</ele><time>2020-08-14T11:39:34Z</time><name>PT2757</name></trkpt>
<trkpt lat="54.639266" lon="-3.079656"><ele>465</ele><time>2020-08-14T11:39:37Z</time><name>PT2758</name></trkpt>
<trkpt lat="54.639256" lon="-3.079634"><ele>465</ele><time>2020-08-14T11:39:40Z</time><name>PT2759</name></trkpt>
<trkpt lat="54.639251" lon="-3.079595"><ele>465</ele><time>2020-08-14T11:39:44Z</time><name>PT2760</name></trkpt>
<trkpt lat="54.639242" lon="-3.079565"><ele>466</ele><time>2020-08-14T11:39:49Z</time><name>PT2761</name></trkpt>
<trkpt lat="54.639239" lon="-3.079544"><ele>467</ele><time>2020-08-14T11:39:52Z</time><name>PT2762</name></trkpt>
<trkpt lat="54.639241" lon="-3.079511"><ele>467</ele><time>2020-08-14T11:39:55Z</time><name>PT2763</name></trkpt>
<trkpt lat="54.639240" lon="-3.079483"><ele>469</ele><time>2020-08-14T11:39:58Z</time><name>PT2764</name></trkpt>
<trkpt lat="54.639238" lon="-3.079447"><ele>470</ele><time>2020-08-14T11:40:03Z</time><name>PT2765</name></trkpt>
<trkpt lat="54.639244" lon="-3.079417"><ele>471</ele><time>2020-08-14T11:40:06Z</time><name>PT2766</name></trkpt>
<trkpt lat="54.639247" lon="-3.079383"><ele>471</ele><time>2020-08-14T11:40:10Z</time><name>PT2767</name></trkpt>
<trkpt lat="54.639245" lon="-3.079345"><ele>471</ele><time>2020-08-14T11:40:15Z</time><name>PT2768</name></trkpt>
<trkpt lat="54.639246" lon="-3.079324"><ele>472</ele><time>2020-08-14T11:40:18Z</time><name>PT2769</name></trkpt>
<trkpt lat="54.639245" lon="-3.079280"><ele>473</ele><time>2020-08-14T11:40:21Z</time><name>PT2770</name></trkpt>
<trkpt lat="54.639247" lon="-3.079252"><ele>474</ele><time>2020-08-14T11:40:24Z</time><name>PT2771</name></trkpt>
<trkpt lat="54.639245" lon="-3.079206"><ele>474</ele><time>2020-08-14T11:40:28Z</time><name>PT2772</name></trkpt>
<trkpt lat="54.639241" lon="-3.079173"><ele>474</ele><time>2020-08-14T11:40:31Z</time><name>PT2773</name></trkpt>
<trkpt lat="54.639242" lon="-3.079141"><ele>475</ele><time>2020-08-14T11:40:34Z</time><name>PT2774</name></trkpt>
<trkpt lat="54.639240" lon="-3.079099"><ele>475</ele><time>2020-08-14T11:40:38Z</time><name>PT2775</name></trkpt>
<trkpt lat="54.639240" lon="-3.079064"><ele>475</ele><time>2020-08-14T11:40:41Z</time><name>PT2776</name></trkpt>
<trkpt lat="54.639231" lon="-3.079022"><ele>475</ele><time>2020-08-14T11:40:44Z</time><name>PT2777</name></trkpt>
<trkpt lat="54.639228" lon="-3.078991"><ele>476</ele><time>2020-08-14T11:40:47Z</time><name>PT2778</name></trkpt>
<trkpt lat="54.639224" lon="-3.078955"><ele>477</ele><time>2020-08-14T11:40:51Z</time><name>PT2779</name></trkpt>
<trkpt lat="54.639223" lon="-3.078919"><ele>478</ele><time>2020-08-14T11:40:54Z</time><name>PT2780</name></trkpt>
<trkpt lat="54.639218" lon="-3.078877"><ele>477</ele><time>2020-08-14T11:40:59Z</time><name>PT2781</name></trkpt>
<trkpt lat="54.639212" lon="-3.078844"><ele>477</ele><time>2020-08-14T11:41:02Z</time><name>PT2782</name></trkpt>
<trkpt lat="54.639211" lon="-3.078803"><ele>478</ele><time>2020-08-14T11:41:05Z</time><name>PT2783</name></trkpt>
<trkpt lat="54.639211" lon="-3.078773"><ele>479</ele><time>2020-08-14T11:41:08Z</time><name>PT2784</name></trkpt>
<trkpt lat="54.639212" lon="-3.078735"><ele>481</ele><time>2020-08-14T11:41:12Z</time><name>PT2785</name></trkpt>
<trkpt lat="54.639214" lon="-3.078703"><ele>481</ele><time>2020-08-14T11:41:17Z</time><name>PT2786</name></trkpt>
<trkpt lat="54.639217" lon="-3.078667"><ele>482</ele><time>2020-08-14T11:41:20Z</time><name>PT2787</name></trkpt>
<trkpt lat="54.639217" lon="-3.078618"><ele>482</ele><time>2020-08-14T11:41:24Z</time><name>PT2788</name></trkpt>
<trkpt lat="54.639218" lon="-3.078591"><ele>482</ele><time>2020-08-14T11:41:28Z</time><name>PT2789</name></trkpt>
<trkpt lat="54.639213" lon="-3.078551"><ele>482</ele><time>2020-08-14T11:41:31Z</time><name>PT2790</name></trkpt>
<trkpt lat="54.639214" lon="-3.078523"><ele>483</ele><time>2020-08-14T11:41:34Z</time><name>PT2791</name></trkpt>
<trkpt lat="54.639209" lon="-3.078482"><ele>484</ele><time>2020-08-14T11:41:38Z</time><name>PT2792</name></trkpt>
<trkpt lat="54.639212" lon="-3.078451"><ele>484</ele><time>2020-08-14T11:41:41Z</time><name>PT2793</name></trkpt>
<trkpt lat="54.639211" lon="-3.078421"><ele>485</ele><time>2020-08-14T11:41:44Z</time><name>PT2794</name></trkpt>
<trkpt lat="54.639209" lon="-3.078381"><ele>485</ele><time>2020-08-14T11:41:49Z</time><name>PT2795</name></trkpt>
<trkpt lat="54.639208" lon="-3.078352"><ele>486</ele><time>2020-08-14T11:41:52Z</time><name>PT2796</name></trkpt>
<trkpt lat="54.639201" lon="-3.078314"><ele>487</ele><time>2020-08-14T11:41:55Z</time><name>PT2797</name></trkpt>
<trkpt lat="54.639201" lon="-3.078284"><ele>487</ele><time>2020-08-14T11:41:58Z</time><name>PT2798</name></trkpt>
<trkpt lat="54.639204" lon="-3.078246"><ele>488</ele><time>2020-08-14T11:42:01Z</time><name>PT2799</name></trkpt>
<trkpt lat="54.639206" lon="-3.078220"><ele>488</ele><time>2020-08-14T11:42:04Z</time><name>PT2800</name></trkpt>
<trkpt lat="54.639200" lon="-3.078176"><ele>488</ele><time>2020-08-14T11:42:09Z</time><name>PT2801</name></trkpt>
<trkpt lat="54.639198" lon="-3.078150"><ele>488</ele><time>2020-08-14T11:42:12Z</time><name>PT2802</name></trkpt>
<trkpt lat="54.639200" lon="-3.078134"><ele>489</ele><time>2020-08-14T11:42:15Z</time><name>PT2803</name></trkpt>
<trkpt lat="54.639196" lon="-3.078113"><ele>489</ele><time>2020-08-14T11:42:18Z</time><name>PT2804</name></trkpt>
<trkpt lat="54.639189" lon="-3.078081"><ele>491</ele><time>2020-08-14T11:42:21Z</time><name>PT2805</name></trkpt>
<trkpt lat="54.639174" lon="-3.078069"><ele>491</ele><time>2020-08-14T11:42:24Z</time><name>PT2806</name></trkpt>
<trkpt lat="54.639162" lon="-3.078025"><ele>492</ele><time>2020-08-14T11:42:28Z</time><name>PT2807</name></trkpt>
<trkpt lat="54.639168" lon="-3.077986"><ele>492</ele><time>2020-08-14T11:42:32Z</time><name>PT2808</name></trkpt>
<trkpt lat="54.639169" lon="-3.077944"><ele>492</ele><time>2020-08-14T11:42:35Z</time><name>PT2809</name></trkpt>
<trkpt lat="54.639161" lon="-3.077910"><ele>492</ele><time>2020-08-14T11:42:38Z</time><name>PT2810</name></trkpt>
<trkpt lat="54.639159" lon="-3.077883"><ele>493</ele><time>2020-08-14T11:42:41Z</time><name>PT2811</name></trkpt>
<trkpt lat="54.639157" lon="-3.077842"><ele>494</ele><time>2020-08-14T11:42:44Z</time><name>PT2812</name></trkpt>
<trkpt lat="54.639143" lon="-3.077809"><ele>493</ele><time>2020-08-14T11:42:47Z</time><name>PT2813</name></trkpt>
<trkpt lat="54.639134" lon="-3.077779"><ele>494</ele><time>2020-08-14T11:42:50Z</time><name>PT2814</name></trkpt>
<trkpt lat="54.639123" lon="-3.077735"><ele>493</ele><time>2020-08-14T11:42:54Z</time><name>PT2815</name></trkpt>
<trkpt lat="54.639115" lon="-3.077693"><ele>494</ele><time>2020-08-14T11:42:59Z</time><name>PT2816</name></trkpt>
<trkpt lat="54.639108" lon="-3.077660"><ele>495</ele><time>2020-08-14T11:43:02Z</time><name>PT2817</name></trkpt>
<trkpt lat="54.639102" lon="-3.077635"><ele>496</ele><time>2020-08-14T11:43:05Z</time><name>PT2818</name></trkpt>
<trkpt lat="54.639097" lon="-3.077613"><ele>497</ele><time>2020-08-14T11:43:08Z</time><name>PT2819</name></trkpt>
<trkpt lat="54.639086" lon="-3.077570"><ele>498</ele><time>2020-08-14T11:43:12Z</time><name>PT2820</name></trkpt>
<trkpt lat="54.639087" lon="-3.077538"><ele>499</ele><time>2020-08-14T11:43:16Z</time><name>PT2821</name></trkpt>
<trkpt lat="54.639083" lon="-3.077507"><ele>498</ele><time>2020-08-14T11:43:19Z</time><name>PT2822</name></trkpt>
<trkpt lat="54.639083" lon="-3.077468"><ele>499</ele><time>2020-08-14T11:43:22Z</time><name>PT2823</name></trkpt>
<trkpt lat="54.639081" lon="-3.077433"><ele>502</ele><time>2020-08-14T11:43:26Z</time><name>PT2824</name></trkpt>
<trkpt lat="54.639093" lon="-3.077391"><ele>502</ele><time>2020-08-14T11:43:31Z</time><name>PT2825</name></trkpt>
<trkpt lat="54.639094" lon="-3.077359"><ele>502</ele><time>2020-08-14T11:43:34Z</time><name>PT2826</name></trkpt>
<trkpt lat="54.639089" lon="-3.077329"><ele>504</ele><time>2020-08-14T11:43:37Z</time><name>PT2827</name></trkpt>
<trkpt lat="54.639089" lon="-3.077293"><ele>504</ele><time>2020-08-14T11:43:40Z</time><name>PT2828</name></trkpt>
<trkpt lat="54.639089" lon="-3.077241"><ele>504</ele><time>2020-08-14T11:43:43Z</time><name>PT2829</name></trkpt>
<trkpt lat="54.639088" lon="-3.077203"><ele>505</ele><time>2020-08-14T11:43:46Z</time><name>PT2830</name></trkpt>
<trkpt lat="54.639095" lon="-3.077174"><ele>506</ele><time>2020-08-14T11:43:49Z</time><name>PT2831</name></trkpt>
<trkpt lat="54.639100" lon="-3.077124"><ele>506</ele><time>2020-08-14T11:43:53Z</time><name>PT2832</name></trkpt>
<trkpt lat="54.639094" lon="-3.077088"><ele>505</ele><time>2020-08-14T11:43:56Z</time><name>PT2833</name></trkpt>
<trkpt lat="54.639094" lon="-3.077065"><ele>505</ele><time>2020-08-14T11:44:00Z</time><name>PT2834</name></trkpt>
<trkpt lat="54.639091" lon="-3.077037"><ele>505</ele><time>2020-08-14T11:44:03Z</time><name>PT2835</name></trkpt>
<trkpt lat="54.639092" lon="-3.077016"><ele>506</ele><time>2020-08-14T11:44:06Z</time><name>PT2836</name></trkpt>
<trkpt lat="54.639080" lon="-3.076964"><ele>506</ele><time>2020-08-14T11:44:09Z</time><name>PT2837</name></trkpt>
<trkpt lat="54.639075" lon="-3.076916"><ele>507</ele><time>2020-08-14T11:44:13Z</time><name>PT2838</name></trkpt>
<trkpt lat="54.639070" lon="-3.076874"><ele>507</ele><time>2020-08-14T11:44:16Z</time><name>PT2839</name></trkpt>
<trkpt lat="54.639069" lon="-3.076815"><ele>508</ele><time>2020-08-14T11:44:21Z</time><name>PT2840</name></trkpt>
<trkpt lat="54.639069" lon="-3.076765"><ele>508</ele><time>2020-08-14T11:44:24Z</time><name>PT2841</name></trkpt>
<trkpt lat="54.639066" lon="-3.076718"><ele>507</ele><time>2020-08-14T11:44:29Z</time><name>PT2842</name></trkpt>
<trkpt lat="54.639071" lon="-3.076689"><ele>508</ele><time>2020-08-14T11:44:32Z</time><name>PT2843</name></trkpt>
<trkpt lat="54.639071" lon="-3.076663"><ele>508</ele><time>2020-08-14T11:44:35Z</time><name>PT2844</name></trkpt>
<trkpt lat="54.639075" lon="-3.076622"><ele>509</ele><time>2020-08-14T11:44:38Z</time><name>PT2845</name></trkpt>
<trkpt lat="54.639073" lon="-3.076591"><ele>510</ele><time>2020-08-14T11:44:41Z</time><name>PT2846</name></trkpt>
<trkpt lat="54.639070" lon="-3.076555"><ele>511</ele><time>2020-08-14T11:44:45Z</time><name>PT2847</name></trkpt>
<trkpt lat="54.639076" lon="-3.076538"><ele>513</ele><time>2020-08-14T11:44:48Z</time><name>PT2848</name></trkpt>
<trkpt lat="54.639076" lon="-3.076503"><ele>513</ele><time>2020-08-14T11:44:53Z</time><name>PT2849</name></trkpt>
<trkpt lat="54.639076" lon="-3.076469"><ele>513</ele><time>2020-08-14T11:44:56Z</time><name>PT2850</name></trkpt>
<trkpt lat="54.639082" lon="-3.076432"><ele>514</ele><time>2020-08-14T11:44:59Z</time><name>PT2851</name></trkpt>
<trkpt lat="54.639080" lon="-3.076385"><ele>513</ele><time>2020-08-14T11:45:02Z</time><name>PT2852</name></trkpt>
<trkpt lat="54.639069" lon="-3.076354"><ele>513</ele><time>2020-08-14T11:45:07Z</time><name>PT2853</name></trkpt>
<trkpt lat="54.639059" lon="-3.076345"><ele>514</ele><time>2020-08-14T11:45:10Z</time><name>PT2854</name></trkpt>
<trkpt lat="54.639054" lon="-3.076345"><ele>514</ele><time>2020-08-14T11:45:13Z</time><name>PT2855</name></trkpt>
<trkpt lat="54.639068" lon="-3.076308"><ele>514</ele><time>2020-08-14T11:45:16Z</time><name>PT2856</name></trkpt>
<trkpt lat="54.639073" lon="-3.076302"><ele>514</ele><time>2020-08-14T11:45:19Z</time><name>PT2857</name></trkpt>
<trkpt lat="54.639074" lon="-3.076298"><ele>515</ele><time>2020-08-14T11:45:22Z</time><name>PT2858</name></trkpt>
<trkpt lat="54.639074" lon="-3.076290"><ele>514</ele><time>2020-08-14T11:45:22Z</time><name>PT2859</name></trkpt>
<trkpt lat="54.639078" lon="-3.076295"><ele>515</ele><time>2020-08-14T11:45:23Z</time><name>PT2860</name></trkpt>
<trkpt lat="54.639078" lon="-3.076294"><ele>515</ele><time>2020-08-14T11:45:25Z</time><name>PT2861</name></trkpt>
<trkpt lat="54.639077" lon="-3.076302"><ele>515</ele><time>2020-08-14T11:45:25Z</time><name>PT2862</name></trkpt>
<trkpt lat="54.639077" lon="-3.076305"><ele>515</ele><time>2020-08-14T11:45:26Z</time><name>PT2863</name></trkpt>
<trkpt lat="54.639078" lon="-3.076306"><ele>515</ele><time>2020-08-14T11:45:27Z</time><name>PT2864</name></trkpt>
<trkpt lat="54.639079" lon="-3.076304"><ele>515</ele><time>2020-08-14T11:45:28Z</time><name>PT2865</name></trkpt>
<trkpt lat="54.639075" lon="-3.076294"><ele>516</ele><time>2020-08-14T11:45:29Z</time><name>PT2866</name></trkpt>
<trkpt lat="54.639073" lon="-3.076281"><ele>516</ele><time>2020-08-14T11:45:31Z</time><name>PT2867</name></trkpt>
<trkpt lat="54.639071" lon="-3.076268"><ele>517</ele><time>2020-08-14T11:45:31Z</time><name>PT2868</name></trkpt>
<trkpt lat="54.639069" lon="-3.076261"><ele>517</ele><time>2020-08-14T11:45:32Z</time><name>PT2869</name></trkpt>
<trkpt lat="54.639067" lon="-3.076251"><ele>517</ele><time>2020-08-14T11:45:34Z</time><name>PT2870</name></trkpt>
<trkpt lat="54.639065" lon="-3.076238"><ele>518</ele><time>2020-08-14T11:45:34Z</time><name>PT2871</name></trkpt>
<trkpt lat="54.639061" lon="-3.076226"><ele>518</ele><time>2020-08-14T11:45:35Z</time><name>PT2872</name></trkpt>
<trkpt lat="54.639059" lon="-3.076218"><ele>519</ele><time>2020-08-14T11:45:37Z</time><name>PT2873</name></trkpt>
<trkpt lat="54.639059" lon="-3.076207"><ele>519</ele><time>2020-08-14T11:45:37Z</time><name>PT2874</name></trkpt>
<trkpt lat="54.639058" lon="-3.076193"><ele>519</ele><time>2020-08-14T11:45:38Z</time><name>PT2875</name></trkpt>
<trkpt lat="54.639058" lon="-3.076185"><ele>520</ele><time>2020-08-14T11:45:40Z</time><name>PT2876</name></trkpt>
<trkpt lat="54.639059" lon="-3.076178"><ele>520</ele><time>2020-08-14T11:45:40Z</time><name>PT2877</name></trkpt>
<trkpt lat="54.639057" lon="-3.076166"><ele>520</ele><time>2020-08-14T11:45:41Z</time><name>PT2878</name></trkpt>
<trkpt lat="54.639058" lon="-3.076159"><ele>521</ele><time>2020-08-14T11:45:42Z</time><name>PT2879</name></trkpt>
<trkpt lat="54.639056" lon="-3.076145"><ele>521</ele><time>2020-08-14T11:45:43Z</time><name>PT2880</name></trkpt>
<trkpt lat="54.639052" lon="-3.076127"><ele>520</ele><time>2020-08-14T11:45:44Z</time><name>PT2881</name></trkpt>
<trkpt lat="54.639048" lon="-3.076118"><ele>520</ele><time>2020-08-14T11:45:46Z</time><name>PT2882</name></trkpt>
<trkpt lat="54.639045" lon="-3.076107"><ele>520</ele><time>2020-08-14T11:45:46Z</time><name>PT2883</name></trkpt>
<trkpt lat="54.639041" lon="-3.076094"><ele>521</ele><time>2020-08-14T11:45:47Z</time><name>PT2884</name></trkpt>
<trkpt lat="54.639037" lon="-3.076085"><ele>521</ele><time>2020-08-14T11:45:48Z</time><name>PT2885</name></trkpt>
<trkpt lat="54.639033" lon="-3.076079"><ele>521</ele><time>2020-08-14T11:45:49Z</time><name>PT2886</name></trkpt>
<trkpt lat="54.639029" lon="-3.076069"><ele>521</ele><time>2020-08-14T11:45:50Z</time><name>PT2887</name></trkpt>
<trkpt lat="54.639026" lon="-3.076058"><ele>521</ele><time>2020-08-14T11:45:52Z</time><name>PT2888</name></trkpt>
<trkpt lat="54.639023" lon="-3.076051"><ele>521</ele><time>2020-08-14T11:45:52Z</time><name>PT2889</name></trkpt>
<trkpt lat="54.639023" lon="-3.076041"><ele>522</ele><time>2020-08-14T11:45:53Z</time><name>PT2890</name></trkpt>
<trkpt lat="54.639022" lon="-3.076031"><ele>522</ele><time>2020-08-14T11:45:55Z</time><name>PT2891</name></trkpt>
<trkpt lat="54.639021" lon="-3.076021"><ele>522</ele><time>2020-08-14T11:45:55Z</time><name>PT2892</name></trkpt>
<trkpt lat="54.639019" lon="-3.076007"><ele>522</ele><time>2020-08-14T11:45:56Z</time><name>PT2893</name></trkpt>
<trkpt lat="54.639017" lon="-3.075996"><ele>522</ele><time>2020-08-14T11:45:58Z</time><name>PT2894</name></trkpt>
<trkpt lat="54.639016" lon="-3.075988"><ele>523</ele><time>2020-08-14T11:45:58Z</time><name>PT2895</name></trkpt>
<trkpt lat="54.639016" lon="-3.075975"><ele>523</ele><time>2020-08-14T11:45:59Z</time><name>PT2896</name></trkpt>
<trkpt lat="54.639017" lon="-3.075965"><ele>524</ele><time>2020-08-14T11:46:00Z</time><name>PT2897</name></trkpt>
<trkpt lat="54.639013" lon="-3.075956"><ele>524</ele><time>2020-08-14T11:46:01Z</time><name>PT2898</name></trkpt>
<trkpt lat="54.639011" lon="-3.075942"><ele>524</ele><time>2020-08-14T11:46:02Z</time><name>PT2899</name></trkpt>
<trkpt lat="54.639008" lon="-3.075934"><ele>525</ele><time>2020-08-14T11:46:04Z</time><name>PT2900</name></trkpt>
<trkpt lat="54.639005" lon="-3.075921"><ele>525</ele><time>2020-08-14T11:46:04Z</time><name>PT2901</name></trkpt>
<trkpt lat="54.639003" lon="-3.075911"><ele>525</ele><time>2020-08-14T11:46:05Z</time><name>PT2902</name></trkpt>
<trkpt lat="54.638998" lon="-3.075908"><ele>525</ele><time>2020-08-14T11:46:07Z</time><name>PT2903</name></trkpt>
<trkpt lat="54.638995" lon="-3.075896"><ele>525</ele><time>2020-08-14T11:46:07Z</time><name>PT2904</name></trkpt>
<trkpt lat="54.638992" lon="-3.075888"><ele>525</ele><time>2020-08-14T11:46:08Z</time><name>PT2905</name></trkpt>
<trkpt lat="54.638990" lon="-3.075877"><ele>525</ele><time>2020-08-14T11:46:10Z</time><name>PT2906</name></trkpt>
<trkpt lat="54.638987" lon="-3.075866"><ele>525</ele><time>2020-08-14T11:46:10Z</time><name>PT2907</name></trkpt>
<trkpt lat="54.638984" lon="-3.075860"><ele>526</ele><time>2020-08-14T11:46:11Z</time><name>PT2908</name></trkpt>
<trkpt lat="54.638988" lon="-3.075850"><ele>526</ele><time>2020-08-14T11:46:13Z</time><name>PT2909</name></trkpt>
<trkpt lat="54.638992" lon="-3.075842"><ele>527</ele><time>2020-08-14T11:46:13Z</time><name>PT2910</name></trkpt>
<trkpt lat="54.638995" lon="-3.075833"><ele>528</ele><time>2020-08-14T11:46:14Z</time><name>PT2911</name></trkpt>
<trkpt lat="54.638992" lon="-3.075816"><ele>528</ele><time>2020-08-14T11:46:16Z</time><name>PT2912</name></trkpt>
<trkpt lat="54.638991" lon="-3.075806"><ele>528</ele><time>2020-08-14T11:46:16Z</time><name>PT2913</name></trkpt>
<trkpt lat="54.638993" lon="-3.075798"><ele>528</ele><time>2020-08-14T11:46:17Z</time><name>PT2914</name></trkpt>
<trkpt lat="54.638992" lon="-3.075786"><ele>529</ele><time>2020-08-14T11:46:19Z</time><name>PT2915</name></trkpt>
<trkpt lat="54.638993" lon="-3.075777"><ele>529</ele><time>2020-08-14T11:46:19Z</time><name>PT2916</name></trkpt>
<trkpt lat="54.638994" lon="-3.075764"><ele>529</ele><time>2020-08-14T11:46:20Z</time><name>PT2917</name></trkpt>
<trkpt lat="54.638993" lon="-3.075749"><ele>529</ele><time>2020-08-14T11:46:22Z</time><name>PT2918</name></trkpt>
<trkpt lat="54.638992" lon="-3.075743"><ele>529</ele><time>2020-08-14T11:46:22Z</time><name>PT2919</name></trkpt>
<trkpt lat="54.638988" lon="-3.075733"><ele>529</ele><time>2020-08-14T11:46:23Z</time><name>PT2920</name></trkpt>
<trkpt lat="54.638984" lon="-3.075722"><ele>529</ele><time>2020-08-14T11:46:25Z</time><name>PT2921</name></trkpt>
<trkpt lat="54.638982" lon="-3.075713"><ele>529</ele><time>2020-08-14T11:46:25Z</time><name>PT2922</name></trkpt>
<trkpt lat="54.638981" lon="-3.075702"><ele>529</ele><time>2020-08-14T11:46:26Z</time><name>PT2923</name></trkpt>
<trkpt lat="54.638979" lon="-3.075692"><ele>529</ele><time>2020-08-14T11:46:28Z</time><name>PT2924</name></trkpt>
<trkpt lat="54.638978" lon="-3.075677"><ele>529</ele><time>2020-08-14T11:46:28Z</time><name>PT2925</name></trkpt>
<trkpt lat="54.638979" lon="-3.075667"><ele>529</ele><time>2020-08-14T11:46:29Z</time><name>PT2926</name></trkpt>
<trkpt lat="54.638979" lon="-3.075654"><ele>529</ele><time>2020-08-14T11:46:31Z</time><name>PT2927</name></trkpt>
<trkpt lat="54.638979" lon="-3.075641"><ele>529</ele><time>2020-08-14T11:46:31Z</time><name>PT2928</name></trkpt>
<trkpt lat="54.638979" lon="-3.075632"><ele>529</ele><time>2020-08-14T11:46:32Z</time><name>PT2929</name></trkpt>
<trkpt lat="54.638976" lon="-3.075619"><ele>530</ele><time>2020-08-14T11:46:34Z</time><name>PT2930</name></trkpt>
<trkpt lat="54.638975" lon="-3.075607"><ele>530</ele><time>2020-08-14T11:46:34Z</time><name>PT2931</name></trkpt>
<trkpt lat="54.638976" lon="-3.075596"><ele>530</ele><time>2020-08-14T11:46:35Z</time><name>PT2932</name></trkpt>
<trkpt lat="54.638976" lon="-3.075578"><ele>530</ele><time>2020-08-14T11:46:37Z</time><name>PT2933</name></trkpt>
<trkpt lat="54.638976" lon="-3.075566"><ele>530</ele><time>2020-08-14T11:46:37Z</time><name>PT2934</name></trkpt>
<trkpt lat="54.638976" lon="-3.075556"><ele>530</ele><time>2020-08-14T11:46:38Z</time><name>PT2935</name></trkpt>
<trkpt lat="54.638974" lon="-3.075548"><ele>530</ele><time>2020-08-14T11:46:40Z</time><name>PT2936</name></trkpt>
<trkpt lat="54.638972" lon="-3.075539"><ele>530</ele><time>2020-08-14T11:46:40Z</time><name>PT2937</name></trkpt>
<trkpt lat="54.638972" lon="-3.075525"><ele>530</ele><time>2020-08-14T11:46:41Z</time><name>PT2938</name></trkpt>
<trkpt lat="54.638972" lon="-3.075516"><ele>530</ele><time>2020-08-14T11:46:43Z</time><name>PT2939</name></trkpt>
<trkpt lat="54.638971" lon="-3.075506"><ele>531</ele><time>2020-08-14T11:46:43Z</time><name>PT2940</name></trkpt>
<trkpt lat="54.638970" lon="-3.075495"><ele>531</ele><time>2020-08-14T11:46:44Z</time><name>PT2941</name></trkpt>
<trkpt lat="54.638969" lon="-3.075485"><ele>531</ele><time>2020-08-14T11:46:46Z</time><name>PT2942</name></trkpt>
<trkpt lat="54.638966" lon="-3.075471"><ele>531</ele><time>2020-08-14T11:46:46Z</time><name>PT2943</name></trkpt>
<trkpt lat="54.638965" lon="-3.075461"><ele>531</ele><time>2020-08-14T11:46:47Z</time><name>PT2944</name></trkpt>
<trkpt lat="54.638964" lon="-3.075448"><ele>531</ele><time>2020-08-14T11:46:49Z</time><name>PT2945</name></trkpt>
<trkpt lat="54.638964" lon="-3.075437"><ele>531</ele><time>2020-08-14T11:46:49Z</time><name>PT2946</name></trkpt>
<trkpt lat="54.638965" lon="-3.075426"><ele>531</ele><time>2020-08-14T11:46:50Z</time><name>PT2947</name></trkpt>
<trkpt lat="54.638966" lon="-3.075410"><ele>531</ele><time>2020-08-14T11:46:51Z</time><name>PT2948</name></trkpt>
<trkpt lat="54.638965" lon="-3.075399"><ele>532</ele><time>2020-08-14T11:46:52Z</time><name>PT2949</name></trkpt>
<trkpt lat="54.638965" lon="-3.075386"><ele>532</ele><time>2020-08-14T11:46:53Z</time><name>PT2950</name></trkpt>
<trkpt lat="54.638966" lon="-3.075369"><ele>532</ele><time>2020-08-14T11:46:55Z</time><name>PT2951</name></trkpt>
<trkpt lat="54.638965" lon="-3.075359"><ele>532</ele><time>2020-08-14T11:46:55Z</time><name>PT2952</name></trkpt>
<trkpt lat="54.638963" lon="-3.075349"><ele>532</ele><time>2020-08-14T11:46:56Z</time><name>PT2953</name></trkpt>
<trkpt lat="54.638960" lon="-3.075337"><ele>532</ele><time>2020-08-14T11:46:57Z</time><name>PT2954</name></trkpt>
<trkpt lat="54.638958" lon="-3.075329"><ele>532</ele><time>2020-08-14T11:46:58Z</time><name>PT2955</name></trkpt>
<trkpt lat="54.638955" lon="-3.075316"><ele>532</ele><time>2020-08-14T11:46:59Z</time><name>PT2956</name></trkpt>
<trkpt lat="54.638955" lon="-3.075306"><ele>532</ele><time>2020-08-14T11:47:00Z</time><name>PT2957</name></trkpt>
<trkpt lat="54.638956" lon="-3.075298"><ele>532</ele><time>2020-08-14T11:47:02Z</time><name>PT2958</name></trkpt>
<trkpt lat="54.638955" lon="-3.075284"><ele>532</ele><time>2020-08-14T11:47:02Z</time><name>PT2959</name></trkpt>
<trkpt lat="54.638959" lon="-3.075270"><ele>533</ele><time>2020-08-14T11:47:03Z</time><name>PT2960</name></trkpt>
<trkpt lat="54.638961" lon="-3.075263"><ele>533</ele><time>2020-08-14T11:47:04Z</time><name>PT2961</name></trkpt>
<trkpt lat="54.638959" lon="-3.075247"><ele>533</ele><time>2020-08-14T11:47:05Z</time><name>PT2962</name></trkpt>
<trkpt lat="54.638960" lon="-3.075235"><ele>533</ele><time>2020-08-14T11:47:06Z</time><name>PT2963</name></trkpt>
<trkpt lat="54.638961" lon="-3.075224"><ele>534</ele><time>2020-08-14T11:47:07Z</time><name>PT2964</name></trkpt>
<trkpt lat="54.638961" lon="-3.075209"><ele>534</ele><time>2020-08-14T11:47:08Z</time><name>PT2965</name></trkpt>
<trkpt lat="54.638960" lon="-3.075200"><ele>534</ele><time>2020-08-14T11:47:10Z</time><name>PT2966</name></trkpt>
<trkpt lat="54.638957" lon="-3.075187"><ele>534</ele><time>2020-08-14T11:47:10Z</time><name>PT2967</name></trkpt>
<trkpt lat="54.638956" lon="-3.075174"><ele>534</ele><time>2020-08-14T11:47:11Z</time><name>PT2968</name></trkpt>
<trkpt lat="54.638955" lon="-3.075170"><ele>534</ele><time>2020-08-14T11:47:13Z</time><name>PT2969</name></trkpt>
<trkpt lat="54.638952" lon="-3.075161"><ele>535</ele><time>2020-08-14T11:47:13Z</time><name>PT2970</name></trkpt>
<trkpt lat="54.638951" lon="-3.075153"><ele>535</ele><time>2020-08-14T11:47:14Z</time><name>PT2971</name></trkpt>
<trkpt lat="54.638956" lon="-3.075143"><ele>534</ele><time>2020-08-14T11:47:16Z</time><name>PT2972</name></trkpt>
<trkpt lat="54.638957" lon="-3.075125"><ele>535</ele><time>2020-08-14T11:47:16Z</time><name>PT2973</name></trkpt>
<trkpt lat="54.638956" lon="-3.075114"><ele>535</ele><time>2020-08-14T11:47:17Z</time><name>PT2974</name></trkpt>
<trkpt lat="54.638953" lon="-3.075109"><ele>535</ele><time>2020-08-14T11:47:19Z</time><name>PT2975</name></trkpt>
<trkpt lat="54.638950" lon="-3.075101"><ele>535</ele><time>2020-08-14T11:47:19Z</time><name>PT2976</name></trkpt>
<trkpt lat="54.638947" lon="-3.075094"><ele>535</ele><time>2020-08-14T11:47:20Z</time><name>PT2977</name></trkpt>
<trkpt lat="54.638950" lon="-3.075096"><ele>536</ele><time>2020-08-14T11:47:22Z</time><name>PT2978</name></trkpt>
<trkpt lat="54.638956" lon="-3.075083"><ele>536</ele><time>2020-08-14T11:47:23Z</time><name>PT2979</name></trkpt>
<trkpt lat="54.638956" lon="-3.075076"><ele>535</ele><time>2020-08-14T11:47:25Z</time><name>PT2980</name></trkpt>
<trkpt lat="54.638953" lon="-3.075067"><ele>535</ele><time>2020-08-14T11:47:25Z</time><name>PT2981</name></trkpt>
<trkpt lat="54.638950" lon="-3.075052"><ele>535</ele><time>2020-08-14T11:47:26Z</time><name>PT2982</name></trkpt>
<trkpt lat="54.638949" lon="-3.075033"><ele>536</ele><time>2020-08-14T11:47:28Z</time><name>PT2983</name></trkpt>
<trkpt lat="54.638949" lon="-3.075021"><ele>536</ele><time>2020-08-14T11:47:28Z</time><name>PT2984</name></trkpt>
<trkpt lat="54.638949" lon="-3.075003"><ele>536</ele><time>2020-08-14T11:47:29Z</time><name>PT2985</name></trkpt>
<trkpt lat="54.638949" lon="-3.074994"><ele>536</ele><time>2020-08-14T11:47:31Z</time><name>PT2986</name></trkpt>
<trkpt lat="54.638951" lon="-3.074982"><ele>536</ele><time>2020-08-14T11:47:31Z</time><name>PT2987</name></trkpt>
<trkpt lat="54.638948" lon="-3.074962"><ele>537</ele><time>2020-08-14T11:47:32Z</time><name>PT2988</name></trkpt>
<trkpt lat="54.638946" lon="-3.074952"><ele>537</ele><time>2020-08-14T11:47:33Z</time><name>PT2989</name></trkpt>
<trkpt lat="54.638947" lon="-3.074941"><ele>537</ele><time>2020-08-14T11:47:34Z</time><name>PT2990</name></trkpt>
<trkpt lat="54.638945" lon="-3.074923"><ele>537</ele><time>2020-08-14T11:47:35Z</time><name>PT2991</name></trkpt>
<trkpt lat="54.638944" lon="-3.074913"><ele>537</ele><time>2020-08-14T11:47:36Z</time><name>PT2992</name></trkpt>
<trkpt lat="54.638942" lon="-3.074899"><ele>537</ele><time>2020-08-14T11:47:37Z</time><name>PT2993</name></trkpt>
<trkpt lat="54.638940" lon="-3.074887"><ele>537</ele><time>2020-08-14T11:47:38Z</time><name>PT2994</name></trkpt>
<trkpt lat="54.638939" lon="-3.074874"><ele>537</ele><time>2020-08-14T11:47:39Z</time><name>PT2995</name></trkpt>
<trkpt lat="54.638935" lon="-3.074861"><ele>537</ele><time>2020-08-14T11:47:40Z</time><name>PT2996</name></trkpt>
<trkpt lat="54.638937" lon="-3.074851"><ele>537</ele><time>2020-08-14T11:47:41Z</time><name>PT2997</name></trkpt>
<trkpt lat="54.638939" lon="-3.074842"><ele>537</ele><time>2020-08-14T11:47:42Z</time><name>PT2998</name></trkpt>
<trkpt lat="54.638938" lon="-3.074827"><ele>538</ele><time>2020-08-14T11:47:43Z</time><name>PT2999</name></trkpt>
<trkpt lat="54.638939" lon="-3.074816"><ele>538</ele><time>2020-08-14T11:47:44Z</time><name>PT3000</name></trkpt>
<trkpt lat="54.638941" lon="-3.074807"><ele>538</ele><time>2020-08-14T11:47:45Z</time><name>PT3001</name></trkpt>
<trkpt lat="54.638940" lon="-3.074793"><ele>539</ele><time>2020-08-14T11:47:46Z</time><name>PT3002</name></trkpt>
<trkpt lat="54.638939" lon="-3.074782"><ele>539</ele><time>2020-08-14T11:47:47Z</time><name>PT3003</name></trkpt>
<trkpt lat="54.638936" lon="-3.074775"><ele>539</ele><time>2020-08-14T11:47:48Z</time><name>PT3004</name></trkpt>
<trkpt lat="54.638932" lon="-3.074761"><ele>540</ele><time>2020-08-14T11:47:49Z</time><name>PT3005</name></trkpt>
<trkpt lat="54.638930" lon="-3.074752"><ele>540</ele><time>2020-08-14T11:47:50Z</time><name>PT3006</name></trkpt>
<trkpt lat="54.638926" lon="-3.074744"><ele>539</ele><time>2020-08-14T11:47:51Z</time><name>PT3007</name></trkpt>
<trkpt lat="54.638922" lon="-3.074732"><ele>540</ele><time>2020-08-14T11:47:52Z</time><name>PT3008</name></trkpt>
<trkpt lat="54.638920" lon="-3.074723"><ele>540</ele><time>2020-08-14T11:47:54Z</time><name>PT3009</name></trkpt>
<trkpt lat="54.638917" lon="-3.074716"><ele>540</ele><time>2020-08-14T11:47:54Z</time><name>PT3010</name></trkpt>
<trkpt lat="54.638915" lon="-3.074701"><ele>540</ele><time>2020-08-14T11:47:55Z</time><name>PT3011</name></trkpt>
<trkpt lat="54.638911" lon="-3.074693"><ele>541</ele><time>2020-08-14T11:47:56Z</time><name>PT3012</name></trkpt>
<trkpt lat="54.638910" lon="-3.074679"><ele>542</ele><time>2020-08-14T11:47:57Z</time><name>PT3013</name></trkpt>
<trkpt lat="54.638906" lon="-3.074669"><ele>542</ele><time>2020-08-14T11:47:58Z</time><name>PT3014</name></trkpt>
<trkpt lat="54.638903" lon="-3.074662"><ele>542</ele><time>2020-08-14T11:47:59Z</time><name>PT3015</name></trkpt>
<trkpt lat="54.638900" lon="-3.074649"><ele>542</ele><time>2020-08-14T11:48:00Z</time><name>PT3016</name></trkpt>
<trkpt lat="54.638900" lon="-3.074643"><ele>542</ele><time>2020-08-14T11:48:01Z</time><name>PT3017</name></trkpt>
<trkpt lat="54.638901" lon="-3.074632"><ele>542</ele><time>2020-08-14T11:48:03Z</time><name>PT3018</name></trkpt>
<trkpt lat="54.638901" lon="-3.074623"><ele>543</ele><time>2020-08-14T11:48:03Z</time><name>PT3019</name></trkpt>
<trkpt lat="54.638901" lon="-3.074614"><ele>543</ele><time>2020-08-14T11:48:04Z</time><name>PT3020</name></trkpt>
<trkpt lat="54.638899" lon="-3.074601"><ele>543</ele><time>2020-08-14T11:48:05Z</time><name>PT3021</name></trkpt>
<trkpt lat="54.638898" lon="-3.074592"><ele>543</ele><time>2020-08-14T11:48:06Z</time><name>PT3022</name></trkpt>
<trkpt lat="54.638896" lon="-3.074583"><ele>543</ele><time>2020-08-14T11:48:07Z</time><name>PT3023</name></trkpt>
<trkpt lat="54.638892" lon="-3.074570"><ele>543</ele><time>2020-08-14T11:48:09Z</time><name>PT3024</name></trkpt>
<trkpt lat="54.638886" lon="-3.074568"><ele>542</ele><time>2020-08-14T11:48:09Z</time><name>PT3025</name></trkpt>
<trkpt lat="54.638882" lon="-3.074556"><ele>543</ele><time>2020-08-14T11:48:10Z</time><name>PT3026</name></trkpt>
<trkpt lat="54.638881" lon="-3.074547"><ele>543</ele><time>2020-08-14T11:48:11Z</time><name>PT3027</name></trkpt>
<trkpt lat="54.638881" lon="-3.074536"><ele>542</ele><time>2020-08-14T11:48:12Z</time><name>PT3028</name></trkpt>
<trkpt lat="54.638878" lon="-3.074524"><ele>543</ele><time>2020-08-14T11:48:13Z</time><name>PT3029</name></trkpt>
<trkpt lat="54.638873" lon="-3.074512"><ele>543</ele><time>2020-08-14T11:48:14Z</time><name>PT3030</name></trkpt>
<trkpt lat="54.638871" lon="-3.074498"><ele>543</ele><time>2020-08-14T11:48:15Z</time><name>PT3031</name></trkpt>
<trkpt lat="54.638869" lon="-3.074488"><ele>543</ele><time>2020-08-14T11:48:17Z</time><name>PT3032</name></trkpt>
<trkpt lat="54.638866" lon="-3.074479"><ele>544</ele><time>2020-08-14T11:48:17Z</time><name>PT3033</name></trkpt>
<trkpt lat="54.638862" lon="-3.074467"><ele>544</ele><time>2020-08-14T11:48:18Z</time><name>PT3034</name></trkpt>
<trkpt lat="54.638862" lon="-3.074455"><ele>543</ele><time>2020-08-14T11:48:20Z</time><name>PT3035</name></trkpt>
<trkpt lat="54.638863" lon="-3.074444"><ele>544</ele><time>2020-08-14T11:48:20Z</time><name>PT3036</name></trkpt>
<trkpt lat="54.638864" lon="-3.074435"><ele>544</ele><time>2020-08-14T11:48:21Z</time><name>PT3037</name></trkpt>
<trkpt lat="54.638887" lon="-3.074395"><ele>543</ele><time>2020-08-14T11:48:24Z</time><name>PT3038</name></trkpt>
<trkpt lat="54.638903" lon="-3.074349"><ele>544</ele><time>2020-08-14T11:48:29Z</time><name>PT3039</name></trkpt>
<trkpt lat="54.638914" lon="-3.074312"><ele>545</ele><time>2020-08-14T11:48:32Z</time><name>PT3040</name></trkpt>
<trkpt lat="54.638928" lon="-3.074274"><ele>545</ele><time>2020-08-14T11:48:35Z</time><name>PT3041</name></trkpt>
<trkpt lat="54.638945" lon="-3.074232"><ele>545</ele><time>2020-08-14T11:48:38Z</time><name>PT3042</name></trkpt>
<trkpt lat="54.638956" lon="-3.074197"><ele>546</ele><time>2020-08-14T11:48:41Z</time><name>PT3043</name></trkpt>
<trkpt lat="54.638958" lon="-3.074167"><ele>546</ele><time>2020-08-14T11:48:44Z</time><name>PT3044</name></trkpt>
<trkpt lat="54.638960" lon="-3.074141"><ele>546</ele><time>2020-08-14T11:48:48Z</time><name>PT3045</name></trkpt>
<trkpt lat="54.638954" lon="-3.074092"><ele>548</ele><time>2020-08-14T11:48:51Z</time><name>PT3046</name></trkpt>
<trkpt lat="54.638944" lon="-3.074050"><ele>549</ele><time>2020-08-14T11:48:55Z</time><name>PT3047</name></trkpt>
<trkpt lat="54.638940" lon="-3.074022"><ele>550</ele><time>2020-08-14T11:48:58Z</time><name>PT3048</name></trkpt>
<trkpt lat="54.638939" lon="-3.073989"><ele>551</ele><time>2020-08-14T11:49:01Z</time><name>PT3049</name></trkpt>
<trkpt lat="54.638938" lon="-3.073955"><ele>550</ele><time>2020-08-14T11:49:05Z</time><name>PT3050</name></trkpt>
<trkpt lat="54.638922" lon="-3.073927"><ele>551</ele><time>2020-08-14T11:49:08Z</time><name>PT3051</name></trkpt>
<trkpt lat="54.638912" lon="-3.073883"><ele>552</ele><time>2020-08-14T11:49:11Z</time><name>PT3052</name></trkpt>
<trkpt lat="54.638911" lon="-3.073852"><ele>553</ele><time>2020-08-14T11:49:14Z</time><name>PT3053</name></trkpt>
<trkpt lat="54.638900" lon="-3.073826"><ele>553</ele><time>2020-08-14T11:49:18Z</time><name>PT3054</name></trkpt>
<trkpt lat="54.638890" lon="-3.073800"><ele>553</ele><time>2020-08-14T11:49:21Z</time><name>PT3055</name></trkpt>
<trkpt lat="54.638887" lon="-3.073747"><ele>553</ele><time>2020-08-14T11:49:24Z</time><name>PT3056</name></trkpt>
<trkpt lat="54.638880" lon="-3.073702"><ele>552</ele><time>2020-08-14T11:49:28Z</time><name>PT3057</name></trkpt>
<trkpt lat="54.638869" lon="-3.073677"><ele>553</ele><time>2020-08-14T11:49:33Z</time><name>PT3058</name></trkpt>
<trkpt lat="54.638858" lon="-3.073643"><ele>554</ele><time>2020-08-14T11:49:36Z</time><name>PT3059</name></trkpt>
<trkpt lat="54.638850" lon="-3.073617"><ele>554</ele><time>2020-08-14T11:49:39Z</time><name>PT3060</name></trkpt>
<trkpt lat="54.638849" lon="-3.073583"><ele>555</ele><time>2020-08-14T11:49:43Z</time><name>PT3061</name></trkpt>
<trkpt lat="54.638844" lon="-3.073556"><ele>556</ele><time>2020-08-14T11:49:46Z</time><name>PT3062</name></trkpt>
<trkpt lat="54.638830" lon="-3.073514"><ele>557</ele><time>2020-08-14T11:49:51Z</time><name>PT3063</name></trkpt>
<trkpt lat="54.638806" lon="-3.073505"><ele>556</ele><time>2020-08-14T11:49:54Z</time><name>PT3064</name></trkpt>
<trkpt lat="54.638788" lon="-3.073497"><ele>556</ele><time>2020-08-14T11:49:59Z</time><name>PT3065</name></trkpt>
<trkpt lat="54.638787" lon="-3.073479"><ele>557</ele><time>2020-08-14T11:50:02Z</time><name>PT3066</name></trkpt>
<trkpt lat="54.638786" lon="-3.073469"><ele>556</ele><time>2020-08-14T11:50:05Z</time><name>PT3067</name></trkpt>
<trkpt lat="54.638779" lon="-3.073438"><ele>557</ele><time>2020-08-14T11:50:08Z</time><name>PT3068</name></trkpt>
<trkpt lat="54.638772" lon="-3.073412"><ele>558</ele><time>2020-08-14T11:50:11Z</time><name>PT3069</name></trkpt>
<trkpt lat="54.638771" lon="-3.073395"><ele>559</ele><time>2020-08-14T11:50:14Z</time><name>PT3070</name></trkpt>
<trkpt lat="54.638762" lon="-3.073371"><ele>560</ele><time>2020-08-14T11:50:17Z</time><name>PT3071</name></trkpt>
<trkpt lat="54.638761" lon="-3.073347"><ele>560</ele><time>2020-08-14T11:50:21Z</time><name>PT3072</name></trkpt>
<trkpt lat="54.638761" lon="-3.073326"><ele>559</ele><time>2020-08-14T11:50:24Z</time><name>PT3073</name></trkpt>
<trkpt lat="54.638756" lon="-3.073299"><ele>559</ele><time>2020-08-14T11:50:28Z</time><name>PT3074</name></trkpt>
<trkpt lat="54.638748" lon="-3.073286"><ele>559</ele><time>2020-08-14T11:50:31Z</time><name>PT3075</name></trkpt>
<trkpt lat="54.638747" lon="-3.073277"><ele>560</ele><time>2020-08-14T11:50:35Z</time><name>PT3076</name></trkpt>
<trkpt lat="54.638741" lon="-3.073264"><ele>561</ele><time>2020-08-14T11:50:38Z</time><name>PT3077</name></trkpt>
<trkpt lat="54.638742" lon="-3.073231"><ele>561</ele><time>2020-08-14T11:50:41Z</time><name>PT3078</name></trkpt>
<trkpt lat="54.638736" lon="-3.073209"><ele>564</ele><time>2020-08-14T11:50:44Z</time><name>PT3079</name></trkpt>
<trkpt lat="54.638733" lon="-3.073201"><ele>564</ele><time>2020-08-14T11:50:47Z</time><name>PT3080</name></trkpt>
<trkpt lat="54.638737" lon="-3.073163"><ele>566</ele><time>2020-08-14T11:50:51Z</time><name>PT3081</name></trkpt>
<trkpt lat="54.638742" lon="-3.073126"><ele>567</ele><time>2020-08-14T11:50:56Z</time><name>PT3082</name></trkpt>
<trkpt lat="54.638736" lon="-3.073108"><ele>567</ele><time>2020-08-14T11:50:59Z</time><name>PT3083</name></trkpt>
<trkpt lat="54.638732" lon="-3.073092"><ele>568</ele><time>2020-08-14T11:51:02Z</time><name>PT3084</name></trkpt>
<trkpt lat="54.638721" lon="-3.073072"><ele>568</ele><time>2020-08-14T11:51:06Z</time><name>PT3085</name></trkpt>
<trkpt lat="54.638712" lon="-3.073052"><ele>567</ele><time>2020-08-14T11:51:09Z</time><name>PT3086</name></trkpt>
<trkpt lat="54.638720" lon="-3.073019"><ele>570</ele><time>2020-08-14T11:51:13Z</time><name>PT3087</name></trkpt>
<trkpt lat="54.638717" lon="-3.072992"><ele>570</ele><time>2020-08-14T11:51:16Z</time><name>PT3088</name></trkpt>
<trkpt lat="54.638715" lon="-3.072985"><ele>570</ele><time>2020-08-14T11:51:19Z</time><name>PT3089</name></trkpt>
<trkpt lat="54.638707" lon="-3.072953"><ele>570</ele><time>2020-08-14T11:51:23Z</time><name>PT3090</name></trkpt>
<trkpt lat="54.638709" lon="-3.072927"><ele>572</ele><time>2020-08-14T11:51:27Z</time><name>PT3091</name></trkpt>
<trkpt lat="54.638698" lon="-3.072895"><ele>572</ele><time>2020-08-14T11:51:31Z</time><name>PT3092</name></trkpt>
<trkpt lat="54.638695" lon="-3.072877"><ele>572</ele><time>2020-08-14T11:51:34Z</time><name>PT3093</name></trkpt>
<trkpt lat="54.638692" lon="-3.072849"><ele>573</ele><time>2020-08-14T11:51:37Z</time><name>PT3094</name></trkpt>
<trkpt lat="54.638692" lon="-3.072824"><ele>573</ele><time>2020-08-14T11:51:41Z</time><name>PT3095</name></trkpt>
<trkpt lat="54.638686" lon="-3.072803"><ele>573</ele><time>2020-08-14T11:51:45Z</time><name>PT3096</name></trkpt>
<trkpt lat="54.638687" lon="-3.072779"><ele>573</ele><time>2020-08-14T11:51:48Z</time><name>PT3097</name></trkpt>
<trkpt lat="54.638691" lon="-3.072737"><ele>575</ele><time>2020-08-14T11:51:52Z</time><name>PT3098</name></trkpt>
<trkpt lat="54.638688" lon="-3.072706"><ele>575</ele><time>2020-08-14T11:51:56Z</time><name>PT3099</name></trkpt>
<trkpt lat="54.638684" lon="-3.072688"><ele>576</ele><time>2020-08-14T11:51:59Z</time><name>PT3100</name></trkpt>
<trkpt lat="54.638673" lon="-3.072674"><ele>577</ele><time>2020-08-14T11:52:03Z</time><name>PT3101</name></trkpt>
<trkpt lat="54.638669" lon="-3.072634"><ele>577</ele><time>2020-08-14T11:52:06Z</time><name>PT3102</name></trkpt>
<trkpt lat="54.638667" lon="-3.072605"><ele>578</ele><time>2020-08-14T11:52:10Z</time><name>PT3103</name></trkpt>
<trkpt lat="54.638658" lon="-3.072571"><ele>578</ele><time>2020-08-14T11:52:13Z</time><name>PT3104</name></trkpt>
<trkpt lat="54.638653" lon="-3.072532"><ele>578</ele><time>2020-08-14T11:52:18Z</time><name>PT3105</name></trkpt>
<trkpt lat="54.638640" lon="-3.072513"><ele>579</ele><time>2020-08-14T11:52:21Z</time><name>PT3106</name></trkpt>
<trkpt lat="54.638633" lon="-3.072480"><ele>580</ele><time>2020-08-14T11:52:25Z</time><name>PT3107</name></trkpt>
<trkpt lat="54.638626" lon="-3.072451"><ele>579</ele><time>2020-08-14T11:52:29Z</time><name>PT3108</name></trkpt>
<trkpt lat="54.638621" lon="-3.072426"><ele>581</ele><time>2020-08-14T11:52:32Z</time><name>PT3109</name></trkpt>
<trkpt lat="54.638620" lon="-3.072393"><ele>581</ele><time>2020-08-14T11:52:36Z</time><name>PT3110</name></trkpt>
<trkpt lat="54.638614" lon="-3.072364"><ele>582</ele><time>2020-08-14T11:52:39Z</time><name>PT3111</name></trkpt>
<trkpt lat="54.638604" lon="-3.072340"><ele>581</ele><time>2020-08-14T11:52:42Z</time><name>PT3112</name></trkpt>
<trkpt lat="54.638617" lon="-3.072309"><ele>581</ele><time>2020-08-14T11:52:46Z</time><name>PT3113</name></trkpt>
<trkpt lat="54.638619" lon="-3.072279"><ele>582</ele><time>2020-08-14T11:52:50Z</time><name>PT3114</name></trkpt>
<trkpt lat="54.638619" lon="-3.072244"><ele>583</ele><time>2020-08-14T11:52:53Z</time><name>PT3115</name></trkpt>
<trkpt lat="54.638617" lon="-3.072218"><ele>583</ele><time>2020-08-14T11:52:56Z</time><name>PT3116</name></trkpt>
<trkpt lat="54.638614" lon="-3.072204"><ele>583</ele><time>2020-08-14T11:52:59Z</time><name>PT3117</name></trkpt>
<trkpt lat="54.638604" lon="-3.072201"><ele>584</ele><time>2020-08-14T11:53:02Z</time><name>PT3118</name></trkpt>
<trkpt lat="54.638604" lon="-3.072158"><ele>584</ele><time>2020-08-14T11:53:06Z</time><name>PT3119</name></trkpt>
<trkpt lat="54.638607" lon="-3.072115"><ele>584</ele><time>2020-08-14T11:53:10Z</time><name>PT3120</name></trkpt>
<trkpt lat="54.638597" lon="-3.072092"><ele>585</ele><time>2020-08-14T11:53:14Z</time><name>PT3121</name></trkpt>
<trkpt lat="54.638596" lon="-3.072089"><ele>586</ele><time>2020-08-14T11:53:14Z</time><name>PT3122</name></trkpt>
<trkpt lat="54.638592" lon="-3.072083"><ele>586</ele><time>2020-08-14T11:53:15Z</time><name>PT3123</name></trkpt>
<trkpt lat="54.638591" lon="-3.072082"><ele>586</ele><time>2020-08-14T11:53:17Z</time><name>PT3124</name></trkpt>
<trkpt lat="54.638589" lon="-3.072079"><ele>586</ele><time>2020-08-14T11:53:17Z</time><name>PT3125</name></trkpt>
<trkpt lat="54.638585" lon="-3.072075"><ele>586</ele><time>2020-08-14T11:53:18Z</time><name>PT3126</name></trkpt>
<trkpt lat="54.638580" lon="-3.072071"><ele>586</ele><time>2020-08-14T11:53:19Z</time><name>PT3127</name></trkpt>
<trkpt lat="54.638578" lon="-3.072068"><ele>586</ele><time>2020-08-14T11:53:20Z</time><name>PT3128</name></trkpt>
<trkpt lat="54.638576" lon="-3.072066"><ele>586</ele><time>2020-08-14T11:53:21Z</time><name>PT3129</name></trkpt>
<trkpt lat="54.638576" lon="-3.072062"><ele>586</ele><time>2020-08-14T11:53:22Z</time><name>PT3130</name></trkpt>
<trkpt lat="54.638574" lon="-3.072057"><ele>587</ele><time>2020-08-14T11:53:23Z</time><name>PT3131</name></trkpt>
<trkpt lat="54.638571" lon="-3.072052"><ele>587</ele><time>2020-08-14T11:53:24Z</time><name>PT3132</name></trkpt>
<trkpt lat="54.638568" lon="-3.072052"><ele>587</ele><time>2020-08-14T11:53:25Z</time><name>PT3133</name></trkpt>
<trkpt lat="54.638565" lon="-3.072050"><ele>587</ele><time>2020-08-14T11:53:26Z</time><name>PT3134</name></trkpt>
<trkpt lat="54.638562" lon="-3.072049"><ele>588</ele><time>2020-08-14T11:53:27Z</time><name>PT3135</name></trkpt>
<trkpt lat="54.638560" lon="-3.072041"><ele>588</ele><time>2020-08-14T11:53:28Z</time><name>PT3136</name></trkpt>
<trkpt lat="54.638560" lon="-3.072032"><ele>588</ele><time>2020-08-14T11:53:29Z</time><name>PT3137</name></trkpt>
<trkpt lat="54.638561" lon="-3.072023"><ele>588</ele><time>2020-08-14T11:53:30Z</time><name>PT3138</name></trkpt>
<trkpt lat="54.638561" lon="-3.072020"><ele>588</ele><time>2020-08-14T11:53:31Z</time><name>PT3139</name></trkpt>
<trkpt lat="54.638559" lon="-3.072014"><ele>589</ele><time>2020-08-14T11:53:32Z</time><name>PT3140</name></trkpt>
<trkpt lat="54.638557" lon="-3.072008"><ele>589</ele><time>2020-08-14T11:53:33Z</time><name>PT3141</name></trkpt>
<trkpt lat="54.638557" lon="-3.072003"><ele>589</ele><time>2020-08-14T11:53:34Z</time><name>PT3142</name></trkpt>
<trkpt lat="54.638556" lon="-3.071994"><ele>589</ele><time>2020-08-14T11:53:35Z</time><name>PT3143</name></trkpt>
<trkpt lat="54.638551" lon="-3.071985"><ele>589</ele><time>2020-08-14T11:53:36Z</time><name>PT3144</name></trkpt>
<trkpt lat="54.638548" lon="-3.071976"><ele>589</ele><time>2020-08-14T11:53:37Z</time><name>PT3145</name></trkpt>
<trkpt lat="54.638547" lon="-3.071972"><ele>589</ele><time>2020-08-14T11:53:38Z</time><name>PT3146</name></trkpt>
<trkpt lat="54.638542" lon="-3.071966"><ele>589</ele><time>2020-08-14T11:53:39Z</time><name>PT3147</name></trkpt>
<trkpt lat="54.638542" lon="-3.071962"><ele>590</ele><time>2020-08-14T11:53:40Z</time><name>PT3148</name></trkpt>
<trkpt lat="54.638540" lon="-3.071956"><ele>589</ele><time>2020-08-14T11:53:41Z</time><name>PT3149</name></trkpt>
<trkpt lat="54.638536" lon="-3.071953"><ele>590</ele><time>2020-08-14T11:53:42Z</time><name>PT3150</name></trkpt>
<trkpt lat="54.638530" lon="-3.071950"><ele>590</ele><time>2020-08-14T11:53:43Z</time><name>PT3151</name></trkpt>
<trkpt lat="54.638524" lon="-3.071944"><ele>591</ele><time>2020-08-14T11:53:44Z</time><name>PT3152</name></trkpt>
<trkpt lat="54.638515" lon="-3.071940"><ele>592</ele><time>2020-08-14T11:53:45Z</time><name>PT3153</name></trkpt>
<trkpt lat="54.638512" lon="-3.071936"><ele>592</ele><time>2020-08-14T11:53:46Z</time><name>PT3154</name></trkpt>
<trkpt lat="54.638507" lon="-3.071935"><ele>592</ele><time>2020-08-14T11:53:47Z</time><name>PT3155</name></trkpt>
<trkpt lat="54.638506" lon="-3.071929"><ele>593</ele><time>2020-08-14T11:53:48Z</time><name>PT3156</name></trkpt>
<trkpt lat="54.638499" lon="-3.071920"><ele>593</ele><time>2020-08-14T11:53:49Z</time><name>PT3157</name></trkpt>
<trkpt lat="54.638498" lon="-3.071912"><ele>593</ele><time>2020-08-14T11:53:50Z</time><name>PT3158</name></trkpt>
<trkpt lat="54.638497" lon="-3.071907"><ele>593</ele><time>2020-08-14T11:53:51Z</time><name>PT3159</name></trkpt>
<trkpt lat="54.638499" lon="-3.071898"><ele>593</ele><time>2020-08-14T11:53:52Z</time><name>PT3160</name></trkpt>
<trkpt lat="54.638500" lon="-3.071891"><ele>593</ele><time>2020-08-14T11:53:53Z</time><name>PT3161</name></trkpt>
<trkpt lat="54.638501" lon="-3.071885"><ele>594</ele><time>2020-08-14T11:53:54Z</time><name>PT3162</name></trkpt>
<trkpt lat="54.638504" lon="-3.071886"><ele>594</ele><time>2020-08-14T11:53:55Z</time><name>PT3163</name></trkpt>
<trkpt lat="54.638505" lon="-3.071879"><ele>595</ele><time>2020-08-14T11:53:56Z</time><name>PT3164</name></trkpt>
<trkpt lat="54.638503" lon="-3.071873"><ele>594</ele><time>2020-08-14T11:53:57Z</time><name>PT3165</name></trkpt>
<trkpt lat="54.638502" lon="-3.071864"><ele>594</ele><time>2020-08-14T11:53:58Z</time><name>PT3166</name></trkpt>
<trkpt lat="54.638502" lon="-3.071856"><ele>594</ele><time>2020-08-14T11:53:59Z</time><name>PT3167</name></trkpt>
<trkpt lat="54.638501" lon="-3.071853"><ele>594</ele><time>2020-08-14T11:54:00Z</time><name>PT3168</name></trkpt>
<trkpt lat="54.638498" lon="-3.071843"><ele>594</ele><time>2020-08-14T11:54:01Z</time><name>PT3169</name></trkpt>
<trkpt lat="54.638490" lon="-3.071842"><ele>594</ele><time>2020-08-14T11:54:02Z</time><name>PT3170</name></trkpt>
<trkpt lat="54.638489" lon="-3.071843"><ele>594</ele><time>2020-08-14T11:54:03Z</time><name>PT3171</name></trkpt>
<trkpt lat="54.638480" lon="-3.071844"><ele>593</ele><time>2020-08-14T11:54:04Z</time><name>PT3172</name></trkpt>
<trkpt lat="54.638479" lon="-3.071846"><ele>594</ele><time>2020-08-14T11:54:05Z</time><name>PT3173</name></trkpt>
<trkpt lat="54.638476" lon="-3.071842"><ele>594</ele><time>2020-08-14T11:54:06Z</time><name>PT3174</name></trkpt>
<trkpt lat="54.638474" lon="-3.071832"><ele>593</ele><time>2020-08-14T11:54:07Z</time><name>PT3175</name></trkpt>
<trkpt lat="54.638471" lon="-3.071825"><ele>593</ele><time>2020-08-14T11:54:08Z</time><name>PT3176</name></trkpt>
<trkpt lat="54.638470" lon="-3.071821"><ele>593</ele><time>2020-08-14T11:54:09Z</time><name>PT3177</name></trkpt>
<trkpt lat="54.638469" lon="-3.071816"><ele>593</ele><time>2020-08-14T11:54:10Z</time><name>PT3178</name></trkpt>
<trkpt lat="54.638464" lon="-3.071815"><ele>593</ele><time>2020-08-14T11:54:11Z</time><name>PT3179</name></trkpt>
<trkpt lat="54.638463" lon="-3.071815"><ele>593</ele><time>2020-08-14T11:54:12Z</time><name>PT3180</name></trkpt>
<trkpt lat="54.638461" lon="-3.071814"><ele>594</ele><time>2020-08-14T11:54:14Z</time><name>PT3181</name></trkpt>
<trkpt lat="54.638457" lon="-3.071813"><ele>594</ele><time>2020-08-14T11:54:14Z</time><name>PT3182</name></trkpt>
<trkpt lat="54.638457" lon="-3.071808"><ele>594</ele><time>2020-08-14T11:54:15Z</time><name>PT3183</name></trkpt>
<trkpt lat="54.638462" lon="-3.071798"><ele>594</ele><time>2020-08-14T11:54:17Z</time><name>PT3184</name></trkpt>
<trkpt lat="54.638460" lon="-3.071794"><ele>594</ele><time>2020-08-14T11:54:17Z</time><name>PT3185</name></trkpt>
<trkpt lat="54.638458" lon="-3.071791"><ele>595</ele><time>2020-08-14T11:54:18Z</time><name>PT3186</name></trkpt>
<trkpt lat="54.638455" lon="-3.071787"><ele>596</ele><time>2020-08-14T11:54:19Z</time><name>PT3187</name></trkpt>
<trkpt lat="54.638447" lon="-3.071787"><ele>595</ele><time>2020-08-14T11:54:20Z</time><name>PT3188</name></trkpt>
<trkpt lat="54.638449" lon="-3.071779"><ele>595</ele><time>2020-08-14T11:54:21Z</time><name>PT3189</name></trkpt>
<trkpt lat="54.638456" lon="-3.071772"><ele>595</ele><time>2020-08-14T11:54:22Z</time><name>PT3190</name></trkpt>
<trkpt lat="54.638458" lon="-3.071760"><ele>595</ele><time>2020-08-14T11:54:23Z</time><name>PT3191</name></trkpt>
<trkpt lat="54.638464" lon="-3.071744"><ele>594</ele><time>2020-08-14T11:54:24Z</time><name>PT3192</name></trkpt>
<trkpt lat="54.638466" lon="-3.071736"><ele>594</ele><time>2020-08-14T11:54:25Z</time><name>PT3193</name></trkpt>
<trkpt lat="54.638467" lon="-3.071731"><ele>594</ele><time>2020-08-14T11:54:26Z</time><name>PT3194</name></trkpt>
<trkpt lat="54.638465" lon="-3.071724"><ele>595</ele><time>2020-08-14T11:54:27Z</time><name>PT3195</name></trkpt>
<trkpt lat="54.638466" lon="-3.071723"><ele>594</ele><time>2020-08-14T11:54:28Z</time><name>PT3196</name></trkpt>
<trkpt lat="54.638462" lon="-3.071729"><ele>594</ele><time>2020-08-14T11:54:29Z</time><name>PT3197</name></trkpt>
<trkpt lat="54.638457" lon="-3.071726"><ele>594</ele><time>2020-08-14T11:54:30Z</time><name>PT3198</name></trkpt>
<trkpt lat="54.638454" lon="-3.071723"><ele>594</ele><time>2020-08-14T11:54:32Z</time><name>PT3199</name></trkpt>
<trkpt lat="54.638451" lon="-3.071717"><ele>595</ele><time>2020-08-14T11:54:32Z</time><name>PT3200</name></trkpt>
<trkpt lat="54.638447" lon="-3.071720"><ele>596</ele><time>2020-08-14T11:54:33Z</time><name>PT3201</name></trkpt>
<trkpt lat="54.638447" lon="-3.071726"><ele>596</ele><time>2020-08-14T11:54:35Z</time><name>PT3202</name></trkpt>
<trkpt lat="54.638440" lon="-3.071710"><ele>597</ele><time>2020-08-14T11:54:36Z</time><name>PT3203</name></trkpt>
<trkpt lat="54.638437" lon="-3.071710"><ele>597</ele><time>2020-08-14T11:54:37Z</time><name>PT3204</name></trkpt>
<trkpt lat="54.638435" lon="-3.071712"><ele>597</ele><time>2020-08-14T11:54:38Z</time><name>PT3205</name></trkpt>
<trkpt lat="54.638433" lon="-3.071709"><ele>597</ele><time>2020-08-14T11:54:39Z</time><name>PT3206</name></trkpt>
<trkpt lat="54.638430" lon="-3.071715"><ele>598</ele><time>2020-08-14T11:54:40Z</time><name>PT3207</name></trkpt>
<trkpt lat="54.638425" lon="-3.071711"><ele>599</ele><time>2020-08-14T11:54:41Z</time><name>PT3208</name></trkpt>
<trkpt lat="54.638421" lon="-3.071715"><ele>599</ele><time>2020-08-14T11:54:42Z</time><name>PT3209</name></trkpt>
<trkpt lat="54.638417" lon="-3.071723"><ele>599</ele><time>2020-08-14T11:54:43Z</time><name>PT3210</name></trkpt>
<trkpt lat="54.638410" lon="-3.071732"><ele>599</ele><time>2020-08-14T11:54:44Z</time><name>PT3211</name></trkpt>
<trkpt lat="54.638410" lon="-3.071739"><ele>599</ele><time>2020-08-14T11:54:45Z</time><name>PT3212</name></trkpt>
<trkpt lat="54.638402" lon="-3.071739"><ele>600</ele><time>2020-08-14T11:54:46Z</time><name>PT3213</name></trkpt>
<trkpt lat="54.638397" lon="-3.071748"><ele>600</ele><time>2020-08-14T11:54:47Z</time><name>PT3214</name></trkpt>
<trkpt lat="54.638391" lon="-3.071747"><ele>600</ele><time>2020-08-14T11:54:48Z</time><name>PT3215</name></trkpt>
<trkpt lat="54.638387" lon="-3.071751"><ele>600</ele><time>2020-08-14T11:54:49Z</time><name>PT3216</name></trkpt>
<trkpt lat="54.638383" lon="-3.071754"><ele>600</ele><time>2020-08-14T11:54:50Z</time><name>PT3217</name></trkpt>
<trkpt lat="54.638375" lon="-3.071756"><ele>600</ele><time>2020-08-14T11:54:51Z</time><name>PT3218</name></trkpt>
<trkpt lat="54.638369" lon="-3.071760"><ele>600</ele><time>2020-08-14T11:54:52Z</time><name>PT3219</name></trkpt>
<trkpt lat="54.638360" lon="-3.071766"><ele>600</ele><time>2020-08-14T11:54:53Z</time><name>PT3220</name></trkpt>
<trkpt lat="54.638354" lon="-3.071772"><ele>600</ele><time>2020-08-14T11:54:54Z</time><name>PT3221</name></trkpt>
<trkpt lat="54.638349" lon="-3.071779"><ele>600</ele><time>2020-08-14T11:54:56Z</time><name>PT3222</name></trkpt>
<trkpt lat="54.638347" lon="-3.071783"><ele>600</ele><time>2020-08-14T11:54:56Z</time><name>PT3223</name></trkpt>
<trkpt lat="54.638345" lon="-3.071788"><ele>600</ele><time>2020-08-14T11:54:57Z</time><name>PT3224</name></trkpt>
<trkpt lat="54.638341" lon="-3.071798"><ele>601</ele><time>2020-08-14T11:54:58Z</time><name>PT3225</name></trkpt>
<trkpt lat="54.638335" lon="-3.071803"><ele>601</ele><time>2020-08-14T11:54:59Z</time><name>PT3226</name></trkpt>
<trkpt lat="54.638329" lon="-3.071809"><ele>601</ele><time>2020-08-14T11:55:00Z</time><name>PT3227</name></trkpt>
<trkpt lat="54.638324" lon="-3.071815"><ele>601</ele><time>2020-08-14T11:55:01Z</time><name>PT3228</name></trkpt>
<trkpt lat="54.638320" lon="-3.071826"><ele>602</ele><time>2020-08-14T11:55:02Z</time><name>PT3229</name></trkpt>
<trkpt lat="54.638318" lon="-3.071826"><ele>602</ele><time>2020-08-14T11:55:03Z</time><name>PT3230</name></trkpt>
<trkpt lat="54.638317" lon="-3.071825"><ele>602</ele><time>2020-08-14T11:55:04Z</time><name>PT3231</name></trkpt>
<trkpt lat="54.638311" lon="-3.071827"><ele>602</ele><time>2020-08-14T11:55:05Z</time><name>PT3232</name></trkpt>
<trkpt lat="54.638305" lon="-3.071833"><ele>603</ele><time>2020-08-14T11:55:06Z</time><name>PT3233</name></trkpt>
<trkpt lat="54.638303" lon="-3.071837"><ele>603</ele><time>2020-08-14T11:55:07Z</time><name>PT3234</name></trkpt>
<trkpt lat="54.638299" lon="-3.071840"><ele>603</ele><time>2020-08-14T11:55:08Z</time><name>PT3235</name></trkpt>
<trkpt lat="54.638295" lon="-3.071839"><ele>603</ele><time>2020-08-14T11:55:09Z</time><name>PT3236</name></trkpt>
<trkpt lat="54.638290" lon="-3.071849"><ele>604</ele><time>2020-08-14T11:55:10Z</time><name>PT3237</name></trkpt>
<trkpt lat="54.638288" lon="-3.071853"><ele>604</ele><time>2020-08-14T11:55:11Z</time><name>PT3238</name></trkpt>
<trkpt lat="54.638289" lon="-3.071853"><ele>604</ele><time>2020-08-14T11:55:12Z</time><name>PT3239</name></trkpt>
<trkpt lat="54.638288" lon="-3.071859"><ele>605</ele><time>2020-08-14T11:55:13Z</time><name>PT3240</name></trkpt>
<trkpt lat="54.638283" lon="-3.071863"><ele>605</ele><time>2020-08-14T11:55:14Z</time><name>PT3241</name></trkpt>
<trkpt lat="54.638275" lon="-3.071865"><ele>605</ele><time>2020-08-14T11:55:15Z</time><name>PT3242</name></trkpt>
<trkpt lat="54.638272" lon="-3.071872"><ele>605</ele><time>2020-08-14T11:55:16Z</time><name>PT3243</name></trkpt>
<trkpt lat="54.638267" lon="-3.071879"><ele>606</ele><time>2020-08-14T11:55:17Z</time><name>PT3244</name></trkpt>
<trkpt lat="54.638264" lon="-3.071885"><ele>606</ele><time>2020-08-14T11:55:18Z</time><name>PT3245</name></trkpt>
<trkpt lat="54.638261" lon="-3.071896"><ele>607</ele><time>2020-08-14T11:55:19Z</time><name>PT3246</name></trkpt>
<trkpt lat="54.638254" lon="-3.071911"><ele>608</ele><time>2020-08-14T11:55:20Z</time><name>PT3247</name></trkpt>
<trkpt lat="54.638244" lon="-3.071916"><ele>608</ele><time>2020-08-14T11:55:21Z</time><name>PT3248</name></trkpt>
<trkpt lat="54.638240" lon="-3.071921"><ele>609</ele><time>2020-08-14T11:55:22Z</time><name>PT3249</name></trkpt>
<trkpt lat="54.638235" lon="-3.071927"><ele>609</ele><time>2020-08-14T11:55:23Z</time><name>PT3250</name></trkpt>
<trkpt lat="54.638232" lon="-3.071930"><ele>610</ele><time>2020-08-14T11:55:24Z</time><name>PT3251</name></trkpt>
<trkpt lat="54.638228" lon="-3.071933"><ele>610</ele><time>2020-08-14T11:55:26Z</time><name>PT3252</name></trkpt>
<trkpt lat="54.638225" lon="-3.071935"><ele>610</ele><time>2020-08-14T11:55:26Z</time><name>PT3253</name></trkpt>
<trkpt lat="54.638223" lon="-3.071939"><ele>610</ele><time>2020-08-14T11:55:27Z</time><name>PT3254</name></trkpt>
<trkpt lat="54.638219" lon="-3.071938"><ele>610</ele><time>2020-08-14T11:55:28Z</time><name>PT3255</name></trkpt>
<trkpt lat="54.638213" lon="-3.071938"><ele>610</ele><time>2020-08-14T11:55:29Z</time><name>PT3256</name></trkpt>
<trkpt lat="54.638213" lon="-3.071940"><ele>610</ele><time>2020-08-14T11:55:30Z</time><name>PT3257</name></trkpt>
<trkpt lat="54.638210" lon="-3.071944"><ele>611</ele><time>2020-08-14T11:55:31Z</time><name>PT3258</name></trkpt>
<trkpt lat="54.638206" lon="-3.071944"><ele>611</ele><time>2020-08-14T11:55:32Z</time><name>PT3259</name></trkpt>
<trkpt lat="54.638199" lon="-3.071946"><ele>611</ele><time>2020-08-14T11:55:33Z</time><name>PT3260</name></trkpt>
<trkpt lat="54.638197" lon="-3.071948"><ele>611</ele><time>2020-08-14T11:55:34Z</time><name>PT3261</name></trkpt>
<trkpt lat="54.638191" lon="-3.071949"><ele>611</ele><time>2020-08-14T11:55:35Z</time><name>PT3262</name></trkpt>
<trkpt lat="54.638187" lon="-3.071955"><ele>611</ele><time>2020-08-14T11:55:36Z</time><name>PT3263</name></trkpt>
<trkpt lat="54.638180" lon="-3.071958"><ele>612</ele><time>2020-08-14T11:55:37Z</time><name>PT3264</name></trkpt>
<trkpt lat="54.638176" lon="-3.071964"><ele>612</ele><time>2020-08-14T11:55:38Z</time><name>PT3265</name></trkpt>
<trkpt lat="54.638171" lon="-3.071960"><ele>612</ele><time>2020-08-14T11:55:40Z</time><name>PT3266</name></trkpt>
<trkpt lat="54.638166" lon="-3.071963"><ele>612</ele><time>2020-08-14T11:55:40Z</time><name>PT3267</name></trkpt>
<trkpt lat="54.638160" lon="-3.071960"><ele>612</ele><time>2020-08-14T11:55:41Z</time><name>PT3268</name></trkpt>
<trkpt lat="54.638153" lon="-3.071959"><ele>611</ele><time>2020-08-14T11:55:42Z</time><name>PT3269</name></trkpt>
<trkpt lat="54.638150" lon="-3.071958"><ele>611</ele><time>2020-08-14T11:55:43Z</time><name>PT3270</name></trkpt>
<trkpt lat="54.638145" lon="-3.071960"><ele>611</ele><time>2020-08-14T11:55:44Z</time><name>PT3271</name></trkpt>
<trkpt lat="54.638141" lon="-3.071962"><ele>611</ele><time>2020-08-14T11:55:46Z</time><name>PT3272</name></trkpt>
<trkpt lat="54.638134" lon="-3.071960"><ele>610</ele><time>2020-08-14T11:55:46Z</time><name>PT3273</name></trkpt>
<trkpt lat="54.638135" lon="-3.071962"><ele>611</ele><time>2020-08-14T11:55:47Z</time><name>PT3274</name></trkpt>
<trkpt lat="54.638132" lon="-3.071968"><ele>611</ele><time>2020-08-14T11:55:48Z</time><name>PT3275</name></trkpt>
<trkpt lat="54.638125" lon="-3.071974"><ele>611</ele><time>2020-08-14T11:55:49Z</time><name>PT3276</name></trkpt>
<trkpt lat="54.638121" lon="-3.071975"><ele>611</ele><time>2020-08-14T11:55:50Z</time><name>PT3277</name></trkpt>
<trkpt lat="54.638116" lon="-3.071975"><ele>612</ele><time>2020-08-14T11:55:51Z</time><name>PT3278</name></trkpt>
<trkpt lat="54.638114" lon="-3.071976"><ele>612</ele><time>2020-08-14T11:55:52Z</time><name>PT3279</name></trkpt>
<trkpt lat="54.638110" lon="-3.071977"><ele>612</ele><time>2020-08-14T11:55:53Z</time><name>PT3280</name></trkpt>
<trkpt lat="54.638107" lon="-3.071976"><ele>612</ele><time>2020-08-14T11:55:54Z</time><name>PT3281</name></trkpt>
<trkpt lat="54.638105" lon="-3.071976"><ele>612</ele><time>2020-08-14T11:55:55Z</time><name>PT3282</name></trkpt>
<trkpt lat="54.638102" lon="-3.071977"><ele>612</ele><time>2020-08-14T11:55:56Z</time><name>PT3283</name></trkpt>
<trkpt lat="54.638108" lon="-3.071980"><ele>611</ele><time>2020-08-14T11:55:58Z</time><name>PT3284</name></trkpt>
<trkpt lat="54.638103" lon="-3.071981"><ele>611</ele><time>2020-08-14T11:55:59Z</time><name>PT3285</name></trkpt>
<trkpt lat="54.638088" lon="-3.071978"><ele>611</ele><time>2020-08-14T11:56:00Z</time><name>PT3286</name></trkpt>
<trkpt lat="54.638081" lon="-3.071979"><ele>611</ele><time>2020-08-14T11:56:01Z</time><name>PT3287</name></trkpt>
<trkpt lat="54.638079" lon="-3.071983"><ele>611</ele><time>2020-08-14T11:56:02Z</time><name>PT3288</name></trkpt>
<trkpt lat="54.638067" lon="-3.071992"><ele>612</ele><time>2020-08-14T11:56:03Z</time><name>PT3289</name></trkpt>
<trkpt lat="54.638063" lon="-3.071995"><ele>612</ele><time>2020-08-14T11:56:04Z</time><name>PT3290</name></trkpt>
<trkpt lat="54.638062" lon="-3.072005"><ele>612</ele><time>2020-08-14T11:56:06Z</time><name>PT3291</name></trkpt>
<trkpt lat="54.638060" lon="-3.072004"><ele>612</ele><time>2020-08-14T11:56:06Z</time><name>PT3292</name></trkpt>
<trkpt lat="54.638060" lon="-3.072005"><ele>612</ele><time>2020-08-14T11:56:07Z</time><name>PT3293</name></trkpt>
<trkpt lat="54.638062" lon="-3.071999"><ele>612</ele><time>2020-08-14T11:56:08Z</time><name>PT3294</name></trkpt>
<trkpt lat="54.638061" lon="-3.071994"><ele>612</ele><time>2020-08-14T11:56:09Z</time><name>PT3295</name></trkpt>
<trkpt lat="54.638058" lon="-3.071992"><ele>612</ele><time>2020-08-14T11:56:10Z</time><name>PT3296</name></trkpt>
<trkpt lat="54.638057" lon="-3.071986"><ele>612</ele><time>2020-08-14T11:56:11Z</time><name>PT3297</name></trkpt>
<trkpt lat="54.638057" lon="-3.071984"><ele>612</ele><time>2020-08-14T11:56:12Z</time><name>PT3298</name></trkpt>
<trkpt lat="54.638049" lon="-3.071944"><ele>612</ele><time>2020-08-14T11:56:16Z</time><name>PT3299</name></trkpt>
<trkpt lat="54.638042" lon="-3.071929"><ele>613</ele><time>2020-08-14T11:56:20Z</time><name>PT3300</name></trkpt>
<trkpt lat="54.638037" lon="-3.071912"><ele>614</ele><time>2020-08-14T11:56:23Z</time><name>PT3301</name></trkpt>
<trkpt lat="54.638044" lon="-3.071888"><ele>615</ele><time>2020-08-14T11:56:26Z</time><name>PT3302</name></trkpt>
<trkpt lat="54.638045" lon="-3.071856"><ele>615</ele><time>2020-08-14T11:56:30Z</time><name>PT3303</name></trkpt>
<trkpt lat="54.638030" lon="-3.071828"><ele>615</ele><time>2020-08-14T11:56:34Z</time><name>PT3304</name></trkpt>
<trkpt lat="54.638029" lon="-3.071828"><ele>615</ele><time>2020-08-14T11:56:38Z</time><name>PT3305</name></trkpt>
<trkpt lat="54.638011" lon="-3.071812"><ele>616</ele><time>2020-08-14T11:56:42Z</time><name>PT3306</name></trkpt>
<trkpt lat="54.638004" lon="-3.071797"><ele>616</ele><time>2020-08-14T11:56:45Z</time><name>PT3307</name></trkpt>
<trkpt lat="54.638003" lon="-3.071791"><ele>616</ele><time>2020-08-14T11:56:48Z</time><name>PT3308</name></trkpt>
<trkpt lat="54.638005" lon="-3.071755"><ele>618</ele><time>2020-08-14T11:56:55Z</time><name>PT3309</name></trkpt>
<trkpt lat="54.637994" lon="-3.071712"><ele>618</ele><time>2020-08-14T11:56:59Z</time><name>PT3310</name></trkpt>
<trkpt lat="54.637998" lon="-3.071685"><ele>619</ele><time>2020-08-14T11:57:06Z</time><name>PT3311</name></trkpt>
<trkpt lat="54.637995" lon="-3.071675"><ele>619</ele><time>2020-08-14T11:57:09Z</time><name>PT3312</name></trkpt>
<trkpt lat="54.637979" lon="-3.071656"><ele>618</ele><time>2020-08-14T11:57:13Z</time><name>PT3313</name></trkpt>
<trkpt lat="54.637959" lon="-3.071654"><ele>619</ele><time>2020-08-14T11:57:16Z</time><name>PT3314</name></trkpt>
<trkpt lat="54.637952" lon="-3.071639"><ele>619</ele><time>2020-08-14T11:57:20Z</time><name>PT3315</name></trkpt>
<trkpt lat="54.637948" lon="-3.071612"><ele>620</ele><time>2020-08-14T11:57:24Z</time><name>PT3316</name></trkpt>
<trkpt lat="54.637943" lon="-3.071579"><ele>619</ele><time>2020-08-14T11:57:27Z</time><name>PT3317</name></trkpt>
<trkpt lat="54.637939" lon="-3.071561"><ele>619</ele><time>2020-08-14T11:57:31Z</time><name>PT3318</name></trkpt>
<trkpt lat="54.637933" lon="-3.071531"><ele>620</ele><time>2020-08-14T11:57:35Z</time><name>PT3319</name></trkpt>
<trkpt lat="54.637926" lon="-3.071506"><ele>621</ele><time>2020-08-14T11:57:38Z</time><name>PT3320</name></trkpt>
<trkpt lat="54.637922" lon="-3.071480"><ele>623</ele><time>2020-08-14T11:57:41Z</time><name>PT3321</name></trkpt>
<trkpt lat="54.637913" lon="-3.071443"><ele>623</ele><time>2020-08-14T11:57:45Z</time><name>PT3322</name></trkpt>
<trkpt lat="54.637913" lon="-3.071414"><ele>624</ele><time>2020-08-14T11:57:49Z</time><name>PT3323</name></trkpt>
<trkpt lat="54.637907" lon="-3.071403"><ele>624</ele><time>2020-08-14T11:57:52Z</time><name>PT3324</name></trkpt>
<trkpt lat="54.637904" lon="-3.071380"><ele>624</ele><time>2020-08-14T11:57:55Z</time><name>PT3325</name></trkpt>
<trkpt lat="54.637898" lon="-3.071351"><ele>626</ele><time>2020-08-14T11:57:59Z</time><name>PT3326</name></trkpt>
<trkpt lat="54.637889" lon="-3.071340"><ele>626</ele><time>2020-08-14T11:58:03Z</time><name>PT3327</name></trkpt>
<trkpt lat="54.637879" lon="-3.071331"><ele>626</ele><time>2020-08-14T11:58:06Z</time><name>PT3328</name></trkpt>
<trkpt lat="54.637872" lon="-3.071304"><ele>626</ele><time>2020-08-14T11:58:10Z</time><name>PT3329</name></trkpt>
<trkpt lat="54.637868" lon="-3.071289"><ele>627</ele><time>2020-08-14T11:58:13Z</time><name>PT3330</name></trkpt>
<trkpt lat="54.637863" lon="-3.071278"><ele>628</ele><time>2020-08-14T11:58:16Z</time><name>PT3331</name></trkpt>
<trkpt lat="54.637861" lon="-3.071248"><ele>629</ele><time>2020-08-14T11:58:20Z</time><name>PT3332</name></trkpt>
<trkpt lat="54.637867" lon="-3.071222"><ele>629</ele><time>2020-08-14T11:58:24Z</time><name>PT3333</name></trkpt>
<trkpt lat="54.637869" lon="-3.071210"><ele>630</ele><time>2020-08-14T11:58:27Z</time><name>PT3334</name></trkpt>
<trkpt lat="54.637868" lon="-3.071195"><ele>631</ele><time>2020-08-14T11:58:30Z</time><name>PT3335</name></trkpt>
<trkpt lat="54.637860" lon="-3.071163"><ele>632</ele><time>2020-08-14T11:58:34Z</time><name>PT3336</name></trkpt>
<trkpt lat="54.637854" lon="-3.071133"><ele>632</ele><time>2020-08-14T11:58:37Z</time><name>PT3337</name></trkpt>
<trkpt lat="54.637846" lon="-3.071102"><ele>633</ele><time>2020-08-14T11:58:40Z</time><name>PT3338</name></trkpt>
<trkpt lat="54.637836" lon="-3.071084"><ele>634</ele><time>2020-08-14T11:58:44Z</time><name>PT3339</name></trkpt>
<trkpt lat="54.637835" lon="-3.071064"><ele>634</ele><time>2020-08-14T11:58:47Z</time><name>PT3340</name></trkpt>
<trkpt lat="54.637831" lon="-3.071028"><ele>634</ele><time>2020-08-14T11:58:58Z</time><name>PT3341</name></trkpt>
<trkpt lat="54.637830" lon="-3.070992"><ele>635</ele><time>2020-08-14T11:59:02Z</time><name>PT3342</name></trkpt>
<trkpt lat="54.637840" lon="-3.070981"><ele>637</ele><time>2020-08-14T11:59:04Z</time><name>PT3343</name></trkpt>
<trkpt lat="54.637820" lon="-3.070967"><ele>638</ele><time>2020-08-14T11:59:05Z</time><name>PT3344</name></trkpt>
<trkpt lat="54.637817" lon="-3.070967"><ele>639</ele><time>2020-08-14T11:59:06Z</time><name>PT3345</name></trkpt>
<trkpt lat="54.637817" lon="-3.070969"><ele>639</ele><time>2020-08-14T11:59:07Z</time><name>PT3346</name></trkpt>
<trkpt lat="54.637817" lon="-3.070964"><ele>639</ele><time>2020-08-14T11:59:08Z</time><name>PT3347</name></trkpt>
<trkpt lat="54.637821" lon="-3.070954"><ele>639</ele><time>2020-08-14T11:59:40Z</time><name>PT3348</name></trkpt>
<trkpt lat="54.637818" lon="-3.070956"><ele>639</ele><time>2020-08-14T11:59:41Z</time><name>PT3349</name></trkpt>
<trkpt lat="54.637818" lon="-3.070943"><ele>640</ele><time>2020-08-14T11:59:42Z</time><name>PT3350</name></trkpt>
<trkpt lat="54.637816" lon="-3.070936"><ele>640</ele><time>2020-08-14T11:59:43Z</time><name>PT3351</name></trkpt>
<trkpt lat="54.637818" lon="-3.070930"><ele>640</ele><time>2020-08-14T11:59:44Z</time><name>PT3352</name></trkpt>
<trkpt lat="54.637820" lon="-3.070923"><ele>640</ele><time>2020-08-14T11:59:45Z</time><name>PT3353</name></trkpt>
<trkpt lat="54.637820" lon="-3.070921"><ele>640</ele><time>2020-08-14T11:59:46Z</time><name>PT3354</name></trkpt>
<trkpt lat="54.637815" lon="-3.070917"><ele>640</ele><time>2020-08-14T11:59:47Z</time><name>PT3355</name></trkpt>
<trkpt lat="54.637809" lon="-3.070912"><ele>640</ele><time>2020-08-14T11:59:48Z</time><name>PT3356</name></trkpt>
<trkpt lat="54.637801" lon="-3.070909"><ele>639</ele><time>2020-08-14T11:59:49Z</time><name>PT3357</name></trkpt>
<trkpt lat="54.637796" lon="-3.070911"><ele>640</ele><time>2020-08-14T11:59:50Z</time><name>PT3358</name></trkpt>
<trkpt lat="54.637791" lon="-3.070910"><ele>640</ele><time>2020-08-14T11:59:51Z</time><name>PT3359</name></trkpt>
<trkpt lat="54.637783" lon="-3.070906"><ele>639</ele><time>2020-08-14T11:59:52Z</time><name>PT3360</name></trkpt>
<trkpt lat="54.637777" lon="-3.070905"><ele>639</ele><time>2020-08-14T11:59:53Z</time><name>PT3361</name></trkpt>
<trkpt lat="54.637771" lon="-3.070901"><ele>640</ele><time>2020-08-14T11:59:54Z</time><name>PT3362</name></trkpt>
<trkpt lat="54.637764" lon="-3.070894"><ele>639</ele><time>2020-08-14T11:59:55Z</time><name>PT3363</name></trkpt>
<trkpt lat="54.637761" lon="-3.070892"><ele>640</ele><time>2020-08-14T11:59:56Z</time><name>PT3364</name></trkpt>
<trkpt lat="54.637753" lon="-3.070897"><ele>640</ele><time>2020-08-14T11:59:57Z</time><name>PT3365</name></trkpt>
<trkpt lat="54.637749" lon="-3.070900"><ele>640</ele><time>2020-08-14T11:59:58Z</time><name>PT3366</name></trkpt>
<trkpt lat="54.637744" lon="-3.070897"><ele>640</ele><time>2020-08-14T11:59:59Z</time><name>PT3367</name></trkpt>
<trkpt lat="54.637740" lon="-3.070896"><ele>640</ele><time>2020-08-14T12:00:00Z</time><name>PT3368</name></trkpt>
<trkpt lat="54.637735" lon="-3.070896"><ele>640</ele><time>2020-08-14T12:00:01Z</time><name>PT3369</name></trkpt>
<trkpt lat="54.637728" lon="-3.070896"><ele>641</ele><time>2020-08-14T12:00:02Z</time><name>PT3370</name></trkpt>
<trkpt lat="54.637724" lon="-3.070889"><ele>641</ele><time>2020-08-14T12:00:03Z</time><name>PT3371</name></trkpt>
<trkpt lat="54.637722" lon="-3.070885"><ele>641</ele><time>2020-08-14T12:00:04Z</time><name>PT3372</name></trkpt>
<trkpt lat="54.637719" lon="-3.070880"><ele>641</ele><time>2020-08-14T12:00:05Z</time><name>PT3373</name></trkpt>
<trkpt lat="54.637716" lon="-3.070878"><ele>641</ele><time>2020-08-14T12:00:06Z</time><name>PT3374</name></trkpt>
<trkpt lat="54.637707" lon="-3.070879"><ele>642</ele><time>2020-08-14T12:00:07Z</time><name>PT3375</name></trkpt>
<trkpt lat="54.637697" lon="-3.070877"><ele>642</ele><time>2020-08-14T12:00:08Z</time><name>PT3376</name></trkpt>
<trkpt lat="54.637691" lon="-3.070876"><ele>643</ele><time>2020-08-14T12:00:09Z</time><name>PT3377</name></trkpt>
<trkpt lat="54.637689" lon="-3.070877"><ele>643</ele><time>2020-08-14T12:00:10Z</time><name>PT3378</name></trkpt>
<trkpt lat="54.637684" lon="-3.070876"><ele>643</ele><time>2020-08-14T12:00:11Z</time><name>PT3379</name></trkpt>
<trkpt lat="54.637678" lon="-3.070875"><ele>644</ele><time>2020-08-14T12:00:12Z</time><name>PT3380</name></trkpt>
<trkpt lat="54.637673" lon="-3.070882"><ele>643</ele><time>2020-08-14T12:00:13Z</time><name>PT3381</name></trkpt>
<trkpt lat="54.637672" lon="-3.070884"><ele>643</ele><time>2020-08-14T12:00:14Z</time><name>PT3382</name></trkpt>
<trkpt lat="54.637669" lon="-3.070890"><ele>644</ele><time>2020-08-14T12:00:15Z</time><name>PT3383</name></trkpt>
<trkpt lat="54.637665" lon="-3.070893"><ele>644</ele><time>2020-08-14T12:00:16Z</time><name>PT3384</name></trkpt>
<trkpt lat="54.637663" lon="-3.070895"><ele>644</ele><time>2020-08-14T12:00:17Z</time><name>PT3385</name></trkpt>
<trkpt lat="54.637658" lon="-3.070901"><ele>644</ele><time>2020-08-14T12:00:18Z</time><name>PT3386</name></trkpt>
<trkpt lat="54.637655" lon="-3.070907"><ele>644</ele><time>2020-08-14T12:00:19Z</time><name>PT3387</name></trkpt>
<trkpt lat="54.637650" lon="-3.070914"><ele>644</ele><time>2020-08-14T12:00:20Z</time><name>PT3388</name></trkpt>
<trkpt lat="54.637649" lon="-3.070916"><ele>645</ele><time>2020-08-14T12:00:21Z</time><name>PT3389</name></trkpt>
<trkpt lat="54.637645" lon="-3.070919"><ele>645</ele><time>2020-08-14T12:00:22Z</time><name>PT3390</name></trkpt>
<trkpt lat="54.637642" lon="-3.070920"><ele>645</ele><time>2020-08-14T12:00:23Z</time><name>PT3391</name></trkpt>
<trkpt lat="54.637636" lon="-3.070923"><ele>645</ele><time>2020-08-14T12:00:24Z</time><name>PT3392</name></trkpt>
<trkpt lat="54.637631" lon="-3.070927"><ele>646</ele><time>2020-08-14T12:00:25Z</time><name>PT3393</name></trkpt>
<trkpt lat="54.637628" lon="-3.070928"><ele>646</ele><time>2020-08-14T12:00:26Z</time><name>PT3394</name></trkpt>
<trkpt lat="54.637624" lon="-3.070931"><ele>646</ele><time>2020-08-14T12:00:27Z</time><name>PT3395</name></trkpt>
<trkpt lat="54.637620" lon="-3.070929"><ele>646</ele><time>2020-08-14T12:00:28Z</time><name>PT3396</name></trkpt>
<trkpt lat="54.637613" lon="-3.070931"><ele>646</ele><time>2020-08-14T12:00:29Z</time><name>PT3397</name></trkpt>
<trkpt lat="54.637610" lon="-3.070932"><ele>647</ele><time>2020-08-14T12:00:30Z</time><name>PT3398</name></trkpt>
<trkpt lat="54.637604" lon="-3.070935"><ele>647</ele><time>2020-08-14T12:00:31Z</time><name>PT3399</name></trkpt>
<trkpt lat="54.637598" lon="-3.070940"><ele>647</ele><time>2020-08-14T12:00:32Z</time><name>PT3400</name></trkpt>
<trkpt lat="54.637594" lon="-3.070945"><ele>647</ele><time>2020-08-14T12:00:33Z</time><name>PT3401</name></trkpt>
<trkpt lat="54.637589" lon="-3.070951"><ele>647</ele><time>2020-08-14T12:00:34Z</time><name>PT3402</name></trkpt>
<trkpt lat="54.637586" lon="-3.070954"><ele>648</ele><time>2020-08-14T12:00:35Z</time><name>PT3403</name></trkpt>
<trkpt lat="54.637579" lon="-3.070961"><ele>648</ele><time>2020-08-14T12:00:36Z</time><name>PT3404</name></trkpt>
<trkpt lat="54.637576" lon="-3.070966"><ele>648</ele><time>2020-08-14T12:00:37Z</time><name>PT3405</name></trkpt>
<trkpt lat="54.637572" lon="-3.070972"><ele>649</ele><time>2020-08-14T12:00:38Z</time><name>PT3406</name></trkpt>
<trkpt lat="54.637561" lon="-3.070975"><ele>649</ele><time>2020-08-14T12:00:39Z</time><name>PT3407</name></trkpt>
<trkpt lat="54.637556" lon="-3.070975"><ele>649</ele><time>2020-08-14T12:00:40Z</time><name>PT3408</name></trkpt>
<trkpt lat="54.637554" lon="-3.070982"><ele>649</ele><time>2020-08-14T12:00:41Z</time><name>PT3409</name></trkpt>
<trkpt lat="54.637549" lon="-3.070984"><ele>650</ele><time>2020-08-14T12:00:42Z</time><name>PT3410</name></trkpt>
<trkpt lat="54.637543" lon="-3.070985"><ele>650</ele><time>2020-08-14T12:00:43Z</time><name>PT3411</name></trkpt>
<trkpt lat="54.637539" lon="-3.070986"><ele>650</ele><time>2020-08-14T12:00:44Z</time><name>PT3412</name></trkpt>
<trkpt lat="54.637534" lon="-3.070978"><ele>651</ele><time>2020-08-14T12:00:45Z</time><name>PT3413</name></trkpt>
<trkpt lat="54.637532" lon="-3.070976"><ele>651</ele><time>2020-08-14T12:00:46Z</time><name>PT3414</name></trkpt>
<trkpt lat="54.637533" lon="-3.070969"><ele>650</ele><time>2020-08-14T12:00:47Z</time><name>PT3415</name></trkpt>
<trkpt lat="54.637533" lon="-3.070961"><ele>650</ele><time>2020-08-14T12:00:48Z</time><name>PT3416</name></trkpt>
<trkpt lat="54.637534" lon="-3.070948"><ele>651</ele><time>2020-08-14T12:00:49Z</time><name>PT3417</name></trkpt>
<trkpt lat="54.637533" lon="-3.070935"><ele>651</ele><time>2020-08-14T12:00:50Z</time><name>PT3418</name></trkpt>
<trkpt lat="54.637531" lon="-3.070927"><ele>651</ele><time>2020-08-14T12:00:51Z</time><name>PT3419</name></trkpt>
<trkpt lat="54.637528" lon="-3.070914"><ele>651</ele><time>2020-08-14T12:00:52Z</time><name>PT3420</name></trkpt>
<trkpt lat="54.637527" lon="-3.070902"><ele>651</ele><time>2020-08-14T12:00:53Z</time><name>PT3421</name></trkpt>
<trkpt lat="54.637524" lon="-3.070888"><ele>651</ele><time>2020-08-14T12:00:54Z</time><name>PT3422</name></trkpt>
<trkpt lat="54.637521" lon="-3.070879"><ele>651</ele><time>2020-08-14T12:00:55Z</time><name>PT3423</name></trkpt>
<trkpt lat="54.637517" lon="-3.070869"><ele>651</ele><time>2020-08-14T12:00:56Z</time><name>PT3424</name></trkpt>
<trkpt lat="54.637516" lon="-3.070864"><ele>652</ele><time>2020-08-14T12:00:57Z</time><name>PT3425</name></trkpt>
<trkpt lat="54.637512" lon="-3.070857"><ele>652</ele><time>2020-08-14T12:00:58Z</time><name>PT3426</name></trkpt>
<trkpt lat="54.637510" lon="-3.070849"><ele>652</ele><time>2020-08-14T12:00:59Z</time><name>PT3427</name></trkpt>
<trkpt lat="54.637508" lon="-3.070843"><ele>652</ele><time>2020-08-14T12:01:00Z</time><name>PT3428</name></trkpt>
<trkpt lat="54.637507" lon="-3.070834"><ele>652</ele><time>2020-08-14T12:01:01Z</time><name>PT3429</name></trkpt>
<trkpt lat="54.637505" lon="-3.070825"><ele>652</ele><time>2020-08-14T12:01:02Z</time><name>PT3430</name></trkpt>
<trkpt lat="54.637504" lon="-3.070818"><ele>653</ele><time>2020-08-14T12:01:03Z</time><name>PT3431</name></trkpt>
<trkpt lat="54.637501" lon="-3.070808"><ele>653</ele><time>2020-08-14T12:01:04Z</time><name>PT3432</name></trkpt>
<trkpt lat="54.637499" lon="-3.070805"><ele>653</ele><time>2020-08-14T12:01:05Z</time><name>PT3433</name></trkpt>
<trkpt lat="54.637498" lon="-3.070795"><ele>654</ele><time>2020-08-14T12:01:06Z</time><name>PT3434</name></trkpt>
<trkpt lat="54.637499" lon="-3.070783"><ele>653</ele><time>2020-08-14T12:01:07Z</time><name>PT3435</name></trkpt>
<trkpt lat="54.637500" lon="-3.070776"><ele>654</ele><time>2020-08-14T12:01:08Z</time><name>PT3436</name></trkpt>
<trkpt lat="54.637500" lon="-3.070771"><ele>653</ele><time>2020-08-14T12:01:09Z</time><name>PT3437</name></trkpt>
<trkpt lat="54.637499" lon="-3.070763"><ele>653</ele><time>2020-08-14T12:01:10Z</time><name>PT3438</name></trkpt>
<trkpt lat="54.637499" lon="-3.070755"><ele>653</ele><time>2020-08-14T12:01:12Z</time><name>PT3439</name></trkpt>
<trkpt lat="54.637497" lon="-3.070746"><ele>654</ele><time>2020-08-14T12:01:12Z</time><name>PT3440</name></trkpt>
<trkpt lat="54.637496" lon="-3.070741"><ele>654</ele><time>2020-08-14T12:01:13Z</time><name>PT3441</name></trkpt>
<trkpt lat="54.637493" lon="-3.070735"><ele>654</ele><time>2020-08-14T12:01:15Z</time><name>PT3442</name></trkpt>
<trkpt lat="54.637496" lon="-3.070728"><ele>655</ele><time>2020-08-14T12:01:15Z</time><name>PT3443</name></trkpt>
<trkpt lat="54.637496" lon="-3.070723"><ele>656</ele><time>2020-08-14T12:01:16Z</time><name>PT3444</name></trkpt>
<trkpt lat="54.637493" lon="-3.070721"><ele>656</ele><time>2020-08-14T12:01:17Z</time><name>PT3445</name></trkpt>
<trkpt lat="54.637492" lon="-3.070715"><ele>656</ele><time>2020-08-14T12:01:18Z</time><name>PT3446</name></trkpt>
<trkpt lat="54.637492" lon="-3.070713"><ele>656</ele><time>2020-08-14T12:01:19Z</time><name>PT3447</name></trkpt>
<trkpt lat="54.637489" lon="-3.070712"><ele>656</ele><time>2020-08-14T12:01:20Z</time><name>PT3448</name></trkpt>
<trkpt lat="54.637488" lon="-3.070712"><ele>656</ele><time>2020-08-14T12:01:21Z</time><name>PT3449</name></trkpt>
<trkpt lat="54.637484" lon="-3.070718"><ele>657</ele><time>2020-08-14T12:01:22Z</time><name>PT3450</name></trkpt>
<trkpt lat="54.637480" lon="-3.070723"><ele>657</ele><time>2020-08-14T12:01:23Z</time><name>PT3451</name></trkpt>
<trkpt lat="54.637475" lon="-3.070719"><ele>656</ele><time>2020-08-14T12:01:24Z</time><name>PT3452</name></trkpt>
<trkpt lat="54.637471" lon="-3.070717"><ele>657</ele><time>2020-08-14T12:01:25Z</time><name>PT3453</name></trkpt>
<trkpt lat="54.637459" lon="-3.070712"><ele>655</ele><time>2020-08-14T12:01:26Z</time><name>PT3454</name></trkpt>
<trkpt lat="54.637454" lon="-3.070714"><ele>655</ele><time>2020-08-14T12:01:27Z</time><name>PT3455</name></trkpt>
<trkpt lat="54.637446" lon="-3.070713"><ele>656</ele><time>2020-08-14T12:01:28Z</time><name>PT3456</name></trkpt>
<trkpt lat="54.637442" lon="-3.070711"><ele>655</ele><time>2020-08-14T12:01:30Z</time><name>PT3457</name></trkpt>
<trkpt lat="54.637440" lon="-3.070708"><ele>655</ele><time>2020-08-14T12:01:30Z</time><name>PT3458</name></trkpt>
<trkpt lat="54.637435" lon="-3.070706"><ele>655</ele><time>2020-08-14T12:01:31Z</time><name>PT3459</name></trkpt>
<trkpt lat="54.637433" lon="-3.070704"><ele>655</ele><time>2020-08-14T12:01:32Z</time><name>PT3460</name></trkpt>
<trkpt lat="54.637429" lon="-3.070704"><ele>655</ele><time>2020-08-14T12:01:33Z</time><name>PT3461</name></trkpt>
<trkpt lat="54.637424" lon="-3.070705"><ele>656</ele><time>2020-08-14T12:01:34Z</time><name>PT3462</name></trkpt>
<trkpt lat="54.637422" lon="-3.070705"><ele>656</ele><time>2020-08-14T12:01:35Z</time><name>PT3463</name></trkpt>
<trkpt lat="54.637418" lon="-3.070705"><ele>656</ele><time>2020-08-14T12:01:36Z</time><name>PT3464</name></trkpt>
<trkpt lat="54.637413" lon="-3.070699"><ele>654</ele><time>2020-08-14T12:01:37Z</time><name>PT3465</name></trkpt>
<trkpt lat="54.637408" lon="-3.070695"><ele>654</ele><time>2020-08-14T12:01:38Z</time><name>PT3466</name></trkpt>
<trkpt lat="54.637404" lon="-3.070691"><ele>655</ele><time>2020-08-14T12:01:39Z</time><name>PT3467</name></trkpt>
<trkpt lat="54.637402" lon="-3.070679"><ele>655</ele><time>2020-08-14T12:01:40Z</time><name>PT3468</name></trkpt>
<trkpt lat="54.637399" lon="-3.070674"><ele>655</ele><time>2020-08-14T12:01:41Z</time><name>PT3469</name></trkpt>
<trkpt lat="54.637395" lon="-3.070668"><ele>655</ele><time>2020-08-14T12:01:42Z</time><name>PT3470</name></trkpt>
<trkpt lat="54.637393" lon="-3.070666"><ele>655</ele><time>2020-08-14T12:01:43Z</time><name>PT3471</name></trkpt>
<trkpt lat="54.637389" lon="-3.070669"><ele>656</ele><time>2020-08-14T12:01:45Z</time><name>PT3472</name></trkpt>
<trkpt lat="54.637385" lon="-3.070672"><ele>656</ele><time>2020-08-14T12:01:45Z</time><name>PT3473</name></trkpt>
<trkpt lat="54.637380" lon="-3.070672"><ele>656</ele><time>2020-08-14T12:01:46Z</time><name>PT3474</name></trkpt>
<trkpt lat="54.637376" lon="-3.070674"><ele>657</ele><time>2020-08-14T12:01:47Z</time><name>PT3475</name></trkpt>
<trkpt lat="54.637373" lon="-3.070676"><ele>658</ele><time>2020-08-14T12:01:48Z</time><name>PT3476</name></trkpt>
<trkpt lat="54.637371" lon="-3.070679"><ele>658</ele><time>2020-08-14T12:01:49Z</time><name>PT3477</name></trkpt>
<trkpt lat="54.637366" lon="-3.070678"><ele>658</ele><time>2020-08-14T12:01:50Z</time><name>PT3478</name></trkpt>
<trkpt lat="54.637364" lon="-3.070678"><ele>658</ele><time>2020-08-14T12:01:51Z</time><name>PT3479</name></trkpt>
<trkpt lat="54.637359" lon="-3.070668"><ele>658</ele><time>2020-08-14T12:01:52Z</time><name>PT3480</name></trkpt>
<trkpt lat="54.637359" lon="-3.070663"><ele>659</ele><time>2020-08-14T12:01:53Z</time><name>PT3481</name></trkpt>
<trkpt lat="54.637359" lon="-3.070663"><ele>658</ele><time>2020-08-14T12:01:54Z</time><name>PT3482</name></trkpt>
<trkpt lat="54.637360" lon="-3.070662"><ele>658</ele><time>2020-08-14T12:01:55Z</time><name>PT3483</name></trkpt>
<trkpt lat="54.637367" lon="-3.070656"><ele>659</ele><time>2020-08-14T12:01:56Z</time><name>PT3484</name></trkpt>
<trkpt lat="54.637372" lon="-3.070643"><ele>660</ele><time>2020-08-14T12:01:57Z</time><name>PT3485</name></trkpt>
<trkpt lat="54.637375" lon="-3.070638"><ele>660</ele><time>2020-08-14T12:01:58Z</time><name>PT3486</name></trkpt>
<trkpt lat="54.637374" lon="-3.070632"><ele>660</ele><time>2020-08-14T12:01:59Z</time><name>PT3487</name></trkpt>
<trkpt lat="54.637371" lon="-3.070625"><ele>660</ele><time>2020-08-14T12:02:00Z</time><name>PT3488</name></trkpt>
<trkpt lat="54.637368" lon="-3.070618"><ele>660</ele><time>2020-08-14T12:02:01Z</time><name>PT3489</name></trkpt>
<trkpt lat="54.637367" lon="-3.070602"><ele>660</ele><time>2020-08-14T12:02:03Z</time><name>PT3490</name></trkpt>
<trkpt lat="54.637367" lon="-3.070593"><ele>660</ele><time>2020-08-14T12:02:04Z</time><name>PT3491</name></trkpt>
<trkpt lat="54.637369" lon="-3.070580"><ele>661</ele><time>2020-08-14T12:02:05Z</time><name>PT3492</name></trkpt>
<trkpt lat="54.637370" lon="-3.070572"><ele>661</ele><time>2020-08-14T12:02:06Z</time><name>PT3493</name></trkpt>
<trkpt lat="54.637371" lon="-3.070561"><ele>661</ele><time>2020-08-14T12:02:07Z</time><name>PT3494</name></trkpt>
<trkpt lat="54.637368" lon="-3.070559"><ele>661</ele><time>2020-08-14T12:02:08Z</time><name>PT3495</name></trkpt>
<trkpt lat="54.637365" lon="-3.070558"><ele>661</ele><time>2020-08-14T12:02:09Z</time><name>PT3496</name></trkpt>
<trkpt lat="54.637366" lon="-3.070550"><ele>661</ele><time>2020-08-14T12:02:10Z</time><name>PT3497</name></trkpt>
<trkpt lat="54.637364" lon="-3.070543"><ele>661</ele><time>2020-08-14T12:02:11Z</time><name>PT3498</name></trkpt>
<trkpt lat="54.637369" lon="-3.070538"><ele>661</ele><time>2020-08-14T12:02:12Z</time><name>PT3499</name></trkpt>
<trkpt lat="54.637376" lon="-3.070526"><ele>661</ele><time>2020-08-14T12:02:13Z</time><name>PT3500</name></trkpt>
<trkpt lat="54.637380" lon="-3.070520"><ele>661</ele><time>2020-08-14T12:02:14Z</time><name>PT3501</name></trkpt>
<trkpt lat="54.637380" lon="-3.070515"><ele>661</ele><time>2020-08-14T12:02:15Z</time><name>PT3502</name></trkpt>
<trkpt lat="54.637380" lon="-3.070503"><ele>661</ele><time>2020-08-14T12:02:16Z</time><name>PT3503</name></trkpt>
<trkpt lat="54.637378" lon="-3.070494"><ele>661</ele><time>2020-08-14T12:02:17Z</time><name>PT3504</name></trkpt>
<trkpt lat="54.637376" lon="-3.070488"><ele>661</ele><time>2020-08-14T12:02:18Z</time><name>PT3505</name></trkpt>
<trkpt lat="54.637375" lon="-3.070478"><ele>662</ele><time>2020-08-14T12:02:19Z</time><name>PT3506</name></trkpt>
<trkpt lat="54.637371" lon="-3.070470"><ele>661</ele><time>2020-08-14T12:02:20Z</time><name>PT3507</name></trkpt>
<trkpt lat="54.637373" lon="-3.070464"><ele>661</ele><time>2020-08-14T12:02:21Z</time><name>PT3508</name></trkpt>
<trkpt lat="54.637371" lon="-3.070458"><ele>661</ele><time>2020-08-14T12:02:22Z</time><name>PT3509</name></trkpt>
<trkpt lat="54.637370" lon="-3.070454"><ele>661</ele><time>2020-08-14T12:02:23Z</time><name>PT3510</name></trkpt>
<trkpt lat="54.637369" lon="-3.070445"><ele>661</ele><time>2020-08-14T12:02:24Z</time><name>PT3511</name></trkpt>
<trkpt lat="54.637367" lon="-3.070435"><ele>661</ele><time>2020-08-14T12:02:25Z</time><name>PT3512</name></trkpt>
<trkpt lat="54.637362" lon="-3.070426"><ele>661</ele><time>2020-08-14T12:02:26Z</time><name>PT3513</name></trkpt>
<trkpt lat="54.637360" lon="-3.070421"><ele>661</ele><time>2020-08-14T12:02:27Z</time><name>PT3514</name></trkpt>
<trkpt lat="54.637357" lon="-3.070414"><ele>661</ele><time>2020-08-14T12:02:28Z</time><name>PT3515</name></trkpt>
<trkpt lat="54.637357" lon="-3.070409"><ele>662</ele><time>2020-08-14T12:02:29Z</time><name>PT3516</name></trkpt>
<trkpt lat="54.637351" lon="-3.070403"><ele>662</ele><time>2020-08-14T12:02:30Z</time><name>PT3517</name></trkpt>
<trkpt lat="54.637345" lon="-3.070400"><ele>662</ele><time>2020-08-14T12:02:31Z</time><name>PT3518</name></trkpt>
<trkpt lat="54.637351" lon="-3.070390"><ele>664</ele><time>2020-08-14T12:02:32Z</time><name>PT3519</name></trkpt>
<trkpt lat="54.637352" lon="-3.070386"><ele>664</ele><time>2020-08-14T12:02:33Z</time><name>PT3520</name></trkpt>
<trkpt lat="54.637352" lon="-3.070381"><ele>665</ele><time>2020-08-14T12:02:34Z</time><name>PT3521</name></trkpt>
<trkpt lat="54.637353" lon="-3.070367"><ele>666</ele><time>2020-08-14T12:02:35Z</time><name>PT3522</name></trkpt>
<trkpt lat="54.637353" lon="-3.070359"><ele>666</ele><time>2020-08-14T12:02:36Z</time><name>PT3523</name></trkpt>
<trkpt lat="54.637350" lon="-3.070349"><ele>667</ele><time>2020-08-14T12:02:37Z</time><name>PT3524</name></trkpt>
<trkpt lat="54.637349" lon="-3.070324"><ele>667</ele><time>2020-08-14T12:02:40Z</time><name>PT3525</name></trkpt>
<trkpt lat="54.637343" lon="-3.070295"><ele>668</ele><time>2020-08-14T12:02:43Z</time><name>PT3526</name></trkpt>
<trkpt lat="54.637342" lon="-3.070259"><ele>669</ele><time>2020-08-14T12:02:47Z</time><name>PT3527</name></trkpt>
<trkpt lat="54.637340" lon="-3.070228"><ele>670</ele><time>2020-08-14T12:02:50Z</time><name>PT3528</name></trkpt>
<trkpt lat="54.637340" lon="-3.070191"><ele>671</ele><time>2020-08-14T12:02:54Z</time><name>PT3529</name></trkpt>
<trkpt lat="54.637334" lon="-3.070157"><ele>672</ele><time>2020-08-14T12:02:58Z</time><name>PT3530</name></trkpt>
<trkpt lat="54.637330" lon="-3.070129"><ele>672</ele><time>2020-08-14T12:03:02Z</time><name>PT3531</name></trkpt>
<trkpt lat="54.637319" lon="-3.070105"><ele>672</ele><time>2020-08-14T12:03:06Z</time><name>PT3532</name></trkpt>
<trkpt lat="54.637303" lon="-3.070087"><ele>672</ele><time>2020-08-14T12:03:10Z</time><name>PT3533</name></trkpt>
<trkpt lat="54.637302" lon="-3.070051"><ele>672</ele><time>2020-08-14T12:03:14Z</time><name>PT3534</name></trkpt>
<trkpt lat="54.637297" lon="-3.070031"><ele>674</ele><time>2020-08-14T12:03:18Z</time><name>PT3535</name></trkpt>
<trkpt lat="54.637299" lon="-3.070000"><ele>675</ele><time>2020-08-14T12:03:21Z</time><name>PT3536</name></trkpt>
<trkpt lat="54.637298" lon="-3.069977"><ele>676</ele><time>2020-08-14T12:03:24Z</time><name>PT3537</name></trkpt>
<trkpt lat="54.637295" lon="-3.069962"><ele>676</ele><time>2020-08-14T12:03:27Z</time><name>PT3538</name></trkpt>
<trkpt lat="54.637282" lon="-3.069950"><ele>678</ele><time>2020-08-14T12:03:31Z</time><name>PT3539</name></trkpt>
<trkpt lat="54.637275" lon="-3.069929"><ele>678</ele><time>2020-08-14T12:03:34Z</time><name>PT3540</name></trkpt>
<trkpt lat="54.637268" lon="-3.069891"><ele>677</ele><time>2020-08-14T12:03:38Z</time><name>PT3541</name></trkpt>
<trkpt lat="54.637259" lon="-3.069859"><ele>677</ele><time>2020-08-14T12:03:41Z</time><name>PT3542</name></trkpt>
<trkpt lat="54.637252" lon="-3.069823"><ele>677</ele><time>2020-08-14T12:03:45Z</time><name>PT3543</name></trkpt>
<trkpt lat="54.637256" lon="-3.069790"><ele>679</ele><time>2020-08-14T12:03:49Z</time><name>PT3544</name></trkpt>
<trkpt lat="54.637253" lon="-3.069750"><ele>680</ele><time>2020-08-14T12:03:53Z</time><name>PT3545</name></trkpt>
<trkpt lat="54.637245" lon="-3.069730"><ele>682</ele><time>2020-08-14T12:03:56Z</time><name>PT3546</name></trkpt>
<trkpt lat="54.637235" lon="-3.069720"><ele>682</ele><time>2020-08-14T12:03:59Z</time><name>PT3547</name></trkpt>
<trkpt lat="54.637217" lon="-3.069706"><ele>683</ele><time>2020-08-14T12:04:02Z</time><name>PT3548</name></trkpt>
<trkpt lat="54.637219" lon="-3.069679"><ele>683</ele><time>2020-08-14T12:04:05Z</time><name>PT3549</name></trkpt>
<trkpt lat="54.637207" lon="-3.069642"><ele>682</ele><time>2020-08-14T12:04:09Z</time><name>PT3550</name></trkpt>
<trkpt lat="54.637204" lon="-3.069620"><ele>683</ele><time>2020-08-14T12:04:12Z</time><name>PT3551</name></trkpt>
<trkpt lat="54.637208" lon="-3.069578"><ele>684</ele><time>2020-08-14T12:04:16Z</time><name>PT3552</name></trkpt>
<trkpt lat="54.637197" lon="-3.069561"><ele>685</ele><time>2020-08-14T12:04:20Z</time><name>PT3553</name></trkpt>
<trkpt lat="54.637195" lon="-3.069545"><ele>685</ele><time>2020-08-14T12:04:23Z</time><name>PT3554</name></trkpt>
<trkpt lat="54.637187" lon="-3.069531"><ele>685</ele><time>2020-08-14T12:04:26Z</time><name>PT3555</name></trkpt>
<trkpt lat="54.637173" lon="-3.069529"><ele>684</ele><time>2020-08-14T12:04:30Z</time><name>PT3556</name></trkpt>
<trkpt lat="54.637167" lon="-3.069545"><ele>684</ele><time>2020-08-14T12:04:34Z</time><name>PT3557</name></trkpt>
<trkpt lat="54.637154" lon="-3.069568"><ele>685</ele><time>2020-08-14T12:04:37Z</time><name>PT3558</name></trkpt>
<trkpt lat="54.637141" lon="-3.069576"><ele>686</ele><time>2020-08-14T12:04:40Z</time><name>PT3559</name></trkpt>
<trkpt lat="54.637131" lon="-3.069587"><ele>686</ele><time>2020-08-14T12:04:43Z</time><name>PT3560</name></trkpt>
<trkpt lat="54.637119" lon="-3.069595"><ele>686</ele><time>2020-08-14T12:04:46Z</time><name>PT3561</name></trkpt>
<trkpt lat="54.637105" lon="-3.069584"><ele>685</ele><time>2020-08-14T12:04:53Z</time><name>PT3562</name></trkpt>
<trkpt lat="54.637087" lon="-3.069637"><ele>686</ele><time>2020-08-14T12:04:56Z</time><name>PT3563</name></trkpt>
<trkpt lat="54.637066" lon="-3.069662"><ele>686</ele><time>2020-08-14T12:04:59Z</time><name>PT3564</name></trkpt>
<trkpt lat="54.637048" lon="-3.069695"><ele>686</ele><time>2020-08-14T12:05:03Z</time><name>PT3565</name></trkpt>
<trkpt lat="54.637037" lon="-3.069705"><ele>687</ele><time>2020-08-14T12:05:06Z</time><name>PT3566</name></trkpt>
<trkpt lat="54.637025" lon="-3.069717"><ele>688</ele><time>2020-08-14T12:05:09Z</time><name>PT3567</name></trkpt>
<trkpt lat="54.637011" lon="-3.069732"><ele>687</ele><time>2020-08-14T12:05:13Z</time><name>PT3568</name></trkpt>
<trkpt lat="54.637003" lon="-3.069742"><ele>688</ele><time>2020-08-14T12:05:16Z</time><name>PT3569</name></trkpt>
<trkpt lat="54.636980" lon="-3.069766"><ele>688</ele><time>2020-08-14T12:05:20Z</time><name>PT3570</name></trkpt>
<trkpt lat="54.636961" lon="-3.069783"><ele>688</ele><time>2020-08-14T12:05:24Z</time><name>PT3571</name></trkpt>
<trkpt lat="54.636951" lon="-3.069783"><ele>688</ele><time>2020-08-14T12:05:27Z</time><name>PT3572</name></trkpt>
<trkpt lat="54.636943" lon="-3.069788"><ele>689</ele><time>2020-08-14T12:05:30Z</time><name>PT3573</name></trkpt>
<trkpt lat="54.636925" lon="-3.069815"><ele>690</ele><time>2020-08-14T12:05:33Z</time><name>PT3574</name></trkpt>
<trkpt lat="54.636906" lon="-3.069830"><ele>689</ele><time>2020-08-14T12:05:37Z</time><name>PT3575</name></trkpt>
<trkpt lat="54.636895" lon="-3.069835"><ele>690</ele><time>2020-08-14T12:05:40Z</time><name>PT3576</name></trkpt>
<trkpt lat="54.636890" lon="-3.069846"><ele>690</ele><time>2020-08-14T12:05:44Z</time><name>PT3577</name></trkpt>
<trkpt lat="54.636881" lon="-3.069825"><ele>691</ele><time>2020-08-14T12:05:48Z</time><name>PT3578</name></trkpt>
<trkpt lat="54.636875" lon="-3.069804"><ele>692</ele><time>2020-08-14T12:05:52Z</time><name>PT3579</name></trkpt>
<trkpt lat="54.636876" lon="-3.069782"><ele>693</ele><time>2020-08-14T12:05:55Z</time><name>PT3580</name></trkpt>
<trkpt lat="54.636862" lon="-3.069758"><ele>693</ele><time>2020-08-14T12:05:59Z</time><name>PT3581</name></trkpt>
<trkpt lat="54.636858" lon="-3.069739"><ele>694</ele><time>2020-08-14T12:06:02Z</time><name>PT3582</name></trkpt>
<trkpt lat="54.636855" lon="-3.069713"><ele>694</ele><time>2020-08-14T12:06:05Z</time><name>PT3583</name></trkpt>
<trkpt lat="54.636851" lon="-3.069704"><ele>694</ele><time>2020-08-14T12:06:09Z</time><name>PT3584</name></trkpt>
<trkpt lat="54.636849" lon="-3.069686"><ele>695</ele><time>2020-08-14T12:06:15Z</time><name>PT3585</name></trkpt>
<trkpt lat="54.636842" lon="-3.069649"><ele>696</ele><time>2020-08-14T12:06:18Z</time><name>PT3586</name></trkpt>
<trkpt lat="54.636841" lon="-3.069600"><ele>697</ele><time>2020-08-14T12:06:22Z</time><name>PT3587</name></trkpt>
<trkpt lat="54.636836" lon="-3.069589"><ele>698</ele><time>2020-08-14T12:06:26Z</time><name>PT3588</name></trkpt>
<trkpt lat="54.636826" lon="-3.069564"><ele>698</ele><time>2020-08-14T12:06:29Z</time><name>PT3589</name></trkpt>
<trkpt lat="54.636820" lon="-3.069540"><ele>698</ele><time>2020-08-14T12:06:32Z</time><name>PT3590</name></trkpt>
<trkpt lat="54.636816" lon="-3.069515"><ele>698</ele><time>2020-08-14T12:06:35Z</time><name>PT3591</name></trkpt>
<trkpt lat="54.636807" lon="-3.069486"><ele>700</ele><time>2020-08-14T12:06:39Z</time><name>PT3592</name></trkpt>
<trkpt lat="54.636796" lon="-3.069461"><ele>702</ele><time>2020-08-14T12:06:43Z</time><name>PT3593</name></trkpt>
<trkpt lat="54.636790" lon="-3.069429"><ele>702</ele><time>2020-08-14T12:06:47Z</time><name>PT3594</name></trkpt>
<trkpt lat="54.636781" lon="-3.069416"><ele>703</ele><time>2020-08-14T12:06:51Z</time><name>PT3595</name></trkpt>
<trkpt lat="54.636774" lon="-3.069396"><ele>704</ele><time>2020-08-14T12:06:54Z</time><name>PT3596</name></trkpt>
<trkpt lat="54.636775" lon="-3.069379"><ele>705</ele><time>2020-08-14T12:06:57Z</time><name>PT3597</name></trkpt>
<trkpt lat="54.636776" lon="-3.069345"><ele>705</ele><time>2020-08-14T12:07:01Z</time><name>PT3598</name></trkpt>
<trkpt lat="54.636776" lon="-3.069314"><ele>706</ele><time>2020-08-14T12:07:05Z</time><name>PT3599</name></trkpt>
<trkpt lat="54.636763" lon="-3.069273"><ele>706</ele><time>2020-08-14T12:07:09Z</time><name>PT3600</name></trkpt>
<trkpt lat="54.636762" lon="-3.069243"><ele>706</ele><time>2020-08-14T12:07:12Z</time><name>PT3601</name></trkpt>
<trkpt lat="54.636755" lon="-3.069210"><ele>706</ele><time>2020-08-14T12:07:15Z</time><name>PT3602</name></trkpt>
<trkpt lat="54.636749" lon="-3.069176"><ele>707</ele><time>2020-08-14T12:07:18Z</time><name>PT3603</name></trkpt>
<trkpt lat="54.636746" lon="-3.069149"><ele>706</ele><time>2020-08-14T12:07:21Z</time><name>PT3604</name></trkpt>
<trkpt lat="54.636739" lon="-3.069108"><ele>707</ele><time>2020-08-14T12:07:25Z</time><name>PT3605</name></trkpt>
<trkpt lat="54.636727" lon="-3.069066"><ele>708</ele><time>2020-08-14T12:07:29Z</time><name>PT3606</name></trkpt>
<trkpt lat="54.636723" lon="-3.069056"><ele>707</ele><time>2020-08-14T12:07:32Z</time><name>PT3607</name></trkpt>
<trkpt lat="54.636715" lon="-3.069032"><ele>707</ele><time>2020-08-14T12:07:35Z</time><name>PT3608</name></trkpt>
<trkpt lat="54.636708" lon="-3.069003"><ele>707</ele><time>2020-08-14T12:07:39Z</time><name>PT3609</name></trkpt>
<trkpt lat="54.636698" lon="-3.068972"><ele>707</ele><time>2020-08-14T12:07:43Z</time><name>PT3610</name></trkpt>
<trkpt lat="54.636688" lon="-3.068946"><ele>708</ele><time>2020-08-14T12:07:46Z</time><name>PT3611</name></trkpt>
<trkpt lat="54.636681" lon="-3.068935"><ele>708</ele><time>2020-08-14T12:07:50Z</time><name>PT3612</name></trkpt>
<trkpt lat="54.636669" lon="-3.068908"><ele>709</ele><time>2020-08-14T12:07:53Z</time><name>PT3613</name></trkpt>
<trkpt lat="54.636651" lon="-3.068879"><ele>710</ele><time>2020-08-14T12:07:57Z</time><name>PT3614</name></trkpt>
<trkpt lat="54.636651" lon="-3.068852"><ele>710</ele><time>2020-08-14T12:08:00Z</time><name>PT3615</name></trkpt>
<trkpt lat="54.636645" lon="-3.068820"><ele>710</ele><time>2020-08-14T12:08:04Z</time><name>PT3616</name></trkpt>
<trkpt lat="54.636636" lon="-3.068813"><ele>710</ele><time>2020-08-14T12:08:07Z</time><name>PT3617</name></trkpt>
<trkpt lat="54.636629" lon="-3.068815"><ele>710</ele><time>2020-08-14T12:08:10Z</time><name>PT3618</name></trkpt>
<trkpt lat="54.636629" lon="-3.068822"><ele>711</ele><time>2020-08-14T12:08:14Z</time><name>PT3619</name></trkpt>
<trkpt lat="54.636621" lon="-3.068842"><ele>712</ele><time>2020-08-14T12:08:17Z</time><name>PT3620</name></trkpt>
<trkpt lat="54.636605" lon="-3.068860"><ele>712</ele><time>2020-08-14T12:08:20Z</time><name>PT3621</name></trkpt>
<trkpt lat="54.636590" lon="-3.068898"><ele>712</ele><time>2020-08-14T12:08:24Z</time><name>PT3622</name></trkpt>
<trkpt lat="54.636577" lon="-3.068912"><ele>713</ele><time>2020-08-14T12:08:27Z</time><name>PT3623</name></trkpt>
<trkpt lat="54.636558" lon="-3.068947"><ele>715</ele><time>2020-08-14T12:08:31Z</time><name>PT3624</name></trkpt>
<trkpt lat="54.636547" lon="-3.068973"><ele>716</ele><time>2020-08-14T12:08:35Z</time><name>PT3625</name></trkpt>
<trkpt lat="54.636537" lon="-3.068994"><ele>715</ele><time>2020-08-14T12:08:38Z</time><name>PT3626</name></trkpt>
<trkpt lat="54.636519" lon="-3.069005"><ele>717</ele><time>2020-08-14T12:08:42Z</time><name>PT3627</name></trkpt>
<trkpt lat="54.636511" lon="-3.069007"><ele>717</ele><time>2020-08-14T12:08:45Z</time><name>PT3628</name></trkpt>
<trkpt lat="54.636496" lon="-3.069018"><ele>717</ele><time>2020-08-14T12:08:48Z</time><name>PT3629</name></trkpt>
<trkpt lat="54.636480" lon="-3.069013"><ele>718</ele><time>2020-08-14T12:08:52Z</time><name>PT3630</name></trkpt>
<trkpt lat="54.636460" lon="-3.069024"><ele>718</ele><time>2020-08-14T12:08:56Z</time><name>PT3631</name></trkpt>
<trkpt lat="54.636444" lon="-3.069048"><ele>721</ele><time>2020-08-14T12:08:59Z</time><name>PT3632</name></trkpt>
<trkpt lat="54.636421" lon="-3.069054"><ele>721</ele><time>2020-08-14T12:09:03Z</time><name>PT3633</name></trkpt>
<trkpt lat="54.636404" lon="-3.069062"><ele>721</ele><time>2020-08-14T12:09:06Z</time><name>PT3634</name></trkpt>
<trkpt lat="54.636390" lon="-3.069078"><ele>722</ele><time>2020-08-14T12:09:09Z</time><name>PT3635</name></trkpt>
<trkpt lat="54.636377" lon="-3.069093"><ele>723</ele><time>2020-08-14T12:09:12Z</time><name>PT3636</name></trkpt>
<trkpt lat="54.636368" lon="-3.069113"><ele>724</ele><time>2020-08-14T12:09:15Z</time><name>PT3637</name></trkpt>
<trkpt lat="54.636357" lon="-3.069122"><ele>725</ele><time>2020-08-14T12:09:19Z</time><name>PT3638</name></trkpt>
<trkpt lat="54.636342" lon="-3.069136"><ele>726</ele><time>2020-08-14T12:09:22Z</time><name>PT3639</name></trkpt>
<trkpt lat="54.636326" lon="-3.069139"><ele>724</ele><time>2020-08-14T12:09:26Z</time><name>PT3640</name></trkpt>
<trkpt lat="54.636307" lon="-3.069153"><ele>725</ele><time>2020-08-14T12:09:30Z</time><name>PT3641</name></trkpt>
<trkpt lat="54.636287" lon="-3.069166"><ele>726</ele><time>2020-08-14T12:09:34Z</time><name>PT3642</name></trkpt>
<trkpt lat="54.636271" lon="-3.069180"><ele>726</ele><time>2020-08-14T12:09:37Z</time><name>PT3643</name></trkpt>
<trkpt lat="54.636259" lon="-3.069204"><ele>727</ele><time>2020-08-14T12:09:41Z</time><name>PT3644</name></trkpt>
<trkpt lat="54.636236" lon="-3.069219"><ele>728</ele><time>2020-08-14T12:09:45Z</time><name>PT3645</name></trkpt>
<trkpt lat="54.636220" lon="-3.069239"><ele>729</ele><time>2020-08-14T12:09:48Z</time><name>PT3646</name></trkpt>
<trkpt lat="54.636208" lon="-3.069252"><ele>730</ele><time>2020-08-14T12:09:52Z</time><name>PT3647</name></trkpt>
<trkpt lat="54.636194" lon="-3.069269"><ele>731</ele><time>2020-08-14T12:09:55Z</time><name>PT3648</name></trkpt>
<trkpt lat="54.636185" lon="-3.069281"><ele>731</ele><time>2020-08-14T12:09:58Z</time><name>PT3649</name></trkpt>
<trkpt lat="54.636174" lon="-3.069294"><ele>732</ele><time>2020-08-14T12:10:01Z</time><name>PT3650</name></trkpt>
<trkpt lat="54.636169" lon="-3.069301"><ele>732</ele><time>2020-08-14T12:10:05Z</time><name>PT3651</name></trkpt>
<trkpt lat="54.636152" lon="-3.069309"><ele>732</ele><time>2020-08-14T12:10:08Z</time><name>PT3652</name></trkpt>
<trkpt lat="54.636132" lon="-3.069326"><ele>732</ele><time>2020-08-14T12:10:12Z</time><name>PT3653</name></trkpt>
<trkpt lat="54.636119" lon="-3.069324"><ele>732</ele><time>2020-08-14T12:10:15Z</time><name>PT3654</name></trkpt>
<trkpt lat="54.636104" lon="-3.069332"><ele>732</ele><time>2020-08-14T12:10:18Z</time><name>PT3655</name></trkpt>
<trkpt lat="54.636096" lon="-3.069339"><ele>733</ele><time>2020-08-14T12:10:21Z</time><name>PT3656</name></trkpt>
<trkpt lat="54.636083" lon="-3.069357"><ele>734</ele><time>2020-08-14T12:10:24Z</time><name>PT3657</name></trkpt>
<trkpt lat="54.636062" lon="-3.069372"><ele>734</ele><time>2020-08-14T12:10:28Z</time><name>PT3658</name></trkpt>
<trkpt lat="54.636044" lon="-3.069381"><ele>735</ele><time>2020-08-14T12:10:31Z</time><name>PT3659</name></trkpt>
<trkpt lat="54.636024" lon="-3.069396"><ele>735</ele><time>2020-08-14T12:10:35Z</time><name>PT3660</name></trkpt>
<trkpt lat="54.636007" lon="-3.069410"><ele>735</ele><time>2020-08-14T12:10:39Z</time><name>PT3661</name></trkpt>
<trkpt lat="54.636005" lon="-3.069416"><ele>735</ele><time>2020-08-14T12:10:40Z</time><name>PT3662</name></trkpt>
<trkpt lat="54.636003" lon="-3.069405"><ele>735</ele><time>2020-08-14T12:10:41Z</time><name>PT3663</name></trkpt>
<trkpt lat="54.636001" lon="-3.069404"><ele>735</ele><time>2020-08-14T12:10:42Z</time><name>PT3664</name></trkpt>
<trkpt lat="54.635999" lon="-3.069398"><ele>736</ele><time>2020-08-14T12:10:43Z</time><name>PT3665</name></trkpt>
<trkpt lat="54.635997" lon="-3.069401"><ele>735</ele><time>2020-08-14T12:10:44Z</time><name>PT3666</name></trkpt>
<trkpt lat="54.635997" lon="-3.069400"><ele>736</ele><time>2020-08-14T12:10:45Z</time><name>PT3667</name></trkpt>
<trkpt lat="54.635998" lon="-3.069395"><ele>735</ele><time>2020-08-14T12:10:48Z</time><name>PT3668</name></trkpt>
<trkpt lat="54.635993" lon="-3.069385"><ele>735</ele><time>2020-08-14T12:10:49Z</time><name>PT3669</name></trkpt>
<trkpt lat="54.635988" lon="-3.069370"><ele>736</ele><time>2020-08-14T12:10:50Z</time><name>PT3670</name></trkpt>
<trkpt lat="54.635985" lon="-3.069361"><ele>736</ele><time>2020-08-14T12:10:51Z</time><name>PT3671</name></trkpt>
<trkpt lat="54.635979" lon="-3.069349"><ele>736</ele><time>2020-08-14T12:10:52Z</time><name>PT3672</name></trkpt>
<trkpt lat="54.635974" lon="-3.069339"><ele>736</ele><time>2020-08-14T12:10:53Z</time><name>PT3673</name></trkpt>
<trkpt lat="54.635970" lon="-3.069333"><ele>736</ele><time>2020-08-14T12:10:54Z</time><name>PT3674</name></trkpt>
<trkpt lat="54.635965" lon="-3.069324"><ele>736</ele><time>2020-08-14T12:10:55Z</time><name>PT3675</name></trkpt>
<trkpt lat="54.635961" lon="-3.069314"><ele>736</ele><time>2020-08-14T12:10:56Z</time><name>PT3676</name></trkpt>
<trkpt lat="54.635956" lon="-3.069305"><ele>736</ele><time>2020-08-14T12:10:57Z</time><name>PT3677</name></trkpt>
<trkpt lat="54.635953" lon="-3.069300"><ele>737</ele><time>2020-08-14T12:10:58Z</time><name>PT3678</name></trkpt>
<trkpt lat="54.635949" lon="-3.069296"><ele>737</ele><time>2020-08-14T12:10:59Z</time><name>PT3679</name></trkpt>
<trkpt lat="54.635948" lon="-3.069294"><ele>737</ele><time>2020-08-14T12:11:00Z</time><name>PT3680</name></trkpt>
<trkpt lat="54.635945" lon="-3.069286"><ele>737</ele><time>2020-08-14T12:11:01Z</time><name>PT3681</name></trkpt>
<trkpt lat="54.635943" lon="-3.069279"><ele>737</ele><time>2020-08-14T12:11:02Z</time><name>PT3682</name></trkpt>
<trkpt lat="54.635939" lon="-3.069269"><ele>737</ele><time>2020-08-14T12:11:03Z</time><name>PT3683</name></trkpt>
<trkpt lat="54.635936" lon="-3.069258"><ele>738</ele><time>2020-08-14T12:11:04Z</time><name>PT3684</name></trkpt>
<trkpt lat="54.635930" lon="-3.069244"><ele>738</ele><time>2020-08-14T12:11:05Z</time><name>PT3685</name></trkpt>
<trkpt lat="54.635924" lon="-3.069232"><ele>738</ele><time>2020-08-14T12:11:06Z</time><name>PT3686</name></trkpt>
<trkpt lat="54.635921" lon="-3.069224"><ele>738</ele><time>2020-08-14T12:11:07Z</time><name>PT3687</name></trkpt>
<trkpt lat="54.635918" lon="-3.069217"><ele>739</ele><time>2020-08-14T12:11:08Z</time><name>PT3688</name></trkpt>
<trkpt lat="54.635914" lon="-3.069213"><ele>739</ele><time>2020-08-14T12:11:09Z</time><name>PT3689</name></trkpt>
<trkpt lat="54.635913" lon="-3.069204"><ele>739</ele><time>2020-08-14T12:11:10Z</time><name>PT3690</name></trkpt>
<trkpt lat="54.635911" lon="-3.069197"><ele>739</ele><time>2020-08-14T12:11:11Z</time><name>PT3691</name></trkpt>
<trkpt lat="54.635908" lon="-3.069187"><ele>739</ele><time>2020-08-14T12:11:12Z</time><name>PT3692</name></trkpt>
<trkpt lat="54.635906" lon="-3.069178"><ele>739</ele><time>2020-08-14T12:11:13Z</time><name>PT3693</name></trkpt>
<trkpt lat="54.635901" lon="-3.069173"><ele>739</ele><time>2020-08-14T12:11:14Z</time><name>PT3694</name></trkpt>
<trkpt lat="54.635893" lon="-3.069168"><ele>739</ele><time>2020-08-14T12:11:15Z</time><name>PT3695</name></trkpt>
<trkpt lat="54.635890" lon="-3.069164"><ele>739</ele><time>2020-08-14T12:11:16Z</time><name>PT3696</name></trkpt>
<trkpt lat="54.635884" lon="-3.069155"><ele>740</ele><time>2020-08-14T12:11:17Z</time><name>PT3697</name></trkpt>
<trkpt lat="54.635882" lon="-3.069147"><ele>740</ele><time>2020-08-14T12:11:18Z</time><name>PT3698</name></trkpt>
<trkpt lat="54.635882" lon="-3.069136"><ele>740</ele><time>2020-08-14T12:11:19Z</time><name>PT3699</name></trkpt>
<trkpt lat="54.635881" lon="-3.069128"><ele>741</ele><time>2020-08-14T12:11:20Z</time><name>PT3700</name></trkpt>
<trkpt lat="54.635879" lon="-3.069118"><ele>741</ele><time>2020-08-14T12:11:21Z</time><name>PT3701</name></trkpt>
<trkpt lat="54.635876" lon="-3.069110"><ele>741</ele><time>2020-08-14T12:11:22Z</time><name>PT3702</name></trkpt>
<trkpt lat="54.635877" lon="-3.069107"><ele>740</ele><time>2020-08-14T12:11:23Z</time><name>PT3703</name></trkpt>
<trkpt lat="54.635876" lon="-3.069101"><ele>740</ele><time>2020-08-14T12:11:24Z</time><name>PT3704</name></trkpt>
<trkpt lat="54.635873" lon="-3.069095"><ele>741</ele><time>2020-08-14T12:11:25Z</time><name>PT3705</name></trkpt>
<trkpt lat="54.635871" lon="-3.069088"><ele>742</ele><time>2020-08-14T12:11:26Z</time><name>PT3706</name></trkpt>
<trkpt lat="54.635870" lon="-3.069080"><ele>742</ele><time>2020-08-14T12:11:27Z</time><name>PT3707</name></trkpt>
<trkpt lat="54.635867" lon="-3.069073"><ele>742</ele><time>2020-08-14T12:11:28Z</time><name>PT3708</name></trkpt>
<trkpt lat="54.635865" lon="-3.069069"><ele>743</ele><time>2020-08-14T12:11:29Z</time><name>PT3709</name></trkpt>
<trkpt lat="54.635862" lon="-3.069061"><ele>743</ele><time>2020-08-14T12:11:30Z</time><name>PT3710</name></trkpt>
<trkpt lat="54.635859" lon="-3.069056"><ele>743</ele><time>2020-08-14T12:11:31Z</time><name>PT3711</name></trkpt>
<trkpt lat="54.635859" lon="-3.069050"><ele>743</ele><time>2020-08-14T12:11:32Z</time><name>PT3712</name></trkpt>
<trkpt lat="54.635856" lon="-3.069044"><ele>743</ele><time>2020-08-14T12:11:33Z</time><name>PT3713</name></trkpt>
<trkpt lat="54.635854" lon="-3.069039"><ele>743</ele><time>2020-08-14T12:11:34Z</time><name>PT3714</name></trkpt>
<trkpt lat="54.635852" lon="-3.069028"><ele>743</ele><time>2020-08-14T12:11:35Z</time><name>PT3715</name></trkpt>
<trkpt lat="54.635851" lon="-3.069022"><ele>743</ele><time>2020-08-14T12:11:36Z</time><name>PT3716</name></trkpt>
<trkpt lat="54.635852" lon="-3.069011"><ele>743</ele><time>2020-08-14T12:11:37Z</time><name>PT3717</name></trkpt>
<trkpt lat="54.635852" lon="-3.069003"><ele>743</ele><time>2020-08-14T12:11:38Z</time><name>PT3718</name></trkpt>
<trkpt lat="54.635850" lon="-3.068998"><ele>743</ele><time>2020-08-14T12:11:39Z</time><name>PT3719</name></trkpt>
<trkpt lat="54.635846" lon="-3.068991"><ele>743</ele><time>2020-08-14T12:11:40Z</time><name>PT3720</name></trkpt>
<trkpt lat="54.635844" lon="-3.068984"><ele>744</ele><time>2020-08-14T12:11:41Z</time><name>PT3721</name></trkpt>
<trkpt lat="54.635839" lon="-3.068972"><ele>744</ele><time>2020-08-14T12:11:42Z</time><name>PT3722</name></trkpt>
<trkpt lat="54.635837" lon="-3.068964"><ele>744</ele><time>2020-08-14T12:11:43Z</time><name>PT3723</name></trkpt>
<trkpt lat="54.635834" lon="-3.068956"><ele>744</ele><time>2020-08-14T12:11:44Z</time><name>PT3724</name></trkpt>
<trkpt lat="54.635832" lon="-3.068949"><ele>744</ele><time>2020-08-14T12:11:45Z</time><name>PT3725</name></trkpt>
<trkpt lat="54.635832" lon="-3.068944"><ele>744</ele><time>2020-08-14T12:11:46Z</time><name>PT3726</name></trkpt>
<trkpt lat="54.635833" lon="-3.068951"><ele>744</ele><time>2020-08-14T12:11:48Z</time><name>PT3727</name></trkpt>
<trkpt lat="54.635830" lon="-3.068934"><ele>744</ele><time>2020-08-14T12:11:49Z</time><name>PT3728</name></trkpt>
<trkpt lat="54.635829" lon="-3.068925"><ele>744</ele><time>2020-08-14T12:11:50Z</time><name>PT3729</name></trkpt>
<trkpt lat="54.635826" lon="-3.068915"><ele>744</ele><time>2020-08-14T12:11:51Z</time><name>PT3730</name></trkpt>
<trkpt lat="54.635823" lon="-3.068909"><ele>744</ele><time>2020-08-14T12:11:52Z</time><name>PT3731</name></trkpt>
<trkpt lat="54.635820" lon="-3.068900"><ele>743</ele><time>2020-08-14T12:11:53Z</time><name>PT3732</name></trkpt>
<trkpt lat="54.635819" lon="-3.068893"><ele>744</ele><time>2020-08-14T12:11:54Z</time><name>PT3733</name></trkpt>
<trkpt lat="54.635817" lon="-3.068889"><ele>744</ele><time>2020-08-14T12:11:55Z</time><name>PT3734</name></trkpt>
<trkpt lat="54.635814" lon="-3.068883"><ele>744</ele><time>2020-08-14T12:11:57Z</time><name>PT3735</name></trkpt>
<trkpt lat="54.635814" lon="-3.068875"><ele>744</ele><time>2020-08-14T12:11:57Z</time><name>PT3736</name></trkpt>
<trkpt lat="54.635810" lon="-3.068866"><ele>744</ele><time>2020-08-14T12:11:58Z</time><name>PT3737</name></trkpt>
<trkpt lat="54.635807" lon="-3.068859"><ele>744</ele><time>2020-08-14T12:11:59Z</time><name>PT3738</name></trkpt>
<trkpt lat="54.635804" lon="-3.068853"><ele>744</ele><time>2020-08-14T12:12:00Z</time><name>PT3739</name></trkpt>
<trkpt lat="54.635801" lon="-3.068848"><ele>744</ele><time>2020-08-14T12:12:01Z</time><name>PT3740</name></trkpt>
<trkpt lat="54.635797" lon="-3.068842"><ele>744</ele><time>2020-08-14T12:12:02Z</time><name>PT3741</name></trkpt>
<trkpt lat="54.635794" lon="-3.068837"><ele>744</ele><time>2020-08-14T12:12:03Z</time><name>PT3742</name></trkpt>
<trkpt lat="54.635790" lon="-3.068833"><ele>744</ele><time>2020-08-14T12:12:04Z</time><name>PT3743</name></trkpt>
<trkpt lat="54.635786" lon="-3.068821"><ele>746</ele><time>2020-08-14T12:12:05Z</time><name>PT3744</name></trkpt>
<trkpt lat="54.635784" lon="-3.068813"><ele>746</ele><time>2020-08-14T12:12:06Z</time><name>PT3745</name></trkpt>
<trkpt lat="54.635784" lon="-3.068806"><ele>746</ele><time>2020-08-14T12:12:07Z</time><name>PT3746</name></trkpt>
<trkpt lat="54.635782" lon="-3.068799"><ele>746</ele><time>2020-08-14T12:12:08Z</time><name>PT3747</name></trkpt>
<trkpt lat="54.635781" lon="-3.068792"><ele>746</ele><time>2020-08-14T12:12:09Z</time><name>PT3748</name></trkpt>
<trkpt lat="54.635779" lon="-3.068784"><ele>746</ele><time>2020-08-14T12:12:10Z</time><name>PT3749</name></trkpt>
<trkpt lat="54.635779" lon="-3.068780"><ele>746</ele><time>2020-08-14T12:12:11Z</time><name>PT3750</name></trkpt>
<trkpt lat="54.635775" lon="-3.068770"><ele>747</ele><time>2020-08-14T12:12:12Z</time><name>PT3751</name></trkpt>
<trkpt lat="54.635774" lon="-3.068765"><ele>747</ele><time>2020-08-14T12:12:13Z</time><name>PT3752</name></trkpt>
<trkpt lat="54.635773" lon="-3.068753"><ele>748</ele><time>2020-08-14T12:12:14Z</time><name>PT3753</name></trkpt>
<trkpt lat="54.635771" lon="-3.068744"><ele>748</ele><time>2020-08-14T12:12:15Z</time><name>PT3754</name></trkpt>
<trkpt lat="54.635768" lon="-3.068735"><ele>748</ele><time>2020-08-14T12:12:16Z</time><name>PT3755</name></trkpt>
<trkpt lat="54.635766" lon="-3.068730"><ele>748</ele><time>2020-08-14T12:12:17Z</time><name>PT3756</name></trkpt>
<trkpt lat="54.635765" lon="-3.068727"><ele>748</ele><time>2020-08-14T12:12:18Z</time><name>PT3757</name></trkpt>
<trkpt lat="54.635759" lon="-3.068723"><ele>748</ele><time>2020-08-14T12:12:19Z</time><name>PT3758</name></trkpt>
<trkpt lat="54.635758" lon="-3.068720"><ele>748</ele><time>2020-08-14T12:12:20Z</time><name>PT3759</name></trkpt>
<trkpt lat="54.635758" lon="-3.068718"><ele>748</ele><time>2020-08-14T12:12:21Z</time><name>PT3760</name></trkpt>
<trkpt lat="54.635758" lon="-3.068709"><ele>748</ele><time>2020-08-14T12:12:22Z</time><name>PT3761</name></trkpt>
<trkpt lat="54.635757" lon="-3.068704"><ele>748</ele><time>2020-08-14T12:12:23Z</time><name>PT3762</name></trkpt>
<trkpt lat="54.635754" lon="-3.068697"><ele>748</ele><time>2020-08-14T12:12:24Z</time><name>PT3763</name></trkpt>
<trkpt lat="54.635752" lon="-3.068691"><ele>748</ele><time>2020-08-14T12:12:25Z</time><name>PT3764</name></trkpt>
<trkpt lat="54.635749" lon="-3.068683"><ele>748</ele><time>2020-08-14T12:12:26Z</time><name>PT3765</name></trkpt>
<trkpt lat="54.635747" lon="-3.068676"><ele>748</ele><time>2020-08-14T12:12:27Z</time><name>PT3766</name></trkpt>
<trkpt lat="54.635746" lon="-3.068667"><ele>748</ele><time>2020-08-14T12:12:28Z</time><name>PT3767</name></trkpt>
<trkpt lat="54.635743" lon="-3.068655"><ele>748</ele><time>2020-08-14T12:12:29Z</time><name>PT3768</name></trkpt>
<trkpt lat="54.635742" lon="-3.068649"><ele>748</ele><time>2020-08-14T12:12:30Z</time><name>PT3769</name></trkpt>
<trkpt lat="54.635740" lon="-3.068641"><ele>748</ele><time>2020-08-14T12:12:31Z</time><name>PT3770</name></trkpt>
<trkpt lat="54.635738" lon="-3.068635"><ele>748</ele><time>2020-08-14T12:12:32Z</time><name>PT3771</name></trkpt>
<trkpt lat="54.635736" lon="-3.068626"><ele>749</ele><time>2020-08-14T12:12:33Z</time><name>PT3772</name></trkpt>
<trkpt lat="54.635734" lon="-3.068618"><ele>749</ele><time>2020-08-14T12:12:34Z</time><name>PT3773</name></trkpt>
<trkpt lat="54.635730" lon="-3.068613"><ele>750</ele><time>2020-08-14T12:12:35Z</time><name>PT3774</name></trkpt>
<trkpt lat="54.635727" lon="-3.068607"><ele>750</ele><time>2020-08-14T12:12:36Z</time><name>PT3775</name></trkpt>
<trkpt lat="54.635723" lon="-3.068602"><ele>750</ele><time>2020-08-14T12:12:37Z</time><name>PT3776</name></trkpt>
<trkpt lat="54.635718" lon="-3.068597"><ele>750</ele><time>2020-08-14T12:12:38Z</time><name>PT3777</name></trkpt>
<trkpt lat="54.635714" lon="-3.068592"><ele>750</ele><time>2020-08-14T12:12:39Z</time><name>PT3778</name></trkpt>
<trkpt lat="54.635713" lon="-3.068582"><ele>751</ele><time>2020-08-14T12:12:40Z</time><name>PT3779</name></trkpt>
<trkpt lat="54.635710" lon="-3.068575"><ele>751</ele><time>2020-08-14T12:12:41Z</time><name>PT3780</name></trkpt>
<trkpt lat="54.635708" lon="-3.068566"><ele>752</ele><time>2020-08-14T12:12:42Z</time><name>PT3781</name></trkpt>
<trkpt lat="54.635705" lon="-3.068558"><ele>752</ele><time>2020-08-14T12:12:43Z</time><name>PT3782</name></trkpt>
<trkpt lat="54.635703" lon="-3.068557"><ele>752</ele><time>2020-08-14T12:12:44Z</time><name>PT3783</name></trkpt>
<trkpt lat="54.635700" lon="-3.068555"><ele>752</ele><time>2020-08-14T12:12:45Z</time><name>PT3784</name></trkpt>
<trkpt lat="54.635697" lon="-3.068548"><ele>752</ele><time>2020-08-14T12:12:46Z</time><name>PT3785</name></trkpt>
<trkpt lat="54.635695" lon="-3.068542"><ele>752</ele><time>2020-08-14T12:12:47Z</time><name>PT3786</name></trkpt>
<trkpt lat="54.635694" lon="-3.068536"><ele>752</ele><time>2020-08-14T12:12:48Z</time><name>PT3787</name></trkpt>
<trkpt lat="54.635692" lon="-3.068532"><ele>752</ele><time>2020-08-14T12:12:49Z</time><name>PT3788</name></trkpt>
<trkpt lat="54.635688" lon="-3.068529"><ele>752</ele><time>2020-08-14T12:12:54Z</time><name>PT3789</name></trkpt>
<trkpt lat="54.635684" lon="-3.068528"><ele>752</ele><time>2020-08-14T12:12:55Z</time><name>PT3790</name></trkpt>
<trkpt lat="54.635676" lon="-3.068530"><ele>752</ele><time>2020-08-14T12:12:56Z</time><name>PT3791</name></trkpt>
<trkpt lat="54.635673" lon="-3.068532"><ele>753</ele><time>2020-08-14T12:12:57Z</time><name>PT3792</name></trkpt>
<trkpt lat="54.635673" lon="-3.068539"><ele>753</ele><time>2020-08-14T12:12:58Z</time><name>PT3793</name></trkpt>
<trkpt lat="54.635670" lon="-3.068541"><ele>753</ele><time>2020-08-14T12:12:59Z</time><name>PT3794</name></trkpt>
<trkpt lat="54.635666" lon="-3.068541"><ele>753</ele><time>2020-08-14T12:13:00Z</time><name>PT3795</name></trkpt>
<trkpt lat="54.635659" lon="-3.068540"><ele>753</ele><time>2020-08-14T12:13:01Z</time><name>PT3796</name></trkpt>
<trkpt lat="54.635653" lon="-3.068540"><ele>753</ele><time>2020-08-14T12:13:02Z</time><name>PT3797</name></trkpt>
<trkpt lat="54.635645" lon="-3.068538"><ele>754</ele><time>2020-08-14T12:13:03Z</time><name>PT3798</name></trkpt>
<trkpt lat="54.635641" lon="-3.068538"><ele>755</ele><time>2020-08-14T12:13:04Z</time><name>PT3799</name></trkpt>
<trkpt lat="54.635635" lon="-3.068536"><ele>755</ele><time>2020-08-14T12:13:05Z</time><name>PT3800</name></trkpt>
<trkpt lat="54.635631" lon="-3.068535"><ele>755</ele><time>2020-08-14T12:13:06Z</time><name>PT3801</name></trkpt>
<trkpt lat="54.635628" lon="-3.068536"><ele>755</ele><time>2020-08-14T12:13:07Z</time><name>PT3802</name></trkpt>
<trkpt lat="54.635621" lon="-3.068535"><ele>755</ele><time>2020-08-14T12:13:09Z</time><name>PT3803</name></trkpt>
<trkpt lat="54.635618" lon="-3.068535"><ele>755</ele><time>2020-08-14T12:13:09Z</time><name>PT3804</name></trkpt>
<trkpt lat="54.635613" lon="-3.068536"><ele>756</ele><time>2020-08-14T12:13:10Z</time><name>PT3805</name></trkpt>
<trkpt lat="54.635607" lon="-3.068536"><ele>756</ele><time>2020-08-14T12:13:11Z</time><name>PT3806</name></trkpt>
<trkpt lat="54.635599" lon="-3.068542"><ele>757</ele><time>2020-08-14T12:13:12Z</time><name>PT3807</name></trkpt>
<trkpt lat="54.635591" lon="-3.068543"><ele>757</ele><time>2020-08-14T12:13:13Z</time><name>PT3808</name></trkpt>
<trkpt lat="54.635585" lon="-3.068546"><ele>757</ele><time>2020-08-14T12:13:14Z</time><name>PT3809</name></trkpt>
<trkpt lat="54.635580" lon="-3.068547"><ele>757</ele><time>2020-08-14T12:13:15Z</time><name>PT3810</name></trkpt>
<trkpt lat="54.635572" lon="-3.068547"><ele>758</ele><time>2020-08-14T12:13:16Z</time><name>PT3811</name></trkpt>
<trkpt lat="54.635567" lon="-3.068547"><ele>757</ele><time>2020-08-14T12:13:17Z</time><name>PT3812</name></trkpt>
<trkpt lat="54.635563" lon="-3.068550"><ele>757</ele><time>2020-08-14T12:13:18Z</time><name>PT3813</name></trkpt>
<trkpt lat="54.635559" lon="-3.068553"><ele>757</ele><time>2020-08-14T12:13:19Z</time><name>PT3814</name></trkpt>
<trkpt lat="54.635560" lon="-3.068549"><ele>757</ele><time>2020-08-14T12:13:23Z</time><name>PT3815</name></trkpt>
<trkpt lat="54.635554" lon="-3.068551"><ele>757</ele><time>2020-08-14T12:13:24Z</time><name>PT3816</name></trkpt>
<trkpt lat="54.635546" lon="-3.068558"><ele>758</ele><time>2020-08-14T12:13:25Z</time><name>PT3817</name></trkpt>
<trkpt lat="54.635539" lon="-3.068565"><ele>758</ele><time>2020-08-14T12:13:26Z</time><name>PT3818</name></trkpt>
<trkpt lat="54.635530" lon="-3.068573"><ele>758</ele><time>2020-08-14T12:13:27Z</time><name>PT3819</name></trkpt>
<trkpt lat="54.635524" lon="-3.068575"><ele>759</ele><time>2020-08-14T12:13:28Z</time><name>PT3820</name></trkpt>
<trkpt lat="54.635521" lon="-3.068580"><ele>759</ele><time>2020-08-14T12:13:29Z</time><name>PT3821</name></trkpt>
<trkpt lat="54.635519" lon="-3.068582"><ele>759</ele><time>2020-08-14T12:13:30Z</time><name>PT3822</name></trkpt>
<trkpt lat="54.635514" lon="-3.068588"><ele>759</ele><time>2020-08-14T12:13:31Z</time><name>PT3823</name></trkpt>
<trkpt lat="54.635509" lon="-3.068594"><ele>760</ele><time>2020-08-14T12:13:32Z</time><name>PT3824</name></trkpt>
<trkpt lat="54.635505" lon="-3.068594"><ele>760</ele><time>2020-08-14T12:13:33Z</time><name>PT3825</name></trkpt>
<trkpt lat="54.635497" lon="-3.068599"><ele>761</ele><time>2020-08-14T12:13:34Z</time><name>PT3826</name></trkpt>
<trkpt lat="54.635493" lon="-3.068604"><ele>761</ele><time>2020-08-14T12:13:35Z</time><name>PT3827</name></trkpt>
<trkpt lat="54.635489" lon="-3.068608"><ele>761</ele><time>2020-08-14T12:13:36Z</time><name>PT3828</name></trkpt>
<trkpt lat="54.635480" lon="-3.068609"><ele>760</ele><time>2020-08-14T12:13:37Z</time><name>PT3829</name></trkpt>
<trkpt lat="54.635475" lon="-3.068614"><ele>761</ele><time>2020-08-14T12:13:38Z</time><name>PT3830</name></trkpt>
<trkpt lat="54.635467" lon="-3.068619"><ele>760</ele><time>2020-08-14T12:13:41Z</time><name>PT3831</name></trkpt>
<trkpt lat="54.635441" lon="-3.068630"><ele>760</ele><time>2020-08-14T12:13:45Z</time><name>PT3832</name></trkpt>
<trkpt lat="54.635426" lon="-3.068644"><ele>760</ele><time>2020-08-14T12:13:48Z</time><name>PT3833</name></trkpt>
<trkpt lat="54.635407" lon="-3.068667"><ele>760</ele><time>2020-08-14T12:13:51Z</time><name>PT3834</name></trkpt>
<trkpt lat="54.635387" lon="-3.068678"><ele>761</ele><time>2020-08-14T12:13:54Z</time><name>PT3835</name></trkpt>
<trkpt lat="54.635368" lon="-3.068691"><ele>762</ele><time>2020-08-14T12:13:58Z</time><name>PT3836</name></trkpt>
<trkpt lat="54.635353" lon="-3.068700"><ele>764</ele><time>2020-08-14T12:14:02Z</time><name>PT3837</name></trkpt>
<trkpt lat="54.635341" lon="-3.068712"><ele>764</ele><time>2020-08-14T12:14:05Z</time><name>PT3838</name></trkpt>
<trkpt lat="54.635324" lon="-3.068729"><ele>764</ele><time>2020-08-14T12:14:08Z</time><name>PT3839</name></trkpt>
<trkpt lat="54.635301" lon="-3.068731"><ele>765</ele><time>2020-08-14T12:14:12Z</time><name>PT3840</name></trkpt>
<trkpt lat="54.635289" lon="-3.068712"><ele>766</ele><time>2020-08-14T12:14:15Z</time><name>PT3841</name></trkpt>
<trkpt lat="54.635276" lon="-3.068694"><ele>768</ele><time>2020-08-14T12:14:18Z</time><name>PT3842</name></trkpt>
<trkpt lat="54.635263" lon="-3.068665"><ele>769</ele><time>2020-08-14T12:14:22Z</time><name>PT3843</name></trkpt>
<trkpt lat="54.635257" lon="-3.068645"><ele>769</ele><time>2020-08-14T12:14:25Z</time><name>PT3844</name></trkpt>
<trkpt lat="54.635249" lon="-3.068617"><ele>770</ele><time>2020-08-14T12:14:28Z</time><name>PT3845</name></trkpt>
<trkpt lat="54.635247" lon="-3.068590"><ele>770</ele><time>2020-08-14T12:14:31Z</time><name>PT3846</name></trkpt>
<trkpt lat="54.635240" lon="-3.068544"><ele>771</ele><time>2020-08-14T12:14:35Z</time><name>PT3847</name></trkpt>
<trkpt lat="54.635232" lon="-3.068507"><ele>772</ele><time>2020-08-14T12:14:39Z</time><name>PT3848</name></trkpt>
<trkpt lat="54.635225" lon="-3.068461"><ele>772</ele><time>2020-08-14T12:14:43Z</time><name>PT3849</name></trkpt>
<trkpt lat="54.635223" lon="-3.068435"><ele>771</ele><time>2020-08-14T12:14:46Z</time><name>PT3850</name></trkpt>
<trkpt lat="54.635217" lon="-3.068397"><ele>772</ele><time>2020-08-14T12:14:50Z</time><name>PT3851</name></trkpt>
<trkpt lat="54.635202" lon="-3.068373"><ele>773</ele><time>2020-08-14T12:14:54Z</time><name>PT3852</name></trkpt>
<trkpt lat="54.635188" lon="-3.068350"><ele>773</ele><time>2020-08-14T12:14:57Z</time><name>PT3853</name></trkpt>
<trkpt lat="54.635182" lon="-3.068340"><ele>773</ele><time>2020-08-14T12:15:00Z</time><name>PT3854</name></trkpt>
<trkpt lat="54.635171" lon="-3.068308"><ele>774</ele><time>2020-08-14T12:15:03Z</time><name>PT3855</name></trkpt>
<trkpt lat="54.635158" lon="-3.068282"><ele>773</ele><time>2020-08-14T12:15:07Z</time><name>PT3856</name></trkpt>
<trkpt lat="54.635154" lon="-3.068262"><ele>774</ele><time>2020-08-14T12:15:10Z</time><name>PT3857</name></trkpt>
<trkpt lat="54.635146" lon="-3.068246"><ele>773</ele><time>2020-08-14T12:15:13Z</time><name>PT3858</name></trkpt>
<trkpt lat="54.635141" lon="-3.068220"><ele>775</ele><time>2020-08-14T12:15:16Z</time><name>PT3859</name></trkpt>
<trkpt lat="54.635137" lon="-3.068182"><ele>775</ele><time>2020-08-14T12:15:20Z</time><name>PT3860</name></trkpt>
<trkpt lat="54.635129" lon="-3.068151"><ele>776</ele><time>2020-08-14T12:15:23Z</time><name>PT3861</name></trkpt>
<trkpt lat="54.635115" lon="-3.068121"><ele>777</ele><time>2020-08-14T12:15:27Z</time><name>PT3862</name></trkpt>
<trkpt lat="54.635095" lon="-3.068096"><ele>777</ele><time>2020-08-14T12:15:31Z</time><name>PT3863</name></trkpt>
<trkpt lat="54.635088" lon="-3.068058"><ele>778</ele><time>2020-08-14T12:15:35Z</time><name>PT3864</name></trkpt>
<trkpt lat="54.635073" lon="-3.068043"><ele>778</ele><time>2020-08-14T12:15:38Z</time><name>PT3865</name></trkpt>
<trkpt lat="54.635045" lon="-3.068038"><ele>779</ele><time>2020-08-14T12:15:42Z</time><name>PT3866</name></trkpt>
<trkpt lat="54.635023" lon="-3.068049"><ele>779</ele><time>2020-08-14T12:15:46Z</time><name>PT3867</name></trkpt>
<trkpt lat="54.635007" lon="-3.068053"><ele>780</ele><time>2020-08-14T12:15:49Z</time><name>PT3868</name></trkpt>
<trkpt lat="54.634989" lon="-3.068063"><ele>781</ele><time>2020-08-14T12:15:52Z</time><name>PT3869</name></trkpt>
<trkpt lat="54.634971" lon="-3.068072"><ele>782</ele><time>2020-08-14T12:15:55Z</time><name>PT3870</name></trkpt>
<trkpt lat="54.634963" lon="-3.068035"><ele>782</ele><time>2020-08-14T12:15:59Z</time><name>PT3871</name></trkpt>
<trkpt lat="54.634957" lon="-3.068004"><ele>784</ele><time>2020-08-14T12:16:02Z</time><name>PT3872</name></trkpt>
<trkpt lat="54.634960" lon="-3.067969"><ele>784</ele><time>2020-08-14T12:16:06Z</time><name>PT3873</name></trkpt>
<trkpt lat="54.634958" lon="-3.067935"><ele>784</ele><time>2020-08-14T12:16:09Z</time><name>PT3874</name></trkpt>
<trkpt lat="54.634950" lon="-3.067900"><ele>785</ele><time>2020-08-14T12:16:12Z</time><name>PT3875</name></trkpt>
<trkpt lat="54.634942" lon="-3.067869"><ele>786</ele><time>2020-08-14T12:16:15Z</time><name>PT3876</name></trkpt>
<trkpt lat="54.634925" lon="-3.067855"><ele>787</ele><time>2020-08-14T12:16:19Z</time><name>PT3877</name></trkpt>
<trkpt lat="54.634909" lon="-3.067837"><ele>788</ele><time>2020-08-14T12:16:22Z</time><name>PT3878</name></trkpt>
<trkpt lat="54.634894" lon="-3.067824"><ele>789</ele><time>2020-08-14T12:16:25Z</time><name>PT3879</name></trkpt>
<trkpt lat="54.634870" lon="-3.067798"><ele>790</ele><time>2020-08-14T12:16:29Z</time><name>PT3880</name></trkpt>
<trkpt lat="54.634852" lon="-3.067770"><ele>790</ele><time>2020-08-14T12:16:33Z</time><name>PT3881</name></trkpt>
<trkpt lat="54.634827" lon="-3.067747"><ele>790</ele><time>2020-08-14T12:16:37Z</time><name>PT3882</name></trkpt>
<trkpt lat="54.634809" lon="-3.067726"><ele>790</ele><time>2020-08-14T12:16:41Z</time><name>PT3883</name></trkpt>
<trkpt lat="54.634794" lon="-3.067722"><ele>790</ele><time>2020-08-14T12:16:44Z</time><name>PT3884</name></trkpt>
<trkpt lat="54.634780" lon="-3.067715"><ele>790</ele><time>2020-08-14T12:16:47Z</time><name>PT3885</name></trkpt>
<trkpt lat="54.634761" lon="-3.067686"><ele>791</ele><time>2020-08-14T12:16:51Z</time><name>PT3886</name></trkpt>
<trkpt lat="54.634738" lon="-3.067667"><ele>793</ele><time>2020-08-14T12:16:55Z</time><name>PT3887</name></trkpt>
<trkpt lat="54.634723" lon="-3.067652"><ele>792</ele><time>2020-08-14T12:16:58Z</time><name>PT3888</name></trkpt>
<trkpt lat="54.634704" lon="-3.067647"><ele>793</ele><time>2020-08-14T12:17:01Z</time><name>PT3889</name></trkpt>
<trkpt lat="54.634698" lon="-3.067649"><ele>793</ele><time>2020-08-14T12:17:02Z</time><name>PT3890</name></trkpt>
<trkpt lat="54.634693" lon="-3.067650"><ele>793</ele><time>2020-08-14T12:17:03Z</time><name>PT3891</name></trkpt>
<trkpt lat="54.634689" lon="-3.067647"><ele>793</ele><time>2020-08-14T12:17:04Z</time><name>PT3892</name></trkpt>
<trkpt lat="54.634680" lon="-3.067644"><ele>793</ele><time>2020-08-14T12:17:05Z</time><name>PT3893</name></trkpt>
<trkpt lat="54.634674" lon="-3.067641"><ele>793</ele><time>2020-08-14T12:17:06Z</time><name>PT3894</name></trkpt>
<trkpt lat="54.634674" lon="-3.067642"><ele>793</ele><time>2020-08-14T12:17:07Z</time><name>PT3895</name></trkpt>
<trkpt lat="54.634674" lon="-3.067642"><ele>793</ele><time>2020-08-14T12:17:08Z</time><name>PT3896</name></trkpt>
<trkpt lat="54.634672" lon="-3.067642"><ele>793</ele><time>2020-08-14T12:17:11Z</time><name>PT3897</name></trkpt>
<trkpt lat="54.634666" lon="-3.067641"><ele>793</ele><time>2020-08-14T12:17:12Z</time><name>PT3898</name></trkpt>
<trkpt lat="54.634652" lon="-3.067646"><ele>793</ele><time>2020-08-14T12:17:13Z</time><name>PT3899</name></trkpt>
<trkpt lat="54.634643" lon="-3.067645"><ele>794</ele><time>2020-08-14T12:17:14Z</time><name>PT3900</name></trkpt>
<trkpt lat="54.634638" lon="-3.067647"><ele>794</ele><time>2020-08-14T12:17:15Z</time><name>PT3901</name></trkpt>
<trkpt lat="54.634631" lon="-3.067649"><ele>794</ele><time>2020-08-14T12:17:16Z</time><name>PT3902</name></trkpt>
<trkpt lat="54.634622" lon="-3.067651"><ele>794</ele><time>2020-08-14T12:17:17Z</time><name>PT3903</name></trkpt>
<trkpt lat="54.634615" lon="-3.067656"><ele>794</ele><time>2020-08-14T12:17:18Z</time><name>PT3904</name></trkpt>
<trkpt lat="54.634608" lon="-3.067658"><ele>794</ele><time>2020-08-14T12:17:19Z</time><name>PT3905</name></trkpt>
<trkpt lat="54.634600" lon="-3.067658"><ele>794</ele><time>2020-08-14T12:17:20Z</time><name>PT3906</name></trkpt>
<trkpt lat="54.634596" lon="-3.067658"><ele>794</ele><time>2020-08-14T12:17:21Z</time><name>PT3907</name></trkpt>
<trkpt lat="54.634591" lon="-3.067656"><ele>795</ele><time>2020-08-14T12:17:22Z</time><name>PT3908</name></trkpt>
<trkpt lat="54.634584" lon="-3.067658"><ele>795</ele><time>2020-08-14T12:17:23Z</time><name>PT3909</name></trkpt>
<trkpt lat="54.634577" lon="-3.067661"><ele>795</ele><time>2020-08-14T12:17:24Z</time><name>PT3910</name></trkpt>
<trkpt lat="54.634569" lon="-3.067662"><ele>795</ele><time>2020-08-14T12:17:25Z</time><name>PT3911</name></trkpt>
<trkpt lat="54.634565" lon="-3.067661"><ele>795</ele><time>2020-08-14T12:17:26Z</time><name>PT3912</name></trkpt>
<trkpt lat="54.634561" lon="-3.067653"><ele>795</ele><time>2020-08-14T12:17:27Z</time><name>PT3913</name></trkpt>
<trkpt lat="54.634557" lon="-3.067647"><ele>795</ele><time>2020-08-14T12:17:28Z</time><name>PT3914</name></trkpt>
<trkpt lat="54.634554" lon="-3.067643"><ele>795</ele><time>2020-08-14T12:17:29Z</time><name>PT3915</name></trkpt>
<trkpt lat="54.634549" lon="-3.067636"><ele>795</ele><time>2020-08-14T12:17:30Z</time><name>PT3916</name></trkpt>
<trkpt lat="54.634547" lon="-3.067630"><ele>795</ele><time>2020-08-14T12:17:31Z</time><name>PT3917</name></trkpt>
<trkpt lat="54.634543" lon="-3.067624"><ele>795</ele><time>2020-08-14T12:17:32Z</time><name>PT3918</name></trkpt>
<trkpt lat="54.634535" lon="-3.067622"><ele>795</ele><time>2020-08-14T12:17:33Z</time><name>PT3919</name></trkpt>
<trkpt lat="54.634530" lon="-3.067622"><ele>796</ele><time>2020-08-14T12:17:34Z</time><name>PT3920</name></trkpt>
<trkpt lat="54.634527" lon="-3.067620"><ele>796</ele><time>2020-08-14T12:17:35Z</time><name>PT3921</name></trkpt>
<trkpt lat="54.634523" lon="-3.067616"><ele>796</ele><time>2020-08-14T12:17:36Z</time><name>PT3922</name></trkpt>
<trkpt lat="54.634519" lon="-3.067612"><ele>796</ele><time>2020-08-14T12:17:37Z</time><name>PT3923</name></trkpt>
<trkpt lat="54.634517" lon="-3.067599"><ele>797</ele><time>2020-08-14T12:17:38Z</time><name>PT3924</name></trkpt>
<trkpt lat="54.634515" lon="-3.067593"><ele>797</ele><time>2020-08-14T12:17:39Z</time><name>PT3925</name></trkpt>
<trkpt lat="54.634513" lon="-3.067582"><ele>797</ele><time>2020-08-14T12:17:40Z</time><name>PT3926</name></trkpt>
<trkpt lat="54.634511" lon="-3.067569"><ele>797</ele><time>2020-08-14T12:17:41Z</time><name>PT3927</name></trkpt>
<trkpt lat="54.634507" lon="-3.067565"><ele>797</ele><time>2020-08-14T12:17:42Z</time><name>PT3928</name></trkpt>
<trkpt lat="54.634500" lon="-3.067560"><ele>798</ele><time>2020-08-14T12:17:43Z</time><name>PT3929</name></trkpt>
<trkpt lat="54.634494" lon="-3.067552"><ele>798</ele><time>2020-08-14T12:17:44Z</time><name>PT3930</name></trkpt>
<trkpt lat="54.634491" lon="-3.067546"><ele>798</ele><time>2020-08-14T12:17:45Z</time><name>PT3931</name></trkpt>
<trkpt lat="54.634484" lon="-3.067535"><ele>798</ele><time>2020-08-14T12:17:46Z</time><name>PT3932</name></trkpt>
<trkpt lat="54.634480" lon="-3.067527"><ele>798</ele><time>2020-08-14T12:17:47Z</time><name>PT3933</name></trkpt>
<trkpt lat="54.634476" lon="-3.067517"><ele>798</ele><time>2020-08-14T12:17:48Z</time><name>PT3934</name></trkpt>
<trkpt lat="54.634470" lon="-3.067510"><ele>799</ele><time>2020-08-14T12:17:49Z</time><name>PT3935</name></trkpt>
<trkpt lat="54.634464" lon="-3.067508"><ele>799</ele><time>2020-08-14T12:17:50Z</time><name>PT3936</name></trkpt>
<trkpt lat="54.634455" lon="-3.067502"><ele>799</ele><time>2020-08-14T12:17:51Z</time><name>PT3937</name></trkpt>
<trkpt lat="54.634452" lon="-3.067497"><ele>800</ele><time>2020-08-14T12:17:52Z</time><name>PT3938</name></trkpt>
<trkpt lat="54.634448" lon="-3.067488"><ele>800</ele><time>2020-08-14T12:17:53Z</time><name>PT3939</name></trkpt>
<trkpt lat="54.634441" lon="-3.067481"><ele>800</ele><time>2020-08-14T12:17:54Z</time><name>PT3940</name></trkpt>
<trkpt lat="54.634437" lon="-3.067477"><ele>801</ele><time>2020-08-14T12:17:55Z</time><name>PT3941</name></trkpt>
<trkpt lat="54.634434" lon="-3.067468"><ele>801</ele><time>2020-08-14T12:17:56Z</time><name>PT3942</name></trkpt>
<trkpt lat="54.634431" lon="-3.067460"><ele>801</ele><time>2020-08-14T12:17:57Z</time><name>PT3943</name></trkpt>
<trkpt lat="54.634429" lon="-3.067458"><ele>802</ele><time>2020-08-14T12:17:58Z</time><name>PT3944</name></trkpt>
<trkpt lat="54.634421" lon="-3.067456"><ele>802</ele><time>2020-08-14T12:17:59Z</time><name>PT3945</name></trkpt>
<trkpt lat="54.634416" lon="-3.067454"><ele>803</ele><time>2020-08-14T12:18:00Z</time><name>PT3946</name></trkpt>
<trkpt lat="54.634412" lon="-3.067454"><ele>803</ele><time>2020-08-14T12:18:01Z</time><name>PT3947</name></trkpt>
<trkpt lat="54.634405" lon="-3.067458"><ele>803</ele><time>2020-08-14T12:18:02Z</time><name>PT3948</name></trkpt>
<trkpt lat="54.634399" lon="-3.067461"><ele>803</ele><time>2020-08-14T12:18:03Z</time><name>PT3949</name></trkpt>
<trkpt lat="54.634395" lon="-3.067463"><ele>804</ele><time>2020-08-14T12:18:04Z</time><name>PT3950</name></trkpt>
<trkpt lat="54.634385" lon="-3.067464"><ele>804</ele><time>2020-08-14T12:18:05Z</time><name>PT3951</name></trkpt>
<trkpt lat="54.634380" lon="-3.067464"><ele>804</ele><time>2020-08-14T12:18:06Z</time><name>PT3952</name></trkpt>
<trkpt lat="54.634372" lon="-3.067462"><ele>804</ele><time>2020-08-14T12:18:07Z</time><name>PT3953</name></trkpt>
<trkpt lat="54.634362" lon="-3.067459"><ele>805</ele><time>2020-08-14T12:18:08Z</time><name>PT3954</name></trkpt>
<trkpt lat="54.634355" lon="-3.067456"><ele>805</ele><time>2020-08-14T12:18:09Z</time><name>PT3955</name></trkpt>
<trkpt lat="54.634352" lon="-3.067444"><ele>805</ele><time>2020-08-14T12:18:10Z</time><name>PT3956</name></trkpt>
<trkpt lat="54.634347" lon="-3.067439"><ele>805</ele><time>2020-08-14T12:18:11Z</time><name>PT3957</name></trkpt>
<trkpt lat="54.634344" lon="-3.067432"><ele>805</ele><time>2020-08-14T12:18:12Z</time><name>PT3958</name></trkpt>
<trkpt lat="54.634337" lon="-3.067429"><ele>806</ele><time>2020-08-14T12:18:13Z</time><name>PT3959</name></trkpt>
<trkpt lat="54.634331" lon="-3.067426"><ele>806</ele><time>2020-08-14T12:18:14Z</time><name>PT3960</name></trkpt>
<trkpt lat="54.634327" lon="-3.067424"><ele>806</ele><time>2020-08-14T12:18:15Z</time><name>PT3961</name></trkpt>
<trkpt lat="54.634318" lon="-3.067422"><ele>807</ele><time>2020-08-14T12:18:16Z</time><name>PT3962</name></trkpt>
<trkpt lat="54.634310" lon="-3.067422"><ele>807</ele><time>2020-08-14T12:18:17Z</time><name>PT3963</name></trkpt>
<trkpt lat="54.634305" lon="-3.067420"><ele>806</ele><time>2020-08-14T12:18:18Z</time><name>PT3964</name></trkpt>
<trkpt lat="54.634294" lon="-3.067419"><ele>806</ele><time>2020-08-14T12:18:19Z</time><name>PT3965</name></trkpt>
<trkpt lat="54.634285" lon="-3.067416"><ele>806</ele><time>2020-08-14T12:18:20Z</time><name>PT3966</name></trkpt>
<trkpt lat="54.634280" lon="-3.067415"><ele>806</ele><time>2020-08-14T12:18:21Z</time><name>PT3967</name></trkpt>
<trkpt lat="54.634272" lon="-3.067414"><ele>807</ele><time>2020-08-14T12:18:22Z</time><name>PT3968</name></trkpt>
<trkpt lat="54.634264" lon="-3.067410"><ele>807</ele><time>2020-08-14T12:18:23Z</time><name>PT3969</name></trkpt>
<trkpt lat="54.634260" lon="-3.067410"><ele>807</ele><time>2020-08-14T12:18:24Z</time><name>PT3970</name></trkpt>
<trkpt lat="54.634254" lon="-3.067410"><ele>808</ele><time>2020-08-14T12:18:25Z</time><name>PT3971</name></trkpt>
<trkpt lat="54.634248" lon="-3.067404"><ele>809</ele><time>2020-08-14T12:18:26Z</time><name>PT3972</name></trkpt>
<trkpt lat="54.634242" lon="-3.067398"><ele>809</ele><time>2020-08-14T12:18:27Z</time><name>PT3973</name></trkpt>
<trkpt lat="54.634232" lon="-3.067390"><ele>809</ele><time>2020-08-14T12:18:28Z</time><name>PT3974</name></trkpt>
<trkpt lat="54.634223" lon="-3.067379"><ele>809</ele><time>2020-08-14T12:18:29Z</time><name>PT3975</name></trkpt>
<trkpt lat="54.634217" lon="-3.067373"><ele>809</ele><time>2020-08-14T12:18:30Z</time><name>PT3976</name></trkpt>
<trkpt lat="54.634209" lon="-3.067363"><ele>808</ele><time>2020-08-14T12:18:31Z</time><name>PT3977</name></trkpt>
<trkpt lat="54.634199" lon="-3.067353"><ele>808</ele><time>2020-08-14T12:18:32Z</time><name>PT3978</name></trkpt>
<trkpt lat="54.634190" lon="-3.067348"><ele>808</ele><time>2020-08-14T12:18:33Z</time><name>PT3979</name></trkpt>
<trkpt lat="54.634184" lon="-3.067343"><ele>808</ele><time>2020-08-14T12:18:34Z</time><name>PT3980</name></trkpt>
<trkpt lat="54.634174" lon="-3.067342"><ele>808</ele><time>2020-08-14T12:18:35Z</time><name>PT3981</name></trkpt>
<trkpt lat="54.634167" lon="-3.067340"><ele>809</ele><time>2020-08-14T12:18:36Z</time><name>PT3982</name></trkpt>
<trkpt lat="54.634157" lon="-3.067335"><ele>809</ele><time>2020-08-14T12:18:37Z</time><name>PT3983</name></trkpt>
<trkpt lat="54.634148" lon="-3.067328"><ele>809</ele><time>2020-08-14T12:18:38Z</time><name>PT3984</name></trkpt>
<trkpt lat="54.634139" lon="-3.067323"><ele>808</ele><time>2020-08-14T12:18:39Z</time><name>PT3985</name></trkpt>
<trkpt lat="54.634132" lon="-3.067315"><ele>807</ele><time>2020-08-14T12:18:40Z</time><name>PT3986</name></trkpt>
<trkpt lat="54.634126" lon="-3.067309"><ele>807</ele><time>2020-08-14T12:18:41Z</time><name>PT3987</name></trkpt>
<trkpt lat="54.634117" lon="-3.067307"><ele>807</ele><time>2020-08-14T12:18:42Z</time><name>PT3988</name></trkpt>
<trkpt lat="54.634108" lon="-3.067308"><ele>807</ele><time>2020-08-14T12:18:43Z</time><name>PT3989</name></trkpt>
<trkpt lat="54.634098" lon="-3.067309"><ele>807</ele><time>2020-08-14T12:18:44Z</time><name>PT3990</name></trkpt>
<trkpt lat="54.634089" lon="-3.067309"><ele>807</ele><time>2020-08-14T12:18:45Z</time><name>PT3991</name></trkpt>
<trkpt lat="54.634080" lon="-3.067309"><ele>808</ele><time>2020-08-14T12:18:46Z</time><name>PT3992</name></trkpt>
<trkpt lat="54.634072" lon="-3.067307"><ele>808</ele><time>2020-08-14T12:18:47Z</time><name>PT3993</name></trkpt>
<trkpt lat="54.634064" lon="-3.067301"><ele>808</ele><time>2020-08-14T12:18:48Z</time><name>PT3994</name></trkpt>
<trkpt lat="54.634056" lon="-3.067297"><ele>808</ele><time>2020-08-14T12:18:49Z</time><name>PT3995</name></trkpt>
<trkpt lat="54.634046" lon="-3.067294"><ele>808</ele><time>2020-08-14T12:18:50Z</time><name>PT3996</name></trkpt>
<trkpt lat="54.634037" lon="-3.067294"><ele>808</ele><time>2020-08-14T12:18:51Z</time><name>PT3997</name></trkpt>
<trkpt lat="54.634029" lon="-3.067292"><ele>808</ele><time>2020-08-14T12:18:52Z</time><name>PT3998</name></trkpt>
<trkpt lat="54.634020" lon="-3.067287"><ele>808</ele><time>2020-08-14T12:18:53Z</time><name>PT3999</name></trkpt>
<trkpt lat="54.634016" lon="-3.067280"><ele>808</ele><time>2020-08-14T12:18:54Z</time><name>PT4000</name></trkpt>
<trkpt lat="54.634015" lon="-3.067268"><ele>809</ele><time>2020-08-14T12:18:55Z</time><name>PT4001</name></trkpt>
<trkpt lat="54.634018" lon="-3.067254"><ele>809</ele><time>2020-08-14T12:18:56Z</time><name>PT4002</name></trkpt>
<trkpt lat="54.634020" lon="-3.067250"><ele>809</ele><time>2020-08-14T12:18:57Z</time><name>PT4003</name></trkpt>
<trkpt lat="54.634028" lon="-3.067240"><ele>809</ele><time>2020-08-14T12:18:58Z</time><name>PT4004</name></trkpt>
<trkpt lat="54.634039" lon="-3.067232"><ele>809</ele><time>2020-08-14T12:18:59Z</time><name>PT4005</name></trkpt>
<trkpt lat="54.634047" lon="-3.067231"><ele>809</ele><time>2020-08-14T12:19:00Z</time><name>PT4006</name></trkpt>
<trkpt lat="54.634054" lon="-3.067228"><ele>809</ele><time>2020-08-14T12:19:01Z</time><name>PT4007</name></trkpt>
<trkpt lat="54.634061" lon="-3.067222"><ele>809</ele><time>2020-08-14T12:19:02Z</time><name>PT4008</name></trkpt>
<trkpt lat="54.634069" lon="-3.067218"><ele>809</ele><time>2020-08-14T12:19:03Z</time><name>PT4009</name></trkpt>
<trkpt lat="54.634077" lon="-3.067211"><ele>809</ele><time>2020-08-14T12:19:04Z</time><name>PT4010</name></trkpt>
<trkpt lat="54.634082" lon="-3.067207"><ele>809</ele><time>2020-08-14T12:19:05Z</time><name>PT4011</name></trkpt>
<trkpt lat="54.634089" lon="-3.067202"><ele>808</ele><time>2020-08-14T12:19:06Z</time><name>PT4012</name></trkpt>
<trkpt lat="54.634097" lon="-3.067196"><ele>808</ele><time>2020-08-14T12:19:07Z</time><name>PT4013</name></trkpt>
<trkpt lat="54.634109" lon="-3.067194"><ele>809</ele><time>2020-08-14T12:19:08Z</time><name>PT4014</name></trkpt>
<trkpt lat="54.634121" lon="-3.067192"><ele>808</ele><time>2020-08-14T12:19:09Z</time><name>PT4015</name></trkpt>
<trkpt lat="54.634127" lon="-3.067189"><ele>808</ele><time>2020-08-14T12:19:10Z</time><name>PT4016</name></trkpt>
<trkpt lat="54.634135" lon="-3.067183"><ele>808</ele><time>2020-08-14T12:19:11Z</time><name>PT4017</name></trkpt>
<trkpt lat="54.634146" lon="-3.067171"><ele>808</ele><time>2020-08-14T12:19:12Z</time><name>PT4018</name></trkpt>
<trkpt lat="54.634155" lon="-3.067162"><ele>808</ele><time>2020-08-14T12:19:13Z</time><name>PT4019</name></trkpt>
<trkpt lat="54.634168" lon="-3.067150"><ele>808</ele><time>2020-08-14T12:19:14Z</time><name>PT4020</name></trkpt>
<trkpt lat="54.634182" lon="-3.067137"><ele>808</ele><time>2020-08-14T12:19:15Z</time><name>PT4021</name></trkpt>
<trkpt lat="54.634189" lon="-3.067129"><ele>808</ele><time>2020-08-14T12:19:16Z</time><name>PT4022</name></trkpt>
<trkpt lat="54.634198" lon="-3.067124"><ele>808</ele><time>2020-08-14T12:19:17Z</time><name>PT4023</name></trkpt>
<trkpt lat="54.634210" lon="-3.067115"><ele>807</ele><time>2020-08-14T12:19:18Z</time><name>PT4024</name></trkpt>
<trkpt lat="54.634220" lon="-3.067110"><ele>807</ele><time>2020-08-14T12:19:19Z</time><name>PT4025</name></trkpt>
<trkpt lat="54.634234" lon="-3.067104"><ele>808</ele><time>2020-08-14T12:19:20Z</time><name>PT4026</name></trkpt>
<trkpt lat="54.634246" lon="-3.067093"><ele>808</ele><time>2020-08-14T12:19:21Z</time><name>PT4027</name></trkpt>
<trkpt lat="54.634253" lon="-3.067086"><ele>807</ele><time>2020-08-14T12:19:22Z</time><name>PT4028</name></trkpt>
<trkpt lat="54.634259" lon="-3.067078"><ele>806</ele><time>2020-08-14T12:19:23Z</time><name>PT4029</name></trkpt>
<trkpt lat="54.634268" lon="-3.067066"><ele>806</ele><time>2020-08-14T12:19:24Z</time><name>PT4030</name></trkpt>
<trkpt lat="54.634278" lon="-3.067057"><ele>806</ele><time>2020-08-14T12:19:25Z</time><name>PT4031</name></trkpt>
<trkpt lat="54.634289" lon="-3.067051"><ele>806</ele><time>2020-08-14T12:19:26Z</time><name>PT4032</name></trkpt>
<trkpt lat="54.634300" lon="-3.067047"><ele>806</ele><time>2020-08-14T12:19:27Z</time><name>PT4033</name></trkpt>
<trkpt lat="54.634311" lon="-3.067042"><ele>806</ele><time>2020-08-14T12:19:28Z</time><name>PT4034</name></trkpt>
<trkpt lat="54.634321" lon="-3.067035"><ele>806</ele><time>2020-08-14T12:19:29Z</time><name>PT4035</name></trkpt>
<trkpt lat="54.634330" lon="-3.067029"><ele>806</ele><time>2020-08-14T12:19:30Z</time><name>PT4036</name></trkpt>
<trkpt lat="54.634336" lon="-3.067024"><ele>806</ele><time>2020-08-14T12:19:31Z</time><name>PT4037</name></trkpt>
<trkpt lat="54.634343" lon="-3.067014"><ele>806</ele><time>2020-08-14T12:19:32Z</time><name>PT4038</name></trkpt>
<trkpt lat="54.634351" lon="-3.067005"><ele>806</ele><time>2020-08-14T12:19:33Z</time><name>PT4039</name></trkpt>
<trkpt lat="54.634359" lon="-3.066995"><ele>806</ele><time>2020-08-14T12:19:34Z</time><name>PT4040</name></trkpt>
<trkpt lat="54.634368" lon="-3.066985"><ele>805</ele><time>2020-08-14T12:19:35Z</time><name>PT4041</name></trkpt>
<trkpt lat="54.634377" lon="-3.066975"><ele>805</ele><time>2020-08-14T12:19:36Z</time><name>PT4042</name></trkpt>
<trkpt lat="54.634387" lon="-3.066964"><ele>805</ele><time>2020-08-14T12:19:37Z</time><name>PT4043</name></trkpt>
<trkpt lat="54.634398" lon="-3.066955"><ele>805</ele><time>2020-08-14T12:19:38Z</time><name>PT4044</name></trkpt>
<trkpt lat="54.634407" lon="-3.066951"><ele>805</ele><time>2020-08-14T12:19:39Z</time><name>PT4045</name></trkpt>
<trkpt lat="54.634415" lon="-3.066941"><ele>805</ele><time>2020-08-14T12:19:40Z</time><name>PT4046</name></trkpt>
<trkpt lat="54.634420" lon="-3.066926"><ele>804</ele><time>2020-08-14T12:19:41Z</time><name>PT4047</name></trkpt>
<trkpt lat="54.634425" lon="-3.066919"><ele>804</ele><time>2020-08-14T12:19:42Z</time><name>PT4048</name></trkpt>
<trkpt lat="54.634432" lon="-3.066912"><ele>804</ele><time>2020-08-14T12:19:43Z</time><name>PT4049</name></trkpt>
<trkpt lat="54.634438" lon="-3.066904"><ele>803</ele><time>2020-08-14T12:19:45Z</time><name>PT4050</name></trkpt>
<trkpt lat="54.634446" lon="-3.066895"><ele>802</ele><time>2020-08-14T12:19:45Z</time><name>PT4051</name></trkpt>
<trkpt lat="54.634457" lon="-3.066883"><ele>802</ele><time>2020-08-14T12:19:46Z</time><name>PT4052</name></trkpt>
<trkpt lat="54.634467" lon="-3.066866"><ele>801</ele><time>2020-08-14T12:19:47Z</time><name>PT4053</name></trkpt>
<trkpt lat="54.634480" lon="-3.066850"><ele>801</ele><time>2020-08-14T12:19:48Z</time><name>PT4054</name></trkpt>
<trkpt lat="54.634491" lon="-3.066839"><ele>801</ele><time>2020-08-14T12:19:49Z</time><name>PT4055</name></trkpt>
<trkpt lat="54.634500" lon="-3.066824"><ele>801</ele><time>2020-08-14T12:19:50Z</time><name>PT4056</name></trkpt>
<trkpt lat="54.634507" lon="-3.066816"><ele>800</ele><time>2020-08-14T12:19:51Z</time><name>PT4057</name></trkpt>
<trkpt lat="54.634514" lon="-3.066806"><ele>800</ele><time>2020-08-14T12:19:52Z</time><name>PT4058</name></trkpt>
<trkpt lat="54.634523" lon="-3.066793"><ele>800</ele><time>2020-08-14T12:19:53Z</time><name>PT4059</name></trkpt>
<trkpt lat="54.634531" lon="-3.066780"><ele>799</ele><time>2020-08-14T12:19:54Z</time><name>PT4060</name></trkpt>
<trkpt lat="54.634542" lon="-3.066765"><ele>799</ele><time>2020-08-14T12:19:55Z</time><name>PT4061</name></trkpt>
<trkpt lat="54.634556" lon="-3.066748"><ele>799</ele><time>2020-08-14T12:19:56Z</time><name>PT4062</name></trkpt>
<trkpt lat="54.634571" lon="-3.066731"><ele>800</ele><time>2020-08-14T12:19:57Z</time><name>PT4063</name></trkpt>
<trkpt lat="54.634583" lon="-3.066716"><ele>800</ele><time>2020-08-14T12:19:58Z</time><name>PT4064</name></trkpt>
<trkpt lat="54.634591" lon="-3.066706"><ele>799</ele><time>2020-08-14T12:19:59Z</time><name>PT4065</name></trkpt>
<trkpt lat="54.634596" lon="-3.066697"><ele>800</ele><time>2020-08-14T12:20:00Z</time><name>PT4066</name></trkpt>
<trkpt lat="54.634631" lon="-3.066631"><ele>799</ele><time>2020-08-14T12:20:04Z</time><name>PT4067</name></trkpt>
<trkpt lat="54.634666" lon="-3.066581"><ele>799</ele><time>2020-08-14T12:20:07Z</time><name>PT4068</name></trkpt>
<trkpt lat="54.634686" lon="-3.066536"><ele>798</ele><time>2020-08-14T12:20:11Z</time><name>PT4069</name></trkpt>
<trkpt lat="54.634689" lon="-3.066526"><ele>798</ele><time>2020-08-14T12:20:14Z</time><name>PT4070</name></trkpt>
<trkpt lat="54.634689" lon="-3.066527"><ele>798</ele><time>2020-08-14T12:20:18Z</time><name>PT4071</name></trkpt>
<trkpt lat="54.634716" lon="-3.066497"><ele>799</ele><time>2020-08-14T12:20:21Z</time><name>PT4072</name></trkpt>
<trkpt lat="54.634759" lon="-3.066457"><ele>799</ele><time>2020-08-14T12:20:24Z</time><name>PT4073</name></trkpt>
<trkpt lat="54.634785" lon="-3.066400"><ele>797</ele><time>2020-08-14T12:20:28Z</time><name>PT4074</name></trkpt>
<trkpt lat="54.634811" lon="-3.066337"><ele>797</ele><time>2020-08-14T12:20:31Z</time><name>PT4075</name></trkpt>
<trkpt lat="54.634854" lon="-3.066268"><ele>798</ele><time>2020-08-14T12:20:35Z</time><name>PT4076</name></trkpt>
<trkpt lat="54.634867" lon="-3.066204"><ele>797</ele><time>2020-08-14T12:20:38Z</time><name>PT4077</name></trkpt>
<trkpt lat="54.634906" lon="-3.066122"><ele>798</ele><time>2020-08-14T12:20:42Z</time><name>PT4078</name></trkpt>
<trkpt lat="54.634921" lon="-3.066059"><ele>797</ele><time>2020-08-14T12:20:45Z</time><name>PT4079</name></trkpt>
<trkpt lat="54.634943" lon="-3.065983"><ele>798</ele><time>2020-08-14T12:20:48Z</time><name>PT4080</name></trkpt>
<trkpt lat="54.634959" lon="-3.065944"><ele>797</ele><time>2020-08-14T12:20:51Z</time><name>PT4081</name></trkpt>
<trkpt lat="54.634991" lon="-3.065856"><ele>797</ele><time>2020-08-14T12:20:55Z</time><name>PT4082</name></trkpt>
<trkpt lat="54.635000" lon="-3.065811"><ele>796</ele><time>2020-08-14T12:20:58Z</time><name>PT4083</name></trkpt>
<trkpt lat="54.635026" lon="-3.065727"><ele>797</ele><time>2020-08-14T12:21:02Z</time><name>PT4084</name></trkpt>
<trkpt lat="54.635048" lon="-3.065664"><ele>797</ele><time>2020-08-14T12:21:06Z</time><name>PT4085</name></trkpt>
<trkpt lat="54.635057" lon="-3.065614"><ele>797</ele><time>2020-08-14T12:21:09Z</time><name>PT4086</name></trkpt>
<trkpt lat="54.635064" lon="-3.065555"><ele>797</ele><time>2020-08-14T12:21:12Z</time><name>PT4087</name></trkpt>
<trkpt lat="54.635069" lon="-3.065499"><ele>796</ele><time>2020-08-14T12:21:15Z</time><name>PT4088</name></trkpt>
<trkpt lat="54.635074" lon="-3.065480"><ele>797</ele><time>2020-08-14T12:21:19Z</time><name>PT4089</name></trkpt>
<trkpt lat="54.635075" lon="-3.065481"><ele>797</ele><time>2020-08-14T12:21:22Z</time><name>PT4090</name></trkpt>
<trkpt lat="54.635068" lon="-3.065464"><ele>798</ele><time>2020-08-14T12:21:57Z</time><name>PT4091</name></trkpt>
<trkpt lat="54.635068" lon="-3.065421"><ele>797</ele><time>2020-08-14T12:22:00Z</time><name>PT4092</name></trkpt>
<trkpt lat="54.635078" lon="-3.065385"><ele>797</ele><time>2020-08-14T12:22:03Z</time><name>PT4093</name></trkpt>
<trkpt lat="54.635092" lon="-3.065322"><ele>798</ele><time>2020-08-14T12:22:06Z</time><name>PT4094</name></trkpt>
<trkpt lat="54.635101" lon="-3.065283"><ele>798</ele><time>2020-08-14T12:22:09Z</time><name>PT4095</name></trkpt>
<trkpt lat="54.635121" lon="-3.065243"><ele>798</ele><time>2020-08-14T12:22:13Z</time><name>PT4096</name></trkpt>
<trkpt lat="54.635143" lon="-3.065192"><ele>797</ele><time>2020-08-14T12:22:17Z</time><name>PT4097</name></trkpt>
<trkpt lat="54.635177" lon="-3.065124"><ele>796</ele><time>2020-08-14T12:22:21Z</time><name>PT4098</name></trkpt>
<trkpt lat="54.635196" lon="-3.065058"><ele>796</ele><time>2020-08-14T12:22:25Z</time><name>PT4099</name></trkpt>
<trkpt lat="54.635212" lon="-3.064984"><ele>797</ele><time>2020-08-14T12:22:28Z</time><name>PT4100</name></trkpt>
<trkpt lat="54.635220" lon="-3.064928"><ele>797</ele><time>2020-08-14T12:22:31Z</time><name>PT4101</name></trkpt>
<trkpt lat="54.635230" lon="-3.064848"><ele>798</ele><time>2020-08-14T12:22:35Z</time><name>PT4102</name></trkpt>
<trkpt lat="54.635248" lon="-3.064770"><ele>798</ele><time>2020-08-14T12:22:39Z</time><name>PT4103</name></trkpt>
<trkpt lat="54.635256" lon="-3.064724"><ele>798</ele><time>2020-08-14T12:22:42Z</time><name>PT4104</name></trkpt>
<trkpt lat="54.635264" lon="-3.064662"><ele>799</ele><time>2020-08-14T12:22:45Z</time><name>PT4105</name></trkpt>
<trkpt lat="54.635269" lon="-3.064603"><ele>798</ele><time>2020-08-14T12:22:48Z</time><name>PT4106</name></trkpt>
<trkpt lat="54.635272" lon="-3.064517"><ele>798</ele><time>2020-08-14T12:22:52Z</time><name>PT4107</name></trkpt>
<trkpt lat="54.635279" lon="-3.064451"><ele>798</ele><time>2020-08-14T12:22:55Z</time><name>PT4108</name></trkpt>
<trkpt lat="54.635277" lon="-3.064365"><ele>797</ele><time>2020-08-14T12:22:59Z</time><name>PT4109</name></trkpt>
<trkpt lat="54.635273" lon="-3.064254"><ele>798</ele><time>2020-08-14T12:23:03Z</time><name>PT4110</name></trkpt>
<trkpt lat="54.635277" lon="-3.064194"><ele>798</ele><time>2020-08-14T12:23:06Z</time><name>PT4111</name></trkpt>
<trkpt lat="54.635279" lon="-3.064104"><ele>798</ele><time>2020-08-14T12:23:10Z</time><name>PT4112</name></trkpt>
<trkpt lat="54.635277" lon="-3.064073"><ele>798</ele><time>2020-08-14T12:23:13Z</time><name>PT4113</name></trkpt>
<trkpt lat="54.635288" lon="-3.064016"><ele>798</ele><time>2020-08-14T12:23:17Z</time><name>PT4114</name></trkpt>
<trkpt lat="54.635302" lon="-3.063961"><ele>799</ele><time>2020-08-14T12:23:21Z</time><name>PT4115</name></trkpt>
<trkpt lat="54.635305" lon="-3.063921"><ele>799</ele><time>2020-08-14T12:23:24Z</time><name>PT4116</name></trkpt>
<trkpt lat="54.635312" lon="-3.063894"><ele>799</ele><time>2020-08-14T12:23:27Z</time><name>PT4117</name></trkpt>
<trkpt lat="54.635314" lon="-3.063843"><ele>800</ele><time>2020-08-14T12:23:31Z</time><name>PT4118</name></trkpt>
<trkpt lat="54.635315" lon="-3.063802"><ele>801</ele><time>2020-08-14T12:23:34Z</time><name>PT4119</name></trkpt>
<trkpt lat="54.635317" lon="-3.063763"><ele>801</ele><time>2020-08-14T12:23:37Z</time><name>PT4120</name></trkpt>
<trkpt lat="54.635319" lon="-3.063717"><ele>802</ele><time>2020-08-14T12:23:41Z</time><name>PT4121</name></trkpt>
<trkpt lat="54.635322" lon="-3.063663"><ele>803</ele><time>2020-08-14T12:23:45Z</time><name>PT4122</name></trkpt>
<trkpt lat="54.635332" lon="-3.063618"><ele>804</ele><time>2020-08-14T12:23:48Z</time><name>PT4123</name></trkpt>
<trkpt lat="54.635338" lon="-3.063569"><ele>804</ele><time>2020-08-14T12:23:51Z</time><name>PT4124</name></trkpt>
<trkpt lat="54.635348" lon="-3.063513"><ele>804</ele><time>2020-08-14T12:23:55Z</time><name>PT4125</name></trkpt>
<trkpt lat="54.635354" lon="-3.063474"><ele>805</ele><time>2020-08-14T12:23:58Z</time><name>PT4126</name></trkpt>
<trkpt lat="54.635363" lon="-3.063440"><ele>805</ele><time>2020-08-14T12:24:01Z</time><name>PT4127</name></trkpt>
<trkpt lat="54.635365" lon="-3.063406"><ele>805</ele><time>2020-08-14T12:24:04Z</time><name>PT4128</name></trkpt>
<trkpt lat="54.635371" lon="-3.063358"><ele>806</ele><time>2020-08-14T12:24:08Z</time><name>PT4129</name></trkpt>
<trkpt lat="54.635381" lon="-3.063326"><ele>807</ele><time>2020-08-14T12:24:11Z</time><name>PT4130</name></trkpt>
<trkpt lat="54.635391" lon="-3.063278"><ele>808</ele><time>2020-08-14T12:24:15Z</time><name>PT4131</name></trkpt>
<trkpt lat="54.635402" lon="-3.063227"><ele>808</ele><time>2020-08-14T12:24:19Z</time><name>PT4132</name></trkpt>
<trkpt lat="54.635413" lon="-3.063181"><ele>808</ele><time>2020-08-14T12:24:23Z</time><name>PT4133</name></trkpt>
<trkpt lat="54.635413" lon="-3.063134"><ele>808</ele><time>2020-08-14T12:24:27Z</time><name>PT4134</name></trkpt>
<trkpt lat="54.635421" lon="-3.063094"><ele>808</ele><time>2020-08-14T12:24:31Z</time><name>PT4135</name></trkpt>
<trkpt lat="54.635426" lon="-3.063046"><ele>809</ele><time>2020-08-14T12:24:35Z</time><name>PT4136</name></trkpt>
<trkpt lat="54.635436" lon="-3.063003"><ele>809</ele><time>2020-08-14T12:24:39Z</time><name>PT4137</name></trkpt>
<trkpt lat="54.635441" lon="-3.062955"><ele>810</ele><time>2020-08-14T12:24:43Z</time><name>PT4138</name></trkpt>
<trkpt lat="54.635443" lon="-3.062912"><ele>810</ele><time>2020-08-14T12:24:46Z</time><name>PT4139</name></trkpt>
<trkpt lat="54.635453" lon="-3.062850"><ele>811</ele><time>2020-08-14T12:24:50Z</time><name>PT4140</name></trkpt>
<trkpt lat="54.635464" lon="-3.062816"><ele>812</ele><time>2020-08-14T12:24:53Z</time><name>PT4141</name></trkpt>
<trkpt lat="54.635473" lon="-3.062765"><ele>813</ele><time>2020-08-14T12:24:57Z</time><name>PT4142</name></trkpt>
<trkpt lat="54.635481" lon="-3.062725"><ele>813</ele><time>2020-08-14T12:25:00Z</time><name>PT4143</name></trkpt>
<trkpt lat="54.635488" lon="-3.062683"><ele>814</ele><time>2020-08-14T12:25:03Z</time><name>PT4144</name></trkpt>
<trkpt lat="54.635494" lon="-3.062637"><ele>814</ele><time>2020-08-14T12:25:06Z</time><name>PT4145</name></trkpt>
<trkpt lat="54.635504" lon="-3.062604"><ele>815</ele><time>2020-08-14T12:25:09Z</time><name>PT4146</name></trkpt>
<trkpt lat="54.635516" lon="-3.062546"><ele>816</ele><time>2020-08-14T12:25:13Z</time><name>PT4147</name></trkpt>
<trkpt lat="54.635522" lon="-3.062506"><ele>816</ele><time>2020-08-14T12:25:16Z</time><name>PT4148</name></trkpt>
<trkpt lat="54.635526" lon="-3.062466"><ele>817</ele><time>2020-08-14T12:25:19Z</time><name>PT4149</name></trkpt>
<trkpt lat="54.635540" lon="-3.062408"><ele>818</ele><time>2020-08-14T12:25:23Z</time><name>PT4150</name></trkpt>
<trkpt lat="54.635556" lon="-3.062350"><ele>818</ele><time>2020-08-14T12:25:27Z</time><name>PT4151</name></trkpt>
<trkpt lat="54.635570" lon="-3.062290"><ele>818</ele><time>2020-08-14T12:25:31Z</time><name>PT4152</name></trkpt>
<trkpt lat="54.635582" lon="-3.062247"><ele>819</ele><time>2020-08-14T12:25:34Z</time><name>PT4153</name></trkpt>
<trkpt lat="54.635597" lon="-3.062198"><ele>820</ele><time>2020-08-14T12:25:37Z</time><name>PT4154</name></trkpt>
<trkpt lat="54.635614" lon="-3.062139"><ele>821</ele><time>2020-08-14T12:25:41Z</time><name>PT4155</name></trkpt>
<trkpt lat="54.635631" lon="-3.062102"><ele>821</ele><time>2020-08-14T12:25:44Z</time><name>PT4156</name></trkpt>
<trkpt lat="54.635656" lon="-3.062058"><ele>822</ele><time>2020-08-14T12:25:47Z</time><name>PT4157</name></trkpt>
<trkpt lat="54.635675" lon="-3.062013"><ele>822</ele><time>2020-08-14T12:25:50Z</time><name>PT4158</name></trkpt>
<trkpt lat="54.635690" lon="-3.061971"><ele>822</ele><time>2020-08-14T12:25:53Z</time><name>PT4159</name></trkpt>
<trkpt lat="54.635714" lon="-3.061920"><ele>823</ele><time>2020-08-14T12:25:57Z</time><name>PT4160</name></trkpt>
<trkpt lat="54.635736" lon="-3.061864"><ele>823</ele><time>2020-08-14T12:26:00Z</time><name>PT4161</name></trkpt>
<trkpt lat="54.635755" lon="-3.061807"><ele>824</ele><time>2020-08-14T12:26:04Z</time><name>PT4162</name></trkpt>
<trkpt lat="54.635777" lon="-3.061750"><ele>824</ele><time>2020-08-14T12:26:08Z</time><name>PT4163</name></trkpt>
<trkpt lat="54.635800" lon="-3.061676"><ele>824</ele><time>2020-08-14T12:26:12Z</time><name>PT4164</name></trkpt>
<trkpt lat="54.635823" lon="-3.061593"><ele>824</ele><time>2020-08-14T12:26:16Z</time><name>PT4165</name></trkpt>
<trkpt lat="54.635840" lon="-3.061520"><ele>824</ele><time>2020-08-14T12:26:20Z</time><name>PT4166</name></trkpt>
<trkpt lat="54.635859" lon="-3.061467"><ele>824</ele><time>2020-08-14T12:26:23Z</time><name>PT4167</name></trkpt>
<trkpt lat="54.635870" lon="-3.061406"><ele>825</ele><time>2020-08-14T12:26:26Z</time><name>PT4168</name></trkpt>
<trkpt lat="54.635880" lon="-3.061356"><ele>825</ele><time>2020-08-14T12:26:29Z</time><name>PT4169</name></trkpt>
<trkpt lat="54.635899" lon="-3.061281"><ele>825</ele><time>2020-08-14T12:26:33Z</time><name>PT4170</name></trkpt>
<trkpt lat="54.635920" lon="-3.061219"><ele>825</ele><time>2020-08-14T12:26:36Z</time><name>PT4171</name></trkpt>
<trkpt lat="54.635936" lon="-3.061161"><ele>826</ele><time>2020-08-14T12:26:40Z</time><name>PT4172</name></trkpt>
<trkpt lat="54.635955" lon="-3.061114"><ele>826</ele><time>2020-08-14T12:26:43Z</time><name>PT4173</name></trkpt>
<trkpt lat="54.635965" lon="-3.061082"><ele>827</ele><time>2020-08-14T12:26:46Z</time><name>PT4174</name></trkpt>
<trkpt lat="54.635983" lon="-3.061030"><ele>827</ele><time>2020-08-14T12:26:50Z</time><name>PT4175</name></trkpt>
<trkpt lat="54.636000" lon="-3.060997"><ele>828</ele><time>2020-08-14T12:26:53Z</time><name>PT4176</name></trkpt>
<trkpt lat="54.636022" lon="-3.060938"><ele>828</ele><time>2020-08-14T12:26:57Z</time><name>PT4177</name></trkpt>
<trkpt lat="54.636047" lon="-3.060882"><ele>828</ele><time>2020-08-14T12:27:01Z</time><name>PT4178</name></trkpt>
<trkpt lat="54.636067" lon="-3.060831"><ele>828</ele><time>2020-08-14T12:27:04Z</time><name>PT4179</name></trkpt>
<trkpt lat="54.636091" lon="-3.060786"><ele>829</ele><time>2020-08-14T12:27:08Z</time><name>PT4180</name></trkpt>
<trkpt lat="54.636108" lon="-3.060748"><ele>829</ele><time>2020-08-14T12:27:11Z</time><name>PT4181</name></trkpt>
<trkpt lat="54.636129" lon="-3.060696"><ele>829</ele><time>2020-08-14T12:27:15Z</time><name>PT4182</name></trkpt>
<trkpt lat="54.636143" lon="-3.060658"><ele>830</ele><time>2020-08-14T12:27:18Z</time><name>PT4183</name></trkpt>
<trkpt lat="54.636162" lon="-3.060606"><ele>830</ele><time>2020-08-14T12:27:22Z</time><name>PT4184</name></trkpt>
<trkpt lat="54.636171" lon="-3.060566"><ele>831</ele><time>2020-08-14T12:27:25Z</time><name>PT4185</name></trkpt>
<trkpt lat="54.636177" lon="-3.060529"><ele>831</ele><time>2020-08-14T12:27:28Z</time><name>PT4186</name></trkpt>
<trkpt lat="54.636194" lon="-3.060488"><ele>832</ele><time>2020-08-14T12:27:32Z</time><name>PT4187</name></trkpt>
<trkpt lat="54.636205" lon="-3.060469"><ele>832</ele><time>2020-08-14T12:27:35Z</time><name>PT4188</name></trkpt>
<trkpt lat="54.636223" lon="-3.060429"><ele>834</ele><time>2020-08-14T12:27:39Z</time><name>PT4189</name></trkpt>
<trkpt lat="54.636236" lon="-3.060396"><ele>834</ele><time>2020-08-14T12:27:42Z</time><name>PT4190</name></trkpt>
<trkpt lat="54.636252" lon="-3.060357"><ele>834</ele><time>2020-08-14T12:27:45Z</time><name>PT4191</name></trkpt>
<trkpt lat="54.636267" lon="-3.060308"><ele>835</ele><time>2020-08-14T12:27:48Z</time><name>PT4192</name></trkpt>
<trkpt lat="54.636275" lon="-3.060273"><ele>834</ele><time>2020-08-14T12:27:51Z</time><name>PT4193</name></trkpt>
<trkpt lat="54.636293" lon="-3.060243"><ele>834</ele><time>2020-08-14T12:27:54Z</time><name>PT4194</name></trkpt>
<trkpt lat="54.636304" lon="-3.060193"><ele>834</ele><time>2020-08-14T12:27:58Z</time><name>PT4195</name></trkpt>
<trkpt lat="54.636318" lon="-3.060145"><ele>834</ele><time>2020-08-14T12:28:01Z</time><name>PT4196</name></trkpt>
<trkpt lat="54.636343" lon="-3.060092"><ele>836</ele><time>2020-08-14T12:28:05Z</time><name>PT4197</name></trkpt>
<trkpt lat="54.636351" lon="-3.060060"><ele>836</ele><time>2020-08-14T12:28:08Z</time><name>PT4198</name></trkpt>
<trkpt lat="54.636366" lon="-3.060032"><ele>837</ele><time>2020-08-14T12:28:11Z</time><name>PT4199</name></trkpt>
<trkpt lat="54.636381" lon="-3.059999"><ele>837</ele><time>2020-08-14T12:28:14Z</time><name>PT4200</name></trkpt>
<trkpt lat="54.636403" lon="-3.059952"><ele>838</ele><time>2020-08-14T12:28:18Z</time><name>PT4201</name></trkpt>
<trkpt lat="54.636414" lon="-3.059921"><ele>838</ele><time>2020-08-14T12:28:21Z</time><name>PT4202</name></trkpt>
<trkpt lat="54.636432" lon="-3.059872"><ele>840</ele><time>2020-08-14T12:28:25Z</time><name>PT4203</name></trkpt>
<trkpt lat="54.636448" lon="-3.059833"><ele>841</ele><time>2020-08-14T12:28:28Z</time><name>PT4204</name></trkpt>
<trkpt lat="54.636469" lon="-3.059770"><ele>842</ele><time>2020-08-14T12:28:32Z</time><name>PT4205</name></trkpt>
<trkpt lat="54.636493" lon="-3.059720"><ele>842</ele><time>2020-08-14T12:28:36Z</time><name>PT4206</name></trkpt>
<trkpt lat="54.636513" lon="-3.059664"><ele>843</ele><time>2020-08-14T12:28:40Z</time><name>PT4207</name></trkpt>
<trkpt lat="54.636524" lon="-3.059627"><ele>843</ele><time>2020-08-14T12:28:43Z</time><name>PT4208</name></trkpt>
<trkpt lat="54.636533" lon="-3.059575"><ele>843</ele><time>2020-08-14T12:28:47Z</time><name>PT4209</name></trkpt>
<trkpt lat="54.636545" lon="-3.059515"><ele>844</ele><time>2020-08-14T12:28:51Z</time><name>PT4210</name></trkpt>
<trkpt lat="54.636563" lon="-3.059457"><ele>844</ele><time>2020-08-14T12:28:55Z</time><name>PT4211</name></trkpt>
<trkpt lat="54.636571" lon="-3.059407"><ele>845</ele><time>2020-08-14T12:28:58Z</time><name>PT4212</name></trkpt>
<trkpt lat="54.636585" lon="-3.059360"><ele>845</ele><time>2020-08-14T12:29:01Z</time><name>PT4213</name></trkpt>
<trkpt lat="54.636598" lon="-3.059306"><ele>846</ele><time>2020-08-14T12:29:05Z</time><name>PT4214</name></trkpt>
<trkpt lat="54.636613" lon="-3.059249"><ele>846</ele><time>2020-08-14T12:29:09Z</time><name>PT4215</name></trkpt>
<trkpt lat="54.636632" lon="-3.059191"><ele>846</ele><time>2020-08-14T12:29:13Z</time><name>PT4216</name></trkpt>
<trkpt lat="54.636636" lon="-3.059136"><ele>847</ele><time>2020-08-14T12:29:16Z</time><name>PT4217</name></trkpt>
<trkpt lat="54.636651" lon="-3.059087"><ele>848</ele><time>2020-08-14T12:29:20Z</time><name>PT4218</name></trkpt>
<trkpt lat="54.636658" lon="-3.059052"><ele>849</ele><time>2020-08-14T12:29:23Z</time><name>PT4219</name></trkpt>
<trkpt lat="54.636673" lon="-3.058996"><ele>849</ele><time>2020-08-14T12:29:27Z</time><name>PT4220</name></trkpt>
<trkpt lat="54.636691" lon="-3.058960"><ele>849</ele><time>2020-08-14T12:29:30Z</time><name>PT4221</name></trkpt>
<trkpt lat="54.636703" lon="-3.058900"><ele>851</ele><time>2020-08-14T12:29:34Z</time><name>PT4222</name></trkpt>
<trkpt lat="54.636712" lon="-3.058844"><ele>851</ele><time>2020-08-14T12:29:38Z</time><name>PT4223</name></trkpt>
<trkpt lat="54.636719" lon="-3.058808"><ele>852</ele><time>2020-08-14T12:29:41Z</time><name>PT4224</name></trkpt>
<trkpt lat="54.636726" lon="-3.058757"><ele>852</ele><time>2020-08-14T12:29:45Z</time><name>PT4225</name></trkpt>
<trkpt lat="54.636734" lon="-3.058715"><ele>854</ele><time>2020-08-14T12:29:48Z</time><name>PT4226</name></trkpt>
<trkpt lat="54.636736" lon="-3.058658"><ele>855</ele><time>2020-08-14T12:29:52Z</time><name>PT4227</name></trkpt>
<trkpt lat="54.636739" lon="-3.058625"><ele>856</ele><time>2020-08-14T12:29:55Z</time><name>PT4228</name></trkpt>
<trkpt lat="54.636749" lon="-3.058576"><ele>856</ele><time>2020-08-14T12:29:58Z</time><name>PT4229</name></trkpt>
<trkpt lat="54.636750" lon="-3.058562"><ele>856</ele><time>2020-08-14T12:29:59Z</time><name>PT4230</name></trkpt>
<trkpt lat="54.636749" lon="-3.058552"><ele>856</ele><time>2020-08-14T12:30:00Z</time><name>PT4231</name></trkpt>
<trkpt lat="54.636746" lon="-3.058543"><ele>856</ele><time>2020-08-14T12:30:01Z</time><name>PT4232</name></trkpt>
<trkpt lat="54.636749" lon="-3.058537"><ele>856</ele><time>2020-08-14T12:30:02Z</time><name>PT4233</name></trkpt>
<trkpt lat="54.636753" lon="-3.058529"><ele>856</ele><time>2020-08-14T12:30:03Z</time><name>PT4234</name></trkpt>
<trkpt lat="54.636757" lon="-3.058526"><ele>856</ele><time>2020-08-14T12:30:04Z</time><name>PT4235</name></trkpt>
<trkpt lat="54.636762" lon="-3.058522"><ele>856</ele><time>2020-08-14T12:30:05Z</time><name>PT4236</name></trkpt>
<trkpt lat="54.636762" lon="-3.058517"><ele>855</ele><time>2020-08-14T12:30:06Z</time><name>PT4237</name></trkpt>
<trkpt lat="54.636767" lon="-3.058512"><ele>855</ele><time>2020-08-14T12:30:07Z</time><name>PT4238</name></trkpt>
<trkpt lat="54.636773" lon="-3.058497"><ele>855</ele><time>2020-08-14T12:30:08Z</time><name>PT4239</name></trkpt>
<trkpt lat="54.636780" lon="-3.058483"><ele>855</ele><time>2020-08-14T12:30:09Z</time><name>PT4240</name></trkpt>
<trkpt lat="54.636791" lon="-3.058467"><ele>855</ele><time>2020-08-14T12:30:10Z</time><name>PT4241</name></trkpt>
<trkpt lat="54.636805" lon="-3.058450"><ele>856</ele><time>2020-08-14T12:30:11Z</time><name>PT4242</name></trkpt>
<trkpt lat="54.636816" lon="-3.058435"><ele>856</ele><time>2020-08-14T12:30:12Z</time><name>PT4243</name></trkpt>
<trkpt lat="54.636824" lon="-3.058424"><ele>857</ele><time>2020-08-14T12:30:13Z</time><name>PT4244</name></trkpt>
<trkpt lat="54.636829" lon="-3.058412"><ele>857</ele><time>2020-08-14T12:30:14Z</time><name>PT4245</name></trkpt>
<trkpt lat="54.636835" lon="-3.058393"><ele>856</ele><time>2020-08-14T12:30:15Z</time><name>PT4246</name></trkpt>
<trkpt lat="54.636843" lon="-3.058374"><ele>856</ele><time>2020-08-14T12:30:16Z</time><name>PT4247</name></trkpt>
<trkpt lat="54.636853" lon="-3.058354"><ele>856</ele><time>2020-08-14T12:30:17Z</time><name>PT4248</name></trkpt>
<trkpt lat="54.636865" lon="-3.058331"><ele>856</ele><time>2020-08-14T12:30:18Z</time><name>PT4249</name></trkpt>
<trkpt lat="54.636876" lon="-3.058310"><ele>856</ele><time>2020-08-14T12:30:19Z</time><name>PT4250</name></trkpt>
<trkpt lat="54.636887" lon="-3.058299"><ele>856</ele><time>2020-08-14T12:30:20Z</time><name>PT4251</name></trkpt>
<trkpt lat="54.636895" lon="-3.058289"><ele>856</ele><time>2020-08-14T12:30:21Z</time><name>PT4252</name></trkpt>
<trkpt lat="54.636906" lon="-3.058277"><ele>856</ele><time>2020-08-14T12:30:22Z</time><name>PT4253</name></trkpt>
<trkpt lat="54.636917" lon="-3.058264"><ele>856</ele><time>2020-08-14T12:30:23Z</time><name>PT4254</name></trkpt>
<trkpt lat="54.636928" lon="-3.058255"><ele>856</ele><time>2020-08-14T12:30:24Z</time><name>PT4255</name></trkpt>
<trkpt lat="54.636938" lon="-3.058242"><ele>856</ele><time>2020-08-14T12:30:25Z</time><name>PT4256</name></trkpt>
<trkpt lat="54.636951" lon="-3.058231"><ele>856</ele><time>2020-08-14T12:30:26Z</time><name>PT4257</name></trkpt>
<trkpt lat="54.636963" lon="-3.058212"><ele>856</ele><time>2020-08-14T12:30:27Z</time><name>PT4258</name></trkpt>
<trkpt lat="54.636971" lon="-3.058198"><ele>856</ele><time>2020-08-14T12:30:28Z</time><name>PT4259</name></trkpt>
<trkpt lat="54.636977" lon="-3.058184"><ele>856</ele><time>2020-08-14T12:30:29Z</time><name>PT4260</name></trkpt>
<trkpt lat="54.636989" lon="-3.058170"><ele>856</ele><time>2020-08-14T12:30:30Z</time><name>PT4261</name></trkpt>
<trkpt lat="54.636993" lon="-3.058146"><ele>856</ele><time>2020-08-14T12:30:31Z</time><name>PT4262</name></trkpt>
<trkpt lat="54.636998" lon="-3.058133"><ele>856</ele><time>2020-08-14T12:30:32Z</time><name>PT4263</name></trkpt>
<trkpt lat="54.637000" lon="-3.058126"><ele>855</ele><time>2020-08-14T12:30:33Z</time><name>PT4264</name></trkpt>
<trkpt lat="54.636999" lon="-3.058123"><ele>855</ele><time>2020-08-14T12:30:34Z</time><name>PT4265</name></trkpt>
<trkpt lat="54.636998" lon="-3.058126"><ele>854</ele><time>2020-08-14T12:30:35Z</time><name>PT4266</name></trkpt>
<trkpt lat="54.636997" lon="-3.058123"><ele>854</ele><time>2020-08-14T12:30:36Z</time><name>PT4267</name></trkpt>
<trkpt lat="54.636996" lon="-3.058113"><ele>854</ele><time>2020-08-14T12:30:38Z</time><name>PT4268</name></trkpt>
<trkpt lat="54.636999" lon="-3.058094"><ele>854</ele><time>2020-08-14T12:30:39Z</time><name>PT4269</name></trkpt>
<trkpt lat="54.637006" lon="-3.058075"><ele>853</ele><time>2020-08-14T12:30:40Z</time><name>PT4270</name></trkpt>
<trkpt lat="54.637013" lon="-3.058067"><ele>853</ele><time>2020-08-14T12:30:41Z</time><name>PT4271</name></trkpt>
<trkpt lat="54.637017" lon="-3.058053"><ele>853</ele><time>2020-08-14T12:30:42Z</time><name>PT4272</name></trkpt>
<trkpt lat="54.637022" lon="-3.058034"><ele>853</ele><time>2020-08-14T12:30:43Z</time><name>PT4273</name></trkpt>
<trkpt lat="54.637029" lon="-3.058014"><ele>853</ele><time>2020-08-14T12:30:44Z</time><name>PT4274</name></trkpt>
<trkpt lat="54.637042" lon="-3.057995"><ele>854</ele><time>2020-08-14T12:30:45Z</time><name>PT4275</name></trkpt>
<trkpt lat="54.637056" lon="-3.057978"><ele>854</ele><time>2020-08-14T12:30:46Z</time><name>PT4276</name></trkpt>
<trkpt lat="54.637063" lon="-3.057965"><ele>853</ele><time>2020-08-14T12:30:47Z</time><name>PT4277</name></trkpt>
<trkpt lat="54.637068" lon="-3.057956"><ele>853</ele><time>2020-08-14T12:30:48Z</time><name>PT4278</name></trkpt>
<trkpt lat="54.637071" lon="-3.057946"><ele>853</ele><time>2020-08-14T12:30:49Z</time><name>PT4279</name></trkpt>
<trkpt lat="54.637076" lon="-3.057933"><ele>853</ele><time>2020-08-14T12:30:50Z</time><name>PT4280</name></trkpt>
<trkpt lat="54.637084" lon="-3.057920"><ele>852</ele><time>2020-08-14T12:30:51Z</time><name>PT4281</name></trkpt>
<trkpt lat="54.637094" lon="-3.057905"><ele>852</ele><time>2020-08-14T12:30:52Z</time><name>PT4282</name></trkpt>
<trkpt lat="54.637104" lon="-3.057893"><ele>851</ele><time>2020-08-14T12:30:53Z</time><name>PT4283</name></trkpt>
<trkpt lat="54.637114" lon="-3.057879"><ele>851</ele><time>2020-08-14T12:30:54Z</time><name>PT4284</name></trkpt>
<trkpt lat="54.637124" lon="-3.057862"><ele>851</ele><time>2020-08-14T12:30:55Z</time><name>PT4285</name></trkpt>
<trkpt lat="54.637133" lon="-3.057836"><ele>851</ele><time>2020-08-14T12:30:56Z</time><name>PT4286</name></trkpt>
<trkpt lat="54.637143" lon="-3.057817"><ele>851</ele><time>2020-08-14T12:30:57Z</time><name>PT4287</name></trkpt>
<trkpt lat="54.637150" lon="-3.057802"><ele>850</ele><time>2020-08-14T12:30:58Z</time><name>PT4288</name></trkpt>
<trkpt lat="54.637153" lon="-3.057792"><ele>850</ele><time>2020-08-14T12:30:59Z</time><name>PT4289</name></trkpt>
<trkpt lat="54.637156" lon="-3.057778"><ele>850</ele><time>2020-08-14T12:31:00Z</time><name>PT4290</name></trkpt>
<trkpt lat="54.637160" lon="-3.057763"><ele>850</ele><time>2020-08-14T12:31:01Z</time><name>PT4291</name></trkpt>
<trkpt lat="54.637168" lon="-3.057748"><ele>849</ele><time>2020-08-14T12:31:02Z</time><name>PT4292</name></trkpt>
<trkpt lat="54.637176" lon="-3.057732"><ele>849</ele><time>2020-08-14T12:31:03Z</time><name>PT4293</name></trkpt>
<trkpt lat="54.637188" lon="-3.057716"><ele>849</ele><time>2020-08-14T12:31:04Z</time><name>PT4294</name></trkpt>
<trkpt lat="54.637203" lon="-3.057699"><ele>849</ele><time>2020-08-14T12:31:05Z</time><name>PT4295</name></trkpt>
<trkpt lat="54.637216" lon="-3.057686"><ele>849</ele><time>2020-08-14T12:31:06Z</time><name>PT4296</name></trkpt>
<trkpt lat="54.637227" lon="-3.057673"><ele>849</ele><time>2020-08-14T12:31:07Z</time><name>PT4297</name></trkpt>
<trkpt lat="54.637239" lon="-3.057657"><ele>848</ele><time>2020-08-14T12:31:08Z</time><name>PT4298</name></trkpt>
<trkpt lat="54.637247" lon="-3.057641"><ele>848</ele><time>2020-08-14T12:31:09Z</time><name>PT4299</name></trkpt>
<trkpt lat="54.637251" lon="-3.057632"><ele>847</ele><time>2020-08-14T12:31:10Z</time><name>PT4300</name></trkpt>
<trkpt lat="54.637255" lon="-3.057617"><ele>847</ele><time>2020-08-14T12:31:11Z</time><name>PT4301</name></trkpt>
<trkpt lat="54.637257" lon="-3.057603"><ele>847</ele><time>2020-08-14T12:31:12Z</time><name>PT4302</name></trkpt>
<trkpt lat="54.637264" lon="-3.057587"><ele>846</ele><time>2020-08-14T12:31:13Z</time><name>PT4303</name></trkpt>
<trkpt lat="54.637273" lon="-3.057573"><ele>846</ele><time>2020-08-14T12:31:14Z</time><name>PT4304</name></trkpt>
<trkpt lat="54.637281" lon="-3.057558"><ele>845</ele><time>2020-08-14T12:31:15Z</time><name>PT4305</name></trkpt>
<trkpt lat="54.637290" lon="-3.057538"><ele>845</ele><time>2020-08-14T12:31:16Z</time><name>PT4306</name></trkpt>
<trkpt lat="54.637297" lon="-3.057519"><ele>845</ele><time>2020-08-14T12:31:17Z</time><name>PT4307</name></trkpt>
<trkpt lat="54.637301" lon="-3.057501"><ele>846</ele><time>2020-08-14T12:31:18Z</time><name>PT4308</name></trkpt>
<trkpt lat="54.637303" lon="-3.057485"><ele>845</ele><time>2020-08-14T12:31:19Z</time><name>PT4309</name></trkpt>
<trkpt lat="54.637307" lon="-3.057475"><ele>845</ele><time>2020-08-14T12:31:20Z</time><name>PT4310</name></trkpt>
<trkpt lat="54.637310" lon="-3.057468"><ele>845</ele><time>2020-08-14T12:31:21Z</time><name>PT4311</name></trkpt>
<trkpt lat="54.637310" lon="-3.057457"><ele>845</ele><time>2020-08-14T12:31:22Z</time><name>PT4312</name></trkpt>
<trkpt lat="54.637313" lon="-3.057445"><ele>845</ele><time>2020-08-14T12:31:23Z</time><name>PT4313</name></trkpt>
<trkpt lat="54.637320" lon="-3.057434"><ele>844</ele><time>2020-08-14T12:31:24Z</time><name>PT4314</name></trkpt>
<trkpt lat="54.637328" lon="-3.057422"><ele>844</ele><time>2020-08-14T12:31:25Z</time><name>PT4315</name></trkpt>
<trkpt lat="54.637338" lon="-3.057412"><ele>843</ele><time>2020-08-14T12:31:26Z</time><name>PT4316</name></trkpt>
<trkpt lat="54.637349" lon="-3.057398"><ele>843</ele><time>2020-08-14T12:31:27Z</time><name>PT4317</name></trkpt>
<trkpt lat="54.637360" lon="-3.057386"><ele>843</ele><time>2020-08-14T12:31:28Z</time><name>PT4318</name></trkpt>
<trkpt lat="54.637367" lon="-3.057372"><ele>842</ele><time>2020-08-14T12:31:29Z</time><name>PT4319</name></trkpt>
<trkpt lat="54.637374" lon="-3.057361"><ele>842</ele><time>2020-08-14T12:31:30Z</time><name>PT4320</name></trkpt>
<trkpt lat="54.637382" lon="-3.057345"><ele>841</ele><time>2020-08-14T12:31:31Z</time><name>PT4321</name></trkpt>
<trkpt lat="54.637391" lon="-3.057329"><ele>841</ele><time>2020-08-14T12:31:32Z</time><name>PT4322</name></trkpt>
<trkpt lat="54.637399" lon="-3.057317"><ele>840</ele><time>2020-08-14T12:31:33Z</time><name>PT4323</name></trkpt>
<trkpt lat="54.637406" lon="-3.057301"><ele>840</ele><time>2020-08-14T12:31:34Z</time><name>PT4324</name></trkpt>
<trkpt lat="54.637416" lon="-3.057279"><ele>840</ele><time>2020-08-14T12:31:35Z</time><name>PT4325</name></trkpt>
<trkpt lat="54.637430" lon="-3.057254"><ele>839</ele><time>2020-08-14T12:31:36Z</time><name>PT4326</name></trkpt>
<trkpt lat="54.637443" lon="-3.057229"><ele>839</ele><time>2020-08-14T12:31:37Z</time><name>PT4327</name></trkpt>
<trkpt lat="54.637457" lon="-3.057209"><ele>839</ele><time>2020-08-14T12:31:38Z</time><name>PT4328</name></trkpt>
<trkpt lat="54.637466" lon="-3.057196"><ele>840</ele><time>2020-08-14T12:31:39Z</time><name>PT4329</name></trkpt>
<trkpt lat="54.637470" lon="-3.057186"><ele>840</ele><time>2020-08-14T12:31:40Z</time><name>PT4330</name></trkpt>
<trkpt lat="54.637474" lon="-3.057173"><ele>840</ele><time>2020-08-14T12:31:41Z</time><name>PT4331</name></trkpt>
<trkpt lat="54.637478" lon="-3.057158"><ele>840</ele><time>2020-08-14T12:31:42Z</time><name>PT4332</name></trkpt>
<trkpt lat="54.637485" lon="-3.057143"><ele>839</ele><time>2020-08-14T12:31:43Z</time><name>PT4333</name></trkpt>
<trkpt lat="54.637492" lon="-3.057126"><ele>840</ele><time>2020-08-14T12:31:44Z</time><name>PT4334</name></trkpt>
<trkpt lat="54.637505" lon="-3.057102"><ele>840</ele><time>2020-08-14T12:31:45Z</time><name>PT4335</name></trkpt>
<trkpt lat="54.637519" lon="-3.057082"><ele>840</ele><time>2020-08-14T12:31:46Z</time><name>PT4336</name></trkpt>
<trkpt lat="54.637528" lon="-3.057065"><ele>840</ele><time>2020-08-14T12:31:47Z</time><name>PT4337</name></trkpt>
<trkpt lat="54.637532" lon="-3.057056"><ele>840</ele><time>2020-08-14T12:31:48Z</time><name>PT4338</name></trkpt>
<trkpt lat="54.637536" lon="-3.057046"><ele>840</ele><time>2020-08-14T12:31:49Z</time><name>PT4339</name></trkpt>
<trkpt lat="54.637542" lon="-3.057027"><ele>840</ele><time>2020-08-14T12:31:50Z</time><name>PT4340</name></trkpt>
<trkpt lat="54.637549" lon="-3.057007"><ele>840</ele><time>2020-08-14T12:31:51Z</time><name>PT4341</name></trkpt>
<trkpt lat="54.637557" lon="-3.056988"><ele>839</ele><time>2020-08-14T12:31:52Z</time><name>PT4342</name></trkpt>
<trkpt lat="54.637566" lon="-3.056970"><ele>839</ele><time>2020-08-14T12:31:53Z</time><name>PT4343</name></trkpt>
<trkpt lat="54.637577" lon="-3.056953"><ele>839</ele><time>2020-08-14T12:31:54Z</time><name>PT4344</name></trkpt>
<trkpt lat="54.637585" lon="-3.056934"><ele>838</ele><time>2020-08-14T12:31:55Z</time><name>PT4345</name></trkpt>
<trkpt lat="54.637591" lon="-3.056921"><ele>838</ele><time>2020-08-14T12:31:56Z</time><name>PT4346</name></trkpt>
<trkpt lat="54.637592" lon="-3.056906"><ele>838</ele><time>2020-08-14T12:31:57Z</time><name>PT4347</name></trkpt>
<trkpt lat="54.637596" lon="-3.056886"><ele>838</ele><time>2020-08-14T12:31:58Z</time><name>PT4348</name></trkpt>
<trkpt lat="54.637603" lon="-3.056867"><ele>838</ele><time>2020-08-14T12:31:59Z</time><name>PT4349</name></trkpt>
<trkpt lat="54.637614" lon="-3.056850"><ele>838</ele><time>2020-08-14T12:32:00Z</time><name>PT4350</name></trkpt>
<trkpt lat="54.637630" lon="-3.056833"><ele>838</ele><time>2020-08-14T12:32:01Z</time><name>PT4351</name></trkpt>
<trkpt lat="54.637644" lon="-3.056820"><ele>838</ele><time>2020-08-14T12:32:02Z</time><name>PT4352</name></trkpt>
<trkpt lat="54.637652" lon="-3.056801"><ele>839</ele><time>2020-08-14T12:32:03Z</time><name>PT4353</name></trkpt>
<trkpt lat="54.637659" lon="-3.056790"><ele>839</ele><time>2020-08-14T12:32:04Z</time><name>PT4354</name></trkpt>
<trkpt lat="54.637663" lon="-3.056776"><ele>838</ele><time>2020-08-14T12:32:05Z</time><name>PT4355</name></trkpt>
<trkpt lat="54.637668" lon="-3.056759"><ele>838</ele><time>2020-08-14T12:32:06Z</time><name>PT4356</name></trkpt>
<trkpt lat="54.637677" lon="-3.056741"><ele>838</ele><time>2020-08-14T12:32:07Z</time><name>PT4357</name></trkpt>
<trkpt lat="54.637687" lon="-3.056720"><ele>838</ele><time>2020-08-14T12:32:08Z</time><name>PT4358</name></trkpt>
<trkpt lat="54.637699" lon="-3.056700"><ele>838</ele><time>2020-08-14T12:32:09Z</time><name>PT4359</name></trkpt>
<trkpt lat="54.637712" lon="-3.056678"><ele>838</ele><time>2020-08-14T12:32:10Z</time><name>PT4360</name></trkpt>
<trkpt lat="54.637723" lon="-3.056658"><ele>838</ele><time>2020-08-14T12:32:11Z</time><name>PT4361</name></trkpt>
<trkpt lat="54.637726" lon="-3.056644"><ele>837</ele><time>2020-08-14T12:32:12Z</time><name>PT4362</name></trkpt>
<trkpt lat="54.637729" lon="-3.056631"><ele>837</ele><time>2020-08-14T12:32:13Z</time><name>PT4363</name></trkpt>
<trkpt lat="54.637736" lon="-3.056615"><ele>837</ele><time>2020-08-14T12:32:14Z</time><name>PT4364</name></trkpt>
<trkpt lat="54.637743" lon="-3.056593"><ele>837</ele><time>2020-08-14T12:32:15Z</time><name>PT4365</name></trkpt>
<trkpt lat="54.637752" lon="-3.056571"><ele>838</ele><time>2020-08-14T12:32:16Z</time><name>PT4366</name></trkpt>
<trkpt lat="54.637762" lon="-3.056545"><ele>838</ele><time>2020-08-14T12:32:17Z</time><name>PT4367</name></trkpt>
<trkpt lat="54.637772" lon="-3.056521"><ele>838</ele><time>2020-08-14T12:32:18Z</time><name>PT4368</name></trkpt>
<trkpt lat="54.637779" lon="-3.056505"><ele>838</ele><time>2020-08-14T12:32:19Z</time><name>PT4369</name></trkpt>
<trkpt lat="54.637783" lon="-3.056493"><ele>838</ele><time>2020-08-14T12:32:20Z</time><name>PT4370</name></trkpt>
<trkpt lat="54.637789" lon="-3.056476"><ele>838</ele><time>2020-08-14T12:32:21Z</time><name>PT4371</name></trkpt>
<trkpt lat="54.637798" lon="-3.056457"><ele>837</ele><time>2020-08-14T12:32:22Z</time><name>PT4372</name></trkpt>
<trkpt lat="54.637807" lon="-3.056439"><ele>837</ele><time>2020-08-14T12:32:23Z</time><name>PT4373</name></trkpt>
<trkpt lat="54.637821" lon="-3.056419"><ele>838</ele><time>2020-08-14T12:32:24Z</time><name>PT4374</name></trkpt>
<trkpt lat="54.637835" lon="-3.056396"><ele>838</ele><time>2020-08-14T12:32:25Z</time><name>PT4375</name></trkpt>
<trkpt lat="54.637845" lon="-3.056375"><ele>838</ele><time>2020-08-14T12:32:26Z</time><name>PT4376</name></trkpt>
<trkpt lat="54.637852" lon="-3.056360"><ele>838</ele><time>2020-08-14T12:32:27Z</time><name>PT4377</name></trkpt>
<trkpt lat="54.637856" lon="-3.056350"><ele>838</ele><time>2020-08-14T12:32:28Z</time><name>PT4378</name></trkpt>
<trkpt lat="54.637860" lon="-3.056334"><ele>838</ele><time>2020-08-14T12:32:29Z</time><name>PT4379</name></trkpt>
<trkpt lat="54.637866" lon="-3.056315"><ele>838</ele><time>2020-08-14T12:32:30Z</time><name>PT4380</name></trkpt>
<trkpt lat="54.637875" lon="-3.056295"><ele>837</ele><time>2020-08-14T12:32:31Z</time><name>PT4381</name></trkpt>
<trkpt lat="54.637886" lon="-3.056276"><ele>838</ele><time>2020-08-14T12:32:32Z</time><name>PT4382</name></trkpt>
<trkpt lat="54.637898" lon="-3.056256"><ele>838</ele><time>2020-08-14T12:32:33Z</time><name>PT4383</name></trkpt>
<trkpt lat="54.637910" lon="-3.056236"><ele>838</ele><time>2020-08-14T12:32:34Z</time><name>PT4384</name></trkpt>
<trkpt lat="54.637918" lon="-3.056217"><ele>838</ele><time>2020-08-14T12:32:35Z</time><name>PT4385</name></trkpt>
<trkpt lat="54.637920" lon="-3.056204"><ele>838</ele><time>2020-08-14T12:32:36Z</time><name>PT4386</name></trkpt>
<trkpt lat="54.637926" lon="-3.056191"><ele>838</ele><time>2020-08-14T12:32:37Z</time><name>PT4387</name></trkpt>
<trkpt lat="54.637931" lon="-3.056175"><ele>838</ele><time>2020-08-14T12:32:38Z</time><name>PT4388</name></trkpt>
<trkpt lat="54.637939" lon="-3.056157"><ele>838</ele><time>2020-08-14T12:32:39Z</time><name>PT4389</name></trkpt>
<trkpt lat="54.637951" lon="-3.056135"><ele>838</ele><time>2020-08-14T12:32:40Z</time><name>PT4390</name></trkpt>
<trkpt lat="54.637962" lon="-3.056115"><ele>838</ele><time>2020-08-14T12:32:41Z</time><name>PT4391</name></trkpt>
<trkpt lat="54.637974" lon="-3.056093"><ele>838</ele><time>2020-08-14T12:32:42Z</time><name>PT4392</name></trkpt>
<trkpt lat="54.637986" lon="-3.056069"><ele>838</ele><time>2020-08-14T12:32:43Z</time><name>PT4393</name></trkpt>
<trkpt lat="54.637995" lon="-3.056046"><ele>838</ele><time>2020-08-14T12:32:44Z</time><name>PT4394</name></trkpt>
<trkpt lat="54.638001" lon="-3.056030"><ele>838</ele><time>2020-08-14T12:32:45Z</time><name>PT4395</name></trkpt>
<trkpt lat="54.638006" lon="-3.056018"><ele>838</ele><time>2020-08-14T12:32:46Z</time><name>PT4396</name></trkpt>
<trkpt lat="54.638010" lon="-3.056002"><ele>838</ele><time>2020-08-14T12:32:47Z</time><name>PT4397</name></trkpt>
<trkpt lat="54.638016" lon="-3.055982"><ele>837</ele><time>2020-08-14T12:32:48Z</time><name>PT4398</name></trkpt>
<trkpt lat="54.638026" lon="-3.055964"><ele>837</ele><time>2020-08-14T12:32:49Z</time><name>PT4399</name></trkpt>
<trkpt lat="54.638037" lon="-3.055945"><ele>838</ele><time>2020-08-14T12:32:50Z</time><name>PT4400</name></trkpt>
<trkpt lat="54.638048" lon="-3.055922"><ele>838</ele><time>2020-08-14T12:32:51Z</time><name>PT4401</name></trkpt>
<trkpt lat="54.638060" lon="-3.055902"><ele>838</ele><time>2020-08-14T12:32:52Z</time><name>PT4402</name></trkpt>
<trkpt lat="54.638068" lon="-3.055887"><ele>838</ele><time>2020-08-14T12:32:53Z</time><name>PT4403</name></trkpt>
<trkpt lat="54.638073" lon="-3.055875"><ele>838</ele><time>2020-08-14T12:32:54Z</time><name>PT4404</name></trkpt>
<trkpt lat="54.638079" lon="-3.055863"><ele>837</ele><time>2020-08-14T12:32:55Z</time><name>PT4405</name></trkpt>
<trkpt lat="54.638087" lon="-3.055845"><ele>837</ele><time>2020-08-14T12:32:56Z</time><name>PT4406</name></trkpt>
<trkpt lat="54.638096" lon="-3.055825"><ele>837</ele><time>2020-08-14T12:32:57Z</time><name>PT4407</name></trkpt>
<trkpt lat="54.638106" lon="-3.055805"><ele>837</ele><time>2020-08-14T12:32:58Z</time><name>PT4408</name></trkpt>
<trkpt lat="54.638151" lon="-3.055729"><ele>839</ele><time>2020-08-14T12:33:02Z</time><name>PT4409</name></trkpt>
<trkpt lat="54.638169" lon="-3.055682"><ele>838</ele><time>2020-08-14T12:33:05Z</time><name>PT4410</name></trkpt>
<trkpt lat="54.638214" lon="-3.055596"><ele>838</ele><time>2020-08-14T12:33:09Z</time><name>PT4411</name></trkpt>
<trkpt lat="54.638242" lon="-3.055554"><ele>838</ele><time>2020-08-14T12:33:13Z</time><name>PT4412</name></trkpt>
<trkpt lat="54.638288" lon="-3.055482"><ele>839</ele><time>2020-08-14T12:33:17Z</time><name>PT4413</name></trkpt>
<trkpt lat="54.638305" lon="-3.055443"><ele>838</ele><time>2020-08-14T12:33:20Z</time><name>PT4414</name></trkpt>
<trkpt lat="54.638351" lon="-3.055381"><ele>839</ele><time>2020-08-14T12:33:24Z</time><name>PT4415</name></trkpt>
<trkpt lat="54.638372" lon="-3.055342"><ele>839</ele><time>2020-08-14T12:33:27Z</time><name>PT4416</name></trkpt>
<trkpt lat="54.638411" lon="-3.055282"><ele>839</ele><time>2020-08-14T12:33:31Z</time><name>PT4417</name></trkpt>
<trkpt lat="54.638435" lon="-3.055239"><ele>839</ele><time>2020-08-14T12:33:34Z</time><name>PT4418</name></trkpt>
<trkpt lat="54.638473" lon="-3.055190"><ele>838</ele><time>2020-08-14T12:33:37Z</time><name>PT4419</name></trkpt>
<trkpt lat="54.638497" lon="-3.055146"><ele>838</ele><time>2020-08-14T12:33:41Z</time><name>PT4420</name></trkpt>
<trkpt lat="54.638540" lon="-3.055085"><ele>839</ele><time>2020-08-14T12:33:45Z</time><name>PT4421</name></trkpt>
<trkpt lat="54.638575" lon="-3.055035"><ele>838</ele><time>2020-08-14T12:33:49Z</time><name>PT4422</name></trkpt>
<trkpt lat="54.638611" lon="-3.054986"><ele>839</ele><time>2020-08-14T12:33:53Z</time><name>PT4423</name></trkpt>
<trkpt lat="54.638651" lon="-3.054931"><ele>839</ele><time>2020-08-14T12:33:57Z</time><name>PT4424</name></trkpt>
<trkpt lat="54.638673" lon="-3.054902"><ele>839</ele><time>2020-08-14T12:34:00Z</time><name>PT4425</name></trkpt>
<trkpt lat="54.638701" lon="-3.054864"><ele>841</ele><time>2020-08-14T12:34:03Z</time><name>PT4426</name></trkpt>
<trkpt lat="54.638733" lon="-3.054809"><ele>842</ele><time>2020-08-14T12:34:07Z</time><name>PT4427</name></trkpt>
<trkpt lat="54.638764" lon="-3.054754"><ele>843</ele><time>2020-08-14T12:34:11Z</time><name>PT4428</name></trkpt>
<trkpt lat="54.638778" lon="-3.054725"><ele>843</ele><time>2020-08-14T12:34:14Z</time><name>PT4429</name></trkpt>
<trkpt lat="54.638809" lon="-3.054683"><ele>844</ele><time>2020-08-14T12:34:17Z</time><name>PT4430</name></trkpt>
<trkpt lat="54.638836" lon="-3.054642"><ele>844</ele><time>2020-08-14T12:34:21Z</time><name>PT4431</name></trkpt>
<trkpt lat="54.638872" lon="-3.054590"><ele>845</ele><time>2020-08-14T12:34:25Z</time><name>PT4432</name></trkpt>
<trkpt lat="54.638903" lon="-3.054538"><ele>846</ele><time>2020-08-14T12:34:29Z</time><name>PT4433</name></trkpt>
<trkpt lat="54.638915" lon="-3.054510"><ele>846</ele><time>2020-08-14T12:34:32Z</time><name>PT4434</name></trkpt>
<trkpt lat="54.638933" lon="-3.054457"><ele>847</ele><time>2020-08-14T12:34:36Z</time><name>PT4435</name></trkpt>
<trkpt lat="54.638954" lon="-3.054425"><ele>848</ele><time>2020-08-14T12:34:39Z</time><name>PT4436</name></trkpt>
<trkpt lat="54.638970" lon="-3.054400"><ele>849</ele><time>2020-08-14T12:34:42Z</time><name>PT4437</name></trkpt>
<trkpt lat="54.638990" lon="-3.054369"><ele>849</ele><time>2020-08-14T12:34:45Z</time><name>PT4438</name></trkpt>
<trkpt lat="54.639022" lon="-3.054334"><ele>850</ele><time>2020-08-14T12:34:49Z</time><name>PT4439</name></trkpt>
<trkpt lat="54.639032" lon="-3.054306"><ele>850</ele><time>2020-08-14T12:34:52Z</time><name>PT4440</name></trkpt>
<trkpt lat="54.639052" lon="-3.054268"><ele>850</ele><time>2020-08-14T12:34:56Z</time><name>PT4441</name></trkpt>
<trkpt lat="54.639065" lon="-3.054244"><ele>851</ele><time>2020-08-14T12:34:59Z</time><name>PT4442</name></trkpt>
<trkpt lat="54.639083" lon="-3.054200"><ele>852</ele><time>2020-08-14T12:35:03Z</time><name>PT4443</name></trkpt>
<trkpt lat="54.639105" lon="-3.054161"><ele>853</ele><time>2020-08-14T12:35:06Z</time><name>PT4444</name></trkpt>
<trkpt lat="54.639117" lon="-3.054105"><ele>854</ele><time>2020-08-14T12:35:10Z</time><name>PT4445</name></trkpt>
<trkpt lat="54.639137" lon="-3.054051"><ele>854</ele><time>2020-08-14T12:35:14Z</time><name>PT4446</name></trkpt>
<trkpt lat="54.639166" lon="-3.053997"><ele>855</ele><time>2020-08-14T12:35:18Z</time><name>PT4447</name></trkpt>
<trkpt lat="54.639192" lon="-3.053966"><ele>854</ele><time>2020-08-14T12:35:21Z</time><name>PT4448</name></trkpt>
<trkpt lat="54.639221" lon="-3.053914"><ele>855</ele><time>2020-08-14T12:35:24Z</time><name>PT4449</name></trkpt>
<trkpt lat="54.639242" lon="-3.053882"><ele>854</ele><time>2020-08-14T12:35:27Z</time><name>PT4450</name></trkpt>
<trkpt lat="54.639280" lon="-3.053847"><ele>854</ele><time>2020-08-14T12:35:30Z</time><name>PT4451</name></trkpt>
<trkpt lat="54.639309" lon="-3.053800"><ele>854</ele><time>2020-08-14T12:35:34Z</time><name>PT4452</name></trkpt>
<trkpt lat="54.639346" lon="-3.053747"><ele>855</ele><time>2020-08-14T12:35:38Z</time><name>PT4453</name></trkpt>
<trkpt lat="54.639375" lon="-3.053689"><ele>855</ele><time>2020-08-14T12:35:42Z</time><name>PT4454</name></trkpt>
<trkpt lat="54.639397" lon="-3.053654"><ele>855</ele><time>2020-08-14T12:35:45Z</time><name>PT4455</name></trkpt>
<trkpt lat="54.639434" lon="-3.053613"><ele>856</ele><time>2020-08-14T12:35:48Z</time><name>PT4456</name></trkpt>
<trkpt lat="54.639459" lon="-3.053554"><ele>856</ele><time>2020-08-14T12:35:52Z</time><name>PT4457</name></trkpt>
<trkpt lat="54.639475" lon="-3.053501"><ele>857</ele><time>2020-08-14T12:35:55Z</time><name>PT4458</name></trkpt>
<trkpt lat="54.639494" lon="-3.053466"><ele>857</ele><time>2020-08-14T12:35:58Z</time><name>PT4459</name></trkpt>
<trkpt lat="54.639526" lon="-3.053429"><ele>857</ele><time>2020-08-14T12:36:01Z</time><name>PT4460</name></trkpt>
<trkpt lat="54.639560" lon="-3.053376"><ele>856</ele><time>2020-08-14T12:36:05Z</time><name>PT4461</name></trkpt>
<trkpt lat="54.639582" lon="-3.053332"><ele>857</ele><time>2020-08-14T12:36:08Z</time><name>PT4462</name></trkpt>
<trkpt lat="54.639608" lon="-3.053259"><ele>858</ele><time>2020-08-14T12:36:12Z</time><name>PT4463</name></trkpt>
<trkpt lat="54.639635" lon="-3.053212"><ele>858</ele><time>2020-08-14T12:36:15Z</time><name>PT4464</name></trkpt>
<trkpt lat="54.639661" lon="-3.053150"><ele>859</ele><time>2020-08-14T12:36:19Z</time><name>PT4465</name></trkpt>
<trkpt lat="54.639694" lon="-3.053097"><ele>859</ele><time>2020-08-14T12:36:22Z</time><name>PT4466</name></trkpt>
<trkpt lat="54.639710" lon="-3.053055"><ele>859</ele><time>2020-08-14T12:36:25Z</time><name>PT4467</name></trkpt>
<trkpt lat="54.639751" lon="-3.052974"><ele>859</ele><time>2020-08-14T12:36:29Z</time><name>PT4468</name></trkpt>
<trkpt lat="54.639764" lon="-3.052930"><ele>859</ele><time>2020-08-14T12:36:32Z</time><name>PT4469</name></trkpt>
<trkpt lat="54.639790" lon="-3.052876"><ele>859</ele><time>2020-08-14T12:36:35Z</time><name>PT4470</name></trkpt>
<trkpt lat="54.639815" lon="-3.052809"><ele>858</ele><time>2020-08-14T12:36:39Z</time><name>PT4471</name></trkpt>
<trkpt lat="54.639836" lon="-3.052734"><ele>858</ele><time>2020-08-14T12:36:42Z</time><name>PT4472</name></trkpt>
<trkpt lat="54.639853" lon="-3.052678"><ele>858</ele><time>2020-08-14T12:36:45Z</time><name>PT4473</name></trkpt>
<trkpt lat="54.639869" lon="-3.052622"><ele>858</ele><time>2020-08-14T12:36:48Z</time><name>PT4474</name></trkpt>
<trkpt lat="54.639889" lon="-3.052558"><ele>859</ele><time>2020-08-14T12:36:51Z</time><name>PT4475</name></trkpt>
<trkpt lat="54.639897" lon="-3.052519"><ele>858</ele><time>2020-08-14T12:36:54Z</time><name>PT4476</name></trkpt>
<trkpt lat="54.639915" lon="-3.052440"><ele>859</ele><time>2020-08-14T12:36:58Z</time><name>PT4477</name></trkpt>
<trkpt lat="54.639930" lon="-3.052378"><ele>859</ele><time>2020-08-14T12:37:01Z</time><name>PT4478</name></trkpt>
<trkpt lat="54.639946" lon="-3.052321"><ele>859</ele><time>2020-08-14T12:37:04Z</time><name>PT4479</name></trkpt>
<trkpt lat="54.639965" lon="-3.052254"><ele>860</ele><time>2020-08-14T12:37:07Z</time><name>PT4480</name></trkpt>
<trkpt lat="54.639984" lon="-3.052188"><ele>860</ele><time>2020-08-14T12:37:11Z</time><name>PT4481</name></trkpt>
<trkpt lat="54.640010" lon="-3.052120"><ele>859</ele><time>2020-08-14T12:37:14Z</time><name>PT4482</name></trkpt>
<trkpt lat="54.640021" lon="-3.052076"><ele>859</ele><time>2020-08-14T12:37:17Z</time><name>PT4483</name></trkpt>
<trkpt lat="54.640029" lon="-3.052003"><ele>860</ele><time>2020-08-14T12:37:20Z</time><name>PT4484</name></trkpt>
<trkpt lat="54.640051" lon="-3.051928"><ele>860</ele><time>2020-08-14T12:37:24Z</time><name>PT4485</name></trkpt>
<trkpt lat="54.640068" lon="-3.051845"><ele>861</ele><time>2020-08-14T12:37:28Z</time><name>PT4486</name></trkpt>
<trkpt lat="54.640080" lon="-3.051786"><ele>861</ele><time>2020-08-14T12:37:32Z</time><name>PT4487</name></trkpt>
<trkpt lat="54.640084" lon="-3.051721"><ele>862</ele><time>2020-08-14T12:37:35Z</time><name>PT4488</name></trkpt>
<trkpt lat="54.640090" lon="-3.051667"><ele>862</ele><time>2020-08-14T12:37:38Z</time><name>PT4489</name></trkpt>
<trkpt lat="54.640101" lon="-3.051564"><ele>864</ele><time>2020-08-14T12:37:42Z</time><name>PT4490</name></trkpt>
<trkpt lat="54.640112" lon="-3.051505"><ele>864</ele><time>2020-08-14T12:37:45Z</time><name>PT4491</name></trkpt>
<trkpt lat="54.640124" lon="-3.051435"><ele>864</ele><time>2020-08-14T12:37:48Z</time><name>PT4492</name></trkpt>
<trkpt lat="54.640134" lon="-3.051356"><ele>865</ele><time>2020-08-14T12:37:52Z</time><name>PT4493</name></trkpt>
<trkpt lat="54.640150" lon="-3.051306"><ele>864</ele><time>2020-08-14T12:37:55Z</time><name>PT4494</name></trkpt>
<trkpt lat="54.640159" lon="-3.051208"><ele>865</ele><time>2020-08-14T12:37:59Z</time><name>PT4495</name></trkpt>
<trkpt lat="54.640167" lon="-3.051167"><ele>864</ele><time>2020-08-14T12:38:02Z</time><name>PT4496</name></trkpt>
<trkpt lat="54.640195" lon="-3.051080"><ele>863</ele><time>2020-08-14T12:38:06Z</time><name>PT4497</name></trkpt>
<trkpt lat="54.640212" lon="-3.051031"><ele>862</ele><time>2020-08-14T12:38:09Z</time><name>PT4498</name></trkpt>
<trkpt lat="54.640226" lon="-3.050958"><ele>862</ele><time>2020-08-14T12:38:12Z</time><name>PT4499</name></trkpt>
<trkpt lat="54.640221" lon="-3.050889"><ele>862</ele><time>2020-08-14T12:38:15Z</time><name>PT4500</name></trkpt>
<trkpt lat="54.640208" lon="-3.050807"><ele>862</ele><time>2020-08-14T12:38:19Z</time><name>PT4501</name></trkpt>
<trkpt lat="54.640199" lon="-3.050744"><ele>862</ele><time>2020-08-14T12:38:22Z</time><name>PT4502</name></trkpt>
<trkpt lat="54.640194" lon="-3.050691"><ele>862</ele><time>2020-08-14T12:38:25Z</time><name>PT4503</name></trkpt>
<trkpt lat="54.640190" lon="-3.050616"><ele>863</ele><time>2020-08-14T12:38:28Z</time><name>PT4504</name></trkpt>
<trkpt lat="54.640186" lon="-3.050570"><ele>863</ele><time>2020-08-14T12:38:31Z</time><name>PT4505</name></trkpt>
<trkpt lat="54.640176" lon="-3.050478"><ele>865</ele><time>2020-08-14T12:38:35Z</time><name>PT4506</name></trkpt>
<trkpt lat="54.640168" lon="-3.050419"><ele>864</ele><time>2020-08-14T12:38:39Z</time><name>PT4507</name></trkpt>
<trkpt lat="54.640164" lon="-3.050355"><ele>866</ele><time>2020-08-14T12:38:42Z</time><name>PT4508</name></trkpt>
<trkpt lat="54.640156" lon="-3.050318"><ele>865</ele><time>2020-08-14T12:38:45Z</time><name>PT4509</name></trkpt>
<trkpt lat="54.640141" lon="-3.050243"><ele>867</ele><time>2020-08-14T12:38:49Z</time><name>PT4510</name></trkpt>
<trkpt lat="54.640132" lon="-3.050205"><ele>866</ele><time>2020-08-14T12:38:52Z</time><name>PT4511</name></trkpt>
<trkpt lat="54.640117" lon="-3.050157"><ele>868</ele><time>2020-08-14T12:38:55Z</time><name>PT4512</name></trkpt>
<trkpt lat="54.640095" lon="-3.050108"><ele>869</ele><time>2020-08-14T12:38:59Z</time><name>PT4513</name></trkpt>
<trkpt lat="54.640077" lon="-3.050077"><ele>869</ele><time>2020-08-14T12:39:02Z</time><name>PT4514</name></trkpt>
<trkpt lat="54.640069" lon="-3.050050"><ele>869</ele><time>2020-08-14T12:39:05Z</time><name>PT4515</name></trkpt>
<trkpt lat="54.640055" lon="-3.050009"><ele>870</ele><time>2020-08-14T12:39:09Z</time><name>PT4516</name></trkpt>
<trkpt lat="54.640040" lon="-3.049985"><ele>870</ele><time>2020-08-14T12:39:12Z</time><name>PT4517</name></trkpt>
<trkpt lat="54.640019" lon="-3.049952"><ele>873</ele><time>2020-08-14T12:39:16Z</time><name>PT4518</name></trkpt>
<trkpt lat="54.640008" lon="-3.049917"><ele>873</ele><time>2020-08-14T12:39:19Z</time><name>PT4519</name></trkpt>
<trkpt lat="54.640001" lon="-3.049872"><ele>873</ele><time>2020-08-14T12:39:23Z</time><name>PT4520</name></trkpt>
<trkpt lat="54.639993" lon="-3.049844"><ele>873</ele><time>2020-08-14T12:39:26Z</time><name>PT4521</name></trkpt>
<trkpt lat="54.639982" lon="-3.049810"><ele>873</ele><time>2020-08-14T12:39:30Z</time><name>PT4522</name></trkpt>
<trkpt lat="54.639984" lon="-3.049804"><ele>873</ele><time>2020-08-14T12:39:34Z</time><name>PT4523</name></trkpt>
<trkpt lat="54.639983" lon="-3.049795"><ele>873</ele><time>2020-08-14T12:40:01Z</time><name>PT4524</name></trkpt>
<trkpt lat="54.639967" lon="-3.049768"><ele>874</ele><time>2020-08-14T12:40:56Z</time><name>PT4525</name></trkpt>
<trkpt lat="54.639950" lon="-3.049734"><ele>873</ele><time>2020-08-14T12:40:59Z</time><name>PT4526</name></trkpt>
<trkpt lat="54.639925" lon="-3.049706"><ele>873</ele><time>2020-08-14T12:41:02Z</time><name>PT4527</name></trkpt>
<trkpt lat="54.639898" lon="-3.049681"><ele>872</ele><time>2020-08-14T12:41:05Z</time><name>PT4528</name></trkpt>
<trkpt lat="54.639875" lon="-3.049674"><ele>871</ele><time>2020-08-14T12:41:08Z</time><name>PT4529</name></trkpt>
<trkpt lat="54.639874" lon="-3.049669"><ele>870</ele><time>2020-08-14T12:41:12Z</time><name>PT4530</name></trkpt>
<trkpt lat="54.639895" lon="-3.049685"><ele>870</ele><time>2020-08-14T12:41:26Z</time><name>PT4531</name></trkpt>
<trkpt lat="54.639921" lon="-3.049700"><ele>870</ele><time>2020-08-14T12:41:29Z</time><name>PT4532</name></trkpt>
<trkpt lat="54.639949" lon="-3.049727"><ele>870</ele><time>2020-08-14T12:41:33Z</time><name>PT4533</name></trkpt>
<trkpt lat="54.639979" lon="-3.049761"><ele>870</ele><time>2020-08-14T12:41:37Z</time><name>PT4534</name></trkpt>
<trkpt lat="54.639997" lon="-3.049790"><ele>870</ele><time>2020-08-14T12:41:40Z</time><name>PT4535</name></trkpt>
<trkpt lat="54.640019" lon="-3.049857"><ele>870</ele><time>2020-08-14T12:41:44Z</time><name>PT4536</name></trkpt>
<trkpt lat="54.640033" lon="-3.049918"><ele>868</ele><time>2020-08-14T12:41:48Z</time><name>PT4537</name></trkpt>
<trkpt lat="54.640049" lon="-3.049969"><ele>867</ele><time>2020-08-14T12:41:51Z</time><name>PT4538</name></trkpt>
<trkpt lat="54.640071" lon="-3.049994"><ele>866</ele><time>2020-08-14T12:41:54Z</time><name>PT4539</name></trkpt>
<trkpt lat="54.640087" lon="-3.050038"><ele>865</ele><time>2020-08-14T12:41:57Z</time><name>PT4540</name></trkpt>
<trkpt lat="54.640106" lon="-3.050121"><ele>865</ele><time>2020-08-14T12:42:01Z</time><name>PT4541</name></trkpt>
<trkpt lat="54.640113" lon="-3.050168"><ele>863</ele><time>2020-08-14T12:42:04Z</time><name>PT4542</name></trkpt>
<trkpt lat="54.640123" lon="-3.050222"><ele>863</ele><time>2020-08-14T12:42:07Z</time><name>PT4543</name></trkpt>
<trkpt lat="54.640141" lon="-3.050315"><ele>863</ele><time>2020-08-14T12:42:11Z</time><name>PT4544</name></trkpt>
<trkpt lat="54.640154" lon="-3.050348"><ele>862</ele><time>2020-08-14T12:42:14Z</time><name>PT4545</name></trkpt>
<trkpt lat="54.640161" lon="-3.050357"><ele>863</ele><time>2020-08-14T12:42:17Z</time><name>PT4546</name></trkpt>
<trkpt lat="54.640161" lon="-3.050357"><ele>863</ele><time>2020-08-14T12:42:21Z</time><name>PT4547</name></trkpt>
<trkpt lat="54.640164" lon="-3.050395"><ele>862</ele><time>2020-08-14T12:42:51Z</time><name>PT4548</name></trkpt>
<trkpt lat="54.640168" lon="-3.050445"><ele>861</ele><time>2020-08-14T12:42:54Z</time><name>PT4549</name></trkpt>
<trkpt lat="54.640176" lon="-3.050543"><ele>860</ele><time>2020-08-14T12:42:57Z</time><name>PT4550</name></trkpt>
<trkpt lat="54.640187" lon="-3.050595"><ele>859</ele><time>2020-08-14T12:43:00Z</time><name>PT4551</name></trkpt>
<trkpt lat="54.640185" lon="-3.050715"><ele>858</ele><time>2020-08-14T12:43:04Z</time><name>PT4552</name></trkpt>
<trkpt lat="54.640190" lon="-3.050774"><ele>857</ele><time>2020-08-14T12:43:07Z</time><name>PT4553</name></trkpt>
<trkpt lat="54.640201" lon="-3.050836"><ele>856</ele><time>2020-08-14T12:43:10Z</time><name>PT4554</name></trkpt>
<trkpt lat="54.640214" lon="-3.050924"><ele>857</ele><time>2020-08-14T12:43:13Z</time><name>PT4555</name></trkpt>
<trkpt lat="54.640221" lon="-3.050985"><ele>856</ele><time>2020-08-14T12:43:16Z</time><name>PT4556</name></trkpt>
<trkpt lat="54.640218" lon="-3.051051"><ele>857</ele><time>2020-08-14T12:43:19Z</time><name>PT4557</name></trkpt>
<trkpt lat="54.640188" lon="-3.051140"><ele>858</ele><time>2020-08-14T12:43:23Z</time><name>PT4558</name></trkpt>
<trkpt lat="54.640180" lon="-3.051209"><ele>858</ele><time>2020-08-14T12:43:27Z</time><name>PT4559</name></trkpt>
<trkpt lat="54.640177" lon="-3.051284"><ele>859</ele><time>2020-08-14T12:43:30Z</time><name>PT4560</name></trkpt>
<trkpt lat="54.640168" lon="-3.051354"><ele>859</ele><time>2020-08-14T12:43:34Z</time><name>PT4561</name></trkpt>
<trkpt lat="54.640155" lon="-3.051430"><ele>859</ele><time>2020-08-14T12:43:37Z</time><name>PT4562</name></trkpt>
<trkpt lat="54.640143" lon="-3.051503"><ele>859</ele><time>2020-08-14T12:43:41Z</time><name>PT4563</name></trkpt>
<trkpt lat="54.640128" lon="-3.051596"><ele>860</ele><time>2020-08-14T12:43:45Z</time><name>PT4564</name></trkpt>
<trkpt lat="54.640122" lon="-3.051649"><ele>859</ele><time>2020-08-14T12:43:48Z</time><name>PT4565</name></trkpt>
<trkpt lat="54.640107" lon="-3.051721"><ele>859</ele><time>2020-08-14T12:43:51Z</time><name>PT4566</name></trkpt>
<trkpt lat="54.640099" lon="-3.051799"><ele>859</ele><time>2020-08-14T12:43:55Z</time><name>PT4567</name></trkpt>
<trkpt lat="54.640073" lon="-3.051887"><ele>860</ele><time>2020-08-14T12:43:59Z</time><name>PT4568</name></trkpt>
<trkpt lat="54.640055" lon="-3.051940"><ele>859</ele><time>2020-08-14T12:44:02Z</time><name>PT4569</name></trkpt>
<trkpt lat="54.640032" lon="-3.052025"><ele>859</ele><time>2020-08-14T12:44:06Z</time><name>PT4570</name></trkpt>
<trkpt lat="54.640017" lon="-3.052096"><ele>859</ele><time>2020-08-14T12:44:10Z</time><name>PT4571</name></trkpt>
<trkpt lat="54.639991" lon="-3.052190"><ele>860</ele><time>2020-08-14T12:44:14Z</time><name>PT4572</name></trkpt>
<trkpt lat="54.639973" lon="-3.052257"><ele>860</ele><time>2020-08-14T12:44:18Z</time><name>PT4573</name></trkpt>
<trkpt lat="54.639952" lon="-3.052312"><ele>860</ele><time>2020-08-14T12:44:21Z</time><name>PT4574</name></trkpt>
<trkpt lat="54.639934" lon="-3.052402"><ele>860</ele><time>2020-08-14T12:44:25Z</time><name>PT4575</name></trkpt>
<trkpt lat="54.639921" lon="-3.052464"><ele>859</ele><time>2020-08-14T12:44:29Z</time><name>PT4576</name></trkpt>
<trkpt lat="54.639902" lon="-3.052551"><ele>859</ele><time>2020-08-14T12:44:33Z</time><name>PT4577</name></trkpt>
<trkpt lat="54.639893" lon="-3.052608"><ele>858</ele><time>2020-08-14T12:44:36Z</time><name>PT4578</name></trkpt>
<trkpt lat="54.639870" lon="-3.052680"><ele>858</ele><time>2020-08-14T12:44:39Z</time><name>PT4579</name></trkpt>
<trkpt lat="54.639853" lon="-3.052724"><ele>857</ele><time>2020-08-14T12:44:42Z</time><name>PT4580</name></trkpt>
<trkpt lat="54.639833" lon="-3.052794"><ele>858</ele><time>2020-08-14T12:44:45Z</time><name>PT4581</name></trkpt>
<trkpt lat="54.639817" lon="-3.052861"><ele>859</ele><time>2020-08-14T12:44:48Z</time><name>PT4582</name></trkpt>
<trkpt lat="54.639803" lon="-3.052905"><ele>859</ele><time>2020-08-14T12:44:51Z</time><name>PT4583</name></trkpt>
<trkpt lat="54.639773" lon="-3.052969"><ele>859</ele><time>2020-08-14T12:44:54Z</time><name>PT4584</name></trkpt>
<trkpt lat="54.639759" lon="-3.053014"><ele>858</ele><time>2020-08-14T12:44:57Z</time><name>PT4585</name></trkpt>
<trkpt lat="54.639733" lon="-3.053076"><ele>859</ele><time>2020-08-14T12:45:00Z</time><name>PT4586</name></trkpt>
<trkpt lat="54.639713" lon="-3.053126"><ele>859</ele><time>2020-08-14T12:45:03Z</time><name>PT4587</name></trkpt>
<trkpt lat="54.639691" lon="-3.053172"><ele>858</ele><time>2020-08-14T12:45:06Z</time><name>PT4588</name></trkpt>
<trkpt lat="54.639648" lon="-3.053221"><ele>859</ele><time>2020-08-14T12:45:10Z</time><name>PT4589</name></trkpt>
<trkpt lat="54.639618" lon="-3.053263"><ele>859</ele><time>2020-08-14T12:45:13Z</time><name>PT4590</name></trkpt>
<trkpt lat="54.639578" lon="-3.053323"><ele>859</ele><time>2020-08-14T12:45:17Z</time><name>PT4591</name></trkpt>
<trkpt lat="54.639549" lon="-3.053359"><ele>858</ele><time>2020-08-14T12:45:20Z</time><name>PT4592</name></trkpt>
<trkpt lat="54.639513" lon="-3.053395"><ele>858</ele><time>2020-08-14T12:45:23Z</time><name>PT4593</name></trkpt>
<trkpt lat="54.639480" lon="-3.053437"><ele>858</ele><time>2020-08-14T12:45:27Z</time><name>PT4594</name></trkpt>
<trkpt lat="54.639444" lon="-3.053479"><ele>857</ele><time>2020-08-14T12:45:30Z</time><name>PT4595</name></trkpt>
<trkpt lat="54.639419" lon="-3.053525"><ele>858</ele><time>2020-08-14T12:45:33Z</time><name>PT4596</name></trkpt>
<trkpt lat="54.639375" lon="-3.053577"><ele>858</ele><time>2020-08-14T12:45:37Z</time><name>PT4597</name></trkpt>
<trkpt lat="54.639344" lon="-3.053636"><ele>857</ele><time>2020-08-14T12:45:41Z</time><name>PT4598</name></trkpt>
<trkpt lat="54.639317" lon="-3.053691"><ele>857</ele><time>2020-08-14T12:45:44Z</time><name>PT4599</name></trkpt>
<trkpt lat="54.639291" lon="-3.053754"><ele>856</ele><time>2020-08-14T12:45:48Z</time><name>PT4600</name></trkpt>
<trkpt lat="54.639257" lon="-3.053817"><ele>856</ele><time>2020-08-14T12:45:51Z</time><name>PT4601</name></trkpt>
<trkpt lat="54.639229" lon="-3.053858"><ele>856</ele><time>2020-08-14T12:45:55Z</time><name>PT4602</name></trkpt>
<trkpt lat="54.639186" lon="-3.053913"><ele>857</ele><time>2020-08-14T12:45:59Z</time><name>PT4603</name></trkpt>
<trkpt lat="54.639158" lon="-3.053955"><ele>857</ele><time>2020-08-14T12:46:02Z</time><name>PT4604</name></trkpt>
<trkpt lat="54.639118" lon="-3.054016"><ele>857</ele><time>2020-08-14T12:46:06Z</time><name>PT4605</name></trkpt>
<trkpt lat="54.639086" lon="-3.053992"><ele>855</ele><time>2020-08-14T12:46:10Z</time><name>PT4606</name></trkpt>
<trkpt lat="54.639087" lon="-3.053983"><ele>854</ele><time>2020-08-14T12:46:13Z</time><name>PT4607</name></trkpt>
<trkpt lat="54.639076" lon="-3.054038"><ele>855</ele><time>2020-08-14T12:46:27Z</time><name>PT4608</name></trkpt>
<trkpt lat="54.639041" lon="-3.054092"><ele>855</ele><time>2020-08-14T12:46:31Z</time><name>PT4609</name></trkpt>
<trkpt lat="54.639017" lon="-3.054119"><ele>855</ele><time>2020-08-14T12:46:34Z</time><name>PT4610</name></trkpt>
<trkpt lat="54.638997" lon="-3.054149"><ele>854</ele><time>2020-08-14T12:46:37Z</time><name>PT4611</name></trkpt>
<trkpt lat="54.638973" lon="-3.054181"><ele>854</ele><time>2020-08-14T12:46:40Z</time><name>PT4612</name></trkpt>
<trkpt lat="54.638972" lon="-3.054193"><ele>853</ele><time>2020-08-14T12:46:44Z</time><name>PT4613</name></trkpt>
<trkpt lat="54.638972" lon="-3.054206"><ele>853</ele><time>2020-08-14T12:46:47Z</time><name>PT4614</name></trkpt>
<trkpt lat="54.638968" lon="-3.054262"><ele>852</ele><time>2020-08-14T12:46:51Z</time><name>PT4615</name></trkpt>
<trkpt lat="54.638952" lon="-3.054312"><ele>851</ele><time>2020-08-14T12:46:55Z</time><name>PT4616</name></trkpt>
<trkpt lat="54.638947" lon="-3.054341"><ele>850</ele><time>2020-08-14T12:46:58Z</time><name>PT4617</name></trkpt>
<trkpt lat="54.638945" lon="-3.054377"><ele>848</ele><time>2020-08-14T12:47:01Z</time><name>PT4618</name></trkpt>
<trkpt lat="54.638912" lon="-3.054458"><ele>847</ele><time>2020-08-14T12:47:05Z</time><name>PT4619</name></trkpt>
<trkpt lat="54.638880" lon="-3.054514"><ele>847</ele><time>2020-08-14T12:47:08Z</time><name>PT4620</name></trkpt>
<trkpt lat="54.638851" lon="-3.054573"><ele>847</ele><time>2020-08-14T12:47:12Z</time><name>PT4621</name></trkpt>
<trkpt lat="54.638811" lon="-3.054639"><ele>847</ele><time>2020-08-14T12:47:16Z</time><name>PT4622</name></trkpt>
<trkpt lat="54.638764" lon="-3.054702"><ele>846</ele><time>2020-08-14T12:47:20Z</time><name>PT4623</name></trkpt>
<trkpt lat="54.638744" lon="-3.054742"><ele>845</ele><time>2020-08-14T12:47:23Z</time><name>PT4624</name></trkpt>
<trkpt lat="54.638714" lon="-3.054790"><ele>844</ele><time>2020-08-14T12:47:26Z</time><name>PT4625</name></trkpt>
<trkpt lat="54.638672" lon="-3.054837"><ele>845</ele><time>2020-08-14T12:47:29Z</time><name>PT4626</name></trkpt>
<trkpt lat="54.638649" lon="-3.054879"><ele>844</ele><time>2020-08-14T12:47:32Z</time><name>PT4627</name></trkpt>
<trkpt lat="54.638608" lon="-3.054957"><ele>843</ele><time>2020-08-14T12:47:36Z</time><name>PT4628</name></trkpt>
<trkpt lat="54.638565" lon="-3.054987"><ele>842</ele><time>2020-08-14T12:47:39Z</time><name>PT4629</name></trkpt>
<trkpt lat="54.638532" lon="-3.055032"><ele>840</ele><time>2020-08-14T12:47:43Z</time><name>PT4630</name></trkpt>
<trkpt lat="54.638490" lon="-3.055064"><ele>840</ele><time>2020-08-14T12:47:46Z</time><name>PT4631</name></trkpt>
<trkpt lat="54.638442" lon="-3.055100"><ele>840</ele><time>2020-08-14T12:47:50Z</time><name>PT4632</name></trkpt>
<trkpt lat="54.638400" lon="-3.055158"><ele>839</ele><time>2020-08-14T12:47:54Z</time><name>PT4633</name></trkpt>
<trkpt lat="54.638364" lon="-3.055202"><ele>839</ele><time>2020-08-14T12:47:57Z</time><name>PT4634</name></trkpt>
<trkpt lat="54.638341" lon="-3.055237"><ele>838</ele><time>2020-08-14T12:48:00Z</time><name>PT4635</name></trkpt>
<trkpt lat="54.638303" lon="-3.055284"><ele>838</ele><time>2020-08-14T12:48:04Z</time><name>PT4636</name></trkpt>
<trkpt lat="54.638298" lon="-3.055285"><ele>838</ele><time>2020-08-14T12:48:07Z</time><name>PT4637</name></trkpt>
<trkpt lat="54.638298" lon="-3.055285"><ele>838</ele><time>2020-08-14T12:48:10Z</time><name>PT4638</name></trkpt>
<trkpt lat="54.638282" lon="-3.055325"><ele>838</ele><time>2020-08-14T12:48:14Z</time><name>PT4639</name></trkpt>
<trkpt lat="54.638249" lon="-3.055408"><ele>838</ele><time>2020-08-14T12:48:18Z</time><name>PT4640</name></trkpt>
<trkpt lat="54.638229" lon="-3.055464"><ele>837</ele><time>2020-08-14T12:48:21Z</time><name>PT4641</name></trkpt>
<trkpt lat="54.638196" lon="-3.055522"><ele>838</ele><time>2020-08-14T12:48:24Z</time><name>PT4642</name></trkpt>
<trkpt lat="54.638166" lon="-3.055589"><ele>837</ele><time>2020-08-14T12:48:28Z</time><name>PT4643</name></trkpt>
<trkpt lat="54.638138" lon="-3.055649"><ele>838</ele><time>2020-08-14T12:48:31Z</time><name>PT4644</name></trkpt>
<trkpt lat="54.638104" lon="-3.055694"><ele>838</ele><time>2020-08-14T12:48:34Z</time><name>PT4645</name></trkpt>
<trkpt lat="54.638070" lon="-3.055760"><ele>838</ele><time>2020-08-14T12:48:38Z</time><name>PT4646</name></trkpt>
<trkpt lat="54.638039" lon="-3.055843"><ele>838</ele><time>2020-08-14T12:48:42Z</time><name>PT4647</name></trkpt>
<trkpt lat="54.638013" lon="-3.055903"><ele>838</ele><time>2020-08-14T12:48:45Z</time><name>PT4648</name></trkpt>
<trkpt lat="54.637984" lon="-3.055956"><ele>839</ele><time>2020-08-14T12:48:48Z</time><name>PT4649</name></trkpt>
<trkpt lat="54.637965" lon="-3.056003"><ele>840</ele><time>2020-08-14T12:48:51Z</time><name>PT4650</name></trkpt>
<trkpt lat="54.637929" lon="-3.056091"><ele>840</ele><time>2020-08-14T12:48:55Z</time><name>PT4651</name></trkpt>
<trkpt lat="54.637906" lon="-3.056152"><ele>839</ele><time>2020-08-14T12:48:59Z</time><name>PT4652</name></trkpt>
<trkpt lat="54.637878" lon="-3.056202"><ele>840</ele><time>2020-08-14T12:49:02Z</time><name>PT4653</name></trkpt>
<trkpt lat="54.637850" lon="-3.056273"><ele>840</ele><time>2020-08-14T12:49:06Z</time><name>PT4654</name></trkpt>
<trkpt lat="54.637823" lon="-3.056329"><ele>841</ele><time>2020-08-14T12:49:09Z</time><name>PT4655</name></trkpt>
<trkpt lat="54.637802" lon="-3.056381"><ele>840</ele><time>2020-08-14T12:49:12Z</time><name>PT4656</name></trkpt>
<trkpt lat="54.637773" lon="-3.056437"><ele>841</ele><time>2020-08-14T12:49:15Z</time><name>PT4657</name></trkpt>
<trkpt lat="54.637738" lon="-3.056489"><ele>841</ele><time>2020-08-14T12:49:19Z</time><name>PT4658</name></trkpt>
<trkpt lat="54.637710" lon="-3.056546"><ele>841</ele><time>2020-08-14T12:49:22Z</time><name>PT4659</name></trkpt>
<trkpt lat="54.637688" lon="-3.056590"><ele>841</ele><time>2020-08-14T12:49:25Z</time><name>PT4660</name></trkpt>
<trkpt lat="54.637661" lon="-3.056656"><ele>841</ele><time>2020-08-14T12:49:29Z</time><name>PT4661</name></trkpt>
<trkpt lat="54.637640" lon="-3.056701"><ele>842</ele><time>2020-08-14T12:49:32Z</time><name>PT4662</name></trkpt>
<trkpt lat="54.637616" lon="-3.056764"><ele>842</ele><time>2020-08-14T12:49:36Z</time><name>PT4663</name></trkpt>
<trkpt lat="54.637588" lon="-3.056828"><ele>844</ele><time>2020-08-14T12:49:39Z</time><name>PT4664</name></trkpt>
<trkpt lat="54.637566" lon="-3.056885"><ele>843</ele><time>2020-08-14T12:49:43Z</time><name>PT4665</name></trkpt>
<trkpt lat="54.637534" lon="-3.056942"><ele>843</ele><time>2020-08-14T12:49:47Z</time><name>PT4666</name></trkpt>
<trkpt lat="54.637509" lon="-3.056985"><ele>844</ele><time>2020-08-14T12:49:50Z</time><name>PT4667</name></trkpt>
<trkpt lat="54.637489" lon="-3.057055"><ele>843</ele><time>2020-08-14T12:49:54Z</time><name>PT4668</name></trkpt>
<trkpt lat="54.637464" lon="-3.057114"><ele>843</ele><time>2020-08-14T12:49:57Z</time><name>PT4669</name></trkpt>
<trkpt lat="54.637447" lon="-3.057156"><ele>842</ele><time>2020-08-14T12:50:00Z</time><name>PT4670</name></trkpt>
<trkpt lat="54.637423" lon="-3.057219"><ele>842</ele><time>2020-08-14T12:50:03Z</time><name>PT4671</name></trkpt>
<trkpt lat="54.637416" lon="-3.057268"><ele>842</ele><time>2020-08-14T12:50:06Z</time><name>PT4672</name></trkpt>
<trkpt lat="54.637387" lon="-3.057349"><ele>843</ele><time>2020-08-14T12:50:10Z</time><name>PT4673</name></trkpt>
<trkpt lat="54.637368" lon="-3.057381"><ele>844</ele><time>2020-08-14T12:50:13Z</time><name>PT4674</name></trkpt>
<trkpt lat="54.637346" lon="-3.057449"><ele>845</ele><time>2020-08-14T12:50:17Z</time><name>PT4675</name></trkpt>
<trkpt lat="54.637323" lon="-3.057497"><ele>845</ele><time>2020-08-14T12:50:21Z</time><name>PT4676</name></trkpt>
<trkpt lat="54.637308" lon="-3.057533"><ele>846</ele><time>2020-08-14T12:50:25Z</time><name>PT4677</name></trkpt>
<trkpt lat="54.637287" lon="-3.057572"><ele>847</ele><time>2020-08-14T12:50:28Z</time><name>PT4678</name></trkpt>
<trkpt lat="54.637259" lon="-3.057607"><ele>848</ele><time>2020-08-14T12:50:32Z</time><name>PT4679</name></trkpt>
<trkpt lat="54.637243" lon="-3.057629"><ele>848</ele><time>2020-08-14T12:50:35Z</time><name>PT4680</name></trkpt>
<trkpt lat="54.637220" lon="-3.057675"><ele>848</ele><time>2020-08-14T12:50:39Z</time><name>PT4681</name></trkpt>
<trkpt lat="54.637199" lon="-3.057706"><ele>849</ele><time>2020-08-14T12:50:42Z</time><name>PT4682</name></trkpt>
<trkpt lat="54.637172" lon="-3.057753"><ele>850</ele><time>2020-08-14T12:50:46Z</time><name>PT4683</name></trkpt>
<trkpt lat="54.637148" lon="-3.057806"><ele>851</ele><time>2020-08-14T12:50:50Z</time><name>PT4684</name></trkpt>
<trkpt lat="54.637126" lon="-3.057854"><ele>851</ele><time>2020-08-14T12:50:54Z</time><name>PT4685</name></trkpt>
<trkpt lat="54.637102" lon="-3.057882"><ele>851</ele><time>2020-08-14T12:50:57Z</time><name>PT4686</name></trkpt>
<trkpt lat="54.637078" lon="-3.057922"><ele>851</ele><time>2020-08-14T12:51:00Z</time><name>PT4687</name></trkpt>
<trkpt lat="54.637059" lon="-3.057950"><ele>850</ele><time>2020-08-14T12:51:03Z</time><name>PT4688</name></trkpt>
<trkpt lat="54.637036" lon="-3.057988"><ele>851</ele><time>2020-08-14T12:51:07Z</time><name>PT4689</name></trkpt>
<trkpt lat="54.637017" lon="-3.058026"><ele>851</ele><time>2020-08-14T12:51:10Z</time><name>PT4690</name></trkpt>
<trkpt lat="54.636986" lon="-3.058082"><ele>851</ele><time>2020-08-14T12:51:14Z</time><name>PT4691</name></trkpt>
<trkpt lat="54.636972" lon="-3.058108"><ele>852</ele><time>2020-08-14T12:51:17Z</time><name>PT4692</name></trkpt>
<trkpt lat="54.636952" lon="-3.058141"><ele>852</ele><time>2020-08-14T12:51:20Z</time><name>PT4693</name></trkpt>
<trkpt lat="54.636932" lon="-3.058200"><ele>851</ele><time>2020-08-14T12:51:24Z</time><name>PT4694</name></trkpt>
<trkpt lat="54.636906" lon="-3.058276"><ele>851</ele><time>2020-08-14T12:51:28Z</time><name>PT4695</name></trkpt>
<trkpt lat="54.636873" lon="-3.058334"><ele>852</ele><time>2020-08-14T12:51:32Z</time><name>PT4696</name></trkpt>
<trkpt lat="54.636841" lon="-3.058385"><ele>853</ele><time>2020-08-14T12:51:36Z</time><name>PT4697</name></trkpt>
<trkpt lat="54.636823" lon="-3.058451"><ele>853</ele><time>2020-08-14T12:51:40Z</time><name>PT4698</name></trkpt>
<trkpt lat="54.636799" lon="-3.058512"><ele>854</ele><time>2020-08-14T12:51:44Z</time><name>PT4699</name></trkpt>
<trkpt lat="54.636775" lon="-3.058567"><ele>854</ele><time>2020-08-14T12:51:47Z</time><name>PT4700</name></trkpt>
<trkpt lat="54.636754" lon="-3.058634"><ele>854</ele><time>2020-08-14T12:51:51Z</time><name>PT4701</name></trkpt>
<trkpt lat="54.636748" lon="-3.058686"><ele>853</ele><time>2020-08-14T12:51:54Z</time><name>PT4702</name></trkpt>
<trkpt lat="54.636742" lon="-3.058739"><ele>853</ele><time>2020-08-14T12:51:58Z</time><name>PT4703</name></trkpt>
<trkpt lat="54.636729" lon="-3.058809"><ele>852</ele><time>2020-08-14T12:52:02Z</time><name>PT4704</name></trkpt>
<trkpt lat="54.636720" lon="-3.058866"><ele>851</ele><time>2020-08-14T12:52:05Z</time><name>PT4705</name></trkpt>
<trkpt lat="54.636713" lon="-3.058917"><ele>850</ele><time>2020-08-14T12:52:09Z</time><name>PT4706</name></trkpt>
<trkpt lat="54.636701" lon="-3.058970"><ele>849</ele><time>2020-08-14T12:52:12Z</time><name>PT4707</name></trkpt>
<trkpt lat="54.636681" lon="-3.059012"><ele>848</ele><time>2020-08-14T12:52:15Z</time><name>PT4708</name></trkpt>
<trkpt lat="54.636674" lon="-3.059070"><ele>848</ele><time>2020-08-14T12:52:19Z</time><name>PT4709</name></trkpt>
<trkpt lat="54.636657" lon="-3.059118"><ele>847</ele><time>2020-08-14T12:52:22Z</time><name>PT4710</name></trkpt>
<trkpt lat="54.636650" lon="-3.059155"><ele>847</ele><time>2020-08-14T12:52:25Z</time><name>PT4711</name></trkpt>
<trkpt lat="54.636637" lon="-3.059235"><ele>847</ele><time>2020-08-14T12:52:29Z</time><name>PT4712</name></trkpt>
<trkpt lat="54.636625" lon="-3.059298"><ele>846</ele><time>2020-08-14T12:52:33Z</time><name>PT4713</name></trkpt>
<trkpt lat="54.636609" lon="-3.059348"><ele>845</ele><time>2020-08-14T12:52:36Z</time><name>PT4714</name></trkpt>
<trkpt lat="54.636601" lon="-3.059391"><ele>844</ele><time>2020-08-14T12:52:39Z</time><name>PT4715</name></trkpt>
<trkpt lat="54.636582" lon="-3.059445"><ele>845</ele><time>2020-08-14T12:52:42Z</time><name>PT4716</name></trkpt>
<trkpt lat="54.636564" lon="-3.059507"><ele>844</ele><time>2020-08-14T12:52:45Z</time><name>PT4717</name></trkpt>
<trkpt lat="54.636545" lon="-3.059570"><ele>843</ele><time>2020-08-14T12:52:49Z</time><name>PT4718</name></trkpt>
<trkpt lat="54.636524" lon="-3.059637"><ele>844</ele><time>2020-08-14T12:52:52Z</time><name>PT4719</name></trkpt>
<trkpt lat="54.636518" lon="-3.059683"><ele>843</ele><time>2020-08-14T12:52:55Z</time><name>PT4720</name></trkpt>
<trkpt lat="54.636502" lon="-3.059722"><ele>842</ele><time>2020-08-14T12:52:58Z</time><name>PT4721</name></trkpt>
<trkpt lat="54.636497" lon="-3.059731"><ele>842</ele><time>2020-08-14T12:52:59Z</time><name>PT4722</name></trkpt>
<trkpt lat="54.636490" lon="-3.059743"><ele>842</ele><time>2020-08-14T12:53:00Z</time><name>PT4723</name></trkpt>
<trkpt lat="54.636484" lon="-3.059755"><ele>842</ele><time>2020-08-14T12:53:01Z</time><name>PT4724</name></trkpt>
<trkpt lat="54.636480" lon="-3.059770"><ele>842</ele><time>2020-08-14T12:53:02Z</time><name>PT4725</name></trkpt>
<trkpt lat="54.636476" lon="-3.059786"><ele>842</ele><time>2020-08-14T12:53:03Z</time><name>PT4726</name></trkpt>
<trkpt lat="54.636473" lon="-3.059803"><ele>841</ele><time>2020-08-14T12:53:04Z</time><name>PT4727</name></trkpt>
<trkpt lat="54.636469" lon="-3.059817"><ele>841</ele><time>2020-08-14T12:53:05Z</time><name>PT4728</name></trkpt>
<trkpt lat="54.636463" lon="-3.059829"><ele>841</ele><time>2020-08-14T12:53:06Z</time><name>PT4729</name></trkpt>
<trkpt lat="54.636457" lon="-3.059843"><ele>840</ele><time>2020-08-14T12:53:07Z</time><name>PT4730</name></trkpt>
<trkpt lat="54.636450" lon="-3.059860"><ele>840</ele><time>2020-08-14T12:53:08Z</time><name>PT4731</name></trkpt>
<trkpt lat="54.636443" lon="-3.059873"><ele>840</ele><time>2020-08-14T12:53:09Z</time><name>PT4732</name></trkpt>
<trkpt lat="54.636438" lon="-3.059886"><ele>840</ele><time>2020-08-14T12:53:10Z</time><name>PT4733</name></trkpt>
<trkpt lat="54.636433" lon="-3.059903"><ele>840</ele><time>2020-08-14T12:53:11Z</time><name>PT4734</name></trkpt>
<trkpt lat="54.636426" lon="-3.059923"><ele>840</ele><time>2020-08-14T12:53:12Z</time><name>PT4735</name></trkpt>
<trkpt lat="54.636422" lon="-3.059942"><ele>840</ele><time>2020-08-14T12:53:13Z</time><name>PT4736</name></trkpt>
<trkpt lat="54.636414" lon="-3.059963"><ele>840</ele><time>2020-08-14T12:53:14Z</time><name>PT4737</name></trkpt>
<trkpt lat="54.636405" lon="-3.059983"><ele>839</ele><time>2020-08-14T12:53:15Z</time><name>PT4738</name></trkpt>
<trkpt lat="54.636397" lon="-3.060002"><ele>839</ele><time>2020-08-14T12:53:16Z</time><name>PT4739</name></trkpt>
<trkpt lat="54.636391" lon="-3.060012"><ele>839</ele><time>2020-08-14T12:53:17Z</time><name>PT4740</name></trkpt>
<trkpt lat="54.636390" lon="-3.060024"><ele>839</ele><time>2020-08-14T12:53:18Z</time><name>PT4741</name></trkpt>
<trkpt lat="54.636389" lon="-3.060038"><ele>839</ele><time>2020-08-14T12:53:19Z</time><name>PT4742</name></trkpt>
<trkpt lat="54.636381" lon="-3.060051"><ele>839</ele><time>2020-08-14T12:53:20Z</time><name>PT4743</name></trkpt>
<trkpt lat="54.636373" lon="-3.060065"><ele>839</ele><time>2020-08-14T12:53:21Z</time><name>PT4744</name></trkpt>
<trkpt lat="54.636367" lon="-3.060083"><ele>838</ele><time>2020-08-14T12:53:22Z</time><name>PT4745</name></trkpt>
<trkpt lat="54.636361" lon="-3.060104"><ele>838</ele><time>2020-08-14T12:53:23Z</time><name>PT4746</name></trkpt>
<trkpt lat="54.636355" lon="-3.060126"><ele>837</ele><time>2020-08-14T12:53:24Z</time><name>PT4747</name></trkpt>
<trkpt lat="54.636352" lon="-3.060139"><ele>836</ele><time>2020-08-14T12:53:25Z</time><name>PT4748</name></trkpt>
<trkpt lat="54.636349" lon="-3.060148"><ele>836</ele><time>2020-08-14T12:53:26Z</time><name>PT4749</name></trkpt>
<trkpt lat="54.636345" lon="-3.060160"><ele>836</ele><time>2020-08-14T12:53:27Z</time><name>PT4750</name></trkpt>
<trkpt lat="54.636337" lon="-3.060173"><ele>835</ele><time>2020-08-14T12:53:28Z</time><name>PT4751</name></trkpt>
<trkpt lat="54.636331" lon="-3.060188"><ele>835</ele><time>2020-08-14T12:53:29Z</time><name>PT4752</name></trkpt>
<trkpt lat="54.636325" lon="-3.060210"><ele>835</ele><time>2020-08-14T12:53:30Z</time><name>PT4753</name></trkpt>
<trkpt lat="54.636317" lon="-3.060231"><ele>835</ele><time>2020-08-14T12:53:31Z</time><name>PT4754</name></trkpt>
<trkpt lat="54.636311" lon="-3.060246"><ele>835</ele><time>2020-08-14T12:53:32Z</time><name>PT4755</name></trkpt>
<trkpt lat="54.636308" lon="-3.060259"><ele>836</ele><time>2020-08-14T12:53:33Z</time><name>PT4756</name></trkpt>
<trkpt lat="54.636306" lon="-3.060277"><ele>836</ele><time>2020-08-14T12:53:34Z</time><name>PT4757</name></trkpt>
<trkpt lat="54.636302" lon="-3.060296"><ele>836</ele><time>2020-08-14T12:53:35Z</time><name>PT4758</name></trkpt>
<trkpt lat="54.636297" lon="-3.060312"><ele>836</ele><time>2020-08-14T12:53:36Z</time><name>PT4759</name></trkpt>
<trkpt lat="54.636291" lon="-3.060333"><ele>836</ele><time>2020-08-14T12:53:37Z</time><name>PT4760</name></trkpt>
<trkpt lat="54.636282" lon="-3.060352"><ele>835</ele><time>2020-08-14T12:53:38Z</time><name>PT4761</name></trkpt>
<trkpt lat="54.636274" lon="-3.060366"><ele>835</ele><time>2020-08-14T12:53:39Z</time><name>PT4762</name></trkpt>
<trkpt lat="54.636272" lon="-3.060378"><ele>835</ele><time>2020-08-14T12:53:40Z</time><name>PT4763</name></trkpt>
<trkpt lat="54.636272" lon="-3.060396"><ele>835</ele><time>2020-08-14T12:53:41Z</time><name>PT4764</name></trkpt>
<trkpt lat="54.636266" lon="-3.060408"><ele>836</ele><time>2020-08-14T12:53:42Z</time><name>PT4765</name></trkpt>
<trkpt lat="54.636258" lon="-3.060421"><ele>836</ele><time>2020-08-14T12:53:43Z</time><name>PT4766</name></trkpt>
<trkpt lat="54.636249" lon="-3.060435"><ele>836</ele><time>2020-08-14T12:53:44Z</time><name>PT4767</name></trkpt>
<trkpt lat="54.636243" lon="-3.060454"><ele>836</ele><time>2020-08-14T12:53:45Z</time><name>PT4768</name></trkpt>
<trkpt lat="54.636235" lon="-3.060467"><ele>835</ele><time>2020-08-14T12:53:46Z</time><name>PT4769</name></trkpt>
<trkpt lat="54.636230" lon="-3.060477"><ele>835</ele><time>2020-08-14T12:53:47Z</time><name>PT4770</name></trkpt>
<trkpt lat="54.636227" lon="-3.060485"><ele>835</ele><time>2020-08-14T12:53:48Z</time><name>PT4771</name></trkpt>
<trkpt lat="54.636223" lon="-3.060496"><ele>835</ele><time>2020-08-14T12:53:49Z</time><name>PT4772</name></trkpt>
<trkpt lat="54.636216" lon="-3.060505"><ele>834</ele><time>2020-08-14T12:53:50Z</time><name>PT4773</name></trkpt>
<trkpt lat="54.636211" lon="-3.060516"><ele>833</ele><time>2020-08-14T12:53:51Z</time><name>PT4774</name></trkpt>
<trkpt lat="54.636205" lon="-3.060528"><ele>833</ele><time>2020-08-14T12:53:52Z</time><name>PT4775</name></trkpt>
<trkpt lat="54.636197" lon="-3.060540"><ele>832</ele><time>2020-08-14T12:53:53Z</time><name>PT4776</name></trkpt>
<trkpt lat="54.636190" lon="-3.060552"><ele>832</ele><time>2020-08-14T12:53:54Z</time><name>PT4777</name></trkpt>
<trkpt lat="54.636185" lon="-3.060565"><ele>832</ele><time>2020-08-14T12:53:55Z</time><name>PT4778</name></trkpt>
<trkpt lat="54.636179" lon="-3.060579"><ele>831</ele><time>2020-08-14T12:53:56Z</time><name>PT4779</name></trkpt>
<trkpt lat="54.636174" lon="-3.060592"><ele>830</ele><time>2020-08-14T12:53:57Z</time><name>PT4780</name></trkpt>
<trkpt lat="54.636172" lon="-3.060609"><ele>831</ele><time>2020-08-14T12:53:58Z</time><name>PT4781</name></trkpt>
<trkpt lat="54.636169" lon="-3.060621"><ele>831</ele><time>2020-08-14T12:53:59Z</time><name>PT4782</name></trkpt>
<trkpt lat="54.636166" lon="-3.060632"><ele>831</ele><time>2020-08-14T12:54:00Z</time><name>PT4783</name></trkpt>
<trkpt lat="54.636159" lon="-3.060641"><ele>830</ele><time>2020-08-14T12:54:01Z</time><name>PT4784</name></trkpt>
<trkpt lat="54.636154" lon="-3.060655"><ele>830</ele><time>2020-08-14T12:54:02Z</time><name>PT4785</name></trkpt>
<trkpt lat="54.636149" lon="-3.060669"><ele>830</ele><time>2020-08-14T12:54:03Z</time><name>PT4786</name></trkpt>
<trkpt lat="54.636145" lon="-3.060681"><ele>830</ele><time>2020-08-14T12:54:04Z</time><name>PT4787</name></trkpt>
<trkpt lat="54.636142" lon="-3.060681"><ele>830</ele><time>2020-08-14T12:54:05Z</time><name>PT4788</name></trkpt>
<trkpt lat="54.636142" lon="-3.060682"><ele>830</ele><time>2020-08-14T12:54:06Z</time><name>PT4789</name></trkpt>
<trkpt lat="54.636142" lon="-3.060682"><ele>829</ele><time>2020-08-14T12:54:07Z</time><name>PT4790</name></trkpt>
<trkpt lat="54.636142" lon="-3.060682"><ele>830</ele><time>2020-08-14T12:54:08Z</time><name>PT4791</name></trkpt>
<trkpt lat="54.636136" lon="-3.060683"><ele>829</ele><time>2020-08-14T12:54:17Z</time><name>PT4792</name></trkpt>
<trkpt lat="54.636132" lon="-3.060685"><ele>829</ele><time>2020-08-14T12:54:18Z</time><name>PT4793</name></trkpt>
<trkpt lat="54.636131" lon="-3.060698"><ele>829</ele><time>2020-08-14T12:54:19Z</time><name>PT4794</name></trkpt>
<trkpt lat="54.636125" lon="-3.060718"><ele>829</ele><time>2020-08-14T12:54:20Z</time><name>PT4795</name></trkpt>
<trkpt lat="54.636120" lon="-3.060737"><ele>829</ele><time>2020-08-14T12:54:21Z</time><name>PT4796</name></trkpt>
<trkpt lat="54.636115" lon="-3.060753"><ele>829</ele><time>2020-08-14T12:54:22Z</time><name>PT4797</name></trkpt>
<trkpt lat="54.636110" lon="-3.060770"><ele>829</ele><time>2020-08-14T12:54:23Z</time><name>PT4798</name></trkpt>
<trkpt lat="54.636105" lon="-3.060786"><ele>829</ele><time>2020-08-14T12:54:24Z</time><name>PT4799</name></trkpt>
<trkpt lat="54.636101" lon="-3.060795"><ele>829</ele><time>2020-08-14T12:54:25Z</time><name>PT4800</name></trkpt>
<trkpt lat="54.636095" lon="-3.060803"><ele>829</ele><time>2020-08-14T12:54:26Z</time><name>PT4801</name></trkpt>
<trkpt lat="54.636088" lon="-3.060811"><ele>828</ele><time>2020-08-14T12:54:27Z</time><name>PT4802</name></trkpt>
<trkpt lat="54.636085" lon="-3.060815"><ele>828</ele><time>2020-08-14T12:54:28Z</time><name>PT4803</name></trkpt>
<trkpt lat="54.636082" lon="-3.060823"><ele>827</ele><time>2020-08-14T12:54:29Z</time><name>PT4804</name></trkpt>
<trkpt lat="54.636077" lon="-3.060835"><ele>827</ele><time>2020-08-14T12:54:30Z</time><name>PT4805</name></trkpt>
<trkpt lat="54.636070" lon="-3.060849"><ele>827</ele><time>2020-08-14T12:54:31Z</time><name>PT4806</name></trkpt>
<trkpt lat="54.636061" lon="-3.060864"><ele>827</ele><time>2020-08-14T12:54:32Z</time><name>PT4807</name></trkpt>
<trkpt lat="54.636054" lon="-3.060878"><ele>827</ele><time>2020-08-14T12:54:33Z</time><name>PT4808</name></trkpt>
<trkpt lat="54.636050" lon="-3.060891"><ele>826</ele><time>2020-08-14T12:54:34Z</time><name>PT4809</name></trkpt>
<trkpt lat="54.636048" lon="-3.060897"><ele>826</ele><time>2020-08-14T12:54:35Z</time><name>PT4810</name></trkpt>
<trkpt lat="54.636047" lon="-3.060897"><ele>826</ele><time>2020-08-14T12:54:36Z</time><name>PT4811</name></trkpt>
<trkpt lat="54.636046" lon="-3.060904"><ele>826</ele><time>2020-08-14T12:54:37Z</time><name>PT4812</name></trkpt>
<trkpt lat="54.636043" lon="-3.060909"><ele>826</ele><time>2020-08-14T12:54:38Z</time><name>PT4813</name></trkpt>
<trkpt lat="54.636037" lon="-3.060909"><ele>826</ele><time>2020-08-14T12:54:39Z</time><name>PT4814</name></trkpt>
<trkpt lat="54.636030" lon="-3.060909"><ele>826</ele><time>2020-08-14T12:54:40Z</time><name>PT4815</name></trkpt>
<trkpt lat="54.636025" lon="-3.060912"><ele>826</ele><time>2020-08-14T12:54:41Z</time><name>PT4816</name></trkpt>
<trkpt lat="54.636021" lon="-3.060918"><ele>826</ele><time>2020-08-14T12:54:42Z</time><name>PT4817</name></trkpt>
<trkpt lat="54.636015" lon="-3.060927"><ele>826</ele><time>2020-08-14T12:54:43Z</time><name>PT4818</name></trkpt>
<trkpt lat="54.636008" lon="-3.060941"><ele>826</ele><time>2020-08-14T12:54:44Z</time><name>PT4819</name></trkpt>
<trkpt lat="54.636002" lon="-3.060953"><ele>826</ele><time>2020-08-14T12:54:45Z</time><name>PT4820</name></trkpt>
<trkpt lat="54.635997" lon="-3.060972"><ele>826</ele><time>2020-08-14T12:54:46Z</time><name>PT4821</name></trkpt>
<trkpt lat="54.635996" lon="-3.060983"><ele>826</ele><time>2020-08-14T12:54:47Z</time><name>PT4822</name></trkpt>
<trkpt lat="54.635994" lon="-3.060993"><ele>827</ele><time>2020-08-14T12:54:48Z</time><name>PT4823</name></trkpt>
<trkpt lat="54.635990" lon="-3.061004"><ele>827</ele><time>2020-08-14T12:54:49Z</time><name>PT4824</name></trkpt>
<trkpt lat="54.635983" lon="-3.061021"><ele>827</ele><time>2020-08-14T12:54:50Z</time><name>PT4825</name></trkpt>
<trkpt lat="54.635979" lon="-3.061036"><ele>827</ele><time>2020-08-14T12:54:51Z</time><name>PT4826</name></trkpt>
<trkpt lat="54.635974" lon="-3.061051"><ele>827</ele><time>2020-08-14T12:54:52Z</time><name>PT4827</name></trkpt>
<trkpt lat="54.635965" lon="-3.061074"><ele>827</ele><time>2020-08-14T12:54:53Z</time><name>PT4828</name></trkpt>
<trkpt lat="54.635959" lon="-3.061099"><ele>826</ele><time>2020-08-14T12:54:54Z</time><name>PT4829</name></trkpt>
<trkpt lat="54.635959" lon="-3.061125"><ele>825</ele><time>2020-08-14T12:54:55Z</time><name>PT4830</name></trkpt>
<trkpt lat="54.635958" lon="-3.061153"><ele>825</ele><time>2020-08-14T12:54:56Z</time><name>PT4831</name></trkpt>
<trkpt lat="54.635954" lon="-3.061184"><ele>825</ele><time>2020-08-14T12:54:57Z</time><name>PT4832</name></trkpt>
<trkpt lat="54.635949" lon="-3.061205"><ele>824</ele><time>2020-08-14T12:54:58Z</time><name>PT4833</name></trkpt>
<trkpt lat="54.635943" lon="-3.061216"><ele>824</ele><time>2020-08-14T12:54:59Z</time><name>PT4834</name></trkpt>
<trkpt lat="54.635939" lon="-3.061226"><ele>824</ele><time>2020-08-14T12:55:00Z</time><name>PT4835</name></trkpt>
<trkpt lat="54.635934" lon="-3.061242"><ele>824</ele><time>2020-08-14T12:55:01Z</time><name>PT4836</name></trkpt>
<trkpt lat="54.635928" lon="-3.061258"><ele>824</ele><time>2020-08-14T12:55:02Z</time><name>PT4837</name></trkpt>
<trkpt lat="54.635918" lon="-3.061271"><ele>824</ele><time>2020-08-14T12:55:03Z</time><name>PT4838</name></trkpt>
<trkpt lat="54.635907" lon="-3.061283"><ele>824</ele><time>2020-08-14T12:55:04Z</time><name>PT4839</name></trkpt>
<trkpt lat="54.635897" lon="-3.061297"><ele>824</ele><time>2020-08-14T12:55:05Z</time><name>PT4840</name></trkpt>
<trkpt lat="54.635888" lon="-3.061311"><ele>825</ele><time>2020-08-14T12:55:06Z</time><name>PT4841</name></trkpt>
<trkpt lat="54.635883" lon="-3.061320"><ele>825</ele><time>2020-08-14T12:55:07Z</time><name>PT4842</name></trkpt>
<trkpt lat="54.635880" lon="-3.061332"><ele>825</ele><time>2020-08-14T12:55:08Z</time><name>PT4843</name></trkpt>
<trkpt lat="54.635875" lon="-3.061352"><ele>826</ele><time>2020-08-14T12:55:09Z</time><name>PT4844</name></trkpt>
<trkpt lat="54.635872" lon="-3.061378"><ele>826</ele><time>2020-08-14T12:55:10Z</time><name>PT4845</name></trkpt>
<trkpt lat="54.635872" lon="-3.061403"><ele>825</ele><time>2020-08-14T12:55:11Z</time><name>PT4846</name></trkpt>
<trkpt lat="54.635872" lon="-3.061419"><ele>826</ele><time>2020-08-14T12:55:12Z</time><name>PT4847</name></trkpt>
<trkpt lat="54.635872" lon="-3.061437"><ele>825</ele><time>2020-08-14T12:55:13Z</time><name>PT4848</name></trkpt>
<trkpt lat="54.635874" lon="-3.061458"><ele>825</ele><time>2020-08-14T12:55:14Z</time><name>PT4849</name></trkpt>
<trkpt lat="54.635872" lon="-3.061481"><ele>824</ele><time>2020-08-14T12:55:15Z</time><name>PT4850</name></trkpt>
<trkpt lat="54.635867" lon="-3.061505"><ele>824</ele><time>2020-08-14T12:55:16Z</time><name>PT4851</name></trkpt>
<trkpt lat="54.635867" lon="-3.061533"><ele>824</ele><time>2020-08-14T12:55:17Z</time><name>PT4852</name></trkpt>
<trkpt lat="54.635861" lon="-3.061560"><ele>824</ele><time>2020-08-14T12:55:18Z</time><name>PT4853</name></trkpt>
<trkpt lat="54.635855" lon="-3.061578"><ele>825</ele><time>2020-08-14T12:55:19Z</time><name>PT4854</name></trkpt>
<trkpt lat="54.635851" lon="-3.061593"><ele>825</ele><time>2020-08-14T12:55:20Z</time><name>PT4855</name></trkpt>
<trkpt lat="54.635846" lon="-3.061609"><ele>825</ele><time>2020-08-14T12:55:21Z</time><name>PT4856</name></trkpt>
<trkpt lat="54.635841" lon="-3.061630"><ele>824</ele><time>2020-08-14T12:55:22Z</time><name>PT4857</name></trkpt>
<trkpt lat="54.635834" lon="-3.061649"><ele>824</ele><time>2020-08-14T12:55:23Z</time><name>PT4858</name></trkpt>
<trkpt lat="54.635827" lon="-3.061669"><ele>824</ele><time>2020-08-14T12:55:24Z</time><name>PT4859</name></trkpt>
<trkpt lat="54.635824" lon="-3.061683"><ele>823</ele><time>2020-08-14T12:55:25Z</time><name>PT4860</name></trkpt>
<trkpt lat="54.635822" lon="-3.061690"><ele>823</ele><time>2020-08-14T12:55:26Z</time><name>PT4861</name></trkpt>
<trkpt lat="54.635819" lon="-3.061700"><ele>824</ele><time>2020-08-14T12:55:27Z</time><name>PT4862</name></trkpt>
<trkpt lat="54.635814" lon="-3.061712"><ele>824</ele><time>2020-08-14T12:55:28Z</time><name>PT4863</name></trkpt>
<trkpt lat="54.635808" lon="-3.061733"><ele>823</ele><time>2020-08-14T12:55:29Z</time><name>PT4864</name></trkpt>
<trkpt lat="54.635802" lon="-3.061755"><ele>823</ele><time>2020-08-14T12:55:30Z</time><name>PT4865</name></trkpt>
<trkpt lat="54.635798" lon="-3.061770"><ele>823</ele><time>2020-08-14T12:55:31Z</time><name>PT4866</name></trkpt>
<trkpt lat="54.635793" lon="-3.061783"><ele>823</ele><time>2020-08-14T12:55:32Z</time><name>PT4867</name></trkpt>
<trkpt lat="54.635788" lon="-3.061803"><ele>823</ele><time>2020-08-14T12:55:33Z</time><name>PT4868</name></trkpt>
<trkpt lat="54.635783" lon="-3.061823"><ele>822</ele><time>2020-08-14T12:55:34Z</time><name>PT4869</name></trkpt>
<trkpt lat="54.635778" lon="-3.061843"><ele>822</ele><time>2020-08-14T12:55:35Z</time><name>PT4870</name></trkpt>
<trkpt lat="54.635770" lon="-3.061857"><ele>822</ele><time>2020-08-14T12:55:36Z</time><name>PT4871</name></trkpt>
<trkpt lat="54.635767" lon="-3.061867"><ele>822</ele><time>2020-08-14T12:55:37Z</time><name>PT4872</name></trkpt>
<trkpt lat="54.635764" lon="-3.061881"><ele>822</ele><time>2020-08-14T12:55:38Z</time><name>PT4873</name></trkpt>
<trkpt lat="54.635758" lon="-3.061901"><ele>822</ele><time>2020-08-14T12:55:39Z</time><name>PT4874</name></trkpt>
<trkpt lat="54.635747" lon="-3.061918"><ele>823</ele><time>2020-08-14T12:55:40Z</time><name>PT4875</name></trkpt>
<trkpt lat="54.635735" lon="-3.061928"><ele>823</ele><time>2020-08-14T12:55:41Z</time><name>PT4876</name></trkpt>
<trkpt lat="54.635728" lon="-3.061939"><ele>823</ele><time>2020-08-14T12:55:42Z</time><name>PT4877</name></trkpt>
<trkpt lat="54.635725" lon="-3.061953"><ele>823</ele><time>2020-08-14T12:55:43Z</time><name>PT4878</name></trkpt>
<trkpt lat="54.635720" lon="-3.061971"><ele>823</ele><time>2020-08-14T12:55:44Z</time><name>PT4879</name></trkpt>
<trkpt lat="54.635713" lon="-3.061989"><ele>822</ele><time>2020-08-14T12:55:45Z</time><name>PT4880</name></trkpt>
<trkpt lat="54.635702" lon="-3.062009"><ele>822</ele><time>2020-08-14T12:55:46Z</time><name>PT4881</name></trkpt>
<trkpt lat="54.635692" lon="-3.062033"><ele>822</ele><time>2020-08-14T12:55:47Z</time><name>PT4882</name></trkpt>
<trkpt lat="54.635681" lon="-3.062049"><ele>822</ele><time>2020-08-14T12:55:48Z</time><name>PT4883</name></trkpt>
<trkpt lat="54.635673" lon="-3.062056"><ele>821</ele><time>2020-08-14T12:55:49Z</time><name>PT4884</name></trkpt>
<trkpt lat="54.635669" lon="-3.062069"><ele>821</ele><time>2020-08-14T12:55:50Z</time><name>PT4885</name></trkpt>
<trkpt lat="54.635663" lon="-3.062089"><ele>821</ele><time>2020-08-14T12:55:51Z</time><name>PT4886</name></trkpt>
<trkpt lat="54.635658" lon="-3.062115"><ele>821</ele><time>2020-08-14T12:55:52Z</time><name>PT4887</name></trkpt>
<trkpt lat="54.635650" lon="-3.062132"><ele>821</ele><time>2020-08-14T12:55:53Z</time><name>PT4888</name></trkpt>
<trkpt lat="54.635641" lon="-3.062152"><ele>821</ele><time>2020-08-14T12:55:54Z</time><name>PT4889</name></trkpt>
<trkpt lat="54.635632" lon="-3.062166"><ele>820</ele><time>2020-08-14T12:55:55Z</time><name>PT4890</name></trkpt>
<trkpt lat="54.635628" lon="-3.062176"><ele>820</ele><time>2020-08-14T12:55:56Z</time><name>PT4891</name></trkpt>
<trkpt lat="54.635624" lon="-3.062189"><ele>820</ele><time>2020-08-14T12:55:57Z</time><name>PT4892</name></trkpt>
<trkpt lat="54.635610" lon="-3.062239"><ele>819</ele><time>2020-08-14T12:56:00Z</time><name>PT4893</name></trkpt>
<trkpt lat="54.635595" lon="-3.062305"><ele>819</ele><time>2020-08-14T12:56:03Z</time><name>PT4894</name></trkpt>
<trkpt lat="54.635577" lon="-3.062373"><ele>818</ele><time>2020-08-14T12:56:07Z</time><name>PT4895</name></trkpt>
<trkpt lat="54.635562" lon="-3.062436"><ele>817</ele><time>2020-08-14T12:56:10Z</time><name>PT4896</name></trkpt>
<trkpt lat="54.635551" lon="-3.062479"><ele>818</ele><time>2020-08-14T12:56:13Z</time><name>PT4897</name></trkpt>
<trkpt lat="54.635539" lon="-3.062561"><ele>818</ele><time>2020-08-14T12:56:17Z</time><name>PT4898</name></trkpt>
<trkpt lat="54.635526" lon="-3.062616"><ele>818</ele><time>2020-08-14T12:56:20Z</time><name>PT4899</name></trkpt>
<trkpt lat="54.635515" lon="-3.062649"><ele>816</ele><time>2020-08-14T12:56:23Z</time><name>PT4900</name></trkpt>
<trkpt lat="54.635497" lon="-3.062694"><ele>816</ele><time>2020-08-14T12:56:26Z</time><name>PT4901</name></trkpt>
<trkpt lat="54.635487" lon="-3.062746"><ele>817</ele><time>2020-08-14T12:56:30Z</time><name>PT4902</name></trkpt>
<trkpt lat="54.635473" lon="-3.062792"><ele>816</ele><time>2020-08-14T12:56:33Z</time><name>PT4903</name></trkpt>
<trkpt lat="54.635463" lon="-3.062853"><ele>816</ele><time>2020-08-14T12:56:36Z</time><name>PT4904</name></trkpt>
<trkpt lat="54.635457" lon="-3.062894"><ele>816</ele><time>2020-08-14T12:56:39Z</time><name>PT4905</name></trkpt>
<trkpt lat="54.635450" lon="-3.062962"><ele>815</ele><time>2020-08-14T12:56:43Z</time><name>PT4906</name></trkpt>
<trkpt lat="54.635442" lon="-3.063021"><ele>814</ele><time>2020-08-14T12:56:46Z</time><name>PT4907</name></trkpt>
<trkpt lat="54.635434" lon="-3.063077"><ele>814</ele><time>2020-08-14T12:56:50Z</time><name>PT4908</name></trkpt>
<trkpt lat="54.635426" lon="-3.063150"><ele>814</ele><time>2020-08-14T12:56:54Z</time><name>PT4909</name></trkpt>
<trkpt lat="54.635419" lon="-3.063198"><ele>812</ele><time>2020-08-14T12:56:57Z</time><name>PT4910</name></trkpt>
<trkpt lat="54.635409" lon="-3.063241"><ele>811</ele><time>2020-08-14T12:57:01Z</time><name>PT4911</name></trkpt>
<trkpt lat="54.635394" lon="-3.063286"><ele>810</ele><time>2020-08-14T12:57:04Z</time><name>PT4912</name></trkpt>
<trkpt lat="54.635379" lon="-3.063364"><ele>808</ele><time>2020-08-14T12:57:08Z</time><name>PT4913</name></trkpt>
<trkpt lat="54.635370" lon="-3.063396"><ele>807</ele><time>2020-08-14T12:57:11Z</time><name>PT4914</name></trkpt>
<trkpt lat="54.635363" lon="-3.063442"><ele>806</ele><time>2020-08-14T12:57:15Z</time><name>PT4915</name></trkpt>
<trkpt lat="54.635357" lon="-3.063511"><ele>806</ele><time>2020-08-14T12:57:18Z</time><name>PT4916</name></trkpt>
<trkpt lat="54.635354" lon="-3.063557"><ele>805</ele><time>2020-08-14T12:57:21Z</time><name>PT4917</name></trkpt>
<trkpt lat="54.635337" lon="-3.063637"><ele>803</ele><time>2020-08-14T12:57:25Z</time><name>PT4918</name></trkpt>
<trkpt lat="54.635332" lon="-3.063677"><ele>803</ele><time>2020-08-14T12:57:28Z</time><name>PT4919</name></trkpt>
<trkpt lat="54.635322" lon="-3.063726"><ele>802</ele><time>2020-08-14T12:57:31Z</time><name>PT4920</name></trkpt>
<trkpt lat="54.635318" lon="-3.063780"><ele>801</ele><time>2020-08-14T12:57:35Z</time><name>PT4921</name></trkpt>
<trkpt lat="54.635326" lon="-3.063842"><ele>800</ele><time>2020-08-14T12:57:39Z</time><name>PT4922</name></trkpt>
<trkpt lat="54.635320" lon="-3.063890"><ele>800</ele><time>2020-08-14T12:57:42Z</time><name>PT4923</name></trkpt>
<trkpt lat="54.635302" lon="-3.063946"><ele>799</ele><time>2020-08-14T12:57:46Z</time><name>PT4924</name></trkpt>
<trkpt lat="54.635299" lon="-3.064012"><ele>797</ele><time>2020-08-14T12:57:50Z</time><name>PT4925</name></trkpt>
<trkpt lat="54.635285" lon="-3.064058"><ele>797</ele><time>2020-08-14T12:57:54Z</time><name>PT4926</name></trkpt>
<trkpt lat="54.635275" lon="-3.064121"><ele>796</ele><time>2020-08-14T12:57:57Z</time><name>PT4927</name></trkpt>
<trkpt lat="54.635280" lon="-3.064180"><ele>795</ele><time>2020-08-14T12:58:00Z</time><name>PT4928</name></trkpt>
<trkpt lat="54.635284" lon="-3.064249"><ele>794</ele><time>2020-08-14T12:58:04Z</time><name>PT4929</name></trkpt>
<trkpt lat="54.635277" lon="-3.064336"><ele>794</ele><time>2020-08-14T12:58:08Z</time><name>PT4930</name></trkpt>
<trkpt lat="54.635278" lon="-3.064434"><ele>793</ele><time>2020-08-14T12:58:12Z</time><name>PT4931</name></trkpt>
<trkpt lat="54.635275" lon="-3.064491"><ele>794</ele><time>2020-08-14T12:58:15Z</time><name>PT4932</name></trkpt>
<trkpt lat="54.635269" lon="-3.064556"><ele>793</ele><time>2020-08-14T12:58:18Z</time><name>PT4933</name></trkpt>
<trkpt lat="54.635273" lon="-3.064636"><ele>793</ele><time>2020-08-14T12:58:22Z</time><name>PT4934</name></trkpt>
<trkpt lat="54.635269" lon="-3.064712"><ele>794</ele><time>2020-08-14T12:58:26Z</time><name>PT4935</name></trkpt>
<trkpt lat="54.635265" lon="-3.064776"><ele>794</ele><time>2020-08-14T12:58:30Z</time><name>PT4936</name></trkpt>
<trkpt lat="54.635243" lon="-3.064832"><ele>793</ele><time>2020-08-14T12:58:33Z</time><name>PT4937</name></trkpt>
<trkpt lat="54.635235" lon="-3.064909"><ele>793</ele><time>2020-08-14T12:58:37Z</time><name>PT4938</name></trkpt>
<trkpt lat="54.635226" lon="-3.064982"><ele>792</ele><time>2020-08-14T12:58:41Z</time><name>PT4939</name></trkpt>
<trkpt lat="54.635211" lon="-3.065056"><ele>792</ele><time>2020-08-14T12:58:44Z</time><name>PT4940</name></trkpt>
<trkpt lat="54.635204" lon="-3.065110"><ele>793</ele><time>2020-08-14T12:58:47Z</time><name>PT4941</name></trkpt>
<trkpt lat="54.635189" lon="-3.065177"><ele>792</ele><time>2020-08-14T12:58:50Z</time><name>PT4942</name></trkpt>
<trkpt lat="54.635170" lon="-3.065241"><ele>792</ele><time>2020-08-14T12:58:54Z</time><name>PT4943</name></trkpt>
<trkpt lat="54.635129" lon="-3.065284"><ele>793</ele><time>2020-08-14T12:58:58Z</time><name>PT4944</name></trkpt>
<trkpt lat="54.635111" lon="-3.065326"><ele>792</ele><time>2020-08-14T12:59:01Z</time><name>PT4945</name></trkpt>
<trkpt lat="54.635090" lon="-3.065387"><ele>794</ele><time>2020-08-14T12:59:05Z</time><name>PT4946</name></trkpt>
<trkpt lat="54.635078" lon="-3.065449"><ele>794</ele><time>2020-08-14T12:59:08Z</time><name>PT4947</name></trkpt>
<trkpt lat="54.635079" lon="-3.065537"><ele>792</ele><time>2020-08-14T12:59:12Z</time><name>PT4948</name></trkpt>
<trkpt lat="54.635071" lon="-3.065586"><ele>792</ele><time>2020-08-14T12:59:15Z</time><name>PT4949</name></trkpt>
<trkpt lat="54.635064" lon="-3.065653"><ele>793</ele><time>2020-08-14T12:59:19Z</time><name>PT4950</name></trkpt>
<trkpt lat="54.635050" lon="-3.065702"><ele>793</ele><time>2020-08-14T12:59:22Z</time><name>PT4951</name></trkpt>
<trkpt lat="54.635037" lon="-3.065756"><ele>792</ele><time>2020-08-14T12:59:25Z</time><name>PT4952</name></trkpt>
<trkpt lat="54.635023" lon="-3.065800"><ele>793</ele><time>2020-08-14T12:59:28Z</time><name>PT4953</name></trkpt>
<trkpt lat="54.635010" lon="-3.065860"><ele>792</ele><time>2020-08-14T12:59:32Z</time><name>PT4954</name></trkpt>
<trkpt lat="54.635009" lon="-3.065859"><ele>792</ele><time>2020-08-14T12:59:35Z</time><name>PT4955</name></trkpt>
<trkpt lat="54.635001" lon="-3.065859"><ele>792</ele><time>2020-08-14T12:59:39Z</time><name>PT4956</name></trkpt>
<trkpt lat="54.634982" lon="-3.065945"><ele>793</ele><time>2020-08-14T12:59:43Z</time><name>PT4957</name></trkpt>
<trkpt lat="54.634962" lon="-3.066017"><ele>794</ele><time>2020-08-14T12:59:46Z</time><name>PT4958</name></trkpt>
<trkpt lat="54.634939" lon="-3.066097"><ele>793</ele><time>2020-08-14T12:59:50Z</time><name>PT4959</name></trkpt>
<trkpt lat="54.634923" lon="-3.066165"><ele>794</ele><time>2020-08-14T12:59:53Z</time><name>PT4960</name></trkpt>
<trkpt lat="54.634900" lon="-3.066252"><ele>793</ele><time>2020-08-14T12:59:57Z</time><name>PT4961</name></trkpt>
<trkpt lat="54.634875" lon="-3.066316"><ele>793</ele><time>2020-08-14T13:00:01Z</time><name>PT4962</name></trkpt>
<trkpt lat="54.634834" lon="-3.066388"><ele>793</ele><time>2020-08-14T13:00:05Z</time><name>PT4963</name></trkpt>
<trkpt lat="54.634817" lon="-3.066427"><ele>793</ele><time>2020-08-14T13:00:08Z</time><name>PT4964</name></trkpt>
<trkpt lat="54.634790" lon="-3.066466"><ele>794</ele><time>2020-08-14T13:00:11Z</time><name>PT4965</name></trkpt>
<trkpt lat="54.634756" lon="-3.066503"><ele>793</ele><time>2020-08-14T13:00:15Z</time><name>PT4966</name></trkpt>
<trkpt lat="54.634725" lon="-3.066532"><ele>794</ele><time>2020-08-14T13:00:18Z</time><name>PT4967</name></trkpt>
<trkpt lat="54.634691" lon="-3.066582"><ele>794</ele><time>2020-08-14T13:00:22Z</time><name>PT4968</name></trkpt>
<trkpt lat="54.634668" lon="-3.066616"><ele>796</ele><time>2020-08-14T13:00:25Z</time><name>PT4969</name></trkpt>
<trkpt lat="54.634646" lon="-3.066635"><ele>796</ele><time>2020-08-14T13:00:28Z</time><name>PT4970</name></trkpt>
<trkpt lat="54.634626" lon="-3.066667"><ele>797</ele><time>2020-08-14T13:00:31Z</time><name>PT4971</name></trkpt>
<trkpt lat="54.634602" lon="-3.066716"><ele>796</ele><time>2020-08-14T13:00:35Z</time><name>PT4972</name></trkpt>
<trkpt lat="54.634574" lon="-3.066771"><ele>796</ele><time>2020-08-14T13:00:39Z</time><name>PT4973</name></trkpt>
<trkpt lat="54.634551" lon="-3.066801"><ele>795</ele><time>2020-08-14T13:00:42Z</time><name>PT4974</name></trkpt>
<trkpt lat="54.634512" lon="-3.066841"><ele>796</ele><time>2020-08-14T13:00:46Z</time><name>PT4975</name></trkpt>
<trkpt lat="54.634478" lon="-3.066883"><ele>796</ele><time>2020-08-14T13:00:50Z</time><name>PT4976</name></trkpt>
<trkpt lat="54.634459" lon="-3.066911"><ele>797</ele><time>2020-08-14T13:00:53Z</time><name>PT4977</name></trkpt>
<trkpt lat="54.634437" lon="-3.066931"><ele>796</ele><time>2020-08-14T13:00:57Z</time><name>PT4978</name></trkpt>
<trkpt lat="54.634418" lon="-3.066960"><ele>797</ele><time>2020-08-14T13:01:00Z</time><name>PT4979</name></trkpt>
<trkpt lat="54.634390" lon="-3.066990"><ele>798</ele><time>2020-08-14T13:01:03Z</time><name>PT4980</name></trkpt>
<trkpt lat="54.634360" lon="-3.067021"><ele>800</ele><time>2020-08-14T13:01:07Z</time><name>PT4981</name></trkpt>
<trkpt lat="54.634339" lon="-3.067041"><ele>799</ele><time>2020-08-14T13:01:10Z</time><name>PT4982</name></trkpt>
<trkpt lat="54.634306" lon="-3.067058"><ele>801</ele><time>2020-08-14T13:01:14Z</time><name>PT4983</name></trkpt>
<trkpt lat="54.634286" lon="-3.067065"><ele>801</ele><time>2020-08-14T13:01:17Z</time><name>PT4984</name></trkpt>
<trkpt lat="54.634256" lon="-3.067101"><ele>801</ele><time>2020-08-14T13:01:21Z</time><name>PT4985</name></trkpt>
<trkpt lat="54.634219" lon="-3.067117"><ele>801</ele><time>2020-08-14T13:01:25Z</time><name>PT4986</name></trkpt>
<trkpt lat="54.634201" lon="-3.067107"><ele>800</ele><time>2020-08-14T13:01:28Z</time><name>PT4987</name></trkpt>
<trkpt lat="54.634168" lon="-3.067123"><ele>801</ele><time>2020-08-14T13:01:32Z</time><name>PT4988</name></trkpt>
<trkpt lat="54.634148" lon="-3.067151"><ele>801</ele><time>2020-08-14T13:01:35Z</time><name>PT4989</name></trkpt>
<trkpt lat="54.634125" lon="-3.067178"><ele>801</ele><time>2020-08-14T13:01:38Z</time><name>PT4990</name></trkpt>
<trkpt lat="54.634096" lon="-3.067204"><ele>802</ele><time>2020-08-14T13:01:41Z</time><name>PT4991</name></trkpt>
<trkpt lat="54.634070" lon="-3.067224"><ele>803</ele><time>2020-08-14T13:01:44Z</time><name>PT4992</name></trkpt>
<trkpt lat="54.634046" lon="-3.067243"><ele>803</ele><time>2020-08-14T13:01:47Z</time><name>PT4993</name></trkpt>
<trkpt lat="54.634011" lon="-3.067250"><ele>803</ele><time>2020-08-14T13:01:50Z</time><name>PT4994</name></trkpt>
<trkpt lat="54.633981" lon="-3.067264"><ele>803</ele><time>2020-08-14T13:01:53Z</time><name>PT4995</name></trkpt>
<trkpt lat="54.633951" lon="-3.067313"><ele>804</ele><time>2020-08-14T13:01:57Z</time><name>PT4996</name></trkpt>
<trkpt lat="54.633921" lon="-3.067346"><ele>805</ele><time>2020-08-14T13:02:00Z</time><name>PT4997</name></trkpt>
<trkpt lat="54.633893" lon="-3.067372"><ele>805</ele><time>2020-08-14T13:02:03Z</time><name>PT4998</name></trkpt>
<trkpt lat="54.633860" lon="-3.067391"><ele>805</ele><time>2020-08-14T13:02:06Z</time><name>PT4999</name></trkpt>
<trkpt lat="54.633824" lon="-3.067416"><ele>806</ele><time>2020-08-14T13:02:09Z</time><name>PT5000</name></trkpt>
<trkpt lat="54.633796" lon="-3.067432"><ele>805</ele><time>2020-08-14T13:02:12Z</time><name>PT5001</name></trkpt>
<trkpt lat="54.633753" lon="-3.067455"><ele>805</ele><time>2020-08-14T13:02:16Z</time><name>PT5002</name></trkpt>
<trkpt lat="54.633720" lon="-3.067456"><ele>805</ele><time>2020-08-14T13:02:19Z</time><name>PT5003</name></trkpt>
<trkpt lat="54.633696" lon="-3.067490"><ele>805</ele><time>2020-08-14T13:02:22Z</time><name>PT5004</name></trkpt>
<trkpt lat="54.633668" lon="-3.067548"><ele>806</ele><time>2020-08-14T13:02:26Z</time><name>PT5005</name></trkpt>
<trkpt lat="54.633643" lon="-3.067585"><ele>806</ele><time>2020-08-14T13:02:29Z</time><name>PT5006</name></trkpt>
<trkpt lat="54.633599" lon="-3.067639"><ele>806</ele><time>2020-08-14T13:02:33Z</time><name>PT5007</name></trkpt>
<trkpt lat="54.633567" lon="-3.067682"><ele>805</ele><time>2020-08-14T13:02:37Z</time><name>PT5008</name></trkpt>
<trkpt lat="54.633534" lon="-3.067720"><ele>805</ele><time>2020-08-14T13:02:40Z</time><name>PT5009</name></trkpt>
<trkpt lat="54.633499" lon="-3.067760"><ele>804</ele><time>2020-08-14T13:02:44Z</time><name>PT5010</name></trkpt>
<trkpt lat="54.633465" lon="-3.067806"><ele>803</ele><time>2020-08-14T13:02:47Z</time><name>PT5011</name></trkpt>
<trkpt lat="54.633433" lon="-3.067860"><ele>803</ele><time>2020-08-14T13:02:51Z</time><name>PT5012</name></trkpt>
<trkpt lat="54.633401" lon="-3.067911"><ele>803</ele><time>2020-08-14T13:02:54Z</time><name>PT5013</name></trkpt>
<trkpt lat="54.633383" lon="-3.067946"><ele>803</ele><time>2020-08-14T13:02:57Z</time><name>PT5014</name></trkpt>
<trkpt lat="54.633350" lon="-3.067993"><ele>802</ele><time>2020-08-14T13:03:00Z</time><name>PT5015</name></trkpt>
<trkpt lat="54.633329" lon="-3.068030"><ele>801</ele><time>2020-08-14T13:03:03Z</time><name>PT5016</name></trkpt>
<trkpt lat="54.633300" lon="-3.068057"><ele>802</ele><time>2020-08-14T13:03:06Z</time><name>PT5017</name></trkpt>
<trkpt lat="54.633296" lon="-3.068067"><ele>801</ele><time>2020-08-14T13:03:07Z</time><name>PT5018</name></trkpt>
<trkpt lat="54.633291" lon="-3.068079"><ele>801</ele><time>2020-08-14T13:03:08Z</time><name>PT5019</name></trkpt>
<trkpt lat="54.633287" lon="-3.068094"><ele>801</ele><time>2020-08-14T13:03:09Z</time><name>PT5020</name></trkpt>
<trkpt lat="54.633282" lon="-3.068105"><ele>801</ele><time>2020-08-14T13:03:10Z</time><name>PT5021</name></trkpt>
<trkpt lat="54.633275" lon="-3.068116"><ele>800</ele><time>2020-08-14T13:03:11Z</time><name>PT5022</name></trkpt>
<trkpt lat="54.633267" lon="-3.068125"><ele>800</ele><time>2020-08-14T13:03:13Z</time><name>PT5023</name></trkpt>
<trkpt lat="54.633258" lon="-3.068132"><ele>800</ele><time>2020-08-14T13:03:13Z</time><name>PT5024</name></trkpt>
<trkpt lat="54.633249" lon="-3.068142"><ele>800</ele><time>2020-08-14T13:03:14Z</time><name>PT5025</name></trkpt>
<trkpt lat="54.633238" lon="-3.068151"><ele>800</ele><time>2020-08-14T13:03:15Z</time><name>PT5026</name></trkpt>
<trkpt lat="54.633229" lon="-3.068163"><ele>799</ele><time>2020-08-14T13:03:16Z</time><name>PT5027</name></trkpt>
<trkpt lat="54.633221" lon="-3.068173"><ele>800</ele><time>2020-08-14T13:03:17Z</time><name>PT5028</name></trkpt>
<trkpt lat="54.633219" lon="-3.068186"><ele>799</ele><time>2020-08-14T13:03:18Z</time><name>PT5029</name></trkpt>
<trkpt lat="54.633213" lon="-3.068198"><ele>799</ele><time>2020-08-14T13:03:19Z</time><name>PT5030</name></trkpt>
<trkpt lat="54.633206" lon="-3.068211"><ele>799</ele><time>2020-08-14T13:03:20Z</time><name>PT5031</name></trkpt>
<trkpt lat="54.633200" lon="-3.068225"><ele>798</ele><time>2020-08-14T13:03:21Z</time><name>PT5032</name></trkpt>
<trkpt lat="54.633188" lon="-3.068235"><ele>798</ele><time>2020-08-14T13:03:22Z</time><name>PT5033</name></trkpt>
<trkpt lat="54.633174" lon="-3.068242"><ele>798</ele><time>2020-08-14T13:03:23Z</time><name>PT5034</name></trkpt>
<trkpt lat="54.633164" lon="-3.068248"><ele>798</ele><time>2020-08-14T13:03:24Z</time><name>PT5035</name></trkpt>
<trkpt lat="54.633158" lon="-3.068251"><ele>798</ele><time>2020-08-14T13:03:25Z</time><name>PT5036</name></trkpt>
<trkpt lat="54.633153" lon="-3.068259"><ele>798</ele><time>2020-08-14T13:03:26Z</time><name>PT5037</name></trkpt>
<trkpt lat="54.633146" lon="-3.068264"><ele>797</ele><time>2020-08-14T13:03:27Z</time><name>PT5038</name></trkpt>
<trkpt lat="54.633136" lon="-3.068270"><ele>797</ele><time>2020-08-14T13:03:28Z</time><name>PT5039</name></trkpt>
<trkpt lat="54.633125" lon="-3.068272"><ele>796</ele><time>2020-08-14T13:03:29Z</time><name>PT5040</name></trkpt>
<trkpt lat="54.633114" lon="-3.068274"><ele>796</ele><time>2020-08-14T13:03:30Z</time><name>PT5041</name></trkpt>
<trkpt lat="54.633101" lon="-3.068275"><ele>797</ele><time>2020-08-14T13:03:31Z</time><name>PT5042</name></trkpt>
<trkpt lat="54.633092" lon="-3.068275"><ele>796</ele><time>2020-08-14T13:03:32Z</time><name>PT5043</name></trkpt>
<trkpt lat="54.633088" lon="-3.068278"><ele>796</ele><time>2020-08-14T13:03:33Z</time><name>PT5044</name></trkpt>
<trkpt lat="54.633081" lon="-3.068280"><ele>795</ele><time>2020-08-14T13:03:34Z</time><name>PT5045</name></trkpt>
<trkpt lat="54.633074" lon="-3.068286"><ele>795</ele><time>2020-08-14T13:03:35Z</time><name>PT5046</name></trkpt>
<trkpt lat="54.633063" lon="-3.068290"><ele>795</ele><time>2020-08-14T13:03:36Z</time><name>PT5047</name></trkpt>
<trkpt lat="54.633052" lon="-3.068294"><ele>795</ele><time>2020-08-14T13:03:37Z</time><name>PT5048</name></trkpt>
<trkpt lat="54.633044" lon="-3.068295"><ele>795</ele><time>2020-08-14T13:03:38Z</time><name>PT5049</name></trkpt>
<trkpt lat="54.633038" lon="-3.068297"><ele>795</ele><time>2020-08-14T13:03:39Z</time><name>PT5050</name></trkpt>
<trkpt lat="54.633031" lon="-3.068297"><ele>795</ele><time>2020-08-14T13:03:40Z</time><name>PT5051</name></trkpt>
<trkpt lat="54.633023" lon="-3.068299"><ele>795</ele><time>2020-08-14T13:03:41Z</time><name>PT5052</name></trkpt>
<trkpt lat="54.633017" lon="-3.068299"><ele>794</ele><time>2020-08-14T13:03:42Z</time><name>PT5053</name></trkpt>
<trkpt lat="54.633010" lon="-3.068296"><ele>794</ele><time>2020-08-14T13:03:43Z</time><name>PT5054</name></trkpt>
<trkpt lat="54.633004" lon="-3.068298"><ele>795</ele><time>2020-08-14T13:03:44Z</time><name>PT5055</name></trkpt>
<trkpt lat="54.633001" lon="-3.068300"><ele>794</ele><time>2020-08-14T13:03:45Z</time><name>PT5056</name></trkpt>
<trkpt lat="54.633001" lon="-3.068304"><ele>794</ele><time>2020-08-14T13:03:46Z</time><name>PT5057</name></trkpt>
<trkpt lat="54.633001" lon="-3.068303"><ele>794</ele><time>2020-08-14T13:03:47Z</time><name>PT5058</name></trkpt>
<trkpt lat="54.633001" lon="-3.068305"><ele>794</ele><time>2020-08-14T13:03:48Z</time><name>PT5059</name></trkpt>
<trkpt lat="54.633001" lon="-3.068306"><ele>794</ele><time>2020-08-14T13:03:49Z</time><name>PT5060</name></trkpt>
<trkpt lat="54.633002" lon="-3.068313"><ele>794</ele><time>2020-08-14T13:04:13Z</time><name>PT5061</name></trkpt>
<trkpt lat="54.633005" lon="-3.068310"><ele>794</ele><time>2020-08-14T13:04:14Z</time><name>PT5062</name></trkpt>
<trkpt lat="54.633005" lon="-3.068309"><ele>794</ele><time>2020-08-14T13:04:15Z</time><name>PT5063</name></trkpt>
<trkpt lat="54.633008" lon="-3.068307"><ele>793</ele><time>2020-08-14T13:10:56Z</time><name>PT5064</name></trkpt>
<trkpt lat="54.632996" lon="-3.068299"><ele>793</ele><time>2020-08-14T13:11:00Z</time><name>PT5065</name></trkpt>
<trkpt lat="54.632996" lon="-3.068295"><ele>793</ele><time>2020-08-14T13:11:03Z</time><name>PT5066</name></trkpt>
<trkpt lat="54.632998" lon="-3.068300"><ele>793</ele><time>2020-08-14T13:11:10Z</time><name>PT5067</name></trkpt>
<trkpt lat="54.632988" lon="-3.068354"><ele>794</ele><time>2020-08-14T13:11:56Z</time><name>PT5068</name></trkpt>
<trkpt lat="54.632987" lon="-3.068433"><ele>794</ele><time>2020-08-14T13:12:00Z</time><name>PT5069</name></trkpt>
<trkpt lat="54.632987" lon="-3.068492"><ele>794</ele><time>2020-08-14T13:12:03Z</time><name>PT5070</name></trkpt>
<trkpt lat="54.632987" lon="-3.068574"><ele>794</ele><time>2020-08-14T13:12:07Z</time><name>PT5071</name></trkpt>
<trkpt lat="54.632991" lon="-3.068639"><ele>793</ele><time>2020-08-14T13:12:11Z</time><name>PT5072</name></trkpt>
<trkpt lat="54.632985" lon="-3.068689"><ele>793</ele><time>2020-08-14T13:12:14Z</time><name>PT5073</name></trkpt>
<trkpt lat="54.632984" lon="-3.068750"><ele>792</ele><time>2020-08-14T13:12:18Z</time><name>PT5074</name></trkpt>
<trkpt lat="54.632973" lon="-3.068792"><ele>791</ele><time>2020-08-14T13:12:21Z</time><name>PT5075</name></trkpt>
<trkpt lat="54.632953" lon="-3.068855"><ele>791</ele><time>2020-08-14T13:12:25Z</time><name>PT5076</name></trkpt>
<trkpt lat="54.632941" lon="-3.068902"><ele>790</ele><time>2020-08-14T13:12:28Z</time><name>PT5077</name></trkpt>
<trkpt lat="54.632928" lon="-3.068946"><ele>789</ele><time>2020-08-14T13:12:31Z</time><name>PT5078</name></trkpt>
<trkpt lat="54.632904" lon="-3.068998"><ele>788</ele><time>2020-08-14T13:12:34Z</time><name>PT5079</name></trkpt>
<trkpt lat="54.632887" lon="-3.069057"><ele>788</ele><time>2020-08-14T13:12:37Z</time><name>PT5080</name></trkpt>
<trkpt lat="54.632876" lon="-3.069108"><ele>787</ele><time>2020-08-14T13:12:41Z</time><name>PT5081</name></trkpt>
<trkpt lat="54.632857" lon="-3.069185"><ele>786</ele><time>2020-08-14T13:12:45Z</time><name>PT5082</name></trkpt>
<trkpt lat="54.632837" lon="-3.069241"><ele>785</ele><time>2020-08-14T13:12:48Z</time><name>PT5083</name></trkpt>
<trkpt lat="54.632817" lon="-3.069288"><ele>785</ele><time>2020-08-14T13:12:51Z</time><name>PT5084</name></trkpt>
<trkpt lat="54.632794" lon="-3.069353"><ele>784</ele><time>2020-08-14T13:12:55Z</time><name>PT5085</name></trkpt>
<trkpt lat="54.632779" lon="-3.069391"><ele>783</ele><time>2020-08-14T13:12:59Z</time><name>PT5086</name></trkpt>
<trkpt lat="54.632750" lon="-3.069434"><ele>782</ele><time>2020-08-14T13:13:02Z</time><name>PT5087</name></trkpt>
<trkpt lat="54.632721" lon="-3.069489"><ele>782</ele><time>2020-08-14T13:13:05Z</time><name>PT5088</name></trkpt>
<trkpt lat="54.632700" lon="-3.069561"><ele>781</ele><time>2020-08-14T13:13:09Z</time><name>PT5089</name></trkpt>
<trkpt lat="54.632676" lon="-3.069645"><ele>782</ele><time>2020-08-14T13:13:12Z</time><name>PT5090</name></trkpt>
<trkpt lat="54.632671" lon="-3.069684"><ele>781</ele><time>2020-08-14T13:13:15Z</time><name>PT5091</name></trkpt>
<trkpt lat="54.632642" lon="-3.069756"><ele>780</ele><time>2020-08-14T13:13:19Z</time><name>PT5092</name></trkpt>
<trkpt lat="54.632619" lon="-3.069814"><ele>779</ele><time>2020-08-14T13:13:23Z</time><name>PT5093</name></trkpt>
<trkpt lat="54.632592" lon="-3.069860"><ele>779</ele><time>2020-08-14T13:13:26Z</time><name>PT5094</name></trkpt>
<trkpt lat="54.632554" lon="-3.069903"><ele>778</ele><time>2020-08-14T13:13:29Z</time><name>PT5095</name></trkpt>
<trkpt lat="54.632535" lon="-3.069935"><ele>778</ele><time>2020-08-14T13:13:32Z</time><name>PT5096</name></trkpt>
<trkpt lat="54.632503" lon="-3.070004"><ele>777</ele><time>2020-08-14T13:13:36Z</time><name>PT5097</name></trkpt>
<trkpt lat="54.632479" lon="-3.070058"><ele>776</ele><time>2020-08-14T13:13:39Z</time><name>PT5098</name></trkpt>
<trkpt lat="54.632462" lon="-3.070101"><ele>774</ele><time>2020-08-14T13:13:42Z</time><name>PT5099</name></trkpt>
<trkpt lat="54.632435" lon="-3.070162"><ele>773</ele><time>2020-08-14T13:13:45Z</time><name>PT5100</name></trkpt>
<trkpt lat="54.632415" lon="-3.070211"><ele>773</ele><time>2020-08-14T13:13:48Z</time><name>PT5101</name></trkpt>
<trkpt lat="54.632386" lon="-3.070271"><ele>773</ele><time>2020-08-14T13:13:52Z</time><name>PT5102</name></trkpt>
<trkpt lat="54.632377" lon="-3.070312"><ele>772</ele><time>2020-08-14T13:13:55Z</time><name>PT5103</name></trkpt>
<trkpt lat="54.632359" lon="-3.070384"><ele>771</ele><time>2020-08-14T13:13:59Z</time><name>PT5104</name></trkpt>
<trkpt lat="54.632349" lon="-3.070471"><ele>770</ele><time>2020-08-14T13:14:03Z</time><name>PT5105</name></trkpt>
<trkpt lat="54.632328" lon="-3.070575"><ele>770</ele><time>2020-08-14T13:14:07Z</time><name>PT5106</name></trkpt>
<trkpt lat="54.632317" lon="-3.070616"><ele>770</ele><time>2020-08-14T13:14:10Z</time><name>PT5107</name></trkpt>
<trkpt lat="54.632308" lon="-3.070687"><ele>770</ele><time>2020-08-14T13:14:13Z</time><name>PT5108</name></trkpt>
<trkpt lat="54.632288" lon="-3.070751"><ele>769</ele><time>2020-08-14T13:14:17Z</time><name>PT5109</name></trkpt>
<trkpt lat="54.632267" lon="-3.070837"><ele>768</ele><time>2020-08-14T13:14:21Z</time><name>PT5110</name></trkpt>
<trkpt lat="54.632256" lon="-3.070876"><ele>767</ele><time>2020-08-14T13:14:24Z</time><name>PT5111</name></trkpt>
<trkpt lat="54.632231" lon="-3.070948"><ele>767</ele><time>2020-08-14T13:14:28Z</time><name>PT5112</name></trkpt>
<trkpt lat="54.632212" lon="-3.070972"><ele>766</ele><time>2020-08-14T13:14:31Z</time><name>PT5113</name></trkpt>
<trkpt lat="54.632178" lon="-3.071024"><ele>765</ele><time>2020-08-14T13:14:35Z</time><name>PT5114</name></trkpt>
<trkpt lat="54.632168" lon="-3.071064"><ele>764</ele><time>2020-08-14T13:14:38Z</time><name>PT5115</name></trkpt>
<trkpt lat="54.632158" lon="-3.071113"><ele>763</ele><time>2020-08-14T13:14:41Z</time><name>PT5116</name></trkpt>
<trkpt lat="54.632129" lon="-3.071173"><ele>761</ele><time>2020-08-14T13:14:45Z</time><name>PT5117</name></trkpt>
<trkpt lat="54.632098" lon="-3.071207"><ele>760</ele><time>2020-08-14T13:14:49Z</time><name>PT5118</name></trkpt>
<trkpt lat="54.632081" lon="-3.071244"><ele>759</ele><time>2020-08-14T13:14:53Z</time><name>PT5119</name></trkpt>
<trkpt lat="54.632063" lon="-3.071285"><ele>758</ele><time>2020-08-14T13:14:57Z</time><name>PT5120</name></trkpt>
<trkpt lat="54.632034" lon="-3.071319"><ele>757</ele><time>2020-08-14T13:15:01Z</time><name>PT5121</name></trkpt>
<trkpt lat="54.632015" lon="-3.071339"><ele>757</ele><time>2020-08-14T13:15:04Z</time><name>PT5122</name></trkpt>
<trkpt lat="54.631990" lon="-3.071356"><ele>757</ele><time>2020-08-14T13:15:07Z</time><name>PT5123</name></trkpt>
<trkpt lat="54.631957" lon="-3.071371"><ele>755</ele><time>2020-08-14T13:15:10Z</time><name>PT5124</name></trkpt>
<trkpt lat="54.631914" lon="-3.071399"><ele>753</ele><time>2020-08-14T13:15:14Z</time><name>PT5125</name></trkpt>
<trkpt lat="54.631868" lon="-3.071391"><ele>750</ele><time>2020-08-14T13:15:18Z</time><name>PT5126</name></trkpt>
<trkpt lat="54.631830" lon="-3.071403"><ele>749</ele><time>2020-08-14T13:15:22Z</time><name>PT5127</name></trkpt>
<trkpt lat="54.631792" lon="-3.071424"><ele>748</ele><time>2020-08-14T13:15:26Z</time><name>PT5128</name></trkpt>
<trkpt lat="54.631740" lon="-3.071435"><ele>747</ele><time>2020-08-14T13:15:30Z</time><name>PT5129</name></trkpt>
<trkpt lat="54.631707" lon="-3.071449"><ele>746</ele><time>2020-08-14T13:15:33Z</time><name>PT5130</name></trkpt>
<trkpt lat="54.631675" lon="-3.071453"><ele>745</ele><time>2020-08-14T13:15:37Z</time><name>PT5131</name></trkpt>
<trkpt lat="54.631647" lon="-3.071475"><ele>744</ele><time>2020-08-14T13:15:40Z</time><name>PT5132</name></trkpt>
<trkpt lat="54.631624" lon="-3.071565"><ele>744</ele><time>2020-08-14T13:15:44Z</time><name>PT5133</name></trkpt>
<trkpt lat="54.631615" lon="-3.071618"><ele>744</ele><time>2020-08-14T13:15:47Z</time><name>PT5134</name></trkpt>
<trkpt lat="54.631609" lon="-3.071662"><ele>744</ele><time>2020-08-14T13:15:50Z</time><name>PT5135</name></trkpt>
<trkpt lat="54.631596" lon="-3.071725"><ele>742</ele><time>2020-08-14T13:15:53Z</time><name>PT5136</name></trkpt>
<trkpt lat="54.631579" lon="-3.071792"><ele>741</ele><time>2020-08-14T13:15:57Z</time><name>PT5137</name></trkpt>
<trkpt lat="54.631560" lon="-3.071843"><ele>741</ele><time>2020-08-14T13:16:00Z</time><name>PT5138</name></trkpt>
<trkpt lat="54.631547" lon="-3.071921"><ele>739</ele><time>2020-08-14T13:16:04Z</time><name>PT5139</name></trkpt>
<trkpt lat="54.631536" lon="-3.071985"><ele>738</ele><time>2020-08-14T13:16:07Z</time><name>PT5140</name></trkpt>
<trkpt lat="54.631533" lon="-3.072067"><ele>737</ele><time>2020-08-14T13:16:11Z</time><name>PT5141</name></trkpt>
<trkpt lat="54.631534" lon="-3.072128"><ele>736</ele><time>2020-08-14T13:16:15Z</time><name>PT5142</name></trkpt>
<trkpt lat="54.631517" lon="-3.072159"><ele>736</ele><time>2020-08-14T13:16:18Z</time><name>PT5143</name></trkpt>
<trkpt lat="54.631483" lon="-3.072131"><ele>734</ele><time>2020-08-14T13:16:21Z</time><name>PT5144</name></trkpt>
<trkpt lat="54.631454" lon="-3.072095"><ele>732</ele><time>2020-08-14T13:16:24Z</time><name>PT5145</name></trkpt>
<trkpt lat="54.631413" lon="-3.072044"><ele>730</ele><time>2020-08-14T13:16:28Z</time><name>PT5146</name></trkpt>
<trkpt lat="54.631383" lon="-3.072033"><ele>730</ele><time>2020-08-14T13:16:31Z</time><name>PT5147</name></trkpt>
<trkpt lat="54.631356" lon="-3.072032"><ele>729</ele><time>2020-08-14T13:16:34Z</time><name>PT5148</name></trkpt>
<trkpt lat="54.631337" lon="-3.072059"><ele>730</ele><time>2020-08-14T13:16:37Z</time><name>PT5149</name></trkpt>
<trkpt lat="54.631319" lon="-3.072093"><ele>726</ele><time>2020-08-14T13:16:40Z</time><name>PT5150</name></trkpt>
<trkpt lat="54.631295" lon="-3.072127"><ele>724</ele><time>2020-08-14T13:16:44Z</time><name>PT5151</name></trkpt>
<trkpt lat="54.631274" lon="-3.072159"><ele>724</ele><time>2020-08-14T13:16:47Z</time><name>PT5152</name></trkpt>
<trkpt lat="54.631254" lon="-3.072186"><ele>724</ele><time>2020-08-14T13:16:50Z</time><name>PT5153</name></trkpt>
<trkpt lat="54.631232" lon="-3.072212"><ele>723</ele><time>2020-08-14T13:16:53Z</time><name>PT5154</name></trkpt>
<trkpt lat="54.631217" lon="-3.072242"><ele>722</ele><time>2020-08-14T13:16:56Z</time><name>PT5155</name></trkpt>
<trkpt lat="54.631195" lon="-3.072272"><ele>722</ele><time>2020-08-14T13:17:00Z</time><name>PT5156</name></trkpt>
<trkpt lat="54.631173" lon="-3.072306"><ele>722</ele><time>2020-08-14T13:17:03Z</time><name>PT5157</name></trkpt>
<trkpt lat="54.631162" lon="-3.072331"><ele>722</ele><time>2020-08-14T13:17:06Z</time><name>PT5158</name></trkpt>
<trkpt lat="54.631143" lon="-3.072356"><ele>721</ele><time>2020-08-14T13:17:09Z</time><name>PT5159</name></trkpt>
<trkpt lat="54.631110" lon="-3.072386"><ele>721</ele><time>2020-08-14T13:17:13Z</time><name>PT5160</name></trkpt>
<trkpt lat="54.631084" lon="-3.072419"><ele>720</ele><time>2020-08-14T13:17:16Z</time><name>PT5161</name></trkpt>
<trkpt lat="54.631046" lon="-3.072459"><ele>719</ele><time>2020-08-14T13:17:20Z</time><name>PT5162</name></trkpt>
<trkpt lat="54.631027" lon="-3.072500"><ele>718</ele><time>2020-08-14T13:17:24Z</time><name>PT5163</name></trkpt>
<trkpt lat="54.631013" lon="-3.072555"><ele>717</ele><time>2020-08-14T13:17:27Z</time><name>PT5164</name></trkpt>
<trkpt lat="54.630986" lon="-3.072631"><ele>716</ele><time>2020-08-14T13:17:31Z</time><name>PT5165</name></trkpt>
<trkpt lat="54.630962" lon="-3.072688"><ele>716</ele><time>2020-08-14T13:17:34Z</time><name>PT5166</name></trkpt>
<trkpt lat="54.630932" lon="-3.072749"><ele>716</ele><time>2020-08-14T13:17:38Z</time><name>PT5167</name></trkpt>
<trkpt lat="54.630905" lon="-3.072802"><ele>715</ele><time>2020-08-14T13:17:42Z</time><name>PT5168</name></trkpt>
<trkpt lat="54.630882" lon="-3.072855"><ele>714</ele><time>2020-08-14T13:17:46Z</time><name>PT5169</name></trkpt>
<trkpt lat="54.630862" lon="-3.072890"><ele>713</ele><time>2020-08-14T13:17:49Z</time><name>PT5170</name></trkpt>
<trkpt lat="54.630831" lon="-3.072947"><ele>711</ele><time>2020-08-14T13:17:53Z</time><name>PT5171</name></trkpt>
<trkpt lat="54.630812" lon="-3.073000"><ele>711</ele><time>2020-08-14T13:17:56Z</time><name>PT5172</name></trkpt>
<trkpt lat="54.630794" lon="-3.073077"><ele>710</ele><time>2020-08-14T13:18:00Z</time><name>PT5173</name></trkpt>
<trkpt lat="54.630785" lon="-3.073116"><ele>710</ele><time>2020-08-14T13:18:03Z</time><name>PT5174</name></trkpt>
<trkpt lat="54.630762" lon="-3.073180"><ele>709</ele><time>2020-08-14T13:18:07Z</time><name>PT5175</name></trkpt>
<trkpt lat="54.630745" lon="-3.073231"><ele>708</ele><time>2020-08-14T13:18:10Z</time><name>PT5176</name></trkpt>
<trkpt lat="54.630723" lon="-3.073272"><ele>707</ele><time>2020-08-14T13:18:13Z</time><name>PT5177</name></trkpt>
<trkpt lat="54.630686" lon="-3.073331"><ele>707</ele><time>2020-08-14T13:18:17Z</time><name>PT5178</name></trkpt>
<trkpt lat="54.630664" lon="-3.073349"><ele>707</ele><time>2020-08-14T13:18:20Z</time><name>PT5179</name></trkpt>
<trkpt lat="54.630629" lon="-3.073395"><ele>705</ele><time>2020-08-14T13:18:24Z</time><name>PT5180</name></trkpt>
<trkpt lat="54.630601" lon="-3.073463"><ele>704</ele><time>2020-08-14T13:18:28Z</time><name>PT5181</name></trkpt>
<trkpt lat="54.630587" lon="-3.073528"><ele>704</ele><time>2020-08-14T13:18:31Z</time><name>PT5182</name></trkpt>
<trkpt lat="54.630575" lon="-3.073581"><ele>703</ele><time>2020-08-14T13:18:35Z</time><name>PT5183</name></trkpt>
<trkpt lat="54.630566" lon="-3.073635"><ele>703</ele><time>2020-08-14T13:18:38Z</time><name>PT5184</name></trkpt>
<trkpt lat="54.630555" lon="-3.073697"><ele>702</ele><time>2020-08-14T13:18:41Z</time><name>PT5185</name></trkpt>
<trkpt lat="54.630533" lon="-3.073760"><ele>702</ele><time>2020-08-14T13:18:44Z</time><name>PT5186</name></trkpt>
<trkpt lat="54.630509" lon="-3.073825"><ele>701</ele><time>2020-08-14T13:18:48Z</time><name>PT5187</name></trkpt>
<trkpt lat="54.630494" lon="-3.073864"><ele>701</ele><time>2020-08-14T13:18:51Z</time><name>PT5188</name></trkpt>
<trkpt lat="54.630474" lon="-3.073940"><ele>699</ele><time>2020-08-14T13:18:55Z</time><name>PT5189</name></trkpt>
<trkpt lat="54.630449" lon="-3.073985"><ele>699</ele><time>2020-08-14T13:18:58Z</time><name>PT5190</name></trkpt>
<trkpt lat="54.630428" lon="-3.074049"><ele>698</ele><time>2020-08-14T13:19:02Z</time><name>PT5191</name></trkpt>
<trkpt lat="54.630422" lon="-3.074094"><ele>697</ele><time>2020-08-14T13:19:05Z</time><name>PT5192</name></trkpt>
<trkpt lat="54.630415" lon="-3.074174"><ele>696</ele><time>2020-08-14T13:19:09Z</time><name>PT5193</name></trkpt>
<trkpt lat="54.630401" lon="-3.074233"><ele>696</ele><time>2020-08-14T13:19:12Z</time><name>PT5194</name></trkpt>
<trkpt lat="54.630378" lon="-3.074300"><ele>695</ele><time>2020-08-14T13:19:16Z</time><name>PT5195</name></trkpt>
<trkpt lat="54.630361" lon="-3.074345"><ele>694</ele><time>2020-08-14T13:19:20Z</time><name>PT5196</name></trkpt>
<trkpt lat="54.630329" lon="-3.074382"><ele>692</ele><time>2020-08-14T13:19:23Z</time><name>PT5197</name></trkpt>
<trkpt lat="54.630289" lon="-3.074458"><ele>691</ele><time>2020-08-14T13:19:27Z</time><name>PT5198</name></trkpt>
<trkpt lat="54.630265" lon="-3.074502"><ele>690</ele><time>2020-08-14T13:19:30Z</time><name>PT5199</name></trkpt>
<trkpt lat="54.630256" lon="-3.074540"><ele>690</ele><time>2020-08-14T13:19:33Z</time><name>PT5200</name></trkpt>
<trkpt lat="54.630244" lon="-3.074595"><ele>688</ele><time>2020-08-14T13:19:36Z</time><name>PT5201</name></trkpt>
<trkpt lat="54.630226" lon="-3.074676"><ele>687</ele><time>2020-08-14T13:19:40Z</time><name>PT5202</name></trkpt>
<trkpt lat="54.630206" lon="-3.074737"><ele>687</ele><time>2020-08-14T13:19:43Z</time><name>PT5203</name></trkpt>
<trkpt lat="54.630193" lon="-3.074773"><ele>686</ele><time>2020-08-14T13:19:46Z</time><name>PT5204</name></trkpt>
<trkpt lat="54.630176" lon="-3.074826"><ele>685</ele><time>2020-08-14T13:19:49Z</time><name>PT5205</name></trkpt>
<trkpt lat="54.630157" lon="-3.074912"><ele>685</ele><time>2020-08-14T13:19:53Z</time><name>PT5206</name></trkpt>
<trkpt lat="54.630149" lon="-3.074967"><ele>685</ele><time>2020-08-14T13:19:56Z</time><name>PT5207</name></trkpt>
<trkpt lat="54.630138" lon="-3.075021"><ele>684</ele><time>2020-08-14T13:20:00Z</time><name>PT5208</name></trkpt>
<trkpt lat="54.630125" lon="-3.075090"><ele>682</ele><time>2020-08-14T13:20:04Z</time><name>PT5209</name></trkpt>
<trkpt lat="54.630111" lon="-3.075148"><ele>682</ele><time>2020-08-14T13:20:07Z</time><name>PT5210</name></trkpt>
<trkpt lat="54.630106" lon="-3.075212"><ele>681</ele><time>2020-08-14T13:20:11Z</time><name>PT5211</name></trkpt>
<trkpt lat="54.630102" lon="-3.075280"><ele>680</ele><time>2020-08-14T13:20:15Z</time><name>PT5212</name></trkpt>
<trkpt lat="54.630106" lon="-3.075357"><ele>680</ele><time>2020-08-14T13:20:19Z</time><name>PT5213</name></trkpt>
<trkpt lat="54.630080" lon="-3.075385"><ele>678</ele><time>2020-08-14T13:20:22Z</time><name>PT5214</name></trkpt>
<trkpt lat="54.630033" lon="-3.075365"><ele>676</ele><time>2020-08-14T13:20:26Z</time><name>PT5215</name></trkpt>
<trkpt lat="54.630014" lon="-3.075335"><ele>674</ele><time>2020-08-14T13:20:29Z</time><name>PT5216</name></trkpt>
<trkpt lat="54.629977" lon="-3.075292"><ele>672</ele><time>2020-08-14T13:20:33Z</time><name>PT5217</name></trkpt>
<trkpt lat="54.629940" lon="-3.075284"><ele>672</ele><time>2020-08-14T13:20:37Z</time><name>PT5218</name></trkpt>
<trkpt lat="54.629925" lon="-3.075317"><ele>671</ele><time>2020-08-14T13:20:40Z</time><name>PT5219</name></trkpt>
<trkpt lat="54.629923" lon="-3.075350"><ele>671</ele><time>2020-08-14T13:20:43Z</time><name>PT5220</name></trkpt>
<trkpt lat="54.629916" lon="-3.075417"><ele>670</ele><time>2020-08-14T13:20:47Z</time><name>PT5221</name></trkpt>
<trkpt lat="54.629921" lon="-3.075493"><ele>670</ele><time>2020-08-14T13:20:51Z</time><name>PT5222</name></trkpt>
<trkpt lat="54.629898" lon="-3.075566"><ele>670</ele><time>2020-08-14T13:20:55Z</time><name>PT5223</name></trkpt>
<trkpt lat="54.629871" lon="-3.075552"><ele>669</ele><time>2020-08-14T13:20:58Z</time><name>PT5224</name></trkpt>
<trkpt lat="54.629835" lon="-3.075511"><ele>666</ele><time>2020-08-14T13:21:02Z</time><name>PT5225</name></trkpt>
<trkpt lat="54.629810" lon="-3.075463"><ele>665</ele><time>2020-08-14T13:21:05Z</time><name>PT5226</name></trkpt>
<trkpt lat="54.629789" lon="-3.075427"><ele>665</ele><time>2020-08-14T13:21:08Z</time><name>PT5227</name></trkpt>
<trkpt lat="54.629756" lon="-3.075389"><ele>662</ele><time>2020-08-14T13:21:12Z</time><name>PT5228</name></trkpt>
<trkpt lat="54.629731" lon="-3.075372"><ele>660</ele><time>2020-08-14T13:21:15Z</time><name>PT5229</name></trkpt>
<trkpt lat="54.629722" lon="-3.075427"><ele>660</ele><time>2020-08-14T13:21:18Z</time><name>PT5230</name></trkpt>
<trkpt lat="54.629721" lon="-3.075478"><ele>660</ele><time>2020-08-14T13:21:22Z</time><name>PT5231</name></trkpt>
<trkpt lat="54.629727" lon="-3.075528"><ele>660</ele><time>2020-08-14T13:21:25Z</time><name>PT5232</name></trkpt>
<trkpt lat="54.629737" lon="-3.075615"><ele>660</ele><time>2020-08-14T13:21:29Z</time><name>PT5233</name></trkpt>
<trkpt lat="54.629704" lon="-3.075627"><ele>660</ele><time>2020-08-14T13:21:33Z</time><name>PT5234</name></trkpt>
<trkpt lat="54.629674" lon="-3.075595"><ele>658</ele><time>2020-08-14T13:21:36Z</time><name>PT5235</name></trkpt>
<trkpt lat="54.629648" lon="-3.075546"><ele>656</ele><time>2020-08-14T13:21:39Z</time><name>PT5236</name></trkpt>
<trkpt lat="54.629618" lon="-3.075478"><ele>654</ele><time>2020-08-14T13:21:43Z</time><name>PT5237</name></trkpt>
<trkpt lat="54.629602" lon="-3.075460"><ele>654</ele><time>2020-08-14T13:21:46Z</time><name>PT5238</name></trkpt>
<trkpt lat="54.629594" lon="-3.075502"><ele>654</ele><time>2020-08-14T13:21:49Z</time><name>PT5239</name></trkpt>
<trkpt lat="54.629591" lon="-3.075586"><ele>655</ele><time>2020-08-14T13:21:53Z</time><name>PT5240</name></trkpt>
<trkpt lat="54.629596" lon="-3.075641"><ele>655</ele><time>2020-08-14T13:21:56Z</time><name>PT5241</name></trkpt>
<trkpt lat="54.629601" lon="-3.075700"><ele>654</ele><time>2020-08-14T13:22:00Z</time><name>PT5242</name></trkpt>
<trkpt lat="54.629598" lon="-3.075785"><ele>653</ele><time>2020-08-14T13:22:04Z</time><name>PT5243</name></trkpt>
<trkpt lat="54.629570" lon="-3.075790"><ele>652</ele><time>2020-08-14T13:22:07Z</time><name>PT5244</name></trkpt>
<trkpt lat="54.629546" lon="-3.075741"><ele>651</ele><time>2020-08-14T13:22:11Z</time><name>PT5245</name></trkpt>
<trkpt lat="54.629526" lon="-3.075697"><ele>648</ele><time>2020-08-14T13:22:14Z</time><name>PT5246</name></trkpt>
<trkpt lat="54.629496" lon="-3.075624"><ele>645</ele><time>2020-08-14T13:22:18Z</time><name>PT5247</name></trkpt>
<trkpt lat="54.629467" lon="-3.075554"><ele>645</ele><time>2020-08-14T13:22:22Z</time><name>PT5248</name></trkpt>
<trkpt lat="54.629450" lon="-3.075539"><ele>643</ele><time>2020-08-14T13:22:25Z</time><name>PT5249</name></trkpt>
<trkpt lat="54.629444" lon="-3.075608"><ele>643</ele><time>2020-08-14T13:22:29Z</time><name>PT5250</name></trkpt>
<trkpt lat="54.629435" lon="-3.075655"><ele>643</ele><time>2020-08-14T13:22:32Z</time><name>PT5251</name></trkpt>
<trkpt lat="54.629437" lon="-3.075720"><ele>643</ele><time>2020-08-14T13:22:36Z</time><name>PT5252</name></trkpt>
<trkpt lat="54.629437" lon="-3.075772"><ele>643</ele><time>2020-08-14T13:22:39Z</time><name>PT5253</name></trkpt>
<trkpt lat="54.629424" lon="-3.075856"><ele>642</ele><time>2020-08-14T13:22:43Z</time><name>PT5254</name></trkpt>
<trkpt lat="54.629416" lon="-3.075889"><ele>642</ele><time>2020-08-14T13:22:46Z</time><name>PT5255</name></trkpt>
<trkpt lat="54.629377" lon="-3.075876"><ele>640</ele><time>2020-08-14T13:22:50Z</time><name>PT5256</name></trkpt>
<trkpt lat="54.629360" lon="-3.075815"><ele>639</ele><time>2020-08-14T13:22:53Z</time><name>PT5257</name></trkpt>
<trkpt lat="54.629344" lon="-3.075772"><ele>639</ele><time>2020-08-14T13:22:56Z</time><name>PT5258</name></trkpt>
<trkpt lat="54.629332" lon="-3.075718"><ele>638</ele><time>2020-08-14T13:23:00Z</time><name>PT5259</name></trkpt>
<trkpt lat="54.629314" lon="-3.075677"><ele>636</ele><time>2020-08-14T13:23:03Z</time><name>PT5260</name></trkpt>
<trkpt lat="54.629294" lon="-3.075661"><ele>634</ele><time>2020-08-14T13:23:07Z</time><name>PT5261</name></trkpt>
<trkpt lat="54.629288" lon="-3.075695"><ele>633</ele><time>2020-08-14T13:23:10Z</time><name>PT5262</name></trkpt>
<trkpt lat="54.629279" lon="-3.075756"><ele>633</ele><time>2020-08-14T13:23:14Z</time><name>PT5263</name></trkpt>
<trkpt lat="54.629273" lon="-3.075815"><ele>633</ele><time>2020-08-14T13:23:17Z</time><name>PT5264</name></trkpt>
<trkpt lat="54.629268" lon="-3.075914"><ele>633</ele><time>2020-08-14T13:23:21Z</time><name>PT5265</name></trkpt>
<trkpt lat="54.629248" lon="-3.075947"><ele>632</ele><time>2020-08-14T13:23:24Z</time><name>PT5266</name></trkpt>
<trkpt lat="54.629224" lon="-3.075889"><ele>630</ele><time>2020-08-14T13:23:28Z</time><name>PT5267</name></trkpt>
<trkpt lat="54.629208" lon="-3.075830"><ele>629</ele><time>2020-08-14T13:23:31Z</time><name>PT5268</name></trkpt>
<trkpt lat="54.629179" lon="-3.075759"><ele>629</ele><time>2020-08-14T13:23:35Z</time><name>PT5269</name></trkpt>
<trkpt lat="54.629162" lon="-3.075723"><ele>628</ele><time>2020-08-14T13:23:39Z</time><name>PT5270</name></trkpt>
<trkpt lat="54.629140" lon="-3.075671"><ele>626</ele><time>2020-08-14T13:23:43Z</time><name>PT5271</name></trkpt>
<trkpt lat="54.629131" lon="-3.075614"><ele>625</ele><time>2020-08-14T13:23:46Z</time><name>PT5272</name></trkpt>
<trkpt lat="54.629119" lon="-3.075567"><ele>624</ele><time>2020-08-14T13:23:49Z</time><name>PT5273</name></trkpt>
<trkpt lat="54.629113" lon="-3.075527"><ele>623</ele><time>2020-08-14T13:23:52Z</time><name>PT5274</name></trkpt>
<trkpt lat="54.629093" lon="-3.075455"><ele>622</ele><time>2020-08-14T13:23:56Z</time><name>PT5275</name></trkpt>
<trkpt lat="54.629085" lon="-3.075412"><ele>620</ele><time>2020-08-14T13:24:00Z</time><name>PT5276</name></trkpt>
<trkpt lat="54.629070" lon="-3.075353"><ele>620</ele><time>2020-08-14T13:24:03Z</time><name>PT5277</name></trkpt>
<trkpt lat="54.629054" lon="-3.075304"><ele>619</ele><time>2020-08-14T13:24:07Z</time><name>PT5278</name></trkpt>
<trkpt lat="54.629045" lon="-3.075251"><ele>618</ele><time>2020-08-14T13:24:11Z</time><name>PT5279</name></trkpt>
<trkpt lat="54.629024" lon="-3.075215"><ele>617</ele><time>2020-08-14T13:24:14Z</time><name>PT5280</name></trkpt>
<trkpt lat="54.629010" lon="-3.075143"><ele>616</ele><time>2020-08-14T13:24:18Z</time><name>PT5281</name></trkpt>
<trkpt lat="54.628988" lon="-3.075119"><ele>616</ele><time>2020-08-14T13:24:21Z</time><name>PT5282</name></trkpt>
<trkpt lat="54.628972" lon="-3.075149"><ele>615</ele><time>2020-08-14T13:24:25Z</time><name>PT5283</name></trkpt>
<trkpt lat="54.628966" lon="-3.075192"><ele>615</ele><time>2020-08-14T13:24:29Z</time><name>PT5284</name></trkpt>
<trkpt lat="54.628949" lon="-3.075239"><ele>616</ele><time>2020-08-14T13:24:32Z</time><name>PT5285</name></trkpt>
<trkpt lat="54.628927" lon="-3.075287"><ele>614</ele><time>2020-08-14T13:24:36Z</time><name>PT5286</name></trkpt>
<trkpt lat="54.628908" lon="-3.075355"><ele>615</ele><time>2020-08-14T13:24:39Z</time><name>PT5287</name></trkpt>
<trkpt lat="54.628908" lon="-3.075428"><ele>614</ele><time>2020-08-14T13:24:43Z</time><name>PT5288</name></trkpt>
<trkpt lat="54.628896" lon="-3.075470"><ele>614</ele><time>2020-08-14T13:24:46Z</time><name>PT5289</name></trkpt>
<trkpt lat="54.628862" lon="-3.075482"><ele>612</ele><time>2020-08-14T13:24:49Z</time><name>PT5290</name></trkpt>
<trkpt lat="54.628834" lon="-3.075437"><ele>610</ele><time>2020-08-14T13:24:53Z</time><name>PT5291</name></trkpt>
<trkpt lat="54.628810" lon="-3.075393"><ele>610</ele><time>2020-08-14T13:24:56Z</time><name>PT5292</name></trkpt>
<trkpt lat="54.628785" lon="-3.075345"><ele>608</ele><time>2020-08-14T13:25:00Z</time><name>PT5293</name></trkpt>
<trkpt lat="54.628762" lon="-3.075308"><ele>607</ele><time>2020-08-14T13:25:04Z</time><name>PT5294</name></trkpt>
<trkpt lat="54.628756" lon="-3.075251"><ele>606</ele><time>2020-08-14T13:25:07Z</time><name>PT5295</name></trkpt>
<trkpt lat="54.628730" lon="-3.075192"><ele>603</ele><time>2020-08-14T13:25:11Z</time><name>PT5296</name></trkpt>
<trkpt lat="54.628716" lon="-3.075153"><ele>601</ele><time>2020-08-14T13:25:14Z</time><name>PT5297</name></trkpt>
<trkpt lat="54.628695" lon="-3.075131"><ele>600</ele><time>2020-08-14T13:25:17Z</time><name>PT5298</name></trkpt>
<trkpt lat="54.628678" lon="-3.075135"><ele>599</ele><time>2020-08-14T13:25:21Z</time><name>PT5299</name></trkpt>
<trkpt lat="54.628668" lon="-3.075175"><ele>599</ele><time>2020-08-14T13:25:25Z</time><name>PT5300</name></trkpt>
<trkpt lat="54.628657" lon="-3.075210"><ele>600</ele><time>2020-08-14T13:25:28Z</time><name>PT5301</name></trkpt>
<trkpt lat="54.628646" lon="-3.075242"><ele>599</ele><time>2020-08-14T13:25:30Z</time><name>PT5302</name></trkpt>
<trkpt lat="54.628639" lon="-3.075249"><ele>599</ele><time>2020-08-14T13:25:31Z</time><name>PT5303</name></trkpt>
<trkpt lat="54.628634" lon="-3.075258"><ele>599</ele><time>2020-08-14T13:25:32Z</time><name>PT5304</name></trkpt>
<trkpt lat="54.628629" lon="-3.075263"><ele>599</ele><time>2020-08-14T13:25:33Z</time><name>PT5305</name></trkpt>
<trkpt lat="54.628625" lon="-3.075273"><ele>598</ele><time>2020-08-14T13:25:34Z</time><name>PT5306</name></trkpt>
<trkpt lat="54.628620" lon="-3.075282"><ele>598</ele><time>2020-08-14T13:25:35Z</time><name>PT5307</name></trkpt>
<trkpt lat="54.628616" lon="-3.075292"><ele>598</ele><time>2020-08-14T13:25:36Z</time><name>PT5308</name></trkpt>
<trkpt lat="54.628607" lon="-3.075300"><ele>597</ele><time>2020-08-14T13:25:37Z</time><name>PT5309</name></trkpt>
<trkpt lat="54.628602" lon="-3.075314"><ele>597</ele><time>2020-08-14T13:25:38Z</time><name>PT5310</name></trkpt>
<trkpt lat="54.628595" lon="-3.075321"><ele>596</ele><time>2020-08-14T13:25:39Z</time><name>PT5311</name></trkpt>
<trkpt lat="54.628589" lon="-3.075329"><ele>596</ele><time>2020-08-14T13:25:40Z</time><name>PT5312</name></trkpt>
<trkpt lat="54.628583" lon="-3.075341"><ele>596</ele><time>2020-08-14T13:25:41Z</time><name>PT5313</name></trkpt>
<trkpt lat="54.628579" lon="-3.075352"><ele>596</ele><time>2020-08-14T13:25:42Z</time><name>PT5314</name></trkpt>
<trkpt lat="54.628576" lon="-3.075360"><ele>595</ele><time>2020-08-14T13:25:43Z</time><name>PT5315</name></trkpt>
<trkpt lat="54.628573" lon="-3.075366"><ele>595</ele><time>2020-08-14T13:25:44Z</time><name>PT5316</name></trkpt>
<trkpt lat="54.628566" lon="-3.075375"><ele>595</ele><time>2020-08-14T13:25:45Z</time><name>PT5317</name></trkpt>
<trkpt lat="54.628555" lon="-3.075382"><ele>594</ele><time>2020-08-14T13:25:46Z</time><name>PT5318</name></trkpt>
<trkpt lat="54.628548" lon="-3.075385"><ele>594</ele><time>2020-08-14T13:25:47Z</time><name>PT5319</name></trkpt>
<trkpt lat="54.628543" lon="-3.075391"><ele>594</ele><time>2020-08-14T13:25:48Z</time><name>PT5320</name></trkpt>
<trkpt lat="54.628533" lon="-3.075399"><ele>594</ele><time>2020-08-14T13:25:49Z</time><name>PT5321</name></trkpt>
<trkpt lat="54.628524" lon="-3.075405"><ele>594</ele><time>2020-08-14T13:25:50Z</time><name>PT5322</name></trkpt>
<trkpt lat="54.628515" lon="-3.075411"><ele>594</ele><time>2020-08-14T13:25:51Z</time><name>PT5323</name></trkpt>
<trkpt lat="54.628506" lon="-3.075419"><ele>593</ele><time>2020-08-14T13:25:52Z</time><name>PT5324</name></trkpt>
<trkpt lat="54.628499" lon="-3.075430"><ele>593</ele><time>2020-08-14T13:25:53Z</time><name>PT5325</name></trkpt>
<trkpt lat="54.628493" lon="-3.075442"><ele>594</ele><time>2020-08-14T13:25:54Z</time><name>PT5326</name></trkpt>
<trkpt lat="54.628489" lon="-3.075457"><ele>594</ele><time>2020-08-14T13:25:55Z</time><name>PT5327</name></trkpt>
<trkpt lat="54.628484" lon="-3.075474"><ele>594</ele><time>2020-08-14T13:25:56Z</time><name>PT5328</name></trkpt>
<trkpt lat="54.628475" lon="-3.075495"><ele>593</ele><time>2020-08-14T13:25:57Z</time><name>PT5329</name></trkpt>
<trkpt lat="54.628467" lon="-3.075522"><ele>593</ele><time>2020-08-14T13:25:58Z</time><name>PT5330</name></trkpt>
<trkpt lat="54.628460" lon="-3.075544"><ele>593</ele><time>2020-08-14T13:25:59Z</time><name>PT5331</name></trkpt>
<trkpt lat="54.628455" lon="-3.075566"><ele>593</ele><time>2020-08-14T13:26:00Z</time><name>PT5332</name></trkpt>
<trkpt lat="54.628446" lon="-3.075591"><ele>593</ele><time>2020-08-14T13:26:01Z</time><name>PT5333</name></trkpt>
<trkpt lat="54.628440" lon="-3.075615"><ele>594</ele><time>2020-08-14T13:26:02Z</time><name>PT5334</name></trkpt>
<trkpt lat="54.628435" lon="-3.075640"><ele>594</ele><time>2020-08-14T13:26:03Z</time><name>PT5335</name></trkpt>
<trkpt lat="54.628432" lon="-3.075659"><ele>594</ele><time>2020-08-14T13:26:04Z</time><name>PT5336</name></trkpt>
<trkpt lat="54.628429" lon="-3.075671"><ele>594</ele><time>2020-08-14T13:26:05Z</time><name>PT5337</name></trkpt>
<trkpt lat="54.628426" lon="-3.075687"><ele>594</ele><time>2020-08-14T13:26:06Z</time><name>PT5338</name></trkpt>
<trkpt lat="54.628423" lon="-3.075703"><ele>593</ele><time>2020-08-14T13:26:07Z</time><name>PT5339</name></trkpt>
<trkpt lat="54.628418" lon="-3.075723"><ele>593</ele><time>2020-08-14T13:26:08Z</time><name>PT5340</name></trkpt>
<trkpt lat="54.628414" lon="-3.075741"><ele>592</ele><time>2020-08-14T13:26:09Z</time><name>PT5341</name></trkpt>
<trkpt lat="54.628409" lon="-3.075759"><ele>592</ele><time>2020-08-14T13:26:10Z</time><name>PT5342</name></trkpt>
<trkpt lat="54.628405" lon="-3.075775"><ele>591</ele><time>2020-08-14T13:26:11Z</time><name>PT5343</name></trkpt>
<trkpt lat="54.628402" lon="-3.075791"><ele>591</ele><time>2020-08-14T13:26:12Z</time><name>PT5344</name></trkpt>
<trkpt lat="54.628397" lon="-3.075807"><ele>591</ele><time>2020-08-14T13:26:13Z</time><name>PT5345</name></trkpt>
<trkpt lat="54.628392" lon="-3.075824"><ele>590</ele><time>2020-08-14T13:26:14Z</time><name>PT5346</name></trkpt>
<trkpt lat="54.628388" lon="-3.075843"><ele>590</ele><time>2020-08-14T13:26:15Z</time><name>PT5347</name></trkpt>
<trkpt lat="54.628386" lon="-3.075861"><ele>590</ele><time>2020-08-14T13:26:16Z</time><name>PT5348</name></trkpt>
<trkpt lat="54.628383" lon="-3.075880"><ele>590</ele><time>2020-08-14T13:26:17Z</time><name>PT5349</name></trkpt>
<trkpt lat="54.628381" lon="-3.075903"><ele>591</ele><time>2020-08-14T13:26:18Z</time><name>PT5350</name></trkpt>
<trkpt lat="54.628378" lon="-3.075923"><ele>591</ele><time>2020-08-14T13:26:19Z</time><name>PT5351</name></trkpt>
<trkpt lat="54.628375" lon="-3.075934"><ele>590</ele><time>2020-08-14T13:26:20Z</time><name>PT5352</name></trkpt>
<trkpt lat="54.628372" lon="-3.075946"><ele>590</ele><time>2020-08-14T13:26:21Z</time><name>PT5353</name></trkpt>
<trkpt lat="54.628370" lon="-3.075960"><ele>590</ele><time>2020-08-14T13:26:22Z</time><name>PT5354</name></trkpt>
<trkpt lat="54.628368" lon="-3.075975"><ele>589</ele><time>2020-08-14T13:26:23Z</time><name>PT5355</name></trkpt>
<trkpt lat="54.628370" lon="-3.075989"><ele>589</ele><time>2020-08-14T13:26:24Z</time><name>PT5356</name></trkpt>
<trkpt lat="54.628370" lon="-3.076010"><ele>589</ele><time>2020-08-14T13:26:25Z</time><name>PT5357</name></trkpt>
<trkpt lat="54.628365" lon="-3.076030"><ele>588</ele><time>2020-08-14T13:26:26Z</time><name>PT5358</name></trkpt>
<trkpt lat="54.628361" lon="-3.076053"><ele>588</ele><time>2020-08-14T13:26:27Z</time><name>PT5359</name></trkpt>
<trkpt lat="54.628353" lon="-3.076077"><ele>587</ele><time>2020-08-14T13:26:28Z</time><name>PT5360</name></trkpt>
<trkpt lat="54.628345" lon="-3.076099"><ele>587</ele><time>2020-08-14T13:26:29Z</time><name>PT5361</name></trkpt>
<trkpt lat="54.628334" lon="-3.076118"><ele>588</ele><time>2020-08-14T13:26:30Z</time><name>PT5362</name></trkpt>
<trkpt lat="54.628323" lon="-3.076131"><ele>587</ele><time>2020-08-14T13:26:31Z</time><name>PT5363</name></trkpt>
<trkpt lat="54.628314" lon="-3.076150"><ele>587</ele><time>2020-08-14T13:26:32Z</time><name>PT5364</name></trkpt>
<trkpt lat="54.628309" lon="-3.076167"><ele>587</ele><time>2020-08-14T13:26:33Z</time><name>PT5365</name></trkpt>
<trkpt lat="54.628306" lon="-3.076177"><ele>587</ele><time>2020-08-14T13:26:34Z</time><name>PT5366</name></trkpt>
<trkpt lat="54.628301" lon="-3.076188"><ele>587</ele><time>2020-08-14T13:26:35Z</time><name>PT5367</name></trkpt>
<trkpt lat="54.628295" lon="-3.076207"><ele>587</ele><time>2020-08-14T13:26:36Z</time><name>PT5368</name></trkpt>
<trkpt lat="54.628288" lon="-3.076222"><ele>586</ele><time>2020-08-14T13:26:37Z</time><name>PT5369</name></trkpt>
<trkpt lat="54.628281" lon="-3.076243"><ele>585</ele><time>2020-08-14T13:26:38Z</time><name>PT5370</name></trkpt>
<trkpt lat="54.628278" lon="-3.076260"><ele>585</ele><time>2020-08-14T13:26:39Z</time><name>PT5371</name></trkpt>
<trkpt lat="54.628276" lon="-3.076281"><ele>584</ele><time>2020-08-14T13:26:40Z</time><name>PT5372</name></trkpt>
<trkpt lat="54.628275" lon="-3.076306"><ele>585</ele><time>2020-08-14T13:26:41Z</time><name>PT5373</name></trkpt>
<trkpt lat="54.628274" lon="-3.076330"><ele>584</ele><time>2020-08-14T13:26:42Z</time><name>PT5374</name></trkpt>
<trkpt lat="54.628272" lon="-3.076361"><ele>585</ele><time>2020-08-14T13:26:43Z</time><name>PT5375</name></trkpt>
<trkpt lat="54.628271" lon="-3.076390"><ele>585</ele><time>2020-08-14T13:26:44Z</time><name>PT5376</name></trkpt>
<trkpt lat="54.628271" lon="-3.076405"><ele>585</ele><time>2020-08-14T13:26:45Z</time><name>PT5377</name></trkpt>
<trkpt lat="54.628270" lon="-3.076422"><ele>585</ele><time>2020-08-14T13:26:46Z</time><name>PT5378</name></trkpt>
<trkpt lat="54.628269" lon="-3.076436"><ele>585</ele><time>2020-08-14T13:26:47Z</time><name>PT5379</name></trkpt>
<trkpt lat="54.628264" lon="-3.076449"><ele>585</ele><time>2020-08-14T13:26:48Z</time><name>PT5380</name></trkpt>
<trkpt lat="54.628257" lon="-3.076461"><ele>585</ele><time>2020-08-14T13:26:49Z</time><name>PT5381</name></trkpt>
<trkpt lat="54.628250" lon="-3.076479"><ele>584</ele><time>2020-08-14T13:26:50Z</time><name>PT5382</name></trkpt>
<trkpt lat="54.628245" lon="-3.076494"><ele>584</ele><time>2020-08-14T13:26:51Z</time><name>PT5383</name></trkpt>
<trkpt lat="54.628240" lon="-3.076515"><ele>584</ele><time>2020-08-14T13:26:52Z</time><name>PT5384</name></trkpt>
<trkpt lat="54.628232" lon="-3.076533"><ele>584</ele><time>2020-08-14T13:26:53Z</time><name>PT5385</name></trkpt>
<trkpt lat="54.628224" lon="-3.076545"><ele>584</ele><time>2020-08-14T13:26:54Z</time><name>PT5386</name></trkpt>
<trkpt lat="54.628220" lon="-3.076551"><ele>584</ele><time>2020-08-14T13:26:55Z</time><name>PT5387</name></trkpt>
<trkpt lat="54.628212" lon="-3.076560"><ele>583</ele><time>2020-08-14T13:26:56Z</time><name>PT5388</name></trkpt>
<trkpt lat="54.628201" lon="-3.076572"><ele>583</ele><time>2020-08-14T13:26:57Z</time><name>PT5389</name></trkpt>
<trkpt lat="54.628193" lon="-3.076586"><ele>582</ele><time>2020-08-14T13:26:58Z</time><name>PT5390</name></trkpt>
<trkpt lat="54.628187" lon="-3.076603"><ele>582</ele><time>2020-08-14T13:26:59Z</time><name>PT5391</name></trkpt>
<trkpt lat="54.628177" lon="-3.076618"><ele>582</ele><time>2020-08-14T13:27:00Z</time><name>PT5392</name></trkpt>
<trkpt lat="54.628166" lon="-3.076637"><ele>582</ele><time>2020-08-14T13:27:01Z</time><name>PT5393</name></trkpt>
<trkpt lat="54.628155" lon="-3.076653"><ele>581</ele><time>2020-08-14T13:27:02Z</time><name>PT5394</name></trkpt>
<trkpt lat="54.628146" lon="-3.076671"><ele>581</ele><time>2020-08-14T13:27:03Z</time><name>PT5395</name></trkpt>
<trkpt lat="54.628138" lon="-3.076692"><ele>581</ele><time>2020-08-14T13:27:04Z</time><name>PT5396</name></trkpt>
<trkpt lat="54.628131" lon="-3.076713"><ele>581</ele><time>2020-08-14T13:27:05Z</time><name>PT5397</name></trkpt>
<trkpt lat="54.628124" lon="-3.076735"><ele>581</ele><time>2020-08-14T13:27:06Z</time><name>PT5398</name></trkpt>
<trkpt lat="54.628118" lon="-3.076751"><ele>581</ele><time>2020-08-14T13:27:07Z</time><name>PT5399</name></trkpt>
<trkpt lat="54.628116" lon="-3.076762"><ele>581</ele><time>2020-08-14T13:27:08Z</time><name>PT5400</name></trkpt>
<trkpt lat="54.628114" lon="-3.076774"><ele>580</ele><time>2020-08-14T13:27:09Z</time><name>PT5401</name></trkpt>
<trkpt lat="54.628112" lon="-3.076782"><ele>580</ele><time>2020-08-14T13:27:10Z</time><name>PT5402</name></trkpt>
<trkpt lat="54.628109" lon="-3.076787"><ele>580</ele><time>2020-08-14T13:27:11Z</time><name>PT5403</name></trkpt>
<trkpt lat="54.628105" lon="-3.076793"><ele>579</ele><time>2020-08-14T13:27:12Z</time><name>PT5404</name></trkpt>
<trkpt lat="54.628101" lon="-3.076803"><ele>579</ele><time>2020-08-14T13:27:13Z</time><name>PT5405</name></trkpt>
<trkpt lat="54.628097" lon="-3.076809"><ele>579</ele><time>2020-08-14T13:27:14Z</time><name>PT5406</name></trkpt>
<trkpt lat="54.628093" lon="-3.076815"><ele>579</ele><time>2020-08-14T13:27:15Z</time><name>PT5407</name></trkpt>
<trkpt lat="54.628090" lon="-3.076825"><ele>579</ele><time>2020-08-14T13:27:16Z</time><name>PT5408</name></trkpt>
<trkpt lat="54.628087" lon="-3.076831"><ele>578</ele><time>2020-08-14T13:27:17Z</time><name>PT5409</name></trkpt>
<trkpt lat="54.628083" lon="-3.076837"><ele>578</ele><time>2020-08-14T13:27:18Z</time><name>PT5410</name></trkpt>
<trkpt lat="54.628076" lon="-3.076846"><ele>578</ele><time>2020-08-14T13:27:19Z</time><name>PT5411</name></trkpt>
<trkpt lat="54.628071" lon="-3.076857"><ele>577</ele><time>2020-08-14T13:27:20Z</time><name>PT5412</name></trkpt>
<trkpt lat="54.628064" lon="-3.076866"><ele>577</ele><time>2020-08-14T13:27:21Z</time><name>PT5413</name></trkpt>
<trkpt lat="54.628059" lon="-3.076873"><ele>576</ele><time>2020-08-14T13:27:22Z</time><name>PT5414</name></trkpt>
<trkpt lat="54.628054" lon="-3.076878"><ele>576</ele><time>2020-08-14T13:27:23Z</time><name>PT5415</name></trkpt>
<trkpt lat="54.628049" lon="-3.076890"><ele>576</ele><time>2020-08-14T13:27:24Z</time><name>PT5416</name></trkpt>
<trkpt lat="54.628045" lon="-3.076904"><ele>575</ele><time>2020-08-14T13:27:25Z</time><name>PT5417</name></trkpt>
<trkpt lat="54.628041" lon="-3.076917"><ele>575</ele><time>2020-08-14T13:27:26Z</time><name>PT5418</name></trkpt>
<trkpt lat="54.628037" lon="-3.076929"><ele>574</ele><time>2020-08-14T13:27:27Z</time><name>PT5419</name></trkpt>
<trkpt lat="54.628030" lon="-3.076940"><ele>574</ele><time>2020-08-14T13:27:28Z</time><name>PT5420</name></trkpt>
<trkpt lat="54.628027" lon="-3.076945"><ele>574</ele><time>2020-08-14T13:27:29Z</time><name>PT5421</name></trkpt>
<trkpt lat="54.628022" lon="-3.076950"><ele>573</ele><time>2020-08-14T13:27:30Z</time><name>PT5422</name></trkpt>
<trkpt lat="54.628015" lon="-3.076958"><ele>573</ele><time>2020-08-14T13:27:31Z</time><name>PT5423</name></trkpt>
<trkpt lat="54.628008" lon="-3.076965"><ele>573</ele><time>2020-08-14T13:27:32Z</time><name>PT5424</name></trkpt>
<trkpt lat="54.628002" lon="-3.076974"><ele>572</ele><time>2020-08-14T13:27:33Z</time><name>PT5425</name></trkpt>
<trkpt lat="54.627997" lon="-3.076980"><ele>572</ele><time>2020-08-14T13:27:34Z</time><name>PT5426</name></trkpt>
<trkpt lat="54.627993" lon="-3.076989"><ele>572</ele><time>2020-08-14T13:27:35Z</time><name>PT5427</name></trkpt>
<trkpt lat="54.627987" lon="-3.077004"><ele>572</ele><time>2020-08-14T13:27:36Z</time><name>PT5428</name></trkpt>
<trkpt lat="54.627978" lon="-3.077018"><ele>572</ele><time>2020-08-14T13:27:37Z</time><name>PT5429</name></trkpt>
<trkpt lat="54.627971" lon="-3.077032"><ele>572</ele><time>2020-08-14T13:27:38Z</time><name>PT5430</name></trkpt>
<trkpt lat="54.627966" lon="-3.077040"><ele>571</ele><time>2020-08-14T13:27:39Z</time><name>PT5431</name></trkpt>
<trkpt lat="54.627959" lon="-3.077044"><ele>571</ele><time>2020-08-14T13:27:40Z</time><name>PT5432</name></trkpt>
<trkpt lat="54.627952" lon="-3.077051"><ele>571</ele><time>2020-08-14T13:27:41Z</time><name>PT5433</name></trkpt>
<trkpt lat="54.627945" lon="-3.077066"><ele>571</ele><time>2020-08-14T13:27:42Z</time><name>PT5434</name></trkpt>
<trkpt lat="54.627937" lon="-3.077082"><ele>570</ele><time>2020-08-14T13:27:43Z</time><name>PT5435</name></trkpt>
<trkpt lat="54.627929" lon="-3.077101"><ele>570</ele><time>2020-08-14T13:27:44Z</time><name>PT5436</name></trkpt>
<trkpt lat="54.627921" lon="-3.077122"><ele>570</ele><time>2020-08-14T13:27:45Z</time><name>PT5437</name></trkpt>
<trkpt lat="54.627913" lon="-3.077149"><ele>570</ele><time>2020-08-14T13:27:46Z</time><name>PT5438</name></trkpt>
<trkpt lat="54.627907" lon="-3.077170"><ele>570</ele><time>2020-08-14T13:27:47Z</time><name>PT5439</name></trkpt>
<trkpt lat="54.627904" lon="-3.077182"><ele>570</ele><time>2020-08-14T13:27:48Z</time><name>PT5440</name></trkpt>
<trkpt lat="54.627903" lon="-3.077198"><ele>570</ele><time>2020-08-14T13:27:49Z</time><name>PT5441</name></trkpt>
<trkpt lat="54.627901" lon="-3.077212"><ele>569</ele><time>2020-08-14T13:27:50Z</time><name>PT5442</name></trkpt>
<trkpt lat="54.627899" lon="-3.077237"><ele>570</ele><time>2020-08-14T13:27:51Z</time><name>PT5443</name></trkpt>
<trkpt lat="54.627896" lon="-3.077258"><ele>569</ele><time>2020-08-14T13:27:52Z</time><name>PT5444</name></trkpt>
<trkpt lat="54.627889" lon="-3.077279"><ele>569</ele><time>2020-08-14T13:27:53Z</time><name>PT5445</name></trkpt>
<trkpt lat="54.627880" lon="-3.077300"><ele>569</ele><time>2020-08-14T13:27:54Z</time><name>PT5446</name></trkpt>
<trkpt lat="54.627873" lon="-3.077320"><ele>569</ele><time>2020-08-14T13:27:55Z</time><name>PT5447</name></trkpt>
<trkpt lat="54.627868" lon="-3.077336"><ele>568</ele><time>2020-08-14T13:27:56Z</time><name>PT5448</name></trkpt>
<trkpt lat="54.627864" lon="-3.077346"><ele>568</ele><time>2020-08-14T13:27:57Z</time><name>PT5449</name></trkpt>
<trkpt lat="54.627862" lon="-3.077356"><ele>568</ele><time>2020-08-14T13:27:58Z</time><name>PT5450</name></trkpt>
<trkpt lat="54.627857" lon="-3.077368"><ele>568</ele><time>2020-08-14T13:27:59Z</time><name>PT5451</name></trkpt>
<trkpt lat="54.627851" lon="-3.077378"><ele>567</ele><time>2020-08-14T13:28:00Z</time><name>PT5452</name></trkpt>
<trkpt lat="54.627844" lon="-3.077394"><ele>567</ele><time>2020-08-14T13:28:01Z</time><name>PT5453</name></trkpt>
<trkpt lat="54.627837" lon="-3.077409"><ele>567</ele><time>2020-08-14T13:28:02Z</time><name>PT5454</name></trkpt>
<trkpt lat="54.627831" lon="-3.077424"><ele>566</ele><time>2020-08-14T13:28:03Z</time><name>PT5455</name></trkpt>
<trkpt lat="54.627823" lon="-3.077439"><ele>566</ele><time>2020-08-14T13:28:04Z</time><name>PT5456</name></trkpt>
<trkpt lat="54.627815" lon="-3.077452"><ele>566</ele><time>2020-08-14T13:28:05Z</time><name>PT5457</name></trkpt>
<trkpt lat="54.627803" lon="-3.077465"><ele>565</ele><time>2020-08-14T13:28:06Z</time><name>PT5458</name></trkpt>
<trkpt lat="54.627792" lon="-3.077478"><ele>565</ele><time>2020-08-14T13:28:07Z</time><name>PT5459</name></trkpt>
<trkpt lat="54.627785" lon="-3.077491"><ele>565</ele><time>2020-08-14T13:28:08Z</time><name>PT5460</name></trkpt>
<trkpt lat="54.627777" lon="-3.077500"><ele>565</ele><time>2020-08-14T13:28:09Z</time><name>PT5461</name></trkpt>
<trkpt lat="54.627771" lon="-3.077503"><ele>564</ele><time>2020-08-14T13:28:10Z</time><name>PT5462</name></trkpt>
<trkpt lat="54.627764" lon="-3.077511"><ele>563</ele><time>2020-08-14T13:28:11Z</time><name>PT5463</name></trkpt>
<trkpt lat="54.627753" lon="-3.077528"><ele>563</ele><time>2020-08-14T13:28:12Z</time><name>PT5464</name></trkpt>
<trkpt lat="54.627740" lon="-3.077545"><ele>563</ele><time>2020-08-14T13:28:13Z</time><name>PT5465</name></trkpt>
<trkpt lat="54.627730" lon="-3.077557"><ele>562</ele><time>2020-08-14T13:28:14Z</time><name>PT5466</name></trkpt>
<trkpt lat="54.627722" lon="-3.077573"><ele>562</ele><time>2020-08-14T13:28:15Z</time><name>PT5467</name></trkpt>
<trkpt lat="54.627711" lon="-3.077591"><ele>562</ele><time>2020-08-14T13:28:16Z</time><name>PT5468</name></trkpt>
<trkpt lat="54.627699" lon="-3.077604"><ele>562</ele><time>2020-08-14T13:28:17Z</time><name>PT5469</name></trkpt>
<trkpt lat="54.627695" lon="-3.077618"><ele>562</ele><time>2020-08-14T13:28:18Z</time><name>PT5470</name></trkpt>
<trkpt lat="54.627691" lon="-3.077629"><ele>562</ele><time>2020-08-14T13:28:19Z</time><name>PT5471</name></trkpt>
<trkpt lat="54.627694" lon="-3.077630"><ele>563</ele><time>2020-08-14T13:28:20Z</time><name>PT5472</name></trkpt>
<trkpt lat="54.627693" lon="-3.077645"><ele>563</ele><time>2020-08-14T13:28:21Z</time><name>PT5473</name></trkpt>
<trkpt lat="54.627692" lon="-3.077667"><ele>562</ele><time>2020-08-14T13:28:22Z</time><name>PT5474</name></trkpt>
<trkpt lat="54.627691" lon="-3.077686"><ele>562</ele><time>2020-08-14T13:28:23Z</time><name>PT5475</name></trkpt>
<trkpt lat="54.627690" lon="-3.077705"><ele>562</ele><time>2020-08-14T13:28:24Z</time><name>PT5476</name></trkpt>
<trkpt lat="54.627686" lon="-3.077722"><ele>561</ele><time>2020-08-14T13:28:25Z</time><name>PT5477</name></trkpt>
<trkpt lat="54.627679" lon="-3.077741"><ele>561</ele><time>2020-08-14T13:28:26Z</time><name>PT5478</name></trkpt>
<trkpt lat="54.627671" lon="-3.077760"><ele>561</ele><time>2020-08-14T13:28:27Z</time><name>PT5479</name></trkpt>
<trkpt lat="54.627666" lon="-3.077782"><ele>560</ele><time>2020-08-14T13:28:28Z</time><name>PT5480</name></trkpt>
<trkpt lat="54.627661" lon="-3.077801"><ele>560</ele><time>2020-08-14T13:28:29Z</time><name>PT5481</name></trkpt>
<trkpt lat="54.627655" lon="-3.077818"><ele>560</ele><time>2020-08-14T13:28:30Z</time><name>PT5482</name></trkpt>
<trkpt lat="54.627646" lon="-3.077886"><ele>558</ele><time>2020-08-14T13:28:34Z</time><name>PT5483</name></trkpt>
<trkpt lat="54.627628" lon="-3.077927"><ele>558</ele><time>2020-08-14T13:28:37Z</time><name>PT5484</name></trkpt>
<trkpt lat="54.627599" lon="-3.077963"><ele>556</ele><time>2020-08-14T13:28:40Z</time><name>PT5485</name></trkpt>
<trkpt lat="54.627557" lon="-3.078016"><ele>556</ele><time>2020-08-14T13:28:44Z</time><name>PT5486</name></trkpt>
<trkpt lat="54.627540" lon="-3.078036"><ele>555</ele><time>2020-08-14T13:28:47Z</time><name>PT5487</name></trkpt>
<trkpt lat="54.627516" lon="-3.078059"><ele>553</ele><time>2020-08-14T13:28:50Z</time><name>PT5488</name></trkpt>
<trkpt lat="54.627472" lon="-3.078096"><ele>552</ele><time>2020-08-14T13:28:54Z</time><name>PT5489</name></trkpt>
<trkpt lat="54.627445" lon="-3.078110"><ele>551</ele><time>2020-08-14T13:28:58Z</time><name>PT5490</name></trkpt>
<trkpt lat="54.627410" lon="-3.078131"><ele>551</ele><time>2020-08-14T13:29:01Z</time><name>PT5491</name></trkpt>
<trkpt lat="54.627378" lon="-3.078155"><ele>550</ele><time>2020-08-14T13:29:04Z</time><name>PT5492</name></trkpt>
<trkpt lat="54.627345" lon="-3.078195"><ele>550</ele><time>2020-08-14T13:29:07Z</time><name>PT5493</name></trkpt>
<trkpt lat="54.627318" lon="-3.078229"><ele>547</ele><time>2020-08-14T13:29:11Z</time><name>PT5494</name></trkpt>
<trkpt lat="54.627280" lon="-3.078269"><ele>546</ele><time>2020-08-14T13:29:15Z</time><name>PT5495</name></trkpt>
<trkpt lat="54.627240" lon="-3.078306"><ele>546</ele><time>2020-08-14T13:29:19Z</time><name>PT5496</name></trkpt>
<trkpt lat="54.627216" lon="-3.078342"><ele>545</ele><time>2020-08-14T13:29:23Z</time><name>PT5497</name></trkpt>
<trkpt lat="54.627198" lon="-3.078364"><ele>544</ele><time>2020-08-14T13:29:26Z</time><name>PT5498</name></trkpt>
<trkpt lat="54.627182" lon="-3.078384"><ele>544</ele><time>2020-08-14T13:29:29Z</time><name>PT5499</name></trkpt>
<trkpt lat="54.627148" lon="-3.078382"><ele>542</ele><time>2020-08-14T13:29:33Z</time><name>PT5500</name></trkpt>
<trkpt lat="54.627115" lon="-3.078391"><ele>541</ele><time>2020-08-14T13:29:37Z</time><name>PT5501</name></trkpt>
<trkpt lat="54.627096" lon="-3.078405"><ele>539</ele><time>2020-08-14T13:29:40Z</time><name>PT5502</name></trkpt>
<trkpt lat="54.627063" lon="-3.078438"><ele>539</ele><time>2020-08-14T13:29:44Z</time><name>PT5503</name></trkpt>
<trkpt lat="54.627044" lon="-3.078485"><ele>539</ele><time>2020-08-14T13:29:48Z</time><name>PT5504</name></trkpt>
<trkpt lat="54.627029" lon="-3.078512"><ele>538</ele><time>2020-08-14T13:29:51Z</time><name>PT5505</name></trkpt>
<trkpt lat="54.627010" lon="-3.078554"><ele>538</ele><time>2020-08-14T13:29:54Z</time><name>PT5506</name></trkpt>
<trkpt lat="54.626994" lon="-3.078608"><ele>538</ele><time>2020-08-14T13:29:58Z</time><name>PT5507</name></trkpt>
<trkpt lat="54.626977" lon="-3.078641"><ele>537</ele><time>2020-08-14T13:30:01Z</time><name>PT5508</name></trkpt>
<trkpt lat="54.626948" lon="-3.078686"><ele>536</ele><time>2020-08-14T13:30:05Z</time><name>PT5509</name></trkpt>
<trkpt lat="54.626914" lon="-3.078741"><ele>536</ele><time>2020-08-14T13:30:09Z</time><name>PT5510</name></trkpt>
<trkpt lat="54.626899" lon="-3.078778"><ele>535</ele><time>2020-08-14T13:30:12Z</time><name>PT5511</name></trkpt>
<trkpt lat="54.626873" lon="-3.078825"><ele>535</ele><time>2020-08-14T13:30:15Z</time><name>PT5512</name></trkpt>
<trkpt lat="54.626858" lon="-3.078868"><ele>535</ele><time>2020-08-14T13:30:18Z</time><name>PT5513</name></trkpt>
<trkpt lat="54.626839" lon="-3.078917"><ele>535</ele><time>2020-08-14T13:30:22Z</time><name>PT5514</name></trkpt>
<trkpt lat="54.626827" lon="-3.078970"><ele>534</ele><time>2020-08-14T13:30:25Z</time><name>PT5515</name></trkpt>
<trkpt lat="54.626810" lon="-3.079022"><ele>534</ele><time>2020-08-14T13:30:29Z</time><name>PT5516</name></trkpt>
<trkpt lat="54.626793" lon="-3.079075"><ele>533</ele><time>2020-08-14T13:30:33Z</time><name>PT5517</name></trkpt>
<trkpt lat="54.626776" lon="-3.079107"><ele>533</ele><time>2020-08-14T13:30:36Z</time><name>PT5518</name></trkpt>
<trkpt lat="54.626775" lon="-3.079168"><ele>531</ele><time>2020-08-14T13:30:40Z</time><name>PT5519</name></trkpt>
<trkpt lat="54.626767" lon="-3.079220"><ele>531</ele><time>2020-08-14T13:30:43Z</time><name>PT5520</name></trkpt>
<trkpt lat="54.626764" lon="-3.079280"><ele>531</ele><time>2020-08-14T13:30:47Z</time><name>PT5521</name></trkpt>
<trkpt lat="54.626756" lon="-3.079320"><ele>530</ele><time>2020-08-14T13:30:51Z</time><name>PT5522</name></trkpt>
<trkpt lat="54.626715" lon="-3.079346"><ele>528</ele><time>2020-08-14T13:30:55Z</time><name>PT5523</name></trkpt>
<trkpt lat="54.626681" lon="-3.079370"><ele>527</ele><time>2020-08-14T13:30:59Z</time><name>PT5524</name></trkpt>
<trkpt lat="54.626655" lon="-3.079393"><ele>526</ele><time>2020-08-14T13:31:03Z</time><name>PT5525</name></trkpt>
<trkpt lat="54.626637" lon="-3.079414"><ele>524</ele><time>2020-08-14T13:31:06Z</time><name>PT5526</name></trkpt>
<trkpt lat="54.626625" lon="-3.079433"><ele>523</ele><time>2020-08-14T13:31:09Z</time><name>PT5527</name></trkpt>
<trkpt lat="54.626614" lon="-3.079466"><ele>522</ele><time>2020-08-14T13:31:12Z</time><name>PT5528</name></trkpt>
<trkpt lat="54.626606" lon="-3.079505"><ele>521</ele><time>2020-08-14T13:31:16Z</time><name>PT5529</name></trkpt>
<trkpt lat="54.626580" lon="-3.079552"><ele>520</ele><time>2020-08-14T13:31:20Z</time><name>PT5530</name></trkpt>
<trkpt lat="54.626563" lon="-3.079590"><ele>519</ele><time>2020-08-14T13:31:23Z</time><name>PT5531</name></trkpt>
<trkpt lat="54.626535" lon="-3.079654"><ele>518</ele><time>2020-08-14T13:31:27Z</time><name>PT5532</name></trkpt>
<trkpt lat="54.626528" lon="-3.079703"><ele>519</ele><time>2020-08-14T13:31:30Z</time><name>PT5533</name></trkpt>
<trkpt lat="54.626538" lon="-3.079752"><ele>518</ele><time>2020-08-14T13:31:34Z</time><name>PT5534</name></trkpt>
<trkpt lat="54.626544" lon="-3.079823"><ele>517</ele><time>2020-08-14T13:31:38Z</time><name>PT5535</name></trkpt>
<trkpt lat="54.626540" lon="-3.079872"><ele>517</ele><time>2020-08-14T13:31:42Z</time><name>PT5536</name></trkpt>
<trkpt lat="54.626521" lon="-3.079901"><ele>516</ele><time>2020-08-14T13:31:45Z</time><name>PT5537</name></trkpt>
<trkpt lat="54.626504" lon="-3.079922"><ele>515</ele><time>2020-08-14T13:31:48Z</time><name>PT5538</name></trkpt>
<trkpt lat="54.626480" lon="-3.079944"><ele>515</ele><time>2020-08-14T13:31:52Z</time><name>PT5539</name></trkpt>
<trkpt lat="54.626470" lon="-3.079959"><ele>513</ele><time>2020-08-14T13:31:55Z</time><name>PT5540</name></trkpt>
<trkpt lat="54.626462" lon="-3.079985"><ele>513</ele><time>2020-08-14T13:31:59Z</time><name>PT5541</name></trkpt>
<trkpt lat="54.626434" lon="-3.080039"><ele>512</ele><time>2020-08-14T13:32:03Z</time><name>PT5542</name></trkpt>
<trkpt lat="54.626429" lon="-3.080046"><ele>512</ele><time>2020-08-14T13:32:07Z</time><name>PT5543</name></trkpt>
<trkpt lat="54.626430" lon="-3.080048"><ele>512</ele><time>2020-08-14T13:33:01Z</time><name>PT5544</name></trkpt>
<trkpt lat="54.626416" lon="-3.080077"><ele>511</ele><time>2020-08-14T13:33:04Z</time><name>PT5545</name></trkpt>
<trkpt lat="54.626387" lon="-3.080111"><ele>510</ele><time>2020-08-14T13:33:08Z</time><name>PT5546</name></trkpt>
<trkpt lat="54.626367" lon="-3.080151"><ele>508</ele><time>2020-08-14T13:33:11Z</time><name>PT5547</name></trkpt>
<trkpt lat="54.626330" lon="-3.080223"><ele>509</ele><time>2020-08-14T13:33:15Z</time><name>PT5548</name></trkpt>
<trkpt lat="54.626303" lon="-3.080261"><ele>507</ele><time>2020-08-14T13:33:19Z</time><name>PT5549</name></trkpt>
<trkpt lat="54.626277" lon="-3.080313"><ele>507</ele><time>2020-08-14T13:33:22Z</time><name>PT5550</name></trkpt>
<trkpt lat="54.626266" lon="-3.080397"><ele>506</ele><time>2020-08-14T13:33:26Z</time><name>PT5551</name></trkpt>
<trkpt lat="54.626268" lon="-3.080482"><ele>506</ele><time>2020-08-14T13:33:30Z</time><name>PT5552</name></trkpt>
<trkpt lat="54.626256" lon="-3.080535"><ele>506</ele><time>2020-08-14T13:33:33Z</time><name>PT5553</name></trkpt>
<trkpt lat="54.626238" lon="-3.080560"><ele>505</ele><time>2020-08-14T13:33:36Z</time><name>PT5554</name></trkpt>
<trkpt lat="54.626213" lon="-3.080590"><ele>504</ele><time>2020-08-14T13:33:40Z</time><name>PT5555</name></trkpt>
<trkpt lat="54.626208" lon="-3.080589"><ele>503</ele><time>2020-08-14T13:33:43Z</time><name>PT5556</name></trkpt>
<trkpt lat="54.626187" lon="-3.080627"><ele>503</ele><time>2020-08-14T13:34:22Z</time><name>PT5557</name></trkpt>
<trkpt lat="54.626144" lon="-3.080649"><ele>501</ele><time>2020-08-14T13:34:26Z</time><name>PT5558</name></trkpt>
<trkpt lat="54.626113" lon="-3.080674"><ele>501</ele><time>2020-08-14T13:34:29Z</time><name>PT5559</name></trkpt>
<trkpt lat="54.626086" lon="-3.080702"><ele>500</ele><time>2020-08-14T13:34:33Z</time><name>PT5560</name></trkpt>
<trkpt lat="54.626089" lon="-3.080701"><ele>499</ele><time>2020-08-14T13:34:36Z</time><name>PT5561</name></trkpt>
<trkpt lat="54.626084" lon="-3.080703"><ele>499</ele><time>2020-08-14T13:35:07Z</time><name>PT5562</name></trkpt>
<trkpt lat="54.626059" lon="-3.080738"><ele>497</ele><time>2020-08-14T13:35:10Z</time><name>PT5563</name></trkpt>
<trkpt lat="54.626026" lon="-3.080765"><ele>497</ele><time>2020-08-14T13:35:13Z</time><name>PT5564</name></trkpt>
<trkpt lat="54.626000" lon="-3.080816"><ele>496</ele><time>2020-08-14T13:35:17Z</time><name>PT5565</name></trkpt>
<trkpt lat="54.625981" lon="-3.080844"><ele>495</ele><time>2020-08-14T13:35:20Z</time><name>PT5566</name></trkpt>
<trkpt lat="54.625957" lon="-3.080881"><ele>494</ele><time>2020-08-14T13:35:23Z</time><name>PT5567</name></trkpt>
<trkpt lat="54.625930" lon="-3.080928"><ele>493</ele><time>2020-08-14T13:35:27Z</time><name>PT5568</name></trkpt>
<trkpt lat="54.625914" lon="-3.080993"><ele>492</ele><time>2020-08-14T13:35:31Z</time><name>PT5569</name></trkpt>
<trkpt lat="54.625905" lon="-3.081041"><ele>491</ele><time>2020-08-14T13:35:35Z</time><name>PT5570</name></trkpt>
<trkpt lat="54.625891" lon="-3.081105"><ele>490</ele><time>2020-08-14T13:35:39Z</time><name>PT5571</name></trkpt>
<trkpt lat="54.625870" lon="-3.081140"><ele>490</ele><time>2020-08-14T13:35:43Z</time><name>PT5572</name></trkpt>
<trkpt lat="54.625849" lon="-3.081177"><ele>488</ele><time>2020-08-14T13:35:47Z</time><name>PT5573</name></trkpt>
<trkpt lat="54.625837" lon="-3.081206"><ele>488</ele><time>2020-08-14T13:35:50Z</time><name>PT5574</name></trkpt>
<trkpt lat="54.625832" lon="-3.081239"><ele>487</ele><time>2020-08-14T13:35:53Z</time><name>PT5575</name></trkpt>
<trkpt lat="54.625823" lon="-3.081273"><ele>486</ele><time>2020-08-14T13:35:56Z</time><name>PT5576</name></trkpt>
<trkpt lat="54.625828" lon="-3.081319"><ele>486</ele><time>2020-08-14T13:35:59Z</time><name>PT5577</name></trkpt>
<trkpt lat="54.625810" lon="-3.081388"><ele>485</ele><time>2020-08-14T13:36:03Z</time><name>PT5578</name></trkpt>
<trkpt lat="54.625797" lon="-3.081431"><ele>485</ele><time>2020-08-14T13:36:06Z</time><name>PT5579</name></trkpt>
<trkpt lat="54.625783" lon="-3.081497"><ele>484</ele><time>2020-08-14T13:36:10Z</time><name>PT5580</name></trkpt>
<trkpt lat="54.625778" lon="-3.081573"><ele>483</ele><time>2020-08-14T13:36:14Z</time><name>PT5581</name></trkpt>
<trkpt lat="54.625774" lon="-3.081622"><ele>483</ele><time>2020-08-14T13:36:17Z</time><name>PT5582</name></trkpt>
<trkpt lat="54.625769" lon="-3.081663"><ele>482</ele><time>2020-08-14T13:36:20Z</time><name>PT5583</name></trkpt>
<trkpt lat="54.625768" lon="-3.081722"><ele>481</ele><time>2020-08-14T13:36:24Z</time><name>PT5584</name></trkpt>
<trkpt lat="54.625777" lon="-3.081765"><ele>480</ele><time>2020-08-14T13:36:28Z</time><name>PT5585</name></trkpt>
<trkpt lat="54.625787" lon="-3.081827"><ele>480</ele><time>2020-08-14T13:36:32Z</time><name>PT5586</name></trkpt>
<trkpt lat="54.625793" lon="-3.081865"><ele>480</ele><time>2020-08-14T13:36:35Z</time><name>PT5587</name></trkpt>
<trkpt lat="54.625781" lon="-3.081903"><ele>478</ele><time>2020-08-14T13:36:38Z</time><name>PT5588</name></trkpt>
<trkpt lat="54.625762" lon="-3.081923"><ele>478</ele><time>2020-08-14T13:36:41Z</time><name>PT5589</name></trkpt>
<trkpt lat="54.625747" lon="-3.081953"><ele>476</ele><time>2020-08-14T13:36:45Z</time><name>PT5590</name></trkpt>
<trkpt lat="54.625713" lon="-3.081967"><ele>474</ele><time>2020-08-14T13:36:49Z</time><name>PT5591</name></trkpt>
<trkpt lat="54.625675" lon="-3.081970"><ele>473</ele><time>2020-08-14T13:36:53Z</time><name>PT5592</name></trkpt>
<trkpt lat="54.625653" lon="-3.081992"><ele>472</ele><time>2020-08-14T13:36:57Z</time><name>PT5593</name></trkpt>
<trkpt lat="54.625640" lon="-3.082006"><ele>472</ele><time>2020-08-14T13:37:00Z</time><name>PT5594</name></trkpt>
<trkpt lat="54.625619" lon="-3.082031"><ele>471</ele><time>2020-08-14T13:37:03Z</time><name>PT5595</name></trkpt>
<trkpt lat="54.625593" lon="-3.082066"><ele>469</ele><time>2020-08-14T13:37:07Z</time><name>PT5596</name></trkpt>
<trkpt lat="54.625569" lon="-3.082093"><ele>469</ele><time>2020-08-14T13:37:10Z</time><name>PT5597</name></trkpt>
<trkpt lat="54.625554" lon="-3.082123"><ele>468</ele><time>2020-08-14T13:37:13Z</time><name>PT5598</name></trkpt>
<trkpt lat="54.625516" lon="-3.082155"><ele>467</ele><time>2020-08-14T13:37:17Z</time><name>PT5599</name></trkpt>
<trkpt lat="54.625490" lon="-3.082162"><ele>466</ele><time>2020-08-14T13:37:20Z</time><name>PT5600</name></trkpt>
<trkpt lat="54.625462" lon="-3.082185"><ele>465</ele><time>2020-08-14T13:37:24Z</time><name>PT5601</name></trkpt>
<trkpt lat="54.625442" lon="-3.082210"><ele>465</ele><time>2020-08-14T13:37:27Z</time><name>PT5602</name></trkpt>
<trkpt lat="54.625409" lon="-3.082248"><ele>464</ele><time>2020-08-14T13:37:31Z</time><name>PT5603</name></trkpt>
<trkpt lat="54.625395" lon="-3.082285"><ele>462</ele><time>2020-08-14T13:37:35Z</time><name>PT5604</name></trkpt>
<trkpt lat="54.625383" lon="-3.082320"><ele>460</ele><time>2020-08-14T13:37:38Z</time><name>PT5605</name></trkpt>
<trkpt lat="54.625369" lon="-3.082357"><ele>459</ele><time>2020-08-14T13:37:42Z</time><name>PT5606</name></trkpt>
<trkpt lat="54.625350" lon="-3.082405"><ele>458</ele><time>2020-08-14T13:37:46Z</time><name>PT5607</name></trkpt>
<trkpt lat="54.625327" lon="-3.082446"><ele>457</ele><time>2020-08-14T13:37:50Z</time><name>PT5608</name></trkpt>
<trkpt lat="54.625310" lon="-3.082499"><ele>456</ele><time>2020-08-14T13:37:54Z</time><name>PT5609</name></trkpt>
<trkpt lat="54.625300" lon="-3.082537"><ele>455</ele><time>2020-08-14T13:37:57Z</time><name>PT5610</name></trkpt>
<trkpt lat="54.625278" lon="-3.082574"><ele>455</ele><time>2020-08-14T13:38:01Z</time><name>PT5611</name></trkpt>
<trkpt lat="54.625263" lon="-3.082610"><ele>454</ele><time>2020-08-14T13:38:04Z</time><name>PT5612</name></trkpt>
<trkpt lat="54.625241" lon="-3.082668"><ele>453</ele><time>2020-08-14T13:38:08Z</time><name>PT5613</name></trkpt>
<trkpt lat="54.625233" lon="-3.082720"><ele>452</ele><time>2020-08-14T13:38:12Z</time><name>PT5614</name></trkpt>
<trkpt lat="54.625219" lon="-3.082761"><ele>451</ele><time>2020-08-14T13:38:15Z</time><name>PT5615</name></trkpt>
<trkpt lat="54.625201" lon="-3.082803"><ele>451</ele><time>2020-08-14T13:38:18Z</time><name>PT5616</name></trkpt>
<trkpt lat="54.625189" lon="-3.082841"><ele>450</ele><time>2020-08-14T13:38:22Z</time><name>PT5617</name></trkpt>
<trkpt lat="54.625182" lon="-3.082875"><ele>449</ele><time>2020-08-14T13:38:25Z</time><name>PT5618</name></trkpt>
<trkpt lat="54.625174" lon="-3.082922"><ele>448</ele><time>2020-08-14T13:38:28Z</time><name>PT5619</name></trkpt>
<trkpt lat="54.625169" lon="-3.082958"><ele>448</ele><time>2020-08-14T13:38:31Z</time><name>PT5620</name></trkpt>
<trkpt lat="54.625161" lon="-3.083006"><ele>447</ele><time>2020-08-14T13:38:35Z</time><name>PT5621</name></trkpt>
<trkpt lat="54.625162" lon="-3.083063"><ele>447</ele><time>2020-08-14T13:38:39Z</time><name>PT5622</name></trkpt>
<trkpt lat="54.625143" lon="-3.083081"><ele>446</ele><time>2020-08-14T13:38:42Z</time><name>PT5623</name></trkpt>
<trkpt lat="54.625103" lon="-3.083099"><ele>445</ele><time>2020-08-14T13:38:46Z</time><name>PT5624</name></trkpt>
<trkpt lat="54.625082" lon="-3.083113"><ele>444</ele><time>2020-08-14T13:38:49Z</time><name>PT5625</name></trkpt>
<trkpt lat="54.625064" lon="-3.083127"><ele>442</ele><time>2020-08-14T13:38:52Z</time><name>PT5626</name></trkpt>
<trkpt lat="54.625038" lon="-3.083141"><ele>441</ele><time>2020-08-14T13:38:56Z</time><name>PT5627</name></trkpt>
<trkpt lat="54.625015" lon="-3.083164"><ele>440</ele><time>2020-08-14T13:38:59Z</time><name>PT5628</name></trkpt>
<trkpt lat="54.624991" lon="-3.083181"><ele>440</ele><time>2020-08-14T13:39:03Z</time><name>PT5629</name></trkpt>
<trkpt lat="54.624962" lon="-3.083198"><ele>438</ele><time>2020-08-14T13:39:06Z</time><name>PT5630</name></trkpt>
<trkpt lat="54.624934" lon="-3.083206"><ele>437</ele><time>2020-08-14T13:39:09Z</time><name>PT5631</name></trkpt>
<trkpt lat="54.624908" lon="-3.083218"><ele>437</ele><time>2020-08-14T13:39:13Z</time><name>PT5632</name></trkpt>
<trkpt lat="54.624885" lon="-3.083204"><ele>435</ele><time>2020-08-14T13:39:17Z</time><name>PT5633</name></trkpt>
<trkpt lat="54.624850" lon="-3.083197"><ele>434</ele><time>2020-08-14T13:39:20Z</time><name>PT5634</name></trkpt>
<trkpt lat="54.624810" lon="-3.083192"><ele>434</ele><time>2020-08-14T13:39:24Z</time><name>PT5635</name></trkpt>
<trkpt lat="54.624781" lon="-3.083183"><ele>433</ele><time>2020-08-14T13:39:27Z</time><name>PT5636</name></trkpt>
<trkpt lat="54.624744" lon="-3.083171"><ele>432</ele><time>2020-08-14T13:39:31Z</time><name>PT5637</name></trkpt>
<trkpt lat="54.624718" lon="-3.083166"><ele>432</ele><time>2020-08-14T13:39:34Z</time><name>PT5638</name></trkpt>
<trkpt lat="54.624699" lon="-3.083157"><ele>431</ele><time>2020-08-14T13:39:37Z</time><name>PT5639</name></trkpt>
<trkpt lat="54.624695" lon="-3.083157"><ele>432</ele><time>2020-08-14T13:39:39Z</time><name>PT5640</name></trkpt>
<trkpt lat="54.624694" lon="-3.083153"><ele>433</ele><time>2020-08-14T13:39:40Z</time><name>PT5641</name></trkpt>
<trkpt lat="54.624692" lon="-3.083149"><ele>433</ele><time>2020-08-14T13:39:41Z</time><name>PT5642</name></trkpt>
<trkpt lat="54.624691" lon="-3.083150"><ele>433</ele><time>2020-08-14T13:39:43Z</time><name>PT5643</name></trkpt>
<trkpt lat="54.624685" lon="-3.083146"><ele>433</ele><time>2020-08-14T13:39:43Z</time><name>PT5644</name></trkpt>
<trkpt lat="54.624680" lon="-3.083138"><ele>433</ele><time>2020-08-14T13:39:44Z</time><name>PT5645</name></trkpt>
<trkpt lat="54.624673" lon="-3.083129"><ele>433</ele><time>2020-08-14T13:39:45Z</time><name>PT5646</name></trkpt>
<trkpt lat="54.624667" lon="-3.083127"><ele>433</ele><time>2020-08-14T13:39:46Z</time><name>PT5647</name></trkpt>
<trkpt lat="54.624662" lon="-3.083132"><ele>433</ele><time>2020-08-14T13:39:47Z</time><name>PT5648</name></trkpt>
<trkpt lat="54.624655" lon="-3.083136"><ele>433</ele><time>2020-08-14T13:39:48Z</time><name>PT5649</name></trkpt>
<trkpt lat="54.624645" lon="-3.083136"><ele>433</ele><time>2020-08-14T13:39:49Z</time><name>PT5650</name></trkpt>
<trkpt lat="54.624634" lon="-3.083131"><ele>432</ele><time>2020-08-14T13:39:50Z</time><name>PT5651</name></trkpt>
<trkpt lat="54.624624" lon="-3.083125"><ele>431</ele><time>2020-08-14T13:39:51Z</time><name>PT5652</name></trkpt>
<trkpt lat="54.624614" lon="-3.083109"><ele>431</ele><time>2020-08-14T13:39:52Z</time><name>PT5653</name></trkpt>
<trkpt lat="54.624606" lon="-3.083090"><ele>431</ele><time>2020-08-14T13:39:53Z</time><name>PT5654</name></trkpt>
<trkpt lat="54.624602" lon="-3.083077"><ele>431</ele><time>2020-08-14T13:39:54Z</time><name>PT5655</name></trkpt>
<trkpt lat="54.624599" lon="-3.083072"><ele>431</ele><time>2020-08-14T13:39:55Z</time><name>PT5656</name></trkpt>
<trkpt lat="54.624591" lon="-3.083068"><ele>431</ele><time>2020-08-14T13:39:56Z</time><name>PT5657</name></trkpt>
<trkpt lat="54.624584" lon="-3.083060"><ele>431</ele><time>2020-08-14T13:39:57Z</time><name>PT5658</name></trkpt>
<trkpt lat="54.624577" lon="-3.083048"><ele>431</ele><time>2020-08-14T13:39:58Z</time><name>PT5659</name></trkpt>
<trkpt lat="54.624571" lon="-3.083039"><ele>430</ele><time>2020-08-14T13:39:59Z</time><name>PT5660</name></trkpt>
<trkpt lat="54.624566" lon="-3.083031"><ele>430</ele><time>2020-08-14T13:40:00Z</time><name>PT5661</name></trkpt>
<trkpt lat="54.624560" lon="-3.083022"><ele>430</ele><time>2020-08-14T13:40:01Z</time><name>PT5662</name></trkpt>
<trkpt lat="54.624554" lon="-3.083013"><ele>429</ele><time>2020-08-14T13:40:02Z</time><name>PT5663</name></trkpt>
<trkpt lat="54.624551" lon="-3.083008"><ele>429</ele><time>2020-08-14T13:40:03Z</time><name>PT5664</name></trkpt>
<trkpt lat="54.624544" lon="-3.083006"><ele>429</ele><time>2020-08-14T13:40:04Z</time><name>PT5665</name></trkpt>
<trkpt lat="54.624537" lon="-3.082997"><ele>428</ele><time>2020-08-14T13:40:05Z</time><name>PT5666</name></trkpt>
<trkpt lat="54.624527" lon="-3.082989"><ele>428</ele><time>2020-08-14T13:40:06Z</time><name>PT5667</name></trkpt>
<trkpt lat="54.624519" lon="-3.082984"><ele>427</ele><time>2020-08-14T13:40:07Z</time><name>PT5668</name></trkpt>
<trkpt lat="54.624510" lon="-3.082982"><ele>427</ele><time>2020-08-14T13:40:08Z</time><name>PT5669</name></trkpt>
<trkpt lat="54.624502" lon="-3.082981"><ele>427</ele><time>2020-08-14T13:40:09Z</time><name>PT5670</name></trkpt>
<trkpt lat="54.624496" lon="-3.082972"><ele>426</ele><time>2020-08-14T13:40:10Z</time><name>PT5671</name></trkpt>
<trkpt lat="54.624488" lon="-3.082967"><ele>426</ele><time>2020-08-14T13:40:11Z</time><name>PT5672</name></trkpt>
<trkpt lat="54.624478" lon="-3.082962"><ele>426</ele><time>2020-08-14T13:40:12Z</time><name>PT5673</name></trkpt>
<trkpt lat="54.624468" lon="-3.082958"><ele>425</ele><time>2020-08-14T13:40:13Z</time><name>PT5674</name></trkpt>
<trkpt lat="54.624460" lon="-3.082955"><ele>425</ele><time>2020-08-14T13:40:14Z</time><name>PT5675</name></trkpt>
<trkpt lat="54.624451" lon="-3.082953"><ele>425</ele><time>2020-08-14T13:40:15Z</time><name>PT5676</name></trkpt>
<trkpt lat="54.624442" lon="-3.082945"><ele>425</ele><time>2020-08-14T13:40:16Z</time><name>PT5677</name></trkpt>
<trkpt lat="54.624435" lon="-3.082940"><ele>425</ele><time>2020-08-14T13:40:17Z</time><name>PT5678</name></trkpt>
<trkpt lat="54.624426" lon="-3.082938"><ele>425</ele><time>2020-08-14T13:40:18Z</time><name>PT5679</name></trkpt>
<trkpt lat="54.624417" lon="-3.082938"><ele>424</ele><time>2020-08-14T13:40:19Z</time><name>PT5680</name></trkpt>
<trkpt lat="54.624408" lon="-3.082943"><ele>424</ele><time>2020-08-14T13:40:20Z</time><name>PT5681</name></trkpt>
<trkpt lat="54.624396" lon="-3.082950"><ele>424</ele><time>2020-08-14T13:40:21Z</time><name>PT5682</name></trkpt>
<trkpt lat="54.624386" lon="-3.082951"><ele>423</ele><time>2020-08-14T13:40:22Z</time><name>PT5683</name></trkpt>
<trkpt lat="54.624380" lon="-3.082952"><ele>423</ele><time>2020-08-14T13:40:23Z</time><name>PT5684</name></trkpt>
<trkpt lat="54.624374" lon="-3.082958"><ele>423</ele><time>2020-08-14T13:40:24Z</time><name>PT5685</name></trkpt>
<trkpt lat="54.624366" lon="-3.082967"><ele>423</ele><time>2020-08-14T13:40:25Z</time><name>PT5686</name></trkpt>
<trkpt lat="54.624356" lon="-3.082974"><ele>422</ele><time>2020-08-14T13:40:26Z</time><name>PT5687</name></trkpt>
<trkpt lat="54.624345" lon="-3.082978"><ele>422</ele><time>2020-08-14T13:40:27Z</time><name>PT5688</name></trkpt>
<trkpt lat="54.624337" lon="-3.082976"><ele>422</ele><time>2020-08-14T13:40:28Z</time><name>PT5689</name></trkpt>
<trkpt lat="54.624327" lon="-3.082974"><ele>422</ele><time>2020-08-14T13:40:29Z</time><name>PT5690</name></trkpt>
<trkpt lat="54.624317" lon="-3.082973"><ele>422</ele><time>2020-08-14T13:40:30Z</time><name>PT5691</name></trkpt>
<trkpt lat="54.624307" lon="-3.082972"><ele>422</ele><time>2020-08-14T13:40:31Z</time><name>PT5692</name></trkpt>
<trkpt lat="54.624300" lon="-3.082972"><ele>422</ele><time>2020-08-14T13:40:32Z</time><name>PT5693</name></trkpt>
<trkpt lat="54.624293" lon="-3.082975"><ele>422</ele><time>2020-08-14T13:40:33Z</time><name>PT5694</name></trkpt>
<trkpt lat="54.624290" lon="-3.082973"><ele>421</ele><time>2020-08-14T13:40:34Z</time><name>PT5695</name></trkpt>
<trkpt lat="54.624284" lon="-3.082971"><ele>421</ele><time>2020-08-14T13:40:35Z</time><name>PT5696</name></trkpt>
<trkpt lat="54.624275" lon="-3.082970"><ele>420</ele><time>2020-08-14T13:40:36Z</time><name>PT5697</name></trkpt>
<trkpt lat="54.624265" lon="-3.082975"><ele>421</ele><time>2020-08-14T13:40:37Z</time><name>PT5698</name></trkpt>
<trkpt lat="54.624257" lon="-3.082974"><ele>421</ele><time>2020-08-14T13:40:38Z</time><name>PT5699</name></trkpt>
<trkpt lat="54.624249" lon="-3.082972"><ele>420</ele><time>2020-08-14T13:40:39Z</time><name>PT5700</name></trkpt>
<trkpt lat="54.624241" lon="-3.082970"><ele>420</ele><time>2020-08-14T13:40:40Z</time><name>PT5701</name></trkpt>
<trkpt lat="54.624230" lon="-3.082969"><ele>419</ele><time>2020-08-14T13:40:41Z</time><name>PT5702</name></trkpt>
<trkpt lat="54.624219" lon="-3.082965"><ele>420</ele><time>2020-08-14T13:40:42Z</time><name>PT5703</name></trkpt>
<trkpt lat="54.624210" lon="-3.082960"><ele>419</ele><time>2020-08-14T13:40:43Z</time><name>PT5704</name></trkpt>
<trkpt lat="54.624202" lon="-3.082956"><ele>419</ele><time>2020-08-14T13:40:44Z</time><name>PT5705</name></trkpt>
<trkpt lat="54.624198" lon="-3.082954"><ele>419</ele><time>2020-08-14T13:40:45Z</time><name>PT5706</name></trkpt>
<trkpt lat="54.624193" lon="-3.082959"><ele>418</ele><time>2020-08-14T13:40:46Z</time><name>PT5707</name></trkpt>
<trkpt lat="54.624187" lon="-3.082961"><ele>418</ele><time>2020-08-14T13:40:47Z</time><name>PT5708</name></trkpt>
<trkpt lat="54.624179" lon="-3.082960"><ele>418</ele><time>2020-08-14T13:40:48Z</time><name>PT5709</name></trkpt>
<trkpt lat="54.624171" lon="-3.082956"><ele>417</ele><time>2020-08-14T13:40:49Z</time><name>PT5710</name></trkpt>
<trkpt lat="54.624162" lon="-3.082952"><ele>417</ele><time>2020-08-14T13:40:50Z</time><name>PT5711</name></trkpt>
<trkpt lat="54.624153" lon="-3.082947"><ele>417</ele><time>2020-08-14T13:40:51Z</time><name>PT5712</name></trkpt>
<trkpt lat="54.624144" lon="-3.082943"><ele>417</ele><time>2020-08-14T13:40:52Z</time><name>PT5713</name></trkpt>
<trkpt lat="54.624137" lon="-3.082938"><ele>417</ele><time>2020-08-14T13:40:53Z</time><name>PT5714</name></trkpt>
<trkpt lat="54.624127" lon="-3.082931"><ele>416</ele><time>2020-08-14T13:40:54Z</time><name>PT5715</name></trkpt>
<trkpt lat="54.624118" lon="-3.082922"><ele>416</ele><time>2020-08-14T13:40:55Z</time><name>PT5716</name></trkpt>
<trkpt lat="54.624111" lon="-3.082910"><ele>416</ele><time>2020-08-14T13:40:56Z</time><name>PT5717</name></trkpt>
<trkpt lat="54.624102" lon="-3.082901"><ele>416</ele><time>2020-08-14T13:40:57Z</time><name>PT5718</name></trkpt>
<trkpt lat="54.624092" lon="-3.082894"><ele>415</ele><time>2020-08-14T13:40:58Z</time><name>PT5719</name></trkpt>
<trkpt lat="54.624082" lon="-3.082892"><ele>416</ele><time>2020-08-14T13:40:59Z</time><name>PT5720</name></trkpt>
<trkpt lat="54.624075" lon="-3.082886"><ele>416</ele><time>2020-08-14T13:41:00Z</time><name>PT5721</name></trkpt>
<trkpt lat="54.624067" lon="-3.082876"><ele>416</ele><time>2020-08-14T13:41:01Z</time><name>PT5722</name></trkpt>
<trkpt lat="54.624057" lon="-3.082869"><ele>415</ele><time>2020-08-14T13:41:02Z</time><name>PT5723</name></trkpt>
<trkpt lat="54.624049" lon="-3.082863"><ele>415</ele><time>2020-08-14T13:41:03Z</time><name>PT5724</name></trkpt>
<trkpt lat="54.624045" lon="-3.082855"><ele>414</ele><time>2020-08-14T13:41:04Z</time><name>PT5725</name></trkpt>
<trkpt lat="54.624041" lon="-3.082848"><ele>414</ele><time>2020-08-14T13:41:05Z</time><name>PT5726</name></trkpt>
<trkpt lat="54.624035" lon="-3.082842"><ele>414</ele><time>2020-08-14T13:41:06Z</time><name>PT5727</name></trkpt>
<trkpt lat="54.624030" lon="-3.082833"><ele>414</ele><time>2020-08-14T13:41:07Z</time><name>PT5728</name></trkpt>
<trkpt lat="54.624024" lon="-3.082825"><ele>414</ele><time>2020-08-14T13:41:08Z</time><name>PT5729</name></trkpt>
<trkpt lat="54.624017" lon="-3.082820"><ele>414</ele><time>2020-08-14T13:41:09Z</time><name>PT5730</name></trkpt>
<trkpt lat="54.624007" lon="-3.082811"><ele>414</ele><time>2020-08-14T13:41:10Z</time><name>PT5731</name></trkpt>
<trkpt lat="54.623999" lon="-3.082799"><ele>414</ele><time>2020-08-14T13:41:11Z</time><name>PT5732</name></trkpt>
<trkpt lat="54.623993" lon="-3.082799"><ele>414</ele><time>2020-08-14T13:41:12Z</time><name>PT5733</name></trkpt>
<trkpt lat="54.623987" lon="-3.082794"><ele>414</ele><time>2020-08-14T13:41:13Z</time><name>PT5734</name></trkpt>
<trkpt lat="54.623980" lon="-3.082782"><ele>414</ele><time>2020-08-14T13:41:14Z</time><name>PT5735</name></trkpt>
<trkpt lat="54.623973" lon="-3.082769"><ele>413</ele><time>2020-08-14T13:41:15Z</time><name>PT5736</name></trkpt>
<trkpt lat="54.623966" lon="-3.082756"><ele>413</ele><time>2020-08-14T13:41:16Z</time><name>PT5737</name></trkpt>
<trkpt lat="54.623959" lon="-3.082748"><ele>413</ele><time>2020-08-14T13:41:17Z</time><name>PT5738</name></trkpt>
<trkpt lat="54.623950" lon="-3.082739"><ele>413</ele><time>2020-08-14T13:41:18Z</time><name>PT5739</name></trkpt>
<trkpt lat="54.623942" lon="-3.082732"><ele>413</ele><time>2020-08-14T13:41:19Z</time><name>PT5740</name></trkpt>
<trkpt lat="54.623930" lon="-3.082721"><ele>413</ele><time>2020-08-14T13:41:20Z</time><name>PT5741</name></trkpt>
<trkpt lat="54.623921" lon="-3.082713"><ele>413</ele><time>2020-08-14T13:41:21Z</time><name>PT5742</name></trkpt>
<trkpt lat="54.623917" lon="-3.082702"><ele>413</ele><time>2020-08-14T13:41:22Z</time><name>PT5743</name></trkpt>
<trkpt lat="54.623911" lon="-3.082690"><ele>413</ele><time>2020-08-14T13:41:23Z</time><name>PT5744</name></trkpt>
<trkpt lat="54.623901" lon="-3.082674"><ele>413</ele><time>2020-08-14T13:41:24Z</time><name>PT5745</name></trkpt>
<trkpt lat="54.623889" lon="-3.082663"><ele>413</ele><time>2020-08-14T13:41:25Z</time><name>PT5746</name></trkpt>
<trkpt lat="54.623877" lon="-3.082662"><ele>412</ele><time>2020-08-14T13:41:26Z</time><name>PT5747</name></trkpt>
<trkpt lat="54.623870" lon="-3.082659"><ele>412</ele><time>2020-08-14T13:41:27Z</time><name>PT5748</name></trkpt>
<trkpt lat="54.623865" lon="-3.082655"><ele>412</ele><time>2020-08-14T13:41:28Z</time><name>PT5749</name></trkpt>
<trkpt lat="54.623860" lon="-3.082651"><ele>411</ele><time>2020-08-14T13:41:29Z</time><name>PT5750</name></trkpt>
<trkpt lat="54.623855" lon="-3.082646"><ele>411</ele><time>2020-08-14T13:41:30Z</time><name>PT5751</name></trkpt>
<trkpt lat="54.623848" lon="-3.082640"><ele>411</ele><time>2020-08-14T13:41:31Z</time><name>PT5752</name></trkpt>
<trkpt lat="54.623837" lon="-3.082638"><ele>410</ele><time>2020-08-14T13:41:32Z</time><name>PT5753</name></trkpt>
<trkpt lat="54.623826" lon="-3.082635"><ele>410</ele><time>2020-08-14T13:41:33Z</time><name>PT5754</name></trkpt>
<trkpt lat="54.623817" lon="-3.082627"><ele>409</ele><time>2020-08-14T13:41:34Z</time><name>PT5755</name></trkpt>
<trkpt lat="54.623806" lon="-3.082630"><ele>409</ele><time>2020-08-14T13:41:35Z</time><name>PT5756</name></trkpt>
<trkpt lat="54.623794" lon="-3.082629"><ele>409</ele><time>2020-08-14T13:41:36Z</time><name>PT5757</name></trkpt>
<trkpt lat="54.623787" lon="-3.082619"><ele>408</ele><time>2020-08-14T13:41:37Z</time><name>PT5758</name></trkpt>
<trkpt lat="54.623779" lon="-3.082607"><ele>408</ele><time>2020-08-14T13:41:38Z</time><name>PT5759</name></trkpt>
<trkpt lat="54.623773" lon="-3.082600"><ele>408</ele><time>2020-08-14T13:41:39Z</time><name>PT5760</name></trkpt>
<trkpt lat="54.623767" lon="-3.082596"><ele>407</ele><time>2020-08-14T13:41:40Z</time><name>PT5761</name></trkpt>
<trkpt lat="54.623761" lon="-3.082593"><ele>407</ele><time>2020-08-14T13:41:41Z</time><name>PT5762</name></trkpt>
<trkpt lat="54.623754" lon="-3.082588"><ele>407</ele><time>2020-08-14T13:41:42Z</time><name>PT5763</name></trkpt>
<trkpt lat="54.623747" lon="-3.082583"><ele>407</ele><time>2020-08-14T13:41:43Z</time><name>PT5764</name></trkpt>
<trkpt lat="54.623739" lon="-3.082572"><ele>407</ele><time>2020-08-14T13:41:44Z</time><name>PT5765</name></trkpt>
<trkpt lat="54.623730" lon="-3.082562"><ele>406</ele><time>2020-08-14T13:41:45Z</time><name>PT5766</name></trkpt>
<trkpt lat="54.623724" lon="-3.082549"><ele>406</ele><time>2020-08-14T13:41:46Z</time><name>PT5767</name></trkpt>
<trkpt lat="54.623718" lon="-3.082534"><ele>406</ele><time>2020-08-14T13:41:47Z</time><name>PT5768</name></trkpt>
<trkpt lat="54.623709" lon="-3.082518"><ele>406</ele><time>2020-08-14T13:41:48Z</time><name>PT5769</name></trkpt>
<trkpt lat="54.623697" lon="-3.082505"><ele>406</ele><time>2020-08-14T13:41:49Z</time><name>PT5770</name></trkpt>
<trkpt lat="54.623692" lon="-3.082488"><ele>404</ele><time>2020-08-14T13:41:50Z</time><name>PT5771</name></trkpt>
<trkpt lat="54.623687" lon="-3.082477"><ele>404</ele><time>2020-08-14T13:41:51Z</time><name>PT5772</name></trkpt>
<trkpt lat="54.623683" lon="-3.082470"><ele>404</ele><time>2020-08-14T13:41:52Z</time><name>PT5773</name></trkpt>
<trkpt lat="54.623677" lon="-3.082461"><ele>404</ele><time>2020-08-14T13:41:53Z</time><name>PT5774</name></trkpt>
<trkpt lat="54.623670" lon="-3.082450"><ele>404</ele><time>2020-08-14T13:41:54Z</time><name>PT5775</name></trkpt>
<trkpt lat="54.623660" lon="-3.082437"><ele>404</ele><time>2020-08-14T13:41:55Z</time><name>PT5776</name></trkpt>
<trkpt lat="54.623651" lon="-3.082425"><ele>403</ele><time>2020-08-14T13:41:56Z</time><name>PT5777</name></trkpt>
<trkpt lat="54.623644" lon="-3.082413"><ele>403</ele><time>2020-08-14T13:41:57Z</time><name>PT5778</name></trkpt>
<trkpt lat="54.623637" lon="-3.082398"><ele>403</ele><time>2020-08-14T13:41:58Z</time><name>PT5779</name></trkpt>
<trkpt lat="54.623631" lon="-3.082381"><ele>402</ele><time>2020-08-14T13:41:59Z</time><name>PT5780</name></trkpt>
<trkpt lat="54.623622" lon="-3.082368"><ele>402</ele><time>2020-08-14T13:42:00Z</time><name>PT5781</name></trkpt>
<trkpt lat="54.623612" lon="-3.082355"><ele>402</ele><time>2020-08-14T13:42:01Z</time><name>PT5782</name></trkpt>
<trkpt lat="54.623605" lon="-3.082343"><ele>400</ele><time>2020-08-14T13:42:02Z</time><name>PT5783</name></trkpt>
<trkpt lat="54.623599" lon="-3.082336"><ele>400</ele><time>2020-08-14T13:42:03Z</time><name>PT5784</name></trkpt>
<trkpt lat="54.623593" lon="-3.082331"><ele>399</ele><time>2020-08-14T13:42:04Z</time><name>PT5785</name></trkpt>
<trkpt lat="54.623586" lon="-3.082324"><ele>399</ele><time>2020-08-14T13:42:05Z</time><name>PT5786</name></trkpt>
<trkpt lat="54.623576" lon="-3.082317"><ele>399</ele><time>2020-08-14T13:42:07Z</time><name>PT5787</name></trkpt>
<trkpt lat="54.623567" lon="-3.082309"><ele>399</ele><time>2020-08-14T13:42:07Z</time><name>PT5788</name></trkpt>
<trkpt lat="54.623561" lon="-3.082299"><ele>398</ele><time>2020-08-14T13:42:08Z</time><name>PT5789</name></trkpt>
<trkpt lat="54.623560" lon="-3.082298"><ele>398</ele><time>2020-08-14T13:42:09Z</time><name>PT5790</name></trkpt>
<trkpt lat="54.623560" lon="-3.082297"><ele>398</ele><time>2020-08-14T13:42:10Z</time><name>PT5791</name></trkpt>
<trkpt lat="54.623560" lon="-3.082298"><ele>398</ele><time>2020-08-14T13:42:11Z</time><name>PT5792</name></trkpt>
<trkpt lat="54.623560" lon="-3.082298"><ele>398</ele><time>2020-08-14T13:42:12Z</time><name>PT5793</name></trkpt>
<trkpt lat="54.623555" lon="-3.082293"><ele>398</ele><time>2020-08-14T13:42:19Z</time><name>PT5794</name></trkpt>
<trkpt lat="54.623549" lon="-3.082283"><ele>398</ele><time>2020-08-14T13:42:19Z</time><name>PT5795</name></trkpt>
<trkpt lat="54.623543" lon="-3.082273"><ele>399</ele><time>2020-08-14T13:42:20Z</time><name>PT5796</name></trkpt>
<trkpt lat="54.623536" lon="-3.082264"><ele>399</ele><time>2020-08-14T13:42:22Z</time><name>PT5797</name></trkpt>
<trkpt lat="54.623527" lon="-3.082256"><ele>399</ele><time>2020-08-14T13:42:22Z</time><name>PT5798</name></trkpt>
<trkpt lat="54.623516" lon="-3.082242"><ele>398</ele><time>2020-08-14T13:42:23Z</time><name>PT5799</name></trkpt>
<trkpt lat="54.623512" lon="-3.082227"><ele>398</ele><time>2020-08-14T13:42:24Z</time><name>PT5800</name></trkpt>
<trkpt lat="54.623507" lon="-3.082211"><ele>398</ele><time>2020-08-14T13:42:25Z</time><name>PT5801</name></trkpt>
<trkpt lat="54.623497" lon="-3.082195"><ele>398</ele><time>2020-08-14T13:42:26Z</time><name>PT5802</name></trkpt>
<trkpt lat="54.623488" lon="-3.082174"><ele>397</ele><time>2020-08-14T13:42:27Z</time><name>PT5803</name></trkpt>
<trkpt lat="54.623478" lon="-3.082155"><ele>397</ele><time>2020-08-14T13:42:28Z</time><name>PT5804</name></trkpt>
<trkpt lat="54.623471" lon="-3.082142"><ele>397</ele><time>2020-08-14T13:42:29Z</time><name>PT5805</name></trkpt>
<trkpt lat="54.623463" lon="-3.082137"><ele>397</ele><time>2020-08-14T13:42:30Z</time><name>PT5806</name></trkpt>
<trkpt lat="54.623457" lon="-3.082131"><ele>397</ele><time>2020-08-14T13:42:31Z</time><name>PT5807</name></trkpt>
<trkpt lat="54.623449" lon="-3.082121"><ele>397</ele><time>2020-08-14T13:42:32Z</time><name>PT5808</name></trkpt>
<trkpt lat="54.623439" lon="-3.082112"><ele>396</ele><time>2020-08-14T13:42:33Z</time><name>PT5809</name></trkpt>
<trkpt lat="54.623428" lon="-3.082102"><ele>396</ele><time>2020-08-14T13:42:34Z</time><name>PT5810</name></trkpt>
<trkpt lat="54.623415" lon="-3.082090"><ele>396</ele><time>2020-08-14T13:42:35Z</time><name>PT5811</name></trkpt>
<trkpt lat="54.623407" lon="-3.082080"><ele>395</ele><time>2020-08-14T13:42:37Z</time><name>PT5812</name></trkpt>
<trkpt lat="54.623400" lon="-3.082071"><ele>395</ele><time>2020-08-14T13:42:37Z</time><name>PT5813</name></trkpt>
<trkpt lat="54.623390" lon="-3.082059"><ele>394</ele><time>2020-08-14T13:42:38Z</time><name>PT5814</name></trkpt>
<trkpt lat="54.623381" lon="-3.082048"><ele>394</ele><time>2020-08-14T13:42:39Z</time><name>PT5815</name></trkpt>
<trkpt lat="54.623360" lon="-3.082019"><ele>393</ele><time>2020-08-14T13:42:42Z</time><name>PT5816</name></trkpt>
<trkpt lat="54.623329" lon="-3.081981"><ele>392</ele><time>2020-08-14T13:42:46Z</time><name>PT5817</name></trkpt>
<trkpt lat="54.623307" lon="-3.081941"><ele>391</ele><time>2020-08-14T13:42:49Z</time><name>PT5818</name></trkpt>
<trkpt lat="54.623278" lon="-3.081894"><ele>391</ele><time>2020-08-14T13:42:52Z</time><name>PT5819</name></trkpt>
<trkpt lat="54.623267" lon="-3.081865"><ele>390</ele><time>2020-08-14T13:42:55Z</time><name>PT5820</name></trkpt>
<trkpt lat="54.623241" lon="-3.081832"><ele>389</ele><time>2020-08-14T13:42:58Z</time><name>PT5821</name></trkpt>
<trkpt lat="54.623222" lon="-3.081793"><ele>388</ele><time>2020-08-14T13:43:01Z</time><name>PT5822</name></trkpt>
<trkpt lat="54.623202" lon="-3.081746"><ele>387</ele><time>2020-08-14T13:43:04Z</time><name>PT5823</name></trkpt>
<trkpt lat="54.623176" lon="-3.081711"><ele>386</ele><time>2020-08-14T13:43:07Z</time><name>PT5824</name></trkpt>
<trkpt lat="54.623154" lon="-3.081677"><ele>385</ele><time>2020-08-14T13:43:11Z</time><name>PT5825</name></trkpt>
<trkpt lat="54.623129" lon="-3.081620"><ele>383</ele><time>2020-08-14T13:43:15Z</time><name>PT5826</name></trkpt>
<trkpt lat="54.623095" lon="-3.081569"><ele>382</ele><time>2020-08-14T13:43:19Z</time><name>PT5827</name></trkpt>
<trkpt lat="54.623083" lon="-3.081538"><ele>381</ele><time>2020-08-14T13:43:22Z</time><name>PT5828</name></trkpt>
<trkpt lat="54.623064" lon="-3.081483"><ele>381</ele><time>2020-08-14T13:43:26Z</time><name>PT5829</name></trkpt>
<trkpt lat="54.623045" lon="-3.081431"><ele>380</ele><time>2020-08-14T13:43:30Z</time><name>PT5830</name></trkpt>
<trkpt lat="54.623025" lon="-3.081385"><ele>379</ele><time>2020-08-14T13:43:34Z</time><name>PT5831</name></trkpt>
<trkpt lat="54.623002" lon="-3.081367"><ele>378</ele><time>2020-08-14T13:43:37Z</time><name>PT5832</name></trkpt>
<trkpt lat="54.622986" lon="-3.081357"><ele>376</ele><time>2020-08-14T13:43:41Z</time><name>PT5833</name></trkpt>
<trkpt lat="54.622966" lon="-3.081357"><ele>375</ele><time>2020-08-14T13:43:44Z</time><name>PT5834</name></trkpt>
<trkpt lat="54.622942" lon="-3.081358"><ele>373</ele><time>2020-08-14T13:43:48Z</time><name>PT5835</name></trkpt>
<trkpt lat="54.622933" lon="-3.081358"><ele>372</ele><time>2020-08-14T13:43:51Z</time><name>PT5836</name></trkpt>
<trkpt lat="54.622925" lon="-3.081365"><ele>373</ele><time>2020-08-14T13:43:53Z</time><name>PT5837</name></trkpt>
<trkpt lat="54.622921" lon="-3.081372"><ele>373</ele><time>2020-08-14T13:43:54Z</time><name>PT5838</name></trkpt>
<trkpt lat="54.622920" lon="-3.081375"><ele>373</ele><time>2020-08-14T13:43:55Z</time><name>PT5839</name></trkpt>
<trkpt lat="54.622917" lon="-3.081377"><ele>373</ele><time>2020-08-14T13:43:56Z</time><name>PT5840</name></trkpt>
<trkpt lat="54.622912" lon="-3.081378"><ele>372</ele><time>2020-08-14T13:43:57Z</time><name>PT5841</name></trkpt>
<trkpt lat="54.622905" lon="-3.081376"><ele>372</ele><time>2020-08-14T13:43:58Z</time><name>PT5842</name></trkpt>
<trkpt lat="54.622899" lon="-3.081378"><ele>372</ele><time>2020-08-14T13:43:59Z</time><name>PT5843</name></trkpt>
<trkpt lat="54.622893" lon="-3.081378"><ele>371</ele><time>2020-08-14T13:44:00Z</time><name>PT5844</name></trkpt>
<trkpt lat="54.622888" lon="-3.081375"><ele>371</ele><time>2020-08-14T13:44:01Z</time><name>PT5845</name></trkpt>
<trkpt lat="54.622881" lon="-3.081372"><ele>371</ele><time>2020-08-14T13:44:02Z</time><name>PT5846</name></trkpt>
<trkpt lat="54.622875" lon="-3.081370"><ele>370</ele><time>2020-08-14T13:44:03Z</time><name>PT5847</name></trkpt>
<trkpt lat="54.622868" lon="-3.081371"><ele>369</ele><time>2020-08-14T13:44:04Z</time><name>PT5848</name></trkpt>
<trkpt lat="54.622859" lon="-3.081372"><ele>369</ele><time>2020-08-14T13:44:05Z</time><name>PT5849</name></trkpt>
<trkpt lat="54.622852" lon="-3.081371"><ele>369</ele><time>2020-08-14T13:44:06Z</time><name>PT5850</name></trkpt>
<trkpt lat="54.622847" lon="-3.081367"><ele>369</ele><time>2020-08-14T13:44:07Z</time><name>PT5851</name></trkpt>
<trkpt lat="54.622841" lon="-3.081363"><ele>368</ele><time>2020-08-14T13:44:08Z</time><name>PT5852</name></trkpt>
<trkpt lat="54.622836" lon="-3.081359"><ele>368</ele><time>2020-08-14T13:44:09Z</time><name>PT5853</name></trkpt>
<trkpt lat="54.622828" lon="-3.081358"><ele>368</ele><time>2020-08-14T13:44:10Z</time><name>PT5854</name></trkpt>
<trkpt lat="54.622822" lon="-3.081355"><ele>368</ele><time>2020-08-14T13:44:11Z</time><name>PT5855</name></trkpt>
<trkpt lat="54.622817" lon="-3.081352"><ele>367</ele><time>2020-08-14T13:44:12Z</time><name>PT5856</name></trkpt>
<trkpt lat="54.622813" lon="-3.081356"><ele>367</ele><time>2020-08-14T13:44:13Z</time><name>PT5857</name></trkpt>
<trkpt lat="54.622807" lon="-3.081361"><ele>367</ele><time>2020-08-14T13:44:14Z</time><name>PT5858</name></trkpt>
<trkpt lat="54.622802" lon="-3.081357"><ele>366</ele><time>2020-08-14T13:44:15Z</time><name>PT5859</name></trkpt>
<trkpt lat="54.622795" lon="-3.081358"><ele>366</ele><time>2020-08-14T13:44:16Z</time><name>PT5860</name></trkpt>
<trkpt lat="54.622790" lon="-3.081364"><ele>365</ele><time>2020-08-14T13:44:17Z</time><name>PT5861</name></trkpt>
<trkpt lat="54.622784" lon="-3.081370"><ele>365</ele><time>2020-08-14T13:44:18Z</time><name>PT5862</name></trkpt>
<trkpt lat="54.622776" lon="-3.081373"><ele>365</ele><time>2020-08-14T13:44:19Z</time><name>PT5863</name></trkpt>
<trkpt lat="54.622773" lon="-3.081371"><ele>365</ele><time>2020-08-14T13:44:20Z</time><name>PT5864</name></trkpt>
<trkpt lat="54.622767" lon="-3.081368"><ele>364</ele><time>2020-08-14T13:44:21Z</time><name>PT5865</name></trkpt>
<trkpt lat="54.622762" lon="-3.081368"><ele>364</ele><time>2020-08-14T13:44:22Z</time><name>PT5866</name></trkpt>
<trkpt lat="54.622754" lon="-3.081370"><ele>364</ele><time>2020-08-14T13:44:23Z</time><name>PT5867</name></trkpt>
<trkpt lat="54.622747" lon="-3.081371"><ele>363</ele><time>2020-08-14T13:44:24Z</time><name>PT5868</name></trkpt>
<trkpt lat="54.622740" lon="-3.081365"><ele>363</ele><time>2020-08-14T13:44:25Z</time><name>PT5869</name></trkpt>
<trkpt lat="54.622733" lon="-3.081359"><ele>363</ele><time>2020-08-14T13:44:26Z</time><name>PT5870</name></trkpt>
<trkpt lat="54.622727" lon="-3.081355"><ele>362</ele><time>2020-08-14T13:44:27Z</time><name>PT5871</name></trkpt>
<trkpt lat="54.622720" lon="-3.081353"><ele>362</ele><time>2020-08-14T13:44:28Z</time><name>PT5872</name></trkpt>
<trkpt lat="54.622714" lon="-3.081353"><ele>362</ele><time>2020-08-14T13:44:29Z</time><name>PT5873</name></trkpt>
<trkpt lat="54.622706" lon="-3.081350"><ele>362</ele><time>2020-08-14T13:44:30Z</time><name>PT5874</name></trkpt>
<trkpt lat="54.622699" lon="-3.081348"><ele>361</ele><time>2020-08-14T13:44:31Z</time><name>PT5875</name></trkpt>
<trkpt lat="54.622692" lon="-3.081348"><ele>361</ele><time>2020-08-14T13:44:32Z</time><name>PT5876</name></trkpt>
<trkpt lat="54.622686" lon="-3.081346"><ele>361</ele><time>2020-08-14T13:44:33Z</time><name>PT5877</name></trkpt>
<trkpt lat="54.622682" lon="-3.081344"><ele>360</ele><time>2020-08-14T13:44:34Z</time><name>PT5878</name></trkpt>
<trkpt lat="54.622675" lon="-3.081344"><ele>359</ele><time>2020-08-14T13:44:35Z</time><name>PT5879</name></trkpt>
<trkpt lat="54.622671" lon="-3.081336"><ele>359</ele><time>2020-08-14T13:44:36Z</time><name>PT5880</name></trkpt>
<trkpt lat="54.622666" lon="-3.081328"><ele>359</ele><time>2020-08-14T13:44:37Z</time><name>PT5881</name></trkpt>
<trkpt lat="54.622660" lon="-3.081319"><ele>359</ele><time>2020-08-14T13:44:38Z</time><name>PT5882</name></trkpt>
<trkpt lat="54.622654" lon="-3.081311"><ele>359</ele><time>2020-08-14T13:44:39Z</time><name>PT5883</name></trkpt>
<trkpt lat="54.622648" lon="-3.081304"><ele>359</ele><time>2020-08-14T13:44:40Z</time><name>PT5884</name></trkpt>
<trkpt lat="54.622643" lon="-3.081300"><ele>358</ele><time>2020-08-14T13:44:41Z</time><name>PT5885</name></trkpt>
<trkpt lat="54.622638" lon="-3.081294"><ele>358</ele><time>2020-08-14T13:44:42Z</time><name>PT5886</name></trkpt>
<trkpt lat="54.622632" lon="-3.081288"><ele>358</ele><time>2020-08-14T13:44:43Z</time><name>PT5887</name></trkpt>
<trkpt lat="54.622624" lon="-3.081282"><ele>358</ele><time>2020-08-14T13:44:44Z</time><name>PT5888</name></trkpt>
<trkpt lat="54.622618" lon="-3.081276"><ele>357</ele><time>2020-08-14T13:44:45Z</time><name>PT5889</name></trkpt>
<trkpt lat="54.622614" lon="-3.081271"><ele>357</ele><time>2020-08-14T13:44:46Z</time><name>PT5890</name></trkpt>
<trkpt lat="54.622610" lon="-3.081267"><ele>357</ele><time>2020-08-14T13:44:47Z</time><name>PT5891</name></trkpt>
<trkpt lat="54.622604" lon="-3.081264"><ele>357</ele><time>2020-08-14T13:44:48Z</time><name>PT5892</name></trkpt>
<trkpt lat="54.622598" lon="-3.081263"><ele>357</ele><time>2020-08-14T13:44:49Z</time><name>PT5893</name></trkpt>
<trkpt lat="54.622594" lon="-3.081258"><ele>356</ele><time>2020-08-14T13:44:50Z</time><name>PT5894</name></trkpt>
<trkpt lat="54.622591" lon="-3.081254"><ele>356</ele><time>2020-08-14T13:44:51Z</time><name>PT5895</name></trkpt>
<trkpt lat="54.622588" lon="-3.081253"><ele>356</ele><time>2020-08-14T13:44:52Z</time><name>PT5896</name></trkpt>
<trkpt lat="54.622584" lon="-3.081253"><ele>355</ele><time>2020-08-14T13:44:53Z</time><name>PT5897</name></trkpt>
<trkpt lat="54.622587" lon="-3.081253"><ele>355</ele><time>2020-08-14T13:44:57Z</time><name>PT5898</name></trkpt>
<trkpt lat="54.622581" lon="-3.081254"><ele>355</ele><time>2020-08-14T13:44:58Z</time><name>PT5899</name></trkpt>
<trkpt lat="54.622572" lon="-3.081253"><ele>354</ele><time>2020-08-14T13:44:59Z</time><name>PT5900</name></trkpt>
<trkpt lat="54.622565" lon="-3.081253"><ele>354</ele><time>2020-08-14T13:45:00Z</time><name>PT5901</name></trkpt>
<trkpt lat="54.622558" lon="-3.081255"><ele>354</ele><time>2020-08-14T13:45:01Z</time><name>PT5902</name></trkpt>
<trkpt lat="54.622552" lon="-3.081254"><ele>354</ele><time>2020-08-14T13:45:02Z</time><name>PT5903</name></trkpt>
<trkpt lat="54.622546" lon="-3.081247"><ele>353</ele><time>2020-08-14T13:45:03Z</time><name>PT5904</name></trkpt>
<trkpt lat="54.622540" lon="-3.081244"><ele>353</ele><time>2020-08-14T13:45:04Z</time><name>PT5905</name></trkpt>
<trkpt lat="54.622534" lon="-3.081242"><ele>353</ele><time>2020-08-14T13:45:05Z</time><name>PT5906</name></trkpt>
<trkpt lat="54.622528" lon="-3.081236"><ele>352</ele><time>2020-08-14T13:45:06Z</time><name>PT5907</name></trkpt>
<trkpt lat="54.622523" lon="-3.081232"><ele>352</ele><time>2020-08-14T13:45:07Z</time><name>PT5908</name></trkpt>
<trkpt lat="54.622516" lon="-3.081232"><ele>352</ele><time>2020-08-14T13:45:08Z</time><name>PT5909</name></trkpt>
<trkpt lat="54.622515" lon="-3.081229"><ele>351</ele><time>2020-08-14T13:45:09Z</time><name>PT5910</name></trkpt>
<trkpt lat="54.622511" lon="-3.081227"><ele>351</ele><time>2020-08-14T13:45:10Z</time><name>PT5911</name></trkpt>
<trkpt lat="54.622507" lon="-3.081229"><ele>351</ele><time>2020-08-14T13:45:11Z</time><name>PT5912</name></trkpt>
<trkpt lat="54.622500" lon="-3.081233"><ele>351</ele><time>2020-08-14T13:45:16Z</time><name>PT5913</name></trkpt>
<trkpt lat="54.622493" lon="-3.081231"><ele>351</ele><time>2020-08-14T13:45:17Z</time><name>PT5914</name></trkpt>
<trkpt lat="54.622482" lon="-3.081227"><ele>350</ele><time>2020-08-14T13:45:18Z</time><name>PT5915</name></trkpt>
<trkpt lat="54.622473" lon="-3.081226"><ele>349</ele><time>2020-08-14T13:45:19Z</time><name>PT5916</name></trkpt>
<trkpt lat="54.622465" lon="-3.081229"><ele>349</ele><time>2020-08-14T13:45:20Z</time><name>PT5917</name></trkpt>
<trkpt lat="54.622458" lon="-3.081230"><ele>348</ele><time>2020-08-14T13:45:21Z</time><name>PT5918</name></trkpt>
<trkpt lat="54.622453" lon="-3.081231"><ele>348</ele><time>2020-08-14T13:45:22Z</time><name>PT5919</name></trkpt>
<trkpt lat="54.622447" lon="-3.081231"><ele>347</ele><time>2020-08-14T13:45:23Z</time><name>PT5920</name></trkpt>
<trkpt lat="54.622442" lon="-3.081228"><ele>347</ele><time>2020-08-14T13:45:24Z</time><name>PT5921</name></trkpt>
<trkpt lat="54.622438" lon="-3.081226"><ele>346</ele><time>2020-08-14T13:45:25Z</time><name>PT5922</name></trkpt>
<trkpt lat="54.622433" lon="-3.081226"><ele>346</ele><time>2020-08-14T13:45:26Z</time><name>PT5923</name></trkpt>
<trkpt lat="54.622427" lon="-3.081232"><ele>346</ele><time>2020-08-14T13:45:27Z</time><name>PT5924</name></trkpt>
<trkpt lat="54.622421" lon="-3.081222"><ele>345</ele><time>2020-08-14T13:45:28Z</time><name>PT5925</name></trkpt>
<trkpt lat="54.622415" lon="-3.081226"><ele>345</ele><time>2020-08-14T13:45:29Z</time><name>PT5926</name></trkpt>
<trkpt lat="54.622410" lon="-3.081226"><ele>345</ele><time>2020-08-14T13:45:30Z</time><name>PT5927</name></trkpt>
<trkpt lat="54.622405" lon="-3.081224"><ele>344</ele><time>2020-08-14T13:45:31Z</time><name>PT5928</name></trkpt>
<trkpt lat="54.622401" lon="-3.081222"><ele>344</ele><time>2020-08-14T13:45:32Z</time><name>PT5929</name></trkpt>
<trkpt lat="54.622394" lon="-3.081220"><ele>344</ele><time>2020-08-14T13:45:33Z</time><name>PT5930</name></trkpt>
<trkpt lat="54.622388" lon="-3.081217"><ele>343</ele><time>2020-08-14T13:45:34Z</time><name>PT5931</name></trkpt>
<trkpt lat="54.622383" lon="-3.081217"><ele>343</ele><time>2020-08-14T13:45:35Z</time><name>PT5932</name></trkpt>
<trkpt lat="54.622377" lon="-3.081218"><ele>343</ele><time>2020-08-14T13:45:36Z</time><name>PT5933</name></trkpt>
<trkpt lat="54.622370" lon="-3.081220"><ele>343</ele><time>2020-08-14T13:45:37Z</time><name>PT5934</name></trkpt>
<trkpt lat="54.622363" lon="-3.081226"><ele>343</ele><time>2020-08-14T13:45:38Z</time><name>PT5935</name></trkpt>
<trkpt lat="54.622357" lon="-3.081227"><ele>343</ele><time>2020-08-14T13:45:39Z</time><name>PT5936</name></trkpt>
<trkpt lat="54.622352" lon="-3.081230"><ele>342</ele><time>2020-08-14T13:45:40Z</time><name>PT5937</name></trkpt>
<trkpt lat="54.622347" lon="-3.081232"><ele>342</ele><time>2020-08-14T13:45:41Z</time><name>PT5938</name></trkpt>
<trkpt lat="54.622341" lon="-3.081236"><ele>342</ele><time>2020-08-14T13:45:42Z</time><name>PT5939</name></trkpt>
<trkpt lat="54.622335" lon="-3.081237"><ele>341</ele><time>2020-08-14T13:45:43Z</time><name>PT5940</name></trkpt>
<trkpt lat="54.622331" lon="-3.081237"><ele>341</ele><time>2020-08-14T13:45:44Z</time><name>PT5941</name></trkpt>
<trkpt lat="54.622327" lon="-3.081234"><ele>340</ele><time>2020-08-14T13:45:45Z</time><name>PT5942</name></trkpt>
<trkpt lat="54.622322" lon="-3.081232"><ele>340</ele><time>2020-08-14T13:45:46Z</time><name>PT5943</name></trkpt>
<trkpt lat="54.622318" lon="-3.081230"><ele>340</ele><time>2020-08-14T13:45:47Z</time><name>PT5944</name></trkpt>
<trkpt lat="54.622319" lon="-3.081232"><ele>340</ele><time>2020-08-14T13:45:51Z</time><name>PT5945</name></trkpt>
<trkpt lat="54.622316" lon="-3.081245"><ele>340</ele><time>2020-08-14T13:45:52Z</time><name>PT5946</name></trkpt>
<trkpt lat="54.622311" lon="-3.081252"><ele>340</ele><time>2020-08-14T13:45:53Z</time><name>PT5947</name></trkpt>
<trkpt lat="54.622304" lon="-3.081263"><ele>340</ele><time>2020-08-14T13:45:54Z</time><name>PT5948</name></trkpt>
<trkpt lat="54.622297" lon="-3.081272"><ele>340</ele><time>2020-08-14T13:45:55Z</time><name>PT5949</name></trkpt>
<trkpt lat="54.622289" lon="-3.081279"><ele>340</ele><time>2020-08-14T13:45:56Z</time><name>PT5950</name></trkpt>
<trkpt lat="54.622283" lon="-3.081286"><ele>340</ele><time>2020-08-14T13:45:57Z</time><name>PT5951</name></trkpt>
<trkpt lat="54.622277" lon="-3.081292"><ele>340</ele><time>2020-08-14T13:45:58Z</time><name>PT5952</name></trkpt>
<trkpt lat="54.622273" lon="-3.081294"><ele>339</ele><time>2020-08-14T13:45:59Z</time><name>PT5953</name></trkpt>
<trkpt lat="54.622270" lon="-3.081295"><ele>339</ele><time>2020-08-14T13:46:00Z</time><name>PT5954</name></trkpt>
<trkpt lat="54.622268" lon="-3.081299"><ele>339</ele><time>2020-08-14T13:46:01Z</time><name>PT5955</name></trkpt>
<trkpt lat="54.622263" lon="-3.081303"><ele>338</ele><time>2020-08-14T13:46:02Z</time><name>PT5956</name></trkpt>
<trkpt lat="54.622258" lon="-3.081307"><ele>338</ele><time>2020-08-14T13:46:03Z</time><name>PT5957</name></trkpt>
<trkpt lat="54.622252" lon="-3.081308"><ele>338</ele><time>2020-08-14T13:46:04Z</time><name>PT5958</name></trkpt>
<trkpt lat="54.622247" lon="-3.081309"><ele>337</ele><time>2020-08-14T13:46:05Z</time><name>PT5959</name></trkpt>
<trkpt lat="54.622240" lon="-3.081313"><ele>337</ele><time>2020-08-14T13:46:06Z</time><name>PT5960</name></trkpt>
<trkpt lat="54.622233" lon="-3.081316"><ele>336</ele><time>2020-08-14T13:46:07Z</time><name>PT5961</name></trkpt>
<trkpt lat="54.622230" lon="-3.081316"><ele>336</ele><time>2020-08-14T13:46:08Z</time><name>PT5962</name></trkpt>
<trkpt lat="54.622225" lon="-3.081314"><ele>335</ele><time>2020-08-14T13:46:09Z</time><name>PT5963</name></trkpt>
<trkpt lat="54.622220" lon="-3.081313"><ele>335</ele><time>2020-08-14T13:46:10Z</time><name>PT5964</name></trkpt>
<trkpt lat="54.622215" lon="-3.081317"><ele>335</ele><time>2020-08-14T13:46:11Z</time><name>PT5965</name></trkpt>
<trkpt lat="54.622212" lon="-3.081326"><ele>335</ele><time>2020-08-14T13:46:12Z</time><name>PT5966</name></trkpt>
<trkpt lat="54.622207" lon="-3.081332"><ele>335</ele><time>2020-08-14T13:46:13Z</time><name>PT5967</name></trkpt>
<trkpt lat="54.622206" lon="-3.081335"><ele>335</ele><time>2020-08-14T13:46:14Z</time><name>PT5968</name></trkpt>
<trkpt lat="54.622203" lon="-3.081337"><ele>335</ele><time>2020-08-14T13:46:15Z</time><name>PT5969</name></trkpt>
<trkpt lat="54.622198" lon="-3.081343"><ele>335</ele><time>2020-08-14T13:46:16Z</time><name>PT5970</name></trkpt>
<trkpt lat="54.622191" lon="-3.081348"><ele>334</ele><time>2020-08-14T13:46:17Z</time><name>PT5971</name></trkpt>
<trkpt lat="54.622184" lon="-3.081353"><ele>334</ele><time>2020-08-14T13:46:18Z</time><name>PT5972</name></trkpt>
<trkpt lat="54.622176" lon="-3.081358"><ele>334</ele><time>2020-08-14T13:46:19Z</time><name>PT5973</name></trkpt>
<trkpt lat="54.622168" lon="-3.081361"><ele>333</ele><time>2020-08-14T13:46:20Z</time><name>PT5974</name></trkpt>
<trkpt lat="54.622161" lon="-3.081362"><ele>332</ele><time>2020-08-14T13:46:21Z</time><name>PT5975</name></trkpt>
<trkpt lat="54.622150" lon="-3.081365"><ele>332</ele><time>2020-08-14T13:46:22Z</time><name>PT5976</name></trkpt>
<trkpt lat="54.622144" lon="-3.081371"><ele>331</ele><time>2020-08-14T13:46:23Z</time><name>PT5977</name></trkpt>
<trkpt lat="54.622134" lon="-3.081372"><ele>331</ele><time>2020-08-14T13:46:24Z</time><name>PT5978</name></trkpt>
<trkpt lat="54.622126" lon="-3.081373"><ele>330</ele><time>2020-08-14T13:46:25Z</time><name>PT5979</name></trkpt>
<trkpt lat="54.622118" lon="-3.081371"><ele>330</ele><time>2020-08-14T13:46:26Z</time><name>PT5980</name></trkpt>
<trkpt lat="54.622110" lon="-3.081364"><ele>330</ele><time>2020-08-14T13:46:27Z</time><name>PT5981</name></trkpt>
<trkpt lat="54.622098" lon="-3.081359"><ele>330</ele><time>2020-08-14T13:46:28Z</time><name>PT5982</name></trkpt>
<trkpt lat="54.622088" lon="-3.081354"><ele>329</ele><time>2020-08-14T13:46:29Z</time><name>PT5983</name></trkpt>
<trkpt lat="54.622076" lon="-3.081349"><ele>329</ele><time>2020-08-14T13:46:30Z</time><name>PT5984</name></trkpt>
<trkpt lat="54.622065" lon="-3.081343"><ele>329</ele><time>2020-08-14T13:46:31Z</time><name>PT5985</name></trkpt>
<trkpt lat="54.622056" lon="-3.081334"><ele>329</ele><time>2020-08-14T13:46:32Z</time><name>PT5986</name></trkpt>
<trkpt lat="54.622047" lon="-3.081325"><ele>328</ele><time>2020-08-14T13:46:33Z</time><name>PT5987</name></trkpt>
<trkpt lat="54.622037" lon="-3.081318"><ele>328</ele><time>2020-08-14T13:46:34Z</time><name>PT5988</name></trkpt>
<trkpt lat="54.622027" lon="-3.081315"><ele>328</ele><time>2020-08-14T13:46:35Z</time><name>PT5989</name></trkpt>
<trkpt lat="54.622018" lon="-3.081306"><ele>328</ele><time>2020-08-14T13:46:36Z</time><name>PT5990</name></trkpt>
<trkpt lat="54.622012" lon="-3.081299"><ele>327</ele><time>2020-08-14T13:46:37Z</time><name>PT5991</name></trkpt>
<trkpt lat="54.622007" lon="-3.081295"><ele>327</ele><time>2020-08-14T13:46:38Z</time><name>PT5992</name></trkpt>
<trkpt lat="54.622003" lon="-3.081294"><ele>327</ele><time>2020-08-14T13:46:39Z</time><name>PT5993</name></trkpt>
<trkpt lat="54.621997" lon="-3.081292"><ele>327</ele><time>2020-08-14T13:46:40Z</time><name>PT5994</name></trkpt>
<trkpt lat="54.621992" lon="-3.081288"><ele>327</ele><time>2020-08-14T13:46:41Z</time><name>PT5995</name></trkpt>
<trkpt lat="54.621983" lon="-3.081283"><ele>326</ele><time>2020-08-14T13:46:42Z</time><name>PT5996</name></trkpt>
<trkpt lat="54.621975" lon="-3.081275"><ele>326</ele><time>2020-08-14T13:46:43Z</time><name>PT5997</name></trkpt>
<trkpt lat="54.621970" lon="-3.081270"><ele>326</ele><time>2020-08-14T13:46:44Z</time><name>PT5998</name></trkpt>
<trkpt lat="54.621964" lon="-3.081265"><ele>326</ele><time>2020-08-14T13:46:45Z</time><name>PT5999</name></trkpt>
<trkpt lat="54.621958" lon="-3.081263"><ele>326</ele><time>2020-08-14T13:46:46Z</time><name>PT6000</name></trkpt>
<trkpt lat="54.621951" lon="-3.081265"><ele>326</ele><time>2020-08-14T13:46:47Z</time><name>PT6001</name></trkpt>
<trkpt lat="54.621945" lon="-3.081269"><ele>325</ele><time>2020-08-14T13:46:48Z</time><name>PT6002</name></trkpt>
<trkpt lat="54.621940" lon="-3.081276"><ele>325</ele><time>2020-08-14T13:46:49Z</time><name>PT6003</name></trkpt>
<trkpt lat="54.621938" lon="-3.081281"><ele>325</ele><time>2020-08-14T13:46:50Z</time><name>PT6004</name></trkpt>
<trkpt lat="54.621933" lon="-3.081282"><ele>325</ele><time>2020-08-14T13:46:51Z</time><name>PT6005</name></trkpt>
<trkpt lat="54.621929" lon="-3.081281"><ele>324</ele><time>2020-08-14T13:46:52Z</time><name>PT6006</name></trkpt>
<trkpt lat="54.621917" lon="-3.081292"><ele>324</ele><time>2020-08-14T13:46:55Z</time><name>PT6007</name></trkpt>
<trkpt lat="54.621914" lon="-3.081298"><ele>324</ele><time>2020-08-14T13:46:59Z</time><name>PT6008</name></trkpt>
<trkpt lat="54.621907" lon="-3.081303"><ele>323</ele><time>2020-08-14T13:47:03Z</time><name>PT6009</name></trkpt>
<trkpt lat="54.621876" lon="-3.081292"><ele>322</ele><time>2020-08-14T13:47:07Z</time><name>PT6010</name></trkpt>
<trkpt lat="54.621845" lon="-3.081291"><ele>320</ele><time>2020-08-14T13:47:11Z</time><name>PT6011</name></trkpt>
<trkpt lat="54.621817" lon="-3.081265"><ele>319</ele><time>2020-08-14T13:47:15Z</time><name>PT6012</name></trkpt>
<trkpt lat="54.621787" lon="-3.081239"><ele>317</ele><time>2020-08-14T13:47:19Z</time><name>PT6013</name></trkpt>
<trkpt lat="54.621763" lon="-3.081243"><ele>316</ele><time>2020-08-14T13:47:23Z</time><name>PT6014</name></trkpt>
<trkpt lat="54.621742" lon="-3.081241"><ele>314</ele><time>2020-08-14T13:47:27Z</time><name>PT6015</name></trkpt>
<trkpt lat="54.621716" lon="-3.081229"><ele>314</ele><time>2020-08-14T13:47:31Z</time><name>PT6016</name></trkpt>
<trkpt lat="54.621695" lon="-3.081210"><ele>313</ele><time>2020-08-14T13:47:34Z</time><name>PT6017</name></trkpt>
<trkpt lat="54.621689" lon="-3.081227"><ele>313</ele><time>2020-08-14T13:47:38Z</time><name>PT6018</name></trkpt>
<trkpt lat="54.621670" lon="-3.081226"><ele>312</ele><time>2020-08-14T13:47:49Z</time><name>PT6019</name></trkpt>
<trkpt lat="54.621626" lon="-3.081234"><ele>310</ele><time>2020-08-14T13:47:53Z</time><name>PT6020</name></trkpt>
<trkpt lat="54.621594" lon="-3.081223"><ele>309</ele><time>2020-08-14T13:47:56Z</time><name>PT6021</name></trkpt>
<trkpt lat="54.621571" lon="-3.081214"><ele>308</ele><time>2020-08-14T13:47:59Z</time><name>PT6022</name></trkpt>
<trkpt lat="54.621545" lon="-3.081199"><ele>308</ele><time>2020-08-14T13:48:02Z</time><name>PT6023</name></trkpt>
<trkpt lat="54.621518" lon="-3.081190"><ele>306</ele><time>2020-08-14T13:48:05Z</time><name>PT6024</name></trkpt>
<trkpt lat="54.621484" lon="-3.081174"><ele>305</ele><time>2020-08-14T13:48:09Z</time><name>PT6025</name></trkpt>
<trkpt lat="54.621458" lon="-3.081174"><ele>303</ele><time>2020-08-14T13:48:13Z</time><name>PT6026</name></trkpt>
<trkpt lat="54.621448" lon="-3.081193"><ele>302</ele><time>2020-08-14T13:48:16Z</time><name>PT6027</name></trkpt>
<trkpt lat="54.621431" lon="-3.081228"><ele>302</ele><time>2020-08-14T13:48:20Z</time><name>PT6028</name></trkpt>
<trkpt lat="54.621422" lon="-3.081250"><ele>302</ele><time>2020-08-14T13:48:23Z</time><name>PT6029</name></trkpt>
<trkpt lat="54.621404" lon="-3.081278"><ele>301</ele><time>2020-08-14T13:48:27Z</time><name>PT6030</name></trkpt>
<trkpt lat="54.621384" lon="-3.081334"><ele>301</ele><time>2020-08-14T13:48:31Z</time><name>PT6031</name></trkpt>
<trkpt lat="54.621367" lon="-3.081387"><ele>300</ele><time>2020-08-14T13:48:35Z</time><name>PT6032</name></trkpt>
<trkpt lat="54.621365" lon="-3.081454"><ele>301</ele><time>2020-08-14T13:48:39Z</time><name>PT6033</name></trkpt>
<trkpt lat="54.621366" lon="-3.081496"><ele>300</ele><time>2020-08-14T13:48:42Z</time><name>PT6034</name></trkpt>
<trkpt lat="54.621361" lon="-3.081516"><ele>300</ele><time>2020-08-14T13:48:45Z</time><name>PT6035</name></trkpt>
<trkpt lat="54.621353" lon="-3.081531"><ele>299</ele><time>2020-08-14T13:48:48Z</time><name>PT6036</name></trkpt>
<trkpt lat="54.621339" lon="-3.081527"><ele>297</ele><time>2020-08-14T13:48:51Z</time><name>PT6037</name></trkpt>
<trkpt lat="54.621312" lon="-3.081537"><ele>296</ele><time>2020-08-14T13:48:55Z</time><name>PT6038</name></trkpt>
<trkpt lat="54.621296" lon="-3.081572"><ele>295</ele><time>2020-08-14T13:48:58Z</time><name>PT6039</name></trkpt>
<trkpt lat="54.621284" lon="-3.081641"><ele>294</ele><time>2020-08-14T13:49:02Z</time><name>PT6040</name></trkpt>
<trkpt lat="54.621279" lon="-3.081708"><ele>294</ele><time>2020-08-14T13:49:05Z</time><name>PT6041</name></trkpt>
<trkpt lat="54.621272" lon="-3.081771"><ele>295</ele><time>2020-08-14T13:49:09Z</time><name>PT6042</name></trkpt>
<trkpt lat="54.621268" lon="-3.081809"><ele>295</ele><time>2020-08-14T13:49:12Z</time><name>PT6043</name></trkpt>
<trkpt lat="54.621261" lon="-3.081883"><ele>295</ele><time>2020-08-14T13:49:16Z</time><name>PT6044</name></trkpt>
<trkpt lat="54.621252" lon="-3.081931"><ele>295</ele><time>2020-08-14T13:49:19Z</time><name>PT6045</name></trkpt>
<trkpt lat="54.621250" lon="-3.081979"><ele>294</ele><time>2020-08-14T13:49:22Z</time><name>PT6046</name></trkpt>
<trkpt lat="54.621251" lon="-3.081991"><ele>294</ele><time>2020-08-14T13:49:23Z</time><name>PT6047</name></trkpt>
<trkpt lat="54.621249" lon="-3.081994"><ele>294</ele><time>2020-08-14T13:49:24Z</time><name>PT6048</name></trkpt>
<trkpt lat="54.621249" lon="-3.081998"><ele>294</ele><time>2020-08-14T13:49:25Z</time><name>PT6049</name></trkpt>
<trkpt lat="54.621250" lon="-3.081998"><ele>294</ele><time>2020-08-14T13:49:26Z</time><name>PT6050</name></trkpt>
<trkpt lat="54.621253" lon="-3.082004"><ele>294</ele><time>2020-08-14T13:49:30Z</time><name>PT6051</name></trkpt>
<trkpt lat="54.621253" lon="-3.082022"><ele>294</ele><time>2020-08-14T13:49:31Z</time><name>PT6052</name></trkpt>
<trkpt lat="54.621253" lon="-3.082037"><ele>294</ele><time>2020-08-14T13:49:32Z</time><name>PT6053</name></trkpt>
<trkpt lat="54.621252" lon="-3.082041"><ele>294</ele><time>2020-08-14T13:49:33Z</time><name>PT6054</name></trkpt>
<trkpt lat="54.621252" lon="-3.082042"><ele>294</ele><time>2020-08-14T13:49:34Z</time><name>PT6055</name></trkpt>
<trkpt lat="54.621252" lon="-3.082045"><ele>294</ele><time>2020-08-14T13:49:35Z</time><name>PT6056</name></trkpt>
<trkpt lat="54.621251" lon="-3.082056"><ele>294</ele><time>2020-08-14T13:49:36Z</time><name>PT6057</name></trkpt>
<trkpt lat="54.621248" lon="-3.082069"><ele>294</ele><time>2020-08-14T13:49:37Z</time><name>PT6058</name></trkpt>
<trkpt lat="54.621245" lon="-3.082079"><ele>294</ele><time>2020-08-14T13:49:38Z</time><name>PT6059</name></trkpt>
<trkpt lat="54.621240" lon="-3.082087"><ele>294</ele><time>2020-08-14T13:49:39Z</time><name>PT6060</name></trkpt>
<trkpt lat="54.621234" lon="-3.082097"><ele>294</ele><time>2020-08-14T13:49:40Z</time><name>PT6061</name></trkpt>
<trkpt lat="54.621229" lon="-3.082104"><ele>295</ele><time>2020-08-14T13:49:41Z</time><name>PT6062</name></trkpt>
<trkpt lat="54.621221" lon="-3.082107"><ele>295</ele><time>2020-08-14T13:49:42Z</time><name>PT6063</name></trkpt>
<trkpt lat="54.621215" lon="-3.082110"><ele>294</ele><time>2020-08-14T13:49:43Z</time><name>PT6064</name></trkpt>
<trkpt lat="54.621212" lon="-3.082111"><ele>295</ele><time>2020-08-14T13:49:44Z</time><name>PT6065</name></trkpt>
<trkpt lat="54.621211" lon="-3.082110"><ele>294</ele><time>2020-08-14T13:49:45Z</time><name>PT6066</name></trkpt>
<trkpt lat="54.621210" lon="-3.082114"><ele>294</ele><time>2020-08-14T13:49:46Z</time><name>PT6067</name></trkpt>
<trkpt lat="54.621217" lon="-3.082145"><ele>295</ele><time>2020-08-14T13:51:11Z</time><name>PT6068</name></trkpt>
<trkpt lat="54.621225" lon="-3.082170"><ele>295</ele><time>2020-08-14T13:51:12Z</time><name>PT6069</name></trkpt>
<trkpt lat="54.621229" lon="-3.082190"><ele>295</ele><time>2020-08-14T13:51:13Z</time><name>PT6070</name></trkpt>
<trkpt lat="54.621232" lon="-3.082209"><ele>295</ele><time>2020-08-14T13:51:14Z</time><name>PT6071</name></trkpt>
<trkpt lat="54.621239" lon="-3.082230"><ele>295</ele><time>2020-08-14T13:51:15Z</time><name>PT6072</name></trkpt>
<trkpt lat="54.621244" lon="-3.082257"><ele>295</ele><time>2020-08-14T13:51:16Z</time><name>PT6073</name></trkpt>
<trkpt lat="54.621250" lon="-3.082273"><ele>295</ele><time>2020-08-14T13:51:17Z</time><name>PT6074</name></trkpt>
<trkpt lat="54.621254" lon="-3.082283"><ele>295</ele><time>2020-08-14T13:51:18Z</time><name>PT6075</name></trkpt>
<trkpt lat="54.621259" lon="-3.082300"><ele>296</ele><time>2020-08-14T13:51:19Z</time><name>PT6076</name></trkpt>
<trkpt lat="54.621262" lon="-3.082320"><ele>296</ele><time>2020-08-14T13:51:20Z</time><name>PT6077</name></trkpt>
<trkpt lat="54.621269" lon="-3.082339"><ele>296</ele><time>2020-08-14T13:51:21Z</time><name>PT6078</name></trkpt>
<trkpt lat="54.621272" lon="-3.082358"><ele>296</ele><time>2020-08-14T13:51:22Z</time><name>PT6079</name></trkpt>
<trkpt lat="54.621273" lon="-3.082372"><ele>297</ele><time>2020-08-14T13:51:23Z</time><name>PT6080</name></trkpt>
<trkpt lat="54.621274" lon="-3.082384"><ele>297</ele><time>2020-08-14T13:51:24Z</time><name>PT6081</name></trkpt>
<trkpt lat="54.621278" lon="-3.082399"><ele>297</ele><time>2020-08-14T13:51:25Z</time><name>PT6082</name></trkpt>
<trkpt lat="54.621277" lon="-3.082418"><ele>297</ele><time>2020-08-14T13:51:26Z</time><name>PT6083</name></trkpt>
<trkpt lat="54.621284" lon="-3.082431"><ele>297</ele><time>2020-08-14T13:51:27Z</time><name>PT6084</name></trkpt>
<trkpt lat="54.621290" lon="-3.082442"><ele>298</ele><time>2020-08-14T13:51:28Z</time><name>PT6085</name></trkpt>
<trkpt lat="54.621295" lon="-3.082465"><ele>298</ele><time>2020-08-14T13:51:29Z</time><name>PT6086</name></trkpt>
<trkpt lat="54.621299" lon="-3.082484"><ele>297</ele><time>2020-08-14T13:51:30Z</time><name>PT6087</name></trkpt>
<trkpt lat="54.621305" lon="-3.082505"><ele>298</ele><time>2020-08-14T13:51:31Z</time><name>PT6088</name></trkpt>
<trkpt lat="54.621307" lon="-3.082525"><ele>297</ele><time>2020-08-14T13:51:32Z</time><name>PT6089</name></trkpt>
<trkpt lat="54.621311" lon="-3.082535"><ele>297</ele><time>2020-08-14T13:51:33Z</time><name>PT6090</name></trkpt>
<trkpt lat="54.621319" lon="-3.082540"><ele>297</ele><time>2020-08-14T13:51:34Z</time><name>PT6091</name></trkpt>
<trkpt lat="54.621320" lon="-3.082555"><ele>297</ele><time>2020-08-14T13:51:35Z</time><name>PT6092</name></trkpt>
<trkpt lat="54.621320" lon="-3.082570"><ele>297</ele><time>2020-08-14T13:51:36Z</time><name>PT6093</name></trkpt>
<trkpt lat="54.621325" lon="-3.082579"><ele>297</ele><time>2020-08-14T13:51:37Z</time><name>PT6094</name></trkpt>
<trkpt lat="54.621332" lon="-3.082594"><ele>297</ele><time>2020-08-14T13:51:38Z</time><name>PT6095</name></trkpt>
<trkpt lat="54.621337" lon="-3.082609"><ele>297</ele><time>2020-08-14T13:51:39Z</time><name>PT6096</name></trkpt>
<trkpt lat="54.621342" lon="-3.082622"><ele>297</ele><time>2020-08-14T13:51:40Z</time><name>PT6097</name></trkpt>
<trkpt lat="54.621346" lon="-3.082638"><ele>297</ele><time>2020-08-14T13:51:41Z</time><name>PT6098</name></trkpt>
<trkpt lat="54.621350" lon="-3.082653"><ele>297</ele><time>2020-08-14T13:51:42Z</time><name>PT6099</name></trkpt>
<trkpt lat="54.621352" lon="-3.082665"><ele>297</ele><time>2020-08-14T13:51:43Z</time><name>PT6100</name></trkpt>
<trkpt lat="54.621354" lon="-3.082672"><ele>297</ele><time>2020-08-14T13:51:44Z</time><name>PT6101</name></trkpt>
<trkpt lat="54.621352" lon="-3.082675"><ele>297</ele><time>2020-08-14T13:51:45Z</time><name>PT6102</name></trkpt>
<trkpt lat="54.621351" lon="-3.082676"><ele>297</ele><time>2020-08-14T13:51:46Z</time><name>PT6103</name></trkpt>
<trkpt lat="54.621350" lon="-3.082676"><ele>297</ele><time>2020-08-14T13:51:47Z</time><name>PT6104</name></trkpt>
<trkpt lat="54.621352" lon="-3.082675"><ele>298</ele><time>2020-08-14T13:51:52Z</time><name>PT6105</name></trkpt>
<trkpt lat="54.621357" lon="-3.082686"><ele>298</ele><time>2020-08-14T13:51:53Z</time><name>PT6106</name></trkpt>
<trkpt lat="54.621360" lon="-3.082699"><ele>298</ele><time>2020-08-14T13:51:54Z</time><name>PT6107</name></trkpt>
<trkpt lat="54.621363" lon="-3.082707"><ele>298</ele><time>2020-08-14T13:51:55Z</time><name>PT6108</name></trkpt>
<trkpt lat="54.621365" lon="-3.082708"><ele>298</ele><time>2020-08-14T13:51:56Z</time><name>PT6109</name></trkpt>
<trkpt lat="54.621366" lon="-3.082706"><ele>298</ele><time>2020-08-14T13:51:57Z</time><name>PT6110</name></trkpt>
<trkpt lat="54.621364" lon="-3.082708"><ele>298</ele><time>2020-08-14T13:51:58Z</time><name>PT6111</name></trkpt>
<trkpt lat="54.621370" lon="-3.082706"><ele>297</ele><time>2020-08-14T13:52:01Z</time><name>PT6112</name></trkpt>
<trkpt lat="54.621368" lon="-3.082704"><ele>297</ele><time>2020-08-14T13:52:02Z</time><name>PT6113</name></trkpt>
<trkpt lat="54.621364" lon="-3.082706"><ele>297</ele><time>2020-08-14T13:52:03Z</time><name>PT6114</name></trkpt>
<trkpt lat="54.621369" lon="-3.082708"><ele>297</ele><time>2020-08-14T13:52:08Z</time><name>PT6115</name></trkpt>
<trkpt lat="54.621372" lon="-3.082719"><ele>297</ele><time>2020-08-14T13:52:09Z</time><name>PT6116</name></trkpt>
<trkpt lat="54.621370" lon="-3.082714"><ele>297</ele><time>2020-08-14T13:52:10Z</time><name>PT6117</name></trkpt>
<trkpt lat="54.621368" lon="-3.082716"><ele>297</ele><time>2020-08-14T13:52:11Z</time><name>PT6118</name></trkpt>
<trkpt lat="54.621369" lon="-3.082721"><ele>297</ele><time>2020-08-14T13:52:17Z</time><name>PT6119</name></trkpt>
<trkpt lat="54.621370" lon="-3.082734"><ele>297</ele><time>2020-08-14T13:52:18Z</time><name>PT6120</name></trkpt>
<trkpt lat="54.621369" lon="-3.082745"><ele>297</ele><time>2020-08-14T13:52:19Z</time><name>PT6121</name></trkpt>
<trkpt lat="54.621368" lon="-3.082750"><ele>297</ele><time>2020-08-14T13:52:20Z</time><name>PT6122</name></trkpt>
<trkpt lat="54.621366" lon="-3.082754"><ele>297</ele><time>2020-08-14T13:52:21Z</time><name>PT6123</name></trkpt>
<trkpt lat="54.621369" lon="-3.082748"><ele>297</ele><time>2020-08-14T13:52:24Z</time><name>PT6124</name></trkpt>
<trkpt lat="54.621363" lon="-3.082727"><ele>297</ele><time>2020-08-14T13:52:25Z</time><name>PT6125</name></trkpt>
<trkpt lat="54.621357" lon="-3.082711"><ele>297</ele><time>2020-08-14T13:52:26Z</time><name>PT6126</name></trkpt>
<trkpt lat="54.621350" lon="-3.082698"><ele>297</ele><time>2020-08-14T13:52:27Z</time><name>PT6127</name></trkpt>
<trkpt lat="54.621347" lon="-3.082688"><ele>297</ele><time>2020-08-14T13:52:28Z</time><name>PT6128</name></trkpt>
<trkpt lat="54.621341" lon="-3.082680"><ele>297</ele><time>2020-08-14T13:52:29Z</time><name>PT6129</name></trkpt>
<trkpt lat="54.621339" lon="-3.082666"><ele>297</ele><time>2020-08-14T13:52:30Z</time><name>PT6130</name></trkpt>
<trkpt lat="54.621337" lon="-3.082643"><ele>296</ele><time>2020-08-14T13:52:31Z</time><name>PT6131</name></trkpt>
<trkpt lat="54.621334" lon="-3.082630"><ele>296</ele><time>2020-08-14T13:52:32Z</time><name>PT6132</name></trkpt>
<trkpt lat="54.621329" lon="-3.082611"><ele>296</ele><time>2020-08-14T13:52:33Z</time><name>PT6133</name></trkpt>
<trkpt lat="54.621325" lon="-3.082593"><ele>296</ele><time>2020-08-14T13:52:34Z</time><name>PT6134</name></trkpt>
<trkpt lat="54.621320" lon="-3.082575"><ele>295</ele><time>2020-08-14T13:52:35Z</time><name>PT6135</name></trkpt>
<trkpt lat="54.621316" lon="-3.082554"><ele>295</ele><time>2020-08-14T13:52:36Z</time><name>PT6136</name></trkpt>
<trkpt lat="54.621312" lon="-3.082534"><ele>295</ele><time>2020-08-14T13:52:37Z</time><name>PT6137</name></trkpt>
<trkpt lat="54.621307" lon="-3.082515"><ele>295</ele><time>2020-08-14T13:52:38Z</time><name>PT6138</name></trkpt>
<trkpt lat="54.621304" lon="-3.082497"><ele>295</ele><time>2020-08-14T13:52:39Z</time><name>PT6139</name></trkpt>
<trkpt lat="54.621297" lon="-3.082479"><ele>295</ele><time>2020-08-14T13:52:40Z</time><name>PT6140</name></trkpt>
<trkpt lat="54.621291" lon="-3.082463"><ele>295</ele><time>2020-08-14T13:52:41Z</time><name>PT6141</name></trkpt>
<trkpt lat="54.621286" lon="-3.082442"><ele>295</ele><time>2020-08-14T13:52:42Z</time><name>PT6142</name></trkpt>
<trkpt lat="54.621282" lon="-3.082421"><ele>294</ele><time>2020-08-14T13:52:43Z</time><name>PT6143</name></trkpt>
<trkpt lat="54.621279" lon="-3.082401"><ele>294</ele><time>2020-08-14T13:52:44Z</time><name>PT6144</name></trkpt>
<trkpt lat="54.621273" lon="-3.082385"><ele>294</ele><time>2020-08-14T13:52:45Z</time><name>PT6145</name></trkpt>
<trkpt lat="54.621266" lon="-3.082367"><ele>294</ele><time>2020-08-14T13:52:46Z</time><name>PT6146</name></trkpt>
<trkpt lat="54.621261" lon="-3.082347"><ele>293</ele><time>2020-08-14T13:52:47Z</time><name>PT6147</name></trkpt>
<trkpt lat="54.621258" lon="-3.082328"><ele>293</ele><time>2020-08-14T13:52:48Z</time><name>PT6148</name></trkpt>
<trkpt lat="54.621255" lon="-3.082307"><ele>294</ele><time>2020-08-14T13:52:49Z</time><name>PT6149</name></trkpt>
<trkpt lat="54.621251" lon="-3.082287"><ele>294</ele><time>2020-08-14T13:52:50Z</time><name>PT6150</name></trkpt>
<trkpt lat="54.621245" lon="-3.082269"><ele>293</ele><time>2020-08-14T13:52:51Z</time><name>PT6151</name></trkpt>
<trkpt lat="54.621238" lon="-3.082249"><ele>294</ele><time>2020-08-14T13:52:52Z</time><name>PT6152</name></trkpt>
<trkpt lat="54.621233" lon="-3.082230"><ele>293</ele><time>2020-08-14T13:52:53Z</time><name>PT6153</name></trkpt>
<trkpt lat="54.621229" lon="-3.082209"><ele>293</ele><time>2020-08-14T13:52:54Z</time><name>PT6154</name></trkpt>
<trkpt lat="54.621225" lon="-3.082190"><ele>293</ele><time>2020-08-14T13:52:55Z</time><name>PT6155</name></trkpt>
<trkpt lat="54.621220" lon="-3.082171"><ele>293</ele><time>2020-08-14T13:52:56Z</time><name>PT6156</name></trkpt>
<trkpt lat="54.621214" lon="-3.082153"><ele>293</ele><time>2020-08-14T13:52:57Z</time><name>PT6157</name></trkpt>
<trkpt lat="54.621207" lon="-3.082134"><ele>293</ele><time>2020-08-14T13:52:58Z</time><name>PT6158</name></trkpt>
<trkpt lat="54.621202" lon="-3.082113"><ele>293</ele><time>2020-08-14T13:52:59Z</time><name>PT6159</name></trkpt>
<trkpt lat="54.621195" lon="-3.082095"><ele>293</ele><time>2020-08-14T13:53:00Z</time><name>PT6160</name></trkpt>
<trkpt lat="54.621187" lon="-3.082081"><ele>292</ele><time>2020-08-14T13:53:01Z</time><name>PT6161</name></trkpt>
<trkpt lat="54.621180" lon="-3.082063"><ele>292</ele><time>2020-08-14T13:53:02Z</time><name>PT6162</name></trkpt>
<trkpt lat="54.621174" lon="-3.082043"><ele>292</ele><time>2020-08-14T13:53:03Z</time><name>PT6163</name></trkpt>
<trkpt lat="54.621168" lon="-3.082026"><ele>291</ele><time>2020-08-14T13:53:04Z</time><name>PT6164</name></trkpt>
<trkpt lat="54.621164" lon="-3.082010"><ele>291</ele><time>2020-08-14T13:53:05Z</time><name>PT6165</name></trkpt>
<trkpt lat="54.621160" lon="-3.081993"><ele>291</ele><time>2020-08-14T13:53:06Z</time><name>PT6166</name></trkpt>
<trkpt lat="54.621153" lon="-3.081975"><ele>291</ele><time>2020-08-14T13:53:07Z</time><name>PT6167</name></trkpt>
<trkpt lat="54.621147" lon="-3.081959"><ele>291</ele><time>2020-08-14T13:53:08Z</time><name>PT6168</name></trkpt>
<trkpt lat="54.621140" lon="-3.081941"><ele>291</ele><time>2020-08-14T13:53:09Z</time><name>PT6169</name></trkpt>
<trkpt lat="54.621135" lon="-3.081923"><ele>290</ele><time>2020-08-14T13:53:10Z</time><name>PT6170</name></trkpt>
<trkpt lat="54.621129" lon="-3.081906"><ele>290</ele><time>2020-08-14T13:53:11Z</time><name>PT6171</name></trkpt>
<trkpt lat="54.621124" lon="-3.081888"><ele>290</ele><time>2020-08-14T13:53:12Z</time><name>PT6172</name></trkpt>
<trkpt lat="54.621119" lon="-3.081875"><ele>289</ele><time>2020-08-14T13:53:13Z</time><name>PT6173</name></trkpt>
<trkpt lat="54.621115" lon="-3.081864"><ele>289</ele><time>2020-08-14T13:53:14Z</time><name>PT6174</name></trkpt>
<trkpt lat="54.621108" lon="-3.081845"><ele>289</ele><time>2020-08-14T13:53:15Z</time><name>PT6175</name></trkpt>
<trkpt lat="54.621109" lon="-3.081807"><ele>291</ele><time>2020-08-14T13:53:16Z</time><name>PT6176</name></trkpt>
<trkpt lat="54.621112" lon="-3.081772"><ele>291</ele><time>2020-08-14T13:53:17Z</time><name>PT6177</name></trkpt>
<trkpt lat="54.621111" lon="-3.081744"><ele>292</ele><time>2020-08-14T13:53:18Z</time><name>PT6178</name></trkpt>
<trkpt lat="54.621107" lon="-3.081724"><ele>291</ele><time>2020-08-14T13:53:19Z</time><name>PT6179</name></trkpt>
<trkpt lat="54.621102" lon="-3.081704"><ele>291</ele><time>2020-08-14T13:53:20Z</time><name>PT6180</name></trkpt>
<trkpt lat="54.621099" lon="-3.081686"><ele>291</ele><time>2020-08-14T13:53:21Z</time><name>PT6181</name></trkpt>
<trkpt lat="54.621098" lon="-3.081671"><ele>290</ele><time>2020-08-14T13:53:22Z</time><name>PT6182</name></trkpt>
<trkpt lat="54.621092" lon="-3.081647"><ele>290</ele><time>2020-08-14T13:53:23Z</time><name>PT6183</name></trkpt>
<trkpt lat="54.621084" lon="-3.081615"><ele>290</ele><time>2020-08-14T13:53:24Z</time><name>PT6184</name></trkpt>
<trkpt lat="54.621076" lon="-3.081576"><ele>290</ele><time>2020-08-14T13:53:25Z</time><name>PT6185</name></trkpt>
<trkpt lat="54.621068" lon="-3.081547"><ele>290</ele><time>2020-08-14T13:53:26Z</time><name>PT6186</name></trkpt>
<trkpt lat="54.621064" lon="-3.081531"><ele>290</ele><time>2020-08-14T13:53:27Z</time><name>PT6187</name></trkpt>
<trkpt lat="54.621061" lon="-3.081525"><ele>289</ele><time>2020-08-14T13:53:28Z</time><name>PT6188</name></trkpt>
<trkpt lat="54.621061" lon="-3.081522"><ele>288</ele><time>2020-08-14T13:53:29Z</time><name>PT6189</name></trkpt>
<trkpt lat="54.621058" lon="-3.081511"><ele>288</ele><time>2020-08-14T13:53:30Z</time><name>PT6190</name></trkpt>
<trkpt lat="54.621050" lon="-3.081488"><ele>288</ele><time>2020-08-14T13:53:31Z</time><name>PT6191</name></trkpt>
<trkpt lat="54.621043" lon="-3.081463"><ele>288</ele><time>2020-08-14T13:53:32Z</time><name>PT6192</name></trkpt>
<trkpt lat="54.621037" lon="-3.081434"><ele>288</ele><time>2020-08-14T13:53:33Z</time><name>PT6193</name></trkpt>
<trkpt lat="54.621032" lon="-3.081412"><ele>288</ele><time>2020-08-14T13:53:34Z</time><name>PT6194</name></trkpt>
<trkpt lat="54.621031" lon="-3.081399"><ele>287</ele><time>2020-08-14T13:53:35Z</time><name>PT6195</name></trkpt>
<trkpt lat="54.621030" lon="-3.081380"><ele>288</ele><time>2020-08-14T13:53:36Z</time><name>PT6196</name></trkpt>
<trkpt lat="54.621029" lon="-3.081359"><ele>288</ele><time>2020-08-14T13:53:37Z</time><name>PT6197</name></trkpt>
<trkpt lat="54.621026" lon="-3.081337"><ele>288</ele><time>2020-08-14T13:53:38Z</time><name>PT6198</name></trkpt>
<trkpt lat="54.621022" lon="-3.081318"><ele>287</ele><time>2020-08-14T13:53:39Z</time><name>PT6199</name></trkpt>
<trkpt lat="54.621019" lon="-3.081297"><ele>287</ele><time>2020-08-14T13:53:40Z</time><name>PT6200</name></trkpt>
<trkpt lat="54.621014" lon="-3.081275"><ele>287</ele><time>2020-08-14T13:53:41Z</time><name>PT6201</name></trkpt>
<trkpt lat="54.621011" lon="-3.081255"><ele>287</ele><time>2020-08-14T13:53:42Z</time><name>PT6202</name></trkpt>
<trkpt lat="54.621007" lon="-3.081233"><ele>287</ele><time>2020-08-14T13:53:43Z</time><name>PT6203</name></trkpt>
<trkpt lat="54.621002" lon="-3.081213"><ele>287</ele><time>2020-08-14T13:53:44Z</time><name>PT6204</name></trkpt>
<trkpt lat="54.620996" lon="-3.081192"><ele>287</ele><time>2020-08-14T13:53:45Z</time><name>PT6205</name></trkpt>
<trkpt lat="54.620991" lon="-3.081176"><ele>287</ele><time>2020-08-14T13:53:46Z</time><name>PT6206</name></trkpt>
<trkpt lat="54.620988" lon="-3.081159"><ele>287</ele><time>2020-08-14T13:53:47Z</time><name>PT6207</name></trkpt>
<trkpt lat="54.620986" lon="-3.081140"><ele>286</ele><time>2020-08-14T13:53:48Z</time><name>PT6208</name></trkpt>
<trkpt lat="54.620983" lon="-3.081123"><ele>286</ele><time>2020-08-14T13:53:49Z</time><name>PT6209</name></trkpt>
<trkpt lat="54.620981" lon="-3.081103"><ele>286</ele><time>2020-08-14T13:53:50Z</time><name>PT6210</name></trkpt>
<trkpt lat="54.620981" lon="-3.081085"><ele>285</ele><time>2020-08-14T13:53:51Z</time><name>PT6211</name></trkpt>
<trkpt lat="54.620983" lon="-3.081067"><ele>285</ele><time>2020-08-14T13:53:52Z</time><name>PT6212</name></trkpt>
<trkpt lat="54.620982" lon="-3.081051"><ele>284</ele><time>2020-08-14T13:53:53Z</time><name>PT6213</name></trkpt>
<trkpt lat="54.620982" lon="-3.081034"><ele>284</ele><time>2020-08-14T13:53:54Z</time><name>PT6214</name></trkpt>
<trkpt lat="54.620981" lon="-3.081018"><ele>284</ele><time>2020-08-14T13:53:55Z</time><name>PT6215</name></trkpt>
<trkpt lat="54.620975" lon="-3.081001"><ele>284</ele><time>2020-08-14T13:53:56Z</time><name>PT6216</name></trkpt>
<trkpt lat="54.620970" lon="-3.080979"><ele>285</ele><time>2020-08-14T13:53:57Z</time><name>PT6217</name></trkpt>
<trkpt lat="54.620968" lon="-3.080953"><ele>284</ele><time>2020-08-14T13:53:58Z</time><name>PT6218</name></trkpt>
<trkpt lat="54.620965" lon="-3.080935"><ele>284</ele><time>2020-08-14T13:53:59Z</time><name>PT6219</name></trkpt>
<trkpt lat="54.620964" lon="-3.080916"><ele>283</ele><time>2020-08-14T13:54:00Z</time><name>PT6220</name></trkpt>
<trkpt lat="54.620958" lon="-3.080890"><ele>284</ele><time>2020-08-14T13:54:01Z</time><name>PT6221</name></trkpt>
<trkpt lat="54.620953" lon="-3.080867"><ele>284</ele><time>2020-08-14T13:54:02Z</time><name>PT6222</name></trkpt>
<trkpt lat="54.620947" lon="-3.080848"><ele>284</ele><time>2020-08-14T13:54:03Z</time><name>PT6223</name></trkpt>
<trkpt lat="54.620943" lon="-3.080828"><ele>284</ele><time>2020-08-14T13:54:04Z</time><name>PT6224</name></trkpt>
<trkpt lat="54.620940" lon="-3.080809"><ele>283</ele><time>2020-08-14T13:54:05Z</time><name>PT6225</name></trkpt>
<trkpt lat="54.620939" lon="-3.080789"><ele>283</ele><time>2020-08-14T13:54:06Z</time><name>PT6226</name></trkpt>
<trkpt lat="54.620937" lon="-3.080771"><ele>283</ele><time>2020-08-14T13:54:07Z</time><name>PT6227</name></trkpt>
<trkpt lat="54.620935" lon="-3.080754"><ele>283</ele><time>2020-08-14T13:54:08Z</time><name>PT6228</name></trkpt>
<trkpt lat="54.620932" lon="-3.080740"><ele>283</ele><time>2020-08-14T13:54:09Z</time><name>PT6229</name></trkpt>
<trkpt lat="54.620928" lon="-3.080733"><ele>283</ele><time>2020-08-14T13:54:10Z</time><name>PT6230</name></trkpt>
<trkpt lat="54.620924" lon="-3.080727"><ele>283</ele><time>2020-08-14T13:54:11Z</time><name>PT6231</name></trkpt>
<trkpt lat="54.620922" lon="-3.080718"><ele>283</ele><time>2020-08-14T13:54:12Z</time><name>PT6232</name></trkpt>
<trkpt lat="54.620919" lon="-3.080712"><ele>282</ele><time>2020-08-14T13:54:13Z</time><name>PT6233</name></trkpt>
<trkpt lat="54.620917" lon="-3.080711"><ele>282</ele><time>2020-08-14T13:54:14Z</time><name>PT6234</name></trkpt>
<trkpt lat="54.620913" lon="-3.080703"><ele>283</ele><time>2020-08-14T13:54:15Z</time><name>PT6235</name></trkpt>
<trkpt lat="54.620910" lon="-3.080694"><ele>283</ele><time>2020-08-14T13:54:16Z</time><name>PT6236</name></trkpt>
<trkpt lat="54.620910" lon="-3.080699"><ele>283</ele><time>2020-08-14T13:54:17Z</time><name>PT6237</name></trkpt>
<trkpt lat="54.620907" lon="-3.080698"><ele>283</ele><time>2020-08-14T13:54:18Z</time><name>PT6238</name></trkpt>
<trkpt lat="54.620901" lon="-3.080701"><ele>283</ele><time>2020-08-14T13:54:19Z</time><name>PT6239</name></trkpt>
<trkpt lat="54.620892" lon="-3.080703"><ele>282</ele><time>2020-08-14T13:54:20Z</time><name>PT6240</name></trkpt>
<trkpt lat="54.620884" lon="-3.080709"><ele>282</ele><time>2020-08-14T13:54:21Z</time><name>PT6241</name></trkpt>
<trkpt lat="54.620877" lon="-3.080714"><ele>282</ele><time>2020-08-14T13:54:22Z</time><name>PT6242</name></trkpt>
<trkpt lat="54.620868" lon="-3.080718"><ele>281</ele><time>2020-08-14T13:54:23Z</time><name>PT6243</name></trkpt>
<trkpt lat="54.620861" lon="-3.080724"><ele>281</ele><time>2020-08-14T13:54:24Z</time><name>PT6244</name></trkpt>
<trkpt lat="54.620854" lon="-3.080730"><ele>281</ele><time>2020-08-14T13:54:25Z</time><name>PT6245</name></trkpt>
<trkpt lat="54.620846" lon="-3.080738"><ele>281</ele><time>2020-08-14T13:54:26Z</time><name>PT6246</name></trkpt>
<trkpt lat="54.620838" lon="-3.080747"><ele>280</ele><time>2020-08-14T13:54:27Z</time><name>PT6247</name></trkpt>
<trkpt lat="54.620832" lon="-3.080755"><ele>280</ele><time>2020-08-14T13:54:28Z</time><name>PT6248</name></trkpt>
<trkpt lat="54.620826" lon="-3.080763"><ele>280</ele><time>2020-08-14T13:54:29Z</time><name>PT6249</name></trkpt>
<trkpt lat="54.620821" lon="-3.080772"><ele>279</ele><time>2020-08-14T13:54:30Z</time><name>PT6250</name></trkpt>
<trkpt lat="54.620815" lon="-3.080784"><ele>279</ele><time>2020-08-14T13:54:31Z</time><name>PT6251</name></trkpt>
<trkpt lat="54.620806" lon="-3.080792"><ele>279</ele><time>2020-08-14T13:54:32Z</time><name>PT6252</name></trkpt>
<trkpt lat="54.620797" lon="-3.080802"><ele>279</ele><time>2020-08-14T13:54:33Z</time><name>PT6253</name></trkpt>
<trkpt lat="54.620789" lon="-3.080815"><ele>279</ele><time>2020-08-14T13:54:34Z</time><name>PT6254</name></trkpt>
<trkpt lat="54.620783" lon="-3.080829"><ele>278</ele><time>2020-08-14T13:54:35Z</time><name>PT6255</name></trkpt>
<trkpt lat="54.620778" lon="-3.080839"><ele>278</ele><time>2020-08-14T13:54:36Z</time><name>PT6256</name></trkpt>
<trkpt lat="54.620770" lon="-3.080851"><ele>278</ele><time>2020-08-14T13:54:37Z</time><name>PT6257</name></trkpt>
<trkpt lat="54.620764" lon="-3.080866"><ele>277</ele><time>2020-08-14T13:54:38Z</time><name>PT6258</name></trkpt>
<trkpt lat="54.620758" lon="-3.080881"><ele>277</ele><time>2020-08-14T13:54:39Z</time><name>PT6259</name></trkpt>
<trkpt lat="54.620751" lon="-3.080895"><ele>277</ele><time>2020-08-14T13:54:40Z</time><name>PT6260</name></trkpt>
<trkpt lat="54.620744" lon="-3.080909"><ele>277</ele><time>2020-08-14T13:54:41Z</time><name>PT6261</name></trkpt>
<trkpt lat="54.620738" lon="-3.080926"><ele>278</ele><time>2020-08-14T13:54:42Z</time><name>PT6262</name></trkpt>
<trkpt lat="54.620734" lon="-3.080938"><ele>277</ele><time>2020-08-14T13:54:43Z</time><name>PT6263</name></trkpt>
<trkpt lat="54.620731" lon="-3.080953"><ele>277</ele><time>2020-08-14T13:54:44Z</time><name>PT6264</name></trkpt>
<trkpt lat="54.620727" lon="-3.080971"><ele>276</ele><time>2020-08-14T13:54:45Z</time><name>PT6265</name></trkpt>
<trkpt lat="54.620720" lon="-3.080988"><ele>276</ele><time>2020-08-14T13:54:46Z</time><name>PT6266</name></trkpt>
<trkpt lat="54.620714" lon="-3.081004"><ele>276</ele><time>2020-08-14T13:54:47Z</time><name>PT6267</name></trkpt>
<trkpt lat="54.620708" lon="-3.081022"><ele>275</ele><time>2020-08-14T13:54:48Z</time><name>PT6268</name></trkpt>
<trkpt lat="54.620701" lon="-3.081038"><ele>275</ele><time>2020-08-14T13:54:49Z</time><name>PT6269</name></trkpt>
<trkpt lat="54.620696" lon="-3.081059"><ele>274</ele><time>2020-08-14T13:54:50Z</time><name>PT6270</name></trkpt>
<trkpt lat="54.620687" lon="-3.081074"><ele>274</ele><time>2020-08-14T13:54:51Z</time><name>PT6271</name></trkpt>
<trkpt lat="54.620684" lon="-3.081099"><ele>273</ele><time>2020-08-14T13:54:52Z</time><name>PT6272</name></trkpt>
<trkpt lat="54.620681" lon="-3.081112"><ele>272</ele><time>2020-08-14T13:54:53Z</time><name>PT6273</name></trkpt>
<trkpt lat="54.620675" lon="-3.081128"><ele>272</ele><time>2020-08-14T13:54:54Z</time><name>PT6274</name></trkpt>
<trkpt lat="54.620669" lon="-3.081148"><ele>271</ele><time>2020-08-14T13:54:55Z</time><name>PT6275</name></trkpt>
<trkpt lat="54.620665" lon="-3.081161"><ele>271</ele><time>2020-08-14T13:54:56Z</time><name>PT6276</name></trkpt>
<trkpt lat="54.620661" lon="-3.081174"><ele>271</ele><time>2020-08-14T13:54:57Z</time><name>PT6277</name></trkpt>
<trkpt lat="54.620659" lon="-3.081188"><ele>270</ele><time>2020-08-14T13:54:58Z</time><name>PT6278</name></trkpt>
<trkpt lat="54.620657" lon="-3.081203"><ele>270</ele><time>2020-08-14T13:54:59Z</time><name>PT6279</name></trkpt>
<trkpt lat="54.620654" lon="-3.081220"><ele>270</ele><time>2020-08-14T13:55:00Z</time><name>PT6280</name></trkpt>
<trkpt lat="54.620651" lon="-3.081235"><ele>270</ele><time>2020-08-14T13:55:01Z</time><name>PT6281</name></trkpt>
<trkpt lat="54.620647" lon="-3.081251"><ele>269</ele><time>2020-08-14T13:55:02Z</time><name>PT6282</name></trkpt>
<trkpt lat="54.620644" lon="-3.081268"><ele>269</ele><time>2020-08-14T13:55:03Z</time><name>PT6283</name></trkpt>
<trkpt lat="54.620644" lon="-3.081280"><ele>268</ele><time>2020-08-14T13:55:04Z</time><name>PT6284</name></trkpt>
<trkpt lat="54.620638" lon="-3.081295"><ele>269</ele><time>2020-08-14T13:55:05Z</time><name>PT6285</name></trkpt>
<trkpt lat="54.620630" lon="-3.081309"><ele>268</ele><time>2020-08-14T13:55:06Z</time><name>PT6286</name></trkpt>
<trkpt lat="54.620622" lon="-3.081324"><ele>268</ele><time>2020-08-14T13:55:07Z</time><name>PT6287</name></trkpt>
<trkpt lat="54.620614" lon="-3.081343"><ele>268</ele><time>2020-08-14T13:55:08Z</time><name>PT6288</name></trkpt>
<trkpt lat="54.620607" lon="-3.081357"><ele>268</ele><time>2020-08-14T13:55:09Z</time><name>PT6289</name></trkpt>
<trkpt lat="54.620600" lon="-3.081367"><ele>268</ele><time>2020-08-14T13:55:10Z</time><name>PT6290</name></trkpt>
<trkpt lat="54.620591" lon="-3.081378"><ele>267</ele><time>2020-08-14T13:55:11Z</time><name>PT6291</name></trkpt>
<trkpt lat="54.620581" lon="-3.081390"><ele>267</ele><time>2020-08-14T13:55:12Z</time><name>PT6292</name></trkpt>
<trkpt lat="54.620569" lon="-3.081398"><ele>268</ele><time>2020-08-14T13:55:13Z</time><name>PT6293</name></trkpt>
<trkpt lat="54.620554" lon="-3.081403"><ele>268</ele><time>2020-08-14T13:55:14Z</time><name>PT6294</name></trkpt>
<trkpt lat="54.620543" lon="-3.081404"><ele>267</ele><time>2020-08-14T13:55:15Z</time><name>PT6295</name></trkpt>
<trkpt lat="54.620533" lon="-3.081404"><ele>267</ele><time>2020-08-14T13:55:16Z</time><name>PT6296</name></trkpt>
<trkpt lat="54.620525" lon="-3.081399"><ele>267</ele><time>2020-08-14T13:55:17Z</time><name>PT6297</name></trkpt>
<trkpt lat="54.620517" lon="-3.081396"><ele>267</ele><time>2020-08-14T13:55:18Z</time><name>PT6298</name></trkpt>
<trkpt lat="54.620509" lon="-3.081391"><ele>267</ele><time>2020-08-14T13:55:19Z</time><name>PT6299</name></trkpt>
<trkpt lat="54.620501" lon="-3.081391"><ele>267</ele><time>2020-08-14T13:55:20Z</time><name>PT6300</name></trkpt>
<trkpt lat="54.620493" lon="-3.081397"><ele>267</ele><time>2020-08-14T13:55:21Z</time><name>PT6301</name></trkpt>
<trkpt lat="54.620490" lon="-3.081402"><ele>267</ele><time>2020-08-14T13:55:22Z</time><name>PT6302</name></trkpt>
<trkpt lat="54.620484" lon="-3.081412"><ele>266</ele><time>2020-08-14T13:55:23Z</time><name>PT6303</name></trkpt>
<trkpt lat="54.620478" lon="-3.081428"><ele>266</ele><time>2020-08-14T13:55:24Z</time><name>PT6304</name></trkpt>
<trkpt lat="54.620479" lon="-3.081444"><ele>266</ele><time>2020-08-14T13:55:25Z</time><name>PT6305</name></trkpt>
<trkpt lat="54.620480" lon="-3.081467"><ele>266</ele><time>2020-08-14T13:55:26Z</time><name>PT6306</name></trkpt>
<trkpt lat="54.620483" lon="-3.081487"><ele>265</ele><time>2020-08-14T13:55:27Z</time><name>PT6307</name></trkpt>
<trkpt lat="54.620487" lon="-3.081507"><ele>266</ele><time>2020-08-14T13:55:28Z</time><name>PT6308</name></trkpt>
<trkpt lat="54.620490" lon="-3.081527"><ele>265</ele><time>2020-08-14T13:55:29Z</time><name>PT6309</name></trkpt>
<trkpt lat="54.620493" lon="-3.081545"><ele>265</ele><time>2020-08-14T13:55:30Z</time><name>PT6310</name></trkpt>
<trkpt lat="54.620495" lon="-3.081567"><ele>265</ele><time>2020-08-14T13:55:31Z</time><name>PT6311</name></trkpt>
<trkpt lat="54.620498" lon="-3.081586"><ele>265</ele><time>2020-08-14T13:55:32Z</time><name>PT6312</name></trkpt>
<trkpt lat="54.620501" lon="-3.081602"><ele>264</ele><time>2020-08-14T13:55:33Z</time><name>PT6313</name></trkpt>
<trkpt lat="54.620502" lon="-3.081626"><ele>265</ele><time>2020-08-14T13:55:34Z</time><name>PT6314</name></trkpt>
<trkpt lat="54.620505" lon="-3.081648"><ele>265</ele><time>2020-08-14T13:55:35Z</time><name>PT6315</name></trkpt>
<trkpt lat="54.620505" lon="-3.081666"><ele>264</ele><time>2020-08-14T13:55:36Z</time><name>PT6316</name></trkpt>
<trkpt lat="54.620504" lon="-3.081691"><ele>264</ele><time>2020-08-14T13:55:37Z</time><name>PT6317</name></trkpt>
<trkpt lat="54.620506" lon="-3.081722"><ele>263</ele><time>2020-08-14T13:55:38Z</time><name>PT6318</name></trkpt>
<trkpt lat="54.620513" lon="-3.081743"><ele>263</ele><time>2020-08-14T13:55:39Z</time><name>PT6319</name></trkpt>
<trkpt lat="54.620518" lon="-3.081753"><ele>263</ele><time>2020-08-14T13:55:40Z</time><name>PT6320</name></trkpt>
<trkpt lat="54.620522" lon="-3.081762"><ele>263</ele><time>2020-08-14T13:55:41Z</time><name>PT6321</name></trkpt>
<trkpt lat="54.620524" lon="-3.081776"><ele>264</ele><time>2020-08-14T13:55:42Z</time><name>PT6322</name></trkpt>
<trkpt lat="54.620523" lon="-3.081809"><ele>264</ele><time>2020-08-14T13:55:43Z</time><name>PT6323</name></trkpt>
<trkpt lat="54.620524" lon="-3.081846"><ele>264</ele><time>2020-08-14T13:55:44Z</time><name>PT6324</name></trkpt>
<trkpt lat="54.620523" lon="-3.081888"><ele>265</ele><time>2020-08-14T13:55:45Z</time><name>PT6325</name></trkpt>
<trkpt lat="54.620519" lon="-3.081919"><ele>265</ele><time>2020-08-14T13:55:46Z</time><name>PT6326</name></trkpt>
<trkpt lat="54.620509" lon="-3.081945"><ele>265</ele><time>2020-08-14T13:55:47Z</time><name>PT6327</name></trkpt>
<trkpt lat="54.620506" lon="-3.081965"><ele>265</ele><time>2020-08-14T13:55:48Z</time><name>PT6328</name></trkpt>
<trkpt lat="54.620504" lon="-3.081987"><ele>265</ele><time>2020-08-14T13:55:49Z</time><name>PT6329</name></trkpt>
<trkpt lat="54.620503" lon="-3.082011"><ele>266</ele><time>2020-08-14T13:55:50Z</time><name>PT6330</name></trkpt>
<trkpt lat="54.620499" lon="-3.082025"><ele>265</ele><time>2020-08-14T13:55:51Z</time><name>PT6331</name></trkpt>
<trkpt lat="54.620495" lon="-3.082052"><ele>265</ele><time>2020-08-14T13:55:52Z</time><name>PT6332</name></trkpt>
<trkpt lat="54.620492" lon="-3.082087"><ele>265</ele><time>2020-08-14T13:55:53Z</time><name>PT6333</name></trkpt>
<trkpt lat="54.620490" lon="-3.082113"><ele>265</ele><time>2020-08-14T13:55:54Z</time><name>PT6334</name></trkpt>
<trkpt lat="54.620488" lon="-3.082131"><ele>264</ele><time>2020-08-14T13:55:55Z</time><name>PT6335</name></trkpt>
<trkpt lat="54.620479" lon="-3.082193"><ele>264</ele><time>2020-08-14T13:55:59Z</time><name>PT6336</name></trkpt>
<trkpt lat="54.620467" lon="-3.082296"><ele>264</ele><time>2020-08-14T13:56:02Z</time><name>PT6337</name></trkpt>
<trkpt lat="54.620466" lon="-3.082350"><ele>263</ele><time>2020-08-14T13:56:06Z</time><name>PT6338</name></trkpt>
<trkpt lat="54.620472" lon="-3.082384"><ele>262</ele><time>2020-08-14T13:56:09Z</time><name>PT6339</name></trkpt>
<trkpt lat="54.620479" lon="-3.082345"><ele>263</ele><time>2020-08-14T13:56:13Z</time><name>PT6340</name></trkpt>
<trkpt lat="54.620479" lon="-3.082424"><ele>263</ele><time>2020-08-14T13:56:17Z</time><name>PT6341</name></trkpt>
<trkpt lat="54.620480" lon="-3.082444"><ele>263</ele><time>2020-08-14T13:56:18Z</time><name>PT6342</name></trkpt>
<trkpt lat="54.620481" lon="-3.082468"><ele>263</ele><time>2020-08-14T13:56:19Z</time><name>PT6343</name></trkpt>
<trkpt lat="54.620481" lon="-3.082491"><ele>263</ele><time>2020-08-14T13:56:20Z</time><name>PT6344</name></trkpt>
<trkpt lat="54.620484" lon="-3.082509"><ele>263</ele><time>2020-08-14T13:56:21Z</time><name>PT6345</name></trkpt>
<trkpt lat="54.620481" lon="-3.082529"><ele>263</ele><time>2020-08-14T13:56:22Z</time><name>PT6346</name></trkpt>
<trkpt lat="54.620478" lon="-3.082552"><ele>263</ele><time>2020-08-14T13:56:23Z</time><name>PT6347</name></trkpt>
<trkpt lat="54.620476" lon="-3.082569"><ele>262</ele><time>2020-08-14T13:56:24Z</time><name>PT6348</name></trkpt>
<trkpt lat="54.620472" lon="-3.082585"><ele>263</ele><time>2020-08-14T13:56:25Z</time><name>PT6349</name></trkpt>
<trkpt lat="54.620467" lon="-3.082604"><ele>262</ele><time>2020-08-14T13:56:26Z</time><name>PT6350</name></trkpt>
<trkpt lat="54.620459" lon="-3.082623"><ele>263</ele><time>2020-08-14T13:56:27Z</time><name>PT6351</name></trkpt>
<trkpt lat="54.620454" lon="-3.082644"><ele>263</ele><time>2020-08-14T13:56:28Z</time><name>PT6352</name></trkpt>
<trkpt lat="54.620448" lon="-3.082664"><ele>263</ele><time>2020-08-14T13:56:29Z</time><name>PT6353</name></trkpt>
<trkpt lat="54.620442" lon="-3.082684"><ele>263</ele><time>2020-08-14T13:56:30Z</time><name>PT6354</name></trkpt>
<trkpt lat="54.620435" lon="-3.082687"><ele>263</ele><time>2020-08-14T13:56:31Z</time><name>PT6355</name></trkpt>
<trkpt lat="54.620433" lon="-3.082690"><ele>263</ele><time>2020-08-14T13:56:32Z</time><name>PT6356</name></trkpt>
<trkpt lat="54.620428" lon="-3.082700"><ele>263</ele><time>2020-08-14T13:56:33Z</time><name>PT6357</name></trkpt>
<trkpt lat="54.620425" lon="-3.082722"><ele>263</ele><time>2020-08-14T13:56:34Z</time><name>PT6358</name></trkpt>
<trkpt lat="54.620421" lon="-3.082748"><ele>263</ele><time>2020-08-14T13:56:35Z</time><name>PT6359</name></trkpt>
<trkpt lat="54.620419" lon="-3.082784"><ele>263</ele><time>2020-08-14T13:56:36Z</time><name>PT6360</name></trkpt>
<trkpt lat="54.620420" lon="-3.082807"><ele>263</ele><time>2020-08-14T13:56:37Z</time><name>PT6361</name></trkpt>
<trkpt lat="54.620418" lon="-3.082824"><ele>263</ele><time>2020-08-14T13:56:38Z</time><name>PT6362</name></trkpt>
<trkpt lat="54.620418" lon="-3.082832"><ele>263</ele><time>2020-08-14T13:56:39Z</time><name>PT6363</name></trkpt>
<trkpt lat="54.620417" lon="-3.082837"><ele>263</ele><time>2020-08-14T13:56:40Z</time><name>PT6364</name></trkpt>
<trkpt lat="54.620415" lon="-3.082846"><ele>263</ele><time>2020-08-14T13:56:41Z</time><name>PT6365</name></trkpt>
<trkpt lat="54.620406" lon="-3.082854"><ele>259</ele><time>2020-08-14T13:56:42Z</time><name>PT6366</name></trkpt>
<trkpt lat="54.620405" lon="-3.082867"><ele>257</ele><time>2020-08-14T13:56:43Z</time><name>PT6367</name></trkpt>
<trkpt lat="54.620404" lon="-3.082886"><ele>257</ele><time>2020-08-14T13:56:44Z</time><name>PT6368</name></trkpt>
<trkpt lat="54.620402" lon="-3.082905"><ele>257</ele><time>2020-08-14T13:56:45Z</time><name>PT6369</name></trkpt>
<trkpt lat="54.620401" lon="-3.082913"><ele>256</ele><time>2020-08-14T13:56:46Z</time><name>PT6370</name></trkpt>
<trkpt lat="54.620397" lon="-3.082926"><ele>255</ele><time>2020-08-14T13:56:47Z</time><name>PT6371</name></trkpt>
<trkpt lat="54.620392" lon="-3.082934"><ele>255</ele><time>2020-08-14T13:56:48Z</time><name>PT6372</name></trkpt>
<trkpt lat="54.620396" lon="-3.082957"><ele>255</ele><time>2020-08-14T13:56:49Z</time><name>PT6373</name></trkpt>
<trkpt lat="54.620399" lon="-3.082982"><ele>257</ele><time>2020-08-14T13:56:50Z</time><name>PT6374</name></trkpt>
<trkpt lat="54.620402" lon="-3.083003"><ele>257</ele><time>2020-08-14T13:56:51Z</time><name>PT6375</name></trkpt>
<trkpt lat="54.620396" lon="-3.083019"><ele>257</ele><time>2020-08-14T13:56:52Z</time><name>PT6376</name></trkpt>
<trkpt lat="54.620394" lon="-3.083035"><ele>257</ele><time>2020-08-14T13:56:53Z</time><name>PT6377</name></trkpt>
<trkpt lat="54.620392" lon="-3.083055"><ele>257</ele><time>2020-08-14T13:56:54Z</time><name>PT6378</name></trkpt>
<trkpt lat="54.620387" lon="-3.083086"><ele>258</ele><time>2020-08-14T13:56:55Z</time><name>PT6379</name></trkpt>
<trkpt lat="54.620382" lon="-3.083114"><ele>259</ele><time>2020-08-14T13:56:56Z</time><name>PT6380</name></trkpt>
<trkpt lat="54.620377" lon="-3.083150"><ele>258</ele><time>2020-08-14T13:56:57Z</time><name>PT6381</name></trkpt>
<trkpt lat="54.620375" lon="-3.083179"><ele>259</ele><time>2020-08-14T13:56:58Z</time><name>PT6382</name></trkpt>
<trkpt lat="54.620371" lon="-3.083202"><ele>259</ele><time>2020-08-14T13:56:59Z</time><name>PT6383</name></trkpt>
<trkpt lat="54.620369" lon="-3.083234"><ele>258</ele><time>2020-08-14T13:57:00Z</time><name>PT6384</name></trkpt>
<trkpt lat="54.620370" lon="-3.083258"><ele>258</ele><time>2020-08-14T13:57:01Z</time><name>PT6385</name></trkpt>
<trkpt lat="54.620370" lon="-3.083275"><ele>258</ele><time>2020-08-14T13:57:02Z</time><name>PT6386</name></trkpt>
<trkpt lat="54.620370" lon="-3.083293"><ele>257</ele><time>2020-08-14T13:57:03Z</time><name>PT6387</name></trkpt>
<trkpt lat="54.620368" lon="-3.083314"><ele>257</ele><time>2020-08-14T13:57:04Z</time><name>PT6388</name></trkpt>
<trkpt lat="54.620366" lon="-3.083333"><ele>257</ele><time>2020-08-14T13:57:05Z</time><name>PT6389</name></trkpt>
<trkpt lat="54.620363" lon="-3.083350"><ele>257</ele><time>2020-08-14T13:57:06Z</time><name>PT6390</name></trkpt>
<trkpt lat="54.620363" lon="-3.083366"><ele>257</ele><time>2020-08-14T13:57:07Z</time><name>PT6391</name></trkpt>
<trkpt lat="54.620363" lon="-3.083381"><ele>256</ele><time>2020-08-14T13:57:08Z</time><name>PT6392</name></trkpt>
<trkpt lat="54.620362" lon="-3.083400"><ele>256</ele><time>2020-08-14T13:57:09Z</time><name>PT6393</name></trkpt>
<trkpt lat="54.620361" lon="-3.083420"><ele>256</ele><time>2020-08-14T13:57:10Z</time><name>PT6394</name></trkpt>
<trkpt lat="54.620358" lon="-3.083442"><ele>256</ele><time>2020-08-14T13:57:11Z</time><name>PT6395</name></trkpt>
<trkpt lat="54.620356" lon="-3.083459"><ele>256</ele><time>2020-08-14T13:57:12Z</time><name>PT6396</name></trkpt>
<trkpt lat="54.620353" lon="-3.083470"><ele>256</ele><time>2020-08-14T13:57:13Z</time><name>PT6397</name></trkpt>
<trkpt lat="54.620348" lon="-3.083487"><ele>256</ele><time>2020-08-14T13:57:14Z</time><name>PT6398</name></trkpt>
<trkpt lat="54.620344" lon="-3.083505"><ele>257</ele><time>2020-08-14T13:57:15Z</time><name>PT6399</name></trkpt>
<trkpt lat="54.620343" lon="-3.083519"><ele>258</ele><time>2020-08-14T13:57:16Z</time><name>PT6400</name></trkpt>
<trkpt lat="54.620340" lon="-3.083535"><ele>258</ele><time>2020-08-14T13:57:17Z</time><name>PT6401</name></trkpt>
<trkpt lat="54.620340" lon="-3.083552"><ele>258</ele><time>2020-08-14T13:57:18Z</time><name>PT6402</name></trkpt>
<trkpt lat="54.620344" lon="-3.083561"><ele>257</ele><time>2020-08-14T13:57:19Z</time><name>PT6403</name></trkpt>
<trkpt lat="54.620340" lon="-3.083581"><ele>257</ele><time>2020-08-14T13:57:20Z</time><name>PT6404</name></trkpt>
<trkpt lat="54.620337" lon="-3.083598"><ele>257</ele><time>2020-08-14T13:57:21Z</time><name>PT6405</name></trkpt>
<trkpt lat="54.620336" lon="-3.083613"><ele>257</ele><time>2020-08-14T13:57:22Z</time><name>PT6406</name></trkpt>
<trkpt lat="54.620332" lon="-3.083621"><ele>255</ele><time>2020-08-14T13:57:23Z</time><name>PT6407</name></trkpt>
<trkpt lat="54.620330" lon="-3.083633"><ele>255</ele><time>2020-08-14T13:57:24Z</time><name>PT6408</name></trkpt>
<trkpt lat="54.620327" lon="-3.083646"><ele>255</ele><time>2020-08-14T13:57:25Z</time><name>PT6409</name></trkpt>
<trkpt lat="54.620328" lon="-3.083663"><ele>255</ele><time>2020-08-14T13:57:26Z</time><name>PT6410</name></trkpt>
<trkpt lat="54.620326" lon="-3.083675"><ele>254</ele><time>2020-08-14T13:57:27Z</time><name>PT6411</name></trkpt>
<trkpt lat="54.620327" lon="-3.083680"><ele>253</ele><time>2020-08-14T13:57:28Z</time><name>PT6412</name></trkpt>
<trkpt lat="54.620326" lon="-3.083682"><ele>252</ele><time>2020-08-14T13:57:29Z</time><name>PT6413</name></trkpt>
<trkpt lat="54.620321" lon="-3.083688"><ele>252</ele><time>2020-08-14T13:57:30Z</time><name>PT6414</name></trkpt>
<trkpt lat="54.620321" lon="-3.083697"><ele>252</ele><time>2020-08-14T13:57:31Z</time><name>PT6415</name></trkpt>
<trkpt lat="54.620323" lon="-3.083710"><ele>252</ele><time>2020-08-14T13:57:32Z</time><name>PT6416</name></trkpt>
<trkpt lat="54.620320" lon="-3.083728"><ele>252</ele><time>2020-08-14T13:57:33Z</time><name>PT6417</name></trkpt>
<trkpt lat="54.620322" lon="-3.083744"><ele>253</ele><time>2020-08-14T13:57:34Z</time><name>PT6418</name></trkpt>
<trkpt lat="54.620321" lon="-3.083747"><ele>253</ele><time>2020-08-14T13:57:35Z</time><name>PT6419</name></trkpt>
<trkpt lat="54.620323" lon="-3.083746"><ele>253</ele><time>2020-08-14T13:57:36Z</time><name>PT6420</name></trkpt>
<trkpt lat="54.620325" lon="-3.083751"><ele>253</ele><time>2020-08-14T13:57:37Z</time><name>PT6421</name></trkpt>
<trkpt lat="54.620334" lon="-3.083777"><ele>253</ele><time>2020-08-14T13:57:38Z</time><name>PT6422</name></trkpt>
<trkpt lat="54.620325" lon="-3.083799"><ele>254</ele><time>2020-08-14T13:57:39Z</time><name>PT6423</name></trkpt>
<trkpt lat="54.620318" lon="-3.083820"><ele>253</ele><time>2020-08-14T13:57:40Z</time><name>PT6424</name></trkpt>
<trkpt lat="54.620311" lon="-3.083842"><ele>254</ele><time>2020-08-14T13:57:41Z</time><name>PT6425</name></trkpt>
<trkpt lat="54.620303" lon="-3.083864"><ele>253</ele><time>2020-08-14T13:57:42Z</time><name>PT6426</name></trkpt>
<trkpt lat="54.620293" lon="-3.083881"><ele>253</ele><time>2020-08-14T13:57:43Z</time><name>PT6427</name></trkpt>
<trkpt lat="54.620284" lon="-3.083900"><ele>252</ele><time>2020-08-14T13:57:44Z</time><name>PT6428</name></trkpt>
<trkpt lat="54.620277" lon="-3.083918"><ele>251</ele><time>2020-08-14T13:57:45Z</time><name>PT6429</name></trkpt>
<trkpt lat="54.620273" lon="-3.083926"><ele>251</ele><time>2020-08-14T13:57:46Z</time><name>PT6430</name></trkpt>
<trkpt lat="54.620268" lon="-3.083937"><ele>250</ele><time>2020-08-14T13:57:47Z</time><name>PT6431</name></trkpt>
<trkpt lat="54.620261" lon="-3.083948"><ele>250</ele><time>2020-08-14T13:57:48Z</time><name>PT6432</name></trkpt>
<trkpt lat="54.620254" lon="-3.083957"><ele>249</ele><time>2020-08-14T13:57:49Z</time><name>PT6433</name></trkpt>
<trkpt lat="54.620246" lon="-3.083967"><ele>249</ele><time>2020-08-14T13:57:50Z</time><name>PT6434</name></trkpt>
<trkpt lat="54.620236" lon="-3.083980"><ele>249</ele><time>2020-08-14T13:57:51Z</time><name>PT6435</name></trkpt>
<trkpt lat="54.620227" lon="-3.083995"><ele>249</ele><time>2020-08-14T13:57:52Z</time><name>PT6436</name></trkpt>
<trkpt lat="54.620212" lon="-3.084013"><ele>248</ele><time>2020-08-14T13:57:53Z</time><name>PT6437</name></trkpt>
<trkpt lat="54.620200" lon="-3.084025"><ele>247</ele><time>2020-08-14T13:57:54Z</time><name>PT6438</name></trkpt>
<trkpt lat="54.620196" lon="-3.084040"><ele>248</ele><time>2020-08-14T13:57:55Z</time><name>PT6439</name></trkpt>
<trkpt lat="54.620192" lon="-3.084044"><ele>248</ele><time>2020-08-14T13:57:56Z</time><name>PT6440</name></trkpt>
<trkpt lat="54.620179" lon="-3.084063"><ele>248</ele><time>2020-08-14T13:57:57Z</time><name>PT6441</name></trkpt>
<trkpt lat="54.620168" lon="-3.084079"><ele>248</ele><time>2020-08-14T13:57:58Z</time><name>PT6442</name></trkpt>
<trkpt lat="54.620168" lon="-3.084083"><ele>248</ele><time>2020-08-14T13:57:59Z</time><name>PT6443</name></trkpt>
<trkpt lat="54.620162" lon="-3.084092"><ele>248</ele><time>2020-08-14T13:58:00Z</time><name>PT6444</name></trkpt>
<trkpt lat="54.620152" lon="-3.084109"><ele>248</ele><time>2020-08-14T13:58:01Z</time><name>PT6445</name></trkpt>
<trkpt lat="54.620146" lon="-3.084123"><ele>247</ele><time>2020-08-14T13:58:02Z</time><name>PT6446</name></trkpt>
<trkpt lat="54.620134" lon="-3.084141"><ele>247</ele><time>2020-08-14T13:58:03Z</time><name>PT6447</name></trkpt>
<trkpt lat="54.620120" lon="-3.084157"><ele>247</ele><time>2020-08-14T13:58:04Z</time><name>PT6448</name></trkpt>
<trkpt lat="54.620106" lon="-3.084174"><ele>247</ele><time>2020-08-14T13:58:05Z</time><name>PT6449</name></trkpt>
<trkpt lat="54.620095" lon="-3.084190"><ele>247</ele><time>2020-08-14T13:58:06Z</time><name>PT6450</name></trkpt>
<trkpt lat="54.620087" lon="-3.084199"><ele>248</ele><time>2020-08-14T13:58:07Z</time><name>PT6451</name></trkpt>
<trkpt lat="54.620082" lon="-3.084208"><ele>248</ele><time>2020-08-14T13:58:08Z</time><name>PT6452</name></trkpt>
<trkpt lat="54.620079" lon="-3.084213"><ele>248</ele><time>2020-08-14T13:58:09Z</time><name>PT6453</name></trkpt>
<trkpt lat="54.620075" lon="-3.084216"><ele>247</ele><time>2020-08-14T13:58:10Z</time><name>PT6454</name></trkpt>
<trkpt lat="54.620076" lon="-3.084214"><ele>247</ele><time>2020-08-14T13:58:11Z</time><name>PT6455</name></trkpt>
<trkpt lat="54.620075" lon="-3.084221"><ele>246</ele><time>2020-08-14T13:58:12Z</time><name>PT6456</name></trkpt>
<trkpt lat="54.620070" lon="-3.084233"><ele>246</ele><time>2020-08-14T13:58:13Z</time><name>PT6457</name></trkpt>
<trkpt lat="54.620061" lon="-3.084246"><ele>246</ele><time>2020-08-14T13:58:14Z</time><name>PT6458</name></trkpt>
<trkpt lat="54.620056" lon="-3.084264"><ele>246</ele><time>2020-08-14T13:58:15Z</time><name>PT6459</name></trkpt>
<trkpt lat="54.620051" lon="-3.084283"><ele>246</ele><time>2020-08-14T13:58:16Z</time><name>PT6460</name></trkpt>
<trkpt lat="54.620049" lon="-3.084293"><ele>246</ele><time>2020-08-14T13:58:17Z</time><name>PT6461</name></trkpt>
<trkpt lat="54.620049" lon="-3.084297"><ele>246</ele><time>2020-08-14T13:58:18Z</time><name>PT6462</name></trkpt>
<trkpt lat="54.620051" lon="-3.084300"><ele>245</ele><time>2020-08-14T13:58:19Z</time><name>PT6463</name></trkpt>
<trkpt lat="54.620047" lon="-3.084297"><ele>244</ele><time>2020-08-14T13:58:20Z</time><name>PT6464</name></trkpt>
<trkpt lat="54.620037" lon="-3.084304"><ele>243</ele><time>2020-08-14T13:58:21Z</time><name>PT6465</name></trkpt>
<trkpt lat="54.620027" lon="-3.084317"><ele>243</ele><time>2020-08-14T13:58:22Z</time><name>PT6466</name></trkpt>
<trkpt lat="54.620020" lon="-3.084327"><ele>242</ele><time>2020-08-14T13:58:23Z</time><name>PT6467</name></trkpt>
<trkpt lat="54.620018" lon="-3.084335"><ele>242</ele><time>2020-08-14T13:58:24Z</time><name>PT6468</name></trkpt>
<trkpt lat="54.620013" lon="-3.084343"><ele>241</ele><time>2020-08-14T13:58:25Z</time><name>PT6469</name></trkpt>
<trkpt lat="54.620008" lon="-3.084363"><ele>240</ele><time>2020-08-14T13:58:26Z</time><name>PT6470</name></trkpt>
<trkpt lat="54.619996" lon="-3.084386"><ele>240</ele><time>2020-08-14T13:58:27Z</time><name>PT6471</name></trkpt>
<trkpt lat="54.619988" lon="-3.084405"><ele>240</ele><time>2020-08-14T13:58:28Z</time><name>PT6472</name></trkpt>
<trkpt lat="54.619983" lon="-3.084418"><ele>240</ele><time>2020-08-14T13:58:29Z</time><name>PT6473</name></trkpt>
<trkpt lat="54.619978" lon="-3.084428"><ele>239</ele><time>2020-08-14T13:58:30Z</time><name>PT6474</name></trkpt>
<trkpt lat="54.619977" lon="-3.084421"><ele>238</ele><time>2020-08-14T13:58:31Z</time><name>PT6475</name></trkpt>
<trkpt lat="54.619974" lon="-3.084419"><ele>238</ele><time>2020-08-14T13:58:32Z</time><name>PT6476</name></trkpt>
<trkpt lat="54.619969" lon="-3.084432"><ele>238</ele><time>2020-08-14T13:58:33Z</time><name>PT6477</name></trkpt>
<trkpt lat="54.619965" lon="-3.084444"><ele>238</ele><time>2020-08-14T13:58:34Z</time><name>PT6478</name></trkpt>
<trkpt lat="54.619961" lon="-3.084448"><ele>238</ele><time>2020-08-14T13:58:35Z</time><name>PT6479</name></trkpt>
<trkpt lat="54.619951" lon="-3.084445"><ele>238</ele><time>2020-08-14T13:58:36Z</time><name>PT6480</name></trkpt>
<trkpt lat="54.619940" lon="-3.084447"><ele>238</ele><time>2020-08-14T13:58:37Z</time><name>PT6481</name></trkpt>
<trkpt lat="54.619927" lon="-3.084454"><ele>237</ele><time>2020-08-14T13:58:39Z</time><name>PT6482</name></trkpt>
<trkpt lat="54.619923" lon="-3.084450"><ele>237</ele><time>2020-08-14T13:58:40Z</time><name>PT6483</name></trkpt>
<trkpt lat="54.619921" lon="-3.084450"><ele>237</ele><time>2020-08-14T13:58:41Z</time><name>PT6484</name></trkpt>
<trkpt lat="54.619913" lon="-3.084466"><ele>237</ele><time>2020-08-14T13:58:42Z</time><name>PT6485</name></trkpt>
<trkpt lat="54.619903" lon="-3.084473"><ele>236</ele><time>2020-08-14T13:58:43Z</time><name>PT6486</name></trkpt>
<trkpt lat="54.619895" lon="-3.084473"><ele>236</ele><time>2020-08-14T13:58:44Z</time><name>PT6487</name></trkpt>
<trkpt lat="54.619890" lon="-3.084483"><ele>236</ele><time>2020-08-14T13:58:45Z</time><name>PT6488</name></trkpt>
<trkpt lat="54.619889" lon="-3.084494"><ele>236</ele><time>2020-08-14T13:58:46Z</time><name>PT6489</name></trkpt>
<trkpt lat="54.619890" lon="-3.084504"><ele>236</ele><time>2020-08-14T13:58:47Z</time><name>PT6490</name></trkpt>
<trkpt lat="54.619893" lon="-3.084509"><ele>236</ele><time>2020-08-14T13:58:48Z</time><name>PT6491</name></trkpt>
<trkpt lat="54.619892" lon="-3.084515"><ele>235</ele><time>2020-08-14T13:58:49Z</time><name>PT6492</name></trkpt>
<trkpt lat="54.619892" lon="-3.084524"><ele>235</ele><time>2020-08-14T13:58:50Z</time><name>PT6493</name></trkpt>
<trkpt lat="54.619885" lon="-3.084531"><ele>234</ele><time>2020-08-14T13:58:51Z</time><name>PT6494</name></trkpt>
<trkpt lat="54.619877" lon="-3.084541"><ele>233</ele><time>2020-08-14T13:58:52Z</time><name>PT6495</name></trkpt>
<trkpt lat="54.619872" lon="-3.084551"><ele>233</ele><time>2020-08-14T13:58:53Z</time><name>PT6496</name></trkpt>
<trkpt lat="54.619863" lon="-3.084557"><ele>233</ele><time>2020-08-14T13:58:54Z</time><name>PT6497</name></trkpt>
<trkpt lat="54.619852" lon="-3.084560"><ele>233</ele><time>2020-08-14T13:58:55Z</time><name>PT6498</name></trkpt>
<trkpt lat="54.619843" lon="-3.084569"><ele>233</ele><time>2020-08-14T13:58:56Z</time><name>PT6499</name></trkpt>
<trkpt lat="54.619837" lon="-3.084576"><ele>233</ele><time>2020-08-14T13:58:57Z</time><name>PT6500</name></trkpt>
<trkpt lat="54.619833" lon="-3.084580"><ele>233</ele><time>2020-08-14T13:58:58Z</time><name>PT6501</name></trkpt>
<trkpt lat="54.619829" lon="-3.084580"><ele>232</ele><time>2020-08-14T13:58:59Z</time><name>PT6502</name></trkpt>
<trkpt lat="54.619825" lon="-3.084587"><ele>232</ele><time>2020-08-14T13:59:00Z</time><name>PT6503</name></trkpt>
<trkpt lat="54.619816" lon="-3.084598"><ele>232</ele><time>2020-08-14T13:59:01Z</time><name>PT6504</name></trkpt>
<trkpt lat="54.619807" lon="-3.084612"><ele>232</ele><time>2020-08-14T13:59:02Z</time><name>PT6505</name></trkpt>
<trkpt lat="54.619798" lon="-3.084634"><ele>231</ele><time>2020-08-14T13:59:03Z</time><name>PT6506</name></trkpt>
<trkpt lat="54.619790" lon="-3.084650"><ele>231</ele><time>2020-08-14T13:59:04Z</time><name>PT6507</name></trkpt>
<trkpt lat="54.619787" lon="-3.084656"><ele>231</ele><time>2020-08-14T13:59:05Z</time><name>PT6508</name></trkpt>
<trkpt lat="54.619788" lon="-3.084661"><ele>231</ele><time>2020-08-14T13:59:06Z</time><name>PT6509</name></trkpt>
<trkpt lat="54.619788" lon="-3.084666"><ele>231</ele><time>2020-08-14T13:59:07Z</time><name>PT6510</name></trkpt>
<trkpt lat="54.619789" lon="-3.084682"><ele>231</ele><time>2020-08-14T13:59:10Z</time><name>PT6511</name></trkpt>
<trkpt lat="54.619778" lon="-3.084692"><ele>230</ele><time>2020-08-14T13:59:11Z</time><name>PT6512</name></trkpt>
<trkpt lat="54.619774" lon="-3.084711"><ele>231</ele><time>2020-08-14T13:59:12Z</time><name>PT6513</name></trkpt>
<trkpt lat="54.619768" lon="-3.084735"><ele>231</ele><time>2020-08-14T13:59:13Z</time><name>PT6514</name></trkpt>
<trkpt lat="54.619770" lon="-3.084750"><ele>230</ele><time>2020-08-14T13:59:14Z</time><name>PT6515</name></trkpt>
<trkpt lat="54.619766" lon="-3.084760"><ele>230</ele><time>2020-08-14T13:59:15Z</time><name>PT6516</name></trkpt>
<trkpt lat="54.619759" lon="-3.084765"><ele>230</ele><time>2020-08-14T13:59:16Z</time><name>PT6517</name></trkpt>
<trkpt lat="54.619735" lon="-3.084794"><ele>230</ele><time>2020-08-14T13:59:19Z</time><name>PT6518</name></trkpt>
<trkpt lat="54.619696" lon="-3.084825"><ele>229</ele><time>2020-08-14T13:59:22Z</time><name>PT6519</name></trkpt>
<trkpt lat="54.619676" lon="-3.084849"><ele>229</ele><time>2020-08-14T13:59:25Z</time><name>PT6520</name></trkpt>
<trkpt lat="54.619669" lon="-3.084903"><ele>228</ele><time>2020-08-14T13:59:28Z</time><name>PT6521</name></trkpt>
<trkpt lat="54.619676" lon="-3.084922"><ele>228</ele><time>2020-08-14T13:59:29Z</time><name>PT6522</name></trkpt>
<trkpt lat="54.619680" lon="-3.084937"><ele>228</ele><time>2020-08-14T13:59:30Z</time><name>PT6523</name></trkpt>
<trkpt lat="54.619681" lon="-3.084953"><ele>228</ele><time>2020-08-14T13:59:31Z</time><name>PT6524</name></trkpt>
<trkpt lat="54.619685" lon="-3.084965"><ele>228</ele><time>2020-08-14T13:59:32Z</time><name>PT6525</name></trkpt>
<trkpt lat="54.619690" lon="-3.084976"><ele>228</ele><time>2020-08-14T13:59:33Z</time><name>PT6526</name></trkpt>
<trkpt lat="54.619697" lon="-3.084984"><ele>228</ele><time>2020-08-14T13:59:34Z</time><name>PT6527</name></trkpt>
<trkpt lat="54.619701" lon="-3.084990"><ele>227</ele><time>2020-08-14T13:59:35Z</time><name>PT6528</name></trkpt>
<trkpt lat="54.619703" lon="-3.085005"><ele>228</ele><time>2020-08-14T13:59:36Z</time><name>PT6529</name></trkpt>
<trkpt lat="54.619704" lon="-3.085013"><ele>228</ele><time>2020-08-14T13:59:37Z</time><name>PT6530</name></trkpt>
<trkpt lat="54.619706" lon="-3.085023"><ele>228</ele><time>2020-08-14T13:59:38Z</time><name>PT6531</name></trkpt>
<trkpt lat="54.619705" lon="-3.085040"><ele>227</ele><time>2020-08-14T13:59:39Z</time><name>PT6532</name></trkpt>
<trkpt lat="54.619703" lon="-3.085054"><ele>227</ele><time>2020-08-14T13:59:40Z</time><name>PT6533</name></trkpt>
<trkpt lat="54.619702" lon="-3.085060"><ele>226</ele><time>2020-08-14T13:59:41Z</time><name>PT6534</name></trkpt>
<trkpt lat="54.619700" lon="-3.085069"><ele>226</ele><time>2020-08-14T13:59:42Z</time><name>PT6535</name></trkpt>
<trkpt lat="54.619695" lon="-3.085072"><ele>226</ele><time>2020-08-14T13:59:43Z</time><name>PT6536</name></trkpt>
<trkpt lat="54.619688" lon="-3.085079"><ele>225</ele><time>2020-08-14T13:59:44Z</time><name>PT6537</name></trkpt>
<trkpt lat="54.619678" lon="-3.085092"><ele>225</ele><time>2020-08-14T13:59:45Z</time><name>PT6538</name></trkpt>
<trkpt lat="54.619670" lon="-3.085097"><ele>225</ele><time>2020-08-14T13:59:46Z</time><name>PT6539</name></trkpt>
<trkpt lat="54.619662" lon="-3.085101"><ele>225</ele><time>2020-08-14T13:59:47Z</time><name>PT6540</name></trkpt>
<trkpt lat="54.619657" lon="-3.085102"><ele>226</ele><time>2020-08-14T13:59:48Z</time><name>PT6541</name></trkpt>
<trkpt lat="54.619646" lon="-3.085112"><ele>226</ele><time>2020-08-14T13:59:49Z</time><name>PT6542</name></trkpt>
<trkpt lat="54.619638" lon="-3.085126"><ele>225</ele><time>2020-08-14T13:59:50Z</time><name>PT6543</name></trkpt>
<trkpt lat="54.619634" lon="-3.085143"><ele>226</ele><time>2020-08-14T13:59:51Z</time><name>PT6544</name></trkpt>
<trkpt lat="54.619629" lon="-3.085152"><ele>225</ele><time>2020-08-14T13:59:52Z</time><name>PT6545</name></trkpt>
<trkpt lat="54.619625" lon="-3.085163"><ele>225</ele><time>2020-08-14T13:59:53Z</time><name>PT6546</name></trkpt>
<trkpt lat="54.619620" lon="-3.085181"><ele>224</ele><time>2020-08-14T13:59:54Z</time><name>PT6547</name></trkpt>
<trkpt lat="54.619611" lon="-3.085198"><ele>224</ele><time>2020-08-14T13:59:55Z</time><name>PT6548</name></trkpt>
<trkpt lat="54.619605" lon="-3.085212"><ele>224</ele><time>2020-08-14T13:59:56Z</time><name>PT6549</name></trkpt>
<trkpt lat="54.619599" lon="-3.085222"><ele>224</ele><time>2020-08-14T13:59:57Z</time><name>PT6550</name></trkpt>
<trkpt lat="54.619597" lon="-3.085231"><ele>224</ele><time>2020-08-14T13:59:58Z</time><name>PT6551</name></trkpt>
<trkpt lat="54.619598" lon="-3.085247"><ele>224</ele><time>2020-08-14T13:59:59Z</time><name>PT6552</name></trkpt>
<trkpt lat="54.619599" lon="-3.085270"><ele>224</ele><time>2020-08-14T14:00:00Z</time><name>PT6553</name></trkpt>
<trkpt lat="54.619598" lon="-3.085286"><ele>223</ele><time>2020-08-14T14:00:01Z</time><name>PT6554</name></trkpt>
<trkpt lat="54.619594" lon="-3.085297"><ele>222</ele><time>2020-08-14T14:00:02Z</time><name>PT6555</name></trkpt>
<trkpt lat="54.619586" lon="-3.085309"><ele>222</ele><time>2020-08-14T14:00:03Z</time><name>PT6556</name></trkpt>
<trkpt lat="54.619579" lon="-3.085317"><ele>221</ele><time>2020-08-14T14:00:04Z</time><name>PT6557</name></trkpt>
<trkpt lat="54.619576" lon="-3.085328"><ele>221</ele><time>2020-08-14T14:00:05Z</time><name>PT6558</name></trkpt>
<trkpt lat="54.619571" lon="-3.085339"><ele>221</ele><time>2020-08-14T14:00:06Z</time><name>PT6559</name></trkpt>
<trkpt lat="54.619566" lon="-3.085354"><ele>220</ele><time>2020-08-14T14:00:07Z</time><name>PT6560</name></trkpt>
<trkpt lat="54.619562" lon="-3.085364"><ele>219</ele><time>2020-08-14T14:00:08Z</time><name>PT6561</name></trkpt>
<trkpt lat="54.619555" lon="-3.085374"><ele>219</ele><time>2020-08-14T14:00:09Z</time><name>PT6562</name></trkpt>
<trkpt lat="54.619546" lon="-3.085386"><ele>219</ele><time>2020-08-14T14:00:10Z</time><name>PT6563</name></trkpt>
<trkpt lat="54.619538" lon="-3.085401"><ele>218</ele><time>2020-08-14T14:00:11Z</time><name>PT6564</name></trkpt>
<trkpt lat="54.619530" lon="-3.085410"><ele>218</ele><time>2020-08-14T14:00:12Z</time><name>PT6565</name></trkpt>
<trkpt lat="54.619522" lon="-3.085419"><ele>218</ele><time>2020-08-14T14:00:13Z</time><name>PT6566</name></trkpt>
<trkpt lat="54.619514" lon="-3.085429"><ele>217</ele><time>2020-08-14T14:00:14Z</time><name>PT6567</name></trkpt>
<trkpt lat="54.619508" lon="-3.085439"><ele>217</ele><time>2020-08-14T14:00:15Z</time><name>PT6568</name></trkpt>
<trkpt lat="54.619501" lon="-3.085448"><ele>217</ele><time>2020-08-14T14:00:16Z</time><name>PT6569</name></trkpt>
<trkpt lat="54.619496" lon="-3.085457"><ele>217</ele><time>2020-08-14T14:00:17Z</time><name>PT6570</name></trkpt>
<trkpt lat="54.619490" lon="-3.085467"><ele>216</ele><time>2020-08-14T14:00:18Z</time><name>PT6571</name></trkpt>
<trkpt lat="54.619479" lon="-3.085480"><ele>216</ele><time>2020-08-14T14:00:19Z</time><name>PT6572</name></trkpt>
<trkpt lat="54.619470" lon="-3.085487"><ele>215</ele><time>2020-08-14T14:00:20Z</time><name>PT6573</name></trkpt>
<trkpt lat="54.619465" lon="-3.085491"><ele>215</ele><time>2020-08-14T14:00:21Z</time><name>PT6574</name></trkpt>
<trkpt lat="54.619456" lon="-3.085489"><ele>213</ele><time>2020-08-14T14:00:22Z</time><name>PT6575</name></trkpt>
<trkpt lat="54.619444" lon="-3.085492"><ele>214</ele><time>2020-08-14T14:00:23Z</time><name>PT6576</name></trkpt>
<trkpt lat="54.619430" lon="-3.085497"><ele>213</ele><time>2020-08-14T14:00:24Z</time><name>PT6577</name></trkpt>
<trkpt lat="54.619420" lon="-3.085508"><ele>213</ele><time>2020-08-14T14:00:25Z</time><name>PT6578</name></trkpt>
<trkpt lat="54.619417" lon="-3.085516"><ele>213</ele><time>2020-08-14T14:00:26Z</time><name>PT6579</name></trkpt>
<trkpt lat="54.619417" lon="-3.085519"><ele>214</ele><time>2020-08-14T14:00:27Z</time><name>PT6580</name></trkpt>
<trkpt lat="54.619414" lon="-3.085516"><ele>214</ele><time>2020-08-14T14:00:28Z</time><name>PT6581</name></trkpt>
<trkpt lat="54.619408" lon="-3.085519"><ele>214</ele><time>2020-08-14T14:00:29Z</time><name>PT6582</name></trkpt>
<trkpt lat="54.619403" lon="-3.085529"><ele>214</ele><time>2020-08-14T14:00:30Z</time><name>PT6583</name></trkpt>
<trkpt lat="54.619401" lon="-3.085533"><ele>214</ele><time>2020-08-14T14:00:31Z</time><name>PT6584</name></trkpt>
<trkpt lat="54.619396" lon="-3.085547"><ele>214</ele><time>2020-08-14T14:00:32Z</time><name>PT6585</name></trkpt>
<trkpt lat="54.619393" lon="-3.085563"><ele>214</ele><time>2020-08-14T14:00:33Z</time><name>PT6586</name></trkpt>
<trkpt lat="54.619390" lon="-3.085584"><ele>215</ele><time>2020-08-14T14:00:34Z</time><name>PT6587</name></trkpt>
<trkpt lat="54.619387" lon="-3.085602"><ele>215</ele><time>2020-08-14T14:00:35Z</time><name>PT6588</name></trkpt>
<trkpt lat="54.619386" lon="-3.085624"><ele>215</ele><time>2020-08-14T14:00:36Z</time><name>PT6589</name></trkpt>
<trkpt lat="54.619388" lon="-3.085644"><ele>215</ele><time>2020-08-14T14:00:37Z</time><name>PT6590</name></trkpt>
<trkpt lat="54.619390" lon="-3.085663"><ele>215</ele><time>2020-08-14T14:00:38Z</time><name>PT6591</name></trkpt>
<trkpt lat="54.619390" lon="-3.085682"><ele>215</ele><time>2020-08-14T14:00:39Z</time><name>PT6592</name></trkpt>
<trkpt lat="54.619390" lon="-3.085705"><ele>215</ele><time>2020-08-14T14:00:40Z</time><name>PT6593</name></trkpt>
<trkpt lat="54.619388" lon="-3.085724"><ele>215</ele><time>2020-08-14T14:00:41Z</time><name>PT6594</name></trkpt>
<trkpt lat="54.619387" lon="-3.085743"><ele>215</ele><time>2020-08-14T14:00:42Z</time><name>PT6595</name></trkpt>
<trkpt lat="54.619387" lon="-3.085760"><ele>215</ele><time>2020-08-14T14:00:43Z</time><name>PT6596</name></trkpt>
<trkpt lat="54.619388" lon="-3.085780"><ele>215</ele><time>2020-08-14T14:00:44Z</time><name>PT6597</name></trkpt>
<trkpt lat="54.619389" lon="-3.085799"><ele>214</ele><time>2020-08-14T14:00:45Z</time><name>PT6598</name></trkpt>
<trkpt lat="54.619388" lon="-3.085816"><ele>214</ele><time>2020-08-14T14:00:46Z</time><name>PT6599</name></trkpt>
<trkpt lat="54.619388" lon="-3.085833"><ele>214</ele><time>2020-08-14T14:00:47Z</time><name>PT6600</name></trkpt>
<trkpt lat="54.619387" lon="-3.085853"><ele>214</ele><time>2020-08-14T14:00:48Z</time><name>PT6601</name></trkpt>
<trkpt lat="54.619386" lon="-3.085873"><ele>214</ele><time>2020-08-14T14:00:49Z</time><name>PT6602</name></trkpt>
<trkpt lat="54.619385" lon="-3.085892"><ele>214</ele><time>2020-08-14T14:00:50Z</time><name>PT6603</name></trkpt>
<trkpt lat="54.619385" lon="-3.085910"><ele>214</ele><time>2020-08-14T14:00:51Z</time><name>PT6604</name></trkpt>
<trkpt lat="54.619385" lon="-3.085927"><ele>213</ele><time>2020-08-14T14:00:52Z</time><name>PT6605</name></trkpt>
<trkpt lat="54.619385" lon="-3.085944"><ele>213</ele><time>2020-08-14T14:00:53Z</time><name>PT6606</name></trkpt>
<trkpt lat="54.619386" lon="-3.085962"><ele>213</ele><time>2020-08-14T14:00:54Z</time><name>PT6607</name></trkpt>
<trkpt lat="54.619385" lon="-3.085981"><ele>213</ele><time>2020-08-14T14:00:55Z</time><name>PT6608</name></trkpt>
<trkpt lat="54.619383" lon="-3.086001"><ele>213</ele><time>2020-08-14T14:00:56Z</time><name>PT6609</name></trkpt>
<trkpt lat="54.619384" lon="-3.086017"><ele>213</ele><time>2020-08-14T14:00:57Z</time><name>PT6610</name></trkpt>
<trkpt lat="54.619385" lon="-3.086035"><ele>212</ele><time>2020-08-14T14:00:58Z</time><name>PT6611</name></trkpt>
<trkpt lat="54.619386" lon="-3.086051"><ele>212</ele><time>2020-08-14T14:00:59Z</time><name>PT6612</name></trkpt>
<trkpt lat="54.619387" lon="-3.086066"><ele>212</ele><time>2020-08-14T14:01:00Z</time><name>PT6613</name></trkpt>
<trkpt lat="54.619388" lon="-3.086082"><ele>212</ele><time>2020-08-14T14:01:01Z</time><name>PT6614</name></trkpt>
<trkpt lat="54.619389" lon="-3.086094"><ele>212</ele><time>2020-08-14T14:01:02Z</time><name>PT6615</name></trkpt>
<trkpt lat="54.619390" lon="-3.086107"><ele>212</ele><time>2020-08-14T14:01:03Z</time><name>PT6616</name></trkpt>
<trkpt lat="54.619389" lon="-3.086119"><ele>211</ele><time>2020-08-14T14:01:04Z</time><name>PT6617</name></trkpt>
<trkpt lat="54.619387" lon="-3.086131"><ele>211</ele><time>2020-08-14T14:01:05Z</time><name>PT6618</name></trkpt>
<trkpt lat="54.619387" lon="-3.086140"><ele>211</ele><time>2020-08-14T14:01:06Z</time><name>PT6619</name></trkpt>
<trkpt lat="54.619386" lon="-3.086153"><ele>211</ele><time>2020-08-14T14:01:07Z</time><name>PT6620</name></trkpt>
<trkpt lat="54.619386" lon="-3.086165"><ele>211</ele><time>2020-08-14T14:01:08Z</time><name>PT6621</name></trkpt>
<trkpt lat="54.619385" lon="-3.086176"><ele>211</ele><time>2020-08-14T14:01:09Z</time><name>PT6622</name></trkpt>
<trkpt lat="54.619384" lon="-3.086184"><ele>211</ele><time>2020-08-14T14:01:10Z</time><name>PT6623</name></trkpt>
<trkpt lat="54.619384" lon="-3.086195"><ele>210</ele><time>2020-08-14T14:01:11Z</time><name>PT6624</name></trkpt>
<trkpt lat="54.619384" lon="-3.086204"><ele>210</ele><time>2020-08-14T14:01:12Z</time><name>PT6625</name></trkpt>
<trkpt lat="54.619379" lon="-3.086216"><ele>210</ele><time>2020-08-14T14:01:13Z</time><name>PT6626</name></trkpt>
<trkpt lat="54.619378" lon="-3.086228"><ele>210</ele><time>2020-08-14T14:01:14Z</time><name>PT6627</name></trkpt>
<trkpt lat="54.619377" lon="-3.086244"><ele>210</ele><time>2020-08-14T14:01:15Z</time><name>PT6628</name></trkpt>
<trkpt lat="54.619376" lon="-3.086260"><ele>210</ele><time>2020-08-14T14:01:16Z</time><name>PT6629</name></trkpt>
<trkpt lat="54.619375" lon="-3.086277"><ele>209</ele><time>2020-08-14T14:01:17Z</time><name>PT6630</name></trkpt>
<trkpt lat="54.619374" lon="-3.086293"><ele>209</ele><time>2020-08-14T14:01:18Z</time><name>PT6631</name></trkpt>
<trkpt lat="54.619374" lon="-3.086307"><ele>209</ele><time>2020-08-14T14:01:19Z</time><name>PT6632</name></trkpt>
<trkpt lat="54.619373" lon="-3.086321"><ele>209</ele><time>2020-08-14T14:01:20Z</time><name>PT6633</name></trkpt>
<trkpt lat="54.619372" lon="-3.086339"><ele>209</ele><time>2020-08-14T14:01:21Z</time><name>PT6634</name></trkpt>
<trkpt lat="54.619370" lon="-3.086357"><ele>209</ele><time>2020-08-14T14:01:22Z</time><name>PT6635</name></trkpt>
<trkpt lat="54.619368" lon="-3.086375"><ele>209</ele><time>2020-08-14T14:01:23Z</time><name>PT6636</name></trkpt>
<trkpt lat="54.619367" lon="-3.086392"><ele>208</ele><time>2020-08-14T14:01:24Z</time><name>PT6637</name></trkpt>
<trkpt lat="54.619366" lon="-3.086410"><ele>208</ele><time>2020-08-14T14:01:25Z</time><name>PT6638</name></trkpt>
<trkpt lat="54.619365" lon="-3.086427"><ele>208</ele><time>2020-08-14T14:01:26Z</time><name>PT6639</name></trkpt>
<trkpt lat="54.619366" lon="-3.086443"><ele>208</ele><time>2020-08-14T14:01:27Z</time><name>PT6640</name></trkpt>
<trkpt lat="54.619368" lon="-3.086457"><ele>208</ele><time>2020-08-14T14:01:28Z</time><name>PT6641</name></trkpt>
<trkpt lat="54.619367" lon="-3.086473"><ele>207</ele><time>2020-08-14T14:01:29Z</time><name>PT6642</name></trkpt>
<trkpt lat="54.619364" lon="-3.086490"><ele>207</ele><time>2020-08-14T14:01:30Z</time><name>PT6643</name></trkpt>
<trkpt lat="54.619364" lon="-3.086502"><ele>207</ele><time>2020-08-14T14:01:31Z</time><name>PT6644</name></trkpt>
<trkpt lat="54.619369" lon="-3.086520"><ele>207</ele><time>2020-08-14T14:01:32Z</time><name>PT6645</name></trkpt>
<trkpt lat="54.619370" lon="-3.086541"><ele>207</ele><time>2020-08-14T14:01:33Z</time><name>PT6646</name></trkpt>
<trkpt lat="54.619367" lon="-3.086557"><ele>207</ele><time>2020-08-14T14:01:34Z</time><name>PT6647</name></trkpt>
<trkpt lat="54.619368" lon="-3.086566"><ele>207</ele><time>2020-08-14T14:01:35Z</time><name>PT6648</name></trkpt>
<trkpt lat="54.619368" lon="-3.086574"><ele>207</ele><time>2020-08-14T14:01:36Z</time><name>PT6649</name></trkpt>
<trkpt lat="54.619370" lon="-3.086573"><ele>207</ele><time>2020-08-14T14:01:37Z</time><name>PT6650</name></trkpt>
<trkpt lat="54.619370" lon="-3.086570"><ele>207</ele><time>2020-08-14T14:01:38Z</time><name>PT6651</name></trkpt>
<trkpt lat="54.619366" lon="-3.086571"><ele>206</ele><time>2020-08-14T14:01:39Z</time><name>PT6652</name></trkpt>
<trkpt lat="54.619365" lon="-3.086570"><ele>206</ele><time>2020-08-14T14:01:40Z</time><name>PT6653</name></trkpt>
<trkpt lat="54.619365" lon="-3.086571"><ele>205</ele><time>2020-08-14T14:01:41Z</time><name>PT6654</name></trkpt>
<trkpt lat="54.619367" lon="-3.086573"><ele>205</ele><time>2020-08-14T14:01:42Z</time><name>PT6655</name></trkpt>
<trkpt lat="54.619370" lon="-3.086577"><ele>205</ele><time>2020-08-14T14:01:43Z</time><name>PT6656</name></trkpt>
<trkpt lat="54.619367" lon="-3.086586"><ele>205</ele><time>2020-08-14T14:01:44Z</time><name>PT6657</name></trkpt>
<trkpt lat="54.619365" lon="-3.086599"><ele>205</ele><time>2020-08-14T14:01:45Z</time><name>PT6658</name></trkpt>
<trkpt lat="54.619366" lon="-3.086606"><ele>205</ele><time>2020-08-14T14:01:46Z</time><name>PT6659</name></trkpt>
<trkpt lat="54.619368" lon="-3.086609"><ele>206</ele><time>2020-08-14T14:01:47Z</time><name>PT6660</name></trkpt>
<trkpt lat="54.619375" lon="-3.086617"><ele>205</ele><time>2020-08-14T14:01:48Z</time><name>PT6661</name></trkpt>
<trkpt lat="54.619382" lon="-3.086618"><ele>204</ele><time>2020-08-14T14:01:49Z</time><name>PT6662</name></trkpt>
<trkpt lat="54.619387" lon="-3.086627"><ele>203</ele><time>2020-08-14T14:01:50Z</time><name>PT6663</name></trkpt>
<trkpt lat="54.619392" lon="-3.086642"><ele>203</ele><time>2020-08-14T14:01:51Z</time><name>PT6664</name></trkpt>
<trkpt lat="54.619400" lon="-3.086661"><ele>203</ele><time>2020-08-14T14:01:52Z</time><name>PT6665</name></trkpt>
<trkpt lat="54.619409" lon="-3.086681"><ele>204</ele><time>2020-08-14T14:01:53Z</time><name>PT6666</name></trkpt>
<trkpt lat="54.619419" lon="-3.086691"><ele>204</ele><time>2020-08-14T14:01:54Z</time><name>PT6667</name></trkpt>
<trkpt lat="54.619423" lon="-3.086700"><ele>204</ele><time>2020-08-14T14:01:55Z</time><name>PT6668</name></trkpt>
<trkpt lat="54.619429" lon="-3.086706"><ele>205</ele><time>2020-08-14T14:01:56Z</time><name>PT6669</name></trkpt>
<trkpt lat="54.619440" lon="-3.086712"><ele>205</ele><time>2020-08-14T14:01:57Z</time><name>PT6670</name></trkpt>
<trkpt lat="54.619449" lon="-3.086739"><ele>207</ele><time>2020-08-14T14:01:58Z</time><name>PT6671</name></trkpt>
<trkpt lat="54.619464" lon="-3.086758"><ele>209</ele><time>2020-08-14T14:01:59Z</time><name>PT6672</name></trkpt>
<trkpt lat="54.619475" lon="-3.086771"><ele>209</ele><time>2020-08-14T14:02:00Z</time><name>PT6673</name></trkpt>
<trkpt lat="54.619481" lon="-3.086786"><ele>210</ele><time>2020-08-14T14:02:01Z</time><name>PT6674</name></trkpt>
<trkpt lat="54.619486" lon="-3.086796"><ele>210</ele><time>2020-08-14T14:02:02Z</time><name>PT6675</name></trkpt>
<trkpt lat="54.619493" lon="-3.086807"><ele>210</ele><time>2020-08-14T14:02:03Z</time><name>PT6676</name></trkpt>
<trkpt lat="54.619502" lon="-3.086798"><ele>210</ele><time>2020-08-14T14:02:04Z</time><name>PT6677</name></trkpt>
<trkpt lat="54.619503" lon="-3.086806"><ele>210</ele><time>2020-08-14T14:02:05Z</time><name>PT6678</name></trkpt>
<trkpt lat="54.619508" lon="-3.086806"><ele>210</ele><time>2020-08-14T14:02:06Z</time><name>PT6679</name></trkpt>
<trkpt lat="54.619508" lon="-3.086804"><ele>210</ele><time>2020-08-14T14:02:07Z</time><name>PT6680</name></trkpt>
<trkpt lat="54.619504" lon="-3.086810"><ele>210</ele><time>2020-08-14T14:02:08Z</time><name>PT6681</name></trkpt>
<trkpt lat="54.619502" lon="-3.086806"><ele>210</ele><time>2020-08-14T14:02:09Z</time><name>PT6682</name></trkpt>
<trkpt lat="54.619499" lon="-3.086805"><ele>210</ele><time>2020-08-14T14:02:10Z</time><name>PT6683</name></trkpt>
<trkpt lat="54.619495" lon="-3.086800"><ele>210</ele><time>2020-08-14T14:02:11Z</time><name>PT6684</name></trkpt>
<trkpt lat="54.619483" lon="-3.086791"><ele>208</ele><time>2020-08-14T14:02:12Z</time><name>PT6685</name></trkpt>
<trkpt lat="54.619488" lon="-3.086794"><ele>208</ele><time>2020-08-14T14:02:14Z</time><name>PT6686</name></trkpt>
<trkpt lat="54.619484" lon="-3.086792"><ele>208</ele><time>2020-08-14T14:02:15Z</time><name>PT6687</name></trkpt>
<trkpt lat="54.619480" lon="-3.086785"><ele>208</ele><time>2020-08-14T14:02:16Z</time><name>PT6688</name></trkpt>
<trkpt lat="54.619476" lon="-3.086770"><ele>209</ele><time>2020-08-14T14:02:17Z</time><name>PT6689</name></trkpt>
<trkpt lat="54.619469" lon="-3.086762"><ele>208</ele><time>2020-08-14T14:02:18Z</time><name>PT6690</name></trkpt>
<trkpt lat="54.619465" lon="-3.086759"><ele>208</ele><time>2020-08-14T14:02:19Z</time><name>PT6691</name></trkpt>
<trkpt lat="54.619467" lon="-3.086769"><ele>208</ele><time>2020-08-14T14:02:20Z</time><name>PT6692</name></trkpt>
<trkpt lat="54.619463" lon="-3.086771"><ele>208</ele><time>2020-08-14T14:02:21Z</time><name>PT6693</name></trkpt>
<trkpt lat="54.619463" lon="-3.086774"><ele>208</ele><time>2020-08-14T14:02:22Z</time><name>PT6694</name></trkpt>
<trkpt lat="54.619462" lon="-3.086776"><ele>208</ele><time>2020-08-14T14:02:23Z</time><name>PT6695</name></trkpt>
<trkpt lat="54.619461" lon="-3.086775"><ele>208</ele><time>2020-08-14T14:02:24Z</time><name>PT6696</name></trkpt>
<trkpt lat="54.619458" lon="-3.086788"><ele>208</ele><time>2020-08-14T14:03:29Z</time><name>PT6697</name></trkpt>
<trkpt lat="54.619460" lon="-3.086788"><ele>208</ele><time>2020-08-14T14:03:30Z</time><name>PT6698</name></trkpt>
<trkpt lat="54.619457" lon="-3.086792"><ele>207</ele><time>2020-08-14T14:03:31Z</time><name>PT6699</name></trkpt>
<trkpt lat="54.619445" lon="-3.086782"><ele>208</ele><time>2020-08-14T14:03:39Z</time><name>PT6700</name></trkpt>
<trkpt lat="54.619446" lon="-3.086773"><ele>207</ele><time>2020-08-14T14:03:40Z</time><name>PT6701</name></trkpt>
<trkpt lat="54.619443" lon="-3.086756"><ele>207</ele><time>2020-08-14T14:03:41Z</time><name>PT6702</name></trkpt>
<trkpt lat="54.619449" lon="-3.086747"><ele>207</ele><time>2020-08-14T14:03:42Z</time><name>PT6703</name></trkpt>
<trkpt lat="54.619448" lon="-3.086743"><ele>207</ele><time>2020-08-14T14:03:43Z</time><name>PT6704</name></trkpt>
<trkpt lat="54.619449" lon="-3.086741"><ele>207</ele><time>2020-08-14T14:03:44Z</time><name>PT6705</name></trkpt>
<trkpt lat="54.619449" lon="-3.086737"><ele>206</ele><time>2020-08-14T14:03:45Z</time><name>PT6706</name></trkpt>
<trkpt lat="54.619441" lon="-3.086733"><ele>206</ele><time>2020-08-14T14:04:14Z</time><name>PT6707</name></trkpt>
<trkpt lat="54.619429" lon="-3.086743"><ele>206</ele><time>2020-08-14T14:04:15Z</time><name>PT6708</name></trkpt>
<trkpt lat="54.619417" lon="-3.086749"><ele>206</ele><time>2020-08-14T14:04:16Z</time><name>PT6709</name></trkpt>
<trkpt lat="54.619409" lon="-3.086756"><ele>206</ele><time>2020-08-14T14:04:17Z</time><name>PT6710</name></trkpt>
<trkpt lat="54.619403" lon="-3.086763"><ele>206</ele><time>2020-08-14T14:04:18Z</time><name>PT6711</name></trkpt>
<trkpt lat="54.619405" lon="-3.086789"><ele>206</ele><time>2020-08-14T14:04:19Z</time><name>PT6712</name></trkpt>
<trkpt lat="54.619407" lon="-3.086801"><ele>207</ele><time>2020-08-14T14:04:20Z</time><name>PT6713</name></trkpt>
<trkpt lat="54.619406" lon="-3.086821"><ele>207</ele><time>2020-08-14T14:04:21Z</time><name>PT6714</name></trkpt>
<trkpt lat="54.619403" lon="-3.086839"><ele>207</ele><time>2020-08-14T14:04:22Z</time><name>PT6715</name></trkpt>
<trkpt lat="54.619400" lon="-3.086854"><ele>206</ele><time>2020-08-14T14:04:23Z</time><name>PT6716</name></trkpt>
<trkpt lat="54.619396" lon="-3.086863"><ele>205</ele><time>2020-08-14T14:04:24Z</time><name>PT6717</name></trkpt>
<trkpt lat="54.619393" lon="-3.086927"><ele>205</ele><time>2020-08-14T14:04:27Z</time><name>PT6718</name></trkpt>
<trkpt lat="54.619392" lon="-3.087004"><ele>205</ele><time>2020-08-14T14:04:30Z</time><name>PT6719</name></trkpt>
<trkpt lat="54.619394" lon="-3.087058"><ele>204</ele><time>2020-08-14T14:04:33Z</time><name>PT6720</name></trkpt>
<trkpt lat="54.619387" lon="-3.087166"><ele>203</ele><time>2020-08-14T14:04:37Z</time><name>PT6721</name></trkpt>
<trkpt lat="54.619381" lon="-3.087263"><ele>203</ele><time>2020-08-14T14:04:41Z</time><name>PT6722</name></trkpt>
<trkpt lat="54.619374" lon="-3.087312"><ele>202</ele><time>2020-08-14T14:04:44Z</time><name>PT6723</name></trkpt>
<trkpt lat="54.619366" lon="-3.087376"><ele>202</ele><time>2020-08-14T14:04:47Z</time><name>PT6724</name></trkpt>
<trkpt lat="54.619356" lon="-3.087469"><ele>203</ele><time>2020-08-14T14:04:51Z</time><name>PT6725</name></trkpt>
<trkpt lat="54.619349" lon="-3.087536"><ele>203</ele><time>2020-08-14T14:04:54Z</time><name>PT6726</name></trkpt>
<trkpt lat="54.619346" lon="-3.087555"><ele>202</ele><time>2020-08-14T14:04:55Z</time><name>PT6727</name></trkpt>
<trkpt lat="54.619346" lon="-3.087576"><ele>202</ele><time>2020-08-14T14:04:56Z</time><name>PT6728</name></trkpt>
<trkpt lat="54.619344" lon="-3.087594"><ele>201</ele><time>2020-08-14T14:04:57Z</time><name>PT6729</name></trkpt>
<trkpt lat="54.619344" lon="-3.087616"><ele>200</ele><time>2020-08-14T14:04:58Z</time><name>PT6730</name></trkpt>
<trkpt lat="54.619344" lon="-3.087635"><ele>200</ele><time>2020-08-14T14:04:59Z</time><name>PT6731</name></trkpt>
<trkpt lat="54.619342" lon="-3.087659"><ele>200</ele><time>2020-08-14T14:05:00Z</time><name>PT6732</name></trkpt>
<trkpt lat="54.619340" lon="-3.087681"><ele>200</ele><time>2020-08-14T14:05:01Z</time><name>PT6733</name></trkpt>
<trkpt lat="54.619338" lon="-3.087704"><ele>200</ele><time>2020-08-14T14:05:02Z</time><name>PT6734</name></trkpt>
<trkpt lat="54.619338" lon="-3.087726"><ele>199</ele><time>2020-08-14T14:05:03Z</time><name>PT6735</name></trkpt>
<trkpt lat="54.619338" lon="-3.087747"><ele>199</ele><time>2020-08-14T14:05:04Z</time><name>PT6736</name></trkpt>
<trkpt lat="54.619339" lon="-3.087768"><ele>199</ele><time>2020-08-14T14:05:05Z</time><name>PT6737</name></trkpt>
<trkpt lat="54.619339" lon="-3.087788"><ele>199</ele><time>2020-08-14T14:05:06Z</time><name>PT6738</name></trkpt>
<trkpt lat="54.619339" lon="-3.087809"><ele>198</ele><time>2020-08-14T14:05:07Z</time><name>PT6739</name></trkpt>
<trkpt lat="54.619339" lon="-3.087828"><ele>198</ele><time>2020-08-14T14:05:08Z</time><name>PT6740</name></trkpt>
<trkpt lat="54.619339" lon="-3.087846"><ele>197</ele><time>2020-08-14T14:05:09Z</time><name>PT6741</name></trkpt>
<trkpt lat="54.619340" lon="-3.087866"><ele>197</ele><time>2020-08-14T14:05:10Z</time><name>PT6742</name></trkpt>
<trkpt lat="54.619339" lon="-3.087889"><ele>197</ele><time>2020-08-14T14:05:11Z</time><name>PT6743</name></trkpt>
<trkpt lat="54.619340" lon="-3.087907"><ele>197</ele><time>2020-08-14T14:05:12Z</time><name>PT6744</name></trkpt>
<trkpt lat="54.619340" lon="-3.087926"><ele>196</ele><time>2020-08-14T14:05:13Z</time><name>PT6745</name></trkpt>
<trkpt lat="54.619342" lon="-3.087944"><ele>196</ele><time>2020-08-14T14:05:14Z</time><name>PT6746</name></trkpt>
<trkpt lat="54.619342" lon="-3.087964"><ele>196</ele><time>2020-08-14T14:05:15Z</time><name>PT6747</name></trkpt>
<trkpt lat="54.619341" lon="-3.087985"><ele>195</ele><time>2020-08-14T14:05:16Z</time><name>PT6748</name></trkpt>
<trkpt lat="54.619340" lon="-3.088007"><ele>196</ele><time>2020-08-14T14:05:17Z</time><name>PT6749</name></trkpt>
<trkpt lat="54.619339" lon="-3.088031"><ele>195</ele><time>2020-08-14T14:05:18Z</time><name>PT6750</name></trkpt>
<trkpt lat="54.619337" lon="-3.088057"><ele>195</ele><time>2020-08-14T14:05:19Z</time><name>PT6751</name></trkpt>
<trkpt lat="54.619336" lon="-3.088079"><ele>195</ele><time>2020-08-14T14:05:20Z</time><name>PT6752</name></trkpt>
<trkpt lat="54.619337" lon="-3.088100"><ele>195</ele><time>2020-08-14T14:05:21Z</time><name>PT6753</name></trkpt>
<trkpt lat="54.619336" lon="-3.088121"><ele>195</ele><time>2020-08-14T14:05:22Z</time><name>PT6754</name></trkpt>
<trkpt lat="54.619335" lon="-3.088141"><ele>194</ele><time>2020-08-14T14:05:23Z</time><name>PT6755</name></trkpt>
<trkpt lat="54.619334" lon="-3.088159"><ele>194</ele><time>2020-08-14T14:05:24Z</time><name>PT6756</name></trkpt>
<trkpt lat="54.619333" lon="-3.088177"><ele>194</ele><time>2020-08-14T14:05:25Z</time><name>PT6757</name></trkpt>
<trkpt lat="54.619331" lon="-3.088196"><ele>194</ele><time>2020-08-14T14:05:26Z</time><name>PT6758</name></trkpt>
<trkpt lat="54.619330" lon="-3.088218"><ele>194</ele><time>2020-08-14T14:05:27Z</time><name>PT6759</name></trkpt>
<trkpt lat="54.619328" lon="-3.088239"><ele>194</ele><time>2020-08-14T14:05:28Z</time><name>PT6760</name></trkpt>
<trkpt lat="54.619326" lon="-3.088257"><ele>193</ele><time>2020-08-14T14:05:29Z</time><name>PT6761</name></trkpt>
<trkpt lat="54.619325" lon="-3.088276"><ele>193</ele><time>2020-08-14T14:05:30Z</time><name>PT6762</name></trkpt>
<trkpt lat="54.619320" lon="-3.088295"><ele>193</ele><time>2020-08-14T14:05:31Z</time><name>PT6763</name></trkpt>
<trkpt lat="54.619318" lon="-3.088309"><ele>193</ele><time>2020-08-14T14:05:32Z</time><name>PT6764</name></trkpt>
<trkpt lat="54.619314" lon="-3.088328"><ele>192</ele><time>2020-08-14T14:05:33Z</time><name>PT6765</name></trkpt>
<trkpt lat="54.619310" lon="-3.088352"><ele>193</ele><time>2020-08-14T14:05:34Z</time><name>PT6766</name></trkpt>
<trkpt lat="54.619305" lon="-3.088376"><ele>193</ele><time>2020-08-14T14:05:35Z</time><name>PT6767</name></trkpt>
<trkpt lat="54.619300" lon="-3.088395"><ele>192</ele><time>2020-08-14T14:05:36Z</time><name>PT6768</name></trkpt>
<trkpt lat="54.619294" lon="-3.088417"><ele>192</ele><time>2020-08-14T14:05:37Z</time><name>PT6769</name></trkpt>
<trkpt lat="54.619289" lon="-3.088438"><ele>192</ele><time>2020-08-14T14:05:38Z</time><name>PT6770</name></trkpt>
<trkpt lat="54.619285" lon="-3.088461"><ele>192</ele><time>2020-08-14T14:05:39Z</time><name>PT6771</name></trkpt>
<trkpt lat="54.619282" lon="-3.088485"><ele>192</ele><time>2020-08-14T14:05:40Z</time><name>PT6772</name></trkpt>
<trkpt lat="54.619277" lon="-3.088507"><ele>192</ele><time>2020-08-14T14:05:41Z</time><name>PT6773</name></trkpt>
<trkpt lat="54.619271" lon="-3.088525"><ele>191</ele><time>2020-08-14T14:05:42Z</time><name>PT6774</name></trkpt>
<trkpt lat="54.619265" lon="-3.088546"><ele>191</ele><time>2020-08-14T14:05:43Z</time><name>PT6775</name></trkpt>
<trkpt lat="54.619260" lon="-3.088567"><ele>191</ele><time>2020-08-14T14:05:44Z</time><name>PT6776</name></trkpt>
<trkpt lat="54.619256" lon="-3.088587"><ele>191</ele><time>2020-08-14T14:05:45Z</time><name>PT6777</name></trkpt>
<trkpt lat="54.619252" lon="-3.088606"><ele>191</ele><time>2020-08-14T14:05:46Z</time><name>PT6778</name></trkpt>
<trkpt lat="54.619249" lon="-3.088625"><ele>190</ele><time>2020-08-14T14:05:47Z</time><name>PT6779</name></trkpt>
<trkpt lat="54.619245" lon="-3.088645"><ele>190</ele><time>2020-08-14T14:05:48Z</time><name>PT6780</name></trkpt>
<trkpt lat="54.619242" lon="-3.088665"><ele>190</ele><time>2020-08-14T14:05:49Z</time><name>PT6781</name></trkpt>
<trkpt lat="54.619239" lon="-3.088686"><ele>189</ele><time>2020-08-14T14:05:50Z</time><name>PT6782</name></trkpt>
<trkpt lat="54.619234" lon="-3.088707"><ele>189</ele><time>2020-08-14T14:05:51Z</time><name>PT6783</name></trkpt>
<trkpt lat="54.619231" lon="-3.088729"><ele>189</ele><time>2020-08-14T14:05:52Z</time><name>PT6784</name></trkpt>
<trkpt lat="54.619227" lon="-3.088752"><ele>189</ele><time>2020-08-14T14:05:53Z</time><name>PT6785</name></trkpt>
<trkpt lat="54.619221" lon="-3.088771"><ele>189</ele><time>2020-08-14T14:05:54Z</time><name>PT6786</name></trkpt>
<trkpt lat="54.619213" lon="-3.088787"><ele>188</ele><time>2020-08-14T14:05:55Z</time><name>PT6787</name></trkpt>
<trkpt lat="54.619204" lon="-3.088801"><ele>188</ele><time>2020-08-14T14:05:56Z</time><name>PT6788</name></trkpt>
<trkpt lat="54.619193" lon="-3.088814"><ele>188</ele><time>2020-08-14T14:05:57Z</time><name>PT6789</name></trkpt>
<trkpt lat="54.619183" lon="-3.088825"><ele>188</ele><time>2020-08-14T14:05:58Z</time><name>PT6790</name></trkpt>
<trkpt lat="54.619171" lon="-3.088833"><ele>188</ele><time>2020-08-14T14:05:59Z</time><name>PT6791</name></trkpt>
<trkpt lat="54.619158" lon="-3.088841"><ele>188</ele><time>2020-08-14T14:06:00Z</time><name>PT6792</name></trkpt>
<trkpt lat="54.619145" lon="-3.088849"><ele>188</ele><time>2020-08-14T14:06:01Z</time><name>PT6793</name></trkpt>
<trkpt lat="54.619133" lon="-3.088846"><ele>187</ele><time>2020-08-14T14:06:02Z</time><name>PT6794</name></trkpt>
<trkpt lat="54.619122" lon="-3.088849"><ele>187</ele><time>2020-08-14T14:06:03Z</time><name>PT6795</name></trkpt>
<trkpt lat="54.619111" lon="-3.088851"><ele>187</ele><time>2020-08-14T14:06:04Z</time><name>PT6796</name></trkpt>
<trkpt lat="54.619105" lon="-3.088859"><ele>186</ele><time>2020-08-14T14:06:05Z</time><name>PT6797</name></trkpt>
<trkpt lat="54.619098" lon="-3.088866"><ele>186</ele><time>2020-08-14T14:06:06Z</time><name>PT6798</name></trkpt>
<trkpt lat="54.619089" lon="-3.088874"><ele>186</ele><time>2020-08-14T14:06:07Z</time><name>PT6799</name></trkpt>
<trkpt lat="54.619082" lon="-3.088870"><ele>186</ele><time>2020-08-14T14:06:08Z</time><name>PT6800</name></trkpt>
<trkpt lat="54.619078" lon="-3.088867"><ele>186</ele><time>2020-08-14T14:06:09Z</time><name>PT6801</name></trkpt>
<trkpt lat="54.619074" lon="-3.088875"><ele>186</ele><time>2020-08-14T14:06:10Z</time><name>PT6802</name></trkpt>
<trkpt lat="54.619072" lon="-3.088880"><ele>187</ele><time>2020-08-14T14:06:11Z</time><name>PT6803</name></trkpt>
<trkpt lat="54.619072" lon="-3.088883"><ele>187</ele><time>2020-08-14T14:06:12Z</time><name>PT6804</name></trkpt>
<trkpt lat="54.619065" lon="-3.088878"><ele>188</ele><time>2020-08-14T14:06:13Z</time><name>PT6805</name></trkpt>
<trkpt lat="54.619058" lon="-3.088870"><ele>188</ele><time>2020-08-14T14:06:14Z</time><name>PT6806</name></trkpt>
<trkpt lat="54.619044" lon="-3.088867"><ele>188</ele><time>2020-08-14T14:06:15Z</time><name>PT6807</name></trkpt>
<trkpt lat="54.619034" lon="-3.088866"><ele>188</ele><time>2020-08-14T14:06:16Z</time><name>PT6808</name></trkpt>
<trkpt lat="54.619022" lon="-3.088864"><ele>188</ele><time>2020-08-14T14:06:17Z</time><name>PT6809</name></trkpt>
<trkpt lat="54.619009" lon="-3.088857"><ele>188</ele><time>2020-08-14T14:06:18Z</time><name>PT6810</name></trkpt>
<trkpt lat="54.618996" lon="-3.088857"><ele>188</ele><time>2020-08-14T14:06:19Z</time><name>PT6811</name></trkpt>
<trkpt lat="54.618982" lon="-3.088855"><ele>187</ele><time>2020-08-14T14:06:20Z</time><name>PT6812</name></trkpt>
<trkpt lat="54.618969" lon="-3.088851"><ele>187</ele><time>2020-08-14T14:06:21Z</time><name>PT6813</name></trkpt>
<trkpt lat="54.618955" lon="-3.088849"><ele>187</ele><time>2020-08-14T14:06:22Z</time><name>PT6814</name></trkpt>
<trkpt lat="54.618943" lon="-3.088851"><ele>187</ele><time>2020-08-14T14:06:23Z</time><name>PT6815</name></trkpt>
<trkpt lat="54.618930" lon="-3.088850"><ele>187</ele><time>2020-08-14T14:06:24Z</time><name>PT6816</name></trkpt>
<trkpt lat="54.618917" lon="-3.088847"><ele>187</ele><time>2020-08-14T14:06:25Z</time><name>PT6817</name></trkpt>
<trkpt lat="54.618905" lon="-3.088847"><ele>186</ele><time>2020-08-14T14:06:26Z</time><name>PT6818</name></trkpt>
<trkpt lat="54.618892" lon="-3.088846"><ele>186</ele><time>2020-08-14T14:06:27Z</time><name>PT6819</name></trkpt>
<trkpt lat="54.618880" lon="-3.088843"><ele>186</ele><time>2020-08-14T14:06:28Z</time><name>PT6820</name></trkpt>
<trkpt lat="54.618860" lon="-3.088836"><ele>185</ele><time>2020-08-14T14:06:29Z</time><name>PT6821</name></trkpt>
<trkpt lat="54.618840" lon="-3.088832"><ele>185</ele><time>2020-08-14T14:06:30Z</time><name>PT6822</name></trkpt>
<trkpt lat="54.618829" lon="-3.088832"><ele>185</ele><time>2020-08-14T14:06:31Z</time><name>PT6823</name></trkpt>
<trkpt lat="54.618824" lon="-3.088830"><ele>185</ele><time>2020-08-14T14:06:32Z</time><name>PT6824</name></trkpt>
<trkpt lat="54.618819" lon="-3.088826"><ele>183</ele><time>2020-08-14T14:06:33Z</time><name>PT6825</name></trkpt>
<trkpt lat="54.618810" lon="-3.088831"><ele>183</ele><time>2020-08-14T14:06:34Z</time><name>PT6826</name></trkpt>
<trkpt lat="54.618799" lon="-3.088835"><ele>183</ele><time>2020-08-14T14:06:35Z</time><name>PT6827</name></trkpt>
<trkpt lat="54.618785" lon="-3.088841"><ele>182</ele><time>2020-08-14T14:06:36Z</time><name>PT6828</name></trkpt>
<trkpt lat="54.618766" lon="-3.088843"><ele>183</ele><time>2020-08-14T14:06:37Z</time><name>PT6829</name></trkpt>
<trkpt lat="54.618750" lon="-3.088843"><ele>182</ele><time>2020-08-14T14:06:38Z</time><name>PT6830</name></trkpt>
<trkpt lat="54.618737" lon="-3.088849"><ele>182</ele><time>2020-08-14T14:06:39Z</time><name>PT6831</name></trkpt>
<trkpt lat="54.618730" lon="-3.088851"><ele>181</ele><time>2020-08-14T14:06:40Z</time><name>PT6832</name></trkpt>
<trkpt lat="54.618723" lon="-3.088859"><ele>181</ele><time>2020-08-14T14:06:41Z</time><name>PT6833</name></trkpt>
<trkpt lat="54.618716" lon="-3.088858"><ele>181</ele><time>2020-08-14T14:06:42Z</time><name>PT6834</name></trkpt>
<trkpt lat="54.618706" lon="-3.088858"><ele>180</ele><time>2020-08-14T14:06:43Z</time><name>PT6835</name></trkpt>
<trkpt lat="54.618686" lon="-3.088857"><ele>180</ele><time>2020-08-14T14:06:44Z</time><name>PT6836</name></trkpt>
<trkpt lat="54.618663" lon="-3.088849"><ele>180</ele><time>2020-08-14T14:06:45Z</time><name>PT6837</name></trkpt>
<trkpt lat="54.618646" lon="-3.088842"><ele>180</ele><time>2020-08-14T14:06:46Z</time><name>PT6838</name></trkpt>
<trkpt lat="54.618636" lon="-3.088836"><ele>180</ele><time>2020-08-14T14:06:47Z</time><name>PT6839</name></trkpt>
<trkpt lat="54.618630" lon="-3.088829"><ele>180</ele><time>2020-08-14T14:06:48Z</time><name>PT6840</name></trkpt>
<trkpt lat="54.618628" lon="-3.088824"><ele>180</ele><time>2020-08-14T14:06:49Z</time><name>PT6841</name></trkpt>
<trkpt lat="54.618617" lon="-3.088826"><ele>180</ele><time>2020-08-14T14:06:50Z</time><name>PT6842</name></trkpt>
<trkpt lat="54.618601" lon="-3.088833"><ele>180</ele><time>2020-08-14T14:06:51Z</time><name>PT6843</name></trkpt>
<trkpt lat="54.618586" lon="-3.088835"><ele>180</ele><time>2020-08-14T14:06:52Z</time><name>PT6844</name></trkpt>
<trkpt lat="54.618576" lon="-3.088834"><ele>181</ele><time>2020-08-14T14:06:53Z</time><name>PT6845</name></trkpt>
<trkpt lat="54.618563" lon="-3.088836"><ele>181</ele><time>2020-08-14T14:06:54Z</time><name>PT6846</name></trkpt>
<trkpt lat="54.618549" lon="-3.088838"><ele>181</ele><time>2020-08-14T14:06:55Z</time><name>PT6847</name></trkpt>
<trkpt lat="54.618535" lon="-3.088839"><ele>181</ele><time>2020-08-14T14:06:56Z</time><name>PT6848</name></trkpt>
<trkpt lat="54.618526" lon="-3.088838"><ele>180</ele><time>2020-08-14T14:06:57Z</time><name>PT6849</name></trkpt>
<trkpt lat="54.618520" lon="-3.088833"><ele>181</ele><time>2020-08-14T14:06:58Z</time><name>PT6850</name></trkpt>
<trkpt lat="54.618502" lon="-3.088830"><ele>181</ele><time>2020-08-14T14:06:59Z</time><name>PT6851</name></trkpt>
<trkpt lat="54.618483" lon="-3.088828"><ele>180</ele><time>2020-08-14T14:07:00Z</time><name>PT6852</name></trkpt>
<trkpt lat="54.618464" lon="-3.088826"><ele>180</ele><time>2020-08-14T14:07:01Z</time><name>PT6853</name></trkpt>
<trkpt lat="54.618451" lon="-3.088827"><ele>180</ele><time>2020-08-14T14:07:02Z</time><name>PT6854</name></trkpt>
<trkpt lat="54.618447" lon="-3.088825"><ele>179</ele><time>2020-08-14T14:07:03Z</time><name>PT6855</name></trkpt>
<trkpt lat="54.618446" lon="-3.088822"><ele>179</ele><time>2020-08-14T14:07:04Z</time><name>PT6856</name></trkpt>
<trkpt lat="54.618439" lon="-3.088823"><ele>178</ele><time>2020-08-14T14:07:05Z</time><name>PT6857</name></trkpt>
<trkpt lat="54.618422" lon="-3.088825"><ele>179</ele><time>2020-08-14T14:07:06Z</time><name>PT6858</name></trkpt>
<trkpt lat="54.618403" lon="-3.088819"><ele>178</ele><time>2020-08-14T14:07:07Z</time><name>PT6859</name></trkpt>
<trkpt lat="54.618384" lon="-3.088811"><ele>177</ele><time>2020-08-14T14:07:08Z</time><name>PT6860</name></trkpt>
<trkpt lat="54.618366" lon="-3.088810"><ele>177</ele><time>2020-08-14T14:07:09Z</time><name>PT6861</name></trkpt>
<trkpt lat="54.618360" lon="-3.088809"><ele>176</ele><time>2020-08-14T14:07:10Z</time><name>PT6862</name></trkpt>
<trkpt lat="54.618357" lon="-3.088806"><ele>176</ele><time>2020-08-14T14:07:11Z</time><name>PT6863</name></trkpt>
<trkpt lat="54.618348" lon="-3.088805"><ele>176</ele><time>2020-08-14T14:07:12Z</time><name>PT6864</name></trkpt>
<trkpt lat="54.618334" lon="-3.088806"><ele>176</ele><time>2020-08-14T14:07:13Z</time><name>PT6865</name></trkpt>
<trkpt lat="54.618312" lon="-3.088803"><ele>177</ele><time>2020-08-14T14:07:14Z</time><name>PT6866</name></trkpt>
<trkpt lat="54.618292" lon="-3.088798"><ele>176</ele><time>2020-08-14T14:07:15Z</time><name>PT6867</name></trkpt>
<trkpt lat="54.618277" lon="-3.088795"><ele>176</ele><time>2020-08-14T14:07:16Z</time><name>PT6868</name></trkpt>
<trkpt lat="54.618266" lon="-3.088794"><ele>176</ele><time>2020-08-14T14:07:17Z</time><name>PT6869</name></trkpt>
<trkpt lat="54.618255" lon="-3.088794"><ele>175</ele><time>2020-08-14T14:07:18Z</time><name>PT6870</name></trkpt>
<trkpt lat="54.618235" lon="-3.088799"><ele>175</ele><time>2020-08-14T14:07:19Z</time><name>PT6871</name></trkpt>
<trkpt lat="54.618222" lon="-3.088803"><ele>176</ele><time>2020-08-14T14:07:20Z</time><name>PT6872</name></trkpt>
<trkpt lat="54.618211" lon="-3.088809"><ele>176</ele><time>2020-08-14T14:07:21Z</time><name>PT6873</name></trkpt>
<trkpt lat="54.618199" lon="-3.088811"><ele>176</ele><time>2020-08-14T14:07:22Z</time><name>PT6874</name></trkpt>
<trkpt lat="54.618187" lon="-3.088812"><ele>176</ele><time>2020-08-14T14:07:23Z</time><name>PT6875</name></trkpt>
<trkpt lat="54.618174" lon="-3.088817"><ele>176</ele><time>2020-08-14T14:07:24Z</time><name>PT6876</name></trkpt>
<trkpt lat="54.618164" lon="-3.088823"><ele>176</ele><time>2020-08-14T14:07:25Z</time><name>PT6877</name></trkpt>
<trkpt lat="54.618159" lon="-3.088821"><ele>176</ele><time>2020-08-14T14:07:26Z</time><name>PT6878</name></trkpt>
<trkpt lat="54.618156" lon="-3.088820"><ele>175</ele><time>2020-08-14T14:07:27Z</time><name>PT6879</name></trkpt>
<trkpt lat="54.618148" lon="-3.088818"><ele>174</ele><time>2020-08-14T14:07:28Z</time><name>PT6880</name></trkpt>
<trkpt lat="54.618134" lon="-3.088824"><ele>175</ele><time>2020-08-14T14:07:29Z</time><name>PT6881</name></trkpt>
<trkpt lat="54.618117" lon="-3.088818"><ele>175</ele><time>2020-08-14T14:07:30Z</time><name>PT6882</name></trkpt>
<trkpt lat="54.618101" lon="-3.088813"><ele>176</ele><time>2020-08-14T14:07:31Z</time><name>PT6883</name></trkpt>
<trkpt lat="54.618091" lon="-3.088816"><ele>176</ele><time>2020-08-14T14:07:32Z</time><name>PT6884</name></trkpt>
<trkpt lat="54.618081" lon="-3.088819"><ele>177</ele><time>2020-08-14T14:07:33Z</time><name>PT6885</name></trkpt>
<trkpt lat="54.618077" lon="-3.088818"><ele>176</ele><time>2020-08-14T14:07:34Z</time><name>PT6886</name></trkpt>
<trkpt lat="54.618070" lon="-3.088814"><ele>176</ele><time>2020-08-14T14:07:35Z</time><name>PT6887</name></trkpt>
<trkpt lat="54.618059" lon="-3.088820"><ele>176</ele><time>2020-08-14T14:07:36Z</time><name>PT6888</name></trkpt>
<trkpt lat="54.618045" lon="-3.088821"><ele>175</ele><time>2020-08-14T14:07:37Z</time><name>PT6889</name></trkpt>
<trkpt lat="54.618028" lon="-3.088820"><ele>175</ele><time>2020-08-14T14:07:38Z</time><name>PT6890</name></trkpt>
<trkpt lat="54.618006" lon="-3.088819"><ele>175</ele><time>2020-08-14T14:07:39Z</time><name>PT6891</name></trkpt>
<trkpt lat="54.617990" lon="-3.088813"><ele>176</ele><time>2020-08-14T14:07:40Z</time><name>PT6892</name></trkpt>
<trkpt lat="54.617982" lon="-3.088808"><ele>176</ele><time>2020-08-14T14:07:41Z</time><name>PT6893</name></trkpt>
<trkpt lat="54.617977" lon="-3.088814"><ele>177</ele><time>2020-08-14T14:07:42Z</time><name>PT6894</name></trkpt>
<trkpt lat="54.617972" lon="-3.088819"><ele>177</ele><time>2020-08-14T14:07:43Z</time><name>PT6895</name></trkpt>
<trkpt lat="54.617964" lon="-3.088820"><ele>176</ele><time>2020-08-14T14:07:44Z</time><name>PT6896</name></trkpt>
<trkpt lat="54.617954" lon="-3.088809"><ele>175</ele><time>2020-08-14T14:07:45Z</time><name>PT6897</name></trkpt>
<trkpt lat="54.617933" lon="-3.088801"><ele>174</ele><time>2020-08-14T14:07:46Z</time><name>PT6898</name></trkpt>
<trkpt lat="54.617918" lon="-3.088795"><ele>174</ele><time>2020-08-14T14:07:47Z</time><name>PT6899</name></trkpt>
<trkpt lat="54.617902" lon="-3.088802"><ele>175</ele><time>2020-08-14T14:07:48Z</time><name>PT6900</name></trkpt>
<trkpt lat="54.617886" lon="-3.088812"><ele>175</ele><time>2020-08-14T14:07:49Z</time><name>PT6901</name></trkpt>
<trkpt lat="54.617875" lon="-3.088818"><ele>175</ele><time>2020-08-14T14:07:50Z</time><name>PT6902</name></trkpt>
<trkpt lat="54.617868" lon="-3.088820"><ele>175</ele><time>2020-08-14T14:07:51Z</time><name>PT6903</name></trkpt>
<trkpt lat="54.617861" lon="-3.088822"><ele>176</ele><time>2020-08-14T14:07:52Z</time><name>PT6904</name></trkpt>
<trkpt lat="54.617850" lon="-3.088823"><ele>176</ele><time>2020-08-14T14:07:53Z</time><name>PT6905</name></trkpt>
<trkpt lat="54.617833" lon="-3.088823"><ele>175</ele><time>2020-08-14T14:07:54Z</time><name>PT6906</name></trkpt>
<trkpt lat="54.617781" lon="-3.088829"><ele>175</ele><time>2020-08-14T14:07:57Z</time><name>PT6907</name></trkpt>
<trkpt lat="54.617754" lon="-3.088819"><ele>173</ele><time>2020-08-14T14:08:01Z</time><name>PT6908</name></trkpt>
<trkpt lat="54.617704" lon="-3.088800"><ele>173</ele><time>2020-08-14T14:08:05Z</time><name>PT6909</name></trkpt>
<trkpt lat="54.617627" lon="-3.088772"><ele>170</ele><time>2020-08-14T14:08:09Z</time><name>PT6910</name></trkpt>
<trkpt lat="54.617546" lon="-3.088746"><ele>169</ele><time>2020-08-14T14:08:13Z</time><name>PT6911</name></trkpt>
<trkpt lat="54.617521" lon="-3.088745"><ele>168</ele><time>2020-08-14T14:08:16Z</time><name>PT6912</name></trkpt>
<trkpt lat="54.617466" lon="-3.088749"><ele>168</ele><time>2020-08-14T14:08:19Z</time><name>PT6913</name></trkpt>
<trkpt lat="54.617444" lon="-3.088751"><ele>167</ele><time>2020-08-14T14:08:21Z</time><name>PT6914</name></trkpt>
<trkpt lat="54.617431" lon="-3.088753"><ele>168</ele><time>2020-08-14T14:08:22Z</time><name>PT6915</name></trkpt>
<trkpt lat="54.617416" lon="-3.088757"><ele>168</ele><time>2020-08-14T14:08:23Z</time><name>PT6916</name></trkpt>
<trkpt lat="54.617406" lon="-3.088756"><ele>168</ele><time>2020-08-14T14:08:24Z</time><name>PT6917</name></trkpt>
<trkpt lat="54.617391" lon="-3.088757"><ele>167</ele><time>2020-08-14T14:08:25Z</time><name>PT6918</name></trkpt>
<trkpt lat="54.617368" lon="-3.088760"><ele>167</ele><time>2020-08-14T14:08:26Z</time><name>PT6919</name></trkpt>
<trkpt lat="54.617347" lon="-3.088763"><ele>167</ele><time>2020-08-14T14:08:27Z</time><name>PT6920</name></trkpt>
<trkpt lat="54.617337" lon="-3.088766"><ele>167</ele><time>2020-08-14T14:08:28Z</time><name>PT6921</name></trkpt>
<trkpt lat="54.617331" lon="-3.088771"><ele>167</ele><time>2020-08-14T14:08:29Z</time><name>PT6922</name></trkpt>
<trkpt lat="54.617326" lon="-3.088776"><ele>167</ele><time>2020-08-14T14:08:30Z</time><name>PT6923</name></trkpt>
<trkpt lat="54.617316" lon="-3.088791"><ele>167</ele><time>2020-08-14T14:08:31Z</time><name>PT6924</name></trkpt>
<trkpt lat="54.617302" lon="-3.088815"><ele>167</ele><time>2020-08-14T14:08:32Z</time><name>PT6925</name></trkpt>
<trkpt lat="54.617287" lon="-3.088844"><ele>167</ele><time>2020-08-14T14:08:33Z</time><name>PT6926</name></trkpt>
<trkpt lat="54.617279" lon="-3.088864"><ele>167</ele><time>2020-08-14T14:08:34Z</time><name>PT6927</name></trkpt>
<trkpt lat="54.617268" lon="-3.088880"><ele>168</ele><time>2020-08-14T14:08:35Z</time><name>PT6928</name></trkpt>
<trkpt lat="54.617260" lon="-3.088891"><ele>168</ele><time>2020-08-14T14:08:36Z</time><name>PT6929</name></trkpt>
<trkpt lat="54.617255" lon="-3.088901"><ele>168</ele><time>2020-08-14T14:08:37Z</time><name>PT6930</name></trkpt>
<trkpt lat="54.617249" lon="-3.088909"><ele>168</ele><time>2020-08-14T14:08:38Z</time><name>PT6931</name></trkpt>
<trkpt lat="54.617235" lon="-3.088918"><ele>168</ele><time>2020-08-14T14:08:39Z</time><name>PT6932</name></trkpt>
<trkpt lat="54.617221" lon="-3.088943"><ele>168</ele><time>2020-08-14T14:08:40Z</time><name>PT6933</name></trkpt>
<trkpt lat="54.617219" lon="-3.088978"><ele>170</ele><time>2020-08-14T14:08:41Z</time><name>PT6934</name></trkpt>
<trkpt lat="54.617209" lon="-3.088997"><ele>170</ele><time>2020-08-14T14:08:42Z</time><name>PT6935</name></trkpt>
<trkpt lat="54.617203" lon="-3.089009"><ele>170</ele><time>2020-08-14T14:08:43Z</time><name>PT6936</name></trkpt>
<trkpt lat="54.617197" lon="-3.089010"><ele>170</ele><time>2020-08-14T14:08:44Z</time><name>PT6937</name></trkpt>
<trkpt lat="54.617192" lon="-3.089014"><ele>170</ele><time>2020-08-14T14:08:45Z</time><name>PT6938</name></trkpt>
<trkpt lat="54.617172" lon="-3.089041"><ele>170</ele><time>2020-08-14T14:08:47Z</time><name>PT6939</name></trkpt>
<trkpt lat="54.617158" lon="-3.089052"><ele>172</ele><time>2020-08-14T14:08:48Z</time><name>PT6940</name></trkpt>
<trkpt lat="54.617137" lon="-3.089056"><ele>172</ele><time>2020-08-14T14:08:49Z</time><name>PT6941</name></trkpt>
<trkpt lat="54.617126" lon="-3.089067"><ele>173</ele><time>2020-08-14T14:08:50Z</time><name>PT6942</name></trkpt>
<trkpt lat="54.617119" lon="-3.089081"><ele>172</ele><time>2020-08-14T14:08:51Z</time><name>PT6943</name></trkpt>
<trkpt lat="54.617113" lon="-3.089084"><ele>172</ele><time>2020-08-14T14:08:52Z</time><name>PT6944</name></trkpt>
<trkpt lat="54.617103" lon="-3.089095"><ele>171</ele><time>2020-08-14T14:08:53Z</time><name>PT6945</name></trkpt>
<trkpt lat="54.617091" lon="-3.089113"><ele>169</ele><time>2020-08-14T14:08:54Z</time><name>PT6946</name></trkpt>
<trkpt lat="54.617086" lon="-3.089122"><ele>169</ele><time>2020-08-14T14:08:55Z</time><name>PT6947</name></trkpt>
<trkpt lat="54.617076" lon="-3.089139"><ele>168</ele><time>2020-08-14T14:08:56Z</time><name>PT6948</name></trkpt>
<trkpt lat="54.617063" lon="-3.089155"><ele>168</ele><time>2020-08-14T14:08:57Z</time><name>PT6949</name></trkpt>
<trkpt lat="54.617059" lon="-3.089165"><ele>168</ele><time>2020-08-14T14:08:58Z</time><name>PT6950</name></trkpt>
<trkpt lat="54.617054" lon="-3.089170"><ele>168</ele><time>2020-08-14T14:08:59Z</time><name>PT6951</name></trkpt>
<trkpt lat="54.617049" lon="-3.089177"><ele>167</ele><time>2020-08-14T14:09:00Z</time><name>PT6952</name></trkpt>
<trkpt lat="54.617043" lon="-3.089192"><ele>166</ele><time>2020-08-14T14:09:01Z</time><name>PT6953</name></trkpt>
<trkpt lat="54.617033" lon="-3.089213"><ele>168</ele><time>2020-08-14T14:09:02Z</time><name>PT6954</name></trkpt>
<trkpt lat="54.617020" lon="-3.089238"><ele>167</ele><time>2020-08-14T14:09:03Z</time><name>PT6955</name></trkpt>
<trkpt lat="54.617005" lon="-3.089255"><ele>167</ele><time>2020-08-14T14:09:04Z</time><name>PT6956</name></trkpt>
<trkpt lat="54.617001" lon="-3.089257"><ele>168</ele><time>2020-08-14T14:09:05Z</time><name>PT6957</name></trkpt>
<trkpt lat="54.616999" lon="-3.089260"><ele>168</ele><time>2020-08-14T14:09:06Z</time><name>PT6958</name></trkpt>
<trkpt lat="54.616995" lon="-3.089263"><ele>168</ele><time>2020-08-14T14:09:07Z</time><name>PT6959</name></trkpt>
<trkpt lat="54.616988" lon="-3.089282"><ele>167</ele><time>2020-08-14T14:09:08Z</time><name>PT6960</name></trkpt>
<trkpt lat="54.616972" lon="-3.089313"><ele>167</ele><time>2020-08-14T14:09:09Z</time><name>PT6961</name></trkpt>
<trkpt lat="54.616960" lon="-3.089335"><ele>166</ele><time>2020-08-14T14:09:10Z</time><name>PT6962</name></trkpt>
<trkpt lat="54.616946" lon="-3.089361"><ele>166</ele><time>2020-08-14T14:09:11Z</time><name>PT6963</name></trkpt>
<trkpt lat="54.616936" lon="-3.089377"><ele>166</ele><time>2020-08-14T14:09:12Z</time><name>PT6964</name></trkpt>
<trkpt lat="54.616930" lon="-3.089382"><ele>165</ele><time>2020-08-14T14:09:13Z</time><name>PT6965</name></trkpt>
<trkpt lat="54.616925" lon="-3.089382"><ele>165</ele><time>2020-08-14T14:09:14Z</time><name>PT6966</name></trkpt>
<trkpt lat="54.616921" lon="-3.089395"><ele>164</ele><time>2020-08-14T14:09:15Z</time><name>PT6967</name></trkpt>
<trkpt lat="54.616912" lon="-3.089420"><ele>164</ele><time>2020-08-14T14:09:16Z</time><name>PT6968</name></trkpt>
<trkpt lat="54.616900" lon="-3.089434"><ele>162</ele><time>2020-08-14T14:09:17Z</time><name>PT6969</name></trkpt>
<trkpt lat="54.616889" lon="-3.089457"><ele>162</ele><time>2020-08-14T14:09:18Z</time><name>PT6970</name></trkpt>
<trkpt lat="54.616876" lon="-3.089485"><ele>163</ele><time>2020-08-14T14:09:19Z</time><name>PT6971</name></trkpt>
<trkpt lat="54.616867" lon="-3.089508"><ele>163</ele><time>2020-08-14T14:09:20Z</time><name>PT6972</name></trkpt>
<trkpt lat="54.616862" lon="-3.089516"><ele>163</ele><time>2020-08-14T14:09:21Z</time><name>PT6973</name></trkpt>
<trkpt lat="54.616857" lon="-3.089520"><ele>163</ele><time>2020-08-14T14:09:22Z</time><name>PT6974</name></trkpt>
<trkpt lat="54.616852" lon="-3.089528"><ele>162</ele><time>2020-08-14T14:09:23Z</time><name>PT6975</name></trkpt>
<trkpt lat="54.616841" lon="-3.089549"><ele>162</ele><time>2020-08-14T14:09:24Z</time><name>PT6976</name></trkpt>
<trkpt lat="54.616830" lon="-3.089575"><ele>163</ele><time>2020-08-14T14:09:25Z</time><name>PT6977</name></trkpt>
<trkpt lat="54.616815" lon="-3.089599"><ele>163</ele><time>2020-08-14T14:09:26Z</time><name>PT6978</name></trkpt>
<trkpt lat="54.616803" lon="-3.089601"><ele>162</ele><time>2020-08-14T14:09:27Z</time><name>PT6979</name></trkpt>
<trkpt lat="54.616801" lon="-3.089601"><ele>162</ele><time>2020-08-14T14:09:28Z</time><name>PT6980</name></trkpt>
<trkpt lat="54.616801" lon="-3.089606"><ele>163</ele><time>2020-08-14T14:09:29Z</time><name>PT6981</name></trkpt>
<trkpt lat="54.616787" lon="-3.089642"><ele>162</ele><time>2020-08-14T14:09:30Z</time><name>PT6982</name></trkpt>
<trkpt lat="54.616780" lon="-3.089669"><ele>162</ele><time>2020-08-14T14:09:31Z</time><name>PT6983</name></trkpt>
<trkpt lat="54.616772" lon="-3.089686"><ele>162</ele><time>2020-08-14T14:09:32Z</time><name>PT6984</name></trkpt>
<trkpt lat="54.616758" lon="-3.089718"><ele>162</ele><time>2020-08-14T14:09:33Z</time><name>PT6985</name></trkpt>
<trkpt lat="54.616749" lon="-3.089738"><ele>162</ele><time>2020-08-14T14:09:34Z</time><name>PT6986</name></trkpt>
<trkpt lat="54.616737" lon="-3.089755"><ele>162</ele><time>2020-08-14T14:09:35Z</time><name>PT6987</name></trkpt>
<trkpt lat="54.616730" lon="-3.089759"><ele>162</ele><time>2020-08-14T14:09:36Z</time><name>PT6988</name></trkpt>
<trkpt lat="54.616718" lon="-3.089775"><ele>162</ele><time>2020-08-14T14:09:37Z</time><name>PT6989</name></trkpt>
<trkpt lat="54.616708" lon="-3.089783"><ele>161</ele><time>2020-08-14T14:09:38Z</time><name>PT6990</name></trkpt>
<trkpt lat="54.616695" lon="-3.089795"><ele>160</ele><time>2020-08-14T14:09:39Z</time><name>PT6991</name></trkpt>
<trkpt lat="54.616676" lon="-3.089815"><ele>161</ele><time>2020-08-14T14:09:40Z</time><name>PT6992</name></trkpt>
<trkpt lat="54.616661" lon="-3.089833"><ele>161</ele><time>2020-08-14T14:09:41Z</time><name>PT6993</name></trkpt>
<trkpt lat="54.616655" lon="-3.089843"><ele>161</ele><time>2020-08-14T14:09:42Z</time><name>PT6994</name></trkpt>
<trkpt lat="54.616653" lon="-3.089842"><ele>161</ele><time>2020-08-14T14:09:43Z</time><name>PT6995</name></trkpt>
<trkpt lat="54.616651" lon="-3.089846"><ele>160</ele><time>2020-08-14T14:09:44Z</time><name>PT6996</name></trkpt>
<trkpt lat="54.616644" lon="-3.089857"><ele>161</ele><time>2020-08-14T14:09:45Z</time><name>PT6997</name></trkpt>
<trkpt lat="54.616632" lon="-3.089878"><ele>161</ele><time>2020-08-14T14:09:46Z</time><name>PT6998</name></trkpt>
<trkpt lat="54.616620" lon="-3.089905"><ele>162</ele><time>2020-08-14T14:09:47Z</time><name>PT6999</name></trkpt>
<trkpt lat="54.616609" lon="-3.089923"><ele>162</ele><time>2020-08-14T14:09:48Z</time><name>PT7000</name></trkpt>
<trkpt lat="54.616599" lon="-3.089933"><ele>162</ele><time>2020-08-14T14:09:49Z</time><name>PT7001</name></trkpt>
<trkpt lat="54.616594" lon="-3.089942"><ele>162</ele><time>2020-08-14T14:09:50Z</time><name>PT7002</name></trkpt>
<trkpt lat="54.616592" lon="-3.089960"><ele>162</ele><time>2020-08-14T14:09:51Z</time><name>PT7003</name></trkpt>
<trkpt lat="54.616589" lon="-3.089972"><ele>162</ele><time>2020-08-14T14:09:52Z</time><name>PT7004</name></trkpt>
<trkpt lat="54.616585" lon="-3.089965"><ele>161</ele><time>2020-08-14T14:09:53Z</time><name>PT7005</name></trkpt>
<trkpt lat="54.616578" lon="-3.089964"><ele>161</ele><time>2020-08-14T14:09:54Z</time><name>PT7006</name></trkpt>
<trkpt lat="54.616577" lon="-3.089964"><ele>161</ele><time>2020-08-14T14:09:55Z</time><name>PT7007</name></trkpt>
<trkpt lat="54.616573" lon="-3.089971"><ele>161</ele><time>2020-08-14T14:09:56Z</time><name>PT7008</name></trkpt>
<trkpt lat="54.616573" lon="-3.089983"><ele>161</ele><time>2020-08-14T14:09:57Z</time><name>PT7009</name></trkpt>
<trkpt lat="54.616566" lon="-3.089992"><ele>161</ele><time>2020-08-14T14:09:58Z</time><name>PT7010</name></trkpt>
<trkpt lat="54.616558" lon="-3.090001"><ele>160</ele><time>2020-08-14T14:09:59Z</time><name>PT7011</name></trkpt>
<trkpt lat="54.616549" lon="-3.090007"><ele>160</ele><time>2020-08-14T14:10:00Z</time><name>PT7012</name></trkpt>
<trkpt lat="54.616545" lon="-3.090018"><ele>160</ele><time>2020-08-14T14:10:01Z</time><name>PT7013</name></trkpt>
<trkpt lat="54.616538" lon="-3.090033"><ele>160</ele><time>2020-08-14T14:10:02Z</time><name>PT7014</name></trkpt>
<trkpt lat="54.616528" lon="-3.090044"><ele>160</ele><time>2020-08-14T14:10:03Z</time><name>PT7015</name></trkpt>
<trkpt lat="54.616516" lon="-3.090055"><ele>160</ele><time>2020-08-14T14:10:04Z</time><name>PT7016</name></trkpt>
<trkpt lat="54.616508" lon="-3.090064"><ele>159</ele><time>2020-08-14T14:10:05Z</time><name>PT7017</name></trkpt>
<trkpt lat="54.616502" lon="-3.090070"><ele>158</ele><time>2020-08-14T14:10:06Z</time><name>PT7018</name></trkpt>
<trkpt lat="54.616494" lon="-3.090080"><ele>158</ele><time>2020-08-14T14:10:07Z</time><name>PT7019</name></trkpt>
<trkpt lat="54.616490" lon="-3.090091"><ele>158</ele><time>2020-08-14T14:10:08Z</time><name>PT7020</name></trkpt>
<trkpt lat="54.616484" lon="-3.090102"><ele>158</ele><time>2020-08-14T14:10:09Z</time><name>PT7021</name></trkpt>
<trkpt lat="54.616474" lon="-3.090110"><ele>158</ele><time>2020-08-14T14:10:10Z</time><name>PT7022</name></trkpt>
<trkpt lat="54.616464" lon="-3.090113"><ele>157</ele><time>2020-08-14T14:10:11Z</time><name>PT7023</name></trkpt>
<trkpt lat="54.616454" lon="-3.090125"><ele>156</ele><time>2020-08-14T14:10:12Z</time><name>PT7024</name></trkpt>
<trkpt lat="54.616448" lon="-3.090142"><ele>156</ele><time>2020-08-14T14:10:13Z</time><name>PT7025</name></trkpt>
<trkpt lat="54.616443" lon="-3.090160"><ele>157</ele><time>2020-08-14T14:10:14Z</time><name>PT7026</name></trkpt>
<trkpt lat="54.616439" lon="-3.090178"><ele>157</ele><time>2020-08-14T14:10:15Z</time><name>PT7027</name></trkpt>
<trkpt lat="54.616437" lon="-3.090195"><ele>157</ele><time>2020-08-14T14:10:16Z</time><name>PT7028</name></trkpt>
<trkpt lat="54.616427" lon="-3.090220"><ele>157</ele><time>2020-08-14T14:10:17Z</time><name>PT7029</name></trkpt>
<trkpt lat="54.616423" lon="-3.090243"><ele>157</ele><time>2020-08-14T14:10:18Z</time><name>PT7030</name></trkpt>
<trkpt lat="54.616418" lon="-3.090262"><ele>157</ele><time>2020-08-14T14:10:19Z</time><name>PT7031</name></trkpt>
<trkpt lat="54.616411" lon="-3.090281"><ele>157</ele><time>2020-08-14T14:10:20Z</time><name>PT7032</name></trkpt>
<trkpt lat="54.616408" lon="-3.090296"><ele>157</ele><time>2020-08-14T14:10:21Z</time><name>PT7033</name></trkpt>
<trkpt lat="54.616404" lon="-3.090312"><ele>157</ele><time>2020-08-14T14:10:22Z</time><name>PT7034</name></trkpt>
<trkpt lat="54.616402" lon="-3.090331"><ele>156</ele><time>2020-08-14T14:10:23Z</time><name>PT7035</name></trkpt>
<trkpt lat="54.616401" lon="-3.090350"><ele>157</ele><time>2020-08-14T14:10:24Z</time><name>PT7036</name></trkpt>
<trkpt lat="54.616401" lon="-3.090367"><ele>156</ele><time>2020-08-14T14:10:25Z</time><name>PT7037</name></trkpt>
<trkpt lat="54.616399" lon="-3.090388"><ele>156</ele><time>2020-08-14T14:10:26Z</time><name>PT7038</name></trkpt>
<trkpt lat="54.616395" lon="-3.090406"><ele>156</ele><time>2020-08-14T14:10:27Z</time><name>PT7039</name></trkpt>
<trkpt lat="54.616394" lon="-3.090419"><ele>155</ele><time>2020-08-14T14:10:28Z</time><name>PT7040</name></trkpt>
<trkpt lat="54.616398" lon="-3.090425"><ele>154</ele><time>2020-08-14T14:10:29Z</time><name>PT7041</name></trkpt>
<trkpt lat="54.616395" lon="-3.090440"><ele>156</ele><time>2020-08-14T14:10:30Z</time><name>PT7042</name></trkpt>
<trkpt lat="54.616393" lon="-3.090437"><ele>155</ele><time>2020-08-14T14:10:31Z</time><name>PT7043</name></trkpt>
<trkpt lat="54.616388" lon="-3.090440"><ele>155</ele><time>2020-08-14T14:10:32Z</time><name>PT7044</name></trkpt>
<trkpt lat="54.616381" lon="-3.090450"><ele>156</ele><time>2020-08-14T14:10:33Z</time><name>PT7045</name></trkpt>
<trkpt lat="54.616377" lon="-3.090448"><ele>155</ele><time>2020-08-14T14:10:34Z</time><name>PT7046</name></trkpt>
<trkpt lat="54.616367" lon="-3.090449"><ele>154</ele><time>2020-08-14T14:10:35Z</time><name>PT7047</name></trkpt>
<trkpt lat="54.616359" lon="-3.090439"><ele>154</ele><time>2020-08-14T14:10:36Z</time><name>PT7048</name></trkpt>
<trkpt lat="54.616350" lon="-3.090433"><ele>154</ele><time>2020-08-14T14:10:37Z</time><name>PT7049</name></trkpt>
<trkpt lat="54.616343" lon="-3.090419"><ele>154</ele><time>2020-08-14T14:10:38Z</time><name>PT7050</name></trkpt>
<trkpt lat="54.616337" lon="-3.090410"><ele>153</ele><time>2020-08-14T14:10:39Z</time><name>PT7051</name></trkpt>
<trkpt lat="54.616334" lon="-3.090403"><ele>153</ele><time>2020-08-14T14:10:40Z</time><name>PT7052</name></trkpt>
<trkpt lat="54.616326" lon="-3.090398"><ele>152</ele><time>2020-08-14T14:10:41Z</time><name>PT7053</name></trkpt>
<trkpt lat="54.616317" lon="-3.090393"><ele>152</ele><time>2020-08-14T14:10:42Z</time><name>PT7054</name></trkpt>
<trkpt lat="54.616314" lon="-3.090395"><ele>151</ele><time>2020-08-14T14:10:43Z</time><name>PT7055</name></trkpt>
<trkpt lat="54.616304" lon="-3.090403"><ele>151</ele><time>2020-08-14T14:10:44Z</time><name>PT7056</name></trkpt>
<trkpt lat="54.616301" lon="-3.090402"><ele>150</ele><time>2020-08-14T14:10:45Z</time><name>PT7057</name></trkpt>
<trkpt lat="54.616296" lon="-3.090408"><ele>150</ele><time>2020-08-14T14:10:46Z</time><name>PT7058</name></trkpt>
<trkpt lat="54.616292" lon="-3.090410"><ele>150</ele><time>2020-08-14T14:10:47Z</time><name>PT7059</name></trkpt>
<trkpt lat="54.616289" lon="-3.090410"><ele>150</ele><time>2020-08-14T14:10:48Z</time><name>PT7060</name></trkpt>
<trkpt lat="54.616289" lon="-3.090412"><ele>150</ele><time>2020-08-14T14:10:49Z</time><name>PT7061</name></trkpt>
<trkpt lat="54.616287" lon="-3.090413"><ele>150</ele><time>2020-08-14T14:10:50Z</time><name>PT7062</name></trkpt>
<trkpt lat="54.616281" lon="-3.090414"><ele>149</ele><time>2020-08-14T14:11:07Z</time><name>PT7063</name></trkpt>
<trkpt lat="54.616270" lon="-3.090420"><ele>149</ele><time>2020-08-14T14:11:08Z</time><name>PT7064</name></trkpt>
<trkpt lat="54.616242" lon="-3.090447"><ele>150</ele><time>2020-08-14T14:11:09Z</time><name>PT7065</name></trkpt>
<trkpt lat="54.616237" lon="-3.090459"><ele>150</ele><time>2020-08-14T14:11:10Z</time><name>PT7066</name></trkpt>
<trkpt lat="54.616226" lon="-3.090466"><ele>149</ele><time>2020-08-14T14:11:11Z</time><name>PT7067</name></trkpt>
<trkpt lat="54.616212" lon="-3.090473"><ele>150</ele><time>2020-08-14T14:11:12Z</time><name>PT7068</name></trkpt>
<trkpt lat="54.616202" lon="-3.090473"><ele>149</ele><time>2020-08-14T14:11:13Z</time><name>PT7069</name></trkpt>
<trkpt lat="54.616185" lon="-3.090474"><ele>148</ele><time>2020-08-14T14:11:14Z</time><name>PT7070</name></trkpt>
<trkpt lat="54.616171" lon="-3.090479"><ele>149</ele><time>2020-08-14T14:11:15Z</time><name>PT7071</name></trkpt>
<trkpt lat="54.616164" lon="-3.090482"><ele>149</ele><time>2020-08-14T14:11:16Z</time><name>PT7072</name></trkpt>
<trkpt lat="54.616159" lon="-3.090481"><ele>149</ele><time>2020-08-14T14:11:17Z</time><name>PT7073</name></trkpt>
<trkpt lat="54.616158" lon="-3.090485"><ele>150</ele><time>2020-08-14T14:11:18Z</time><name>PT7074</name></trkpt>
<trkpt lat="54.616149" lon="-3.090494"><ele>151</ele><time>2020-08-14T14:11:19Z</time><name>PT7075</name></trkpt>
<trkpt lat="54.616137" lon="-3.090501"><ele>150</ele><time>2020-08-14T14:11:20Z</time><name>PT7076</name></trkpt>
<trkpt lat="54.616119" lon="-3.090520"><ele>152</ele><time>2020-08-14T14:11:24Z</time><name>PT7077</name></trkpt>
<trkpt lat="54.616108" lon="-3.090526"><ele>153</ele><time>2020-08-14T14:11:27Z</time><name>PT7078</name></trkpt>
<trkpt lat="54.616093" lon="-3.090531"><ele>154</ele><time>2020-08-14T14:11:29Z</time><name>PT7079</name></trkpt>
<trkpt lat="54.616092" lon="-3.090550"><ele>157</ele><time>2020-08-14T14:11:30Z</time><name>PT7080</name></trkpt>
<trkpt lat="54.616087" lon="-3.090557"><ele>158</ele><time>2020-08-14T14:11:31Z</time><name>PT7081</name></trkpt>
<trkpt lat="54.616078" lon="-3.090552"><ele>158</ele><time>2020-08-14T14:11:32Z</time><name>PT7082</name></trkpt>
<trkpt lat="54.616082" lon="-3.090558"><ele>158</ele><time>2020-08-14T14:11:36Z</time><name>PT7083</name></trkpt>
<trkpt lat="54.616084" lon="-3.090565"><ele>157</ele><time>2020-08-14T14:11:37Z</time><name>PT7084</name></trkpt>
<trkpt lat="54.616091" lon="-3.090564"><ele>158</ele><time>2020-08-14T14:11:38Z</time><name>PT7085</name></trkpt>
<trkpt lat="54.616098" lon="-3.090563"><ele>158</ele><time>2020-08-14T14:11:43Z</time><name>PT7086</name></trkpt>
<trkpt lat="54.616101" lon="-3.090560"><ele>158</ele><time>2020-08-14T14:11:44Z</time><name>PT7087</name></trkpt>
<trkpt lat="54.616104" lon="-3.090558"><ele>158</ele><time>2020-08-14T14:11:45Z</time><name>PT7088</name></trkpt>
<trkpt lat="54.616105" lon="-3.090565"><ele>158</ele><time>2020-08-14T14:11:46Z</time><name>PT7089</name></trkpt>
<trkpt lat="54.616105" lon="-3.090575"><ele>159</ele><time>2020-08-14T14:11:47Z</time><name>PT7090</name></trkpt>
<trkpt lat="54.616104" lon="-3.090582"><ele>159</ele><time>2020-08-14T14:11:48Z</time><name>PT7091</name></trkpt>
<trkpt lat="54.616100" lon="-3.090589"><ele>159</ele><time>2020-08-14T14:11:49Z</time><name>PT7092</name></trkpt>
<trkpt lat="54.616096" lon="-3.090583"><ele>159</ele><time>2020-08-14T14:11:50Z</time><name>PT7093</name></trkpt>
<trkpt lat="54.616088" lon="-3.090586"><ele>160</ele><time>2020-08-14T14:11:51Z</time><name>PT7094</name></trkpt>
<trkpt lat="54.616079" lon="-3.090590"><ele>161</ele><time>2020-08-14T14:11:52Z</time><name>PT7095</name></trkpt>
<trkpt lat="54.616066" lon="-3.090593"><ele>162</ele><time>2020-08-14T14:11:53Z</time><name>PT7096</name></trkpt>
<trkpt lat="54.616055" lon="-3.090589"><ele>162</ele><time>2020-08-14T14:11:54Z</time><name>PT7097</name></trkpt>
<trkpt lat="54.616042" lon="-3.090585"><ele>163</ele><time>2020-08-14T14:11:55Z</time><name>PT7098</name></trkpt>
<trkpt lat="54.616033" lon="-3.090583"><ele>164</ele><time>2020-08-14T14:11:56Z</time><name>PT7099</name></trkpt>
<trkpt lat="54.616023" lon="-3.090579"><ele>164</ele><time>2020-08-14T14:11:57Z</time><name>PT7100</name></trkpt>
<trkpt lat="54.616010" lon="-3.090566"><ele>165</ele><time>2020-08-14T14:11:58Z</time><name>PT7101</name></trkpt>
<trkpt lat="54.615996" lon="-3.090567"><ele>165</ele><time>2020-08-14T14:11:59Z</time><name>PT7102</name></trkpt>
<trkpt lat="54.615993" lon="-3.090562"><ele>165</ele><time>2020-08-14T14:12:00Z</time><name>PT7103</name></trkpt>
<trkpt lat="54.615985" lon="-3.090557"><ele>165</ele><time>2020-08-14T14:12:01Z</time><name>PT7104</name></trkpt>
<trkpt lat="54.615974" lon="-3.090546"><ele>166</ele><time>2020-08-14T14:12:02Z</time><name>PT7105</name></trkpt>
<trkpt lat="54.615964" lon="-3.090530"><ele>165</ele><time>2020-08-14T14:12:03Z</time><name>PT7106</name></trkpt>
<trkpt lat="54.615956" lon="-3.090516"><ele>166</ele><time>2020-08-14T14:12:04Z</time><name>PT7107</name></trkpt>
<trkpt lat="54.615949" lon="-3.090503"><ele>166</ele><time>2020-08-14T14:12:05Z</time><name>PT7108</name></trkpt>
<trkpt lat="54.615944" lon="-3.090488"><ele>164</ele><time>2020-08-14T14:12:06Z</time><name>PT7109</name></trkpt>
<trkpt lat="54.615929" lon="-3.090460"><ele>164</ele><time>2020-08-14T14:12:07Z</time><name>PT7110</name></trkpt>
<trkpt lat="54.615927" lon="-3.090440"><ele>164</ele><time>2020-08-14T14:12:08Z</time><name>PT7111</name></trkpt>
<trkpt lat="54.615925" lon="-3.090435"><ele>164</ele><time>2020-08-14T14:12:09Z</time><name>PT7112</name></trkpt>
<trkpt lat="54.615919" lon="-3.090431"><ele>163</ele><time>2020-08-14T14:12:10Z</time><name>PT7113</name></trkpt>
<trkpt lat="54.615913" lon="-3.090423"><ele>162</ele><time>2020-08-14T14:12:11Z</time><name>PT7114</name></trkpt>
<trkpt lat="54.615909" lon="-3.090414"><ele>162</ele><time>2020-08-14T14:12:12Z</time><name>PT7115</name></trkpt>
<trkpt lat="54.615907" lon="-3.090407"><ele>162</ele><time>2020-08-14T14:12:13Z</time><name>PT7116</name></trkpt>
<trkpt lat="54.615903" lon="-3.090398"><ele>162</ele><time>2020-08-14T14:12:14Z</time><name>PT7117</name></trkpt>
<trkpt lat="54.615896" lon="-3.090387"><ele>162</ele><time>2020-08-14T14:12:15Z</time><name>PT7118</name></trkpt>
<trkpt lat="54.615891" lon="-3.090373"><ele>162</ele><time>2020-08-14T14:12:16Z</time><name>PT7119</name></trkpt>
<trkpt lat="54.615889" lon="-3.090367"><ele>162</ele><time>2020-08-14T14:12:17Z</time><name>PT7120</name></trkpt>
<trkpt lat="54.615881" lon="-3.090363"><ele>161</ele><time>2020-08-14T14:12:18Z</time><name>PT7121</name></trkpt>
<trkpt lat="54.615876" lon="-3.090351"><ele>161</ele><time>2020-08-14T14:12:19Z</time><name>PT7122</name></trkpt>
<trkpt lat="54.615874" lon="-3.090331"><ele>162</ele><time>2020-08-14T14:12:20Z</time><name>PT7123</name></trkpt>
<trkpt lat="54.615870" lon="-3.090318"><ele>162</ele><time>2020-08-14T14:12:21Z</time><name>PT7124</name></trkpt>
<trkpt lat="54.615865" lon="-3.090309"><ele>161</ele><time>2020-08-14T14:12:22Z</time><name>PT7125</name></trkpt>
<trkpt lat="54.615859" lon="-3.090296"><ele>161</ele><time>2020-08-14T14:12:23Z</time><name>PT7126</name></trkpt>
<trkpt lat="54.615847" lon="-3.090285"><ele>160</ele><time>2020-08-14T14:12:24Z</time><name>PT7127</name></trkpt>
<trkpt lat="54.615832" lon="-3.090274"><ele>160</ele><time>2020-08-14T14:12:25Z</time><name>PT7128</name></trkpt>
<trkpt lat="54.615822" lon="-3.090273"><ele>160</ele><time>2020-08-14T14:12:26Z</time><name>PT7129</name></trkpt>
<trkpt lat="54.615817" lon="-3.090263"><ele>159</ele><time>2020-08-14T14:12:27Z</time><name>PT7130</name></trkpt>
<trkpt lat="54.615805" lon="-3.090246"><ele>159</ele><time>2020-08-14T14:12:28Z</time><name>PT7131</name></trkpt>
<trkpt lat="54.615798" lon="-3.090234"><ele>159</ele><time>2020-08-14T14:12:29Z</time><name>PT7132</name></trkpt>
<trkpt lat="54.615792" lon="-3.090220"><ele>158</ele><time>2020-08-14T14:12:30Z</time><name>PT7133</name></trkpt>
<trkpt lat="54.615789" lon="-3.090214"><ele>159</ele><time>2020-08-14T14:12:31Z</time><name>PT7134</name></trkpt>
<trkpt lat="54.615784" lon="-3.090203"><ele>158</ele><time>2020-08-14T14:12:32Z</time><name>PT7135</name></trkpt>
<trkpt lat="54.615781" lon="-3.090193"><ele>159</ele><time>2020-08-14T14:12:33Z</time><name>PT7136</name></trkpt>
<trkpt lat="54.615775" lon="-3.090188"><ele>160</ele><time>2020-08-14T14:12:34Z</time><name>PT7137</name></trkpt>
<trkpt lat="54.615772" lon="-3.090187"><ele>160</ele><time>2020-08-14T14:12:35Z</time><name>PT7138</name></trkpt>
<trkpt lat="54.615765" lon="-3.090190"><ele>160</ele><time>2020-08-14T14:12:36Z</time><name>PT7139</name></trkpt>
<trkpt lat="54.615757" lon="-3.090178"><ele>160</ele><time>2020-08-14T14:12:37Z</time><name>PT7140</name></trkpt>
<trkpt lat="54.615750" lon="-3.090163"><ele>160</ele><time>2020-08-14T14:12:38Z</time><name>PT7141</name></trkpt>
<trkpt lat="54.615746" lon="-3.090153"><ele>160</ele><time>2020-08-14T14:12:39Z</time><name>PT7142</name></trkpt>
<trkpt lat="54.615741" lon="-3.090148"><ele>160</ele><time>2020-08-14T14:12:40Z</time><name>PT7143</name></trkpt>
<trkpt lat="54.615735" lon="-3.090138"><ele>161</ele><time>2020-08-14T14:12:41Z</time><name>PT7144</name></trkpt>
<trkpt lat="54.615729" lon="-3.090124"><ele>161</ele><time>2020-08-14T14:12:42Z</time><name>PT7145</name></trkpt>
<trkpt lat="54.615723" lon="-3.090121"><ele>161</ele><time>2020-08-14T14:12:43Z</time><name>PT7146</name></trkpt>
<trkpt lat="54.615717" lon="-3.090118"><ele>161</ele><time>2020-08-14T14:12:44Z</time><name>PT7147</name></trkpt>
<trkpt lat="54.615712" lon="-3.090106"><ele>161</ele><time>2020-08-14T14:12:45Z</time><name>PT7148</name></trkpt>
<trkpt lat="54.615705" lon="-3.090094"><ele>162</ele><time>2020-08-14T14:12:46Z</time><name>PT7149</name></trkpt>
<trkpt lat="54.615701" lon="-3.090077"><ele>160</ele><time>2020-08-14T14:12:47Z</time><name>PT7150</name></trkpt>
<trkpt lat="54.615691" lon="-3.090066"><ele>158</ele><time>2020-08-14T14:12:48Z</time><name>PT7151</name></trkpt>
<trkpt lat="54.615682" lon="-3.090057"><ele>158</ele><time>2020-08-14T14:12:49Z</time><name>PT7152</name></trkpt>
<trkpt lat="54.615671" lon="-3.090052"><ele>158</ele><time>2020-08-14T14:12:50Z</time><name>PT7153</name></trkpt>
<trkpt lat="54.615663" lon="-3.090046"><ele>158</ele><time>2020-08-14T14:12:51Z</time><name>PT7154</name></trkpt>
<trkpt lat="54.615658" lon="-3.090035"><ele>158</ele><time>2020-08-14T14:12:52Z</time><name>PT7155</name></trkpt>
<trkpt lat="54.615654" lon="-3.090025"><ele>158</ele><time>2020-08-14T14:12:53Z</time><name>PT7156</name></trkpt>
<trkpt lat="54.615649" lon="-3.090016"><ele>159</ele><time>2020-08-14T14:12:54Z</time><name>PT7157</name></trkpt>
<trkpt lat="54.615647" lon="-3.090008"><ele>159</ele><time>2020-08-14T14:12:55Z</time><name>PT7158</name></trkpt>
<trkpt lat="54.615643" lon="-3.089992"><ele>159</ele><time>2020-08-14T14:12:56Z</time><name>PT7159</name></trkpt>
<trkpt lat="54.615636" lon="-3.089978"><ele>159</ele><time>2020-08-14T14:12:57Z</time><name>PT7160</name></trkpt>
<trkpt lat="54.615631" lon="-3.089969"><ele>159</ele><time>2020-08-14T14:12:58Z</time><name>PT7161</name></trkpt>
<trkpt lat="54.615628" lon="-3.089960"><ele>159</ele><time>2020-08-14T14:12:59Z</time><name>PT7162</name></trkpt>
<trkpt lat="54.615624" lon="-3.089945"><ele>158</ele><time>2020-08-14T14:13:00Z</time><name>PT7163</name></trkpt>
<trkpt lat="54.615621" lon="-3.089927"><ele>159</ele><time>2020-08-14T14:13:01Z</time><name>PT7164</name></trkpt>
<trkpt lat="54.615617" lon="-3.089917"><ele>160</ele><time>2020-08-14T14:13:02Z</time><name>PT7165</name></trkpt>
<trkpt lat="54.615615" lon="-3.089918"><ele>160</ele><time>2020-08-14T14:13:03Z</time><name>PT7166</name></trkpt>
<trkpt lat="54.615610" lon="-3.089906"><ele>160</ele><time>2020-08-14T14:13:04Z</time><name>PT7167</name></trkpt>
<trkpt lat="54.615608" lon="-3.089890"><ele>161</ele><time>2020-08-14T14:13:05Z</time><name>PT7168</name></trkpt>
<trkpt lat="54.615599" lon="-3.089891"><ele>162</ele><time>2020-08-14T14:13:06Z</time><name>PT7169</name></trkpt>
<trkpt lat="54.615596" lon="-3.089885"><ele>162</ele><time>2020-08-14T14:13:07Z</time><name>PT7170</name></trkpt>
<trkpt lat="54.615589" lon="-3.089876"><ele>161</ele><time>2020-08-14T14:13:08Z</time><name>PT7171</name></trkpt>
<trkpt lat="54.615583" lon="-3.089869"><ele>161</ele><time>2020-08-14T14:13:09Z</time><name>PT7172</name></trkpt>
<trkpt lat="54.615577" lon="-3.089858"><ele>162</ele><time>2020-08-14T14:13:10Z</time><name>PT7173</name></trkpt>
<trkpt lat="54.615570" lon="-3.089855"><ele>162</ele><time>2020-08-14T14:13:11Z</time><name>PT7174</name></trkpt>
<trkpt lat="54.615559" lon="-3.089849"><ele>162</ele><time>2020-08-14T14:13:12Z</time><name>PT7175</name></trkpt>
<trkpt lat="54.615549" lon="-3.089839"><ele>163</ele><time>2020-08-14T14:13:13Z</time><name>PT7176</name></trkpt>
<trkpt lat="54.615545" lon="-3.089825"><ele>163</ele><time>2020-08-14T14:13:14Z</time><name>PT7177</name></trkpt>
<trkpt lat="54.615538" lon="-3.089812"><ele>163</ele><time>2020-08-14T14:13:15Z</time><name>PT7178</name></trkpt>
<trkpt lat="54.615530" lon="-3.089799"><ele>163</ele><time>2020-08-14T14:13:16Z</time><name>PT7179</name></trkpt>
<trkpt lat="54.615524" lon="-3.089783"><ele>163</ele><time>2020-08-14T14:13:17Z</time><name>PT7180</name></trkpt>
<trkpt lat="54.615518" lon="-3.089779"><ele>163</ele><time>2020-08-14T14:13:18Z</time><name>PT7181</name></trkpt>
<trkpt lat="54.615511" lon="-3.089779"><ele>162</ele><time>2020-08-14T14:13:19Z</time><name>PT7182</name></trkpt>
<trkpt lat="54.615504" lon="-3.089781"><ele>162</ele><time>2020-08-14T14:13:20Z</time><name>PT7183</name></trkpt>
<trkpt lat="54.615496" lon="-3.089789"><ele>162</ele><time>2020-08-14T14:13:21Z</time><name>PT7184</name></trkpt>
<trkpt lat="54.615492" lon="-3.089791"><ele>163</ele><time>2020-08-14T14:13:22Z</time><name>PT7185</name></trkpt>
<trkpt lat="54.615490" lon="-3.089798"><ele>163</ele><time>2020-08-14T14:13:23Z</time><name>PT7186</name></trkpt>
<trkpt lat="54.615488" lon="-3.089807"><ele>162</ele><time>2020-08-14T14:13:24Z</time><name>PT7187</name></trkpt>
<trkpt lat="54.615487" lon="-3.089821"><ele>162</ele><time>2020-08-14T14:13:25Z</time><name>PT7188</name></trkpt>
<trkpt lat="54.615484" lon="-3.089836"><ele>162</ele><time>2020-08-14T14:13:26Z</time><name>PT7189</name></trkpt>
<trkpt lat="54.615482" lon="-3.089845"><ele>161</ele><time>2020-08-14T14:13:27Z</time><name>PT7190</name></trkpt>
<trkpt lat="54.615483" lon="-3.089856"><ele>161</ele><time>2020-08-14T14:13:28Z</time><name>PT7191</name></trkpt>
<trkpt lat="54.615486" lon="-3.089874"><ele>161</ele><time>2020-08-14T14:13:29Z</time><name>PT7192</name></trkpt>
<trkpt lat="54.615490" lon="-3.089887"><ele>162</ele><time>2020-08-14T14:13:30Z</time><name>PT7193</name></trkpt>
<trkpt lat="54.615490" lon="-3.089908"><ele>162</ele><time>2020-08-14T14:13:31Z</time><name>PT7194</name></trkpt>
<trkpt lat="54.615498" lon="-3.089937"><ele>164</ele><time>2020-08-14T14:13:32Z</time><name>PT7195</name></trkpt>
<trkpt lat="54.615509" lon="-3.089953"><ele>166</ele><time>2020-08-14T14:13:33Z</time><name>PT7196</name></trkpt>
<trkpt lat="54.615520" lon="-3.089958"><ele>167</ele><time>2020-08-14T14:13:34Z</time><name>PT7197</name></trkpt>
<trkpt lat="54.615523" lon="-3.089972"><ele>169</ele><time>2020-08-14T14:13:35Z</time><name>PT7198</name></trkpt>
<trkpt lat="54.615529" lon="-3.089985"><ele>170</ele><time>2020-08-14T14:13:36Z</time><name>PT7199</name></trkpt>
<trkpt lat="54.615533" lon="-3.089996"><ele>170</ele><time>2020-08-14T14:13:37Z</time><name>PT7200</name></trkpt>
<trkpt lat="54.615536" lon="-3.090010"><ele>171</ele><time>2020-08-14T14:13:38Z</time><name>PT7201</name></trkpt>
<trkpt lat="54.615540" lon="-3.090022"><ele>171</ele><time>2020-08-14T14:13:39Z</time><name>PT7202</name></trkpt>
<trkpt lat="54.615545" lon="-3.090032"><ele>171</ele><time>2020-08-14T14:13:40Z</time><name>PT7203</name></trkpt>
<trkpt lat="54.615541" lon="-3.090044"><ele>170</ele><time>2020-08-14T14:13:41Z</time><name>PT7204</name></trkpt>
<trkpt lat="54.615546" lon="-3.090056"><ele>171</ele><time>2020-08-14T14:13:42Z</time><name>PT7205</name></trkpt>
<trkpt lat="54.615550" lon="-3.090072"><ele>171</ele><time>2020-08-14T14:13:43Z</time><name>PT7206</name></trkpt>
<trkpt lat="54.615555" lon="-3.090083"><ele>171</ele><time>2020-08-14T14:13:44Z</time><name>PT7207</name></trkpt>
<trkpt lat="54.615560" lon="-3.090100"><ele>172</ele><time>2020-08-14T14:13:45Z</time><name>PT7208</name></trkpt>
<trkpt lat="54.615561" lon="-3.090114"><ele>172</ele><time>2020-08-14T14:13:46Z</time><name>PT7209</name></trkpt>
<trkpt lat="54.615563" lon="-3.090132"><ele>172</ele><time>2020-08-14T14:13:47Z</time><name>PT7210</name></trkpt>
<trkpt lat="54.615569" lon="-3.090150"><ele>172</ele><time>2020-08-14T14:13:48Z</time><name>PT7211</name></trkpt>
<trkpt lat="54.615575" lon="-3.090162"><ele>172</ele><time>2020-08-14T14:13:49Z</time><name>PT7212</name></trkpt>
<trkpt lat="54.615580" lon="-3.090177"><ele>172</ele><time>2020-08-14T14:13:50Z</time><name>PT7213</name></trkpt>
<trkpt lat="54.615583" lon="-3.090190"><ele>172</ele><time>2020-08-14T14:13:51Z</time><name>PT7214</name></trkpt>
<trkpt lat="54.615584" lon="-3.090204"><ele>172</ele><time>2020-08-14T14:13:52Z</time><name>PT7215</name></trkpt>
<trkpt lat="54.615587" lon="-3.090217"><ele>173</ele><time>2020-08-14T14:13:53Z</time><name>PT7216</name></trkpt>
<trkpt lat="54.615592" lon="-3.090232"><ele>173</ele><time>2020-08-14T14:13:54Z</time><name>PT7217</name></trkpt>
<trkpt lat="54.615596" lon="-3.090241"><ele>172</ele><time>2020-08-14T14:13:55Z</time><name>PT7218</name></trkpt>
<trkpt lat="54.615600" lon="-3.090254"><ele>172</ele><time>2020-08-14T14:13:56Z</time><name>PT7219</name></trkpt>
<trkpt lat="54.615604" lon="-3.090269"><ele>172</ele><time>2020-08-14T14:13:57Z</time><name>PT7220</name></trkpt>
<trkpt lat="54.615608" lon="-3.090284"><ele>172</ele><time>2020-08-14T14:13:58Z</time><name>PT7221</name></trkpt>
<trkpt lat="54.615611" lon="-3.090306"><ele>172</ele><time>2020-08-14T14:13:59Z</time><name>PT7222</name></trkpt>
<trkpt lat="54.615616" lon="-3.090325"><ele>172</ele><time>2020-08-14T14:14:00Z</time><name>PT7223</name></trkpt>
<trkpt lat="54.615620" lon="-3.090342"><ele>173</ele><time>2020-08-14T14:14:01Z</time><name>PT7224</name></trkpt>
<trkpt lat="54.615625" lon="-3.090355"><ele>173</ele><time>2020-08-14T14:14:02Z</time><name>PT7225</name></trkpt>
<trkpt lat="54.615626" lon="-3.090373"><ele>173</ele><time>2020-08-14T14:14:03Z</time><name>PT7226</name></trkpt>
<trkpt lat="54.615631" lon="-3.090392"><ele>174</ele><time>2020-08-14T14:14:04Z</time><name>PT7227</name></trkpt>
<trkpt lat="54.615636" lon="-3.090409"><ele>174</ele><time>2020-08-14T14:14:05Z</time><name>PT7228</name></trkpt>
<trkpt lat="54.615640" lon="-3.090419"><ele>174</ele><time>2020-08-14T14:14:06Z</time><name>PT7229</name></trkpt>
<trkpt lat="54.615643" lon="-3.090430"><ele>174</ele><time>2020-08-14T14:14:07Z</time><name>PT7230</name></trkpt>
<trkpt lat="54.615644" lon="-3.090448"><ele>174</ele><time>2020-08-14T14:14:08Z</time><name>PT7231</name></trkpt>
<trkpt lat="54.615647" lon="-3.090469"><ele>176</ele><time>2020-08-14T14:14:09Z</time><name>PT7232</name></trkpt>
<trkpt lat="54.615651" lon="-3.090483"><ele>176</ele><time>2020-08-14T14:14:10Z</time><name>PT7233</name></trkpt>
<trkpt lat="54.615656" lon="-3.090495"><ele>176</ele><time>2020-08-14T14:14:11Z</time><name>PT7234</name></trkpt>
<trkpt lat="54.615660" lon="-3.090514"><ele>176</ele><time>2020-08-14T14:14:12Z</time><name>PT7235</name></trkpt>
<trkpt lat="54.615668" lon="-3.090536"><ele>177</ele><time>2020-08-14T14:14:13Z</time><name>PT7236</name></trkpt>
<trkpt lat="54.615675" lon="-3.090561"><ele>177</ele><time>2020-08-14T14:14:14Z</time><name>PT7237</name></trkpt>
<trkpt lat="54.615682" lon="-3.090574"><ele>178</ele><time>2020-08-14T14:14:15Z</time><name>PT7238</name></trkpt>
<trkpt lat="54.615684" lon="-3.090587"><ele>179</ele><time>2020-08-14T14:14:16Z</time><name>PT7239</name></trkpt>
<trkpt lat="54.615688" lon="-3.090603"><ele>179</ele><time>2020-08-14T14:14:17Z</time><name>PT7240</name></trkpt>
<trkpt lat="54.615692" lon="-3.090626"><ele>180</ele><time>2020-08-14T14:14:18Z</time><name>PT7241</name></trkpt>
<trkpt lat="54.615699" lon="-3.090648"><ele>180</ele><time>2020-08-14T14:14:19Z</time><name>PT7242</name></trkpt>
<trkpt lat="54.615704" lon="-3.090651"><ele>180</ele><time>2020-08-14T14:14:20Z</time><name>PT7243</name></trkpt>
<trkpt lat="54.615711" lon="-3.090662"><ele>181</ele><time>2020-08-14T14:14:21Z</time><name>PT7244</name></trkpt>
<trkpt lat="54.615714" lon="-3.090680"><ele>181</ele><time>2020-08-14T14:14:22Z</time><name>PT7245</name></trkpt>
<trkpt lat="54.615717" lon="-3.090702"><ele>181</ele><time>2020-08-14T14:14:23Z</time><name>PT7246</name></trkpt>
<trkpt lat="54.615721" lon="-3.090723"><ele>182</ele><time>2020-08-14T14:14:24Z</time><name>PT7247</name></trkpt>
<trkpt lat="54.615727" lon="-3.090731"><ele>182</ele><time>2020-08-14T14:14:25Z</time><name>PT7248</name></trkpt>
<trkpt lat="54.615734" lon="-3.090739"><ele>182</ele><time>2020-08-14T14:14:26Z</time><name>PT7249</name></trkpt>
<trkpt lat="54.615735" lon="-3.090757"><ele>182</ele><time>2020-08-14T14:14:27Z</time><name>PT7250</name></trkpt>
<trkpt lat="54.615738" lon="-3.090775"><ele>181</ele><time>2020-08-14T14:14:28Z</time><name>PT7251</name></trkpt>
<trkpt lat="54.615744" lon="-3.090795"><ele>181</ele><time>2020-08-14T14:14:29Z</time><name>PT7252</name></trkpt>
<trkpt lat="54.615774" lon="-3.090849"><ele>180</ele><time>2020-08-14T14:14:33Z</time><name>PT7253</name></trkpt>
<trkpt lat="54.615801" lon="-3.090905"><ele>180</ele><time>2020-08-14T14:14:37Z</time><name>PT7254</name></trkpt>
<trkpt lat="54.615819" lon="-3.090974"><ele>178</ele><time>2020-08-14T14:14:41Z</time><name>PT7255</name></trkpt>
<trkpt lat="54.615838" lon="-3.091039"><ele>178</ele><time>2020-08-14T14:14:45Z</time><name>PT7256</name></trkpt>
<trkpt lat="54.615859" lon="-3.091108"><ele>178</ele><time>2020-08-14T14:14:49Z</time><name>PT7257</name></trkpt>
<trkpt lat="54.615864" lon="-3.091158"><ele>178</ele><time>2020-08-14T14:14:52Z</time><name>PT7258</name></trkpt>
<trkpt lat="54.615895" lon="-3.091226"><ele>182</ele><time>2020-08-14T14:14:56Z</time><name>PT7259</name></trkpt>
<trkpt lat="54.615920" lon="-3.091269"><ele>184</ele><time>2020-08-14T14:15:00Z</time><name>PT7260</name></trkpt>
<trkpt lat="54.615936" lon="-3.091306"><ele>185</ele><time>2020-08-14T14:15:03Z</time><name>PT7261</name></trkpt>
<trkpt lat="54.615959" lon="-3.091349"><ele>188</ele><time>2020-08-14T14:15:07Z</time><name>PT7262</name></trkpt>
<trkpt lat="54.615974" lon="-3.091398"><ele>189</ele><time>2020-08-14T14:15:10Z</time><name>PT7263</name></trkpt>
<trkpt lat="54.615985" lon="-3.091457"><ele>187</ele><time>2020-08-14T14:15:13Z</time><name>PT7264</name></trkpt>
<trkpt lat="54.615997" lon="-3.091473"><ele>185</ele><time>2020-08-14T14:15:15Z</time><name>PT7265</name></trkpt>
<trkpt lat="54.616001" lon="-3.091489"><ele>185</ele><time>2020-08-14T14:15:16Z</time><name>PT7266</name></trkpt>
<trkpt lat="54.616004" lon="-3.091501"><ele>185</ele><time>2020-08-14T14:15:17Z</time><name>PT7267</name></trkpt>
<trkpt lat="54.616005" lon="-3.091517"><ele>185</ele><time>2020-08-14T14:15:18Z</time><name>PT7268</name></trkpt>
<trkpt lat="54.616009" lon="-3.091531"><ele>185</ele><time>2020-08-14T14:15:19Z</time><name>PT7269</name></trkpt>
<trkpt lat="54.616013" lon="-3.091544"><ele>185</ele><time>2020-08-14T14:15:20Z</time><name>PT7270</name></trkpt>
<trkpt lat="54.616019" lon="-3.091553"><ele>185</ele><time>2020-08-14T14:15:21Z</time><name>PT7271</name></trkpt>
<trkpt lat="54.616025" lon="-3.091563"><ele>185</ele><time>2020-08-14T14:15:22Z</time><name>PT7272</name></trkpt>
<trkpt lat="54.616031" lon="-3.091575"><ele>185</ele><time>2020-08-14T14:15:23Z</time><name>PT7273</name></trkpt>
<trkpt lat="54.616035" lon="-3.091596"><ele>186</ele><time>2020-08-14T14:15:24Z</time><name>PT7274</name></trkpt>
<trkpt lat="54.616042" lon="-3.091605"><ele>186</ele><time>2020-08-14T14:15:25Z</time><name>PT7275</name></trkpt>
<trkpt lat="54.616047" lon="-3.091619"><ele>186</ele><time>2020-08-14T14:15:26Z</time><name>PT7276</name></trkpt>
<trkpt lat="54.616055" lon="-3.091631"><ele>186</ele><time>2020-08-14T14:15:27Z</time><name>PT7277</name></trkpt>
<trkpt lat="54.616061" lon="-3.091639"><ele>186</ele><time>2020-08-14T14:15:28Z</time><name>PT7278</name></trkpt>
<trkpt lat="54.616065" lon="-3.091653"><ele>187</ele><time>2020-08-14T14:15:29Z</time><name>PT7279</name></trkpt>
<trkpt lat="54.616072" lon="-3.091671"><ele>187</ele><time>2020-08-14T14:15:30Z</time><name>PT7280</name></trkpt>
<trkpt lat="54.616077" lon="-3.091687"><ele>188</ele><time>2020-08-14T14:15:31Z</time><name>PT7281</name></trkpt>
<trkpt lat="54.616083" lon="-3.091700"><ele>187</ele><time>2020-08-14T14:15:32Z</time><name>PT7282</name></trkpt>
<trkpt lat="54.616090" lon="-3.091713"><ele>188</ele><time>2020-08-14T14:15:33Z</time><name>PT7283</name></trkpt>
<trkpt lat="54.616099" lon="-3.091719"><ele>188</ele><time>2020-08-14T14:15:34Z</time><name>PT7284</name></trkpt>
<trkpt lat="54.616105" lon="-3.091733"><ele>188</ele><time>2020-08-14T14:15:35Z</time><name>PT7285</name></trkpt>
<trkpt lat="54.616108" lon="-3.091748"><ele>188</ele><time>2020-08-14T14:15:36Z</time><name>PT7286</name></trkpt>
<trkpt lat="54.616116" lon="-3.091759"><ele>188</ele><time>2020-08-14T14:15:37Z</time><name>PT7287</name></trkpt>
<trkpt lat="54.616124" lon="-3.091777"><ele>189</ele><time>2020-08-14T14:15:38Z</time><name>PT7288</name></trkpt>
<trkpt lat="54.616130" lon="-3.091784"><ele>190</ele><time>2020-08-14T14:15:39Z</time><name>PT7289</name></trkpt>
<trkpt lat="54.616132" lon="-3.091789"><ele>189</ele><time>2020-08-14T14:15:40Z</time><name>PT7290</name></trkpt>
<trkpt lat="54.616137" lon="-3.091801"><ele>189</ele><time>2020-08-14T14:15:41Z</time><name>PT7291</name></trkpt>
<trkpt lat="54.616143" lon="-3.091814"><ele>189</ele><time>2020-08-14T14:15:42Z</time><name>PT7292</name></trkpt>
<trkpt lat="54.616149" lon="-3.091822"><ele>189</ele><time>2020-08-14T14:15:43Z</time><name>PT7293</name></trkpt>
<trkpt lat="54.616156" lon="-3.091827"><ele>189</ele><time>2020-08-14T14:15:44Z</time><name>PT7294</name></trkpt>
<trkpt lat="54.616168" lon="-3.091834"><ele>189</ele><time>2020-08-14T14:15:45Z</time><name>PT7295</name></trkpt>
<trkpt lat="54.616178" lon="-3.091848"><ele>189</ele><time>2020-08-14T14:15:46Z</time><name>PT7296</name></trkpt>
<trkpt lat="54.616183" lon="-3.091864"><ele>190</ele><time>2020-08-14T14:15:47Z</time><name>PT7297</name></trkpt>
<trkpt lat="54.616187" lon="-3.091877"><ele>191</ele><time>2020-08-14T14:15:48Z</time><name>PT7298</name></trkpt>
<trkpt lat="54.616192" lon="-3.091894"><ele>191</ele><time>2020-08-14T14:15:49Z</time><name>PT7299</name></trkpt>
<trkpt lat="54.616200" lon="-3.091910"><ele>192</ele><time>2020-08-14T14:15:50Z</time><name>PT7300</name></trkpt>
<trkpt lat="54.616205" lon="-3.091932"><ele>192</ele><time>2020-08-14T14:15:51Z</time><name>PT7301</name></trkpt>
<trkpt lat="54.616210" lon="-3.091940"><ele>192</ele><time>2020-08-14T14:15:52Z</time><name>PT7302</name></trkpt>
<trkpt lat="54.616214" lon="-3.091952"><ele>192</ele><time>2020-08-14T14:15:53Z</time><name>PT7303</name></trkpt>
<trkpt lat="54.616224" lon="-3.091962"><ele>192</ele><time>2020-08-14T14:15:54Z</time><name>PT7304</name></trkpt>
<trkpt lat="54.616230" lon="-3.091976"><ele>192</ele><time>2020-08-14T14:15:55Z</time><name>PT7305</name></trkpt>
<trkpt lat="54.616235" lon="-3.091992"><ele>192</ele><time>2020-08-14T14:15:56Z</time><name>PT7306</name></trkpt>
<trkpt lat="54.616240" lon="-3.092004"><ele>191</ele><time>2020-08-14T14:15:57Z</time><name>PT7307</name></trkpt>
<trkpt lat="54.616246" lon="-3.092018"><ele>192</ele><time>2020-08-14T14:15:58Z</time><name>PT7308</name></trkpt>
<trkpt lat="54.616251" lon="-3.092035"><ele>192</ele><time>2020-08-14T14:15:59Z</time><name>PT7309</name></trkpt>
<trkpt lat="54.616259" lon="-3.092051"><ele>192</ele><time>2020-08-14T14:16:00Z</time><name>PT7310</name></trkpt>
<trkpt lat="54.616266" lon="-3.092054"><ele>192</ele><time>2020-08-14T14:16:01Z</time><name>PT7311</name></trkpt>
<trkpt lat="54.616271" lon="-3.092064"><ele>192</ele><time>2020-08-14T14:16:02Z</time><name>PT7312</name></trkpt>
<trkpt lat="54.616276" lon="-3.092081"><ele>193</ele><time>2020-08-14T14:16:03Z</time><name>PT7313</name></trkpt>
<trkpt lat="54.616283" lon="-3.092089"><ele>193</ele><time>2020-08-14T14:16:04Z</time><name>PT7314</name></trkpt>
<trkpt lat="54.616287" lon="-3.092097"><ele>194</ele><time>2020-08-14T14:16:05Z</time><name>PT7315</name></trkpt>
<trkpt lat="54.616289" lon="-3.092102"><ele>194</ele><time>2020-08-14T14:16:06Z</time><name>PT7316</name></trkpt>
<trkpt lat="54.616289" lon="-3.092106"><ele>194</ele><time>2020-08-14T14:16:07Z</time><name>PT7317</name></trkpt>
<trkpt lat="54.616282" lon="-3.092117"><ele>195</ele><time>2020-08-14T14:16:08Z</time><name>PT7318</name></trkpt>
<trkpt lat="54.616282" lon="-3.092125"><ele>195</ele><time>2020-08-14T14:16:09Z</time><name>PT7319</name></trkpt>
<trkpt lat="54.616272" lon="-3.092133"><ele>195</ele><time>2020-08-14T14:16:10Z</time><name>PT7320</name></trkpt>
<trkpt lat="54.616266" lon="-3.092142"><ele>196</ele><time>2020-08-14T14:16:11Z</time><name>PT7321</name></trkpt>
<trkpt lat="54.616251" lon="-3.092147"><ele>195</ele><time>2020-08-14T14:16:12Z</time><name>PT7322</name></trkpt>
<trkpt lat="54.616240" lon="-3.092147"><ele>194</ele><time>2020-08-14T14:16:13Z</time><name>PT7323</name></trkpt>
<trkpt lat="54.616233" lon="-3.092152"><ele>194</ele><time>2020-08-14T14:16:14Z</time><name>PT7324</name></trkpt>
<trkpt lat="54.616223" lon="-3.092161"><ele>192</ele><time>2020-08-14T14:16:15Z</time><name>PT7325</name></trkpt>
<trkpt lat="54.616213" lon="-3.092161"><ele>192</ele><time>2020-08-14T14:16:16Z</time><name>PT7326</name></trkpt>
<trkpt lat="54.616202" lon="-3.092165"><ele>191</ele><time>2020-08-14T14:16:17Z</time><name>PT7327</name></trkpt>
<trkpt lat="54.616186" lon="-3.092170"><ele>191</ele><time>2020-08-14T14:16:18Z</time><name>PT7328</name></trkpt>
<trkpt lat="54.616176" lon="-3.092173"><ele>191</ele><time>2020-08-14T14:16:19Z</time><name>PT7329</name></trkpt>
<trkpt lat="54.616166" lon="-3.092184"><ele>190</ele><time>2020-08-14T14:16:20Z</time><name>PT7330</name></trkpt>
<trkpt lat="54.616153" lon="-3.092195"><ele>190</ele><time>2020-08-14T14:16:21Z</time><name>PT7331</name></trkpt>
<trkpt lat="54.616140" lon="-3.092202"><ele>190</ele><time>2020-08-14T14:16:22Z</time><name>PT7332</name></trkpt>
<trkpt lat="54.616127" lon="-3.092212"><ele>190</ele><time>2020-08-14T14:16:23Z</time><name>PT7333</name></trkpt>
<trkpt lat="54.616115" lon="-3.092217"><ele>189</ele><time>2020-08-14T14:16:24Z</time><name>PT7334</name></trkpt>
<trkpt lat="54.616108" lon="-3.092221"><ele>189</ele><time>2020-08-14T14:16:25Z</time><name>PT7335</name></trkpt>
<trkpt lat="54.616103" lon="-3.092226"><ele>188</ele><time>2020-08-14T14:16:26Z</time><name>PT7336</name></trkpt>
<trkpt lat="54.616093" lon="-3.092230"><ele>189</ele><time>2020-08-14T14:16:27Z</time><name>PT7337</name></trkpt>
<trkpt lat="54.616082" lon="-3.092237"><ele>189</ele><time>2020-08-14T14:16:28Z</time><name>PT7338</name></trkpt>
<trkpt lat="54.616066" lon="-3.092246"><ele>189</ele><time>2020-08-14T14:16:29Z</time><name>PT7339</name></trkpt>
<trkpt lat="54.616057" lon="-3.092255"><ele>190</ele><time>2020-08-14T14:16:30Z</time><name>PT7340</name></trkpt>
<trkpt lat="54.616052" lon="-3.092264"><ele>190</ele><time>2020-08-14T14:16:31Z</time><name>PT7341</name></trkpt>
<trkpt lat="54.616048" lon="-3.092273"><ele>190</ele><time>2020-08-14T14:16:32Z</time><name>PT7342</name></trkpt>
<trkpt lat="54.616041" lon="-3.092278"><ele>190</ele><time>2020-08-14T14:16:33Z</time><name>PT7343</name></trkpt>
<trkpt lat="54.616037" lon="-3.092297"><ele>190</ele><time>2020-08-14T14:16:34Z</time><name>PT7344</name></trkpt>
<trkpt lat="54.616033" lon="-3.092310"><ele>191</ele><time>2020-08-14T14:16:35Z</time><name>PT7345</name></trkpt>
<trkpt lat="54.616031" lon="-3.092320"><ele>191</ele><time>2020-08-14T14:16:36Z</time><name>PT7346</name></trkpt>
<trkpt lat="54.616032" lon="-3.092328"><ele>190</ele><time>2020-08-14T14:16:37Z</time><name>PT7347</name></trkpt>
<trkpt lat="54.616034" lon="-3.092345"><ele>191</ele><time>2020-08-14T14:16:38Z</time><name>PT7348</name></trkpt>
<trkpt lat="54.616035" lon="-3.092356"><ele>191</ele><time>2020-08-14T14:16:39Z</time><name>PT7349</name></trkpt>
<trkpt lat="54.616038" lon="-3.092368"><ele>192</ele><time>2020-08-14T14:16:40Z</time><name>PT7350</name></trkpt>
<trkpt lat="54.616040" lon="-3.092375"><ele>192</ele><time>2020-08-14T14:16:41Z</time><name>PT7351</name></trkpt>
<trkpt lat="54.616043" lon="-3.092383"><ele>192</ele><time>2020-08-14T14:16:42Z</time><name>PT7352</name></trkpt>
<trkpt lat="54.616050" lon="-3.092396"><ele>192</ele><time>2020-08-14T14:16:43Z</time><name>PT7353</name></trkpt>
<trkpt lat="54.616056" lon="-3.092411"><ele>192</ele><time>2020-08-14T14:16:44Z</time><name>PT7354</name></trkpt>
<trkpt lat="54.616060" lon="-3.092422"><ele>193</ele><time>2020-08-14T14:16:45Z</time><name>PT7355</name></trkpt>
<trkpt lat="54.616065" lon="-3.092429"><ele>192</ele><time>2020-08-14T14:16:46Z</time><name>PT7356</name></trkpt>
<trkpt lat="54.616070" lon="-3.092449"><ele>194</ele><time>2020-08-14T14:16:47Z</time><name>PT7357</name></trkpt>
<trkpt lat="54.616076" lon="-3.092463"><ele>194</ele><time>2020-08-14T14:16:48Z</time><name>PT7358</name></trkpt>
<trkpt lat="54.616078" lon="-3.092475"><ele>194</ele><time>2020-08-14T14:16:49Z</time><name>PT7359</name></trkpt>
<trkpt lat="54.616086" lon="-3.092485"><ele>196</ele><time>2020-08-14T14:16:50Z</time><name>PT7360</name></trkpt>
<trkpt lat="54.616095" lon="-3.092492"><ele>196</ele><time>2020-08-14T14:16:51Z</time><name>PT7361</name></trkpt>
<trkpt lat="54.616105" lon="-3.092495"><ele>196</ele><time>2020-08-14T14:16:52Z</time><name>PT7362</name></trkpt>
<trkpt lat="54.616113" lon="-3.092499"><ele>196</ele><time>2020-08-14T14:16:53Z</time><name>PT7363</name></trkpt>
<trkpt lat="54.616120" lon="-3.092500"><ele>196</ele><time>2020-08-14T14:16:54Z</time><name>PT7364</name></trkpt>
<trkpt lat="54.616130" lon="-3.092502"><ele>197</ele><time>2020-08-14T14:16:55Z</time><name>PT7365</name></trkpt>
<trkpt lat="54.616139" lon="-3.092503"><ele>197</ele><time>2020-08-14T14:16:56Z</time><name>PT7366</name></trkpt>
<trkpt lat="54.616148" lon="-3.092514"><ele>198</ele><time>2020-08-14T14:16:57Z</time><name>PT7367</name></trkpt>
<trkpt lat="54.616152" lon="-3.092525"><ele>198</ele><time>2020-08-14T14:16:58Z</time><name>PT7368</name></trkpt>
<trkpt lat="54.616158" lon="-3.092532"><ele>198</ele><time>2020-08-14T14:16:59Z</time><name>PT7369</name></trkpt>
<trkpt lat="54.616164" lon="-3.092533"><ele>198</ele><time>2020-08-14T14:17:00Z</time><name>PT7370</name></trkpt>
<trkpt lat="54.616173" lon="-3.092540"><ele>198</ele><time>2020-08-14T14:17:01Z</time><name>PT7371</name></trkpt>
<trkpt lat="54.616179" lon="-3.092548"><ele>199</ele><time>2020-08-14T14:17:02Z</time><name>PT7372</name></trkpt>
<trkpt lat="54.616185" lon="-3.092557"><ele>199</ele><time>2020-08-14T14:17:03Z</time><name>PT7373</name></trkpt>
<trkpt lat="54.616193" lon="-3.092567"><ele>199</ele><time>2020-08-14T14:17:04Z</time><name>PT7374</name></trkpt>
<trkpt lat="54.616200" lon="-3.092580"><ele>199</ele><time>2020-08-14T14:17:05Z</time><name>PT7375</name></trkpt>
<trkpt lat="54.616205" lon="-3.092589"><ele>200</ele><time>2020-08-14T14:17:06Z</time><name>PT7376</name></trkpt>
<trkpt lat="54.616208" lon="-3.092591"><ele>200</ele><time>2020-08-14T14:17:07Z</time><name>PT7377</name></trkpt>
<trkpt lat="54.616217" lon="-3.092593"><ele>200</ele><time>2020-08-14T14:17:08Z</time><name>PT7378</name></trkpt>
<trkpt lat="54.616226" lon="-3.092601"><ele>201</ele><time>2020-08-14T14:17:09Z</time><name>PT7379</name></trkpt>
<trkpt lat="54.616235" lon="-3.092614"><ele>201</ele><time>2020-08-14T14:17:10Z</time><name>PT7380</name></trkpt>
<trkpt lat="54.616239" lon="-3.092622"><ele>201</ele><time>2020-08-14T14:17:11Z</time><name>PT7381</name></trkpt>
<trkpt lat="54.616247" lon="-3.092628"><ele>201</ele><time>2020-08-14T14:17:12Z</time><name>PT7382</name></trkpt>
<trkpt lat="54.616256" lon="-3.092637"><ele>202</ele><time>2020-08-14T14:17:13Z</time><name>PT7383</name></trkpt>
<trkpt lat="54.616263" lon="-3.092650"><ele>203</ele><time>2020-08-14T14:17:14Z</time><name>PT7384</name></trkpt>
<trkpt lat="54.616269" lon="-3.092659"><ele>203</ele><time>2020-08-14T14:17:15Z</time><name>PT7385</name></trkpt>
<trkpt lat="54.616275" lon="-3.092663"><ele>203</ele><time>2020-08-14T14:17:16Z</time><name>PT7386</name></trkpt>
<trkpt lat="54.616282" lon="-3.092676"><ele>203</ele><time>2020-08-14T14:17:17Z</time><name>PT7387</name></trkpt>
<trkpt lat="54.616291" lon="-3.092691"><ele>203</ele><time>2020-08-14T14:17:18Z</time><name>PT7388</name></trkpt>
<trkpt lat="54.616298" lon="-3.092705"><ele>203</ele><time>2020-08-14T14:17:19Z</time><name>PT7389</name></trkpt>
<trkpt lat="54.616302" lon="-3.092702"><ele>203</ele><time>2020-08-14T14:17:20Z</time><name>PT7390</name></trkpt>
<trkpt lat="54.616310" lon="-3.092707"><ele>203</ele><time>2020-08-14T14:17:21Z</time><name>PT7391</name></trkpt>
<trkpt lat="54.616318" lon="-3.092717"><ele>203</ele><time>2020-08-14T14:17:22Z</time><name>PT7392</name></trkpt>
<trkpt lat="54.616325" lon="-3.092725"><ele>203</ele><time>2020-08-14T14:17:23Z</time><name>PT7393</name></trkpt>
<trkpt lat="54.616330" lon="-3.092733"><ele>203</ele><time>2020-08-14T14:17:24Z</time><name>PT7394</name></trkpt>
<trkpt lat="54.616333" lon="-3.092740"><ele>203</ele><time>2020-08-14T14:17:25Z</time><name>PT7395</name></trkpt>
<trkpt lat="54.616335" lon="-3.092759"><ele>204</ele><time>2020-08-14T14:17:26Z</time><name>PT7396</name></trkpt>
<trkpt lat="54.616343" lon="-3.092767"><ele>204</ele><time>2020-08-14T14:17:27Z</time><name>PT7397</name></trkpt>
<trkpt lat="54.616347" lon="-3.092778"><ele>204</ele><time>2020-08-14T14:17:28Z</time><name>PT7398</name></trkpt>
<trkpt lat="54.616351" lon="-3.092784"><ele>204</ele><time>2020-08-14T14:17:29Z</time><name>PT7399</name></trkpt>
<trkpt lat="54.616360" lon="-3.092795"><ele>205</ele><time>2020-08-14T14:17:30Z</time><name>PT7400</name></trkpt>
<trkpt lat="54.616369" lon="-3.092806"><ele>205</ele><time>2020-08-14T14:17:31Z</time><name>PT7401</name></trkpt>
<trkpt lat="54.616373" lon="-3.092818"><ele>205</ele><time>2020-08-14T14:17:32Z</time><name>PT7402</name></trkpt>
<trkpt lat="54.616376" lon="-3.092822"><ele>206</ele><time>2020-08-14T14:17:33Z</time><name>PT7403</name></trkpt>
<trkpt lat="54.616383" lon="-3.092833"><ele>206</ele><time>2020-08-14T14:17:34Z</time><name>PT7404</name></trkpt>
<trkpt lat="54.616388" lon="-3.092845"><ele>206</ele><time>2020-08-14T14:17:35Z</time><name>PT7405</name></trkpt>
<trkpt lat="54.616392" lon="-3.092854"><ele>206</ele><time>2020-08-14T14:17:36Z</time><name>PT7406</name></trkpt>
<trkpt lat="54.616392" lon="-3.092868"><ele>206</ele><time>2020-08-14T14:17:37Z</time><name>PT7407</name></trkpt>
<trkpt lat="54.616398" lon="-3.092883"><ele>207</ele><time>2020-08-14T14:17:38Z</time><name>PT7408</name></trkpt>
<trkpt lat="54.616406" lon="-3.092892"><ele>207</ele><time>2020-08-14T14:17:39Z</time><name>PT7409</name></trkpt>
<trkpt lat="54.616406" lon="-3.092901"><ele>207</ele><time>2020-08-14T14:17:40Z</time><name>PT7410</name></trkpt>
<trkpt lat="54.616405" lon="-3.092915"><ele>207</ele><time>2020-08-14T14:17:41Z</time><name>PT7411</name></trkpt>
<trkpt lat="54.616412" lon="-3.092923"><ele>207</ele><time>2020-08-14T14:17:42Z</time><name>PT7412</name></trkpt>
<trkpt lat="54.616415" lon="-3.092937"><ele>207</ele><time>2020-08-14T14:17:43Z</time><name>PT7413</name></trkpt>
<trkpt lat="54.616421" lon="-3.092949"><ele>207</ele><time>2020-08-14T14:17:44Z</time><name>PT7414</name></trkpt>
<trkpt lat="54.616423" lon="-3.092956"><ele>207</ele><time>2020-08-14T14:17:45Z</time><name>PT7415</name></trkpt>
<trkpt lat="54.616429" lon="-3.092967"><ele>207</ele><time>2020-08-14T14:17:46Z</time><name>PT7416</name></trkpt>
<trkpt lat="54.616437" lon="-3.092982"><ele>207</ele><time>2020-08-14T14:17:47Z</time><name>PT7417</name></trkpt>
<trkpt lat="54.616442" lon="-3.092996"><ele>207</ele><time>2020-08-14T14:17:48Z</time><name>PT7418</name></trkpt>
<trkpt lat="54.616441" lon="-3.093012"><ele>207</ele><time>2020-08-14T14:17:49Z</time><name>PT7419</name></trkpt>
<trkpt lat="54.616442" lon="-3.093028"><ele>207</ele><time>2020-08-14T14:17:50Z</time><name>PT7420</name></trkpt>
<trkpt lat="54.616447" lon="-3.093043"><ele>207</ele><time>2020-08-14T14:17:51Z</time><name>PT7421</name></trkpt>
<trkpt lat="54.616453" lon="-3.093052"><ele>207</ele><time>2020-08-14T14:17:52Z</time><name>PT7422</name></trkpt>
<trkpt lat="54.616458" lon="-3.093063"><ele>207</ele><time>2020-08-14T14:17:53Z</time><name>PT7423</name></trkpt>
<trkpt lat="54.616461" lon="-3.093071"><ele>207</ele><time>2020-08-14T14:17:54Z</time><name>PT7424</name></trkpt>
<trkpt lat="54.616469" lon="-3.093080"><ele>207</ele><time>2020-08-14T14:17:55Z</time><name>PT7425</name></trkpt>
<trkpt lat="54.616477" lon="-3.093095"><ele>208</ele><time>2020-08-14T14:17:56Z</time><name>PT7426</name></trkpt>
<trkpt lat="54.616488" lon="-3.093110"><ele>209</ele><time>2020-08-14T14:17:57Z</time><name>PT7427</name></trkpt>
<trkpt lat="54.616498" lon="-3.093114"><ele>209</ele><time>2020-08-14T14:17:58Z</time><name>PT7428</name></trkpt>
<trkpt lat="54.616506" lon="-3.093121"><ele>209</ele><time>2020-08-14T14:17:59Z</time><name>PT7429</name></trkpt>
<trkpt lat="54.616515" lon="-3.093128"><ele>209</ele><time>2020-08-14T14:18:00Z</time><name>PT7430</name></trkpt>
<trkpt lat="54.616523" lon="-3.093140"><ele>209</ele><time>2020-08-14T14:18:01Z</time><name>PT7431</name></trkpt>
<trkpt lat="54.616529" lon="-3.093142"><ele>209</ele><time>2020-08-14T14:18:02Z</time><name>PT7432</name></trkpt>
<trkpt lat="54.616534" lon="-3.093147"><ele>208</ele><time>2020-08-14T14:18:03Z</time><name>PT7433</name></trkpt>
<trkpt lat="54.616543" lon="-3.093163"><ele>209</ele><time>2020-08-14T14:18:04Z</time><name>PT7434</name></trkpt>
<trkpt lat="54.616550" lon="-3.093172"><ele>208</ele><time>2020-08-14T14:18:05Z</time><name>PT7435</name></trkpt>
<trkpt lat="54.616556" lon="-3.093184"><ele>209</ele><time>2020-08-14T14:18:06Z</time><name>PT7436</name></trkpt>
<trkpt lat="54.616560" lon="-3.093195"><ele>209</ele><time>2020-08-14T14:18:07Z</time><name>PT7437</name></trkpt>
<trkpt lat="54.616566" lon="-3.093205"><ele>209</ele><time>2020-08-14T14:18:08Z</time><name>PT7438</name></trkpt>
<trkpt lat="54.616576" lon="-3.093214"><ele>209</ele><time>2020-08-14T14:18:09Z</time><name>PT7439</name></trkpt>
<trkpt lat="54.616584" lon="-3.093225"><ele>209</ele><time>2020-08-14T14:18:10Z</time><name>PT7440</name></trkpt>
<trkpt lat="54.616589" lon="-3.093234"><ele>209</ele><time>2020-08-14T14:18:11Z</time><name>PT7441</name></trkpt>
<trkpt lat="54.616594" lon="-3.093241"><ele>210</ele><time>2020-08-14T14:18:12Z</time><name>PT7442</name></trkpt>
<trkpt lat="54.616602" lon="-3.093250"><ele>210</ele><time>2020-08-14T14:18:13Z</time><name>PT7443</name></trkpt>
<trkpt lat="54.616607" lon="-3.093261"><ele>211</ele><time>2020-08-14T14:18:14Z</time><name>PT7444</name></trkpt>
<trkpt lat="54.616624" lon="-3.093308"><ele>212</ele><time>2020-08-14T14:18:17Z</time><name>PT7445</name></trkpt>
<trkpt lat="54.616652" lon="-3.093363"><ele>214</ele><time>2020-08-14T14:18:21Z</time><name>PT7446</name></trkpt>
<trkpt lat="54.616670" lon="-3.093407"><ele>215</ele><time>2020-08-14T14:18:24Z</time><name>PT7447</name></trkpt>
<trkpt lat="54.616693" lon="-3.093464"><ele>216</ele><time>2020-08-14T14:18:28Z</time><name>PT7448</name></trkpt>
<trkpt lat="54.616704" lon="-3.093499"><ele>216</ele><time>2020-08-14T14:18:31Z</time><name>PT7449</name></trkpt>
<trkpt lat="54.616720" lon="-3.093552"><ele>217</ele><time>2020-08-14T14:18:35Z</time><name>PT7450</name></trkpt>
<trkpt lat="54.616736" lon="-3.093595"><ele>215</ele><time>2020-08-14T14:18:39Z</time><name>PT7451</name></trkpt>
<trkpt lat="54.616747" lon="-3.093635"><ele>215</ele><time>2020-08-14T14:18:42Z</time><name>PT7452</name></trkpt>
<trkpt lat="54.616767" lon="-3.093682"><ele>216</ele><time>2020-08-14T14:18:46Z</time><name>PT7453</name></trkpt>
<trkpt lat="54.616769" lon="-3.093720"><ele>217</ele><time>2020-08-14T14:18:49Z</time><name>PT7454</name></trkpt>
<trkpt lat="54.616781" lon="-3.093768"><ele>218</ele><time>2020-08-14T14:18:53Z</time><name>PT7455</name></trkpt>
<trkpt lat="54.616785" lon="-3.093815"><ele>219</ele><time>2020-08-14T14:18:56Z</time><name>PT7456</name></trkpt>
<trkpt lat="54.616794" lon="-3.093879"><ele>220</ele><time>2020-08-14T14:19:00Z</time><name>PT7457</name></trkpt>
<trkpt lat="54.616811" lon="-3.093936"><ele>221</ele><time>2020-08-14T14:19:04Z</time><name>PT7458</name></trkpt>
<trkpt lat="54.616819" lon="-3.093981"><ele>222</ele><time>2020-08-14T14:19:07Z</time><name>PT7459</name></trkpt>
<trkpt lat="54.616825" lon="-3.094040"><ele>222</ele><time>2020-08-14T14:19:11Z</time><name>PT7460</name></trkpt>
<trkpt lat="54.616830" lon="-3.094087"><ele>223</ele><time>2020-08-14T14:19:15Z</time><name>PT7461</name></trkpt>
<trkpt lat="54.616831" lon="-3.094160"><ele>224</ele><time>2020-08-14T14:19:19Z</time><name>PT7462</name></trkpt>
<trkpt lat="54.616829" lon="-3.094220"><ele>225</ele><time>2020-08-14T14:19:22Z</time><name>PT7463</name></trkpt>
<trkpt lat="54.616823" lon="-3.094261"><ele>225</ele><time>2020-08-14T14:19:25Z</time><name>PT7464</name></trkpt>
<trkpt lat="54.616812" lon="-3.094314"><ele>224</ele><time>2020-08-14T14:19:29Z</time><name>PT7465</name></trkpt>
<trkpt lat="54.616809" lon="-3.094368"><ele>225</ele><time>2020-08-14T14:19:33Z</time><name>PT7466</name></trkpt>
<trkpt lat="54.616803" lon="-3.094400"><ele>226</ele><time>2020-08-14T14:19:36Z</time><name>PT7467</name></trkpt>
<trkpt lat="54.616788" lon="-3.094450"><ele>227</ele><time>2020-08-14T14:19:39Z</time><name>PT7468</name></trkpt>
<trkpt lat="54.616778" lon="-3.094491"><ele>226</ele><time>2020-08-14T14:19:42Z</time><name>PT7469</name></trkpt>
<trkpt lat="54.616769" lon="-3.094530"><ele>226</ele><time>2020-08-14T14:19:45Z</time><name>PT7470</name></trkpt>
<trkpt lat="54.616763" lon="-3.094580"><ele>226</ele><time>2020-08-14T14:19:49Z</time><name>PT7471</name></trkpt>
<trkpt lat="54.616761" lon="-3.094626"><ele>227</ele><time>2020-08-14T14:19:52Z</time><name>PT7472</name></trkpt>
<trkpt lat="54.616751" lon="-3.094676"><ele>226</ele><time>2020-08-14T14:19:56Z</time><name>PT7473</name></trkpt>
<trkpt lat="54.616748" lon="-3.094717"><ele>227</ele><time>2020-08-14T14:19:59Z</time><name>PT7474</name></trkpt>
<trkpt lat="54.616758" lon="-3.094755"><ele>227</ele><time>2020-08-14T14:20:03Z</time><name>PT7475</name></trkpt>
<trkpt lat="54.616760" lon="-3.094820"><ele>228</ele><time>2020-08-14T14:20:07Z</time><name>PT7476</name></trkpt>
<trkpt lat="54.616758" lon="-3.094856"><ele>228</ele><time>2020-08-14T14:20:10Z</time><name>PT7477</name></trkpt>
<trkpt lat="54.616758" lon="-3.094898"><ele>229</ele><time>2020-08-14T14:20:13Z</time><name>PT7478</name></trkpt>
<trkpt lat="54.616754" lon="-3.094954"><ele>229</ele><time>2020-08-14T14:20:17Z</time><name>PT7479</name></trkpt>
<trkpt lat="54.616760" lon="-3.095000"><ele>230</ele><time>2020-08-14T14:20:20Z</time><name>PT7480</name></trkpt>
<trkpt lat="54.616756" lon="-3.095023"><ele>230</ele><time>2020-08-14T14:20:24Z</time><name>PT7481</name></trkpt>
<trkpt lat="54.616752" lon="-3.095085"><ele>231</ele><time>2020-08-14T14:20:28Z</time><name>PT7482</name></trkpt>
<trkpt lat="54.616741" lon="-3.095131"><ele>231</ele><time>2020-08-14T14:20:31Z</time><name>PT7483</name></trkpt>
<trkpt lat="54.616729" lon="-3.095189"><ele>232</ele><time>2020-08-14T14:20:35Z</time><name>PT7484</name></trkpt>
<trkpt lat="54.616720" lon="-3.095230"><ele>232</ele><time>2020-08-14T14:20:38Z</time><name>PT7485</name></trkpt>
<trkpt lat="54.616708" lon="-3.095277"><ele>233</ele><time>2020-08-14T14:20:41Z</time><name>PT7486</name></trkpt>
<trkpt lat="54.616691" lon="-3.095334"><ele>234</ele><time>2020-08-14T14:20:45Z</time><name>PT7487</name></trkpt>
<trkpt lat="54.616679" lon="-3.095377"><ele>235</ele><time>2020-08-14T14:20:48Z</time><name>PT7488</name></trkpt>
<trkpt lat="54.616661" lon="-3.095431"><ele>236</ele><time>2020-08-14T14:20:51Z</time><name>PT7489</name></trkpt>
<trkpt lat="54.616647" lon="-3.095490"><ele>236</ele><time>2020-08-14T14:20:55Z</time><name>PT7490</name></trkpt>
<trkpt lat="54.616629" lon="-3.095560"><ele>237</ele><time>2020-08-14T14:20:59Z</time><name>PT7491</name></trkpt>
<trkpt lat="54.616611" lon="-3.095623"><ele>237</ele><time>2020-08-14T14:21:03Z</time><name>PT7492</name></trkpt>
<trkpt lat="54.616599" lon="-3.095676"><ele>238</ele><time>2020-08-14T14:21:06Z</time><name>PT7493</name></trkpt>
<trkpt lat="54.616588" lon="-3.095739"><ele>238</ele><time>2020-08-14T14:21:10Z</time><name>PT7494</name></trkpt>
<trkpt lat="54.616578" lon="-3.095791"><ele>239</ele><time>2020-08-14T14:21:14Z</time><name>PT7495</name></trkpt>
<trkpt lat="54.616571" lon="-3.095830"><ele>239</ele><time>2020-08-14T14:21:17Z</time><name>PT7496</name></trkpt>
<trkpt lat="54.616564" lon="-3.095877"><ele>239</ele><time>2020-08-14T14:21:20Z</time><name>PT7497</name></trkpt>
<trkpt lat="54.616551" lon="-3.095955"><ele>240</ele><time>2020-08-14T14:21:24Z</time><name>PT7498</name></trkpt>
<trkpt lat="54.616545" lon="-3.096002"><ele>240</ele><time>2020-08-14T14:21:27Z</time><name>PT7499</name></trkpt>
<trkpt lat="54.616541" lon="-3.096043"><ele>240</ele><time>2020-08-14T14:21:30Z</time><name>PT7500</name></trkpt>
<trkpt lat="54.616536" lon="-3.096096"><ele>240</ele><time>2020-08-14T14:21:33Z</time><name>PT7501</name></trkpt>
<trkpt lat="54.616531" lon="-3.096169"><ele>240</ele><time>2020-08-14T14:21:37Z</time><name>PT7502</name></trkpt>
<trkpt lat="54.616527" lon="-3.096214"><ele>241</ele><time>2020-08-14T14:21:40Z</time><name>PT7503</name></trkpt>
<trkpt lat="54.616521" lon="-3.096283"><ele>241</ele><time>2020-08-14T14:21:44Z</time><name>PT7504</name></trkpt>
<trkpt lat="54.616517" lon="-3.096349"><ele>241</ele><time>2020-08-14T14:21:48Z</time><name>PT7505</name></trkpt>
<trkpt lat="54.616513" lon="-3.096400"><ele>242</ele><time>2020-08-14T14:21:51Z</time><name>PT7506</name></trkpt>
<trkpt lat="54.616515" lon="-3.096485"><ele>243</ele><time>2020-08-14T14:21:55Z</time><name>PT7507</name></trkpt>
<trkpt lat="54.616512" lon="-3.096553"><ele>243</ele><time>2020-08-14T14:21:59Z</time><name>PT7508</name></trkpt>
<trkpt lat="54.616507" lon="-3.096628"><ele>244</ele><time>2020-08-14T14:22:03Z</time><name>PT7509</name></trkpt>
<trkpt lat="54.616507" lon="-3.096700"><ele>245</ele><time>2020-08-14T14:22:07Z</time><name>PT7510</name></trkpt>
<trkpt lat="54.616508" lon="-3.096776"><ele>245</ele><time>2020-08-14T14:22:11Z</time><name>PT7511</name></trkpt>
<trkpt lat="54.616510" lon="-3.096845"><ele>246</ele><time>2020-08-14T14:22:15Z</time><name>PT7512</name></trkpt>
<trkpt lat="54.616512" lon="-3.096897"><ele>246</ele><time>2020-08-14T14:22:18Z</time><name>PT7513</name></trkpt>
<trkpt lat="54.616510" lon="-3.096957"><ele>246</ele><time>2020-08-14T14:22:22Z</time><name>PT7514</name></trkpt>
<trkpt lat="54.616508" lon="-3.097012"><ele>246</ele><time>2020-08-14T14:22:25Z</time><name>PT7515</name></trkpt>
<trkpt lat="54.616497" lon="-3.097079"><ele>247</ele><time>2020-08-14T14:22:29Z</time><name>PT7516</name></trkpt>
<trkpt lat="54.616500" lon="-3.097144"><ele>248</ele><time>2020-08-14T14:22:33Z</time><name>PT7517</name></trkpt>
<trkpt lat="54.616495" lon="-3.097202"><ele>248</ele><time>2020-08-14T14:22:36Z</time><name>PT7518</name></trkpt>
<trkpt lat="54.616493" lon="-3.097264"><ele>249</ele><time>2020-08-14T14:22:40Z</time><name>PT7519</name></trkpt>
<trkpt lat="54.616486" lon="-3.097331"><ele>249</ele><time>2020-08-14T14:22:44Z</time><name>PT7520</name></trkpt>
<trkpt lat="54.616491" lon="-3.097381"><ele>250</ele><time>2020-08-14T14:22:47Z</time><name>PT7521</name></trkpt>
<trkpt lat="54.616491" lon="-3.097443"><ele>250</ele><time>2020-08-14T14:22:51Z</time><name>PT7522</name></trkpt>
<trkpt lat="54.616489" lon="-3.097475"><ele>250</ele><time>2020-08-14T14:22:54Z</time><name>PT7523</name></trkpt>
<trkpt lat="54.616488" lon="-3.097538"><ele>250</ele><time>2020-08-14T14:22:58Z</time><name>PT7524</name></trkpt>
<trkpt lat="54.616485" lon="-3.097598"><ele>249</ele><time>2020-08-14T14:23:02Z</time><name>PT7525</name></trkpt>
<trkpt lat="54.616484" lon="-3.097666"><ele>250</ele><time>2020-08-14T14:23:06Z</time><name>PT7526</name></trkpt>
<trkpt lat="54.616484" lon="-3.097712"><ele>250</ele><time>2020-08-14T14:23:09Z</time><name>PT7527</name></trkpt>
<trkpt lat="54.616478" lon="-3.097766"><ele>251</ele><time>2020-08-14T14:23:12Z</time><name>PT7528</name></trkpt>
<trkpt lat="54.616474" lon="-3.097797"><ele>251</ele><time>2020-08-14T14:23:15Z</time><name>PT7529</name></trkpt>
<trkpt lat="54.616467" lon="-3.097867"><ele>251</ele><time>2020-08-14T14:23:19Z</time><name>PT7530</name></trkpt>
<trkpt lat="54.616460" lon="-3.097927"><ele>252</ele><time>2020-08-14T14:23:22Z</time><name>PT7531</name></trkpt>
<trkpt lat="54.616452" lon="-3.097959"><ele>252</ele><time>2020-08-14T14:23:24Z</time><name>PT7532</name></trkpt>
<trkpt lat="54.616450" lon="-3.097973"><ele>252</ele><time>2020-08-14T14:23:25Z</time><name>PT7533</name></trkpt>
<trkpt lat="54.616447" lon="-3.097988"><ele>252</ele><time>2020-08-14T14:23:26Z</time><name>PT7534</name></trkpt>
<trkpt lat="54.616443" lon="-3.098003"><ele>252</ele><time>2020-08-14T14:23:27Z</time><name>PT7535</name></trkpt>
<trkpt lat="54.616440" lon="-3.098018"><ele>252</ele><time>2020-08-14T14:23:28Z</time><name>PT7536</name></trkpt>
<trkpt lat="54.616437" lon="-3.098035"><ele>252</ele><time>2020-08-14T14:23:29Z</time><name>PT7537</name></trkpt>
<trkpt lat="54.616436" lon="-3.098051"><ele>252</ele><time>2020-08-14T14:23:30Z</time><name>PT7538</name></trkpt>
<trkpt lat="54.616435" lon="-3.098067"><ele>252</ele><time>2020-08-14T14:23:31Z</time><name>PT7539</name></trkpt>
<trkpt lat="54.616433" lon="-3.098084"><ele>252</ele><time>2020-08-14T14:23:32Z</time><name>PT7540</name></trkpt>
<trkpt lat="54.616432" lon="-3.098101"><ele>252</ele><time>2020-08-14T14:23:33Z</time><name>PT7541</name></trkpt>
<trkpt lat="54.616429" lon="-3.098119"><ele>252</ele><time>2020-08-14T14:23:34Z</time><name>PT7542</name></trkpt>
<trkpt lat="54.616428" lon="-3.098143"><ele>252</ele><time>2020-08-14T14:23:35Z</time><name>PT7543</name></trkpt>
<trkpt lat="54.616427" lon="-3.098160"><ele>252</ele><time>2020-08-14T14:23:36Z</time><name>PT7544</name></trkpt>
<trkpt lat="54.616426" lon="-3.098178"><ele>252</ele><time>2020-08-14T14:23:37Z</time><name>PT7545</name></trkpt>
<trkpt lat="54.616423" lon="-3.098199"><ele>252</ele><time>2020-08-14T14:23:38Z</time><name>PT7546</name></trkpt>
<trkpt lat="54.616419" lon="-3.098222"><ele>252</ele><time>2020-08-14T14:23:39Z</time><name>PT7547</name></trkpt>
<trkpt lat="54.616418" lon="-3.098241"><ele>253</ele><time>2020-08-14T14:23:40Z</time><name>PT7548</name></trkpt>
<trkpt lat="54.616415" lon="-3.098261"><ele>253</ele><time>2020-08-14T14:23:41Z</time><name>PT7549</name></trkpt>
<trkpt lat="54.616412" lon="-3.098276"><ele>253</ele><time>2020-08-14T14:23:42Z</time><name>PT7550</name></trkpt>
<trkpt lat="54.616411" lon="-3.098298"><ele>253</ele><time>2020-08-14T14:23:43Z</time><name>PT7551</name></trkpt>
<trkpt lat="54.616409" lon="-3.098320"><ele>253</ele><time>2020-08-14T14:23:44Z</time><name>PT7552</name></trkpt>
<trkpt lat="54.616407" lon="-3.098333"><ele>253</ele><time>2020-08-14T14:23:45Z</time><name>PT7553</name></trkpt>
<trkpt lat="54.616406" lon="-3.098346"><ele>253</ele><time>2020-08-14T14:23:46Z</time><name>PT7554</name></trkpt>
<trkpt lat="54.616400" lon="-3.098364"><ele>253</ele><time>2020-08-14T14:23:47Z</time><name>PT7555</name></trkpt>
<trkpt lat="54.616394" lon="-3.098384"><ele>252</ele><time>2020-08-14T14:23:48Z</time><name>PT7556</name></trkpt>
<trkpt lat="54.616391" lon="-3.098403"><ele>253</ele><time>2020-08-14T14:23:49Z</time><name>PT7557</name></trkpt>
<trkpt lat="54.616389" lon="-3.098422"><ele>253</ele><time>2020-08-14T14:23:50Z</time><name>PT7558</name></trkpt>
<trkpt lat="54.616383" lon="-3.098442"><ele>253</ele><time>2020-08-14T14:23:51Z</time><name>PT7559</name></trkpt>
<trkpt lat="54.616378" lon="-3.098462"><ele>252</ele><time>2020-08-14T14:23:52Z</time><name>PT7560</name></trkpt>
<trkpt lat="54.616373" lon="-3.098485"><ele>253</ele><time>2020-08-14T14:23:53Z</time><name>PT7561</name></trkpt>
<trkpt lat="54.616370" lon="-3.098505"><ele>253</ele><time>2020-08-14T14:23:54Z</time><name>PT7562</name></trkpt>
<trkpt lat="54.616366" lon="-3.098520"><ele>253</ele><time>2020-08-14T14:23:55Z</time><name>PT7563</name></trkpt>
<trkpt lat="54.616364" lon="-3.098542"><ele>253</ele><time>2020-08-14T14:23:56Z</time><name>PT7564</name></trkpt>
<trkpt lat="54.616361" lon="-3.098565"><ele>253</ele><time>2020-08-14T14:23:57Z</time><name>PT7565</name></trkpt>
<trkpt lat="54.616352" lon="-3.098588"><ele>252</ele><time>2020-08-14T14:23:58Z</time><name>PT7566</name></trkpt>
<trkpt lat="54.616349" lon="-3.098601"><ele>252</ele><time>2020-08-14T14:23:59Z</time><name>PT7567</name></trkpt>
<trkpt lat="54.616346" lon="-3.098612"><ele>252</ele><time>2020-08-14T14:24:00Z</time><name>PT7568</name></trkpt>
<trkpt lat="54.616341" lon="-3.098634"><ele>252</ele><time>2020-08-14T14:24:01Z</time><name>PT7569</name></trkpt>
<trkpt lat="54.616346" lon="-3.098647"><ele>253</ele><time>2020-08-14T14:24:02Z</time><name>PT7570</name></trkpt>
<trkpt lat="54.616345" lon="-3.098664"><ele>254</ele><time>2020-08-14T14:24:03Z</time><name>PT7571</name></trkpt>
<trkpt lat="54.616349" lon="-3.098682"><ele>255</ele><time>2020-08-14T14:24:04Z</time><name>PT7572</name></trkpt>
<trkpt lat="54.616350" lon="-3.098703"><ele>255</ele><time>2020-08-14T14:24:05Z</time><name>PT7573</name></trkpt>
<trkpt lat="54.616347" lon="-3.098724"><ele>255</ele><time>2020-08-14T14:24:06Z</time><name>PT7574</name></trkpt>
<trkpt lat="54.616345" lon="-3.098747"><ele>255</ele><time>2020-08-14T14:24:07Z</time><name>PT7575</name></trkpt>
<trkpt lat="54.616340" lon="-3.098768"><ele>255</ele><time>2020-08-14T14:24:08Z</time><name>PT7576</name></trkpt>
<trkpt lat="54.616338" lon="-3.098783"><ele>255</ele><time>2020-08-14T14:24:09Z</time><name>PT7577</name></trkpt>
<trkpt lat="54.616336" lon="-3.098800"><ele>255</ele><time>2020-08-14T14:24:10Z</time><name>PT7578</name></trkpt>
<trkpt lat="54.616334" lon="-3.098824"><ele>256</ele><time>2020-08-14T14:24:11Z</time><name>PT7579</name></trkpt>
<trkpt lat="54.616332" lon="-3.098847"><ele>256</ele><time>2020-08-14T14:24:12Z</time><name>PT7580</name></trkpt>
<trkpt lat="54.616329" lon="-3.098868"><ele>256</ele><time>2020-08-14T14:24:13Z</time><name>PT7581</name></trkpt>
<trkpt lat="54.616327" lon="-3.098882"><ele>256</ele><time>2020-08-14T14:24:14Z</time><name>PT7582</name></trkpt>
<trkpt lat="54.616324" lon="-3.098897"><ele>256</ele><time>2020-08-14T14:24:15Z</time><name>PT7583</name></trkpt>
<trkpt lat="54.616321" lon="-3.098919"><ele>256</ele><time>2020-08-14T14:24:16Z</time><name>PT7584</name></trkpt>
<trkpt lat="54.616312" lon="-3.098943"><ele>256</ele><time>2020-08-14T14:24:17Z</time><name>PT7585</name></trkpt>
<trkpt lat="54.616306" lon="-3.098966"><ele>256</ele><time>2020-08-14T14:24:18Z</time><name>PT7586</name></trkpt>
<trkpt lat="54.616304" lon="-3.098988"><ele>257</ele><time>2020-08-14T14:24:19Z</time><name>PT7587</name></trkpt>
<trkpt lat="54.616298" lon="-3.099004"><ele>256</ele><time>2020-08-14T14:24:20Z</time><name>PT7588</name></trkpt>
<trkpt lat="54.616295" lon="-3.099024"><ele>256</ele><time>2020-08-14T14:24:21Z</time><name>PT7589</name></trkpt>
<trkpt lat="54.616295" lon="-3.099041"><ele>257</ele><time>2020-08-14T14:24:22Z</time><name>PT7590</name></trkpt>
<trkpt lat="54.616292" lon="-3.099058"><ele>257</ele><time>2020-08-14T14:24:23Z</time><name>PT7591</name></trkpt>
<trkpt lat="54.616289" lon="-3.099069"><ele>257</ele><time>2020-08-14T14:24:24Z</time><name>PT7592</name></trkpt>
<trkpt lat="54.616287" lon="-3.099086"><ele>257</ele><time>2020-08-14T14:24:25Z</time><name>PT7593</name></trkpt>
<trkpt lat="54.616284" lon="-3.099106"><ele>256</ele><time>2020-08-14T14:24:26Z</time><name>PT7594</name></trkpt>
<trkpt lat="54.616281" lon="-3.099126"><ele>256</ele><time>2020-08-14T14:24:27Z</time><name>PT7595</name></trkpt>
<trkpt lat="54.616278" lon="-3.099143"><ele>256</ele><time>2020-08-14T14:24:28Z</time><name>PT7596</name></trkpt>
<trkpt lat="54.616277" lon="-3.099162"><ele>256</ele><time>2020-08-14T14:24:29Z</time><name>PT7597</name></trkpt>
<trkpt lat="54.616275" lon="-3.099181"><ele>257</ele><time>2020-08-14T14:24:30Z</time><name>PT7598</name></trkpt>
<trkpt lat="54.616269" lon="-3.099202"><ele>256</ele><time>2020-08-14T14:24:31Z</time><name>PT7599</name></trkpt>
<trkpt lat="54.616265" lon="-3.099219"><ele>255</ele><time>2020-08-14T14:24:32Z</time><name>PT7600</name></trkpt>
<trkpt lat="54.616263" lon="-3.099235"><ele>255</ele><time>2020-08-14T14:24:33Z</time><name>PT7601</name></trkpt>
<trkpt lat="54.616260" lon="-3.099249"><ele>255</ele><time>2020-08-14T14:24:34Z</time><name>PT7602</name></trkpt>
<trkpt lat="54.616255" lon="-3.099268"><ele>255</ele><time>2020-08-14T14:24:35Z</time><name>PT7603</name></trkpt>
<trkpt lat="54.616255" lon="-3.099291"><ele>256</ele><time>2020-08-14T14:24:36Z</time><name>PT7604</name></trkpt>
<trkpt lat="54.616258" lon="-3.099312"><ele>257</ele><time>2020-08-14T14:24:37Z</time><name>PT7605</name></trkpt>
<trkpt lat="54.616260" lon="-3.099326"><ele>257</ele><time>2020-08-14T14:24:38Z</time><name>PT7606</name></trkpt>
<trkpt lat="54.616259" lon="-3.099347"><ele>257</ele><time>2020-08-14T14:24:39Z</time><name>PT7607</name></trkpt>
<trkpt lat="54.616257" lon="-3.099368"><ele>257</ele><time>2020-08-14T14:24:40Z</time><name>PT7608</name></trkpt>
<trkpt lat="54.616257" lon="-3.099394"><ele>257</ele><time>2020-08-14T14:24:41Z</time><name>PT7609</name></trkpt>
<trkpt lat="54.616255" lon="-3.099411"><ele>257</ele><time>2020-08-14T14:24:42Z</time><name>PT7610</name></trkpt>
<trkpt lat="54.616253" lon="-3.099423"><ele>257</ele><time>2020-08-14T14:24:43Z</time><name>PT7611</name></trkpt>
<trkpt lat="54.616249" lon="-3.099441"><ele>257</ele><time>2020-08-14T14:24:44Z</time><name>PT7612</name></trkpt>
<trkpt lat="54.616249" lon="-3.099463"><ele>257</ele><time>2020-08-14T14:24:45Z</time><name>PT7613</name></trkpt>
<trkpt lat="54.616248" lon="-3.099481"><ele>257</ele><time>2020-08-14T14:24:46Z</time><name>PT7614</name></trkpt>
<trkpt lat="54.616245" lon="-3.099501"><ele>257</ele><time>2020-08-14T14:24:47Z</time><name>PT7615</name></trkpt>
<trkpt lat="54.616243" lon="-3.099513"><ele>258</ele><time>2020-08-14T14:24:48Z</time><name>PT7616</name></trkpt>
<trkpt lat="54.616239" lon="-3.099533"><ele>258</ele><time>2020-08-14T14:24:49Z</time><name>PT7617</name></trkpt>
<trkpt lat="54.616235" lon="-3.099554"><ele>258</ele><time>2020-08-14T14:24:50Z</time><name>PT7618</name></trkpt>
<trkpt lat="54.616235" lon="-3.099578"><ele>258</ele><time>2020-08-14T14:24:51Z</time><name>PT7619</name></trkpt>
<trkpt lat="54.616231" lon="-3.099596"><ele>259</ele><time>2020-08-14T14:24:52Z</time><name>PT7620</name></trkpt>
<trkpt lat="54.616231" lon="-3.099612"><ele>259</ele><time>2020-08-14T14:24:53Z</time><name>PT7621</name></trkpt>
<trkpt lat="54.616227" lon="-3.099629"><ele>259</ele><time>2020-08-14T14:24:54Z</time><name>PT7622</name></trkpt>
<trkpt lat="54.616233" lon="-3.099646"><ele>260</ele><time>2020-08-14T14:24:55Z</time><name>PT7623</name></trkpt>
<trkpt lat="54.616233" lon="-3.099665"><ele>260</ele><time>2020-08-14T14:24:56Z</time><name>PT7624</name></trkpt>
<trkpt lat="54.616230" lon="-3.099686"><ele>260</ele><time>2020-08-14T14:24:57Z</time><name>PT7625</name></trkpt>
<trkpt lat="54.616223" lon="-3.099695"><ele>259</ele><time>2020-08-14T14:24:58Z</time><name>PT7626</name></trkpt>
<trkpt lat="54.616219" lon="-3.099708"><ele>259</ele><time>2020-08-14T14:24:59Z</time><name>PT7627</name></trkpt>
<trkpt lat="54.616219" lon="-3.099728"><ele>259</ele><time>2020-08-14T14:25:00Z</time><name>PT7628</name></trkpt>
<trkpt lat="54.616213" lon="-3.099752"><ele>259</ele><time>2020-08-14T14:25:01Z</time><name>PT7629</name></trkpt>
<trkpt lat="54.616208" lon="-3.099768"><ele>259</ele><time>2020-08-14T14:25:02Z</time><name>PT7630</name></trkpt>
<trkpt lat="54.616204" lon="-3.099783"><ele>260</ele><time>2020-08-14T14:25:03Z</time><name>PT7631</name></trkpt>
<trkpt lat="54.616195" lon="-3.099799"><ele>259</ele><time>2020-08-14T14:25:04Z</time><name>PT7632</name></trkpt>
<trkpt lat="54.616189" lon="-3.099816"><ele>259</ele><time>2020-08-14T14:25:05Z</time><name>PT7633</name></trkpt>
<trkpt lat="54.616186" lon="-3.099838"><ele>259</ele><time>2020-08-14T14:25:06Z</time><name>PT7634</name></trkpt>
<trkpt lat="54.616184" lon="-3.099851"><ele>259</ele><time>2020-08-14T14:25:07Z</time><name>PT7635</name></trkpt>
<trkpt lat="54.616182" lon="-3.099859"><ele>259</ele><time>2020-08-14T14:25:08Z</time><name>PT7636</name></trkpt>
<trkpt lat="54.616182" lon="-3.099878"><ele>259</ele><time>2020-08-14T14:25:09Z</time><name>PT7637</name></trkpt>
<trkpt lat="54.616179" lon="-3.099900"><ele>260</ele><time>2020-08-14T14:25:10Z</time><name>PT7638</name></trkpt>
<trkpt lat="54.616174" lon="-3.099923"><ele>260</ele><time>2020-08-14T14:25:11Z</time><name>PT7639</name></trkpt>
<trkpt lat="54.616171" lon="-3.099938"><ele>260</ele><time>2020-08-14T14:25:12Z</time><name>PT7640</name></trkpt>
<trkpt lat="54.616166" lon="-3.099945"><ele>260</ele><time>2020-08-14T14:25:13Z</time><name>PT7641</name></trkpt>
<trkpt lat="54.616163" lon="-3.099963"><ele>260</ele><time>2020-08-14T14:25:14Z</time><name>PT7642</name></trkpt>
<trkpt lat="54.616161" lon="-3.099987"><ele>261</ele><time>2020-08-14T14:25:15Z</time><name>PT7643</name></trkpt>
<trkpt lat="54.616158" lon="-3.100003"><ele>261</ele><time>2020-08-14T14:25:16Z</time><name>PT7644</name></trkpt>
<trkpt lat="54.616156" lon="-3.100016"><ele>261</ele><time>2020-08-14T14:25:17Z</time><name>PT7645</name></trkpt>
<trkpt lat="54.616153" lon="-3.100031"><ele>261</ele><time>2020-08-14T14:25:18Z</time><name>PT7646</name></trkpt>
<trkpt lat="54.616148" lon="-3.100047"><ele>261</ele><time>2020-08-14T14:25:19Z</time><name>PT7647</name></trkpt>
<trkpt lat="54.616141" lon="-3.100068"><ele>262</ele><time>2020-08-14T14:25:20Z</time><name>PT7648</name></trkpt>
<trkpt lat="54.616134" lon="-3.100083"><ele>262</ele><time>2020-08-14T14:25:21Z</time><name>PT7649</name></trkpt>
<trkpt lat="54.616132" lon="-3.100094"><ele>262</ele><time>2020-08-14T14:25:22Z</time><name>PT7650</name></trkpt>
<trkpt lat="54.616129" lon="-3.100108"><ele>262</ele><time>2020-08-14T14:25:23Z</time><name>PT7651</name></trkpt>
<trkpt lat="54.616124" lon="-3.100125"><ele>262</ele><time>2020-08-14T14:25:24Z</time><name>PT7652</name></trkpt>
<trkpt lat="54.616121" lon="-3.100144"><ele>262</ele><time>2020-08-14T14:25:25Z</time><name>PT7653</name></trkpt>
<trkpt lat="54.616118" lon="-3.100165"><ele>262</ele><time>2020-08-14T14:25:26Z</time><name>PT7654</name></trkpt>
<trkpt lat="54.616118" lon="-3.100171"><ele>262</ele><time>2020-08-14T14:25:27Z</time><name>PT7655</name></trkpt>
<trkpt lat="54.616113" lon="-3.100182"><ele>261</ele><time>2020-08-14T14:25:28Z</time><name>PT7656</name></trkpt>
<trkpt lat="54.616109" lon="-3.100198"><ele>261</ele><time>2020-08-14T14:25:29Z</time><name>PT7657</name></trkpt>
<trkpt lat="54.616105" lon="-3.100219"><ele>262</ele><time>2020-08-14T14:25:30Z</time><name>PT7658</name></trkpt>
<trkpt lat="54.616099" lon="-3.100233"><ele>262</ele><time>2020-08-14T14:25:31Z</time><name>PT7659</name></trkpt>
<trkpt lat="54.616094" lon="-3.100243"><ele>262</ele><time>2020-08-14T14:25:32Z</time><name>PT7660</name></trkpt>
<trkpt lat="54.616091" lon="-3.100261"><ele>261</ele><time>2020-08-14T14:25:33Z</time><name>PT7661</name></trkpt>
<trkpt lat="54.616092" lon="-3.100283"><ele>262</ele><time>2020-08-14T14:25:34Z</time><name>PT7662</name></trkpt>
<trkpt lat="54.616090" lon="-3.100308"><ele>262</ele><time>2020-08-14T14:25:35Z</time><name>PT7663</name></trkpt>
<trkpt lat="54.616091" lon="-3.100321"><ele>262</ele><time>2020-08-14T14:25:36Z</time><name>PT7664</name></trkpt>
<trkpt lat="54.616087" lon="-3.100335"><ele>262</ele><time>2020-08-14T14:25:37Z</time><name>PT7665</name></trkpt>
<trkpt lat="54.616086" lon="-3.100353"><ele>262</ele><time>2020-08-14T14:25:38Z</time><name>PT7666</name></trkpt>
<trkpt lat="54.616083" lon="-3.100374"><ele>262</ele><time>2020-08-14T14:25:39Z</time><name>PT7667</name></trkpt>
<trkpt lat="54.616082" lon="-3.100396"><ele>263</ele><time>2020-08-14T14:25:40Z</time><name>PT7668</name></trkpt>
<trkpt lat="54.616085" lon="-3.100407"><ele>263</ele><time>2020-08-14T14:25:41Z</time><name>PT7669</name></trkpt>
<trkpt lat="54.616082" lon="-3.100424"><ele>264</ele><time>2020-08-14T14:25:42Z</time><name>PT7670</name></trkpt>
<trkpt lat="54.616083" lon="-3.100446"><ele>265</ele><time>2020-08-14T14:25:43Z</time><name>PT7671</name></trkpt>
<trkpt lat="54.616083" lon="-3.100467"><ele>266</ele><time>2020-08-14T14:25:44Z</time><name>PT7672</name></trkpt>
<trkpt lat="54.616081" lon="-3.100484"><ele>266</ele><time>2020-08-14T14:25:45Z</time><name>PT7673</name></trkpt>
<trkpt lat="54.616081" lon="-3.100493"><ele>266</ele><time>2020-08-14T14:25:46Z</time><name>PT7674</name></trkpt>
<trkpt lat="54.616081" lon="-3.100507"><ele>266</ele><time>2020-08-14T14:25:47Z</time><name>PT7675</name></trkpt>
<trkpt lat="54.616078" lon="-3.100525"><ele>265</ele><time>2020-08-14T14:25:48Z</time><name>PT7676</name></trkpt>
<trkpt lat="54.616075" lon="-3.100544"><ele>266</ele><time>2020-08-14T14:25:49Z</time><name>PT7677</name></trkpt>
<trkpt lat="54.616072" lon="-3.100561"><ele>266</ele><time>2020-08-14T14:25:50Z</time><name>PT7678</name></trkpt>
<trkpt lat="54.616070" lon="-3.100574"><ele>266</ele><time>2020-08-14T14:25:51Z</time><name>PT7679</name></trkpt>
<trkpt lat="54.616069" lon="-3.100590"><ele>266</ele><time>2020-08-14T14:25:52Z</time><name>PT7680</name></trkpt>
<trkpt lat="54.616069" lon="-3.100603"><ele>265</ele><time>2020-08-14T14:25:53Z</time><name>PT7681</name></trkpt>
<trkpt lat="54.616065" lon="-3.100624"><ele>266</ele><time>2020-08-14T14:25:54Z</time><name>PT7682</name></trkpt>
<trkpt lat="54.616062" lon="-3.100634"><ele>265</ele><time>2020-08-14T14:25:55Z</time><name>PT7683</name></trkpt>
<trkpt lat="54.616061" lon="-3.100646"><ele>265</ele><time>2020-08-14T14:25:56Z</time><name>PT7684</name></trkpt>
<trkpt lat="54.616060" lon="-3.100662"><ele>265</ele><time>2020-08-14T14:25:57Z</time><name>PT7685</name></trkpt>
<trkpt lat="54.616058" lon="-3.100678"><ele>265</ele><time>2020-08-14T14:25:58Z</time><name>PT7686</name></trkpt>
<trkpt lat="54.616057" lon="-3.100701"><ele>265</ele><time>2020-08-14T14:25:59Z</time><name>PT7687</name></trkpt>
<trkpt lat="54.616056" lon="-3.100712"><ele>265</ele><time>2020-08-14T14:26:00Z</time><name>PT7688</name></trkpt>
<trkpt lat="54.616053" lon="-3.100727"><ele>265</ele><time>2020-08-14T14:26:01Z</time><name>PT7689</name></trkpt>
<trkpt lat="54.616052" lon="-3.100745"><ele>265</ele><time>2020-08-14T14:26:02Z</time><name>PT7690</name></trkpt>
<trkpt lat="54.616053" lon="-3.100771"><ele>266</ele><time>2020-08-14T14:26:03Z</time><name>PT7691</name></trkpt>
<trkpt lat="54.616051" lon="-3.100797"><ele>267</ele><time>2020-08-14T14:26:04Z</time><name>PT7692</name></trkpt>
<trkpt lat="54.616048" lon="-3.100813"><ele>267</ele><time>2020-08-14T14:26:05Z</time><name>PT7693</name></trkpt>
<trkpt lat="54.616048" lon="-3.100830"><ele>267</ele><time>2020-08-14T14:26:06Z</time><name>PT7694</name></trkpt>
<trkpt lat="54.616047" lon="-3.100850"><ele>267</ele><time>2020-08-14T14:26:07Z</time><name>PT7695</name></trkpt>
<trkpt lat="54.616043" lon="-3.100875"><ele>267</ele><time>2020-08-14T14:26:08Z</time><name>PT7696</name></trkpt>
<trkpt lat="54.616040" lon="-3.100903"><ele>267</ele><time>2020-08-14T14:26:09Z</time><name>PT7697</name></trkpt>
<trkpt lat="54.616038" lon="-3.100914"><ele>267</ele><time>2020-08-14T14:26:10Z</time><name>PT7698</name></trkpt>
<trkpt lat="54.616034" lon="-3.100932"><ele>266</ele><time>2020-08-14T14:26:11Z</time><name>PT7699</name></trkpt>
<trkpt lat="54.616031" lon="-3.100951"><ele>267</ele><time>2020-08-14T14:26:12Z</time><name>PT7700</name></trkpt>
<trkpt lat="54.616030" lon="-3.100971"><ele>266</ele><time>2020-08-14T14:26:13Z</time><name>PT7701</name></trkpt>
<trkpt lat="54.616030" lon="-3.100976"><ele>266</ele><time>2020-08-14T14:26:14Z</time><name>PT7702</name></trkpt>
<trkpt lat="54.616032" lon="-3.100988"><ele>266</ele><time>2020-08-14T14:26:15Z</time><name>PT7703</name></trkpt>
<trkpt lat="54.616030" lon="-3.101006"><ele>266</ele><time>2020-08-14T14:26:16Z</time><name>PT7704</name></trkpt>
<trkpt lat="54.616029" lon="-3.101031"><ele>266</ele><time>2020-08-14T14:26:17Z</time><name>PT7705</name></trkpt>
<trkpt lat="54.616026" lon="-3.101049"><ele>266</ele><time>2020-08-14T14:26:18Z</time><name>PT7706</name></trkpt>
<trkpt lat="54.616023" lon="-3.101075"><ele>267</ele><time>2020-08-14T14:26:19Z</time><name>PT7707</name></trkpt>
<trkpt lat="54.616024" lon="-3.101094"><ele>267</ele><time>2020-08-14T14:26:20Z</time><name>PT7708</name></trkpt>
<trkpt lat="54.616023" lon="-3.101114"><ele>267</ele><time>2020-08-14T14:26:21Z</time><name>PT7709</name></trkpt>
<trkpt lat="54.616020" lon="-3.101138"><ele>267</ele><time>2020-08-14T14:26:22Z</time><name>PT7710</name></trkpt>
<trkpt lat="54.616023" lon="-3.101157"><ele>267</ele><time>2020-08-14T14:26:23Z</time><name>PT7711</name></trkpt>
<trkpt lat="54.616017" lon="-3.101237"><ele>268</ele><time>2020-08-14T14:26:27Z</time><name>PT7712</name></trkpt>
<trkpt lat="54.616015" lon="-3.101317"><ele>269</ele><time>2020-08-14T14:26:31Z</time><name>PT7713</name></trkpt>
<trkpt lat="54.616014" lon="-3.101398"><ele>271</ele><time>2020-08-14T14:26:35Z</time><name>PT7714</name></trkpt>
<trkpt lat="54.616011" lon="-3.101443"><ele>271</ele><time>2020-08-14T14:26:38Z</time><name>PT7715</name></trkpt>
<trkpt lat="54.616006" lon="-3.101514"><ele>270</ele><time>2020-08-14T14:26:42Z</time><name>PT7716</name></trkpt>
<trkpt lat="54.616011" lon="-3.101589"><ele>270</ele><time>2020-08-14T14:26:46Z</time><name>PT7717</name></trkpt>
<trkpt lat="54.616001" lon="-3.101637"><ele>270</ele><time>2020-08-14T14:26:49Z</time><name>PT7718</name></trkpt>
<trkpt lat="54.616000" lon="-3.101707"><ele>272</ele><time>2020-08-14T14:26:53Z</time><name>PT7719</name></trkpt>
<trkpt lat="54.616000" lon="-3.101772"><ele>273</ele><time>2020-08-14T14:26:57Z</time><name>PT7720</name></trkpt>
<trkpt lat="54.615993" lon="-3.101831"><ele>273</ele><time>2020-08-14T14:27:00Z</time><name>PT7721</name></trkpt>
<trkpt lat="54.615987" lon="-3.101899"><ele>273</ele><time>2020-08-14T14:27:04Z</time><name>PT7722</name></trkpt>
<trkpt lat="54.615990" lon="-3.101964"><ele>274</ele><time>2020-08-14T14:27:08Z</time><name>PT7723</name></trkpt>
<trkpt lat="54.615991" lon="-3.102025"><ele>275</ele><time>2020-08-14T14:27:12Z</time><name>PT7724</name></trkpt>
<trkpt lat="54.615991" lon="-3.102072"><ele>275</ele><time>2020-08-14T14:27:15Z</time><name>PT7725</name></trkpt>
<trkpt lat="54.615985" lon="-3.102138"><ele>275</ele><time>2020-08-14T14:27:19Z</time><name>PT7726</name></trkpt>
<trkpt lat="54.615977" lon="-3.102197"><ele>277</ele><time>2020-08-14T14:27:22Z</time><name>PT7727</name></trkpt>
<trkpt lat="54.615972" lon="-3.102248"><ele>276</ele><time>2020-08-14T14:27:25Z</time><name>PT7728</name></trkpt>
<trkpt lat="54.615964" lon="-3.102305"><ele>277</ele><time>2020-08-14T14:27:29Z</time><name>PT7729</name></trkpt>
<trkpt lat="54.615965" lon="-3.102371"><ele>278</ele><time>2020-08-14T14:27:33Z</time><name>PT7730</name></trkpt>
<trkpt lat="54.615964" lon="-3.102446"><ele>278</ele><time>2020-08-14T14:27:37Z</time><name>PT7731</name></trkpt>
<trkpt lat="54.615962" lon="-3.102508"><ele>278</ele><time>2020-08-14T14:27:40Z</time><name>PT7732</name></trkpt>
<trkpt lat="54.615962" lon="-3.102587"><ele>280</ele><time>2020-08-14T14:27:44Z</time><name>PT7733</name></trkpt>
<trkpt lat="54.615965" lon="-3.102651"><ele>279</ele><time>2020-08-14T14:27:47Z</time><name>PT7734</name></trkpt>
<trkpt lat="54.615966" lon="-3.102721"><ele>279</ele><time>2020-08-14T14:27:51Z</time><name>PT7735</name></trkpt>
<trkpt lat="54.615973" lon="-3.102794"><ele>280</ele><time>2020-08-14T14:27:55Z</time><name>PT7736</name></trkpt>
<trkpt lat="54.615976" lon="-3.102861"><ele>280</ele><time>2020-08-14T14:27:59Z</time><name>PT7737</name></trkpt>
<trkpt lat="54.615978" lon="-3.102922"><ele>280</ele><time>2020-08-14T14:28:02Z</time><name>PT7738</name></trkpt>
<trkpt lat="54.615975" lon="-3.102971"><ele>281</ele><time>2020-08-14T14:28:05Z</time><name>PT7739</name></trkpt>
<trkpt lat="54.615971" lon="-3.103036"><ele>282</ele><time>2020-08-14T14:28:09Z</time><name>PT7740</name></trkpt>
<trkpt lat="54.615971" lon="-3.103086"><ele>281</ele><time>2020-08-14T14:28:12Z</time><name>PT7741</name></trkpt>
<trkpt lat="54.615958" lon="-3.103151"><ele>281</ele><time>2020-08-14T14:28:16Z</time><name>PT7742</name></trkpt>
<trkpt lat="54.615961" lon="-3.103229"><ele>284</ele><time>2020-08-14T14:28:20Z</time><name>PT7743</name></trkpt>
<trkpt lat="54.615948" lon="-3.103274"><ele>283</ele><time>2020-08-14T14:28:23Z</time><name>PT7744</name></trkpt>
<trkpt lat="54.615938" lon="-3.103347"><ele>281</ele><time>2020-08-14T14:28:27Z</time><name>PT7745</name></trkpt>
<trkpt lat="54.615931" lon="-3.103410"><ele>281</ele><time>2020-08-14T14:28:30Z</time><name>PT7746</name></trkpt>
<trkpt lat="54.615917" lon="-3.103480"><ele>281</ele><time>2020-08-14T14:28:34Z</time><name>PT7747</name></trkpt>
<trkpt lat="54.615913" lon="-3.103525"><ele>281</ele><time>2020-08-14T14:28:37Z</time><name>PT7748</name></trkpt>
<trkpt lat="54.615898" lon="-3.103599"><ele>279</ele><time>2020-08-14T14:28:41Z</time><name>PT7749</name></trkpt>
<trkpt lat="54.615895" lon="-3.103672"><ele>280</ele><time>2020-08-14T14:28:45Z</time><name>PT7750</name></trkpt>
<trkpt lat="54.615889" lon="-3.103743"><ele>281</ele><time>2020-08-14T14:28:49Z</time><name>PT7751</name></trkpt>
<trkpt lat="54.615882" lon="-3.103819"><ele>281</ele><time>2020-08-14T14:28:53Z</time><name>PT7752</name></trkpt>
<trkpt lat="54.615891" lon="-3.103872"><ele>282</ele><time>2020-08-14T14:28:56Z</time><name>PT7753</name></trkpt>
<trkpt lat="54.615902" lon="-3.103931"><ele>284</ele><time>2020-08-14T14:28:59Z</time><name>PT7754</name></trkpt>
<trkpt lat="54.615901" lon="-3.103992"><ele>284</ele><time>2020-08-14T14:29:02Z</time><name>PT7755</name></trkpt>
<trkpt lat="54.615896" lon="-3.104061"><ele>285</ele><time>2020-08-14T14:29:06Z</time><name>PT7756</name></trkpt>
<trkpt lat="54.615899" lon="-3.104125"><ele>286</ele><time>2020-08-14T14:29:09Z</time><name>PT7757</name></trkpt>
<trkpt lat="54.615899" lon="-3.104194"><ele>286</ele><time>2020-08-14T14:29:12Z</time><name>PT7758</name></trkpt>
<trkpt lat="54.615909" lon="-3.104264"><ele>287</ele><time>2020-08-14T14:29:16Z</time><name>PT7759</name></trkpt>
<trkpt lat="54.615899" lon="-3.104340"><ele>286</ele><time>2020-08-14T14:29:20Z</time><name>PT7760</name></trkpt>
<trkpt lat="54.615895" lon="-3.104420"><ele>287</ele><time>2020-08-14T14:29:24Z</time><name>PT7761</name></trkpt>
<trkpt lat="54.615891" lon="-3.104489"><ele>288</ele><time>2020-08-14T14:29:27Z</time><name>PT7762</name></trkpt>
<trkpt lat="54.615890" lon="-3.104562"><ele>288</ele><time>2020-08-14T14:29:31Z</time><name>PT7763</name></trkpt>
<trkpt lat="54.615885" lon="-3.104605"><ele>288</ele><time>2020-08-14T14:29:34Z</time><name>PT7764</name></trkpt>
<trkpt lat="54.615899" lon="-3.104681"><ele>291</ele><time>2020-08-14T14:29:38Z</time><name>PT7765</name></trkpt>
<trkpt lat="54.615902" lon="-3.104728"><ele>291</ele><time>2020-08-14T14:29:42Z</time><name>PT7766</name></trkpt>
<trkpt lat="54.615903" lon="-3.104736"><ele>291</ele><time>2020-08-14T14:29:45Z</time><name>PT7767</name></trkpt>
<trkpt lat="54.615898" lon="-3.104751"><ele>291</ele><time>2020-08-14T14:29:49Z</time><name>PT7768</name></trkpt>
<trkpt lat="54.615888" lon="-3.104825"><ele>291</ele><time>2020-08-14T14:29:52Z</time><name>PT7769</name></trkpt>
<trkpt lat="54.615863" lon="-3.104901"><ele>290</ele><time>2020-08-14T14:29:56Z</time><name>PT7770</name></trkpt>
<trkpt lat="54.615849" lon="-3.104954"><ele>290</ele><time>2020-08-14T14:29:59Z</time><name>PT7771</name></trkpt>
<trkpt lat="54.615841" lon="-3.105007"><ele>291</ele><time>2020-08-14T14:30:02Z</time><name>PT7772</name></trkpt>
<trkpt lat="54.615838" lon="-3.105061"><ele>291</ele><time>2020-08-14T14:30:05Z</time><name>PT7773</name></trkpt>
<trkpt lat="54.615835" lon="-3.105135"><ele>291</ele><time>2020-08-14T14:30:09Z</time><name>PT7774</name></trkpt>
<trkpt lat="54.615840" lon="-3.105216"><ele>292</ele><time>2020-08-14T14:30:13Z</time><name>PT7775</name></trkpt>
<trkpt lat="54.615844" lon="-3.105298"><ele>294</ele><time>2020-08-14T14:30:17Z</time><name>PT7776</name></trkpt>
<trkpt lat="54.615841" lon="-3.105377"><ele>293</ele><time>2020-08-14T14:30:21Z</time><name>PT7777</name></trkpt>
<trkpt lat="54.615839" lon="-3.105428"><ele>292</ele><time>2020-08-14T14:30:24Z</time><name>PT7778</name></trkpt>
<trkpt lat="54.615838" lon="-3.105511"><ele>292</ele><time>2020-08-14T14:30:28Z</time><name>PT7779</name></trkpt>
<trkpt lat="54.615834" lon="-3.105573"><ele>293</ele><time>2020-08-14T14:30:31Z</time><name>PT7780</name></trkpt>
<trkpt lat="54.615824" lon="-3.105628"><ele>292</ele><time>2020-08-14T14:30:34Z</time><name>PT7781</name></trkpt>
<trkpt lat="54.615816" lon="-3.105703"><ele>293</ele><time>2020-08-14T14:30:38Z</time><name>PT7782</name></trkpt>
<trkpt lat="54.615810" lon="-3.105783"><ele>293</ele><time>2020-08-14T14:30:42Z</time><name>PT7783</name></trkpt>
<trkpt lat="54.615810" lon="-3.105838"><ele>293</ele><time>2020-08-14T14:30:45Z</time><name>PT7784</name></trkpt>
<trkpt lat="54.615811" lon="-3.105926"><ele>294</ele><time>2020-08-14T14:30:49Z</time><name>PT7785</name></trkpt>
<trkpt lat="54.615805" lon="-3.106013"><ele>296</ele><time>2020-08-14T14:30:53Z</time><name>PT7786</name></trkpt>
<trkpt lat="54.615797" lon="-3.106066"><ele>296</ele><time>2020-08-14T14:30:56Z</time><name>PT7787</name></trkpt>
<trkpt lat="54.615792" lon="-3.106143"><ele>296</ele><time>2020-08-14T14:31:00Z</time><name>PT7788</name></trkpt>
<trkpt lat="54.615782" lon="-3.106223"><ele>296</ele><time>2020-08-14T14:31:04Z</time><name>PT7789</name></trkpt>
<trkpt lat="54.615783" lon="-3.106284"><ele>296</ele><time>2020-08-14T14:31:07Z</time><name>PT7790</name></trkpt>
<trkpt lat="54.615774" lon="-3.106357"><ele>297</ele><time>2020-08-14T14:31:11Z</time><name>PT7791</name></trkpt>
<trkpt lat="54.615766" lon="-3.106406"><ele>297</ele><time>2020-08-14T14:31:14Z</time><name>PT7792</name></trkpt>
<trkpt lat="54.615754" lon="-3.106475"><ele>297</ele><time>2020-08-14T14:31:18Z</time><name>PT7793</name></trkpt>
<trkpt lat="54.615746" lon="-3.106528"><ele>297</ele><time>2020-08-14T14:31:21Z</time><name>PT7794</name></trkpt>
<trkpt lat="54.615736" lon="-3.106597"><ele>296</ele><time>2020-08-14T14:31:24Z</time><name>PT7795</name></trkpt>
<trkpt lat="54.615730" lon="-3.106655"><ele>296</ele><time>2020-08-14T14:31:27Z</time><name>PT7796</name></trkpt>
<trkpt lat="54.615732" lon="-3.106731"><ele>297</ele><time>2020-08-14T14:31:31Z</time><name>PT7797</name></trkpt>
<trkpt lat="54.615713" lon="-3.106809"><ele>297</ele><time>2020-08-14T14:31:35Z</time><name>PT7798</name></trkpt>
<trkpt lat="54.615696" lon="-3.106859"><ele>295</ele><time>2020-08-14T14:31:38Z</time><name>PT7799</name></trkpt>
<trkpt lat="54.615689" lon="-3.106939"><ele>294</ele><time>2020-08-14T14:31:42Z</time><name>PT7800</name></trkpt>
<trkpt lat="54.615694" lon="-3.107019"><ele>297</ele><time>2020-08-14T14:31:45Z</time><name>PT7801</name></trkpt>
<trkpt lat="54.615705" lon="-3.107102"><ele>298</ele><time>2020-08-14T14:31:49Z</time><name>PT7802</name></trkpt>
<trkpt lat="54.615699" lon="-3.107185"><ele>296</ele><time>2020-08-14T14:31:53Z</time><name>PT7803</name></trkpt>
<trkpt lat="54.615699" lon="-3.107272"><ele>297</ele><time>2020-08-14T14:31:57Z</time><name>PT7804</name></trkpt>
<trkpt lat="54.615688" lon="-3.107322"><ele>295</ele><time>2020-08-14T14:32:00Z</time><name>PT7805</name></trkpt>
<trkpt lat="54.615693" lon="-3.107396"><ele>296</ele><time>2020-08-14T14:32:03Z</time><name>PT7806</name></trkpt>
<trkpt lat="54.615694" lon="-3.107468"><ele>295</ele><time>2020-08-14T14:32:07Z</time><name>PT7807</name></trkpt>
<trkpt lat="54.615690" lon="-3.107555"><ele>295</ele><time>2020-08-14T14:32:11Z</time><name>PT7808</name></trkpt>
<trkpt lat="54.615690" lon="-3.107629"><ele>294</ele><time>2020-08-14T14:32:14Z</time><name>PT7809</name></trkpt>
<trkpt lat="54.615692" lon="-3.107692"><ele>296</ele><time>2020-08-14T14:32:17Z</time><name>PT7810</name></trkpt>
<trkpt lat="54.615696" lon="-3.107754"><ele>296</ele><time>2020-08-14T14:32:20Z</time><name>PT7811</name></trkpt>
<trkpt lat="54.615699" lon="-3.107816"><ele>296</ele><time>2020-08-14T14:32:23Z</time><name>PT7812</name></trkpt>
<trkpt lat="54.615706" lon="-3.107898"><ele>297</ele><time>2020-08-14T14:32:27Z</time><name>PT7813</name></trkpt>
<trkpt lat="54.615718" lon="-3.107967"><ele>299</ele><time>2020-08-14T14:32:30Z</time><name>PT7814</name></trkpt>
<trkpt lat="54.615716" lon="-3.108056"><ele>299</ele><time>2020-08-14T14:32:34Z</time><name>PT7815</name></trkpt>
<trkpt lat="54.615716" lon="-3.108121"><ele>299</ele><time>2020-08-14T14:32:37Z</time><name>PT7816</name></trkpt>
<trkpt lat="54.615719" lon="-3.108197"><ele>300</ele><time>2020-08-14T14:32:40Z</time><name>PT7817</name></trkpt>
<trkpt lat="54.615718" lon="-3.108273"><ele>300</ele><time>2020-08-14T14:32:44Z</time><name>PT7818</name></trkpt>
<trkpt lat="54.615715" lon="-3.108355"><ele>299</ele><time>2020-08-14T14:32:48Z</time><name>PT7819</name></trkpt>
<trkpt lat="54.615703" lon="-3.108442"><ele>298</ele><time>2020-08-14T14:32:52Z</time><name>PT7820</name></trkpt>
<trkpt lat="54.615691" lon="-3.108495"><ele>298</ele><time>2020-08-14T14:32:55Z</time><name>PT7821</name></trkpt>
<trkpt lat="54.615688" lon="-3.108565"><ele>298</ele><time>2020-08-14T14:32:58Z</time><name>PT7822</name></trkpt>
<trkpt lat="54.615683" lon="-3.108583"><ele>298</ele><time>2020-08-14T14:32:59Z</time><name>PT7823</name></trkpt>
<trkpt lat="54.615681" lon="-3.108603"><ele>297</ele><time>2020-08-14T14:33:00Z</time><name>PT7824</name></trkpt>
<trkpt lat="54.615684" lon="-3.108622"><ele>297</ele><time>2020-08-14T14:33:01Z</time><name>PT7825</name></trkpt>
<trkpt lat="54.615685" lon="-3.108638"><ele>298</ele><time>2020-08-14T14:33:02Z</time><name>PT7826</name></trkpt>
<trkpt lat="54.615682" lon="-3.108654"><ele>298</ele><time>2020-08-14T14:33:03Z</time><name>PT7827</name></trkpt>
<trkpt lat="54.615681" lon="-3.108667"><ele>298</ele><time>2020-08-14T14:33:04Z</time><name>PT7828</name></trkpt>
<trkpt lat="54.615679" lon="-3.108680"><ele>298</ele><time>2020-08-14T14:33:05Z</time><name>PT7829</name></trkpt>
<trkpt lat="54.615676" lon="-3.108699"><ele>298</ele><time>2020-08-14T14:33:06Z</time><name>PT7830</name></trkpt>
<trkpt lat="54.615672" lon="-3.108721"><ele>298</ele><time>2020-08-14T14:33:07Z</time><name>PT7831</name></trkpt>
<trkpt lat="54.615674" lon="-3.108753"><ele>299</ele><time>2020-08-14T14:33:08Z</time><name>PT7832</name></trkpt>
<trkpt lat="54.615672" lon="-3.108776"><ele>299</ele><time>2020-08-14T14:33:09Z</time><name>PT7833</name></trkpt>
<trkpt lat="54.615669" lon="-3.108789"><ele>299</ele><time>2020-08-14T14:33:10Z</time><name>PT7834</name></trkpt>
<trkpt lat="54.615668" lon="-3.108802"><ele>299</ele><time>2020-08-14T14:33:11Z</time><name>PT7835</name></trkpt>
<trkpt lat="54.615663" lon="-3.108821"><ele>299</ele><time>2020-08-14T14:33:12Z</time><name>PT7836</name></trkpt>
<trkpt lat="54.615661" lon="-3.108845"><ele>299</ele><time>2020-08-14T14:33:13Z</time><name>PT7837</name></trkpt>
<trkpt lat="54.615659" lon="-3.108872"><ele>299</ele><time>2020-08-14T14:33:14Z</time><name>PT7838</name></trkpt>
<trkpt lat="54.615658" lon="-3.108885"><ele>299</ele><time>2020-08-14T14:33:15Z</time><name>PT7839</name></trkpt>
<trkpt lat="54.615659" lon="-3.108897"><ele>299</ele><time>2020-08-14T14:33:16Z</time><name>PT7840</name></trkpt>
<trkpt lat="54.615657" lon="-3.108918"><ele>299</ele><time>2020-08-14T14:33:17Z</time><name>PT7841</name></trkpt>
<trkpt lat="54.615654" lon="-3.108934"><ele>299</ele><time>2020-08-14T14:33:18Z</time><name>PT7842</name></trkpt>
<trkpt lat="54.615653" lon="-3.108955"><ele>299</ele><time>2020-08-14T14:33:19Z</time><name>PT7843</name></trkpt>
<trkpt lat="54.615649" lon="-3.108970"><ele>298</ele><time>2020-08-14T14:33:20Z</time><name>PT7844</name></trkpt>
<trkpt lat="54.615643" lon="-3.108986"><ele>298</ele><time>2020-08-14T14:33:21Z</time><name>PT7845</name></trkpt>
<trkpt lat="54.615639" lon="-3.109004"><ele>298</ele><time>2020-08-14T14:33:22Z</time><name>PT7846</name></trkpt>
<trkpt lat="54.615637" lon="-3.109024"><ele>298</ele><time>2020-08-14T14:33:23Z</time><name>PT7847</name></trkpt>
<trkpt lat="54.615634" lon="-3.109038"><ele>298</ele><time>2020-08-14T14:33:24Z</time><name>PT7848</name></trkpt>
<trkpt lat="54.615627" lon="-3.109055"><ele>298</ele><time>2020-08-14T14:33:25Z</time><name>PT7849</name></trkpt>
<trkpt lat="54.615622" lon="-3.109071"><ele>299</ele><time>2020-08-14T14:33:26Z</time><name>PT7850</name></trkpt>
<trkpt lat="54.615620" lon="-3.109090"><ele>299</ele><time>2020-08-14T14:33:27Z</time><name>PT7851</name></trkpt>
<trkpt lat="54.615616" lon="-3.109108"><ele>298</ele><time>2020-08-14T14:33:28Z</time><name>PT7852</name></trkpt>
<trkpt lat="54.615611" lon="-3.109131"><ele>298</ele><time>2020-08-14T14:33:29Z</time><name>PT7853</name></trkpt>
<trkpt lat="54.615606" lon="-3.109160"><ele>298</ele><time>2020-08-14T14:33:30Z</time><name>PT7854</name></trkpt>
<trkpt lat="54.615602" lon="-3.109183"><ele>298</ele><time>2020-08-14T14:33:31Z</time><name>PT7855</name></trkpt>
<trkpt lat="54.615596" lon="-3.109203"><ele>299</ele><time>2020-08-14T14:33:32Z</time><name>PT7856</name></trkpt>
<trkpt lat="54.615591" lon="-3.109220"><ele>298</ele><time>2020-08-14T14:33:33Z</time><name>PT7857</name></trkpt>
<trkpt lat="54.615584" lon="-3.109239"><ele>298</ele><time>2020-08-14T14:33:34Z</time><name>PT7858</name></trkpt>
<trkpt lat="54.615575" lon="-3.109259"><ele>298</ele><time>2020-08-14T14:33:35Z</time><name>PT7859</name></trkpt>
<trkpt lat="54.615567" lon="-3.109283"><ele>299</ele><time>2020-08-14T14:33:36Z</time><name>PT7860</name></trkpt>
<trkpt lat="54.615541" lon="-3.109301"><ele>295</ele><time>2020-08-14T14:33:37Z</time><name>PT7861</name></trkpt>
<trkpt lat="54.615535" lon="-3.109318"><ele>295</ele><time>2020-08-14T14:33:38Z</time><name>PT7862</name></trkpt>
<trkpt lat="54.615534" lon="-3.109330"><ele>295</ele><time>2020-08-14T14:33:39Z</time><name>PT7863</name></trkpt>
<trkpt lat="54.615531" lon="-3.109351"><ele>296</ele><time>2020-08-14T14:33:40Z</time><name>PT7864</name></trkpt>
<trkpt lat="54.615524" lon="-3.109370"><ele>296</ele><time>2020-08-14T14:33:41Z</time><name>PT7865</name></trkpt>
<trkpt lat="54.615518" lon="-3.109389"><ele>296</ele><time>2020-08-14T14:33:42Z</time><name>PT7866</name></trkpt>
<trkpt lat="54.615516" lon="-3.109405"><ele>296</ele><time>2020-08-14T14:33:43Z</time><name>PT7867</name></trkpt>
<trkpt lat="54.615514" lon="-3.109422"><ele>297</ele><time>2020-08-14T14:33:44Z</time><name>PT7868</name></trkpt>
<trkpt lat="54.615510" lon="-3.109439"><ele>297</ele><time>2020-08-14T14:33:45Z</time><name>PT7869</name></trkpt>
<trkpt lat="54.615507" lon="-3.109455"><ele>296</ele><time>2020-08-14T14:33:46Z</time><name>PT7870</name></trkpt>
<trkpt lat="54.615504" lon="-3.109481"><ele>297</ele><time>2020-08-14T14:33:47Z</time><name>PT7871</name></trkpt>
<trkpt lat="54.615502" lon="-3.109496"><ele>297</ele><time>2020-08-14T14:33:48Z</time><name>PT7872</name></trkpt>
<trkpt lat="54.615502" lon="-3.109516"><ele>298</ele><time>2020-08-14T14:33:49Z</time><name>PT7873</name></trkpt>
<trkpt lat="54.615499" lon="-3.109554"><ele>300</ele><time>2020-08-14T14:33:50Z</time><name>PT7874</name></trkpt>
<trkpt lat="54.615501" lon="-3.109575"><ele>299</ele><time>2020-08-14T14:33:51Z</time><name>PT7875</name></trkpt>
<trkpt lat="54.615498" lon="-3.109605"><ele>300</ele><time>2020-08-14T14:33:52Z</time><name>PT7876</name></trkpt>
<trkpt lat="54.615494" lon="-3.109634"><ele>300</ele><time>2020-08-14T14:33:53Z</time><name>PT7877</name></trkpt>
<trkpt lat="54.615492" lon="-3.109650"><ele>299</ele><time>2020-08-14T14:33:54Z</time><name>PT7878</name></trkpt>
<trkpt lat="54.615497" lon="-3.109660"><ele>299</ele><time>2020-08-14T14:33:55Z</time><name>PT7879</name></trkpt>
<trkpt lat="54.615501" lon="-3.109672"><ele>298</ele><time>2020-08-14T14:33:56Z</time><name>PT7880</name></trkpt>
<trkpt lat="54.615509" lon="-3.109692"><ele>298</ele><time>2020-08-14T14:33:57Z</time><name>PT7881</name></trkpt>
<trkpt lat="54.615516" lon="-3.109708"><ele>298</ele><time>2020-08-14T14:33:58Z</time><name>PT7882</name></trkpt>
<trkpt lat="54.615529" lon="-3.109734"><ele>299</ele><time>2020-08-14T14:33:59Z</time><name>PT7883</name></trkpt>
<trkpt lat="54.615540" lon="-3.109754"><ele>298</ele><time>2020-08-14T14:34:00Z</time><name>PT7884</name></trkpt>
<trkpt lat="54.615548" lon="-3.109769"><ele>298</ele><time>2020-08-14T14:34:01Z</time><name>PT7885</name></trkpt>
<trkpt lat="54.615556" lon="-3.109780"><ele>299</ele><time>2020-08-14T14:34:02Z</time><name>PT7886</name></trkpt>
<trkpt lat="54.615562" lon="-3.109792"><ele>299</ele><time>2020-08-14T14:34:03Z</time><name>PT7887</name></trkpt>
<trkpt lat="54.615572" lon="-3.109803"><ele>299</ele><time>2020-08-14T14:34:04Z</time><name>PT7888</name></trkpt>
<trkpt lat="54.615584" lon="-3.109816"><ele>299</ele><time>2020-08-14T14:34:05Z</time><name>PT7889</name></trkpt>
<trkpt lat="54.615593" lon="-3.109834"><ele>299</ele><time>2020-08-14T14:34:06Z</time><name>PT7890</name></trkpt>
<trkpt lat="54.615601" lon="-3.109846"><ele>299</ele><time>2020-08-14T14:34:07Z</time><name>PT7891</name></trkpt>
<trkpt lat="54.615604" lon="-3.109851"><ele>299</ele><time>2020-08-14T14:34:08Z</time><name>PT7892</name></trkpt>
<trkpt lat="54.615613" lon="-3.109860"><ele>299</ele><time>2020-08-14T14:34:09Z</time><name>PT7893</name></trkpt>
<trkpt lat="54.615625" lon="-3.109870"><ele>300</ele><time>2020-08-14T14:34:10Z</time><name>PT7894</name></trkpt>
<trkpt lat="54.615637" lon="-3.109881"><ele>300</ele><time>2020-08-14T14:34:11Z</time><name>PT7895</name></trkpt>
<trkpt lat="54.615648" lon="-3.109892"><ele>301</ele><time>2020-08-14T14:34:12Z</time><name>PT7896</name></trkpt>
<trkpt lat="54.615660" lon="-3.109901"><ele>301</ele><time>2020-08-14T14:34:13Z</time><name>PT7897</name></trkpt>
<trkpt lat="54.615668" lon="-3.109907"><ele>301</ele><time>2020-08-14T14:34:14Z</time><name>PT7898</name></trkpt>
<trkpt lat="54.615676" lon="-3.109913"><ele>300</ele><time>2020-08-14T14:34:15Z</time><name>PT7899</name></trkpt>
<trkpt lat="54.615686" lon="-3.109921"><ele>301</ele><time>2020-08-14T14:34:16Z</time><name>PT7900</name></trkpt>
<trkpt lat="54.615699" lon="-3.109932"><ele>301</ele><time>2020-08-14T14:34:17Z</time><name>PT7901</name></trkpt>
<trkpt lat="54.615710" lon="-3.109938"><ele>302</ele><time>2020-08-14T14:34:18Z</time><name>PT7902</name></trkpt>
<trkpt lat="54.615717" lon="-3.109946"><ele>302</ele><time>2020-08-14T14:34:19Z</time><name>PT7903</name></trkpt>
<trkpt lat="54.615726" lon="-3.109953"><ele>302</ele><time>2020-08-14T14:34:20Z</time><name>PT7904</name></trkpt>
<trkpt lat="54.615738" lon="-3.109958"><ele>302</ele><time>2020-08-14T14:34:21Z</time><name>PT7905</name></trkpt>
<trkpt lat="54.615752" lon="-3.109965"><ele>303</ele><time>2020-08-14T14:34:22Z</time><name>PT7906</name></trkpt>
<trkpt lat="54.615761" lon="-3.109975"><ele>303</ele><time>2020-08-14T14:34:23Z</time><name>PT7907</name></trkpt>
<trkpt lat="54.615767" lon="-3.109979"><ele>303</ele><time>2020-08-14T14:34:24Z</time><name>PT7908</name></trkpt>
<trkpt lat="54.615775" lon="-3.109985"><ele>303</ele><time>2020-08-14T14:34:25Z</time><name>PT7909</name></trkpt>
<trkpt lat="54.615787" lon="-3.109993"><ele>303</ele><time>2020-08-14T14:34:26Z</time><name>PT7910</name></trkpt>
<trkpt lat="54.615798" lon="-3.110007"><ele>303</ele><time>2020-08-14T14:34:27Z</time><name>PT7911</name></trkpt>
<trkpt lat="54.615810" lon="-3.110017"><ele>303</ele><time>2020-08-14T14:34:28Z</time><name>PT7912</name></trkpt>
<trkpt lat="54.615815" lon="-3.110023"><ele>303</ele><time>2020-08-14T14:34:29Z</time><name>PT7913</name></trkpt>
<trkpt lat="54.615823" lon="-3.110028"><ele>303</ele><time>2020-08-14T14:34:30Z</time><name>PT7914</name></trkpt>
<trkpt lat="54.615834" lon="-3.110042"><ele>303</ele><time>2020-08-14T14:34:31Z</time><name>PT7915</name></trkpt>
<trkpt lat="54.615843" lon="-3.110054"><ele>303</ele><time>2020-08-14T14:34:32Z</time><name>PT7916</name></trkpt>
<trkpt lat="54.615853" lon="-3.110062"><ele>303</ele><time>2020-08-14T14:34:33Z</time><name>PT7917</name></trkpt>
<trkpt lat="54.615861" lon="-3.110069"><ele>303</ele><time>2020-08-14T14:34:34Z</time><name>PT7918</name></trkpt>
<trkpt lat="54.615870" lon="-3.110077"><ele>303</ele><time>2020-08-14T14:34:35Z</time><name>PT7919</name></trkpt>
<trkpt lat="54.615884" lon="-3.110084"><ele>303</ele><time>2020-08-14T14:34:36Z</time><name>PT7920</name></trkpt>
<trkpt lat="54.615892" lon="-3.110096"><ele>304</ele><time>2020-08-14T14:34:37Z</time><name>PT7921</name></trkpt>
<trkpt lat="54.615897" lon="-3.110103"><ele>304</ele><time>2020-08-14T14:34:38Z</time><name>PT7922</name></trkpt>
<trkpt lat="54.615902" lon="-3.110113"><ele>303</ele><time>2020-08-14T14:34:39Z</time><name>PT7923</name></trkpt>
<trkpt lat="54.615911" lon="-3.110124"><ele>304</ele><time>2020-08-14T14:34:40Z</time><name>PT7924</name></trkpt>
<trkpt lat="54.615921" lon="-3.110137"><ele>304</ele><time>2020-08-14T14:34:41Z</time><name>PT7925</name></trkpt>
<trkpt lat="54.615928" lon="-3.110149"><ele>304</ele><time>2020-08-14T14:34:42Z</time><name>PT7926</name></trkpt>
<trkpt lat="54.615933" lon="-3.110157"><ele>304</ele><time>2020-08-14T14:34:43Z</time><name>PT7927</name></trkpt>
<trkpt lat="54.615942" lon="-3.110171"><ele>305</ele><time>2020-08-14T14:34:44Z</time><name>PT7928</name></trkpt>
<trkpt lat="54.615955" lon="-3.110182"><ele>305</ele><time>2020-08-14T14:34:45Z</time><name>PT7929</name></trkpt>
<trkpt lat="54.615963" lon="-3.110195"><ele>305</ele><time>2020-08-14T14:34:46Z</time><name>PT7930</name></trkpt>
<trkpt lat="54.615969" lon="-3.110204"><ele>305</ele><time>2020-08-14T14:34:47Z</time><name>PT7931</name></trkpt>
<trkpt lat="54.615978" lon="-3.110211"><ele>305</ele><time>2020-08-14T14:34:48Z</time><name>PT7932</name></trkpt>
<trkpt lat="54.615986" lon="-3.110220"><ele>305</ele><time>2020-08-14T14:34:49Z</time><name>PT7933</name></trkpt>
<trkpt lat="54.615999" lon="-3.110232"><ele>306</ele><time>2020-08-14T14:34:50Z</time><name>PT7934</name></trkpt>
<trkpt lat="54.616008" lon="-3.110247"><ele>306</ele><time>2020-08-14T14:34:51Z</time><name>PT7935</name></trkpt>
<trkpt lat="54.616016" lon="-3.110256"><ele>306</ele><time>2020-08-14T14:34:52Z</time><name>PT7936</name></trkpt>
<trkpt lat="54.616023" lon="-3.110268"><ele>306</ele><time>2020-08-14T14:34:53Z</time><name>PT7937</name></trkpt>
<trkpt lat="54.616032" lon="-3.110285"><ele>306</ele><time>2020-08-14T14:34:54Z</time><name>PT7938</name></trkpt>
<trkpt lat="54.616042" lon="-3.110301"><ele>307</ele><time>2020-08-14T14:34:55Z</time><name>PT7939</name></trkpt>
<trkpt lat="54.616050" lon="-3.110311"><ele>307</ele><time>2020-08-14T14:34:56Z</time><name>PT7940</name></trkpt>
<trkpt lat="54.616056" lon="-3.110322"><ele>307</ele><time>2020-08-14T14:34:57Z</time><name>PT7941</name></trkpt>
<trkpt lat="54.616061" lon="-3.110339"><ele>307</ele><time>2020-08-14T14:34:58Z</time><name>PT7942</name></trkpt>
<trkpt lat="54.616067" lon="-3.110356"><ele>307</ele><time>2020-08-14T14:34:59Z</time><name>PT7943</name></trkpt>
<trkpt lat="54.616071" lon="-3.110374"><ele>307</ele><time>2020-08-14T14:35:00Z</time><name>PT7944</name></trkpt>
<trkpt lat="54.616075" lon="-3.110387"><ele>307</ele><time>2020-08-14T14:35:01Z</time><name>PT7945</name></trkpt>
<trkpt lat="54.616081" lon="-3.110398"><ele>307</ele><time>2020-08-14T14:35:02Z</time><name>PT7946</name></trkpt>
<trkpt lat="54.616086" lon="-3.110415"><ele>307</ele><time>2020-08-14T14:35:03Z</time><name>PT7947</name></trkpt>
<trkpt lat="54.616088" lon="-3.110433"><ele>307</ele><time>2020-08-14T14:35:04Z</time><name>PT7948</name></trkpt>
<trkpt lat="54.616092" lon="-3.110444"><ele>307</ele><time>2020-08-14T14:35:05Z</time><name>PT7949</name></trkpt>
<trkpt lat="54.616094" lon="-3.110453"><ele>306</ele><time>2020-08-14T14:35:06Z</time><name>PT7950</name></trkpt>
<trkpt lat="54.616100" lon="-3.110466"><ele>306</ele><time>2020-08-14T14:35:07Z</time><name>PT7951</name></trkpt>
<trkpt lat="54.616114" lon="-3.110483"><ele>307</ele><time>2020-08-14T14:35:08Z</time><name>PT7952</name></trkpt>
<trkpt lat="54.616121" lon="-3.110496"><ele>308</ele><time>2020-08-14T14:35:09Z</time><name>PT7953</name></trkpt>
<trkpt lat="54.616123" lon="-3.110515"><ele>308</ele><time>2020-08-14T14:35:10Z</time><name>PT7954</name></trkpt>
<trkpt lat="54.616128" lon="-3.110531"><ele>307</ele><time>2020-08-14T14:35:11Z</time><name>PT7955</name></trkpt>
<trkpt lat="54.616135" lon="-3.110556"><ele>308</ele><time>2020-08-14T14:35:12Z</time><name>PT7956</name></trkpt>
<trkpt lat="54.616142" lon="-3.110568"><ele>307</ele><time>2020-08-14T14:35:13Z</time><name>PT7957</name></trkpt>
<trkpt lat="54.616145" lon="-3.110587"><ele>308</ele><time>2020-08-14T14:35:14Z</time><name>PT7958</name></trkpt>
<trkpt lat="54.616151" lon="-3.110606"><ele>308</ele><time>2020-08-14T14:35:15Z</time><name>PT7959</name></trkpt>
<trkpt lat="54.616160" lon="-3.110626"><ele>308</ele><time>2020-08-14T14:35:16Z</time><name>PT7960</name></trkpt>
<trkpt lat="54.616166" lon="-3.110646"><ele>308</ele><time>2020-08-14T14:35:17Z</time><name>PT7961</name></trkpt>
<trkpt lat="54.616170" lon="-3.110658"><ele>308</ele><time>2020-08-14T14:35:18Z</time><name>PT7962</name></trkpt>
<trkpt lat="54.616177" lon="-3.110671"><ele>308</ele><time>2020-08-14T14:35:19Z</time><name>PT7963</name></trkpt>
<trkpt lat="54.616187" lon="-3.110690"><ele>309</ele><time>2020-08-14T14:35:20Z</time><name>PT7964</name></trkpt>
<trkpt lat="54.616192" lon="-3.110712"><ele>309</ele><time>2020-08-14T14:35:21Z</time><name>PT7965</name></trkpt>
<trkpt lat="54.616195" lon="-3.110732"><ele>309</ele><time>2020-08-14T14:35:22Z</time><name>PT7966</name></trkpt>
<trkpt lat="54.616196" lon="-3.110743"><ele>309</ele><time>2020-08-14T14:35:23Z</time><name>PT7967</name></trkpt>
<trkpt lat="54.616200" lon="-3.110760"><ele>309</ele><time>2020-08-14T14:35:24Z</time><name>PT7968</name></trkpt>
<trkpt lat="54.616206" lon="-3.110781"><ele>309</ele><time>2020-08-14T14:35:25Z</time><name>PT7969</name></trkpt>
<trkpt lat="54.616214" lon="-3.110805"><ele>310</ele><time>2020-08-14T14:35:26Z</time><name>PT7970</name></trkpt>
<trkpt lat="54.616220" lon="-3.110833"><ele>310</ele><time>2020-08-14T14:35:27Z</time><name>PT7971</name></trkpt>
<trkpt lat="54.616224" lon="-3.110850"><ele>310</ele><time>2020-08-14T14:35:28Z</time><name>PT7972</name></trkpt>
<trkpt lat="54.616229" lon="-3.110866"><ele>310</ele><time>2020-08-14T14:35:29Z</time><name>PT7973</name></trkpt>
<trkpt lat="54.616236" lon="-3.110888"><ele>310</ele><time>2020-08-14T14:35:30Z</time><name>PT7974</name></trkpt>
<trkpt lat="54.616244" lon="-3.110914"><ele>311</ele><time>2020-08-14T14:35:31Z</time><name>PT7975</name></trkpt>
<trkpt lat="54.616254" lon="-3.110936"><ele>311</ele><time>2020-08-14T14:35:32Z</time><name>PT7976</name></trkpt>
<trkpt lat="54.616260" lon="-3.110953"><ele>311</ele><time>2020-08-14T14:35:33Z</time><name>PT7977</name></trkpt>
<trkpt lat="54.616266" lon="-3.110967"><ele>311</ele><time>2020-08-14T14:35:34Z</time><name>PT7978</name></trkpt>
<trkpt lat="54.616275" lon="-3.110983"><ele>311</ele><time>2020-08-14T14:35:35Z</time><name>PT7979</name></trkpt>
<trkpt lat="54.616283" lon="-3.111002"><ele>311</ele><time>2020-08-14T14:35:36Z</time><name>PT7980</name></trkpt>
<trkpt lat="54.616296" lon="-3.111025"><ele>312</ele><time>2020-08-14T14:35:37Z</time><name>PT7981</name></trkpt>
<trkpt lat="54.616304" lon="-3.111046"><ele>312</ele><time>2020-08-14T14:35:38Z</time><name>PT7982</name></trkpt>
<trkpt lat="54.616308" lon="-3.111056"><ele>312</ele><time>2020-08-14T14:35:39Z</time><name>PT7983</name></trkpt>
<trkpt lat="54.616316" lon="-3.111071"><ele>312</ele><time>2020-08-14T14:35:40Z</time><name>PT7984</name></trkpt>
<trkpt lat="54.616320" lon="-3.111097"><ele>312</ele><time>2020-08-14T14:35:41Z</time><name>PT7985</name></trkpt>
<trkpt lat="54.616326" lon="-3.111117"><ele>312</ele><time>2020-08-14T14:35:42Z</time><name>PT7986</name></trkpt>
<trkpt lat="54.616333" lon="-3.111139"><ele>312</ele><time>2020-08-14T14:35:43Z</time><name>PT7987</name></trkpt>
<trkpt lat="54.616337" lon="-3.111154"><ele>311</ele><time>2020-08-14T14:35:44Z</time><name>PT7988</name></trkpt>
<trkpt lat="54.616343" lon="-3.111165"><ele>311</ele><time>2020-08-14T14:35:45Z</time><name>PT7989</name></trkpt>
<trkpt lat="54.616349" lon="-3.111184"><ele>311</ele><time>2020-08-14T14:35:46Z</time><name>PT7990</name></trkpt>
<trkpt lat="54.616353" lon="-3.111203"><ele>311</ele><time>2020-08-14T14:35:47Z</time><name>PT7991</name></trkpt>
<trkpt lat="54.616360" lon="-3.111225"><ele>311</ele><time>2020-08-14T14:35:48Z</time><name>PT7992</name></trkpt>
<trkpt lat="54.616366" lon="-3.111249"><ele>311</ele><time>2020-08-14T14:35:49Z</time><name>PT7993</name></trkpt>
<trkpt lat="54.616373" lon="-3.111266"><ele>311</ele><time>2020-08-14T14:35:50Z</time><name>PT7994</name></trkpt>
<trkpt lat="54.616378" lon="-3.111278"><ele>311</ele><time>2020-08-14T14:35:51Z</time><name>PT7995</name></trkpt>
<trkpt lat="54.616385" lon="-3.111295"><ele>311</ele><time>2020-08-14T14:35:52Z</time><name>PT7996</name></trkpt>
<trkpt lat="54.616391" lon="-3.111317"><ele>311</ele><time>2020-08-14T14:35:53Z</time><name>PT7997</name></trkpt>
<trkpt lat="54.616398" lon="-3.111341"><ele>312</ele><time>2020-08-14T14:35:54Z</time><name>PT7998</name></trkpt>
<trkpt lat="54.616403" lon="-3.111363"><ele>311</ele><time>2020-08-14T14:35:55Z</time><name>PT7999</name></trkpt>
<trkpt lat="54.616408" lon="-3.111378"><ele>311</ele><time>2020-08-14T14:35:56Z</time><name>PT8000</name></trkpt>
<trkpt lat="54.616414" lon="-3.111394"><ele>312</ele><time>2020-08-14T14:35:57Z</time><name>PT8001</name></trkpt>
<trkpt lat="54.616433" lon="-3.111464"><ele>312</ele><time>2020-08-14T14:36:00Z</time><name>PT8002</name></trkpt>
<trkpt lat="54.616451" lon="-3.111522"><ele>312</ele><time>2020-08-14T14:36:03Z</time><name>PT8003</name></trkpt>
<trkpt lat="54.616476" lon="-3.111601"><ele>313</ele><time>2020-08-14T14:36:07Z</time><name>PT8004</name></trkpt>
<trkpt lat="54.616492" lon="-3.111653"><ele>313</ele><time>2020-08-14T14:36:10Z</time><name>PT8005</name></trkpt>
<trkpt lat="54.616520" lon="-3.111743"><ele>313</ele><time>2020-08-14T14:36:14Z</time><name>PT8006</name></trkpt>
<trkpt lat="54.616549" lon="-3.111805"><ele>313</ele><time>2020-08-14T14:36:18Z</time><name>PT8007</name></trkpt>
<trkpt lat="54.616569" lon="-3.111883"><ele>313</ele><time>2020-08-14T14:36:21Z</time><name>PT8008</name></trkpt>
<trkpt lat="54.616585" lon="-3.111956"><ele>312</ele><time>2020-08-14T14:36:25Z</time><name>PT8009</name></trkpt>
<trkpt lat="54.616614" lon="-3.112035"><ele>312</ele><time>2020-08-14T14:36:29Z</time><name>PT8010</name></trkpt>
<trkpt lat="54.616643" lon="-3.112124"><ele>312</ele><time>2020-08-14T14:36:33Z</time><name>PT8011</name></trkpt>
<trkpt lat="54.616660" lon="-3.112185"><ele>311</ele><time>2020-08-14T14:36:37Z</time><name>PT8012</name></trkpt>
<trkpt lat="54.616674" lon="-3.112250"><ele>311</ele><time>2020-08-14T14:36:40Z</time><name>PT8013</name></trkpt>
<trkpt lat="54.616696" lon="-3.112310"><ele>311</ele><time>2020-08-14T14:36:44Z</time><name>PT8014</name></trkpt>
<trkpt lat="54.616711" lon="-3.112383"><ele>311</ele><time>2020-08-14T14:36:47Z</time><name>PT8015</name></trkpt>
<trkpt lat="54.616725" lon="-3.112439"><ele>312</ele><time>2020-08-14T14:36:50Z</time><name>PT8016</name></trkpt>
<trkpt lat="54.616747" lon="-3.112511"><ele>312</ele><time>2020-08-14T14:36:53Z</time><name>PT8017</name></trkpt>
<trkpt lat="54.616758" lon="-3.112585"><ele>312</ele><time>2020-08-14T14:36:57Z</time><name>PT8018</name></trkpt>
<trkpt lat="54.616769" lon="-3.112672"><ele>313</ele><time>2020-08-14T14:37:01Z</time><name>PT8019</name></trkpt>
<trkpt lat="54.616785" lon="-3.112768"><ele>313</ele><time>2020-08-14T14:37:05Z</time><name>PT8020</name></trkpt>
<trkpt lat="54.616792" lon="-3.112824"><ele>313</ele><time>2020-08-14T14:37:08Z</time><name>PT8021</name></trkpt>
<trkpt lat="54.616814" lon="-3.112905"><ele>315</ele><time>2020-08-14T14:37:11Z</time><name>PT8022</name></trkpt>
<trkpt lat="54.616832" lon="-3.112983"><ele>315</ele><time>2020-08-14T14:37:15Z</time><name>PT8023</name></trkpt>
<trkpt lat="54.616849" lon="-3.113054"><ele>315</ele><time>2020-08-14T14:37:18Z</time><name>PT8024</name></trkpt>
<trkpt lat="54.616860" lon="-3.113116"><ele>313</ele><time>2020-08-14T14:37:22Z</time><name>PT8025</name></trkpt>
<trkpt lat="54.616872" lon="-3.113205"><ele>314</ele><time>2020-08-14T14:37:26Z</time><name>PT8026</name></trkpt>
<trkpt lat="54.616883" lon="-3.113298"><ele>314</ele><time>2020-08-14T14:37:30Z</time><name>PT8027</name></trkpt>
<trkpt lat="54.616891" lon="-3.113358"><ele>313</ele><time>2020-08-14T14:37:33Z</time><name>PT8028</name></trkpt>
<trkpt lat="54.616905" lon="-3.113430"><ele>313</ele><time>2020-08-14T14:37:36Z</time><name>PT8029</name></trkpt>
<trkpt lat="54.616918" lon="-3.113490"><ele>313</ele><time>2020-08-14T14:37:39Z</time><name>PT8030</name></trkpt>
<trkpt lat="54.616931" lon="-3.113576"><ele>313</ele><time>2020-08-14T14:37:43Z</time><name>PT8031</name></trkpt>
<trkpt lat="54.616940" lon="-3.113650"><ele>311</ele><time>2020-08-14T14:37:47Z</time><name>PT8032</name></trkpt>
<trkpt lat="54.616953" lon="-3.113718"><ele>310</ele><time>2020-08-14T14:37:50Z</time><name>PT8033</name></trkpt>
<trkpt lat="54.616961" lon="-3.113792"><ele>310</ele><time>2020-08-14T14:37:53Z</time><name>PT8034</name></trkpt>
<trkpt lat="54.616974" lon="-3.113849"><ele>310</ele><time>2020-08-14T14:37:56Z</time><name>PT8035</name></trkpt>
<trkpt lat="54.616994" lon="-3.113952"><ele>310</ele><time>2020-08-14T14:38:00Z</time><name>PT8036</name></trkpt>
<trkpt lat="54.617005" lon="-3.114017"><ele>310</ele><time>2020-08-14T14:38:03Z</time><name>PT8037</name></trkpt>
<trkpt lat="54.617028" lon="-3.114118"><ele>311</ele><time>2020-08-14T14:38:07Z</time><name>PT8038</name></trkpt>
<trkpt lat="54.617026" lon="-3.114166"><ele>308</ele><time>2020-08-14T14:38:10Z</time><name>PT8039</name></trkpt>
<trkpt lat="54.617043" lon="-3.114276"><ele>308</ele><time>2020-08-14T14:38:14Z</time><name>PT8040</name></trkpt>
<trkpt lat="54.617058" lon="-3.114315"><ele>307</ele><time>2020-08-14T14:38:17Z</time><name>PT8041</name></trkpt>
<trkpt lat="54.617083" lon="-3.114383"><ele>308</ele><time>2020-08-14T14:38:20Z</time><name>PT8042</name></trkpt>
<trkpt lat="54.617103" lon="-3.114440"><ele>308</ele><time>2020-08-14T14:38:23Z</time><name>PT8043</name></trkpt>
<trkpt lat="54.617135" lon="-3.114522"><ele>308</ele><time>2020-08-14T14:38:27Z</time><name>PT8044</name></trkpt>
<trkpt lat="54.617174" lon="-3.114576"><ele>307</ele><time>2020-08-14T14:38:31Z</time><name>PT8045</name></trkpt>
<trkpt lat="54.617206" lon="-3.114606"><ele>306</ele><time>2020-08-14T14:38:34Z</time><name>PT8046</name></trkpt>
<trkpt lat="54.617259" lon="-3.114619"><ele>305</ele><time>2020-08-14T14:38:38Z</time><name>PT8047</name></trkpt>
<trkpt lat="54.617295" lon="-3.114620"><ele>304</ele><time>2020-08-14T14:38:41Z</time><name>PT8048</name></trkpt>
<trkpt lat="54.617344" lon="-3.114634"><ele>304</ele><time>2020-08-14T14:38:44Z</time><name>PT8049</name></trkpt>
<trkpt lat="54.617377" lon="-3.114650"><ele>304</ele><time>2020-08-14T14:38:47Z</time><name>PT8050</name></trkpt>
<trkpt lat="54.617434" lon="-3.114686"><ele>304</ele><time>2020-08-14T14:38:51Z</time><name>PT8051</name></trkpt>
<trkpt lat="54.617481" lon="-3.114715"><ele>304</ele><time>2020-08-14T14:38:55Z</time><name>PT8052</name></trkpt>
<trkpt lat="54.617522" lon="-3.114755"><ele>305</ele><time>2020-08-14T14:38:58Z</time><name>PT8053</name></trkpt>
<trkpt lat="54.617566" lon="-3.114786"><ele>304</ele><time>2020-08-14T14:39:02Z</time><name>PT8054</name></trkpt>
<trkpt lat="54.617616" lon="-3.114830"><ele>304</ele><time>2020-08-14T14:39:06Z</time><name>PT8055</name></trkpt>
<trkpt lat="54.617649" lon="-3.114856"><ele>304</ele><time>2020-08-14T14:39:09Z</time><name>PT8056</name></trkpt>
<trkpt lat="54.617686" lon="-3.114888"><ele>303</ele><time>2020-08-14T14:39:12Z</time><name>PT8057</name></trkpt>
<trkpt lat="54.617729" lon="-3.114929"><ele>303</ele><time>2020-08-14T14:39:16Z</time><name>PT8058</name></trkpt>
<trkpt lat="54.617762" lon="-3.114955"><ele>303</ele><time>2020-08-14T14:39:19Z</time><name>PT8059</name></trkpt>
<trkpt lat="54.617812" lon="-3.115005"><ele>303</ele><time>2020-08-14T14:39:23Z</time><name>PT8060</name></trkpt>
<trkpt lat="54.617848" lon="-3.115035"><ele>304</ele><time>2020-08-14T14:39:26Z</time><name>PT8061</name></trkpt>
<trkpt lat="54.617884" lon="-3.115088"><ele>303</ele><time>2020-08-14T14:39:30Z</time><name>PT8062</name></trkpt>
<trkpt lat="54.617925" lon="-3.115141"><ele>303</ele><time>2020-08-14T14:39:34Z</time><name>PT8063</name></trkpt>
<trkpt lat="54.617941" lon="-3.115175"><ele>302</ele><time>2020-08-14T14:39:37Z</time><name>PT8064</name></trkpt>
<trkpt lat="54.617950" lon="-3.115198"><ele>301</ele><time>2020-08-14T14:39:41Z</time><name>PT8065</name></trkpt>
<trkpt lat="54.617986" lon="-3.115217"><ele>301</ele><time>2020-08-14T14:39:45Z</time><name>PT8066</name></trkpt>
<trkpt lat="54.618026" lon="-3.115235"><ele>301</ele><time>2020-08-14T14:39:49Z</time><name>PT8067</name></trkpt>
<trkpt lat="54.618067" lon="-3.115254"><ele>301</ele><time>2020-08-14T14:39:52Z</time><name>PT8068</name></trkpt>
<trkpt lat="54.618098" lon="-3.115259"><ele>300</ele><time>2020-08-14T14:39:55Z</time><name>PT8069</name></trkpt>
<trkpt lat="54.618146" lon="-3.115281"><ele>300</ele><time>2020-08-14T14:39:59Z</time><name>PT8070</name></trkpt>
<trkpt lat="54.618161" lon="-3.115295"><ele>299</ele><time>2020-08-14T14:40:02Z</time><name>PT8071</name></trkpt>
<trkpt lat="54.618203" lon="-3.115347"><ele>299</ele><time>2020-08-14T14:40:06Z</time><name>PT8072</name></trkpt>
<trkpt lat="54.618224" lon="-3.115372"><ele>298</ele><time>2020-08-14T14:40:09Z</time><name>PT8073</name></trkpt>
<trkpt lat="54.618255" lon="-3.115397"><ele>298</ele><time>2020-08-14T14:40:13Z</time><name>PT8074</name></trkpt>
<trkpt lat="54.618288" lon="-3.115438"><ele>297</ele><time>2020-08-14T14:40:16Z</time><name>PT8075</name></trkpt>
<trkpt lat="54.618330" lon="-3.115466"><ele>297</ele><time>2020-08-14T14:40:20Z</time><name>PT8076</name></trkpt>
<trkpt lat="54.618375" lon="-3.115499"><ele>298</ele><time>2020-08-14T14:40:24Z</time><name>PT8077</name></trkpt>
<trkpt lat="54.618431" lon="-3.115533"><ele>298</ele><time>2020-08-14T14:40:28Z</time><name>PT8078</name></trkpt>
<trkpt lat="54.618479" lon="-3.115552"><ele>298</ele><time>2020-08-14T14:40:32Z</time><name>PT8079</name></trkpt>
<trkpt lat="54.618522" lon="-3.115578"><ele>298</ele><time>2020-08-14T14:40:35Z</time><name>PT8080</name></trkpt>
<trkpt lat="54.618579" lon="-3.115619"><ele>299</ele><time>2020-08-14T14:40:39Z</time><name>PT8081</name></trkpt>
<trkpt lat="54.618633" lon="-3.115654"><ele>299</ele><time>2020-08-14T14:40:43Z</time><name>PT8082</name></trkpt>
<trkpt lat="54.618682" lon="-3.115681"><ele>299</ele><time>2020-08-14T14:40:46Z</time><name>PT8083</name></trkpt>
<trkpt lat="54.618703" lon="-3.115705"><ele>299</ele><time>2020-08-14T14:40:49Z</time><name>PT8084</name></trkpt>
<trkpt lat="54.618741" lon="-3.115758"><ele>297</ele><time>2020-08-14T14:40:53Z</time><name>PT8085</name></trkpt>
<trkpt lat="54.618781" lon="-3.115808"><ele>296</ele><time>2020-08-14T14:40:57Z</time><name>PT8086</name></trkpt>
<trkpt lat="54.618805" lon="-3.115863"><ele>294</ele><time>2020-08-14T14:41:00Z</time><name>PT8087</name></trkpt>
<trkpt lat="54.618836" lon="-3.115956"><ele>295</ele><time>2020-08-14T14:41:04Z</time><name>PT8088</name></trkpt>
<trkpt lat="54.618851" lon="-3.116041"><ele>295</ele><time>2020-08-14T14:41:08Z</time><name>PT8089</name></trkpt>
<trkpt lat="54.618867" lon="-3.116115"><ele>294</ele><time>2020-08-14T14:41:11Z</time><name>PT8090</name></trkpt>
<trkpt lat="54.618885" lon="-3.116176"><ele>293</ele><time>2020-08-14T14:41:15Z</time><name>PT8091</name></trkpt>
<trkpt lat="54.618902" lon="-3.116239"><ele>293</ele><time>2020-08-14T14:41:18Z</time><name>PT8092</name></trkpt>
<trkpt lat="54.618920" lon="-3.116300"><ele>293</ele><time>2020-08-14T14:41:21Z</time><name>PT8093</name></trkpt>
<trkpt lat="54.618935" lon="-3.116355"><ele>293</ele><time>2020-08-14T14:41:24Z</time><name>PT8094</name></trkpt>
<trkpt lat="54.618969" lon="-3.116445"><ele>293</ele><time>2020-08-14T14:41:28Z</time><name>PT8095</name></trkpt>
<trkpt lat="54.618982" lon="-3.116476"><ele>293</ele><time>2020-08-14T14:41:31Z</time><name>PT8096</name></trkpt>
<trkpt lat="54.618999" lon="-3.116540"><ele>292</ele><time>2020-08-14T14:41:35Z</time><name>PT8097</name></trkpt>
<trkpt lat="54.619012" lon="-3.116605"><ele>291</ele><time>2020-08-14T14:41:38Z</time><name>PT8098</name></trkpt>
<trkpt lat="54.619015" lon="-3.116672"><ele>290</ele><time>2020-08-14T14:41:42Z</time><name>PT8099</name></trkpt>
<trkpt lat="54.619019" lon="-3.116692"><ele>290</ele><time>2020-08-14T14:41:43Z</time><name>PT8100</name></trkpt>
<trkpt lat="54.619023" lon="-3.116712"><ele>290</ele><time>2020-08-14T14:41:44Z</time><name>PT8101</name></trkpt>
<trkpt lat="54.619024" lon="-3.116732"><ele>290</ele><time>2020-08-14T14:41:45Z</time><name>PT8102</name></trkpt>
<trkpt lat="54.619023" lon="-3.116752"><ele>290</ele><time>2020-08-14T14:41:46Z</time><name>PT8103</name></trkpt>
<trkpt lat="54.619022" lon="-3.116771"><ele>290</ele><time>2020-08-14T14:41:47Z</time><name>PT8104</name></trkpt>
<trkpt lat="54.619023" lon="-3.116793"><ele>290</ele><time>2020-08-14T14:41:48Z</time><name>PT8105</name></trkpt>
<trkpt lat="54.619026" lon="-3.116816"><ele>290</ele><time>2020-08-14T14:41:49Z</time><name>PT8106</name></trkpt>
<trkpt lat="54.619027" lon="-3.116836"><ele>290</ele><time>2020-08-14T14:41:50Z</time><name>PT8107</name></trkpt>
<trkpt lat="54.619030" lon="-3.116855"><ele>290</ele><time>2020-08-14T14:41:51Z</time><name>PT8108</name></trkpt>
<trkpt lat="54.619032" lon="-3.116873"><ele>289</ele><time>2020-08-14T14:41:52Z</time><name>PT8109</name></trkpt>
<trkpt lat="54.619034" lon="-3.116890"><ele>289</ele><time>2020-08-14T14:41:53Z</time><name>PT8110</name></trkpt>
<trkpt lat="54.619037" lon="-3.116906"><ele>289</ele><time>2020-08-14T14:41:54Z</time><name>PT8111</name></trkpt>
<trkpt lat="54.619039" lon="-3.116920"><ele>289</ele><time>2020-08-14T14:41:55Z</time><name>PT8112</name></trkpt>
<trkpt lat="54.619041" lon="-3.116937"><ele>289</ele><time>2020-08-14T14:41:56Z</time><name>PT8113</name></trkpt>
<trkpt lat="54.619044" lon="-3.116957"><ele>288</ele><time>2020-08-14T14:41:57Z</time><name>PT8114</name></trkpt>
<trkpt lat="54.619046" lon="-3.116975"><ele>288</ele><time>2020-08-14T14:41:58Z</time><name>PT8115</name></trkpt>
<trkpt lat="54.619048" lon="-3.116991"><ele>288</ele><time>2020-08-14T14:41:59Z</time><name>PT8116</name></trkpt>
<trkpt lat="54.619051" lon="-3.117009"><ele>288</ele><time>2020-08-14T14:42:00Z</time><name>PT8117</name></trkpt>
<trkpt lat="54.619054" lon="-3.117025"><ele>288</ele><time>2020-08-14T14:42:01Z</time><name>PT8118</name></trkpt>
<trkpt lat="54.619057" lon="-3.117040"><ele>287</ele><time>2020-08-14T14:42:02Z</time><name>PT8119</name></trkpt>
<trkpt lat="54.619059" lon="-3.117054"><ele>287</ele><time>2020-08-14T14:42:03Z</time><name>PT8120</name></trkpt>
<trkpt lat="54.619061" lon="-3.117072"><ele>287</ele><time>2020-08-14T14:42:04Z</time><name>PT8121</name></trkpt>
<trkpt lat="54.619064" lon="-3.117089"><ele>287</ele><time>2020-08-14T14:42:05Z</time><name>PT8122</name></trkpt>
<trkpt lat="54.619066" lon="-3.117103"><ele>286</ele><time>2020-08-14T14:42:06Z</time><name>PT8123</name></trkpt>
<trkpt lat="54.619067" lon="-3.117119"><ele>286</ele><time>2020-08-14T14:42:07Z</time><name>PT8124</name></trkpt>
<trkpt lat="54.619069" lon="-3.117133"><ele>286</ele><time>2020-08-14T14:42:08Z</time><name>PT8125</name></trkpt>
<trkpt lat="54.619068" lon="-3.117149"><ele>286</ele><time>2020-08-14T14:42:09Z</time><name>PT8126</name></trkpt>
<trkpt lat="54.619068" lon="-3.117165"><ele>286</ele><time>2020-08-14T14:42:10Z</time><name>PT8127</name></trkpt>
<trkpt lat="54.619068" lon="-3.117182"><ele>286</ele><time>2020-08-14T14:42:11Z</time><name>PT8128</name></trkpt>
<trkpt lat="54.619070" lon="-3.117197"><ele>285</ele><time>2020-08-14T14:42:12Z</time><name>PT8129</name></trkpt>
<trkpt lat="54.619071" lon="-3.117214"><ele>285</ele><time>2020-08-14T14:42:13Z</time><name>PT8130</name></trkpt>
<trkpt lat="54.619070" lon="-3.117229"><ele>284</ele><time>2020-08-14T14:42:14Z</time><name>PT8131</name></trkpt>
<trkpt lat="54.619071" lon="-3.117244"><ele>284</ele><time>2020-08-14T14:42:15Z</time><name>PT8132</name></trkpt>
<trkpt lat="54.619073" lon="-3.117262"><ele>284</ele><time>2020-08-14T14:42:16Z</time><name>PT8133</name></trkpt>
<trkpt lat="54.619075" lon="-3.117278"><ele>283</ele><time>2020-08-14T14:42:17Z</time><name>PT8134</name></trkpt>
<trkpt lat="54.619076" lon="-3.117290"><ele>283</ele><time>2020-08-14T14:42:18Z</time><name>PT8135</name></trkpt>
<trkpt lat="54.619075" lon="-3.117303"><ele>283</ele><time>2020-08-14T14:42:19Z</time><name>PT8136</name></trkpt>
<trkpt lat="54.619074" lon="-3.117322"><ele>282</ele><time>2020-08-14T14:42:20Z</time><name>PT8137</name></trkpt>
<trkpt lat="54.619078" lon="-3.117343"><ele>282</ele><time>2020-08-14T14:42:21Z</time><name>PT8138</name></trkpt>
<trkpt lat="54.619088" lon="-3.117380"><ele>281</ele><time>2020-08-14T14:42:23Z</time><name>PT8139</name></trkpt>
<trkpt lat="54.619094" lon="-3.117403"><ele>281</ele><time>2020-08-14T14:42:24Z</time><name>PT8140</name></trkpt>
<trkpt lat="54.619098" lon="-3.117427"><ele>280</ele><time>2020-08-14T14:42:25Z</time><name>PT8141</name></trkpt>
<trkpt lat="54.619104" lon="-3.117447"><ele>280</ele><time>2020-08-14T14:42:26Z</time><name>PT8142</name></trkpt>
<trkpt lat="54.619105" lon="-3.117461"><ele>280</ele><time>2020-08-14T14:42:27Z</time><name>PT8143</name></trkpt>
<trkpt lat="54.619098" lon="-3.117475"><ele>279</ele><time>2020-08-14T14:42:28Z</time><name>PT8144</name></trkpt>
<trkpt lat="54.619105" lon="-3.117499"><ele>280</ele><time>2020-08-14T14:42:30Z</time><name>PT8145</name></trkpt>
<trkpt lat="54.619102" lon="-3.117519"><ele>280</ele><time>2020-08-14T14:42:31Z</time><name>PT8146</name></trkpt>
<trkpt lat="54.619109" lon="-3.117536"><ele>279</ele><time>2020-08-14T14:42:32Z</time><name>PT8147</name></trkpt>
<trkpt lat="54.619113" lon="-3.117559"><ele>279</ele><time>2020-08-14T14:42:33Z</time><name>PT8148</name></trkpt>
<trkpt lat="54.619119" lon="-3.117590"><ele>278</ele><time>2020-08-14T14:42:34Z</time><name>PT8149</name></trkpt>
<trkpt lat="54.619119" lon="-3.117615"><ele>278</ele><time>2020-08-14T14:42:35Z</time><name>PT8150</name></trkpt>
<trkpt lat="54.619125" lon="-3.117641"><ele>279</ele><time>2020-08-14T14:42:36Z</time><name>PT8151</name></trkpt>
<trkpt lat="54.619133" lon="-3.117659"><ele>280</ele><time>2020-08-14T14:42:37Z</time><name>PT8152</name></trkpt>
<trkpt lat="54.619137" lon="-3.117675"><ele>279</ele><time>2020-08-14T14:42:38Z</time><name>PT8153</name></trkpt>
<trkpt lat="54.619139" lon="-3.117700"><ele>279</ele><time>2020-08-14T14:42:39Z</time><name>PT8154</name></trkpt>
<trkpt lat="54.619135" lon="-3.117721"><ele>278</ele><time>2020-08-14T14:42:40Z</time><name>PT8155</name></trkpt>
<trkpt lat="54.619136" lon="-3.117745"><ele>278</ele><time>2020-08-14T14:42:41Z</time><name>PT8156</name></trkpt>
<trkpt lat="54.619143" lon="-3.117798"><ele>277</ele><time>2020-08-14T14:42:43Z</time><name>PT8157</name></trkpt>
<trkpt lat="54.619146" lon="-3.117829"><ele>276</ele><time>2020-08-14T14:42:44Z</time><name>PT8158</name></trkpt>
<trkpt lat="54.619149" lon="-3.117857"><ele>276</ele><time>2020-08-14T14:42:45Z</time><name>PT8159</name></trkpt>
<trkpt lat="54.619154" lon="-3.117877"><ele>276</ele><time>2020-08-14T14:42:46Z</time><name>PT8160</name></trkpt>
<trkpt lat="54.619159" lon="-3.117894"><ele>276</ele><time>2020-08-14T14:42:47Z</time><name>PT8161</name></trkpt>
<trkpt lat="54.619162" lon="-3.117910"><ele>276</ele><time>2020-08-14T14:42:48Z</time><name>PT8162</name></trkpt>
<trkpt lat="54.619168" lon="-3.117931"><ele>276</ele><time>2020-08-14T14:42:49Z</time><name>PT8163</name></trkpt>
<trkpt lat="54.619176" lon="-3.117953"><ele>276</ele><time>2020-08-14T14:42:50Z</time><name>PT8164</name></trkpt>
<trkpt lat="54.619182" lon="-3.117975"><ele>276</ele><time>2020-08-14T14:42:51Z</time><name>PT8165</name></trkpt>
<trkpt lat="54.619185" lon="-3.118000"><ele>276</ele><time>2020-08-14T14:42:52Z</time><name>PT8166</name></trkpt>
<trkpt lat="54.619188" lon="-3.118025"><ele>276</ele><time>2020-08-14T14:42:53Z</time><name>PT8167</name></trkpt>
<trkpt lat="54.619191" lon="-3.118053"><ele>276</ele><time>2020-08-14T14:42:54Z</time><name>PT8168</name></trkpt>
<trkpt lat="54.619195" lon="-3.118073"><ele>276</ele><time>2020-08-14T14:42:55Z</time><name>PT8169</name></trkpt>
<trkpt lat="54.619197" lon="-3.118086"><ele>276</ele><time>2020-08-14T14:42:56Z</time><name>PT8170</name></trkpt>
<trkpt lat="54.619196" lon="-3.118103"><ele>276</ele><time>2020-08-14T14:42:57Z</time><name>PT8171</name></trkpt>
<trkpt lat="54.619198" lon="-3.118118"><ele>276</ele><time>2020-08-14T14:42:58Z</time><name>PT8172</name></trkpt>
<trkpt lat="54.619205" lon="-3.118137"><ele>276</ele><time>2020-08-14T14:42:59Z</time><name>PT8173</name></trkpt>
<trkpt lat="54.619209" lon="-3.118161"><ele>276</ele><time>2020-08-14T14:43:00Z</time><name>PT8174</name></trkpt>
<trkpt lat="54.619214" lon="-3.118189"><ele>276</ele><time>2020-08-14T14:43:01Z</time><name>PT8175</name></trkpt>
<trkpt lat="54.619217" lon="-3.118219"><ele>275</ele><time>2020-08-14T14:43:02Z</time><name>PT8176</name></trkpt>
<trkpt lat="54.619220" lon="-3.118249"><ele>275</ele><time>2020-08-14T14:43:03Z</time><name>PT8177</name></trkpt>
<trkpt lat="54.619226" lon="-3.118273"><ele>275</ele><time>2020-08-14T14:43:04Z</time><name>PT8178</name></trkpt>
<trkpt lat="54.619228" lon="-3.118290"><ele>275</ele><time>2020-08-14T14:43:05Z</time><name>PT8179</name></trkpt>
<trkpt lat="54.619227" lon="-3.118303"><ele>274</ele><time>2020-08-14T14:43:06Z</time><name>PT8180</name></trkpt>
<trkpt lat="54.619230" lon="-3.118319"><ele>274</ele><time>2020-08-14T14:43:07Z</time><name>PT8181</name></trkpt>
<trkpt lat="54.619235" lon="-3.118340"><ele>275</ele><time>2020-08-14T14:43:08Z</time><name>PT8182</name></trkpt>
<trkpt lat="54.619238" lon="-3.118362"><ele>274</ele><time>2020-08-14T14:43:09Z</time><name>PT8183</name></trkpt>
<trkpt lat="54.619243" lon="-3.118386"><ele>274</ele><time>2020-08-14T14:43:10Z</time><name>PT8184</name></trkpt>
<trkpt lat="54.619252" lon="-3.118415"><ele>274</ele><time>2020-08-14T14:43:11Z</time><name>PT8185</name></trkpt>
<trkpt lat="54.619252" lon="-3.118446"><ele>273</ele><time>2020-08-14T14:43:12Z</time><name>PT8186</name></trkpt>
<trkpt lat="54.619255" lon="-3.118471"><ele>273</ele><time>2020-08-14T14:43:13Z</time><name>PT8187</name></trkpt>
<trkpt lat="54.619253" lon="-3.118486"><ele>273</ele><time>2020-08-14T14:43:14Z</time><name>PT8188</name></trkpt>
<trkpt lat="54.619254" lon="-3.118500"><ele>272</ele><time>2020-08-14T14:43:15Z</time><name>PT8189</name></trkpt>
<trkpt lat="54.619258" lon="-3.118527"><ele>272</ele><time>2020-08-14T14:43:16Z</time><name>PT8190</name></trkpt>
<trkpt lat="54.619255" lon="-3.118548"><ele>270</ele><time>2020-08-14T14:43:17Z</time><name>PT8191</name></trkpt>
<trkpt lat="54.619259" lon="-3.118572"><ele>270</ele><time>2020-08-14T14:43:18Z</time><name>PT8192</name></trkpt>
<trkpt lat="54.619262" lon="-3.118598"><ele>270</ele><time>2020-08-14T14:43:19Z</time><name>PT8193</name></trkpt>
<trkpt lat="54.619266" lon="-3.118630"><ele>270</ele><time>2020-08-14T14:43:20Z</time><name>PT8194</name></trkpt>
<trkpt lat="54.619268" lon="-3.118659"><ele>270</ele><time>2020-08-14T14:43:21Z</time><name>PT8195</name></trkpt>
<trkpt lat="54.619271" lon="-3.118676"><ele>270</ele><time>2020-08-14T14:43:22Z</time><name>PT8196</name></trkpt>
<trkpt lat="54.619273" lon="-3.118689"><ele>270</ele><time>2020-08-14T14:43:23Z</time><name>PT8197</name></trkpt>
<trkpt lat="54.619272" lon="-3.118700"><ele>268</ele><time>2020-08-14T14:43:24Z</time><name>PT8198</name></trkpt>
<trkpt lat="54.619274" lon="-3.118718"><ele>268</ele><time>2020-08-14T14:43:25Z</time><name>PT8199</name></trkpt>
<trkpt lat="54.619276" lon="-3.118739"><ele>267</ele><time>2020-08-14T14:43:26Z</time><name>PT8200</name></trkpt>
<trkpt lat="54.619281" lon="-3.118766"><ele>267</ele><time>2020-08-14T14:43:27Z</time><name>PT8201</name></trkpt>
<trkpt lat="54.619281" lon="-3.118792"><ele>267</ele><time>2020-08-14T14:43:28Z</time><name>PT8202</name></trkpt>
<trkpt lat="54.619284" lon="-3.118818"><ele>266</ele><time>2020-08-14T14:43:29Z</time><name>PT8203</name></trkpt>
<trkpt lat="54.619288" lon="-3.118841"><ele>266</ele><time>2020-08-14T14:43:30Z</time><name>PT8204</name></trkpt>
<trkpt lat="54.619292" lon="-3.118857"><ele>266</ele><time>2020-08-14T14:43:31Z</time><name>PT8205</name></trkpt>
<trkpt lat="54.619296" lon="-3.118871"><ele>266</ele><time>2020-08-14T14:43:32Z</time><name>PT8206</name></trkpt>
<trkpt lat="54.619295" lon="-3.118879"><ele>265</ele><time>2020-08-14T14:43:33Z</time><name>PT8207</name></trkpt>
<trkpt lat="54.619299" lon="-3.118895"><ele>265</ele><time>2020-08-14T14:43:34Z</time><name>PT8208</name></trkpt>
<trkpt lat="54.619299" lon="-3.118920"><ele>265</ele><time>2020-08-14T14:43:35Z</time><name>PT8209</name></trkpt>
<trkpt lat="54.619310" lon="-3.118946"><ele>264</ele><time>2020-08-14T14:43:36Z</time><name>PT8210</name></trkpt>
<trkpt lat="54.619322" lon="-3.118975"><ele>264</ele><time>2020-08-14T14:43:37Z</time><name>PT8211</name></trkpt>
<trkpt lat="54.619329" lon="-3.119002"><ele>265</ele><time>2020-08-14T14:43:38Z</time><name>PT8212</name></trkpt>
<trkpt lat="54.619329" lon="-3.119020"><ele>266</ele><time>2020-08-14T14:43:39Z</time><name>PT8213</name></trkpt>
<trkpt lat="54.619331" lon="-3.119035"><ele>266</ele><time>2020-08-14T14:43:40Z</time><name>PT8214</name></trkpt>
<trkpt lat="54.619333" lon="-3.119052"><ele>266</ele><time>2020-08-14T14:43:41Z</time><name>PT8215</name></trkpt>
<trkpt lat="54.619335" lon="-3.119065"><ele>266</ele><time>2020-08-14T14:43:42Z</time><name>PT8216</name></trkpt>
<trkpt lat="54.619338" lon="-3.119083"><ele>266</ele><time>2020-08-14T14:43:43Z</time><name>PT8217</name></trkpt>
<trkpt lat="54.619341" lon="-3.119109"><ele>266</ele><time>2020-08-14T14:43:44Z</time><name>PT8218</name></trkpt>
<trkpt lat="54.619342" lon="-3.119134"><ele>266</ele><time>2020-08-14T14:43:45Z</time><name>PT8219</name></trkpt>
<trkpt lat="54.619347" lon="-3.119152"><ele>265</ele><time>2020-08-14T14:43:46Z</time><name>PT8220</name></trkpt>
<trkpt lat="54.619352" lon="-3.119169"><ele>266</ele><time>2020-08-14T14:43:47Z</time><name>PT8221</name></trkpt>
<trkpt lat="54.619355" lon="-3.119191"><ele>267</ele><time>2020-08-14T14:43:48Z</time><name>PT8222</name></trkpt>
<trkpt lat="54.619368" lon="-3.119204"><ele>267</ele><time>2020-08-14T14:43:49Z</time><name>PT8223</name></trkpt>
<trkpt lat="54.619384" lon="-3.119210"><ele>267</ele><time>2020-08-14T14:43:50Z</time><name>PT8224</name></trkpt>
<trkpt lat="54.619396" lon="-3.119232"><ele>267</ele><time>2020-08-14T14:43:51Z</time><name>PT8225</name></trkpt>
<trkpt lat="54.619401" lon="-3.119265"><ele>268</ele><time>2020-08-14T14:43:52Z</time><name>PT8226</name></trkpt>
<trkpt lat="54.619409" lon="-3.119285"><ele>267</ele><time>2020-08-14T14:43:53Z</time><name>PT8227</name></trkpt>
<trkpt lat="54.619414" lon="-3.119296"><ele>265</ele><time>2020-08-14T14:43:54Z</time><name>PT8228</name></trkpt>
<trkpt lat="54.619417" lon="-3.119318"><ele>266</ele><time>2020-08-14T14:43:55Z</time><name>PT8229</name></trkpt>
<trkpt lat="54.619432" lon="-3.119332"><ele>266</ele><time>2020-08-14T14:43:56Z</time><name>PT8230</name></trkpt>
<trkpt lat="54.619438" lon="-3.119352"><ele>266</ele><time>2020-08-14T14:43:57Z</time><name>PT8231</name></trkpt>
<trkpt lat="54.619440" lon="-3.119372"><ele>266</ele><time>2020-08-14T14:43:58Z</time><name>PT8232</name></trkpt>
<trkpt lat="54.619442" lon="-3.119401"><ele>266</ele><time>2020-08-14T14:43:59Z</time><name>PT8233</name></trkpt>
<trkpt lat="54.619448" lon="-3.119431"><ele>266</ele><time>2020-08-14T14:44:00Z</time><name>PT8234</name></trkpt>
<trkpt lat="54.619449" lon="-3.119455"><ele>265</ele><time>2020-08-14T14:44:01Z</time><name>PT8235</name></trkpt>
<trkpt lat="54.619454" lon="-3.119474"><ele>265</ele><time>2020-08-14T14:44:02Z</time><name>PT8236</name></trkpt>
<trkpt lat="54.619457" lon="-3.119489"><ele>265</ele><time>2020-08-14T14:44:03Z</time><name>PT8237</name></trkpt>
<trkpt lat="54.619462" lon="-3.119498"><ele>264</ele><time>2020-08-14T14:44:04Z</time><name>PT8238</name></trkpt>
<trkpt lat="54.619464" lon="-3.119512"><ele>263</ele><time>2020-08-14T14:44:05Z</time><name>PT8239</name></trkpt>
<trkpt lat="54.619463" lon="-3.119536"><ele>263</ele><time>2020-08-14T14:44:06Z</time><name>PT8240</name></trkpt>
<trkpt lat="54.619468" lon="-3.119557"><ele>263</ele><time>2020-08-14T14:44:07Z</time><name>PT8241</name></trkpt>
<trkpt lat="54.619469" lon="-3.119589"><ele>263</ele><time>2020-08-14T14:44:08Z</time><name>PT8242</name></trkpt>
<trkpt lat="54.619463" lon="-3.119627"><ele>263</ele><time>2020-08-14T14:44:09Z</time><name>PT8243</name></trkpt>
<trkpt lat="54.619464" lon="-3.119644"><ele>262</ele><time>2020-08-14T14:44:10Z</time><name>PT8244</name></trkpt>
<trkpt lat="54.619464" lon="-3.119657"><ele>262</ele><time>2020-08-14T14:44:11Z</time><name>PT8245</name></trkpt>
<trkpt lat="54.619464" lon="-3.119672"><ele>262</ele><time>2020-08-14T14:44:12Z</time><name>PT8246</name></trkpt>
<trkpt lat="54.619467" lon="-3.119699"><ele>262</ele><time>2020-08-14T14:44:13Z</time><name>PT8247</name></trkpt>
<trkpt lat="54.619473" lon="-3.119717"><ele>262</ele><time>2020-08-14T14:44:14Z</time><name>PT8248</name></trkpt>
<trkpt lat="54.619476" lon="-3.119735"><ele>262</ele><time>2020-08-14T14:44:15Z</time><name>PT8249</name></trkpt>
<trkpt lat="54.619476" lon="-3.119764"><ele>261</ele><time>2020-08-14T14:44:16Z</time><name>PT8250</name></trkpt>
<trkpt lat="54.619475" lon="-3.119793"><ele>261</ele><time>2020-08-14T14:44:17Z</time><name>PT8251</name></trkpt>
<trkpt lat="54.619478" lon="-3.119816"><ele>261</ele><time>2020-08-14T14:44:18Z</time><name>PT8252</name></trkpt>
<trkpt lat="54.619481" lon="-3.119831"><ele>262</ele><time>2020-08-14T14:44:19Z</time><name>PT8253</name></trkpt>
<trkpt lat="54.619476" lon="-3.119855"><ele>261</ele><time>2020-08-14T14:44:20Z</time><name>PT8254</name></trkpt>
<trkpt lat="54.619476" lon="-3.119882"><ele>262</ele><time>2020-08-14T14:44:21Z</time><name>PT8255</name></trkpt>
<trkpt lat="54.619478" lon="-3.119905"><ele>262</ele><time>2020-08-14T14:44:22Z</time><name>PT8256</name></trkpt>
<trkpt lat="54.619481" lon="-3.119935"><ele>263</ele><time>2020-08-14T14:44:23Z</time><name>PT8257</name></trkpt>
<trkpt lat="54.619481" lon="-3.119966"><ele>263</ele><time>2020-08-14T14:44:24Z</time><name>PT8258</name></trkpt>
<trkpt lat="54.619480" lon="-3.119992"><ele>261</ele><time>2020-08-14T14:44:25Z</time><name>PT8259</name></trkpt>
<trkpt lat="54.619481" lon="-3.120013"><ele>261</ele><time>2020-08-14T14:44:26Z</time><name>PT8260</name></trkpt>
<trkpt lat="54.619483" lon="-3.120019"><ele>259</ele><time>2020-08-14T14:44:27Z</time><name>PT8261</name></trkpt>
<trkpt lat="54.619491" lon="-3.120035"><ele>260</ele><time>2020-08-14T14:44:28Z</time><name>PT8262</name></trkpt>
<trkpt lat="54.619493" lon="-3.120053"><ele>259</ele><time>2020-08-14T14:44:29Z</time><name>PT8263</name></trkpt>
<trkpt lat="54.619497" lon="-3.120075"><ele>259</ele><time>2020-08-14T14:44:30Z</time><name>PT8264</name></trkpt>
<trkpt lat="54.619498" lon="-3.120103"><ele>260</ele><time>2020-08-14T14:44:31Z</time><name>PT8265</name></trkpt>
<trkpt lat="54.619500" lon="-3.120130"><ele>259</ele><time>2020-08-14T14:44:32Z</time><name>PT8266</name></trkpt>
<trkpt lat="54.619505" lon="-3.120151"><ele>259</ele><time>2020-08-14T14:44:33Z</time><name>PT8267</name></trkpt>
<trkpt lat="54.619507" lon="-3.120168"><ele>259</ele><time>2020-08-14T14:44:34Z</time><name>PT8268</name></trkpt>
<trkpt lat="54.619503" lon="-3.120203"><ele>258</ele><time>2020-08-14T14:44:36Z</time><name>PT8269</name></trkpt>
<trkpt lat="54.619504" lon="-3.120228"><ele>258</ele><time>2020-08-14T14:44:37Z</time><name>PT8270</name></trkpt>
<trkpt lat="54.619505" lon="-3.120253"><ele>258</ele><time>2020-08-14T14:44:38Z</time><name>PT8271</name></trkpt>
<trkpt lat="54.619511" lon="-3.120281"><ele>258</ele><time>2020-08-14T14:44:39Z</time><name>PT8272</name></trkpt>
<trkpt lat="54.619515" lon="-3.120309"><ele>258</ele><time>2020-08-14T14:44:40Z</time><name>PT8273</name></trkpt>
<trkpt lat="54.619516" lon="-3.120330"><ele>258</ele><time>2020-08-14T14:44:41Z</time><name>PT8274</name></trkpt>
<trkpt lat="54.619520" lon="-3.120345"><ele>258</ele><time>2020-08-14T14:44:42Z</time><name>PT8275</name></trkpt>
<trkpt lat="54.619522" lon="-3.120356"><ele>257</ele><time>2020-08-14T14:44:43Z</time><name>PT8276</name></trkpt>
<trkpt lat="54.619526" lon="-3.120379"><ele>258</ele><time>2020-08-14T14:44:44Z</time><name>PT8277</name></trkpt>
<trkpt lat="54.619530" lon="-3.120403"><ele>257</ele><time>2020-08-14T14:44:45Z</time><name>PT8278</name></trkpt>
<trkpt lat="54.619536" lon="-3.120425"><ele>257</ele><time>2020-08-14T14:44:46Z</time><name>PT8279</name></trkpt>
<trkpt lat="54.619541" lon="-3.120452"><ele>257</ele><time>2020-08-14T14:44:47Z</time><name>PT8280</name></trkpt>
<trkpt lat="54.619546" lon="-3.120481"><ele>257</ele><time>2020-08-14T14:44:48Z</time><name>PT8281</name></trkpt>
<trkpt lat="54.619545" lon="-3.120505"><ele>257</ele><time>2020-08-14T14:44:49Z</time><name>PT8282</name></trkpt>
<trkpt lat="54.619544" lon="-3.120519"><ele>258</ele><time>2020-08-14T14:44:50Z</time><name>PT8283</name></trkpt>
<trkpt lat="54.619544" lon="-3.120534"><ele>258</ele><time>2020-08-14T14:44:51Z</time><name>PT8284</name></trkpt>
<trkpt lat="54.619547" lon="-3.120555"><ele>258</ele><time>2020-08-14T14:44:52Z</time><name>PT8285</name></trkpt>
<trkpt lat="54.619549" lon="-3.120576"><ele>259</ele><time>2020-08-14T14:44:53Z</time><name>PT8286</name></trkpt>
<trkpt lat="54.619547" lon="-3.120598"><ele>257</ele><time>2020-08-14T14:44:54Z</time><name>PT8287</name></trkpt>
<trkpt lat="54.619544" lon="-3.120627"><ele>257</ele><time>2020-08-14T14:44:55Z</time><name>PT8288</name></trkpt>
<trkpt lat="54.619542" lon="-3.120646"><ele>257</ele><time>2020-08-14T14:44:56Z</time><name>PT8289</name></trkpt>
<trkpt lat="54.619541" lon="-3.120654"><ele>257</ele><time>2020-08-14T14:44:57Z</time><name>PT8290</name></trkpt>
<trkpt lat="54.619541" lon="-3.120666"><ele>256</ele><time>2020-08-14T14:44:58Z</time><name>PT8291</name></trkpt>
<trkpt lat="54.619539" lon="-3.120684"><ele>256</ele><time>2020-08-14T14:44:59Z</time><name>PT8292</name></trkpt>
<trkpt lat="54.619536" lon="-3.120705"><ele>256</ele><time>2020-08-14T14:45:00Z</time><name>PT8293</name></trkpt>
<trkpt lat="54.619531" lon="-3.120722"><ele>254</ele><time>2020-08-14T14:45:01Z</time><name>PT8294</name></trkpt>
<trkpt lat="54.619528" lon="-3.120746"><ele>253</ele><time>2020-08-14T14:45:02Z</time><name>PT8295</name></trkpt>
<trkpt lat="54.619526" lon="-3.120767"><ele>253</ele><time>2020-08-14T14:45:03Z</time><name>PT8296</name></trkpt>
<trkpt lat="54.619537" lon="-3.120768"><ele>253</ele><time>2020-08-14T14:45:04Z</time><name>PT8297</name></trkpt>
<trkpt lat="54.619537" lon="-3.120774"><ele>252</ele><time>2020-08-14T14:45:05Z</time><name>PT8298</name></trkpt>
<trkpt lat="54.619536" lon="-3.120785"><ele>253</ele><time>2020-08-14T14:45:06Z</time><name>PT8299</name></trkpt>
<trkpt lat="54.619533" lon="-3.120802"><ele>252</ele><time>2020-08-14T14:45:07Z</time><name>PT8300</name></trkpt>
<trkpt lat="54.619532" lon="-3.120821"><ele>252</ele><time>2020-08-14T14:45:08Z</time><name>PT8301</name></trkpt>
<trkpt lat="54.619532" lon="-3.120849"><ele>252</ele><time>2020-08-14T14:45:09Z</time><name>PT8302</name></trkpt>
<trkpt lat="54.619515" lon="-3.120880"><ele>250</ele><time>2020-08-14T14:45:10Z</time><name>PT8303</name></trkpt>
<trkpt lat="54.619508" lon="-3.120906"><ele>250</ele><time>2020-08-14T14:45:11Z</time><name>PT8304</name></trkpt>
<trkpt lat="54.619506" lon="-3.120923"><ele>250</ele><time>2020-08-14T14:45:12Z</time><name>PT8305</name></trkpt>
<trkpt lat="54.619501" lon="-3.120946"><ele>250</ele><time>2020-08-14T14:45:13Z</time><name>PT8306</name></trkpt>
<trkpt lat="54.619496" lon="-3.120967"><ele>249</ele><time>2020-08-14T14:45:14Z</time><name>PT8307</name></trkpt>
<trkpt lat="54.619493" lon="-3.120994"><ele>249</ele><time>2020-08-14T14:45:15Z</time><name>PT8308</name></trkpt>
<trkpt lat="54.619492" lon="-3.121022"><ele>249</ele><time>2020-08-14T14:45:16Z</time><name>PT8309</name></trkpt>
<trkpt lat="54.619490" lon="-3.121042"><ele>249</ele><time>2020-08-14T14:45:17Z</time><name>PT8310</name></trkpt>
<trkpt lat="54.619489" lon="-3.121054"><ele>249</ele><time>2020-08-14T14:45:18Z</time><name>PT8311</name></trkpt>
<trkpt lat="54.619489" lon="-3.121068"><ele>248</ele><time>2020-08-14T14:45:19Z</time><name>PT8312</name></trkpt>
<trkpt lat="54.619483" lon="-3.121128"><ele>247</ele><time>2020-08-14T14:45:22Z</time><name>PT8313</name></trkpt>
<trkpt lat="54.619467" lon="-3.121199"><ele>245</ele><time>2020-08-14T14:45:26Z</time><name>PT8314</name></trkpt>
<trkpt lat="54.619466" lon="-3.121271"><ele>246</ele><time>2020-08-14T14:45:29Z</time><name>PT8315</name></trkpt>
<trkpt lat="54.619459" lon="-3.121349"><ele>246</ele><time>2020-08-14T14:45:33Z</time><name>PT8316</name></trkpt>
<trkpt lat="54.619445" lon="-3.121409"><ele>243</ele><time>2020-08-14T14:45:36Z</time><name>PT8317</name></trkpt>
<trkpt lat="54.619437" lon="-3.121503"><ele>244</ele><time>2020-08-14T14:45:40Z</time><name>PT8318</name></trkpt>
<trkpt lat="54.619445" lon="-3.121541"><ele>246</ele><time>2020-08-14T14:45:43Z</time><name>PT8319</name></trkpt>
<trkpt lat="54.619435" lon="-3.121631"><ele>245</ele><time>2020-08-14T14:45:47Z</time><name>PT8320</name></trkpt>
<trkpt lat="54.619430" lon="-3.121685"><ele>243</ele><time>2020-08-14T14:45:50Z</time><name>PT8321</name></trkpt>
<trkpt lat="54.619409" lon="-3.121765"><ele>241</ele><time>2020-08-14T14:45:54Z</time><name>PT8322</name></trkpt>
<trkpt lat="54.619397" lon="-3.121833"><ele>242</ele><time>2020-08-14T14:45:58Z</time><name>PT8323</name></trkpt>
<trkpt lat="54.619389" lon="-3.121895"><ele>240</ele><time>2020-08-14T14:46:01Z</time><name>PT8324</name></trkpt>
<trkpt lat="54.619382" lon="-3.121966"><ele>239</ele><time>2020-08-14T14:46:05Z</time><name>PT8325</name></trkpt>
<trkpt lat="54.619372" lon="-3.122016"><ele>238</ele><time>2020-08-14T14:46:08Z</time><name>PT8326</name></trkpt>
<trkpt lat="54.619360" lon="-3.122072"><ele>237</ele><time>2020-08-14T14:46:11Z</time><name>PT8327</name></trkpt>
<trkpt lat="54.619353" lon="-3.122122"><ele>238</ele><time>2020-08-14T14:46:15Z</time><name>PT8328</name></trkpt>
<trkpt lat="54.619344" lon="-3.122180"><ele>236</ele><time>2020-08-14T14:46:18Z</time><name>PT8329</name></trkpt>
<trkpt lat="54.619337" lon="-3.122247"><ele>233</ele><time>2020-08-14T14:46:22Z</time><name>PT8330</name></trkpt>
<trkpt lat="54.619344" lon="-3.122323"><ele>234</ele><time>2020-08-14T14:46:25Z</time><name>PT8331</name></trkpt>
<trkpt lat="54.619342" lon="-3.122363"><ele>233</ele><time>2020-08-14T14:46:28Z</time><name>PT8332</name></trkpt>
<trkpt lat="54.619325" lon="-3.122437"><ele>232</ele><time>2020-08-14T14:46:31Z</time><name>PT8333</name></trkpt>
<trkpt lat="54.619324" lon="-3.122532"><ele>235</ele><time>2020-08-14T14:46:35Z</time><name>PT8334</name></trkpt>
<trkpt lat="54.619315" lon="-3.122589"><ele>234</ele><time>2020-08-14T14:46:38Z</time><name>PT8335</name></trkpt>
<trkpt lat="54.619305" lon="-3.122633"><ele>234</ele><time>2020-08-14T14:46:40Z</time><name>PT8336</name></trkpt>
<trkpt lat="54.619298" lon="-3.122660"><ele>234</ele><time>2020-08-14T14:46:41Z</time><name>PT8337</name></trkpt>
<trkpt lat="54.619299" lon="-3.122681"><ele>234</ele><time>2020-08-14T14:46:42Z</time><name>PT8338</name></trkpt>
<trkpt lat="54.619297" lon="-3.122695"><ele>233</ele><time>2020-08-14T14:46:43Z</time><name>PT8339</name></trkpt>
<trkpt lat="54.619296" lon="-3.122707"><ele>233</ele><time>2020-08-14T14:46:44Z</time><name>PT8340</name></trkpt>
<trkpt lat="54.619301" lon="-3.122725"><ele>234</ele><time>2020-08-14T14:46:45Z</time><name>PT8341</name></trkpt>
<trkpt lat="54.619302" lon="-3.122741"><ele>235</ele><time>2020-08-14T14:46:46Z</time><name>PT8342</name></trkpt>
<trkpt lat="54.619299" lon="-3.122759"><ele>234</ele><time>2020-08-14T14:46:47Z</time><name>PT8343</name></trkpt>
<trkpt lat="54.619297" lon="-3.122783"><ele>233</ele><time>2020-08-14T14:46:48Z</time><name>PT8344</name></trkpt>
<trkpt lat="54.619295" lon="-3.122811"><ele>233</ele><time>2020-08-14T14:46:49Z</time><name>PT8345</name></trkpt>
<trkpt lat="54.619289" lon="-3.122834"><ele>233</ele><time>2020-08-14T14:46:50Z</time><name>PT8346</name></trkpt>
<trkpt lat="54.619286" lon="-3.122850"><ele>233</ele><time>2020-08-14T14:46:51Z</time><name>PT8347</name></trkpt>
<trkpt lat="54.619286" lon="-3.122865"><ele>233</ele><time>2020-08-14T14:46:52Z</time><name>PT8348</name></trkpt>
<trkpt lat="54.619283" lon="-3.122881"><ele>233</ele><time>2020-08-14T14:46:53Z</time><name>PT8349</name></trkpt>
<trkpt lat="54.619284" lon="-3.122901"><ele>233</ele><time>2020-08-14T14:46:54Z</time><name>PT8350</name></trkpt>
<trkpt lat="54.619281" lon="-3.122920"><ele>232</ele><time>2020-08-14T14:46:55Z</time><name>PT8351</name></trkpt>
<trkpt lat="54.619274" lon="-3.122937"><ele>232</ele><time>2020-08-14T14:46:56Z</time><name>PT8352</name></trkpt>
<trkpt lat="54.619270" lon="-3.122955"><ele>231</ele><time>2020-08-14T14:46:57Z</time><name>PT8353</name></trkpt>
<trkpt lat="54.619265" lon="-3.122977"><ele>231</ele><time>2020-08-14T14:46:58Z</time><name>PT8354</name></trkpt>
<trkpt lat="54.619261" lon="-3.122992"><ele>229</ele><time>2020-08-14T14:46:59Z</time><name>PT8355</name></trkpt>
<trkpt lat="54.619252" lon="-3.123007"><ele>228</ele><time>2020-08-14T14:47:00Z</time><name>PT8356</name></trkpt>
<trkpt lat="54.619243" lon="-3.123022"><ele>226</ele><time>2020-08-14T14:47:01Z</time><name>PT8357</name></trkpt>
<trkpt lat="54.619245" lon="-3.123045"><ele>226</ele><time>2020-08-14T14:47:02Z</time><name>PT8358</name></trkpt>
<trkpt lat="54.619241" lon="-3.123062"><ele>226</ele><time>2020-08-14T14:47:03Z</time><name>PT8359</name></trkpt>
<trkpt lat="54.619242" lon="-3.123081"><ele>226</ele><time>2020-08-14T14:47:04Z</time><name>PT8360</name></trkpt>
<trkpt lat="54.619241" lon="-3.123103"><ele>226</ele><time>2020-08-14T14:47:05Z</time><name>PT8361</name></trkpt>
<trkpt lat="54.619242" lon="-3.123125"><ele>226</ele><time>2020-08-14T14:47:06Z</time><name>PT8362</name></trkpt>
<trkpt lat="54.619240" lon="-3.123141"><ele>226</ele><time>2020-08-14T14:47:07Z</time><name>PT8363</name></trkpt>
<trkpt lat="54.619241" lon="-3.123154"><ele>226</ele><time>2020-08-14T14:47:08Z</time><name>PT8364</name></trkpt>
<trkpt lat="54.619242" lon="-3.123166"><ele>226</ele><time>2020-08-14T14:47:09Z</time><name>PT8365</name></trkpt>
<trkpt lat="54.619241" lon="-3.123183"><ele>226</ele><time>2020-08-14T14:47:10Z</time><name>PT8366</name></trkpt>
<trkpt lat="54.619240" lon="-3.123199"><ele>225</ele><time>2020-08-14T14:47:11Z</time><name>PT8367</name></trkpt>
<trkpt lat="54.619237" lon="-3.123219"><ele>225</ele><time>2020-08-14T14:47:12Z</time><name>PT8368</name></trkpt>
<trkpt lat="54.619232" lon="-3.123241"><ele>225</ele><time>2020-08-14T14:47:13Z</time><name>PT8369</name></trkpt>
<trkpt lat="54.619227" lon="-3.123258"><ele>224</ele><time>2020-08-14T14:47:14Z</time><name>PT8370</name></trkpt>
<trkpt lat="54.619224" lon="-3.123273"><ele>224</ele><time>2020-08-14T14:47:15Z</time><name>PT8371</name></trkpt>
<trkpt lat="54.619226" lon="-3.123288"><ele>224</ele><time>2020-08-14T14:47:16Z</time><name>PT8372</name></trkpt>
<trkpt lat="54.619229" lon="-3.123308"><ele>225</ele><time>2020-08-14T14:47:17Z</time><name>PT8373</name></trkpt>
<trkpt lat="54.619229" lon="-3.123325"><ele>225</ele><time>2020-08-14T14:47:18Z</time><name>PT8374</name></trkpt>
<trkpt lat="54.619227" lon="-3.123347"><ele>224</ele><time>2020-08-14T14:47:19Z</time><name>PT8375</name></trkpt>
<trkpt lat="54.619224" lon="-3.123376"><ele>225</ele><time>2020-08-14T14:47:20Z</time><name>PT8376</name></trkpt>
<trkpt lat="54.619218" lon="-3.123405"><ele>225</ele><time>2020-08-14T14:47:21Z</time><name>PT8377</name></trkpt>
<trkpt lat="54.619214" lon="-3.123432"><ele>224</ele><time>2020-08-14T14:47:22Z</time><name>PT8378</name></trkpt>
<trkpt lat="54.619215" lon="-3.123449"><ele>224</ele><time>2020-08-14T14:47:23Z</time><name>PT8379</name></trkpt>
<trkpt lat="54.619218" lon="-3.123458"><ele>223</ele><time>2020-08-14T14:47:24Z</time><name>PT8380</name></trkpt>
<trkpt lat="54.619227" lon="-3.123478"><ele>224</ele><time>2020-08-14T14:47:25Z</time><name>PT8381</name></trkpt>
<trkpt lat="54.619230" lon="-3.123503"><ele>225</ele><time>2020-08-14T14:47:26Z</time><name>PT8382</name></trkpt>
<trkpt lat="54.619233" lon="-3.123525"><ele>224</ele><time>2020-08-14T14:47:27Z</time><name>PT8383</name></trkpt>
<trkpt lat="54.619232" lon="-3.123552"><ele>224</ele><time>2020-08-14T14:47:28Z</time><name>PT8384</name></trkpt>
<trkpt lat="54.619227" lon="-3.123573"><ele>224</ele><time>2020-08-14T14:47:29Z</time><name>PT8385</name></trkpt>
<trkpt lat="54.619224" lon="-3.123585"><ele>223</ele><time>2020-08-14T14:47:30Z</time><name>PT8386</name></trkpt>
<trkpt lat="54.619223" lon="-3.123596"><ele>222</ele><time>2020-08-14T14:47:31Z</time><name>PT8387</name></trkpt>
<trkpt lat="54.619227" lon="-3.123610"><ele>223</ele><time>2020-08-14T14:47:32Z</time><name>PT8388</name></trkpt>
<trkpt lat="54.619229" lon="-3.123632"><ele>223</ele><time>2020-08-14T14:47:33Z</time><name>PT8389</name></trkpt>
<trkpt lat="54.619229" lon="-3.123652"><ele>223</ele><time>2020-08-14T14:47:34Z</time><name>PT8390</name></trkpt>
<trkpt lat="54.619229" lon="-3.123673"><ele>223</ele><time>2020-08-14T14:47:35Z</time><name>PT8391</name></trkpt>
<trkpt lat="54.619229" lon="-3.123694"><ele>222</ele><time>2020-08-14T14:47:36Z</time><name>PT8392</name></trkpt>
<trkpt lat="54.619227" lon="-3.123718"><ele>221</ele><time>2020-08-14T14:47:37Z</time><name>PT8393</name></trkpt>
<trkpt lat="54.619222" lon="-3.123729"><ele>220</ele><time>2020-08-14T14:47:38Z</time><name>PT8394</name></trkpt>
<trkpt lat="54.619221" lon="-3.123744"><ele>220</ele><time>2020-08-14T14:47:39Z</time><name>PT8395</name></trkpt>
<trkpt lat="54.619221" lon="-3.123762"><ele>220</ele><time>2020-08-14T14:47:40Z</time><name>PT8396</name></trkpt>
<trkpt lat="54.619214" lon="-3.123776"><ele>219</ele><time>2020-08-14T14:47:41Z</time><name>PT8397</name></trkpt>
<trkpt lat="54.619210" lon="-3.123796"><ele>218</ele><time>2020-08-14T14:47:42Z</time><name>PT8398</name></trkpt>
<trkpt lat="54.619201" lon="-3.123818"><ele>218</ele><time>2020-08-14T14:47:43Z</time><name>PT8399</name></trkpt>
<trkpt lat="54.619195" lon="-3.123840"><ele>218</ele><time>2020-08-14T14:47:44Z</time><name>PT8400</name></trkpt>
<trkpt lat="54.619193" lon="-3.123863"><ele>218</ele><time>2020-08-14T14:47:45Z</time><name>PT8401</name></trkpt>
<trkpt lat="54.619194" lon="-3.123877"><ele>218</ele><time>2020-08-14T14:47:46Z</time><name>PT8402</name></trkpt>
<trkpt lat="54.619196" lon="-3.123886"><ele>218</ele><time>2020-08-14T14:47:47Z</time><name>PT8403</name></trkpt>
<trkpt lat="54.619199" lon="-3.123890"><ele>219</ele><time>2020-08-14T14:47:48Z</time><name>PT8404</name></trkpt>
<trkpt lat="54.619198" lon="-3.123902"><ele>218</ele><time>2020-08-14T14:47:49Z</time><name>PT8405</name></trkpt>
<trkpt lat="54.619195" lon="-3.123916"><ele>218</ele><time>2020-08-14T14:47:50Z</time><name>PT8406</name></trkpt>
<trkpt lat="54.619192" lon="-3.123939"><ele>217</ele><time>2020-08-14T14:47:51Z</time><name>PT8407</name></trkpt>
<trkpt lat="54.619196" lon="-3.123956"><ele>217</ele><time>2020-08-14T14:47:52Z</time><name>PT8408</name></trkpt>
<trkpt lat="54.619200" lon="-3.123974"><ele>218</ele><time>2020-08-14T14:47:53Z</time><name>PT8409</name></trkpt>
<trkpt lat="54.619203" lon="-3.123992"><ele>218</ele><time>2020-08-14T14:47:54Z</time><name>PT8410</name></trkpt>
<trkpt lat="54.619204" lon="-3.124007"><ele>218</ele><time>2020-08-14T14:47:55Z</time><name>PT8411</name></trkpt>
<trkpt lat="54.619202" lon="-3.124021"><ele>218</ele><time>2020-08-14T14:47:56Z</time><name>PT8412</name></trkpt>
<trkpt lat="54.619193" lon="-3.124038"><ele>217</ele><time>2020-08-14T14:47:57Z</time><name>PT8413</name></trkpt>
<trkpt lat="54.619191" lon="-3.124061"><ele>217</ele><time>2020-08-14T14:47:58Z</time><name>PT8414</name></trkpt>
<trkpt lat="54.619189" lon="-3.124083"><ele>217</ele><time>2020-08-14T14:47:59Z</time><name>PT8415</name></trkpt>
<trkpt lat="54.619184" lon="-3.124100"><ele>216</ele><time>2020-08-14T14:48:00Z</time><name>PT8416</name></trkpt>
<trkpt lat="54.619183" lon="-3.124113"><ele>215</ele><time>2020-08-14T14:48:01Z</time><name>PT8417</name></trkpt>
<trkpt lat="54.619181" lon="-3.124128"><ele>214</ele><time>2020-08-14T14:48:02Z</time><name>PT8418</name></trkpt>
<trkpt lat="54.619188" lon="-3.124161"><ele>216</ele><time>2020-08-14T14:48:03Z</time><name>PT8419</name></trkpt>
<trkpt lat="54.619190" lon="-3.124172"><ele>216</ele><time>2020-08-14T14:48:04Z</time><name>PT8420</name></trkpt>
<trkpt lat="54.619186" lon="-3.124188"><ele>215</ele><time>2020-08-14T14:48:05Z</time><name>PT8421</name></trkpt>
<trkpt lat="54.619186" lon="-3.124206"><ele>215</ele><time>2020-08-14T14:48:06Z</time><name>PT8422</name></trkpt>
<trkpt lat="54.619186" lon="-3.124227"><ele>215</ele><time>2020-08-14T14:48:07Z</time><name>PT8423</name></trkpt>
<trkpt lat="54.619194" lon="-3.124230"><ele>213</ele><time>2020-08-14T14:48:08Z</time><name>PT8424</name></trkpt>
<trkpt lat="54.619198" lon="-3.124254"><ele>213</ele><time>2020-08-14T14:48:09Z</time><name>PT8425</name></trkpt>
<trkpt lat="54.619196" lon="-3.124271"><ele>212</ele><time>2020-08-14T14:48:10Z</time><name>PT8426</name></trkpt>
<trkpt lat="54.619187" lon="-3.124300"><ele>213</ele><time>2020-08-14T14:48:11Z</time><name>PT8427</name></trkpt>
<trkpt lat="54.619182" lon="-3.124326"><ele>214</ele><time>2020-08-14T14:48:12Z</time><name>PT8428</name></trkpt>
<trkpt lat="54.619183" lon="-3.124341"><ele>213</ele><time>2020-08-14T14:48:13Z</time><name>PT8429</name></trkpt>
<trkpt lat="54.619185" lon="-3.124360"><ele>213</ele><time>2020-08-14T14:48:14Z</time><name>PT8430</name></trkpt>
<trkpt lat="54.619184" lon="-3.124383"><ele>213</ele><time>2020-08-14T14:48:15Z</time><name>PT8431</name></trkpt>
<trkpt lat="54.619184" lon="-3.124404"><ele>213</ele><time>2020-08-14T14:48:16Z</time><name>PT8432</name></trkpt>
<trkpt lat="54.619184" lon="-3.124428"><ele>213</ele><time>2020-08-14T14:48:17Z</time><name>PT8433</name></trkpt>
<trkpt lat="54.619184" lon="-3.124448"><ele>213</ele><time>2020-08-14T14:48:18Z</time><name>PT8434</name></trkpt>
<trkpt lat="54.619183" lon="-3.124461"><ele>213</ele><time>2020-08-14T14:48:19Z</time><name>PT8435</name></trkpt>
<trkpt lat="54.619187" lon="-3.124486"><ele>214</ele><time>2020-08-14T14:48:20Z</time><name>PT8436</name></trkpt>
<trkpt lat="54.619189" lon="-3.124507"><ele>214</ele><time>2020-08-14T14:48:21Z</time><name>PT8437</name></trkpt>
<trkpt lat="54.619188" lon="-3.124524"><ele>214</ele><time>2020-08-14T14:48:22Z</time><name>PT8438</name></trkpt>
<trkpt lat="54.619189" lon="-3.124543"><ele>214</ele><time>2020-08-14T14:48:23Z</time><name>PT8439</name></trkpt>
<trkpt lat="54.619189" lon="-3.124565"><ele>214</ele><time>2020-08-14T14:48:24Z</time><name>PT8440</name></trkpt>
<trkpt lat="54.619188" lon="-3.124590"><ele>214</ele><time>2020-08-14T14:48:25Z</time><name>PT8441</name></trkpt>
<trkpt lat="54.619186" lon="-3.124607"><ele>213</ele><time>2020-08-14T14:48:26Z</time><name>PT8442</name></trkpt>
<trkpt lat="54.619185" lon="-3.124617"><ele>213</ele><time>2020-08-14T14:48:27Z</time><name>PT8443</name></trkpt>
<trkpt lat="54.619177" lon="-3.124635"><ele>211</ele><time>2020-08-14T14:48:28Z</time><name>PT8444</name></trkpt>
<trkpt lat="54.619185" lon="-3.124649"><ele>213</ele><time>2020-08-14T14:48:29Z</time><name>PT8445</name></trkpt>
<trkpt lat="54.619185" lon="-3.124656"><ele>212</ele><time>2020-08-14T14:48:30Z</time><name>PT8446</name></trkpt>
<trkpt lat="54.619179" lon="-3.124671"><ele>212</ele><time>2020-08-14T14:48:31Z</time><name>PT8447</name></trkpt>
<trkpt lat="54.619163" lon="-3.124688"><ele>210</ele><time>2020-08-14T14:48:32Z</time><name>PT8448</name></trkpt>
<trkpt lat="54.619149" lon="-3.124708"><ele>209</ele><time>2020-08-14T14:48:33Z</time><name>PT8449</name></trkpt>
<trkpt lat="54.619141" lon="-3.124733"><ele>209</ele><time>2020-08-14T14:48:34Z</time><name>PT8450</name></trkpt>
<trkpt lat="54.619132" lon="-3.124754"><ele>208</ele><time>2020-08-14T14:48:35Z</time><name>PT8451</name></trkpt>
<trkpt lat="54.619134" lon="-3.124767"><ele>208</ele><time>2020-08-14T14:48:36Z</time><name>PT8452</name></trkpt>
<trkpt lat="54.619136" lon="-3.124783"><ele>208</ele><time>2020-08-14T14:48:37Z</time><name>PT8453</name></trkpt>
<trkpt lat="54.619133" lon="-3.124810"><ele>208</ele><time>2020-08-14T14:48:38Z</time><name>PT8454</name></trkpt>
<trkpt lat="54.619135" lon="-3.124826"><ele>208</ele><time>2020-08-14T14:48:39Z</time><name>PT8455</name></trkpt>
<trkpt lat="54.619131" lon="-3.124852"><ele>208</ele><time>2020-08-14T14:48:40Z</time><name>PT8456</name></trkpt>
<trkpt lat="54.619127" lon="-3.124874"><ele>208</ele><time>2020-08-14T14:48:41Z</time><name>PT8457</name></trkpt>
<trkpt lat="54.619125" lon="-3.124888"><ele>207</ele><time>2020-08-14T14:48:42Z</time><name>PT8458</name></trkpt>
<trkpt lat="54.619121" lon="-3.124913"><ele>207</ele><time>2020-08-14T14:48:43Z</time><name>PT8459</name></trkpt>
<trkpt lat="54.619114" lon="-3.124935"><ele>206</ele><time>2020-08-14T14:48:44Z</time><name>PT8460</name></trkpt>
<trkpt lat="54.619113" lon="-3.124949"><ele>205</ele><time>2020-08-14T14:48:45Z</time><name>PT8461</name></trkpt>
<trkpt lat="54.619111" lon="-3.124963"><ele>203</ele><time>2020-08-14T14:48:46Z</time><name>PT8462</name></trkpt>
<trkpt lat="54.619119" lon="-3.124979"><ele>203</ele><time>2020-08-14T14:48:47Z</time><name>PT8463</name></trkpt>
<trkpt lat="54.619136" lon="-3.125005"><ele>204</ele><time>2020-08-14T14:48:48Z</time><name>PT8464</name></trkpt>
<trkpt lat="54.619141" lon="-3.125027"><ele>203</ele><time>2020-08-14T14:48:49Z</time><name>PT8465</name></trkpt>
<trkpt lat="54.619148" lon="-3.125046"><ele>203</ele><time>2020-08-14T14:48:50Z</time><name>PT8466</name></trkpt>
<trkpt lat="54.619155" lon="-3.125069"><ele>203</ele><time>2020-08-14T14:48:51Z</time><name>PT8467</name></trkpt>
<trkpt lat="54.619161" lon="-3.125091"><ele>202</ele><time>2020-08-14T14:48:52Z</time><name>PT8468</name></trkpt>
<trkpt lat="54.619170" lon="-3.125117"><ele>202</ele><time>2020-08-14T14:48:53Z</time><name>PT8469</name></trkpt>
<trkpt lat="54.619177" lon="-3.125131"><ele>201</ele><time>2020-08-14T14:48:54Z</time><name>PT8470</name></trkpt>
<trkpt lat="54.619182" lon="-3.125142"><ele>201</ele><time>2020-08-14T14:48:55Z</time><name>PT8471</name></trkpt>
<trkpt lat="54.619188" lon="-3.125151"><ele>201</ele><time>2020-08-14T14:48:56Z</time><name>PT8472</name></trkpt>
<trkpt lat="54.619200" lon="-3.125171"><ele>202</ele><time>2020-08-14T14:48:57Z</time><name>PT8473</name></trkpt>
<trkpt lat="54.619207" lon="-3.125195"><ele>203</ele><time>2020-08-14T14:48:58Z</time><name>PT8474</name></trkpt>
<trkpt lat="54.619212" lon="-3.125218"><ele>203</ele><time>2020-08-14T14:48:59Z</time><name>PT8475</name></trkpt>
<trkpt lat="54.619222" lon="-3.125240"><ele>203</ele><time>2020-08-14T14:49:00Z</time><name>PT8476</name></trkpt>
<trkpt lat="54.619229" lon="-3.125266"><ele>203</ele><time>2020-08-14T14:49:01Z</time><name>PT8477</name></trkpt>
<trkpt lat="54.619237" lon="-3.125291"><ele>203</ele><time>2020-08-14T14:49:02Z</time><name>PT8478</name></trkpt>
<trkpt lat="54.619250" lon="-3.125311"><ele>202</ele><time>2020-08-14T14:49:03Z</time><name>PT8479</name></trkpt>
<trkpt lat="54.619263" lon="-3.125331"><ele>202</ele><time>2020-08-14T14:49:04Z</time><name>PT8480</name></trkpt>
<trkpt lat="54.619267" lon="-3.125349"><ele>202</ele><time>2020-08-14T14:49:05Z</time><name>PT8481</name></trkpt>
<trkpt lat="54.619274" lon="-3.125357"><ele>201</ele><time>2020-08-14T14:49:06Z</time><name>PT8482</name></trkpt>
<trkpt lat="54.619285" lon="-3.125371"><ele>202</ele><time>2020-08-14T14:49:07Z</time><name>PT8483</name></trkpt>
<trkpt lat="54.619291" lon="-3.125389"><ele>202</ele><time>2020-08-14T14:49:08Z</time><name>PT8484</name></trkpt>
<trkpt lat="54.619288" lon="-3.125410"><ele>202</ele><time>2020-08-14T14:49:09Z</time><name>PT8485</name></trkpt>
<trkpt lat="54.619294" lon="-3.125431"><ele>202</ele><time>2020-08-14T14:49:10Z</time><name>PT8486</name></trkpt>
<trkpt lat="54.619300" lon="-3.125452"><ele>200</ele><time>2020-08-14T14:49:11Z</time><name>PT8487</name></trkpt>
<trkpt lat="54.619301" lon="-3.125484"><ele>201</ele><time>2020-08-14T14:49:12Z</time><name>PT8488</name></trkpt>
<trkpt lat="54.619304" lon="-3.125504"><ele>201</ele><time>2020-08-14T14:49:13Z</time><name>PT8489</name></trkpt>
<trkpt lat="54.619305" lon="-3.125519"><ele>201</ele><time>2020-08-14T14:49:14Z</time><name>PT8490</name></trkpt>
<trkpt lat="54.619314" lon="-3.125530"><ele>201</ele><time>2020-08-14T14:49:15Z</time><name>PT8491</name></trkpt>
<trkpt lat="54.619318" lon="-3.125544"><ele>201</ele><time>2020-08-14T14:49:16Z</time><name>PT8492</name></trkpt>
<trkpt lat="54.619320" lon="-3.125562"><ele>200</ele><time>2020-08-14T14:49:17Z</time><name>PT8493</name></trkpt>
<trkpt lat="54.619324" lon="-3.125584"><ele>201</ele><time>2020-08-14T14:49:18Z</time><name>PT8494</name></trkpt>
<trkpt lat="54.619330" lon="-3.125610"><ele>200</ele><time>2020-08-14T14:49:19Z</time><name>PT8495</name></trkpt>
<trkpt lat="54.619335" lon="-3.125634"><ele>200</ele><time>2020-08-14T14:49:20Z</time><name>PT8496</name></trkpt>
<trkpt lat="54.619337" lon="-3.125650"><ele>200</ele><time>2020-08-14T14:49:21Z</time><name>PT8497</name></trkpt>
<trkpt lat="54.619344" lon="-3.125661"><ele>200</ele><time>2020-08-14T14:49:22Z</time><name>PT8498</name></trkpt>
<trkpt lat="54.619348" lon="-3.125678"><ele>201</ele><time>2020-08-14T14:49:23Z</time><name>PT8499</name></trkpt>
<trkpt lat="54.619347" lon="-3.125696"><ele>200</ele><time>2020-08-14T14:49:24Z</time><name>PT8500</name></trkpt>
<trkpt lat="54.619342" lon="-3.125726"><ele>200</ele><time>2020-08-14T14:49:25Z</time><name>PT8501</name></trkpt>
<trkpt lat="54.619349" lon="-3.125755"><ele>200</ele><time>2020-08-14T14:49:26Z</time><name>PT8502</name></trkpt>
<trkpt lat="54.619357" lon="-3.125808"><ele>200</ele><time>2020-08-14T14:49:28Z</time><name>PT8503</name></trkpt>
<trkpt lat="54.619359" lon="-3.125828"><ele>200</ele><time>2020-08-14T14:49:29Z</time><name>PT8504</name></trkpt>
<trkpt lat="54.619360" lon="-3.125839"><ele>199</ele><time>2020-08-14T14:49:30Z</time><name>PT8505</name></trkpt>
<trkpt lat="54.619362" lon="-3.125852"><ele>199</ele><time>2020-08-14T14:49:31Z</time><name>PT8506</name></trkpt>
<trkpt lat="54.619369" lon="-3.125872"><ele>199</ele><time>2020-08-14T14:49:32Z</time><name>PT8507</name></trkpt>
<trkpt lat="54.619372" lon="-3.125890"><ele>198</ele><time>2020-08-14T14:49:33Z</time><name>PT8508</name></trkpt>
<trkpt lat="54.619372" lon="-3.125900"><ele>199</ele><time>2020-08-14T14:49:34Z</time><name>PT8509</name></trkpt>
<trkpt lat="54.619375" lon="-3.125916"><ele>199</ele><time>2020-08-14T14:49:35Z</time><name>PT8510</name></trkpt>
<trkpt lat="54.619378" lon="-3.125946"><ele>198</ele><time>2020-08-14T14:49:36Z</time><name>PT8511</name></trkpt>
<trkpt lat="54.619373" lon="-3.125981"><ele>196</ele><time>2020-08-14T14:49:38Z</time><name>PT8512</name></trkpt>
<trkpt lat="54.619375" lon="-3.126000"><ele>195</ele><time>2020-08-14T14:49:39Z</time><name>PT8513</name></trkpt>
<trkpt lat="54.619383" lon="-3.126014"><ele>194</ele><time>2020-08-14T14:49:40Z</time><name>PT8514</name></trkpt>
<trkpt lat="54.619390" lon="-3.126031"><ele>194</ele><time>2020-08-14T14:49:41Z</time><name>PT8515</name></trkpt>
<trkpt lat="54.619390" lon="-3.126047"><ele>193</ele><time>2020-08-14T14:49:42Z</time><name>PT8516</name></trkpt>
<trkpt lat="54.619392" lon="-3.126075"><ele>193</ele><time>2020-08-14T14:49:43Z</time><name>PT8517</name></trkpt>
<trkpt lat="54.619406" lon="-3.126103"><ele>193</ele><time>2020-08-14T14:49:44Z</time><name>PT8518</name></trkpt>
<trkpt lat="54.619416" lon="-3.126130"><ele>193</ele><time>2020-08-14T14:49:45Z</time><name>PT8519</name></trkpt>
<trkpt lat="54.619424" lon="-3.126152"><ele>193</ele><time>2020-08-14T14:49:46Z</time><name>PT8520</name></trkpt>
<trkpt lat="54.619431" lon="-3.126168"><ele>193</ele><time>2020-08-14T14:49:47Z</time><name>PT8521</name></trkpt>
<trkpt lat="54.619439" lon="-3.126184"><ele>192</ele><time>2020-08-14T14:49:48Z</time><name>PT8522</name></trkpt>
<trkpt lat="54.619448" lon="-3.126204"><ele>193</ele><time>2020-08-14T14:49:49Z</time><name>PT8523</name></trkpt>
<trkpt lat="54.619452" lon="-3.126224"><ele>193</ele><time>2020-08-14T14:49:50Z</time><name>PT8524</name></trkpt>
<trkpt lat="54.619456" lon="-3.126241"><ele>193</ele><time>2020-08-14T14:49:51Z</time><name>PT8525</name></trkpt>
<trkpt lat="54.619465" lon="-3.126258"><ele>192</ele><time>2020-08-14T14:49:52Z</time><name>PT8526</name></trkpt>
<trkpt lat="54.619479" lon="-3.126276"><ele>192</ele><time>2020-08-14T14:49:53Z</time><name>PT8527</name></trkpt>
<trkpt lat="54.619499" lon="-3.126295"><ele>193</ele><time>2020-08-14T14:49:54Z</time><name>PT8528</name></trkpt>
<trkpt lat="54.619507" lon="-3.126318"><ele>194</ele><time>2020-08-14T14:49:55Z</time><name>PT8529</name></trkpt>
<trkpt lat="54.619515" lon="-3.126336"><ele>195</ele><time>2020-08-14T14:49:56Z</time><name>PT8530</name></trkpt>
<trkpt lat="54.619531" lon="-3.126350"><ele>196</ele><time>2020-08-14T14:49:57Z</time><name>PT8531</name></trkpt>
<trkpt lat="54.619544" lon="-3.126357"><ele>196</ele><time>2020-08-14T14:49:58Z</time><name>PT8532</name></trkpt>
<trkpt lat="54.619559" lon="-3.126368"><ele>196</ele><time>2020-08-14T14:49:59Z</time><name>PT8533</name></trkpt>
<trkpt lat="54.619570" lon="-3.126382"><ele>197</ele><time>2020-08-14T14:50:00Z</time><name>PT8534</name></trkpt>
<trkpt lat="54.619582" lon="-3.126394"><ele>197</ele><time>2020-08-14T14:50:01Z</time><name>PT8535</name></trkpt>
<trkpt lat="54.619594" lon="-3.126410"><ele>198</ele><time>2020-08-14T14:50:02Z</time><name>PT8536</name></trkpt>
<trkpt lat="54.619604" lon="-3.126419"><ele>198</ele><time>2020-08-14T14:50:03Z</time><name>PT8537</name></trkpt>
<trkpt lat="54.619611" lon="-3.126427"><ele>199</ele><time>2020-08-14T14:50:04Z</time><name>PT8538</name></trkpt>
<trkpt lat="54.619638" lon="-3.126468"><ele>199</ele><time>2020-08-14T14:50:07Z</time><name>PT8539</name></trkpt>
<trkpt lat="54.619649" lon="-3.126489"><ele>199</ele><time>2020-08-14T14:50:08Z</time><name>PT8540</name></trkpt>
<trkpt lat="54.619658" lon="-3.126512"><ele>198</ele><time>2020-08-14T14:50:09Z</time><name>PT8541</name></trkpt>
<trkpt lat="54.619670" lon="-3.126537"><ele>197</ele><time>2020-08-14T14:50:10Z</time><name>PT8542</name></trkpt>
<trkpt lat="54.619682" lon="-3.126559"><ele>196</ele><time>2020-08-14T14:50:11Z</time><name>PT8543</name></trkpt>
<trkpt lat="54.619696" lon="-3.126587"><ele>193</ele><time>2020-08-14T14:50:12Z</time><name>PT8544</name></trkpt>
<trkpt lat="54.619704" lon="-3.126611"><ele>191</ele><time>2020-08-14T14:50:13Z</time><name>PT8545</name></trkpt>
<trkpt lat="54.619709" lon="-3.126627"><ele>190</ele><time>2020-08-14T14:50:14Z</time><name>PT8546</name></trkpt>
<trkpt lat="54.619715" lon="-3.126642"><ele>189</ele><time>2020-08-14T14:50:15Z</time><name>PT8547</name></trkpt>
<trkpt lat="54.619724" lon="-3.126664"><ele>189</ele><time>2020-08-14T14:50:16Z</time><name>PT8548</name></trkpt>
<trkpt lat="54.619732" lon="-3.126686"><ele>189</ele><time>2020-08-14T14:50:17Z</time><name>PT8549</name></trkpt>
<trkpt lat="54.619740" lon="-3.126709"><ele>188</ele><time>2020-08-14T14:50:18Z</time><name>PT8550</name></trkpt>
<trkpt lat="54.619746" lon="-3.126734"><ele>188</ele><time>2020-08-14T14:50:19Z</time><name>PT8551</name></trkpt>
<trkpt lat="54.619759" lon="-3.126762"><ele>188</ele><time>2020-08-14T14:50:20Z</time><name>PT8552</name></trkpt>
<trkpt lat="54.619770" lon="-3.126785"><ele>187</ele><time>2020-08-14T14:50:21Z</time><name>PT8553</name></trkpt>
<trkpt lat="54.619780" lon="-3.126809"><ele>187</ele><time>2020-08-14T14:50:22Z</time><name>PT8554</name></trkpt>
<trkpt lat="54.619783" lon="-3.126820"><ele>187</ele><time>2020-08-14T14:50:23Z</time><name>PT8555</name></trkpt>
<trkpt lat="54.619781" lon="-3.126834"><ele>186</ele><time>2020-08-14T14:50:24Z</time><name>PT8556</name></trkpt>
<trkpt lat="54.619786" lon="-3.126851"><ele>187</ele><time>2020-08-14T14:50:25Z</time><name>PT8557</name></trkpt>
<trkpt lat="54.619793" lon="-3.126881"><ele>187</ele><time>2020-08-14T14:50:26Z</time><name>PT8558</name></trkpt>
<trkpt lat="54.619796" lon="-3.126907"><ele>187</ele><time>2020-08-14T14:50:27Z</time><name>PT8559</name></trkpt>
<trkpt lat="54.619801" lon="-3.126931"><ele>187</ele><time>2020-08-14T14:50:28Z</time><name>PT8560</name></trkpt>
<trkpt lat="54.619800" lon="-3.126960"><ele>187</ele><time>2020-08-14T14:50:29Z</time><name>PT8561</name></trkpt>
<trkpt lat="54.619807" lon="-3.126990"><ele>188</ele><time>2020-08-14T14:50:30Z</time><name>PT8562</name></trkpt>
<trkpt lat="54.619809" lon="-3.127011"><ele>187</ele><time>2020-08-14T14:50:31Z</time><name>PT8563</name></trkpt>
<trkpt lat="54.619807" lon="-3.127031"><ele>186</ele><time>2020-08-14T14:50:32Z</time><name>PT8564</name></trkpt>
<trkpt lat="54.619807" lon="-3.127050"><ele>187</ele><time>2020-08-14T14:50:33Z</time><name>PT8565</name></trkpt>
<trkpt lat="54.619817" lon="-3.127072"><ele>188</ele><time>2020-08-14T14:50:34Z</time><name>PT8566</name></trkpt>
<trkpt lat="54.619816" lon="-3.127088"><ele>189</ele><time>2020-08-14T14:50:35Z</time><name>PT8567</name></trkpt>
<trkpt lat="54.619816" lon="-3.127099"><ele>189</ele><time>2020-08-14T14:50:36Z</time><name>PT8568</name></trkpt>
<trkpt lat="54.619811" lon="-3.127122"><ele>188</ele><time>2020-08-14T14:50:37Z</time><name>PT8569</name></trkpt>
<trkpt lat="54.619810" lon="-3.127150"><ele>187</ele><time>2020-08-14T14:50:38Z</time><name>PT8570</name></trkpt>
<trkpt lat="54.619804" lon="-3.127175"><ele>186</ele><time>2020-08-14T14:50:39Z</time><name>PT8571</name></trkpt>
<trkpt lat="54.619806" lon="-3.127183"><ele>185</ele><time>2020-08-14T14:50:40Z</time><name>PT8572</name></trkpt>
<trkpt lat="54.619807" lon="-3.127188"><ele>185</ele><time>2020-08-14T14:50:41Z</time><name>PT8573</name></trkpt>
<trkpt lat="54.619813" lon="-3.127199"><ele>185</ele><time>2020-08-14T14:50:42Z</time><name>PT8574</name></trkpt>
<trkpt lat="54.619811" lon="-3.127222"><ele>185</ele><time>2020-08-14T14:50:43Z</time><name>PT8575</name></trkpt>
<trkpt lat="54.619814" lon="-3.127250"><ele>185</ele><time>2020-08-14T14:50:44Z</time><name>PT8576</name></trkpt>
<trkpt lat="54.619804" lon="-3.127270"><ele>183</ele><time>2020-08-14T14:50:45Z</time><name>PT8577</name></trkpt>
<trkpt lat="54.619799" lon="-3.127283"><ele>183</ele><time>2020-08-14T14:50:46Z</time><name>PT8578</name></trkpt>
<trkpt lat="54.619800" lon="-3.127294"><ele>184</ele><time>2020-08-14T14:50:47Z</time><name>PT8579</name></trkpt>
<trkpt lat="54.619799" lon="-3.127307"><ele>183</ele><time>2020-08-14T14:50:48Z</time><name>PT8580</name></trkpt>
<trkpt lat="54.619796" lon="-3.127331"><ele>183</ele><time>2020-08-14T14:50:49Z</time><name>PT8581</name></trkpt>
<trkpt lat="54.619794" lon="-3.127355"><ele>183</ele><time>2020-08-14T14:50:50Z</time><name>PT8582</name></trkpt>
<trkpt lat="54.619796" lon="-3.127383"><ele>182</ele><time>2020-08-14T14:50:51Z</time><name>PT8583</name></trkpt>
<trkpt lat="54.619798" lon="-3.127414"><ele>182</ele><time>2020-08-14T14:50:52Z</time><name>PT8584</name></trkpt>
<trkpt lat="54.619798" lon="-3.127466"><ele>183</ele><time>2020-08-14T14:50:54Z</time><name>PT8585</name></trkpt>
<trkpt lat="54.619796" lon="-3.127478"><ele>182</ele><time>2020-08-14T14:50:55Z</time><name>PT8586</name></trkpt>
<trkpt lat="54.619800" lon="-3.127494"><ele>182</ele><time>2020-08-14T14:50:56Z</time><name>PT8587</name></trkpt>
<trkpt lat="54.619801" lon="-3.127516"><ele>183</ele><time>2020-08-14T14:50:57Z</time><name>PT8588</name></trkpt>
<trkpt lat="54.619799" lon="-3.127538"><ele>184</ele><time>2020-08-14T14:50:58Z</time><name>PT8589</name></trkpt>
<trkpt lat="54.619802" lon="-3.127551"><ele>183</ele><time>2020-08-14T14:50:59Z</time><name>PT8590</name></trkpt>
<trkpt lat="54.619804" lon="-3.127576"><ele>183</ele><time>2020-08-14T14:51:00Z</time><name>PT8591</name></trkpt>
<trkpt lat="54.619807" lon="-3.127600"><ele>183</ele><time>2020-08-14T14:51:01Z</time><name>PT8592</name></trkpt>
<trkpt lat="54.619812" lon="-3.127623"><ele>183</ele><time>2020-08-14T14:51:02Z</time><name>PT8593</name></trkpt>
<trkpt lat="54.619815" lon="-3.127642"><ele>184</ele><time>2020-08-14T14:51:03Z</time><name>PT8594</name></trkpt>
<trkpt lat="54.619824" lon="-3.127661"><ele>184</ele><time>2020-08-14T14:51:04Z</time><name>PT8595</name></trkpt>
<trkpt lat="54.619822" lon="-3.127673"><ele>183</ele><time>2020-08-14T14:51:05Z</time><name>PT8596</name></trkpt>
<trkpt lat="54.619823" lon="-3.127693"><ele>183</ele><time>2020-08-14T14:51:06Z</time><name>PT8597</name></trkpt>
<trkpt lat="54.619831" lon="-3.127719"><ele>183</ele><time>2020-08-14T14:51:07Z</time><name>PT8598</name></trkpt>
<trkpt lat="54.619839" lon="-3.127746"><ele>183</ele><time>2020-08-14T14:51:08Z</time><name>PT8599</name></trkpt>
<trkpt lat="54.619847" lon="-3.127774"><ele>182</ele><time>2020-08-14T14:51:09Z</time><name>PT8600</name></trkpt>
<trkpt lat="54.619860" lon="-3.127799"><ele>183</ele><time>2020-08-14T14:51:10Z</time><name>PT8601</name></trkpt>
<trkpt lat="54.619869" lon="-3.127820"><ele>183</ele><time>2020-08-14T14:51:11Z</time><name>PT8602</name></trkpt>
<trkpt lat="54.619875" lon="-3.127836"><ele>183</ele><time>2020-08-14T14:51:12Z</time><name>PT8603</name></trkpt>
<trkpt lat="54.619887" lon="-3.127857"><ele>183</ele><time>2020-08-14T14:51:13Z</time><name>PT8604</name></trkpt>
<trkpt lat="54.619889" lon="-3.127876"><ele>184</ele><time>2020-08-14T14:51:14Z</time><name>PT8605</name></trkpt>
<trkpt lat="54.619892" lon="-3.127900"><ele>183</ele><time>2020-08-14T14:51:15Z</time><name>PT8606</name></trkpt>
<trkpt lat="54.619901" lon="-3.127927"><ele>184</ele><time>2020-08-14T14:51:16Z</time><name>PT8607</name></trkpt>
<trkpt lat="54.619903" lon="-3.127955"><ele>183</ele><time>2020-08-14T14:51:17Z</time><name>PT8608</name></trkpt>
<trkpt lat="54.619906" lon="-3.127976"><ele>181</ele><time>2020-08-14T14:51:18Z</time><name>PT8609</name></trkpt>
<trkpt lat="54.619912" lon="-3.127995"><ele>181</ele><time>2020-08-14T14:51:19Z</time><name>PT8610</name></trkpt>
<trkpt lat="54.619919" lon="-3.128005"><ele>180</ele><time>2020-08-14T14:51:20Z</time><name>PT8611</name></trkpt>
<trkpt lat="54.619956" lon="-3.128088"><ele>182</ele><time>2020-08-14T14:51:24Z</time><name>PT8612</name></trkpt>
<trkpt lat="54.619992" lon="-3.128163"><ele>181</ele><time>2020-08-14T14:51:28Z</time><name>PT8613</name></trkpt>
<trkpt lat="54.619997" lon="-3.128208"><ele>177</ele><time>2020-08-14T14:51:31Z</time><name>PT8614</name></trkpt>
<trkpt lat="54.620039" lon="-3.128270"><ele>177</ele><time>2020-08-14T14:51:34Z</time><name>PT8615</name></trkpt>
<trkpt lat="54.620080" lon="-3.128321"><ele>175</ele><time>2020-08-14T14:51:38Z</time><name>PT8616</name></trkpt>
<trkpt lat="54.620122" lon="-3.128377"><ele>175</ele><time>2020-08-14T14:51:41Z</time><name>PT8617</name></trkpt>
<trkpt lat="54.620157" lon="-3.128421"><ele>176</ele><time>2020-08-14T14:51:44Z</time><name>PT8618</name></trkpt>
<trkpt lat="54.620180" lon="-3.128476"><ele>175</ele><time>2020-08-14T14:51:47Z</time><name>PT8619</name></trkpt>
<trkpt lat="54.620209" lon="-3.128548"><ele>175</ele><time>2020-08-14T14:51:50Z</time><name>PT8620</name></trkpt>
<trkpt lat="54.620243" lon="-3.128624"><ele>177</ele><time>2020-08-14T14:51:54Z</time><name>PT8621</name></trkpt>
<trkpt lat="54.620290" lon="-3.128711"><ele>176</ele><time>2020-08-14T14:51:58Z</time><name>PT8622</name></trkpt>
<trkpt lat="54.620330" lon="-3.128723"><ele>178</ele><time>2020-08-14T14:52:01Z</time><name>PT8623</name></trkpt>
<trkpt lat="54.620364" lon="-3.128783"><ele>178</ele><time>2020-08-14T14:52:04Z</time><name>PT8624</name></trkpt>
<trkpt lat="54.620398" lon="-3.128827"><ele>179</ele><time>2020-08-14T14:52:07Z</time><name>PT8625</name></trkpt>
<trkpt lat="54.620431" lon="-3.128871"><ele>179</ele><time>2020-08-14T14:52:10Z</time><name>PT8626</name></trkpt>
<trkpt lat="54.620471" lon="-3.128934"><ele>179</ele><time>2020-08-14T14:52:13Z</time><name>PT8627</name></trkpt>
<trkpt lat="54.620506" lon="-3.128965"><ele>178</ele><time>2020-08-14T14:52:17Z</time><name>PT8628</name></trkpt>
<trkpt lat="54.620558" lon="-3.129038"><ele>179</ele><time>2020-08-14T14:52:21Z</time><name>PT8629</name></trkpt>
<trkpt lat="54.620599" lon="-3.129068"><ele>178</ele><time>2020-08-14T14:52:25Z</time><name>PT8630</name></trkpt>
<trkpt lat="54.620635" lon="-3.129125"><ele>181</ele><time>2020-08-14T14:52:28Z</time><name>PT8631</name></trkpt>
<trkpt lat="54.620661" lon="-3.129174"><ele>181</ele><time>2020-08-14T14:52:31Z</time><name>PT8632</name></trkpt>
<trkpt lat="54.620681" lon="-3.129239"><ele>180</ele><time>2020-08-14T14:52:35Z</time><name>PT8633</name></trkpt>
<trkpt lat="54.620704" lon="-3.129312"><ele>181</ele><time>2020-08-14T14:52:38Z</time><name>PT8634</name></trkpt>
<trkpt lat="54.620747" lon="-3.129379"><ele>186</ele><time>2020-08-14T14:52:42Z</time><name>PT8635</name></trkpt>
<trkpt lat="54.620775" lon="-3.129468"><ele>187</ele><time>2020-08-14T14:52:46Z</time><name>PT8636</name></trkpt>
<trkpt lat="54.620781" lon="-3.129549"><ele>184</ele><time>2020-08-14T14:52:50Z</time><name>PT8637</name></trkpt>
<trkpt lat="54.620807" lon="-3.129636"><ele>179</ele><time>2020-08-14T14:52:54Z</time><name>PT8638</name></trkpt>
<trkpt lat="54.620813" lon="-3.129691"><ele>178</ele><time>2020-08-14T14:52:57Z</time><name>PT8639</name></trkpt>
<trkpt lat="54.620827" lon="-3.129790"><ele>177</ele><time>2020-08-14T14:53:01Z</time><name>PT8640</name></trkpt>
<trkpt lat="54.620829" lon="-3.129851"><ele>177</ele><time>2020-08-14T14:53:04Z</time><name>PT8641</name></trkpt>
<trkpt lat="54.620855" lon="-3.129954"><ele>179</ele><time>2020-08-14T14:53:08Z</time><name>PT8642</name></trkpt>
<trkpt lat="54.620874" lon="-3.130007"><ele>179</ele><time>2020-08-14T14:53:11Z</time><name>PT8643</name></trkpt>
<trkpt lat="54.620912" lon="-3.130128"><ele>185</ele><time>2020-08-14T14:53:15Z</time><name>PT8644</name></trkpt>
<trkpt lat="54.620912" lon="-3.130152"><ele>184</ele><time>2020-08-14T14:53:16Z</time><name>PT8645</name></trkpt>
<trkpt lat="54.620917" lon="-3.130176"><ele>184</ele><time>2020-08-14T14:53:17Z</time><name>PT8646</name></trkpt>
<trkpt lat="54.620919" lon="-3.130201"><ele>184</ele><time>2020-08-14T14:53:18Z</time><name>PT8647</name></trkpt>
<trkpt lat="54.620922" lon="-3.130224"><ele>184</ele><time>2020-08-14T14:53:19Z</time><name>PT8648</name></trkpt>
<trkpt lat="54.620925" lon="-3.130246"><ele>184</ele><time>2020-08-14T14:53:20Z</time><name>PT8649</name></trkpt>
<trkpt lat="54.620928" lon="-3.130268"><ele>184</ele><time>2020-08-14T14:53:21Z</time><name>PT8650</name></trkpt>
<trkpt lat="54.620931" lon="-3.130292"><ele>183</ele><time>2020-08-14T14:53:22Z</time><name>PT8651</name></trkpt>
<trkpt lat="54.620932" lon="-3.130314"><ele>183</ele><time>2020-08-14T14:53:23Z</time><name>PT8652</name></trkpt>
<trkpt lat="54.620934" lon="-3.130336"><ele>183</ele><time>2020-08-14T14:53:24Z</time><name>PT8653</name></trkpt>
<trkpt lat="54.620937" lon="-3.130356"><ele>183</ele><time>2020-08-14T14:53:25Z</time><name>PT8654</name></trkpt>
<trkpt lat="54.620941" lon="-3.130378"><ele>183</ele><time>2020-08-14T14:53:26Z</time><name>PT8655</name></trkpt>
<trkpt lat="54.620944" lon="-3.130399"><ele>183</ele><time>2020-08-14T14:53:27Z</time><name>PT8656</name></trkpt>
<trkpt lat="54.620948" lon="-3.130419"><ele>183</ele><time>2020-08-14T14:53:28Z</time><name>PT8657</name></trkpt>
<trkpt lat="54.620953" lon="-3.130440"><ele>183</ele><time>2020-08-14T14:53:29Z</time><name>PT8658</name></trkpt>
<trkpt lat="54.620960" lon="-3.130461"><ele>183</ele><time>2020-08-14T14:53:30Z</time><name>PT8659</name></trkpt>
<trkpt lat="54.620965" lon="-3.130483"><ele>183</ele><time>2020-08-14T14:53:31Z</time><name>PT8660</name></trkpt>
<trkpt lat="54.620969" lon="-3.130502"><ele>182</ele><time>2020-08-14T14:53:32Z</time><name>PT8661</name></trkpt>
<trkpt lat="54.620973" lon="-3.130523"><ele>182</ele><time>2020-08-14T14:53:33Z</time><name>PT8662</name></trkpt>
<trkpt lat="54.620977" lon="-3.130542"><ele>182</ele><time>2020-08-14T14:53:34Z</time><name>PT8663</name></trkpt>
<trkpt lat="54.620983" lon="-3.130560"><ele>182</ele><time>2020-08-14T14:53:35Z</time><name>PT8664</name></trkpt>
<trkpt lat="54.620988" lon="-3.130578"><ele>182</ele><time>2020-08-14T14:53:36Z</time><name>PT8665</name></trkpt>
<trkpt lat="54.620992" lon="-3.130597"><ele>182</ele><time>2020-08-14T14:53:37Z</time><name>PT8666</name></trkpt>
<trkpt lat="54.620994" lon="-3.130615"><ele>182</ele><time>2020-08-14T14:53:38Z</time><name>PT8667</name></trkpt>
<trkpt lat="54.620998" lon="-3.130630"><ele>181</ele><time>2020-08-14T14:53:39Z</time><name>PT8668</name></trkpt>
<trkpt lat="54.621003" lon="-3.130648"><ele>181</ele><time>2020-08-14T14:53:40Z</time><name>PT8669</name></trkpt>
<trkpt lat="54.621007" lon="-3.130666"><ele>181</ele><time>2020-08-14T14:53:41Z</time><name>PT8670</name></trkpt>
<trkpt lat="54.621010" lon="-3.130684"><ele>181</ele><time>2020-08-14T14:53:42Z</time><name>PT8671</name></trkpt>
<trkpt lat="54.621014" lon="-3.130702"><ele>180</ele><time>2020-08-14T14:53:43Z</time><name>PT8672</name></trkpt>
<trkpt lat="54.621015" lon="-3.130719"><ele>180</ele><time>2020-08-14T14:53:44Z</time><name>PT8673</name></trkpt>
<trkpt lat="54.621012" lon="-3.130731"><ele>180</ele><time>2020-08-14T14:53:45Z</time><name>PT8674</name></trkpt>
<trkpt lat="54.621008" lon="-3.130742"><ele>180</ele><time>2020-08-14T14:53:46Z</time><name>PT8675</name></trkpt>
<trkpt lat="54.621002" lon="-3.130756"><ele>180</ele><time>2020-08-14T14:53:47Z</time><name>PT8676</name></trkpt>
<trkpt lat="54.620996" lon="-3.130763"><ele>180</ele><time>2020-08-14T14:53:48Z</time><name>PT8677</name></trkpt>
<trkpt lat="54.620986" lon="-3.130763"><ele>180</ele><time>2020-08-14T14:53:49Z</time><name>PT8678</name></trkpt></trkseg></trk></gpx>